<?xml version="1.0" encoding="UTF-8" standalone="no" ?>
<gpx xmlns="http://www.topografix.com/GPX/1/1" xmlns:gpxtpx="http://www.garmin.com/xmlschemas/TrackPointExtension/v1" creator="OruxMaps v.6.0.7 Donate" version="1.1" xmlns:xsi="http://www.w3.org/2001/XMLSchema-instance" xsi:schemaLocation="http://www.topografix.com/GPX/1/1 http://www.topografix.com/GPX/1/1/gpx.xsd">
<metadata>
<name><![CDATA[2015-04-30 10:00]]></name>
<desc><![CDATA[]]></desc>
<link href="http://www.oruxmaps.com">
<text>OruxMaps</text>
</link>
<time>2015-04-30T07:00:21Z</time><bounds maxlat="34.9675771" maxlon="33.0451367" minlat="34.6705108" minlon="32.8270214"/>
</metadata>
<trk>
<name><![CDATA[2015-04-30 10:00]]></name>
<desc><![CDATA[<h1>OruxMaps</h1><br /><hr align="center" width="480" style="height: 2px; width: 517px"/><h2>Name: 2015-04-30 10:00</h2><br /><p>Start time: 04/30/2015 10:00</p><p>Finish time: 04/30/2015 17:30</p><p>Distance: 66.2km (07:30)</p><p>Moving time: 05:03</p><p>Average speed: 8.8km/h</p><p>Avg. Speed Mov.: 13.1km/h</p><p>Max. Speed: 62.1km/h</p><p>Minimum altitude: 6m</p><p>Maximum altitude: 1814m</p><p>Ascent speed: 374.6m/h</p><p>Descent speed: -866.7m/h</p><p>Elevation gain: 1307m</p><p>Elevation loss: -2421m</p><p>Ascent time: 03:29</p><p>Descent time: 02:47</p><hr align="center" width="480" style="height: 2px; width: 517px"/>]]></desc>
<type>Undefined</type>
<extensions>
<om:oruxmapsextensions xmlns:om="http://www.oruxmaps.com/oruxmapsextensions/1/0">
<om:ext type="TYPE" subtype="0">0</om:ext>
</om:oruxmapsextensions>
</extensions>
<trkseg>
<trkpt lat="34.9674327" lon="32.8275817">
<ele>1147.76</ele>
<time>2015-04-30T07:00:25Z</time>
</trkpt>
<trkpt lat="34.9674791" lon="32.8275542">
<ele>1143.76</ele>
<time>2015-04-30T07:00:26Z</time>
</trkpt>
<trkpt lat="34.9675771" lon="32.8275279">
<ele>1135.01</ele>
<time>2015-04-30T07:00:28Z</time>
</trkpt>
<trkpt lat="34.9675220" lon="32.8275566">
<ele>1136.89</ele>
<time>2015-04-30T07:00:29Z</time>
</trkpt>
<trkpt lat="34.9674777" lon="32.8275384">
<ele>1136.52</ele>
<time>2015-04-30T07:00:33Z</time>
</trkpt>
<trkpt lat="34.9674361" lon="32.8275607">
<ele>1136.71</ele>
<time>2015-04-30T07:00:39Z</time>
</trkpt>
<trkpt lat="34.9674055" lon="32.8275202">
<ele>1145.26</ele>
<time>2015-04-30T07:07:59Z</time>
</trkpt>
<trkpt lat="34.9674286" lon="32.8274725">
<ele>1145.79</ele>
<time>2015-04-30T07:08:40Z</time>
</trkpt>
<trkpt lat="34.9674762" lon="32.8274413">
<ele>1139.02</ele>
<time>2015-04-30T07:09:35Z</time>
</trkpt>
<trkpt lat="34.9674287" lon="32.8274108">
<ele>1134.65</ele>
<time>2015-04-30T07:09:44Z</time>
</trkpt>
<trkpt lat="34.9673789" lon="32.8274008">
<ele>1131.62</ele>
<time>2015-04-30T07:09:47Z</time>
</trkpt>
<trkpt lat="34.9673226" lon="32.8274031">
<ele>1131.74</ele>
<time>2015-04-30T07:09:50Z</time>
</trkpt>
<trkpt lat="34.9672665" lon="32.8273987">
<ele>1130.51</ele>
<time>2015-04-30T07:09:53Z</time>
</trkpt>
<trkpt lat="34.9672211" lon="32.8274064">
<ele>1129.62</ele>
<time>2015-04-30T07:09:57Z</time>
</trkpt>
<trkpt lat="34.9671766" lon="32.8274166">
<ele>1129.00</ele>
<time>2015-04-30T07:10:01Z</time>
</trkpt>
<trkpt lat="34.9671309" lon="32.8274354">
<ele>1128.46</ele>
<time>2015-04-30T07:10:05Z</time>
</trkpt>
<trkpt lat="34.9670769" lon="32.8274497">
<ele>1127.38</ele>
<time>2015-04-30T07:10:10Z</time>
</trkpt>
<trkpt lat="34.9670320" lon="32.8274707">
<ele>1127.09</ele>
<time>2015-04-30T07:10:13Z</time>
</trkpt>
<trkpt lat="34.9669875" lon="32.8274909">
<ele>1127.93</ele>
<time>2015-04-30T07:10:16Z</time>
</trkpt>
<trkpt lat="34.9669365" lon="32.8275279">
<ele>1130.46</ele>
<time>2015-04-30T07:10:20Z</time>
</trkpt>
<trkpt lat="34.9668878" lon="32.8275474">
<ele>1128.99</ele>
<time>2015-04-30T07:10:24Z</time>
</trkpt>
<trkpt lat="34.9668446" lon="32.8275800">
<ele>1129.15</ele>
<time>2015-04-30T07:10:28Z</time>
</trkpt>
<trkpt lat="34.9667941" lon="32.8276172">
<ele>1130.60</ele>
<time>2015-04-30T07:10:32Z</time>
</trkpt>
<trkpt lat="34.9667473" lon="32.8276447">
<ele>1132.99</ele>
<time>2015-04-30T07:10:35Z</time>
</trkpt>
<trkpt lat="34.9666961" lon="32.8276757">
<ele>1132.52</ele>
<time>2015-04-30T07:10:39Z</time>
</trkpt>
<trkpt lat="34.9666582" lon="32.8277181">
<ele>1132.68</ele>
<time>2015-04-30T07:10:43Z</time>
</trkpt>
<trkpt lat="34.9666328" lon="32.8277682">
<ele>1131.79</ele>
<time>2015-04-30T07:10:48Z</time>
</trkpt>
<trkpt lat="34.9665945" lon="32.8278018">
<ele>1130.03</ele>
<time>2015-04-30T07:10:54Z</time>
</trkpt>
<trkpt lat="34.9665631" lon="32.8278447">
<ele>1131.34</ele>
<time>2015-04-30T07:10:58Z</time>
</trkpt>
<trkpt lat="34.9665226" lon="32.8278799">
<ele>1132.17</ele>
<time>2015-04-30T07:11:02Z</time>
</trkpt>
<trkpt lat="34.9664851" lon="32.8279171">
<ele>1134.35</ele>
<time>2015-04-30T07:11:06Z</time>
</trkpt>
<trkpt lat="34.9664398" lon="32.8279442">
<ele>1136.23</ele>
<time>2015-04-30T07:11:10Z</time>
</trkpt>
<trkpt lat="34.9663956" lon="32.8279560">
<ele>1135.07</ele>
<time>2015-04-30T07:11:13Z</time>
</trkpt>
<trkpt lat="34.9663426" lon="32.8279805">
<ele>1133.90</ele>
<time>2015-04-30T07:11:17Z</time>
</trkpt>
<trkpt lat="34.9662938" lon="32.8280034">
<ele>1134.21</ele>
<time>2015-04-30T07:11:21Z</time>
</trkpt>
<trkpt lat="34.9662481" lon="32.8280369">
<ele>1134.48</ele>
<time>2015-04-30T07:11:25Z</time>
</trkpt>
<trkpt lat="34.9662114" lon="32.8280694">
<ele>1135.10</ele>
<time>2015-04-30T07:11:28Z</time>
</trkpt>
<trkpt lat="34.9661571" lon="32.8280986">
<ele>1135.22</ele>
<time>2015-04-30T07:11:32Z</time>
</trkpt>
<trkpt lat="34.9661144" lon="32.8281215">
<ele>1136.94</ele>
<time>2015-04-30T07:11:35Z</time>
</trkpt>
<trkpt lat="34.9660639" lon="32.8281552">
<ele>1136.15</ele>
<time>2015-04-30T07:11:39Z</time>
</trkpt>
<trkpt lat="34.9660212" lon="32.8282061">
<ele>1137.60</ele>
<time>2015-04-30T07:11:43Z</time>
</trkpt>
<trkpt lat="34.9659690" lon="32.8282425">
<ele>1139.19</ele>
<time>2015-04-30T07:11:47Z</time>
</trkpt>
<trkpt lat="34.9659251" lon="32.8282718">
<ele>1138.06</ele>
<time>2015-04-30T07:11:50Z</time>
</trkpt>
<trkpt lat="34.9658849" lon="32.8283024">
<ele>1137.80</ele>
<time>2015-04-30T07:11:53Z</time>
</trkpt>
<trkpt lat="34.9658445" lon="32.8283291">
<ele>1136.89</ele>
<time>2015-04-30T07:11:56Z</time>
</trkpt>
<trkpt lat="34.9658049" lon="32.8283634">
<ele>1137.53</ele>
<time>2015-04-30T07:11:59Z</time>
</trkpt>
<trkpt lat="34.9657673" lon="32.8283943">
<ele>1137.73</ele>
<time>2015-04-30T07:12:02Z</time>
</trkpt>
<trkpt lat="34.9657346" lon="32.8284435">
<ele>1136.82</ele>
<time>2015-04-30T07:12:06Z</time>
</trkpt>
<trkpt lat="34.9656964" lon="32.8284743">
<ele>1138.39</ele>
<time>2015-04-30T07:12:10Z</time>
</trkpt>
<trkpt lat="34.9656543" lon="32.8285114">
<ele>1139.80</ele>
<time>2015-04-30T07:12:14Z</time>
</trkpt>
<trkpt lat="34.9656180" lon="32.8285539">
<ele>1140.51</ele>
<time>2015-04-30T07:12:18Z</time>
</trkpt>
<trkpt lat="34.9655793" lon="32.8286000">
<ele>1140.12</ele>
<time>2015-04-30T07:12:22Z</time>
</trkpt>
<trkpt lat="34.9655445" lon="32.8286492">
<ele>1139.03</ele>
<time>2015-04-30T07:12:26Z</time>
</trkpt>
<trkpt lat="34.9655070" lon="32.8286901">
<ele>1139.46</ele>
<time>2015-04-30T07:12:30Z</time>
</trkpt>
<trkpt lat="34.9654676" lon="32.8287299">
<ele>1140.24</ele>
<time>2015-04-30T07:12:34Z</time>
</trkpt>
<trkpt lat="34.9654218" lon="32.8287564">
<ele>1139.79</ele>
<time>2015-04-30T07:12:38Z</time>
</trkpt>
<trkpt lat="34.9653812" lon="32.8287847">
<ele>1139.82</ele>
<time>2015-04-30T07:12:42Z</time>
</trkpt>
<trkpt lat="34.9653400" lon="32.8288070">
<ele>1140.20</ele>
<time>2015-04-30T07:12:46Z</time>
</trkpt>
<trkpt lat="34.9652903" lon="32.8288345">
<ele>1139.79</ele>
<time>2015-04-30T07:12:50Z</time>
</trkpt>
<trkpt lat="34.9652487" lon="32.8288629">
<ele>1139.76</ele>
<time>2015-04-30T07:12:53Z</time>
</trkpt>
<trkpt lat="34.9652094" lon="32.8288952">
<ele>1139.01</ele>
<time>2015-04-30T07:12:56Z</time>
</trkpt>
<trkpt lat="34.9651724" lon="32.8289307">
<ele>1137.92</ele>
<time>2015-04-30T07:12:59Z</time>
</trkpt>
<trkpt lat="34.9651357" lon="32.8289668">
<ele>1137.28</ele>
<time>2015-04-30T07:13:02Z</time>
</trkpt>
<trkpt lat="34.9650969" lon="32.8290008">
<ele>1138.07</ele>
<time>2015-04-30T07:13:05Z</time>
</trkpt>
<trkpt lat="34.9650573" lon="32.8290468">
<ele>1139.53</ele>
<time>2015-04-30T07:13:09Z</time>
</trkpt>
<trkpt lat="34.9650198" lon="32.8290811">
<ele>1140.68</ele>
<time>2015-04-30T07:13:13Z</time>
</trkpt>
<trkpt lat="34.9649678" lon="32.8291091">
<ele>1143.41</ele>
<time>2015-04-30T07:13:18Z</time>
</trkpt>
<trkpt lat="34.9649195" lon="32.8291278">
<ele>1144.36</ele>
<time>2015-04-30T07:13:22Z</time>
</trkpt>
<trkpt lat="34.9648727" lon="32.8291446">
<ele>1145.21</ele>
<time>2015-04-30T07:13:25Z</time>
</trkpt>
<trkpt lat="34.9648183" lon="32.8291567">
<ele>1143.69</ele>
<time>2015-04-30T07:13:28Z</time>
</trkpt>
<trkpt lat="34.9647660" lon="32.8291490">
<ele>1142.50</ele>
<time>2015-04-30T07:13:31Z</time>
</trkpt>
<trkpt lat="34.9647232" lon="32.8291269">
<ele>1140.48</ele>
<time>2015-04-30T07:13:34Z</time>
</trkpt>
<trkpt lat="34.9646845" lon="32.8290934">
<ele>1138.24</ele>
<time>2015-04-30T07:13:38Z</time>
</trkpt>
<trkpt lat="34.9646342" lon="32.8290859">
<ele>1138.72</ele>
<time>2015-04-30T07:13:44Z</time>
</trkpt>
<trkpt lat="34.9645917" lon="32.8290587">
<ele>1138.63</ele>
<time>2015-04-30T07:13:47Z</time>
</trkpt>
<trkpt lat="34.9645385" lon="32.8290371">
<ele>1140.12</ele>
<time>2015-04-30T07:13:50Z</time>
</trkpt>
<trkpt lat="34.9644875" lon="32.8290132">
<ele>1143.22</ele>
<time>2015-04-30T07:13:54Z</time>
</trkpt>
<trkpt lat="34.9644452" lon="32.8289911">
<ele>1140.60</ele>
<time>2015-04-30T07:13:58Z</time>
</trkpt>
<trkpt lat="34.9643865" lon="32.8289749">
<ele>1140.75</ele>
<time>2015-04-30T07:14:02Z</time>
</trkpt>
<trkpt lat="34.9643349" lon="32.8289585">
<ele>1140.63</ele>
<time>2015-04-30T07:14:05Z</time>
</trkpt>
<trkpt lat="34.9642765" lon="32.8289493">
<ele>1141.87</ele>
<time>2015-04-30T07:14:08Z</time>
</trkpt>
<trkpt lat="34.9642216" lon="32.8289581">
<ele>1144.40</ele>
<time>2015-04-30T07:14:11Z</time>
</trkpt>
<trkpt lat="34.9641634" lon="32.8289695">
<ele>1146.84</ele>
<time>2015-04-30T07:14:14Z</time>
</trkpt>
<trkpt lat="34.9641129" lon="32.8289774">
<ele>1147.65</ele>
<time>2015-04-30T07:14:17Z</time>
</trkpt>
<trkpt lat="34.9640664" lon="32.8289779">
<ele>1148.12</ele>
<time>2015-04-30T07:14:20Z</time>
</trkpt>
<trkpt lat="34.9640112" lon="32.8289746">
<ele>1148.66</ele>
<time>2015-04-30T07:14:24Z</time>
</trkpt>
<trkpt lat="34.9639607" lon="32.8289699">
<ele>1147.38</ele>
<time>2015-04-30T07:14:28Z</time>
</trkpt>
<trkpt lat="34.9639096" lon="32.8289724">
<ele>1146.30</ele>
<time>2015-04-30T07:14:32Z</time>
</trkpt>
<trkpt lat="34.9638615" lon="32.8289598">
<ele>1142.83</ele>
<time>2015-04-30T07:14:35Z</time>
</trkpt>
<trkpt lat="34.9638069" lon="32.8289420">
<ele>1140.39</ele>
<time>2015-04-30T07:14:39Z</time>
</trkpt>
<trkpt lat="34.9637562" lon="32.8289374">
<ele>1139.84</ele>
<time>2015-04-30T07:14:42Z</time>
</trkpt>
<trkpt lat="34.9637041" lon="32.8289515">
<ele>1141.14</ele>
<time>2015-04-30T07:14:45Z</time>
</trkpt>
<trkpt lat="34.9636548" lon="32.8289552">
<ele>1142.56</ele>
<time>2015-04-30T07:14:48Z</time>
</trkpt>
<trkpt lat="34.9636048" lon="32.8289540">
<ele>1144.11</ele>
<time>2015-04-30T07:14:51Z</time>
</trkpt>
<trkpt lat="34.9635552" lon="32.8289475">
<ele>1146.30</ele>
<time>2015-04-30T07:14:54Z</time>
</trkpt>
<trkpt lat="34.9635060" lon="32.8289391">
<ele>1148.79</ele>
<time>2015-04-30T07:14:58Z</time>
</trkpt>
<trkpt lat="34.9634440" lon="32.8289440">
<ele>1149.95</ele>
<time>2015-04-30T07:15:02Z</time>
</trkpt>
<trkpt lat="34.9633920" lon="32.8289333">
<ele>1150.78</ele>
<time>2015-04-30T07:15:05Z</time>
</trkpt>
<trkpt lat="34.9633442" lon="32.8289414">
<ele>1154.26</ele>
<time>2015-04-30T07:15:08Z</time>
</trkpt>
<trkpt lat="34.9632946" lon="32.8289522">
<ele>1154.95</ele>
<time>2015-04-30T07:15:11Z</time>
</trkpt>
<trkpt lat="34.9632387" lon="32.8289545">
<ele>1153.28</ele>
<time>2015-04-30T07:15:14Z</time>
</trkpt>
<trkpt lat="34.9631734" lon="32.8289472">
<ele>1151.08</ele>
<time>2015-04-30T07:15:17Z</time>
</trkpt>
<trkpt lat="34.9631285" lon="32.8289532">
<ele>1150.84</ele>
<time>2015-04-30T07:15:19Z</time>
</trkpt>
<trkpt lat="34.9630831" lon="32.8289622">
<ele>1151.53</ele>
<time>2015-04-30T07:15:21Z</time>
</trkpt>
<trkpt lat="34.9630213" lon="32.8289658">
<ele>1151.86</ele>
<time>2015-04-30T07:15:24Z</time>
</trkpt>
<trkpt lat="34.9629734" lon="32.8289674">
<ele>1151.03</ele>
<time>2015-04-30T07:15:26Z</time>
</trkpt>
<trkpt lat="34.9629208" lon="32.8289592">
<ele>1149.54</ele>
<time>2015-04-30T07:15:29Z</time>
</trkpt>
<trkpt lat="34.9628557" lon="32.8289460">
<ele>1148.86</ele>
<time>2015-04-30T07:15:32Z</time>
</trkpt>
<trkpt lat="34.9628121" lon="32.8289225">
<ele>1149.65</ele>
<time>2015-04-30T07:15:35Z</time>
</trkpt>
<trkpt lat="34.9627658" lon="32.8289050">
<ele>1149.87</ele>
<time>2015-04-30T07:15:38Z</time>
</trkpt>
<trkpt lat="34.9627082" lon="32.8288863">
<ele>1152.08</ele>
<time>2015-04-30T07:15:42Z</time>
</trkpt>
<trkpt lat="34.9626454" lon="32.8288820">
<ele>1153.67</ele>
<time>2015-04-30T07:15:45Z</time>
</trkpt>
<trkpt lat="34.9625800" lon="32.8288819">
<ele>1155.12</ele>
<time>2015-04-30T07:15:48Z</time>
</trkpt>
<trkpt lat="34.9625251" lon="32.8288820">
<ele>1157.81</ele>
<time>2015-04-30T07:15:51Z</time>
</trkpt>
<trkpt lat="34.9624768" lon="32.8288944">
<ele>1160.89</ele>
<time>2015-04-30T07:15:54Z</time>
</trkpt>
<trkpt lat="34.9624290" lon="32.8289127">
<ele>1161.28</ele>
<time>2015-04-30T07:15:57Z</time>
</trkpt>
<trkpt lat="34.9623787" lon="32.8289207">
<ele>1162.20</ele>
<time>2015-04-30T07:16:00Z</time>
</trkpt>
<trkpt lat="34.9623228" lon="32.8289380">
<ele>1163.31</ele>
<time>2015-04-30T07:16:03Z</time>
</trkpt>
<trkpt lat="34.9622656" lon="32.8289464">
<ele>1163.70</ele>
<time>2015-04-30T07:16:06Z</time>
</trkpt>
<trkpt lat="34.9622111" lon="32.8289482">
<ele>1162.63</ele>
<time>2015-04-30T07:16:09Z</time>
</trkpt>
<trkpt lat="34.9621616" lon="32.8289573">
<ele>1162.12</ele>
<time>2015-04-30T07:16:12Z</time>
</trkpt>
<trkpt lat="34.9621156" lon="32.8289591">
<ele>1162.30</ele>
<time>2015-04-30T07:16:15Z</time>
</trkpt>
<trkpt lat="34.9620662" lon="32.8289647">
<ele>1161.83</ele>
<time>2015-04-30T07:16:18Z</time>
</trkpt>
<trkpt lat="34.9620153" lon="32.8289741">
<ele>1162.64</ele>
<time>2015-04-30T07:16:21Z</time>
</trkpt>
<trkpt lat="34.9619615" lon="32.8289825">
<ele>1162.75</ele>
<time>2015-04-30T07:16:24Z</time>
</trkpt>
<trkpt lat="34.9619122" lon="32.8289950">
<ele>1163.63</ele>
<time>2015-04-30T07:16:27Z</time>
</trkpt>
<trkpt lat="34.9618598" lon="32.8289960">
<ele>1163.74</ele>
<time>2015-04-30T07:16:30Z</time>
</trkpt>
<trkpt lat="34.9618122" lon="32.8290044">
<ele>1164.51</ele>
<time>2015-04-30T07:16:33Z</time>
</trkpt>
<trkpt lat="34.9617526" lon="32.8290115">
<ele>1165.31</ele>
<time>2015-04-30T07:16:37Z</time>
</trkpt>
<trkpt lat="34.9617064" lon="32.8289994">
<ele>1166.08</ele>
<time>2015-04-30T07:16:40Z</time>
</trkpt>
<trkpt lat="34.9616647" lon="32.8289685">
<ele>1166.30</ele>
<time>2015-04-30T07:16:43Z</time>
</trkpt>
<trkpt lat="34.9616340" lon="32.8289232">
<ele>1167.20</ele>
<time>2015-04-30T07:16:46Z</time>
</trkpt>
<trkpt lat="34.9616139" lon="32.8288699">
<ele>1168.44</ele>
<time>2015-04-30T07:16:49Z</time>
</trkpt>
<trkpt lat="34.9616300" lon="32.8288023">
<ele>1169.61</ele>
<time>2015-04-30T07:16:53Z</time>
</trkpt>
<trkpt lat="34.9616637" lon="32.8287630">
<ele>1169.81</ele>
<time>2015-04-30T07:16:57Z</time>
</trkpt>
<trkpt lat="34.9617197" lon="32.8287565">
<ele>1171.70</ele>
<time>2015-04-30T07:17:01Z</time>
</trkpt>
<trkpt lat="34.9617708" lon="32.8287552">
<ele>1171.13</ele>
<time>2015-04-30T07:17:05Z</time>
</trkpt>
<trkpt lat="34.9618151" lon="32.8287755">
<ele>1170.93</ele>
<time>2015-04-30T07:17:08Z</time>
</trkpt>
<trkpt lat="34.9618680" lon="32.8287840">
<ele>1168.78</ele>
<time>2015-04-30T07:17:11Z</time>
</trkpt>
<trkpt lat="34.9619159" lon="32.8287947">
<ele>1167.39</ele>
<time>2015-04-30T07:17:14Z</time>
</trkpt>
<trkpt lat="34.9619710" lon="32.8288112">
<ele>1169.11</ele>
<time>2015-04-30T07:17:18Z</time>
</trkpt>
<trkpt lat="34.9620217" lon="32.8287974">
<ele>1169.72</ele>
<time>2015-04-30T07:17:22Z</time>
</trkpt>
<trkpt lat="34.9620745" lon="32.8287660">
<ele>1173.45</ele>
<time>2015-04-30T07:17:27Z</time>
</trkpt>
<trkpt lat="34.9621171" lon="32.8287378">
<ele>1175.72</ele>
<time>2015-04-30T07:17:30Z</time>
</trkpt>
<trkpt lat="34.9621605" lon="32.8286890">
<ele>1173.63</ele>
<time>2015-04-30T07:17:33Z</time>
</trkpt>
<trkpt lat="34.9622019" lon="32.8286446">
<ele>1174.62</ele>
<time>2015-04-30T07:17:36Z</time>
</trkpt>
<trkpt lat="34.9622502" lon="32.8285969">
<ele>1173.99</ele>
<time>2015-04-30T07:17:39Z</time>
</trkpt>
<trkpt lat="34.9622942" lon="32.8285607">
<ele>1175.04</ele>
<time>2015-04-30T07:17:42Z</time>
</trkpt>
<trkpt lat="34.9623407" lon="32.8285314">
<ele>1172.29</ele>
<time>2015-04-30T07:17:45Z</time>
</trkpt>
<trkpt lat="34.9623957" lon="32.8285027">
<ele>1172.67</ele>
<time>2015-04-30T07:17:49Z</time>
</trkpt>
<trkpt lat="34.9624459" lon="32.8284980">
<ele>1173.50</ele>
<time>2015-04-30T07:17:52Z</time>
</trkpt>
<trkpt lat="34.9624957" lon="32.8284887">
<ele>1172.98</ele>
<time>2015-04-30T07:17:55Z</time>
</trkpt>
<trkpt lat="34.9625516" lon="32.8284799">
<ele>1173.29</ele>
<time>2015-04-30T07:17:58Z</time>
</trkpt>
<trkpt lat="34.9626099" lon="32.8284851">
<ele>1173.70</ele>
<time>2015-04-30T07:18:01Z</time>
</trkpt>
<trkpt lat="34.9626690" lon="32.8284891">
<ele>1172.75</ele>
<time>2015-04-30T07:18:04Z</time>
</trkpt>
<trkpt lat="34.9627251" lon="32.8285076">
<ele>1171.26</ele>
<time>2015-04-30T07:18:07Z</time>
</trkpt>
<trkpt lat="34.9627754" lon="32.8284958">
<ele>1171.38</ele>
<time>2015-04-30T07:18:09Z</time>
</trkpt>
<trkpt lat="34.9628263" lon="32.8284894">
<ele>1171.67</ele>
<time>2015-04-30T07:18:11Z</time>
</trkpt>
<trkpt lat="34.9628731" lon="32.8284907">
<ele>1172.24</ele>
<time>2015-04-30T07:18:13Z</time>
</trkpt>
<trkpt lat="34.9629243" lon="32.8285025">
<ele>1172.57</ele>
<time>2015-04-30T07:18:16Z</time>
</trkpt>
<trkpt lat="34.9629753" lon="32.8285059">
<ele>1175.86</ele>
<time>2015-04-30T07:18:19Z</time>
</trkpt>
<trkpt lat="34.9630242" lon="32.8285091">
<ele>1180.02</ele>
<time>2015-04-30T07:18:22Z</time>
</trkpt>
<trkpt lat="34.9630930" lon="32.8284970">
<ele>1179.17</ele>
<time>2015-04-30T07:18:25Z</time>
</trkpt>
<trkpt lat="34.9631447" lon="32.8284845">
<ele>1177.86</ele>
<time>2015-04-30T07:18:27Z</time>
</trkpt>
<trkpt lat="34.9632178" lon="32.8284632">
<ele>1177.02</ele>
<time>2015-04-30T07:18:30Z</time>
</trkpt>
<trkpt lat="34.9632754" lon="32.8284529">
<ele>1176.83</ele>
<time>2015-04-30T07:18:32Z</time>
</trkpt>
<trkpt lat="34.9633217" lon="32.8284440">
<ele>1178.03</ele>
<time>2015-04-30T07:18:34Z</time>
</trkpt>
<trkpt lat="34.9633810" lon="32.8284250">
<ele>1178.58</ele>
<time>2015-04-30T07:18:36Z</time>
</trkpt>
<trkpt lat="34.9634262" lon="32.8284135">
<ele>1178.71</ele>
<time>2015-04-30T07:18:38Z</time>
</trkpt>
<trkpt lat="34.9634708" lon="32.8284023">
<ele>1179.00</ele>
<time>2015-04-30T07:18:40Z</time>
</trkpt>
<trkpt lat="34.9635283" lon="32.8283896">
<ele>1179.16</ele>
<time>2015-04-30T07:18:43Z</time>
</trkpt>
<trkpt lat="34.9635902" lon="32.8283748">
<ele>1180.44</ele>
<time>2015-04-30T07:18:46Z</time>
</trkpt>
<trkpt lat="34.9636359" lon="32.8283708">
<ele>1180.68</ele>
<time>2015-04-30T07:18:48Z</time>
</trkpt>
<trkpt lat="34.9636837" lon="32.8283671">
<ele>1180.74</ele>
<time>2015-04-30T07:18:50Z</time>
</trkpt>
<trkpt lat="34.9637382" lon="32.8283690">
<ele>1178.51</ele>
<time>2015-04-30T07:18:53Z</time>
</trkpt>
<trkpt lat="34.9637850" lon="32.8283680">
<ele>1176.60</ele>
<time>2015-04-30T07:18:56Z</time>
</trkpt>
<trkpt lat="34.9638335" lon="32.8283606">
<ele>1176.74</ele>
<time>2015-04-30T07:18:59Z</time>
</trkpt>
<trkpt lat="34.9638884" lon="32.8283397">
<ele>1178.95</ele>
<time>2015-04-30T07:19:03Z</time>
</trkpt>
<trkpt lat="34.9638888" lon="32.8282836">
<ele>1177.91</ele>
<time>2015-04-30T07:19:06Z</time>
</trkpt>
<trkpt lat="34.9638466" lon="32.8282505">
<ele>1178.90</ele>
<time>2015-04-30T07:19:09Z</time>
</trkpt>
<trkpt lat="34.9637990" lon="32.8282386">
<ele>1178.90</ele>
<time>2015-04-30T07:19:12Z</time>
</trkpt>
<trkpt lat="34.9637534" lon="32.8282395">
<ele>1178.65</ele>
<time>2015-04-30T07:19:15Z</time>
</trkpt>
<trkpt lat="34.9637031" lon="32.8282471">
<ele>1179.87</ele>
<time>2015-04-30T07:19:18Z</time>
</trkpt>
<trkpt lat="34.9636543" lon="32.8282442">
<ele>1179.52</ele>
<time>2015-04-30T07:19:21Z</time>
</trkpt>
<trkpt lat="34.9636014" lon="32.8282488">
<ele>1180.11</ele>
<time>2015-04-30T07:19:24Z</time>
</trkpt>
<trkpt lat="34.9635506" lon="32.8282499">
<ele>1180.55</ele>
<time>2015-04-30T07:19:27Z</time>
</trkpt>
<trkpt lat="34.9634974" lon="32.8282626">
<ele>1182.11</ele>
<time>2015-04-30T07:19:30Z</time>
</trkpt>
<trkpt lat="34.9634426" lon="32.8282788">
<ele>1183.80</ele>
<time>2015-04-30T07:19:33Z</time>
</trkpt>
<trkpt lat="34.9633890" lon="32.8282818">
<ele>1184.02</ele>
<time>2015-04-30T07:19:36Z</time>
</trkpt>
<trkpt lat="34.9633352" lon="32.8282838">
<ele>1184.54</ele>
<time>2015-04-30T07:19:39Z</time>
</trkpt>
<trkpt lat="34.9632802" lon="32.8282885">
<ele>1185.61</ele>
<time>2015-04-30T07:19:42Z</time>
</trkpt>
<trkpt lat="34.9632282" lon="32.8282917">
<ele>1186.49</ele>
<time>2015-04-30T07:19:45Z</time>
</trkpt>
<trkpt lat="34.9631821" lon="32.8282808">
<ele>1185.98</ele>
<time>2015-04-30T07:19:48Z</time>
</trkpt>
<trkpt lat="34.9631374" lon="32.8282633">
<ele>1185.41</ele>
<time>2015-04-30T07:19:51Z</time>
</trkpt>
<trkpt lat="34.9630854" lon="32.8282542">
<ele>1186.09</ele>
<time>2015-04-30T07:19:54Z</time>
</trkpt>
<trkpt lat="34.9630311" lon="32.8282291">
<ele>1185.93</ele>
<time>2015-04-30T07:19:57Z</time>
</trkpt>
<trkpt lat="34.9629766" lon="32.8282106">
<ele>1186.53</ele>
<time>2015-04-30T07:20:00Z</time>
</trkpt>
<trkpt lat="34.9629219" lon="32.8281931">
<ele>1187.48</ele>
<time>2015-04-30T07:20:03Z</time>
</trkpt>
<trkpt lat="34.9628664" lon="32.8281718">
<ele>1188.48</ele>
<time>2015-04-30T07:20:06Z</time>
</trkpt>
<trkpt lat="34.9628162" lon="32.8281494">
<ele>1187.85</ele>
<time>2015-04-30T07:20:09Z</time>
</trkpt>
<trkpt lat="34.9627698" lon="32.8281203">
<ele>1187.90</ele>
<time>2015-04-30T07:20:12Z</time>
</trkpt>
<trkpt lat="34.9627203" lon="32.8280928">
<ele>1189.58</ele>
<time>2015-04-30T07:20:16Z</time>
</trkpt>
<trkpt lat="34.9626784" lon="32.8280662">
<ele>1188.88</ele>
<time>2015-04-30T07:20:21Z</time>
</trkpt>
<trkpt lat="34.9626278" lon="32.8280675">
<ele>1190.45</ele>
<time>2015-04-30T07:20:25Z</time>
</trkpt>
<trkpt lat="34.9625731" lon="32.8280576">
<ele>1191.62</ele>
<time>2015-04-30T07:20:29Z</time>
</trkpt>
<trkpt lat="34.9625276" lon="32.8280404">
<ele>1192.24</ele>
<time>2015-04-30T07:20:32Z</time>
</trkpt>
<trkpt lat="34.9624722" lon="32.8280124">
<ele>1193.29</ele>
<time>2015-04-30T07:20:36Z</time>
</trkpt>
<trkpt lat="34.9624269" lon="32.8279990">
<ele>1192.95</ele>
<time>2015-04-30T07:20:39Z</time>
</trkpt>
<trkpt lat="34.9623731" lon="32.8279764">
<ele>1189.46</ele>
<time>2015-04-30T07:20:43Z</time>
</trkpt>
<trkpt lat="34.9623142" lon="32.8279596">
<ele>1188.74</ele>
<time>2015-04-30T07:20:47Z</time>
</trkpt>
<trkpt lat="34.9622630" lon="32.8279531">
<ele>1189.38</ele>
<time>2015-04-30T07:20:50Z</time>
</trkpt>
<trkpt lat="34.9622082" lon="32.8279468">
<ele>1190.84</ele>
<time>2015-04-30T07:20:53Z</time>
</trkpt>
<trkpt lat="34.9621469" lon="32.8279518">
<ele>1194.14</ele>
<time>2015-04-30T07:20:56Z</time>
</trkpt>
<trkpt lat="34.9620917" lon="32.8279556">
<ele>1193.56</ele>
<time>2015-04-30T07:20:59Z</time>
</trkpt>
<trkpt lat="34.9620350" lon="32.8279718">
<ele>1195.48</ele>
<time>2015-04-30T07:21:02Z</time>
</trkpt>
<trkpt lat="34.9619897" lon="32.8279726">
<ele>1193.60</ele>
<time>2015-04-30T07:21:05Z</time>
</trkpt>
<trkpt lat="34.9619444" lon="32.8279704">
<ele>1193.24</ele>
<time>2015-04-30T07:21:08Z</time>
</trkpt>
<trkpt lat="34.9618897" lon="32.8279802">
<ele>1194.48</ele>
<time>2015-04-30T07:21:12Z</time>
</trkpt>
<trkpt lat="34.9618302" lon="32.8279943">
<ele>1196.43</ele>
<time>2015-04-30T07:21:16Z</time>
</trkpt>
<trkpt lat="34.9617780" lon="32.8279978">
<ele>1197.47</ele>
<time>2015-04-30T07:21:19Z</time>
</trkpt>
<trkpt lat="34.9617204" lon="32.8279889">
<ele>1198.35</ele>
<time>2015-04-30T07:21:22Z</time>
</trkpt>
<trkpt lat="34.9616687" lon="32.8279792">
<ele>1199.46</ele>
<time>2015-04-30T07:21:25Z</time>
</trkpt>
<trkpt lat="34.9616292" lon="32.8279262">
<ele>1199.74</ele>
<time>2015-04-30T07:21:29Z</time>
</trkpt>
<trkpt lat="34.9615818" lon="32.8279031">
<ele>1198.07</ele>
<time>2015-04-30T07:21:33Z</time>
</trkpt>
<trkpt lat="34.9615371" lon="32.8278755">
<ele>1196.84</ele>
<time>2015-04-30T07:21:37Z</time>
</trkpt>
<trkpt lat="34.9614985" lon="32.8278442">
<ele>1195.45</ele>
<time>2015-04-30T07:21:41Z</time>
</trkpt>
<trkpt lat="34.9614866" lon="32.8277830">
<ele>1194.91</ele>
<time>2015-04-30T07:21:46Z</time>
</trkpt>
<trkpt lat="34.9614364" lon="32.8277569">
<ele>1194.64</ele>
<time>2015-04-30T07:21:51Z</time>
</trkpt>
<trkpt lat="34.9613885" lon="32.8277362">
<ele>1194.24</ele>
<time>2015-04-30T07:21:54Z</time>
</trkpt>
<trkpt lat="34.9613442" lon="32.8277184">
<ele>1196.32</ele>
<time>2015-04-30T07:21:57Z</time>
</trkpt>
<trkpt lat="34.9613033" lon="32.8276875">
<ele>1197.46</ele>
<time>2015-04-30T07:22:00Z</time>
</trkpt>
<trkpt lat="34.9612608" lon="32.8276554">
<ele>1199.60</ele>
<time>2015-04-30T07:22:03Z</time>
</trkpt>
<trkpt lat="34.9612178" lon="32.8276111">
<ele>1196.49</ele>
<time>2015-04-30T07:22:06Z</time>
</trkpt>
<trkpt lat="34.9611738" lon="32.8275722">
<ele>1198.48</ele>
<time>2015-04-30T07:22:09Z</time>
</trkpt>
<trkpt lat="34.9611262" lon="32.8275551">
<ele>1199.94</ele>
<time>2015-04-30T07:22:11Z</time>
</trkpt>
<trkpt lat="34.9610794" lon="32.8275237">
<ele>1201.16</ele>
<time>2015-04-30T07:22:14Z</time>
</trkpt>
<trkpt lat="34.9610411" lon="32.8274705">
<ele>1202.10</ele>
<time>2015-04-30T07:22:18Z</time>
</trkpt>
<trkpt lat="34.9610414" lon="32.8274007">
<ele>1198.97</ele>
<time>2015-04-30T07:22:22Z</time>
</trkpt>
<trkpt lat="34.9610388" lon="32.8273293">
<ele>1195.84</ele>
<time>2015-04-30T07:22:26Z</time>
</trkpt>
<trkpt lat="34.9610040" lon="32.8272797">
<ele>1196.70</ele>
<time>2015-04-30T07:22:30Z</time>
</trkpt>
<trkpt lat="34.9609680" lon="32.8272466">
<ele>1197.13</ele>
<time>2015-04-30T07:22:33Z</time>
</trkpt>
<trkpt lat="34.9609158" lon="32.8272269">
<ele>1197.81</ele>
<time>2015-04-30T07:22:36Z</time>
</trkpt>
<trkpt lat="34.9608532" lon="32.8272003">
<ele>1199.39</ele>
<time>2015-04-30T07:22:39Z</time>
</trkpt>
<trkpt lat="34.9607932" lon="32.8271674">
<ele>1201.84</ele>
<time>2015-04-30T07:22:42Z</time>
</trkpt>
<trkpt lat="34.9607330" lon="32.8271426">
<ele>1204.77</ele>
<time>2015-04-30T07:22:45Z</time>
</trkpt>
<trkpt lat="34.9606878" lon="32.8271114">
<ele>1205.64</ele>
<time>2015-04-30T07:22:48Z</time>
</trkpt>
<trkpt lat="34.9606391" lon="32.8270847">
<ele>1204.74</ele>
<time>2015-04-30T07:22:51Z</time>
</trkpt>
<trkpt lat="34.9605901" lon="32.8270515">
<ele>1203.26</ele>
<time>2015-04-30T07:22:55Z</time>
</trkpt>
<trkpt lat="34.9605442" lon="32.8270613">
<ele>1205.42</ele>
<time>2015-04-30T07:22:59Z</time>
</trkpt>
<trkpt lat="34.9605019" lon="32.8270902">
<ele>1206.47</ele>
<time>2015-04-30T07:23:02Z</time>
</trkpt>
<trkpt lat="34.9604516" lon="32.8271030">
<ele>1207.22</ele>
<time>2015-04-30T07:23:05Z</time>
</trkpt>
<trkpt lat="34.9604042" lon="32.8271143">
<ele>1208.57</ele>
<time>2015-04-30T07:23:08Z</time>
</trkpt>
<trkpt lat="34.9603587" lon="32.8271182">
<ele>1209.49</ele>
<time>2015-04-30T07:23:11Z</time>
</trkpt>
<trkpt lat="34.9603130" lon="32.8271179">
<ele>1210.98</ele>
<time>2015-04-30T07:23:14Z</time>
</trkpt>
<trkpt lat="34.9602657" lon="32.8271115">
<ele>1212.41</ele>
<time>2015-04-30T07:23:17Z</time>
</trkpt>
<trkpt lat="34.9602123" lon="32.8271133">
<ele>1212.97</ele>
<time>2015-04-30T07:23:20Z</time>
</trkpt>
<trkpt lat="34.9601550" lon="32.8271190">
<ele>1211.29</ele>
<time>2015-04-30T07:23:23Z</time>
</trkpt>
<trkpt lat="34.9601003" lon="32.8271178">
<ele>1212.20</ele>
<time>2015-04-30T07:23:26Z</time>
</trkpt>
<trkpt lat="34.9600514" lon="32.8271079">
<ele>1214.32</ele>
<time>2015-04-30T07:23:29Z</time>
</trkpt>
<trkpt lat="34.9600061" lon="32.8270928">
<ele>1215.45</ele>
<time>2015-04-30T07:23:32Z</time>
</trkpt>
<trkpt lat="34.9599557" lon="32.8270687">
<ele>1216.68</ele>
<time>2015-04-30T07:23:36Z</time>
</trkpt>
<trkpt lat="34.9599090" lon="32.8270426">
<ele>1217.82</ele>
<time>2015-04-30T07:23:40Z</time>
</trkpt>
<trkpt lat="34.9598587" lon="32.8270322">
<ele>1217.83</ele>
<time>2015-04-30T07:23:44Z</time>
</trkpt>
<trkpt lat="34.9598115" lon="32.8270258">
<ele>1218.08</ele>
<time>2015-04-30T07:23:48Z</time>
</trkpt>
<trkpt lat="34.9597633" lon="32.8270214">
<ele>1219.03</ele>
<time>2015-04-30T07:23:52Z</time>
</trkpt>
<trkpt lat="34.9597184" lon="32.8270373">
<ele>1220.72</ele>
<time>2015-04-30T07:23:59Z</time>
</trkpt>
<trkpt lat="34.9596690" lon="32.8270622">
<ele>1220.13</ele>
<time>2015-04-30T07:24:02Z</time>
</trkpt>
<trkpt lat="34.9596309" lon="32.8271007">
<ele>1221.93</ele>
<time>2015-04-30T07:24:05Z</time>
</trkpt>
<trkpt lat="34.9596057" lon="32.8271622">
<ele>1222.77</ele>
<time>2015-04-30T07:24:09Z</time>
</trkpt>
<trkpt lat="34.9595710" lon="32.8272081">
<ele>1221.39</ele>
<time>2015-04-30T07:24:12Z</time>
</trkpt>
<trkpt lat="34.9595366" lon="32.8272619">
<ele>1219.84</ele>
<time>2015-04-30T07:24:15Z</time>
</trkpt>
<trkpt lat="34.9595168" lon="32.8273228">
<ele>1220.02</ele>
<time>2015-04-30T07:24:18Z</time>
</trkpt>
<trkpt lat="34.9595048" lon="32.8273827">
<ele>1221.29</ele>
<time>2015-04-30T07:24:21Z</time>
</trkpt>
<trkpt lat="34.9594924" lon="32.8274403">
<ele>1220.95</ele>
<time>2015-04-30T07:24:24Z</time>
</trkpt>
<trkpt lat="34.9594961" lon="32.8275086">
<ele>1222.58</ele>
<time>2015-04-30T07:24:28Z</time>
</trkpt>
<trkpt lat="34.9595224" lon="32.8275580">
<ele>1224.86</ele>
<time>2015-04-30T07:24:31Z</time>
</trkpt>
<trkpt lat="34.9595339" lon="32.8276171">
<ele>1224.40</ele>
<time>2015-04-30T07:24:34Z</time>
</trkpt>
<trkpt lat="34.9595421" lon="32.8276748">
<ele>1224.71</ele>
<time>2015-04-30T07:24:37Z</time>
</trkpt>
<trkpt lat="34.9595582" lon="32.8277364">
<ele>1225.63</ele>
<time>2015-04-30T07:24:40Z</time>
</trkpt>
<trkpt lat="34.9595802" lon="32.8277951">
<ele>1227.24</ele>
<time>2015-04-30T07:24:43Z</time>
</trkpt>
<trkpt lat="34.9595892" lon="32.8278532">
<ele>1228.45</ele>
<time>2015-04-30T07:24:46Z</time>
</trkpt>
<trkpt lat="34.9595857" lon="32.8279240">
<ele>1227.05</ele>
<time>2015-04-30T07:24:50Z</time>
</trkpt>
<trkpt lat="34.9595672" lon="32.8279769">
<ele>1229.17</ele>
<time>2015-04-30T07:24:53Z</time>
</trkpt>
<trkpt lat="34.9595440" lon="32.8280295">
<ele>1228.31</ele>
<time>2015-04-30T07:24:56Z</time>
</trkpt>
<trkpt lat="34.9595095" lon="32.8280928">
<ele>1226.67</ele>
<time>2015-04-30T07:25:00Z</time>
</trkpt>
<trkpt lat="34.9594634" lon="32.8281211">
<ele>1226.75</ele>
<time>2015-04-30T07:25:03Z</time>
</trkpt>
<trkpt lat="34.9594087" lon="32.8281461">
<ele>1226.57</ele>
<time>2015-04-30T07:25:07Z</time>
</trkpt>
<trkpt lat="34.9593657" lon="32.8281819">
<ele>1228.36</ele>
<time>2015-04-30T07:25:10Z</time>
</trkpt>
<trkpt lat="34.9593152" lon="32.8282082">
<ele>1227.84</ele>
<time>2015-04-30T07:25:13Z</time>
</trkpt>
<trkpt lat="34.9592674" lon="32.8282373">
<ele>1228.64</ele>
<time>2015-04-30T07:25:16Z</time>
</trkpt>
<trkpt lat="34.9592318" lon="32.8282794">
<ele>1229.62</ele>
<time>2015-04-30T07:25:19Z</time>
</trkpt>
<trkpt lat="34.9591909" lon="32.8283211">
<ele>1232.56</ele>
<time>2015-04-30T07:25:23Z</time>
</trkpt>
<trkpt lat="34.9591910" lon="32.8283763">
<ele>1232.12</ele>
<time>2015-04-30T07:25:27Z</time>
</trkpt>
<trkpt lat="34.9591675" lon="32.8284273">
<ele>1231.18</ele>
<time>2015-04-30T07:25:30Z</time>
</trkpt>
<trkpt lat="34.9591737" lon="32.8284852">
<ele>1231.29</ele>
<time>2015-04-30T07:25:34Z</time>
</trkpt>
<trkpt lat="34.9591697" lon="32.8285438">
<ele>1232.67</ele>
<time>2015-04-30T07:25:38Z</time>
</trkpt>
<trkpt lat="34.9591614" lon="32.8286068">
<ele>1232.44</ele>
<time>2015-04-30T07:25:42Z</time>
</trkpt>
<trkpt lat="34.9591761" lon="32.8286781">
<ele>1231.99</ele>
<time>2015-04-30T07:25:46Z</time>
</trkpt>
<trkpt lat="34.9591781" lon="32.8287343">
<ele>1231.54</ele>
<time>2015-04-30T07:25:49Z</time>
</trkpt>
<trkpt lat="34.9591784" lon="32.8287932">
<ele>1232.48</ele>
<time>2015-04-30T07:25:52Z</time>
</trkpt>
<trkpt lat="34.9591782" lon="32.8288494">
<ele>1234.85</ele>
<time>2015-04-30T07:25:55Z</time>
</trkpt>
<trkpt lat="34.9591705" lon="32.8289064">
<ele>1236.02</ele>
<time>2015-04-30T07:25:58Z</time>
</trkpt>
<trkpt lat="34.9591540" lon="32.8289760">
<ele>1236.71</ele>
<time>2015-04-30T07:26:02Z</time>
</trkpt>
<trkpt lat="34.9591207" lon="32.8290178">
<ele>1238.50</ele>
<time>2015-04-30T07:26:05Z</time>
</trkpt>
<trkpt lat="34.9590806" lon="32.8290459">
<ele>1239.49</ele>
<time>2015-04-30T07:26:09Z</time>
</trkpt>
<trkpt lat="34.9590356" lon="32.8290667">
<ele>1236.99</ele>
<time>2015-04-30T07:26:13Z</time>
</trkpt>
<trkpt lat="34.9589841" lon="32.8290866">
<ele>1236.29</ele>
<time>2015-04-30T07:26:16Z</time>
</trkpt>
<trkpt lat="34.9589252" lon="32.8290977">
<ele>1235.83</ele>
<time>2015-04-30T07:26:19Z</time>
</trkpt>
<trkpt lat="34.9588751" lon="32.8291026">
<ele>1234.39</ele>
<time>2015-04-30T07:26:22Z</time>
</trkpt>
<trkpt lat="34.9588289" lon="32.8291126">
<ele>1232.96</ele>
<time>2015-04-30T07:26:25Z</time>
</trkpt>
<trkpt lat="34.9587824" lon="32.8291206">
<ele>1232.41</ele>
<time>2015-04-30T07:26:28Z</time>
</trkpt>
<trkpt lat="34.9587364" lon="32.8291220">
<ele>1232.09</ele>
<time>2015-04-30T07:26:31Z</time>
</trkpt>
<trkpt lat="34.9586802" lon="32.8291090">
<ele>1233.03</ele>
<time>2015-04-30T07:26:35Z</time>
</trkpt>
<trkpt lat="34.9586335" lon="32.8291068">
<ele>1234.54</ele>
<time>2015-04-30T07:26:38Z</time>
</trkpt>
<trkpt lat="34.9585783" lon="32.8291169">
<ele>1232.18</ele>
<time>2015-04-30T07:26:42Z</time>
</trkpt>
<trkpt lat="34.9585280" lon="32.8291357">
<ele>1231.79</ele>
<time>2015-04-30T07:26:46Z</time>
</trkpt>
<trkpt lat="34.9584673" lon="32.8291498">
<ele>1232.70</ele>
<time>2015-04-30T07:26:50Z</time>
</trkpt>
<trkpt lat="34.9584102" lon="32.8291634">
<ele>1232.75</ele>
<time>2015-04-30T07:26:53Z</time>
</trkpt>
<trkpt lat="34.9583610" lon="32.8291660">
<ele>1232.76</ele>
<time>2015-04-30T07:26:56Z</time>
</trkpt>
<trkpt lat="34.9583148" lon="32.8291720">
<ele>1232.76</ele>
<time>2015-04-30T07:26:59Z</time>
</trkpt>
<trkpt lat="34.9582676" lon="32.8291920">
<ele>1235.76</ele>
<time>2015-04-30T07:27:02Z</time>
</trkpt>
<trkpt lat="34.9582285" lon="32.8292265">
<ele>1238.79</ele>
<time>2015-04-30T07:27:07Z</time>
</trkpt>
<trkpt lat="34.9581774" lon="32.8292577">
<ele>1240.39</ele>
<time>2015-04-30T07:27:11Z</time>
</trkpt>
<trkpt lat="34.9581321" lon="32.8292877">
<ele>1241.59</ele>
<time>2015-04-30T07:27:14Z</time>
</trkpt>
<trkpt lat="34.9581060" lon="32.8293441">
<ele>1245.11</ele>
<time>2015-04-30T07:27:17Z</time>
</trkpt>
<trkpt lat="34.9580800" lon="32.8294048">
<ele>1246.55</ele>
<time>2015-04-30T07:27:20Z</time>
</trkpt>
<trkpt lat="34.9580550" lon="32.8294613">
<ele>1247.61</ele>
<time>2015-04-30T07:27:23Z</time>
</trkpt>
<trkpt lat="34.9580595" lon="32.8295318">
<ele>1246.88</ele>
<time>2015-04-30T07:27:27Z</time>
</trkpt>
<trkpt lat="34.9580577" lon="32.8296031">
<ele>1248.45</ele>
<time>2015-04-30T07:27:31Z</time>
</trkpt>
<trkpt lat="34.9580624" lon="32.8296646">
<ele>1249.49</ele>
<time>2015-04-30T07:27:35Z</time>
</trkpt>
<trkpt lat="34.9580639" lon="32.8297255">
<ele>1249.24</ele>
<time>2015-04-30T07:27:39Z</time>
</trkpt>
<trkpt lat="34.9580831" lon="32.8297929">
<ele>1251.48</ele>
<time>2015-04-30T07:27:43Z</time>
</trkpt>
<trkpt lat="34.9580981" lon="32.8298454">
<ele>1252.85</ele>
<time>2015-04-30T07:27:46Z</time>
</trkpt>
<trkpt lat="34.9581223" lon="32.8298961">
<ele>1255.40</ele>
<time>2015-04-30T07:27:49Z</time>
</trkpt>
<trkpt lat="34.9581452" lon="32.8299562">
<ele>1254.49</ele>
<time>2015-04-30T07:27:53Z</time>
</trkpt>
<trkpt lat="34.9581677" lon="32.8300194">
<ele>1252.87</ele>
<time>2015-04-30T07:27:57Z</time>
</trkpt>
<trkpt lat="34.9581811" lon="32.8300854">
<ele>1251.52</ele>
<time>2015-04-30T07:28:01Z</time>
</trkpt>
<trkpt lat="34.9582095" lon="32.8301412">
<ele>1249.99</ele>
<time>2015-04-30T07:28:05Z</time>
</trkpt>
<trkpt lat="34.9582357" lon="32.8302032">
<ele>1249.90</ele>
<time>2015-04-30T07:28:09Z</time>
</trkpt>
<trkpt lat="34.9582472" lon="32.8302681">
<ele>1250.83</ele>
<time>2015-04-30T07:28:13Z</time>
</trkpt>
<trkpt lat="34.9582779" lon="32.8303267">
<ele>1250.70</ele>
<time>2015-04-30T07:28:17Z</time>
</trkpt>
<trkpt lat="34.9582789" lon="32.8303828">
<ele>1250.44</ele>
<time>2015-04-30T07:28:21Z</time>
</trkpt>
<trkpt lat="34.9582967" lon="32.8304393">
<ele>1251.24</ele>
<time>2015-04-30T07:28:25Z</time>
</trkpt>
<trkpt lat="34.9583235" lon="32.8305033">
<ele>1253.10</ele>
<time>2015-04-30T07:28:29Z</time>
</trkpt>
<trkpt lat="34.9583085" lon="32.8305697">
<ele>1252.34</ele>
<time>2015-04-30T07:28:33Z</time>
</trkpt>
<trkpt lat="34.9582924" lon="32.8306226">
<ele>1251.33</ele>
<time>2015-04-30T07:28:36Z</time>
</trkpt>
<trkpt lat="34.9582671" lon="32.8306742">
<ele>1250.96</ele>
<time>2015-04-30T07:28:39Z</time>
</trkpt>
<trkpt lat="34.9582487" lon="32.8307308">
<ele>1251.27</ele>
<time>2015-04-30T07:28:43Z</time>
</trkpt>
<trkpt lat="34.9582120" lon="32.8307827">
<ele>1251.24</ele>
<time>2015-04-30T07:28:48Z</time>
</trkpt>
<trkpt lat="34.9581610" lon="32.8308171">
<ele>1251.23</ele>
<time>2015-04-30T07:28:52Z</time>
</trkpt>
<trkpt lat="34.9581187" lon="32.8308444">
<ele>1252.57</ele>
<time>2015-04-30T07:28:55Z</time>
</trkpt>
<trkpt lat="34.9580695" lon="32.8308814">
<ele>1254.50</ele>
<time>2015-04-30T07:28:59Z</time>
</trkpt>
<trkpt lat="34.9580245" lon="32.8308970">
<ele>1255.23</ele>
<time>2015-04-30T07:29:02Z</time>
</trkpt>
<trkpt lat="34.9579794" lon="32.8309060">
<ele>1255.57</ele>
<time>2015-04-30T07:29:05Z</time>
</trkpt>
<trkpt lat="34.9579240" lon="32.8309270">
<ele>1257.56</ele>
<time>2015-04-30T07:29:09Z</time>
</trkpt>
<trkpt lat="34.9578792" lon="32.8309713">
<ele>1260.81</ele>
<time>2015-04-30T07:29:13Z</time>
</trkpt>
<trkpt lat="34.9578288" lon="32.8310116">
<ele>1262.20</ele>
<time>2015-04-30T07:29:17Z</time>
</trkpt>
<trkpt lat="34.9577832" lon="32.8310442">
<ele>1261.07</ele>
<time>2015-04-30T07:29:20Z</time>
</trkpt>
<trkpt lat="34.9577439" lon="32.8310810">
<ele>1262.17</ele>
<time>2015-04-30T07:29:23Z</time>
</trkpt>
<trkpt lat="34.9577103" lon="32.8311201">
<ele>1262.56</ele>
<time>2015-04-30T07:29:26Z</time>
</trkpt>
<trkpt lat="34.9576709" lon="32.8311665">
<ele>1261.94</ele>
<time>2015-04-30T07:29:30Z</time>
</trkpt>
<trkpt lat="34.9576350" lon="32.8312197">
<ele>1262.65</ele>
<time>2015-04-30T07:29:34Z</time>
</trkpt>
<trkpt lat="34.9576137" lon="32.8312859">
<ele>1263.63</ele>
<time>2015-04-30T07:29:38Z</time>
</trkpt>
<trkpt lat="34.9575998" lon="32.8313473">
<ele>1264.94</ele>
<time>2015-04-30T07:29:42Z</time>
</trkpt>
<trkpt lat="34.9575928" lon="32.8314113">
<ele>1265.71</ele>
<time>2015-04-30T07:29:46Z</time>
</trkpt>
<trkpt lat="34.9575805" lon="32.8314748">
<ele>1267.57</ele>
<time>2015-04-30T07:29:50Z</time>
</trkpt>
<trkpt lat="34.9575649" lon="32.8315375">
<ele>1267.75</ele>
<time>2015-04-30T07:29:54Z</time>
</trkpt>
<trkpt lat="34.9575469" lon="32.8316003">
<ele>1267.76</ele>
<time>2015-04-30T07:29:58Z</time>
</trkpt>
<trkpt lat="34.9575319" lon="32.8316668">
<ele>1266.82</ele>
<time>2015-04-30T07:30:02Z</time>
</trkpt>
<trkpt lat="34.9575408" lon="32.8317339">
<ele>1267.70</ele>
<time>2015-04-30T07:30:06Z</time>
</trkpt>
<trkpt lat="34.9575464" lon="32.8318048">
<ele>1269.13</ele>
<time>2015-04-30T07:30:10Z</time>
</trkpt>
<trkpt lat="34.9575614" lon="32.8318752">
<ele>1271.28</ele>
<time>2015-04-30T07:30:14Z</time>
</trkpt>
<trkpt lat="34.9575588" lon="32.8319391">
<ele>1275.23</ele>
<time>2015-04-30T07:30:18Z</time>
</trkpt>
<trkpt lat="34.9575428" lon="32.8318859">
<ele>1268.24</ele>
<time>2015-04-30T07:30:34Z</time>
</trkpt>
<trkpt lat="34.9575579" lon="32.8319383">
<ele>1269.26</ele>
<time>2015-04-30T07:30:48Z</time>
</trkpt>
<trkpt lat="34.9575399" lon="32.8319994">
<ele>1270.78</ele>
<time>2015-04-30T07:30:54Z</time>
</trkpt>
<trkpt lat="34.9575214" lon="32.8319490">
<ele>1271.76</ele>
<time>2015-04-30T07:32:10Z</time>
</trkpt>
<trkpt lat="34.9574800" lon="32.8319714">
<ele>1278.04</ele>
<time>2015-04-30T07:33:15Z</time>
</trkpt>
<trkpt lat="34.9574320" lon="32.8319720">
<ele>1275.89</ele>
<time>2015-04-30T07:33:37Z</time>
</trkpt>
<trkpt lat="34.9574313" lon="32.8319163">
<ele>1277.91</ele>
<time>2015-04-30T07:34:41Z</time>
</trkpt>
<trkpt lat="34.9574121" lon="32.8318521">
<ele>1274.82</ele>
<time>2015-04-30T07:34:57Z</time>
</trkpt>
<trkpt lat="34.9574207" lon="32.8317931">
<ele>1272.64</ele>
<time>2015-04-30T07:35:00Z</time>
</trkpt>
<trkpt lat="34.9574284" lon="32.8317363">
<ele>1272.12</ele>
<time>2015-04-30T07:35:03Z</time>
</trkpt>
<trkpt lat="34.9574412" lon="32.8316804">
<ele>1270.59</ele>
<time>2015-04-30T07:35:07Z</time>
</trkpt>
<trkpt lat="34.9574019" lon="32.8317206">
<ele>1270.50</ele>
<time>2015-04-30T07:35:25Z</time>
</trkpt>
<trkpt lat="34.9573903" lon="32.8317754">
<ele>1269.88</ele>
<time>2015-04-30T07:35:31Z</time>
</trkpt>
<trkpt lat="34.9573976" lon="32.8318319">
<ele>1268.65</ele>
<time>2015-04-30T07:35:38Z</time>
</trkpt>
<trkpt lat="34.9573962" lon="32.8318869">
<ele>1265.84</ele>
<time>2015-04-30T07:35:44Z</time>
</trkpt>
<trkpt lat="34.9574129" lon="32.8319470">
<ele>1262.33</ele>
<time>2015-04-30T07:35:52Z</time>
</trkpt>
<trkpt lat="34.9573950" lon="32.8320036">
<ele>1261.30</ele>
<time>2015-04-30T07:35:58Z</time>
</trkpt>
<trkpt lat="34.9574461" lon="32.8320142">
<ele>1263.47</ele>
<time>2015-04-30T07:36:04Z</time>
</trkpt>
<trkpt lat="34.9574469" lon="32.8319525">
<ele>1264.24</ele>
<time>2015-04-30T07:37:06Z</time>
</trkpt>
<trkpt lat="34.9574191" lon="32.8320096">
<ele>1264.26</ele>
<time>2015-04-30T07:37:39Z</time>
</trkpt>
<trkpt lat="34.9574126" lon="32.8320708">
<ele>1264.81</ele>
<time>2015-04-30T07:37:44Z</time>
</trkpt>
<trkpt lat="34.9574592" lon="32.8320981">
<ele>1267.86</ele>
<time>2015-04-30T07:37:49Z</time>
</trkpt>
<trkpt lat="34.9575087" lon="32.8321120">
<ele>1269.58</ele>
<time>2015-04-30T07:37:53Z</time>
</trkpt>
<trkpt lat="34.9575602" lon="32.8321192">
<ele>1270.25</ele>
<time>2015-04-30T07:37:58Z</time>
</trkpt>
<trkpt lat="34.9576060" lon="32.8321221">
<ele>1270.60</ele>
<time>2015-04-30T07:38:02Z</time>
</trkpt>
<trkpt lat="34.9576496" lon="32.8321054">
<ele>1271.99</ele>
<time>2015-04-30T07:38:05Z</time>
</trkpt>
<trkpt lat="34.9576955" lon="32.8320914">
<ele>1274.16</ele>
<time>2015-04-30T07:38:08Z</time>
</trkpt>
<trkpt lat="34.9577516" lon="32.8320783">
<ele>1275.56</ele>
<time>2015-04-30T07:38:11Z</time>
</trkpt>
<trkpt lat="34.9578133" lon="32.8320653">
<ele>1275.99</ele>
<time>2015-04-30T07:38:14Z</time>
</trkpt>
<trkpt lat="34.9578777" lon="32.8320656">
<ele>1275.79</ele>
<time>2015-04-30T07:38:17Z</time>
</trkpt>
<trkpt lat="34.9579402" lon="32.8320680">
<ele>1275.39</ele>
<time>2015-04-30T07:38:20Z</time>
</trkpt>
<trkpt lat="34.9580003" lon="32.8320779">
<ele>1274.09</ele>
<time>2015-04-30T07:38:23Z</time>
</trkpt>
<trkpt lat="34.9580566" lon="32.8321054">
<ele>1273.80</ele>
<time>2015-04-30T07:38:26Z</time>
</trkpt>
<trkpt lat="34.9581072" lon="32.8321360">
<ele>1273.89</ele>
<time>2015-04-30T07:38:29Z</time>
</trkpt>
<trkpt lat="34.9581498" lon="32.8321734">
<ele>1275.28</ele>
<time>2015-04-30T07:38:32Z</time>
</trkpt>
<trkpt lat="34.9581857" lon="32.8322098">
<ele>1276.57</ele>
<time>2015-04-30T07:38:35Z</time>
</trkpt>
<trkpt lat="34.9582187" lon="32.8322519">
<ele>1277.49</ele>
<time>2015-04-30T07:38:38Z</time>
</trkpt>
<trkpt lat="34.9582494" lon="32.8322922">
<ele>1276.85</ele>
<time>2015-04-30T07:38:41Z</time>
</trkpt>
<trkpt lat="34.9582942" lon="32.8323332">
<ele>1278.02</ele>
<time>2015-04-30T07:38:45Z</time>
</trkpt>
<trkpt lat="34.9583256" lon="32.8323750">
<ele>1277.92</ele>
<time>2015-04-30T07:38:48Z</time>
</trkpt>
<trkpt lat="34.9583607" lon="32.8324265">
<ele>1278.65</ele>
<time>2015-04-30T07:38:51Z</time>
</trkpt>
<trkpt lat="34.9583990" lon="32.8324787">
<ele>1279.75</ele>
<time>2015-04-30T07:38:54Z</time>
</trkpt>
<trkpt lat="34.9584351" lon="32.8325357">
<ele>1279.76</ele>
<time>2015-04-30T07:38:57Z</time>
</trkpt>
<trkpt lat="34.9584720" lon="32.8325927">
<ele>1279.63</ele>
<time>2015-04-30T07:39:00Z</time>
</trkpt>
<trkpt lat="34.9585119" lon="32.8326470">
<ele>1279.49</ele>
<time>2015-04-30T07:39:03Z</time>
</trkpt>
<trkpt lat="34.9585570" lon="32.8326947">
<ele>1279.10</ele>
<time>2015-04-30T07:39:06Z</time>
</trkpt>
<trkpt lat="34.9586029" lon="32.8327358">
<ele>1279.55</ele>
<time>2015-04-30T07:39:09Z</time>
</trkpt>
<trkpt lat="34.9586462" lon="32.8327919">
<ele>1280.11</ele>
<time>2015-04-30T07:39:12Z</time>
</trkpt>
<trkpt lat="34.9586886" lon="32.8328465">
<ele>1280.18</ele>
<time>2015-04-30T07:39:15Z</time>
</trkpt>
<trkpt lat="34.9587250" lon="32.8329016">
<ele>1279.81</ele>
<time>2015-04-30T07:39:18Z</time>
</trkpt>
<trkpt lat="34.9587671" lon="32.8329522">
<ele>1278.89</ele>
<time>2015-04-30T07:39:21Z</time>
</trkpt>
<trkpt lat="34.9587928" lon="32.8330111">
<ele>1279.28</ele>
<time>2015-04-30T07:39:24Z</time>
</trkpt>
<trkpt lat="34.9588235" lon="32.8330703">
<ele>1278.82</ele>
<time>2015-04-30T07:39:27Z</time>
</trkpt>
<trkpt lat="34.9588564" lon="32.8331270">
<ele>1279.52</ele>
<time>2015-04-30T07:39:30Z</time>
</trkpt>
<trkpt lat="34.9588765" lon="32.8331908">
<ele>1279.73</ele>
<time>2015-04-30T07:39:33Z</time>
</trkpt>
<trkpt lat="34.9588958" lon="32.8332537">
<ele>1280.63</ele>
<time>2015-04-30T07:39:36Z</time>
</trkpt>
<trkpt lat="34.9589152" lon="32.8333155">
<ele>1281.99</ele>
<time>2015-04-30T07:39:39Z</time>
</trkpt>
<trkpt lat="34.9589316" lon="32.8333800">
<ele>1282.66</ele>
<time>2015-04-30T07:39:42Z</time>
</trkpt>
<trkpt lat="34.9589383" lon="32.8334452">
<ele>1282.75</ele>
<time>2015-04-30T07:39:45Z</time>
</trkpt>
<trkpt lat="34.9589482" lon="32.8335116">
<ele>1284.26</ele>
<time>2015-04-30T07:39:48Z</time>
</trkpt>
<trkpt lat="34.9589614" lon="32.8335767">
<ele>1286.45</ele>
<time>2015-04-30T07:39:51Z</time>
</trkpt>
<trkpt lat="34.9589717" lon="32.8336358">
<ele>1286.60</ele>
<time>2015-04-30T07:39:54Z</time>
</trkpt>
<trkpt lat="34.9589809" lon="32.8337056">
<ele>1287.25</ele>
<time>2015-04-30T07:39:58Z</time>
</trkpt>
<trkpt lat="34.9589764" lon="32.8337733">
<ele>1285.92</ele>
<time>2015-04-30T07:40:02Z</time>
</trkpt>
<trkpt lat="34.9589663" lon="32.8338293">
<ele>1284.65</ele>
<time>2015-04-30T07:40:05Z</time>
</trkpt>
<trkpt lat="34.9589604" lon="32.8338955">
<ele>1284.75</ele>
<time>2015-04-30T07:40:09Z</time>
</trkpt>
<trkpt lat="34.9589658" lon="32.8339546">
<ele>1284.57</ele>
<time>2015-04-30T07:40:13Z</time>
</trkpt>
<trkpt lat="34.9589615" lon="32.8340135">
<ele>1283.31</ele>
<time>2015-04-30T07:40:17Z</time>
</trkpt>
<trkpt lat="34.9589809" lon="32.8340784">
<ele>1286.67</ele>
<time>2015-04-30T07:40:21Z</time>
</trkpt>
<trkpt lat="34.9589924" lon="32.8341334">
<ele>1288.37</ele>
<time>2015-04-30T07:40:24Z</time>
</trkpt>
<trkpt lat="34.9590135" lon="32.8341826">
<ele>1289.21</ele>
<time>2015-04-30T07:40:27Z</time>
</trkpt>
<trkpt lat="34.9590254" lon="32.8342364">
<ele>1288.82</ele>
<time>2015-04-30T07:40:30Z</time>
</trkpt>
<trkpt lat="34.9590340" lon="32.8342906">
<ele>1289.14</ele>
<time>2015-04-30T07:40:33Z</time>
</trkpt>
<trkpt lat="34.9590193" lon="32.8343574">
<ele>1288.47</ele>
<time>2015-04-30T07:40:37Z</time>
</trkpt>
<trkpt lat="34.9590162" lon="32.8344241">
<ele>1289.18</ele>
<time>2015-04-30T07:40:41Z</time>
</trkpt>
<trkpt lat="34.9589942" lon="32.8344878">
<ele>1289.29</ele>
<time>2015-04-30T07:40:45Z</time>
</trkpt>
<trkpt lat="34.9589842" lon="32.8345485">
<ele>1290.61</ele>
<time>2015-04-30T07:40:49Z</time>
</trkpt>
<trkpt lat="34.9589470" lon="32.8346060">
<ele>1289.63</ele>
<time>2015-04-30T07:40:53Z</time>
</trkpt>
<trkpt lat="34.9589194" lon="32.8346539">
<ele>1290.62</ele>
<time>2015-04-30T07:40:56Z</time>
</trkpt>
<trkpt lat="34.9588758" lon="32.8346949">
<ele>1289.37</ele>
<time>2015-04-30T07:40:59Z</time>
</trkpt>
<trkpt lat="34.9588421" lon="32.8347534">
<ele>1288.80</ele>
<time>2015-04-30T07:41:03Z</time>
</trkpt>
<trkpt lat="34.9588089" lon="32.8348046">
<ele>1287.57</ele>
<time>2015-04-30T07:41:07Z</time>
</trkpt>
<trkpt lat="34.9587785" lon="32.8348490">
<ele>1288.87</ele>
<time>2015-04-30T07:41:11Z</time>
</trkpt>
<trkpt lat="34.9587328" lon="32.8348878">
<ele>1289.70</ele>
<time>2015-04-30T07:41:15Z</time>
</trkpt>
<trkpt lat="34.9586933" lon="32.8349346">
<ele>1291.32</ele>
<time>2015-04-30T07:41:19Z</time>
</trkpt>
<trkpt lat="34.9586686" lon="32.8349967">
<ele>1291.23</ele>
<time>2015-04-30T07:41:23Z</time>
</trkpt>
<trkpt lat="34.9586628" lon="32.8350513">
<ele>1293.10</ele>
<time>2015-04-30T07:41:27Z</time>
</trkpt>
<trkpt lat="34.9586330" lon="32.8351021">
<ele>1296.41</ele>
<time>2015-04-30T07:41:31Z</time>
</trkpt>
<trkpt lat="34.9586030" lon="32.8351451">
<ele>1295.47</ele>
<time>2015-04-30T07:41:34Z</time>
</trkpt>
<trkpt lat="34.9585692" lon="32.8351895">
<ele>1296.85</ele>
<time>2015-04-30T07:41:37Z</time>
</trkpt>
<trkpt lat="34.9585392" lon="32.8352308">
<ele>1298.15</ele>
<time>2015-04-30T07:41:40Z</time>
</trkpt>
<trkpt lat="34.9585237" lon="32.8352831">
<ele>1299.66</ele>
<time>2015-04-30T07:41:44Z</time>
</trkpt>
<trkpt lat="34.9585203" lon="32.8353385">
<ele>1303.32</ele>
<time>2015-04-30T07:41:48Z</time>
</trkpt>
<trkpt lat="34.9585221" lon="32.8353981">
<ele>1303.81</ele>
<time>2015-04-30T07:41:53Z</time>
</trkpt>
<trkpt lat="34.9585323" lon="32.8354517">
<ele>1303.45</ele>
<time>2015-04-30T07:41:58Z</time>
</trkpt>
<trkpt lat="34.9585503" lon="32.8355180">
<ele>1300.31</ele>
<time>2015-04-30T07:42:03Z</time>
</trkpt>
<trkpt lat="34.9585882" lon="32.8355664">
<ele>1302.86</ele>
<time>2015-04-30T07:42:07Z</time>
</trkpt>
<trkpt lat="34.9586265" lon="32.8355971">
<ele>1304.52</ele>
<time>2015-04-30T07:42:10Z</time>
</trkpt>
<trkpt lat="34.9586670" lon="32.8356282">
<ele>1305.98</ele>
<time>2015-04-30T07:42:13Z</time>
</trkpt>
<trkpt lat="34.9587152" lon="32.8356657">
<ele>1306.52</ele>
<time>2015-04-30T07:42:17Z</time>
</trkpt>
<trkpt lat="34.9587626" lon="32.8356858">
<ele>1308.98</ele>
<time>2015-04-30T07:42:20Z</time>
</trkpt>
<trkpt lat="34.9588135" lon="32.8356991">
<ele>1308.91</ele>
<time>2015-04-30T07:42:23Z</time>
</trkpt>
<trkpt lat="34.9588637" lon="32.8357057">
<ele>1306.40</ele>
<time>2015-04-30T07:42:26Z</time>
</trkpt>
<trkpt lat="34.9589158" lon="32.8357196">
<ele>1305.49</ele>
<time>2015-04-30T07:42:30Z</time>
</trkpt>
<trkpt lat="34.9589701" lon="32.8357422">
<ele>1303.99</ele>
<time>2015-04-30T07:42:34Z</time>
</trkpt>
<trkpt lat="34.9590154" lon="32.8357439">
<ele>1303.16</ele>
<time>2015-04-30T07:42:37Z</time>
</trkpt>
<trkpt lat="34.9590623" lon="32.8357533">
<ele>1303.69</ele>
<time>2015-04-30T07:42:40Z</time>
</trkpt>
<trkpt lat="34.9591135" lon="32.8357848">
<ele>1303.01</ele>
<time>2015-04-30T07:42:44Z</time>
</trkpt>
<trkpt lat="34.9591564" lon="32.8358057">
<ele>1302.04</ele>
<time>2015-04-30T07:42:47Z</time>
</trkpt>
<trkpt lat="34.9592003" lon="32.8358306">
<ele>1302.67</ele>
<time>2015-04-30T07:42:50Z</time>
</trkpt>
<trkpt lat="34.9592394" lon="32.8358619">
<ele>1302.50</ele>
<time>2015-04-30T07:42:53Z</time>
</trkpt>
<trkpt lat="34.9592835" lon="32.8359068">
<ele>1304.37</ele>
<time>2015-04-30T07:42:57Z</time>
</trkpt>
<trkpt lat="34.9593209" lon="32.8359591">
<ele>1306.74</ele>
<time>2015-04-30T07:43:01Z</time>
</trkpt>
<trkpt lat="34.9593589" lon="32.8360157">
<ele>1306.51</ele>
<time>2015-04-30T07:43:05Z</time>
</trkpt>
<trkpt lat="34.9593863" lon="32.8360772">
<ele>1305.87</ele>
<time>2015-04-30T07:43:09Z</time>
</trkpt>
<trkpt lat="34.9594067" lon="32.8361433">
<ele>1305.89</ele>
<time>2015-04-30T07:43:13Z</time>
</trkpt>
<trkpt lat="34.9594397" lon="32.8361933">
<ele>1305.78</ele>
<time>2015-04-30T07:43:16Z</time>
</trkpt>
<trkpt lat="34.9594524" lon="32.8362529">
<ele>1307.14</ele>
<time>2015-04-30T07:43:19Z</time>
</trkpt>
<trkpt lat="34.9594617" lon="32.8363083">
<ele>1308.43</ele>
<time>2015-04-30T07:43:22Z</time>
</trkpt>
<trkpt lat="34.9594760" lon="32.8363714">
<ele>1309.61</ele>
<time>2015-04-30T07:43:26Z</time>
</trkpt>
<trkpt lat="34.9594925" lon="32.8364372">
<ele>1311.56</ele>
<time>2015-04-30T07:43:30Z</time>
</trkpt>
<trkpt lat="34.9595158" lon="32.8365020">
<ele>1310.87</ele>
<time>2015-04-30T07:43:34Z</time>
</trkpt>
<trkpt lat="34.9595280" lon="32.8365601">
<ele>1312.52</ele>
<time>2015-04-30T07:43:37Z</time>
</trkpt>
<trkpt lat="34.9595344" lon="32.8366200">
<ele>1312.73</ele>
<time>2015-04-30T07:43:40Z</time>
</trkpt>
<trkpt lat="34.9595283" lon="32.8366887">
<ele>1312.51</ele>
<time>2015-04-30T07:43:44Z</time>
</trkpt>
<trkpt lat="34.9595260" lon="32.8367446">
<ele>1311.10</ele>
<time>2015-04-30T07:43:47Z</time>
</trkpt>
<trkpt lat="34.9595401" lon="32.8368005">
<ele>1310.05</ele>
<time>2015-04-30T07:43:50Z</time>
</trkpt>
<trkpt lat="34.9595458" lon="32.8368718">
<ele>1311.90</ele>
<time>2015-04-30T07:43:54Z</time>
</trkpt>
<trkpt lat="34.9595460" lon="32.8369270">
<ele>1314.15</ele>
<time>2015-04-30T07:43:57Z</time>
</trkpt>
<trkpt lat="34.9595411" lon="32.8369832">
<ele>1314.18</ele>
<time>2015-04-30T07:44:00Z</time>
</trkpt>
<trkpt lat="34.9595266" lon="32.8370454">
<ele>1310.97</ele>
<time>2015-04-30T07:44:04Z</time>
</trkpt>
<trkpt lat="34.9594870" lon="32.8370998">
<ele>1310.34</ele>
<time>2015-04-30T07:44:08Z</time>
</trkpt>
<trkpt lat="34.9594475" lon="32.8371465">
<ele>1308.92</ele>
<time>2015-04-30T07:44:12Z</time>
</trkpt>
<trkpt lat="34.9594069" lon="32.8371797">
<ele>1309.52</ele>
<time>2015-04-30T07:44:16Z</time>
</trkpt>
<trkpt lat="34.9593529" lon="32.8372116">
<ele>1310.49</ele>
<time>2015-04-30T07:44:20Z</time>
</trkpt>
<trkpt lat="34.9593097" lon="32.8372301">
<ele>1310.73</ele>
<time>2015-04-30T07:44:23Z</time>
</trkpt>
<trkpt lat="34.9592657" lon="32.8372556">
<ele>1311.38</ele>
<time>2015-04-30T07:44:26Z</time>
</trkpt>
<trkpt lat="34.9592173" lon="32.8372677">
<ele>1314.09</ele>
<time>2015-04-30T07:44:29Z</time>
</trkpt>
<trkpt lat="34.9591665" lon="32.8372704">
<ele>1314.30</ele>
<time>2015-04-30T07:44:32Z</time>
</trkpt>
<trkpt lat="34.9591112" lon="32.8372753">
<ele>1315.20</ele>
<time>2015-04-30T07:44:35Z</time>
</trkpt>
<trkpt lat="34.9590540" lon="32.8372790">
<ele>1316.44</ele>
<time>2015-04-30T07:44:38Z</time>
</trkpt>
<trkpt lat="34.9589896" lon="32.8372806">
<ele>1315.85</ele>
<time>2015-04-30T07:44:41Z</time>
</trkpt>
<trkpt lat="34.9589392" lon="32.8372733">
<ele>1317.03</ele>
<time>2015-04-30T07:44:43Z</time>
</trkpt>
<trkpt lat="34.9588933" lon="32.8372664">
<ele>1317.08</ele>
<time>2015-04-30T07:44:45Z</time>
</trkpt>
<trkpt lat="34.9588301" lon="32.8372689">
<ele>1317.55</ele>
<time>2015-04-30T07:44:48Z</time>
</trkpt>
<trkpt lat="34.9587692" lon="32.8372580">
<ele>1318.98</ele>
<time>2015-04-30T07:44:51Z</time>
</trkpt>
<trkpt lat="34.9587153" lon="32.8372389">
<ele>1318.54</ele>
<time>2015-04-30T07:44:54Z</time>
</trkpt>
<trkpt lat="34.9586729" lon="32.8372190">
<ele>1317.86</ele>
<time>2015-04-30T07:44:57Z</time>
</trkpt>
<trkpt lat="34.9586209" lon="32.8372096">
<ele>1318.45</ele>
<time>2015-04-30T07:45:01Z</time>
</trkpt>
<trkpt lat="34.9585685" lon="32.8371880">
<ele>1319.68</ele>
<time>2015-04-30T07:45:05Z</time>
</trkpt>
<trkpt lat="34.9585199" lon="32.8371765">
<ele>1319.75</ele>
<time>2015-04-30T07:45:08Z</time>
</trkpt>
<trkpt lat="34.9584700" lon="32.8371753">
<ele>1321.63</ele>
<time>2015-04-30T07:45:11Z</time>
</trkpt>
<trkpt lat="34.9584207" lon="32.8371571">
<ele>1321.74</ele>
<time>2015-04-30T07:45:14Z</time>
</trkpt>
<trkpt lat="34.9583642" lon="32.8371447">
<ele>1323.38</ele>
<time>2015-04-30T07:45:17Z</time>
</trkpt>
<trkpt lat="34.9583029" lon="32.8371302">
<ele>1325.09</ele>
<time>2015-04-30T07:45:20Z</time>
</trkpt>
<trkpt lat="34.9582451" lon="32.8371112">
<ele>1326.55</ele>
<time>2015-04-30T07:45:23Z</time>
</trkpt>
<trkpt lat="34.9582001" lon="32.8370808">
<ele>1325.11</ele>
<time>2015-04-30T07:45:26Z</time>
</trkpt>
<trkpt lat="34.9581555" lon="32.8370602">
<ele>1326.43</ele>
<time>2015-04-30T07:45:29Z</time>
</trkpt>
<trkpt lat="34.9581093" lon="32.8370501">
<ele>1324.97</ele>
<time>2015-04-30T07:45:32Z</time>
</trkpt>
<trkpt lat="34.9580526" lon="32.8370279">
<ele>1323.96</ele>
<time>2015-04-30T07:45:36Z</time>
</trkpt>
<trkpt lat="34.9580021" lon="32.8369977">
<ele>1322.34</ele>
<time>2015-04-30T07:45:40Z</time>
</trkpt>
<trkpt lat="34.9579458" lon="32.8369792">
<ele>1323.48</ele>
<time>2015-04-30T07:45:44Z</time>
</trkpt>
<trkpt lat="34.9578889" lon="32.8369606">
<ele>1323.99</ele>
<time>2015-04-30T07:45:48Z</time>
</trkpt>
<trkpt lat="34.9578300" lon="32.8369445">
<ele>1326.09</ele>
<time>2015-04-30T07:45:52Z</time>
</trkpt>
<trkpt lat="34.9577840" lon="32.8369399">
<ele>1327.30</ele>
<time>2015-04-30T07:45:55Z</time>
</trkpt>
<trkpt lat="34.9577366" lon="32.8369142">
<ele>1328.42</ele>
<time>2015-04-30T07:45:59Z</time>
</trkpt>
<trkpt lat="34.9576896" lon="32.8368946">
<ele>1329.99</ele>
<time>2015-04-30T07:46:03Z</time>
</trkpt>
<trkpt lat="34.9576354" lon="32.8368785">
<ele>1331.59</ele>
<time>2015-04-30T07:46:07Z</time>
</trkpt>
<trkpt lat="34.9575780" lon="32.8368579">
<ele>1332.25</ele>
<time>2015-04-30T07:46:11Z</time>
</trkpt>
<trkpt lat="34.9575304" lon="32.8368421">
<ele>1331.82</ele>
<time>2015-04-30T07:46:14Z</time>
</trkpt>
<trkpt lat="34.9574770" lon="32.8368309">
<ele>1332.64</ele>
<time>2015-04-30T07:46:17Z</time>
</trkpt>
<trkpt lat="34.9574212" lon="32.8368203">
<ele>1333.62</ele>
<time>2015-04-30T07:46:20Z</time>
</trkpt>
<trkpt lat="34.9573660" lon="32.8368067">
<ele>1333.99</ele>
<time>2015-04-30T07:46:23Z</time>
</trkpt>
<trkpt lat="34.9573167" lon="32.8367890">
<ele>1333.91</ele>
<time>2015-04-30T07:46:26Z</time>
</trkpt>
<trkpt lat="34.9572707" lon="32.8367698">
<ele>1334.40</ele>
<time>2015-04-30T07:46:29Z</time>
</trkpt>
<trkpt lat="34.9572300" lon="32.8367447">
<ele>1334.22</ele>
<time>2015-04-30T07:46:32Z</time>
</trkpt>
<trkpt lat="34.9571885" lon="32.8367210">
<ele>1334.32</ele>
<time>2015-04-30T07:46:35Z</time>
</trkpt>
<trkpt lat="34.9571499" lon="32.8366852">
<ele>1334.20</ele>
<time>2015-04-30T07:46:38Z</time>
</trkpt>
<trkpt lat="34.9571098" lon="32.8366359">
<ele>1332.94</ele>
<time>2015-04-30T07:46:41Z</time>
</trkpt>
<trkpt lat="34.9570650" lon="32.8365873">
<ele>1333.03</ele>
<time>2015-04-30T07:46:44Z</time>
</trkpt>
<trkpt lat="34.9570241" lon="32.8365402">
<ele>1335.29</ele>
<time>2015-04-30T07:46:47Z</time>
</trkpt>
<trkpt lat="34.9570207" lon="32.8364739">
<ele>1334.41</ele>
<time>2015-04-30T07:46:53Z</time>
</trkpt>
<trkpt lat="34.9570232" lon="32.8364131">
<ele>1335.34</ele>
<time>2015-04-30T07:46:56Z</time>
</trkpt>
<trkpt lat="34.9570368" lon="32.8363545">
<ele>1335.46</ele>
<time>2015-04-30T07:46:59Z</time>
</trkpt>
<trkpt lat="34.9570666" lon="32.8363002">
<ele>1336.60</ele>
<time>2015-04-30T07:47:02Z</time>
</trkpt>
<trkpt lat="34.9570844" lon="32.8362462">
<ele>1337.61</ele>
<time>2015-04-30T07:47:05Z</time>
</trkpt>
<trkpt lat="34.9571064" lon="32.8361979">
<ele>1336.12</ele>
<time>2015-04-30T07:47:08Z</time>
</trkpt>
<trkpt lat="34.9571262" lon="32.8361361">
<ele>1336.16</ele>
<time>2015-04-30T07:47:12Z</time>
</trkpt>
<trkpt lat="34.9571385" lon="32.8360823">
<ele>1336.68</ele>
<time>2015-04-30T07:47:15Z</time>
</trkpt>
<trkpt lat="34.9571647" lon="32.8360321">
<ele>1339.75</ele>
<time>2015-04-30T07:47:18Z</time>
</trkpt>
<trkpt lat="34.9571802" lon="32.8359681">
<ele>1340.07</ele>
<time>2015-04-30T07:47:22Z</time>
</trkpt>
<trkpt lat="34.9571913" lon="32.8359073">
<ele>1340.28</ele>
<time>2015-04-30T07:47:26Z</time>
</trkpt>
<trkpt lat="34.9571859" lon="32.8358427">
<ele>1340.73</ele>
<time>2015-04-30T07:47:30Z</time>
</trkpt>
<trkpt lat="34.9571804" lon="32.8357699">
<ele>1341.26</ele>
<time>2015-04-30T07:47:34Z</time>
</trkpt>
<trkpt lat="34.9571746" lon="32.8357145">
<ele>1339.95</ele>
<time>2015-04-30T07:47:37Z</time>
</trkpt>
<trkpt lat="34.9571548" lon="32.8356501">
<ele>1341.71</ele>
<time>2015-04-30T07:47:41Z</time>
</trkpt>
<trkpt lat="34.9571342" lon="32.8356004">
<ele>1343.50</ele>
<time>2015-04-30T07:47:44Z</time>
</trkpt>
<trkpt lat="34.9571172" lon="32.8355352">
<ele>1344.06</ele>
<time>2015-04-30T07:47:48Z</time>
</trkpt>
<trkpt lat="34.9571009" lon="32.8354640">
<ele>1341.22</ele>
<time>2015-04-30T07:47:52Z</time>
</trkpt>
<trkpt lat="34.9570934" lon="32.8354030">
<ele>1340.82</ele>
<time>2015-04-30T07:47:55Z</time>
</trkpt>
<trkpt lat="34.9570854" lon="32.8353433">
<ele>1341.14</ele>
<time>2015-04-30T07:47:58Z</time>
</trkpt>
<trkpt lat="34.9570825" lon="32.8352879">
<ele>1343.68</ele>
<time>2015-04-30T07:48:01Z</time>
</trkpt>
<trkpt lat="34.9570847" lon="32.8352218">
<ele>1345.76</ele>
<time>2015-04-30T07:48:05Z</time>
</trkpt>
<trkpt lat="34.9571078" lon="32.8351494">
<ele>1346.51</ele>
<time>2015-04-30T07:48:09Z</time>
</trkpt>
<trkpt lat="34.9571325" lon="32.8350846">
<ele>1344.35</ele>
<time>2015-04-30T07:48:12Z</time>
</trkpt>
<trkpt lat="34.9571611" lon="32.8350248">
<ele>1342.96</ele>
<time>2015-04-30T07:48:15Z</time>
</trkpt>
<trkpt lat="34.9571904" lon="32.8349740">
<ele>1343.03</ele>
<time>2015-04-30T07:48:18Z</time>
</trkpt>
<trkpt lat="34.9572096" lon="32.8349094">
<ele>1341.90</ele>
<time>2015-04-30T07:48:22Z</time>
</trkpt>
<trkpt lat="34.9572548" lon="32.8348646">
<ele>1342.33</ele>
<time>2015-04-30T07:48:26Z</time>
</trkpt>
<trkpt lat="34.9572849" lon="32.8348131">
<ele>1339.09</ele>
<time>2015-04-30T07:48:31Z</time>
</trkpt>
<trkpt lat="34.9573238" lon="32.8347678">
<ele>1337.03</ele>
<time>2015-04-30T07:48:37Z</time>
</trkpt>
<trkpt lat="34.9573583" lon="32.8347229">
<ele>1336.84</ele>
<time>2015-04-30T07:48:41Z</time>
</trkpt>
<trkpt lat="34.9574056" lon="32.8346780">
<ele>1337.52</ele>
<time>2015-04-30T07:48:45Z</time>
</trkpt>
<trkpt lat="34.9574394" lon="32.8346394">
<ele>1336.10</ele>
<time>2015-04-30T07:48:48Z</time>
</trkpt>
<trkpt lat="34.9574717" lon="32.8345987">
<ele>1335.80</ele>
<time>2015-04-30T07:48:51Z</time>
</trkpt>
<trkpt lat="34.9575065" lon="32.8345527">
<ele>1336.39</ele>
<time>2015-04-30T07:48:54Z</time>
</trkpt>
<trkpt lat="34.9575354" lon="32.8345092">
<ele>1336.71</ele>
<time>2015-04-30T07:48:57Z</time>
</trkpt>
<trkpt lat="34.9575544" lon="32.8344427">
<ele>1337.63</ele>
<time>2015-04-30T07:49:01Z</time>
</trkpt>
<trkpt lat="34.9575579" lon="32.8343709">
<ele>1338.25</ele>
<time>2015-04-30T07:49:05Z</time>
</trkpt>
<trkpt lat="34.9575466" lon="32.8343174">
<ele>1339.57</ele>
<time>2015-04-30T07:49:08Z</time>
</trkpt>
<trkpt lat="34.9575207" lon="32.8342524">
<ele>1341.87</ele>
<time>2015-04-30T07:49:12Z</time>
</trkpt>
<trkpt lat="34.9574907" lon="32.8341996">
<ele>1343.58</ele>
<time>2015-04-30T07:49:16Z</time>
</trkpt>
<trkpt lat="34.9574450" lon="32.8341736">
<ele>1344.25</ele>
<time>2015-04-30T07:49:20Z</time>
</trkpt>
<trkpt lat="34.9573896" lon="32.8341559">
<ele>1344.73</ele>
<time>2015-04-30T07:49:24Z</time>
</trkpt>
<trkpt lat="34.9573313" lon="32.8341455">
<ele>1345.63</ele>
<time>2015-04-30T07:49:28Z</time>
</trkpt>
<trkpt lat="34.9572743" lon="32.8341452">
<ele>1347.94</ele>
<time>2015-04-30T07:49:32Z</time>
</trkpt>
<trkpt lat="34.9572190" lon="32.8341484">
<ele>1347.96</ele>
<time>2015-04-30T07:49:36Z</time>
</trkpt>
<trkpt lat="34.9571603" lon="32.8341456">
<ele>1349.46</ele>
<time>2015-04-30T07:49:40Z</time>
</trkpt>
<trkpt lat="34.9571149" lon="32.8341384">
<ele>1349.22</ele>
<time>2015-04-30T07:49:43Z</time>
</trkpt>
<trkpt lat="34.9570611" lon="32.8341236">
<ele>1349.73</ele>
<time>2015-04-30T07:49:47Z</time>
</trkpt>
<trkpt lat="34.9570075" lon="32.8341147">
<ele>1349.26</ele>
<time>2015-04-30T07:49:51Z</time>
</trkpt>
<trkpt lat="34.9569617" lon="32.8340949">
<ele>1348.45</ele>
<time>2015-04-30T07:49:54Z</time>
</trkpt>
<trkpt lat="34.9569106" lon="32.8340612">
<ele>1350.37</ele>
<time>2015-04-30T07:49:58Z</time>
</trkpt>
<trkpt lat="34.9568606" lon="32.8340293">
<ele>1350.99</ele>
<time>2015-04-30T07:50:02Z</time>
</trkpt>
<trkpt lat="34.9568043" lon="32.8340221">
<ele>1352.52</ele>
<time>2015-04-30T07:50:06Z</time>
</trkpt>
<trkpt lat="34.9567576" lon="32.8340095">
<ele>1352.75</ele>
<time>2015-04-30T07:50:11Z</time>
</trkpt>
<trkpt lat="34.9567113" lon="32.8339688">
<ele>1352.76</ele>
<time>2015-04-30T07:50:16Z</time>
</trkpt>
<trkpt lat="34.9566647" lon="32.8339438">
<ele>1354.14</ele>
<time>2015-04-30T07:50:20Z</time>
</trkpt>
<trkpt lat="34.9566159" lon="32.8339303">
<ele>1355.60</ele>
<time>2015-04-30T07:50:24Z</time>
</trkpt>
<trkpt lat="34.9565678" lon="32.8339220">
<ele>1355.62</ele>
<time>2015-04-30T07:50:28Z</time>
</trkpt>
<trkpt lat="34.9565225" lon="32.8339240">
<ele>1355.75</ele>
<time>2015-04-30T07:50:32Z</time>
</trkpt>
<trkpt lat="34.9564777" lon="32.8339132">
<ele>1355.20</ele>
<time>2015-04-30T07:50:36Z</time>
</trkpt>
<trkpt lat="34.9564301" lon="32.8338922">
<ele>1354.85</ele>
<time>2015-04-30T07:50:40Z</time>
</trkpt>
<trkpt lat="34.9563832" lon="32.8338819">
<ele>1355.77</ele>
<time>2015-04-30T07:50:44Z</time>
</trkpt>
<trkpt lat="34.9563330" lon="32.8338792">
<ele>1356.70</ele>
<time>2015-04-30T07:50:48Z</time>
</trkpt>
<trkpt lat="34.9562852" lon="32.8338823">
<ele>1356.76</ele>
<time>2015-04-30T07:50:52Z</time>
</trkpt>
<trkpt lat="34.9562316" lon="32.8338777">
<ele>1355.82</ele>
<time>2015-04-30T07:50:56Z</time>
</trkpt>
<trkpt lat="34.9561737" lon="32.8338888">
<ele>1355.01</ele>
<time>2015-04-30T07:51:00Z</time>
</trkpt>
<trkpt lat="34.9561296" lon="32.8339000">
<ele>1354.54</ele>
<time>2015-04-30T07:51:03Z</time>
</trkpt>
<trkpt lat="34.9560726" lon="32.8339153">
<ele>1355.25</ele>
<time>2015-04-30T07:51:07Z</time>
</trkpt>
<trkpt lat="34.9560185" lon="32.8339443">
<ele>1355.17</ele>
<time>2015-04-30T07:51:11Z</time>
</trkpt>
<trkpt lat="34.9559684" lon="32.8339807">
<ele>1355.85</ele>
<time>2015-04-30T07:51:15Z</time>
</trkpt>
<trkpt lat="34.9559231" lon="32.8339930">
<ele>1356.27</ele>
<time>2015-04-30T07:51:19Z</time>
</trkpt>
<trkpt lat="34.9558827" lon="32.8340214">
<ele>1357.49</ele>
<time>2015-04-30T07:51:24Z</time>
</trkpt>
<trkpt lat="34.9558364" lon="32.8340616">
<ele>1357.50</ele>
<time>2015-04-30T07:51:29Z</time>
</trkpt>
<trkpt lat="34.9557987" lon="32.8340978">
<ele>1357.74</ele>
<time>2015-04-30T07:51:33Z</time>
</trkpt>
<trkpt lat="34.9557569" lon="32.8341193">
<ele>1358.45</ele>
<time>2015-04-30T07:51:37Z</time>
</trkpt>
<trkpt lat="34.9557109" lon="32.8341600">
<ele>1358.87</ele>
<time>2015-04-30T07:51:41Z</time>
</trkpt>
<trkpt lat="34.9556698" lon="32.8341891">
<ele>1357.52</ele>
<time>2015-04-30T07:51:44Z</time>
</trkpt>
<trkpt lat="34.9556196" lon="32.8342061">
<ele>1358.87</ele>
<time>2015-04-30T07:51:48Z</time>
</trkpt>
<trkpt lat="34.9555795" lon="32.8342368">
<ele>1359.70</ele>
<time>2015-04-30T07:51:52Z</time>
</trkpt>
<trkpt lat="34.9555295" lon="32.8342594">
<ele>1360.69</ele>
<time>2015-04-30T07:51:56Z</time>
</trkpt>
<trkpt lat="34.9554963" lon="32.8342966">
<ele>1361.25</ele>
<time>2015-04-30T07:51:59Z</time>
</trkpt>
<trkpt lat="34.9554468" lon="32.8343220">
<ele>1361.54</ele>
<time>2015-04-30T07:52:03Z</time>
</trkpt>
<trkpt lat="34.9554019" lon="32.8343512">
<ele>1361.63</ele>
<time>2015-04-30T07:52:09Z</time>
</trkpt>
<trkpt lat="34.9553631" lon="32.8343898">
<ele>1362.63</ele>
<time>2015-04-30T07:52:14Z</time>
</trkpt>
<trkpt lat="34.9553245" lon="32.8344274">
<ele>1363.13</ele>
<time>2015-04-30T07:52:18Z</time>
</trkpt>
<trkpt lat="34.9552863" lon="32.8344691">
<ele>1363.91</ele>
<time>2015-04-30T07:52:22Z</time>
</trkpt>
<trkpt lat="34.9552529" lon="32.8345060">
<ele>1363.28</ele>
<time>2015-04-30T07:52:25Z</time>
</trkpt>
<trkpt lat="34.9552041" lon="32.8345410">
<ele>1364.17</ele>
<time>2015-04-30T07:52:29Z</time>
</trkpt>
<trkpt lat="34.9551585" lon="32.8345678">
<ele>1364.72</ele>
<time>2015-04-30T07:52:33Z</time>
</trkpt>
<trkpt lat="34.9551079" lon="32.8345907">
<ele>1365.26</ele>
<time>2015-04-30T07:52:38Z</time>
</trkpt>
<trkpt lat="34.9550745" lon="32.8346294">
<ele>1366.94</ele>
<time>2015-04-30T07:52:44Z</time>
</trkpt>
<trkpt lat="34.9550273" lon="32.8346479">
<ele>1367.26</ele>
<time>2015-04-30T07:52:50Z</time>
</trkpt>
<trkpt lat="34.9549841" lon="32.8346772">
<ele>1367.06</ele>
<time>2015-04-30T07:52:55Z</time>
</trkpt>
<trkpt lat="34.9549471" lon="32.8347150">
<ele>1367.47</ele>
<time>2015-04-30T07:52:59Z</time>
</trkpt>
<trkpt lat="34.9549094" lon="32.8347477">
<ele>1367.74</ele>
<time>2015-04-30T07:53:03Z</time>
</trkpt>
<trkpt lat="34.9548696" lon="32.8347765">
<ele>1367.76</ele>
<time>2015-04-30T07:53:07Z</time>
</trkpt>
<trkpt lat="34.9548227" lon="32.8348138">
<ele>1367.76</ele>
<time>2015-04-30T07:53:12Z</time>
</trkpt>
<trkpt lat="34.9547744" lon="32.8348416">
<ele>1366.95</ele>
<time>2015-04-30T07:53:17Z</time>
</trkpt>
<trkpt lat="34.9547267" lon="32.8348681">
<ele>1366.77</ele>
<time>2015-04-30T07:53:22Z</time>
</trkpt>
<trkpt lat="34.9546762" lon="32.8348922">
<ele>1366.76</ele>
<time>2015-04-30T07:53:27Z</time>
</trkpt>
<trkpt lat="34.9546298" lon="32.8349171">
<ele>1367.64</ele>
<time>2015-04-30T07:53:31Z</time>
</trkpt>
<trkpt lat="34.9545762" lon="32.8349293">
<ele>1369.44</ele>
<time>2015-04-30T07:53:35Z</time>
</trkpt>
<trkpt lat="34.9545196" lon="32.8349357">
<ele>1370.61</ele>
<time>2015-04-30T07:53:39Z</time>
</trkpt>
<trkpt lat="34.9544644" lon="32.8349483">
<ele>1371.69</ele>
<time>2015-04-30T07:53:43Z</time>
</trkpt>
<trkpt lat="34.9544108" lon="32.8349586">
<ele>1371.76</ele>
<time>2015-04-30T07:53:47Z</time>
</trkpt>
<trkpt lat="34.9543524" lon="32.8349487">
<ele>1371.76</ele>
<time>2015-04-30T07:53:51Z</time>
</trkpt>
<trkpt lat="34.9543050" lon="32.8349468">
<ele>1372.64</ele>
<time>2015-04-30T07:53:54Z</time>
</trkpt>
<trkpt lat="34.9542566" lon="32.8349468">
<ele>1373.49</ele>
<time>2015-04-30T07:53:57Z</time>
</trkpt>
<trkpt lat="34.9542091" lon="32.8349515">
<ele>1376.10</ele>
<time>2015-04-30T07:54:00Z</time>
</trkpt>
<trkpt lat="34.9541498" lon="32.8349517">
<ele>1376.97</ele>
<time>2015-04-30T07:54:04Z</time>
</trkpt>
<trkpt lat="34.9540988" lon="32.8349318">
<ele>1376.77</ele>
<time>2015-04-30T07:54:08Z</time>
</trkpt>
<trkpt lat="34.9540554" lon="32.8349169">
<ele>1379.01</ele>
<time>2015-04-30T07:54:11Z</time>
</trkpt>
<trkpt lat="34.9540030" lon="32.8349031">
<ele>1380.53</ele>
<time>2015-04-30T07:54:15Z</time>
</trkpt>
<trkpt lat="34.9539492" lon="32.8348823">
<ele>1381.56</ele>
<time>2015-04-30T07:54:19Z</time>
</trkpt>
<trkpt lat="34.9539020" lon="32.8348657">
<ele>1377.06</ele>
<time>2015-04-30T07:54:23Z</time>
</trkpt>
<trkpt lat="34.9538540" lon="32.8348510">
<ele>1376.11</ele>
<time>2015-04-30T07:54:28Z</time>
</trkpt>
<trkpt lat="34.9538171" lon="32.8348049">
<ele>1377.40</ele>
<time>2015-04-30T07:54:33Z</time>
</trkpt>
<trkpt lat="34.9537893" lon="32.8347456">
<ele>1378.42</ele>
<time>2015-04-30T07:54:37Z</time>
</trkpt>
<trkpt lat="34.9537599" lon="32.8346965">
<ele>1379.47</ele>
<time>2015-04-30T07:54:40Z</time>
</trkpt>
<trkpt lat="34.9537365" lon="32.8346478">
<ele>1381.35</ele>
<time>2015-04-30T07:54:43Z</time>
</trkpt>
<trkpt lat="34.9537192" lon="32.8345894">
<ele>1381.96</ele>
<time>2015-04-30T07:54:46Z</time>
</trkpt>
<trkpt lat="34.9536908" lon="32.8345253">
<ele>1374.78</ele>
<time>2015-04-30T07:54:49Z</time>
</trkpt>
<trkpt lat="34.9536602" lon="32.8344565">
<ele>1373.76</ele>
<time>2015-04-30T07:54:52Z</time>
</trkpt>
<trkpt lat="34.9536409" lon="32.8343962">
<ele>1374.01</ele>
<time>2015-04-30T07:54:55Z</time>
</trkpt>
<trkpt lat="34.9536336" lon="32.8343384">
<ele>1374.04</ele>
<time>2015-04-30T07:54:58Z</time>
</trkpt>
<trkpt lat="34.9536106" lon="32.8342861">
<ele>1373.80</ele>
<time>2015-04-30T07:55:01Z</time>
</trkpt>
<trkpt lat="34.9536096" lon="32.8342129">
<ele>1371.95</ele>
<time>2015-04-30T07:55:05Z</time>
</trkpt>
<trkpt lat="34.9535958" lon="32.8341458">
<ele>1372.71</ele>
<time>2015-04-30T07:55:09Z</time>
</trkpt>
<trkpt lat="34.9535816" lon="32.8340907">
<ele>1374.13</ele>
<time>2015-04-30T07:55:12Z</time>
</trkpt>
<trkpt lat="34.9535685" lon="32.8340209">
<ele>1374.72</ele>
<time>2015-04-30T07:55:16Z</time>
</trkpt>
<trkpt lat="34.9535491" lon="32.8339562">
<ele>1375.70</ele>
<time>2015-04-30T07:55:20Z</time>
</trkpt>
<trkpt lat="34.9535024" lon="32.8339091">
<ele>1377.44</ele>
<time>2015-04-30T07:55:24Z</time>
</trkpt>
<trkpt lat="34.9534574" lon="32.8338816">
<ele>1378.97</ele>
<time>2015-04-30T07:55:27Z</time>
</trkpt>
<trkpt lat="34.9534134" lon="32.8338525">
<ele>1378.27</ele>
<time>2015-04-30T07:55:31Z</time>
</trkpt>
<trkpt lat="34.9533692" lon="32.8338310">
<ele>1378.92</ele>
<time>2015-04-30T07:55:35Z</time>
</trkpt>
<trkpt lat="34.9533197" lon="32.8338086">
<ele>1379.64</ele>
<time>2015-04-30T07:55:40Z</time>
</trkpt>
<trkpt lat="34.9532718" lon="32.8337955">
<ele>1382.16</ele>
<time>2015-04-30T07:55:45Z</time>
</trkpt>
<trkpt lat="34.9532229" lon="32.8337820">
<ele>1382.87</ele>
<time>2015-04-30T07:55:50Z</time>
</trkpt>
<trkpt lat="34.9531674" lon="32.8337785">
<ele>1383.73</ele>
<time>2015-04-30T07:55:55Z</time>
</trkpt>
<trkpt lat="34.9531176" lon="32.8337642">
<ele>1383.51</ele>
<time>2015-04-30T07:55:59Z</time>
</trkpt>
<trkpt lat="34.9530631" lon="32.8337417">
<ele>1383.87</ele>
<time>2015-04-30T07:56:03Z</time>
</trkpt>
<trkpt lat="34.9530117" lon="32.8337296">
<ele>1384.70</ele>
<time>2015-04-30T07:56:07Z</time>
</trkpt>
<trkpt lat="34.9529602" lon="32.8337220">
<ele>1386.51</ele>
<time>2015-04-30T07:56:11Z</time>
</trkpt>
<trkpt lat="34.9529100" lon="32.8337138">
<ele>1384.49</ele>
<time>2015-04-30T07:56:15Z</time>
</trkpt>
<trkpt lat="34.9528557" lon="32.8337074">
<ele>1385.56</ele>
<time>2015-04-30T07:56:20Z</time>
</trkpt>
<trkpt lat="34.9528097" lon="32.8337088">
<ele>1385.50</ele>
<time>2015-04-30T07:56:24Z</time>
</trkpt>
<trkpt lat="34.9527605" lon="32.8337002">
<ele>1384.06</ele>
<time>2015-04-30T07:56:28Z</time>
</trkpt>
<trkpt lat="34.9527174" lon="32.8336771">
<ele>1387.28</ele>
<time>2015-04-30T07:56:32Z</time>
</trkpt>
<trkpt lat="34.9526797" lon="32.8336260">
<ele>1387.15</ele>
<time>2015-04-30T07:56:37Z</time>
</trkpt>
<trkpt lat="34.9526519" lon="32.8335769">
<ele>1390.10</ele>
<time>2015-04-30T07:56:41Z</time>
</trkpt>
<trkpt lat="34.9526144" lon="32.8335300">
<ele>1391.91</ele>
<time>2015-04-30T07:56:45Z</time>
</trkpt>
<trkpt lat="34.9526010" lon="32.8334742">
<ele>1391.14</ele>
<time>2015-04-30T07:56:49Z</time>
</trkpt>
<trkpt lat="34.9525994" lon="32.8334114">
<ele>1390.28</ele>
<time>2015-04-30T07:56:53Z</time>
</trkpt>
<trkpt lat="34.9525897" lon="32.8333470">
<ele>1389.79</ele>
<time>2015-04-30T07:56:57Z</time>
</trkpt>
<trkpt lat="34.9525819" lon="32.8332797">
<ele>1389.64</ele>
<time>2015-04-30T07:57:01Z</time>
</trkpt>
<trkpt lat="34.9525610" lon="32.8332291">
<ele>1390.62</ele>
<time>2015-04-30T07:57:04Z</time>
</trkpt>
<trkpt lat="34.9525278" lon="32.8331774">
<ele>1391.69</ele>
<time>2015-04-30T07:57:08Z</time>
</trkpt>
<trkpt lat="34.9524973" lon="32.8331273">
<ele>1392.63</ele>
<time>2015-04-30T07:57:12Z</time>
</trkpt>
<trkpt lat="34.9524471" lon="32.8330909">
<ele>1394.94</ele>
<time>2015-04-30T07:57:16Z</time>
</trkpt>
<trkpt lat="34.9523914" lon="32.8330750">
<ele>1395.71</ele>
<time>2015-04-30T07:57:20Z</time>
</trkpt>
<trkpt lat="34.9523398" lon="32.8330813">
<ele>1396.63</ele>
<time>2015-04-30T07:57:24Z</time>
</trkpt>
<trkpt lat="34.9522872" lon="32.8330966">
<ele>1395.88</ele>
<time>2015-04-30T07:57:28Z</time>
</trkpt>
<trkpt lat="34.9522396" lon="32.8331319">
<ele>1396.64</ele>
<time>2015-04-30T07:57:32Z</time>
</trkpt>
<trkpt lat="34.9521930" lon="32.8331555">
<ele>1398.50</ele>
<time>2015-04-30T07:57:36Z</time>
</trkpt>
<trkpt lat="34.9521408" lon="32.8331720">
<ele>1400.18</ele>
<time>2015-04-30T07:57:40Z</time>
</trkpt>
<trkpt lat="34.9520890" lon="32.8332009">
<ele>1399.35</ele>
<time>2015-04-30T07:57:44Z</time>
</trkpt>
<trkpt lat="34.9520438" lon="32.8332141">
<ele>1399.58</ele>
<time>2015-04-30T07:57:47Z</time>
</trkpt>
<trkpt lat="34.9519874" lon="32.8332302">
<ele>1398.94</ele>
<time>2015-04-30T07:57:51Z</time>
</trkpt>
<trkpt lat="34.9519390" lon="32.8332219">
<ele>1399.53</ele>
<time>2015-04-30T07:57:54Z</time>
</trkpt>
<trkpt lat="34.9518891" lon="32.8332212">
<ele>1401.48</ele>
<time>2015-04-30T07:57:57Z</time>
</trkpt>
<trkpt lat="34.9518317" lon="32.8332221">
<ele>1401.74</ele>
<time>2015-04-30T07:58:01Z</time>
</trkpt>
<trkpt lat="34.9517746" lon="32.8332204">
<ele>1401.51</ele>
<time>2015-04-30T07:58:05Z</time>
</trkpt>
<trkpt lat="34.9517181" lon="32.8332203">
<ele>1403.56</ele>
<time>2015-04-30T07:58:09Z</time>
</trkpt>
<trkpt lat="34.9516616" lon="32.8332298">
<ele>1403.37</ele>
<time>2015-04-30T07:58:13Z</time>
</trkpt>
<trkpt lat="34.9516171" lon="32.8332398">
<ele>1404.46</ele>
<time>2015-04-30T07:58:16Z</time>
</trkpt>
<trkpt lat="34.9515700" lon="32.8332452">
<ele>1405.60</ele>
<time>2015-04-30T07:58:19Z</time>
</trkpt>
<trkpt lat="34.9515233" lon="32.8332436">
<ele>1406.11</ele>
<time>2015-04-30T07:58:22Z</time>
</trkpt>
<trkpt lat="34.9514704" lon="32.8332577">
<ele>1405.78</ele>
<time>2015-04-30T07:58:26Z</time>
</trkpt>
<trkpt lat="34.9514273" lon="32.8332801">
<ele>1405.01</ele>
<time>2015-04-30T07:58:29Z</time>
</trkpt>
<trkpt lat="34.9513826" lon="32.8332920">
<ele>1404.67</ele>
<time>2015-04-30T07:58:32Z</time>
</trkpt>
<trkpt lat="34.9513246" lon="32.8333080">
<ele>1403.32</ele>
<time>2015-04-30T07:58:36Z</time>
</trkpt>
<trkpt lat="34.9512710" lon="32.8333169">
<ele>1402.83</ele>
<time>2015-04-30T07:58:39Z</time>
</trkpt>
<trkpt lat="34.9512230" lon="32.8333473">
<ele>1401.64</ele>
<time>2015-04-30T07:58:43Z</time>
</trkpt>
<trkpt lat="34.9511793" lon="32.8333787">
<ele>1402.00</ele>
<time>2015-04-30T07:58:47Z</time>
</trkpt>
<trkpt lat="34.9511327" lon="32.8334080">
<ele>1402.71</ele>
<time>2015-04-30T07:58:51Z</time>
</trkpt>
<trkpt lat="34.9510904" lon="32.8334520">
<ele>1402.76</ele>
<time>2015-04-30T07:58:55Z</time>
</trkpt>
<trkpt lat="34.9510384" lon="32.8334743">
<ele>1402.51</ele>
<time>2015-04-30T07:58:58Z</time>
</trkpt>
<trkpt lat="34.9509827" lon="32.8334939">
<ele>1403.48</ele>
<time>2015-04-30T07:59:01Z</time>
</trkpt>
<trkpt lat="34.9509251" lon="32.8335230">
<ele>1403.22</ele>
<time>2015-04-30T07:59:04Z</time>
</trkpt>
<trkpt lat="34.9508598" lon="32.8335437">
<ele>1402.82</ele>
<time>2015-04-30T07:59:07Z</time>
</trkpt>
<trkpt lat="34.9507932" lon="32.8335552">
<ele>1402.27</ele>
<time>2015-04-30T07:59:09Z</time>
</trkpt>
<trkpt lat="34.9507230" lon="32.8335522">
<ele>1402.14</ele>
<time>2015-04-30T07:59:11Z</time>
</trkpt>
<trkpt lat="34.9506546" lon="32.8335299">
<ele>1402.60</ele>
<time>2015-04-30T07:59:13Z</time>
</trkpt>
<trkpt lat="34.9505916" lon="32.8334923">
<ele>1401.97</ele>
<time>2015-04-30T07:59:15Z</time>
</trkpt>
<trkpt lat="34.9505320" lon="32.8334353">
<ele>1402.31</ele>
<time>2015-04-30T07:59:17Z</time>
</trkpt>
<trkpt lat="34.9504856" lon="32.8333707">
<ele>1402.90</ele>
<time>2015-04-30T07:59:19Z</time>
</trkpt>
<trkpt lat="34.9504472" lon="32.8333030">
<ele>1404.79</ele>
<time>2015-04-30T07:59:21Z</time>
</trkpt>
<trkpt lat="34.9504126" lon="32.8332466">
<ele>1406.27</ele>
<time>2015-04-30T07:59:23Z</time>
</trkpt>
<trkpt lat="34.9503695" lon="32.8331969">
<ele>1406.14</ele>
<time>2015-04-30T07:59:25Z</time>
</trkpt>
<trkpt lat="34.9503315" lon="32.8331463">
<ele>1406.10</ele>
<time>2015-04-30T07:59:27Z</time>
</trkpt>
<trkpt lat="34.9502955" lon="32.8330996">
<ele>1405.10</ele>
<time>2015-04-30T07:59:29Z</time>
</trkpt>
<trkpt lat="34.9502613" lon="32.8330580">
<ele>1405.59</ele>
<time>2015-04-30T07:59:31Z</time>
</trkpt>
<trkpt lat="34.9502344" lon="32.8330052">
<ele>1406.22</ele>
<time>2015-04-30T07:59:33Z</time>
</trkpt>
<trkpt lat="34.9502098" lon="32.8329532">
<ele>1405.62</ele>
<time>2015-04-30T07:59:35Z</time>
</trkpt>
<trkpt lat="34.9501880" lon="32.8328970">
<ele>1404.73</ele>
<time>2015-04-30T07:59:37Z</time>
</trkpt>
<trkpt lat="34.9501664" lon="32.8328483">
<ele>1404.75</ele>
<time>2015-04-30T07:59:39Z</time>
</trkpt>
<trkpt lat="34.9501319" lon="32.8328082">
<ele>1406.58</ele>
<time>2015-04-30T07:59:46Z</time>
</trkpt>
<trkpt lat="34.9501075" lon="32.8327593">
<ele>1408.72</ele>
<time>2015-04-30T07:59:48Z</time>
</trkpt>
<trkpt lat="34.9500810" lon="32.8327098">
<ele>1409.50</ele>
<time>2015-04-30T07:59:50Z</time>
</trkpt>
<trkpt lat="34.9500438" lon="32.8326701">
<ele>1409.94</ele>
<time>2015-04-30T07:59:52Z</time>
</trkpt>
<trkpt lat="34.9499999" lon="32.8326439">
<ele>1409.56</ele>
<time>2015-04-30T07:59:54Z</time>
</trkpt>
<trkpt lat="34.9499434" lon="32.8326376">
<ele>1412.23</ele>
<time>2015-04-30T07:59:57Z</time>
</trkpt>
<trkpt lat="34.9498956" lon="32.8326227">
<ele>1411.51</ele>
<time>2015-04-30T08:00:18Z</time>
</trkpt>
<trkpt lat="34.9498521" lon="32.8325861">
<ele>1411.38</ele>
<time>2015-04-30T08:00:24Z</time>
</trkpt>
<trkpt lat="34.9498187" lon="32.8325425">
<ele>1412.19</ele>
<time>2015-04-30T08:00:30Z</time>
</trkpt>
<trkpt lat="34.9498147" lon="32.8324868">
<ele>1412.47</ele>
<time>2015-04-30T08:00:34Z</time>
</trkpt>
<trkpt lat="34.9498086" lon="32.8324218">
<ele>1411.94</ele>
<time>2015-04-30T08:00:39Z</time>
</trkpt>
<trkpt lat="34.9497976" lon="32.8323681">
<ele>1411.90</ele>
<time>2015-04-30T08:00:48Z</time>
</trkpt>
<trkpt lat="34.9497777" lon="32.8324199">
<ele>1417.60</ele>
<time>2015-04-30T08:03:36Z</time>
</trkpt>
<trkpt lat="34.9497818" lon="32.8323630">
<ele>1410.83</ele>
<time>2015-04-30T08:08:20Z</time>
</trkpt>
<trkpt lat="34.9498247" lon="32.8323826">
<ele>1415.39</ele>
<time>2015-04-30T08:10:20Z</time>
</trkpt>
<trkpt lat="34.9498285" lon="32.8324382">
<ele>1420.74</ele>
<time>2015-04-30T08:10:50Z</time>
</trkpt>
<trkpt lat="34.9498438" lon="32.8324903">
<ele>1420.57</ele>
<time>2015-04-30T08:10:56Z</time>
</trkpt>
<trkpt lat="34.9498724" lon="32.8325394">
<ele>1420.37</ele>
<time>2015-04-30T08:11:00Z</time>
</trkpt>
<trkpt lat="34.9499060" lon="32.8325924">
<ele>1421.67</ele>
<time>2015-04-30T08:11:04Z</time>
</trkpt>
<trkpt lat="34.9499442" lon="32.8326441">
<ele>1421.75</ele>
<time>2015-04-30T08:11:08Z</time>
</trkpt>
<trkpt lat="34.9499827" lon="32.8326842">
<ele>1422.01</ele>
<time>2015-04-30T08:11:11Z</time>
</trkpt>
<trkpt lat="34.9500207" lon="32.8327364">
<ele>1422.04</ele>
<time>2015-04-30T08:11:14Z</time>
</trkpt>
<trkpt lat="34.9500484" lon="32.8327923">
<ele>1421.92</ele>
<time>2015-04-30T08:11:17Z</time>
</trkpt>
<trkpt lat="34.9500738" lon="32.8328560">
<ele>1422.46</ele>
<time>2015-04-30T08:11:21Z</time>
</trkpt>
<trkpt lat="34.9500989" lon="32.8329123">
<ele>1424.05</ele>
<time>2015-04-30T08:11:25Z</time>
</trkpt>
<trkpt lat="34.9501220" lon="32.8329700">
<ele>1423.84</ele>
<time>2015-04-30T08:11:29Z</time>
</trkpt>
<trkpt lat="34.9501506" lon="32.8330249">
<ele>1423.77</ele>
<time>2015-04-30T08:11:33Z</time>
</trkpt>
<trkpt lat="34.9501792" lon="32.8330812">
<ele>1424.32</ele>
<time>2015-04-30T08:11:38Z</time>
</trkpt>
<trkpt lat="34.9501957" lon="32.8331328">
<ele>1425.98</ele>
<time>2015-04-30T08:11:42Z</time>
</trkpt>
<trkpt lat="34.9502194" lon="32.8331850">
<ele>1428.02</ele>
<time>2015-04-30T08:11:46Z</time>
</trkpt>
<trkpt lat="34.9502440" lon="32.8332374">
<ele>1427.86</ele>
<time>2015-04-30T08:11:51Z</time>
</trkpt>
<trkpt lat="34.9502743" lon="32.8332806">
<ele>1426.83</ele>
<time>2015-04-30T08:11:58Z</time>
</trkpt>
<trkpt lat="34.9502935" lon="32.8333341">
<ele>1424.20</ele>
<time>2015-04-30T08:12:04Z</time>
</trkpt>
<trkpt lat="34.9503134" lon="32.8333867">
<ele>1423.80</ele>
<time>2015-04-30T08:12:09Z</time>
</trkpt>
<trkpt lat="34.9503104" lon="32.8334451">
<ele>1420.89</ele>
<time>2015-04-30T08:12:20Z</time>
</trkpt>
<trkpt lat="34.9503115" lon="32.8335123">
<ele>1422.33</ele>
<time>2015-04-30T08:12:24Z</time>
</trkpt>
<trkpt lat="34.9503170" lon="32.8335791">
<ele>1422.42</ele>
<time>2015-04-30T08:12:28Z</time>
</trkpt>
<trkpt lat="34.9503339" lon="32.8336340">
<ele>1419.86</ele>
<time>2015-04-30T08:12:32Z</time>
</trkpt>
<trkpt lat="34.9503149" lon="32.8336977">
<ele>1417.20</ele>
<time>2015-04-30T08:12:37Z</time>
</trkpt>
<trkpt lat="34.9503033" lon="32.8337616">
<ele>1416.59</ele>
<time>2015-04-30T08:12:42Z</time>
</trkpt>
<trkpt lat="34.9502859" lon="32.8338216">
<ele>1420.07</ele>
<time>2015-04-30T08:12:48Z</time>
</trkpt>
<trkpt lat="34.9502659" lon="32.8338870">
<ele>1417.89</ele>
<time>2015-04-30T08:12:53Z</time>
</trkpt>
<trkpt lat="34.9502492" lon="32.8339464">
<ele>1416.80</ele>
<time>2015-04-30T08:12:58Z</time>
</trkpt>
<trkpt lat="34.9502424" lon="32.8340013">
<ele>1418.82</ele>
<time>2015-04-30T08:13:04Z</time>
</trkpt>
<trkpt lat="34.9502226" lon="32.8340608">
<ele>1420.50</ele>
<time>2015-04-30T08:13:13Z</time>
</trkpt>
<trkpt lat="34.9502005" lon="32.8341095">
<ele>1422.37</ele>
<time>2015-04-30T08:13:17Z</time>
</trkpt>
<trkpt lat="34.9501748" lon="32.8341682">
<ele>1426.24</ele>
<time>2015-04-30T08:13:21Z</time>
</trkpt>
<trkpt lat="34.9501484" lon="32.8342290">
<ele>1425.12</ele>
<time>2015-04-30T08:13:26Z</time>
</trkpt>
<trkpt lat="34.9501371" lon="32.8342953">
<ele>1425.78</ele>
<time>2015-04-30T08:13:30Z</time>
</trkpt>
<trkpt lat="34.9501193" lon="32.8343513">
<ele>1429.73</ele>
<time>2015-04-30T08:13:35Z</time>
</trkpt>
<trkpt lat="34.9500951" lon="32.8344014">
<ele>1432.70</ele>
<time>2015-04-30T08:13:39Z</time>
</trkpt>
<trkpt lat="34.9500612" lon="32.8344537">
<ele>1433.76</ele>
<time>2015-04-30T08:13:44Z</time>
</trkpt>
<trkpt lat="34.9500245" lon="32.8345060">
<ele>1427.35</ele>
<time>2015-04-30T08:13:49Z</time>
</trkpt>
<trkpt lat="34.9499999" lon="32.8345591">
<ele>1423.23</ele>
<time>2015-04-30T08:13:53Z</time>
</trkpt>
<trkpt lat="34.9499867" lon="32.8346271">
<ele>1420.93</ele>
<time>2015-04-30T08:13:58Z</time>
</trkpt>
<trkpt lat="34.9499709" lon="32.8346798">
<ele>1421.66</ele>
<time>2015-04-30T08:14:01Z</time>
</trkpt>
<trkpt lat="34.9499607" lon="32.8347358">
<ele>1420.19</ele>
<time>2015-04-30T08:14:05Z</time>
</trkpt>
<trkpt lat="34.9499464" lon="32.8347961">
<ele>1420.29</ele>
<time>2015-04-30T08:14:09Z</time>
</trkpt>
<trkpt lat="34.9499307" lon="32.8348592">
<ele>1425.08</ele>
<time>2015-04-30T08:14:12Z</time>
</trkpt>
<trkpt lat="34.9499197" lon="32.8349202">
<ele>1425.17</ele>
<time>2015-04-30T08:14:15Z</time>
</trkpt>
<trkpt lat="34.9499252" lon="32.8349776">
<ele>1428.94</ele>
<time>2015-04-30T08:14:18Z</time>
</trkpt>
<trkpt lat="34.9499303" lon="32.8350329">
<ele>1432.16</ele>
<time>2015-04-30T08:14:21Z</time>
</trkpt>
<trkpt lat="34.9499321" lon="32.8350923">
<ele>1434.18</ele>
<time>2015-04-30T08:14:24Z</time>
</trkpt>
<trkpt lat="34.9499360" lon="32.8351490">
<ele>1435.44</ele>
<time>2015-04-30T08:14:27Z</time>
</trkpt>
<trkpt lat="34.9499478" lon="32.8352111">
<ele>1435.55</ele>
<time>2015-04-30T08:14:31Z</time>
</trkpt>
<trkpt lat="34.9499795" lon="32.8352584">
<ele>1432.68</ele>
<time>2015-04-30T08:14:37Z</time>
</trkpt>
<trkpt lat="34.9500127" lon="32.8353002">
<ele>1432.79</ele>
<time>2015-04-30T08:14:42Z</time>
</trkpt>
<trkpt lat="34.9500589" lon="32.8353255">
<ele>1435.14</ele>
<time>2015-04-30T08:14:47Z</time>
</trkpt>
<trkpt lat="34.9501026" lon="32.8353517">
<ele>1435.66</ele>
<time>2015-04-30T08:14:51Z</time>
</trkpt>
<trkpt lat="34.9501491" lon="32.8353531">
<ele>1437.19</ele>
<time>2015-04-30T08:14:55Z</time>
</trkpt>
<trkpt lat="34.9502005" lon="32.8353579">
<ele>1438.46</ele>
<time>2015-04-30T08:15:00Z</time>
</trkpt>
<trkpt lat="34.9502482" lon="32.8353693">
<ele>1439.05</ele>
<time>2015-04-30T08:15:04Z</time>
</trkpt>
<trkpt lat="34.9502937" lon="32.8353552">
<ele>1437.97</ele>
<time>2015-04-30T08:15:08Z</time>
</trkpt>
<trkpt lat="34.9503439" lon="32.8353596">
<ele>1437.24</ele>
<time>2015-04-30T08:15:13Z</time>
</trkpt>
<trkpt lat="34.9503792" lon="32.8353234">
<ele>1438.98</ele>
<time>2015-04-30T08:15:17Z</time>
</trkpt>
<trkpt lat="34.9504253" lon="32.8352988">
<ele>1441.15</ele>
<time>2015-04-30T08:15:21Z</time>
</trkpt>
<trkpt lat="34.9504713" lon="32.8352746">
<ele>1439.35</ele>
<time>2015-04-30T08:15:25Z</time>
</trkpt>
<trkpt lat="34.9505192" lon="32.8352668">
<ele>1440.93</ele>
<time>2015-04-30T08:15:30Z</time>
</trkpt>
<trkpt lat="34.9505675" lon="32.8352401">
<ele>1440.92</ele>
<time>2015-04-30T08:15:35Z</time>
</trkpt>
<trkpt lat="34.9506119" lon="32.8352250">
<ele>1440.33</ele>
<time>2015-04-30T08:15:39Z</time>
</trkpt>
<trkpt lat="34.9506632" lon="32.8352143">
<ele>1436.66</ele>
<time>2015-04-30T08:15:45Z</time>
</trkpt>
<trkpt lat="34.9507143" lon="32.8352130">
<ele>1435.45</ele>
<time>2015-04-30T08:15:51Z</time>
</trkpt>
<trkpt lat="34.9507654" lon="32.8352040">
<ele>1432.22</ele>
<time>2015-04-30T08:15:56Z</time>
</trkpt>
<trkpt lat="34.9508054" lon="32.8351688">
<ele>1436.66</ele>
<time>2015-04-30T08:16:00Z</time>
</trkpt>
<trkpt lat="34.9508504" lon="32.8351409">
<ele>1441.26</ele>
<time>2015-04-30T08:16:05Z</time>
</trkpt>
<trkpt lat="34.9509022" lon="32.8351213">
<ele>1443.60</ele>
<time>2015-04-30T08:16:09Z</time>
</trkpt>
<trkpt lat="34.9509554" lon="32.8351053">
<ele>1443.88</ele>
<time>2015-04-30T08:16:13Z</time>
</trkpt>
<trkpt lat="34.9510032" lon="32.8350986">
<ele>1441.70</ele>
<time>2015-04-30T08:16:17Z</time>
</trkpt>
<trkpt lat="34.9510505" lon="32.8350756">
<ele>1440.19</ele>
<time>2015-04-30T08:16:21Z</time>
</trkpt>
<trkpt lat="34.9510918" lon="32.8350464">
<ele>1443.61</ele>
<time>2015-04-30T08:16:27Z</time>
</trkpt>
<trkpt lat="34.9511362" lon="32.8350145">
<ele>1447.23</ele>
<time>2015-04-30T08:16:33Z</time>
</trkpt>
<trkpt lat="34.9511815" lon="32.8350089">
<ele>1449.23</ele>
<time>2015-04-30T08:16:37Z</time>
</trkpt>
<trkpt lat="34.9512326" lon="32.8350302">
<ele>1450.73</ele>
<time>2015-04-30T08:16:41Z</time>
</trkpt>
<trkpt lat="34.9512815" lon="32.8350384">
<ele>1450.63</ele>
<time>2015-04-30T08:16:44Z</time>
</trkpt>
<trkpt lat="34.9513403" lon="32.8350538">
<ele>1449.31</ele>
<time>2015-04-30T08:16:48Z</time>
</trkpt>
<trkpt lat="34.9513940" lon="32.8350606">
<ele>1450.54</ele>
<time>2015-04-30T08:16:52Z</time>
</trkpt>
<trkpt lat="34.9514454" lon="32.8350653">
<ele>1450.00</ele>
<time>2015-04-30T08:16:56Z</time>
</trkpt>
<trkpt lat="34.9515011" lon="32.8350763">
<ele>1450.65</ele>
<time>2015-04-30T08:17:00Z</time>
</trkpt>
<trkpt lat="34.9515458" lon="32.8350951">
<ele>1449.87</ele>
<time>2015-04-30T08:17:03Z</time>
</trkpt>
<trkpt lat="34.9515864" lon="32.8351223">
<ele>1450.27</ele>
<time>2015-04-30T08:17:06Z</time>
</trkpt>
<trkpt lat="34.9516388" lon="32.8351482">
<ele>1449.17</ele>
<time>2015-04-30T08:17:10Z</time>
</trkpt>
<trkpt lat="34.9516731" lon="32.8351908">
<ele>1450.04</ele>
<time>2015-04-30T08:17:14Z</time>
</trkpt>
<trkpt lat="34.9517025" lon="32.8352455">
<ele>1448.90</ele>
<time>2015-04-30T08:17:18Z</time>
</trkpt>
<trkpt lat="34.9517539" lon="32.8352748">
<ele>1448.83</ele>
<time>2015-04-30T08:17:22Z</time>
</trkpt>
<trkpt lat="34.9518006" lon="32.8353074">
<ele>1448.33</ele>
<time>2015-04-30T08:17:26Z</time>
</trkpt>
<trkpt lat="34.9518390" lon="32.8353543">
<ele>1449.67</ele>
<time>2015-04-30T08:17:30Z</time>
</trkpt>
<trkpt lat="34.9518735" lon="32.8354087">
<ele>1449.82</ele>
<time>2015-04-30T08:17:34Z</time>
</trkpt>
<trkpt lat="34.9518919" lon="32.8354630">
<ele>1448.64</ele>
<time>2015-04-30T08:17:37Z</time>
</trkpt>
<trkpt lat="34.9519033" lon="32.8355172">
<ele>1447.75</ele>
<time>2015-04-30T08:17:40Z</time>
</trkpt>
<trkpt lat="34.9519040" lon="32.8355909">
<ele>1446.70</ele>
<time>2015-04-30T08:17:44Z</time>
</trkpt>
<trkpt lat="34.9519006" lon="32.8356560">
<ele>1444.44</ele>
<time>2015-04-30T08:17:48Z</time>
</trkpt>
<trkpt lat="34.9518662" lon="32.8356990">
<ele>1443.87</ele>
<time>2015-04-30T08:17:52Z</time>
</trkpt>
<trkpt lat="34.9518279" lon="32.8357445">
<ele>1444.33</ele>
<time>2015-04-30T08:17:56Z</time>
</trkpt>
<trkpt lat="34.9517872" lon="32.8357824">
<ele>1444.97</ele>
<time>2015-04-30T08:18:01Z</time>
</trkpt>
<trkpt lat="34.9517446" lon="32.8358047">
<ele>1446.02</ele>
<time>2015-04-30T08:18:05Z</time>
</trkpt>
<trkpt lat="34.9516994" lon="32.8358083">
<ele>1444.15</ele>
<time>2015-04-30T08:18:09Z</time>
</trkpt>
<trkpt lat="34.9516524" lon="32.8357833">
<ele>1445.72</ele>
<time>2015-04-30T08:18:13Z</time>
</trkpt>
<trkpt lat="34.9516060" lon="32.8357651">
<ele>1446.45</ele>
<time>2015-04-30T08:18:17Z</time>
</trkpt>
<trkpt lat="34.9515596" lon="32.8357458">
<ele>1447.24</ele>
<time>2015-04-30T08:18:21Z</time>
</trkpt>
<trkpt lat="34.9515070" lon="32.8357327">
<ele>1450.48</ele>
<time>2015-04-30T08:18:25Z</time>
</trkpt>
<trkpt lat="34.9514529" lon="32.8357133">
<ele>1454.05</ele>
<time>2015-04-30T08:18:29Z</time>
</trkpt>
<trkpt lat="34.9513999" lon="32.8357391">
<ele>1454.72</ele>
<time>2015-04-30T08:18:33Z</time>
</trkpt>
<trkpt lat="34.9513516" lon="32.8357600">
<ele>1455.63</ele>
<time>2015-04-30T08:18:37Z</time>
</trkpt>
<trkpt lat="34.9513065" lon="32.8357868">
<ele>1456.25</ele>
<time>2015-04-30T08:18:41Z</time>
</trkpt>
<trkpt lat="34.9512664" lon="32.8358157">
<ele>1454.98</ele>
<time>2015-04-30T08:18:45Z</time>
</trkpt>
<trkpt lat="34.9512180" lon="32.8358400">
<ele>1456.77</ele>
<time>2015-04-30T08:18:50Z</time>
</trkpt>
<trkpt lat="34.9511742" lon="32.8358799">
<ele>1458.07</ele>
<time>2015-04-30T08:18:54Z</time>
</trkpt>
<trkpt lat="34.9511340" lon="32.8359217">
<ele>1459.59</ele>
<time>2015-04-30T08:18:58Z</time>
</trkpt>
<trkpt lat="34.9510977" lon="32.8359635">
<ele>1459.94</ele>
<time>2015-04-30T08:19:02Z</time>
</trkpt>
<trkpt lat="34.9510639" lon="32.8360063">
<ele>1461.15</ele>
<time>2015-04-30T08:19:06Z</time>
</trkpt>
<trkpt lat="34.9510225" lon="32.8360516">
<ele>1460.22</ele>
<time>2015-04-30T08:19:10Z</time>
</trkpt>
<trkpt lat="34.9509792" lon="32.8360894">
<ele>1459.85</ele>
<time>2015-04-30T08:19:14Z</time>
</trkpt>
<trkpt lat="34.9509410" lon="32.8361361">
<ele>1459.89</ele>
<time>2015-04-30T08:19:18Z</time>
</trkpt>
<trkpt lat="34.9509068" lon="32.8361826">
<ele>1459.71</ele>
<time>2015-04-30T08:19:22Z</time>
</trkpt>
<trkpt lat="34.9508800" lon="32.8362426">
<ele>1459.01</ele>
<time>2015-04-30T08:19:26Z</time>
</trkpt>
<trkpt lat="34.9508546" lon="32.8362914">
<ele>1459.71</ele>
<time>2015-04-30T08:19:30Z</time>
</trkpt>
<trkpt lat="34.9508228" lon="32.8363314">
<ele>1459.26</ele>
<time>2015-04-30T08:19:34Z</time>
</trkpt>
<trkpt lat="34.9507832" lon="32.8363774">
<ele>1457.78</ele>
<time>2015-04-30T08:19:39Z</time>
</trkpt>
<trkpt lat="34.9507531" lon="32.8364337">
<ele>1460.14</ele>
<time>2015-04-30T08:19:43Z</time>
</trkpt>
<trkpt lat="34.9507062" lon="32.8364695">
<ele>1460.66</ele>
<time>2015-04-30T08:19:47Z</time>
</trkpt>
<trkpt lat="34.9506773" lon="32.8365116">
<ele>1464.00</ele>
<time>2015-04-30T08:19:50Z</time>
</trkpt>
<trkpt lat="34.9506529" lon="32.8365619">
<ele>1464.34</ele>
<time>2015-04-30T08:19:54Z</time>
</trkpt>
<trkpt lat="34.9506286" lon="32.8366093">
<ele>1463.92</ele>
<time>2015-04-30T08:19:58Z</time>
</trkpt>
<trkpt lat="34.9505962" lon="32.8366509">
<ele>1464.96</ele>
<time>2015-04-30T08:20:02Z</time>
</trkpt>
<trkpt lat="34.9505637" lon="32.8367024">
<ele>1465.64</ele>
<time>2015-04-30T08:20:07Z</time>
</trkpt>
<trkpt lat="34.9505202" lon="32.8367429">
<ele>1465.75</ele>
<time>2015-04-30T08:20:11Z</time>
</trkpt>
<trkpt lat="34.9504951" lon="32.8368052">
<ele>1466.26</ele>
<time>2015-04-30T08:20:15Z</time>
</trkpt>
<trkpt lat="34.9504788" lon="32.8368677">
<ele>1465.85</ele>
<time>2015-04-30T08:20:19Z</time>
</trkpt>
<trkpt lat="34.9504715" lon="32.8369242">
<ele>1465.77</ele>
<time>2015-04-30T08:20:23Z</time>
</trkpt>
<trkpt lat="34.9504809" lon="32.8369884">
<ele>1463.95</ele>
<time>2015-04-30T08:20:28Z</time>
</trkpt>
<trkpt lat="34.9505206" lon="32.8370226">
<ele>1467.36</ele>
<time>2015-04-30T08:20:33Z</time>
</trkpt>
<trkpt lat="34.9505653" lon="32.8370340">
<ele>1470.30</ele>
<time>2015-04-30T08:20:37Z</time>
</trkpt>
<trkpt lat="34.9506114" lon="32.8370180">
<ele>1472.92</ele>
<time>2015-04-30T08:20:41Z</time>
</trkpt>
<trkpt lat="34.9506512" lon="32.8369860">
<ele>1472.08</ele>
<time>2015-04-30T08:20:45Z</time>
</trkpt>
<trkpt lat="34.9506916" lon="32.8369584">
<ele>1472.72</ele>
<time>2015-04-30T08:20:49Z</time>
</trkpt>
<trkpt lat="34.9507327" lon="32.8369222">
<ele>1471.82</ele>
<time>2015-04-30T08:20:54Z</time>
</trkpt>
<trkpt lat="34.9507715" lon="32.8368862">
<ele>1472.45</ele>
<time>2015-04-30T08:20:59Z</time>
</trkpt>
<trkpt lat="34.9508145" lon="32.8368517">
<ele>1471.56</ele>
<time>2015-04-30T08:21:04Z</time>
</trkpt>
<trkpt lat="34.9508605" lon="32.8368139">
<ele>1474.91</ele>
<time>2015-04-30T08:21:09Z</time>
</trkpt>
<trkpt lat="34.9509089" lon="32.8367816">
<ele>1474.76</ele>
<time>2015-04-30T08:21:14Z</time>
</trkpt>
<trkpt lat="34.9509465" lon="32.8367462">
<ele>1474.01</ele>
<time>2015-04-30T08:21:18Z</time>
</trkpt>
<trkpt lat="34.9509941" lon="32.8367129">
<ele>1475.39</ele>
<time>2015-04-30T08:21:23Z</time>
</trkpt>
<trkpt lat="34.9510293" lon="32.8366636">
<ele>1477.19</ele>
<time>2015-04-30T08:21:28Z</time>
</trkpt>
<trkpt lat="34.9510663" lon="32.8366150">
<ele>1477.02</ele>
<time>2015-04-30T08:21:33Z</time>
</trkpt>
<trkpt lat="34.9510888" lon="32.8365668">
<ele>1475.28</ele>
<time>2015-04-30T08:21:37Z</time>
</trkpt>
<trkpt lat="34.9511211" lon="32.8365256">
<ele>1473.92</ele>
<time>2015-04-30T08:21:41Z</time>
</trkpt>
<trkpt lat="34.9511697" lon="32.8365050">
<ele>1472.39</ele>
<time>2015-04-30T08:21:46Z</time>
</trkpt>
<trkpt lat="34.9512269" lon="32.8365054">
<ele>1468.61</ele>
<time>2015-04-30T08:21:50Z</time>
</trkpt>
<trkpt lat="34.9512801" lon="32.8364903">
<ele>1470.25</ele>
<time>2015-04-30T08:21:54Z</time>
</trkpt>
<trkpt lat="34.9513288" lon="32.8364903">
<ele>1471.21</ele>
<time>2015-04-30T08:21:59Z</time>
</trkpt>
<trkpt lat="34.9513752" lon="32.8364893">
<ele>1474.04</ele>
<time>2015-04-30T08:22:03Z</time>
</trkpt>
<trkpt lat="34.9514286" lon="32.8364980">
<ele>1476.34</ele>
<time>2015-04-30T08:22:07Z</time>
</trkpt>
<trkpt lat="34.9514855" lon="32.8364974">
<ele>1476.23</ele>
<time>2015-04-30T08:22:11Z</time>
</trkpt>
<trkpt lat="34.9515331" lon="32.8364977">
<ele>1476.66</ele>
<time>2015-04-30T08:22:15Z</time>
</trkpt>
<trkpt lat="34.9515829" lon="32.8365089">
<ele>1477.69</ele>
<time>2015-04-30T08:22:19Z</time>
</trkpt>
<trkpt lat="34.9516361" lon="32.8365041">
<ele>1476.51</ele>
<time>2015-04-30T08:22:23Z</time>
</trkpt>
<trkpt lat="34.9516891" lon="32.8365067">
<ele>1476.24</ele>
<time>2015-04-30T08:22:27Z</time>
</trkpt>
<trkpt lat="34.9517376" lon="32.8365355">
<ele>1476.31</ele>
<time>2015-04-30T08:22:33Z</time>
</trkpt>
<trkpt lat="34.9517732" lon="32.8365756">
<ele>1475.11</ele>
<time>2015-04-30T08:22:37Z</time>
</trkpt>
<trkpt lat="34.9518181" lon="32.8366134">
<ele>1470.59</ele>
<time>2015-04-30T08:22:41Z</time>
</trkpt>
<trkpt lat="34.9518477" lon="32.8366718">
<ele>1470.31</ele>
<time>2015-04-30T08:22:45Z</time>
</trkpt>
<trkpt lat="34.9518697" lon="32.8367275">
<ele>1472.33</ele>
<time>2015-04-30T08:22:48Z</time>
</trkpt>
<trkpt lat="34.9518872" lon="32.8367801">
<ele>1470.08</ele>
<time>2015-04-30T08:22:51Z</time>
</trkpt>
<trkpt lat="34.9519131" lon="32.8368250">
<ele>1470.93</ele>
<time>2015-04-30T08:22:54Z</time>
</trkpt>
<trkpt lat="34.9519431" lon="32.8368822">
<ele>1472.96</ele>
<time>2015-04-30T08:22:58Z</time>
</trkpt>
<trkpt lat="34.9519615" lon="32.8369445">
<ele>1471.58</ele>
<time>2015-04-30T08:23:02Z</time>
</trkpt>
<trkpt lat="34.9519823" lon="32.8370110">
<ele>1470.87</ele>
<time>2015-04-30T08:23:06Z</time>
</trkpt>
<trkpt lat="34.9520037" lon="32.8370635">
<ele>1474.77</ele>
<time>2015-04-30T08:23:09Z</time>
</trkpt>
<trkpt lat="34.9520253" lon="32.8371118">
<ele>1475.76</ele>
<time>2015-04-30T08:23:12Z</time>
</trkpt>
<trkpt lat="34.9520470" lon="32.8371610">
<ele>1478.51</ele>
<time>2015-04-30T08:23:15Z</time>
</trkpt>
<trkpt lat="34.9520584" lon="32.8372249">
<ele>1480.68</ele>
<time>2015-04-30T08:23:19Z</time>
</trkpt>
<trkpt lat="34.9520484" lon="32.8372864">
<ele>1480.07</ele>
<time>2015-04-30T08:23:24Z</time>
</trkpt>
<trkpt lat="34.9520601" lon="32.8373529">
<ele>1481.33</ele>
<time>2015-04-30T08:23:29Z</time>
</trkpt>
<trkpt lat="34.9520882" lon="32.8374113">
<ele>1482.23</ele>
<time>2015-04-30T08:23:33Z</time>
</trkpt>
<trkpt lat="34.9521004" lon="32.8374670">
<ele>1483.23</ele>
<time>2015-04-30T08:23:37Z</time>
</trkpt>
<trkpt lat="34.9521327" lon="32.8375198">
<ele>1484.99</ele>
<time>2015-04-30T08:23:42Z</time>
</trkpt>
<trkpt lat="34.9521530" lon="32.8375831">
<ele>1482.61</ele>
<time>2015-04-30T08:23:47Z</time>
</trkpt>
<trkpt lat="34.9521614" lon="32.8376384">
<ele>1482.87</ele>
<time>2015-04-30T08:23:50Z</time>
</trkpt>
<trkpt lat="34.9521772" lon="32.8376991">
<ele>1480.64</ele>
<time>2015-04-30T08:23:54Z</time>
</trkpt>
<trkpt lat="34.9521758" lon="32.8377598">
<ele>1480.50</ele>
<time>2015-04-30T08:23:58Z</time>
</trkpt>
<trkpt lat="34.9521799" lon="32.8378202">
<ele>1482.81</ele>
<time>2015-04-30T08:24:02Z</time>
</trkpt>
<trkpt lat="34.9521766" lon="32.8378766">
<ele>1483.39</ele>
<time>2015-04-30T08:24:07Z</time>
</trkpt>
<trkpt lat="34.9522015" lon="32.8379311">
<ele>1485.14</ele>
<time>2015-04-30T08:24:13Z</time>
</trkpt>
<trkpt lat="34.9522099" lon="32.8379928">
<ele>1487.94</ele>
<time>2015-04-30T08:24:19Z</time>
</trkpt>
<trkpt lat="34.9522087" lon="32.8380533">
<ele>1490.67</ele>
<time>2015-04-30T08:24:24Z</time>
</trkpt>
<trkpt lat="34.9522095" lon="32.8381150">
<ele>1488.26</ele>
<time>2015-04-30T08:24:29Z</time>
</trkpt>
<trkpt lat="34.9522148" lon="32.8381821">
<ele>1485.15</ele>
<time>2015-04-30T08:24:34Z</time>
</trkpt>
<trkpt lat="34.9522155" lon="32.8382442">
<ele>1483.03</ele>
<time>2015-04-30T08:24:38Z</time>
</trkpt>
<trkpt lat="34.9522083" lon="32.8383077">
<ele>1481.53</ele>
<time>2015-04-30T08:24:42Z</time>
</trkpt>
<trkpt lat="34.9522006" lon="32.8383743">
<ele>1483.12</ele>
<time>2015-04-30T08:24:46Z</time>
</trkpt>
<trkpt lat="34.9522114" lon="32.8384421">
<ele>1487.28</ele>
<time>2015-04-30T08:24:50Z</time>
</trkpt>
<trkpt lat="34.9522199" lon="32.8385127">
<ele>1488.29</ele>
<time>2015-04-30T08:24:54Z</time>
</trkpt>
<trkpt lat="34.9522269" lon="32.8385809">
<ele>1489.92</ele>
<time>2015-04-30T08:24:58Z</time>
</trkpt>
<trkpt lat="34.9522347" lon="32.8386429">
<ele>1491.39</ele>
<time>2015-04-30T08:25:02Z</time>
</trkpt>
<trkpt lat="34.9522602" lon="32.8386912">
<ele>1491.22</ele>
<time>2015-04-30T08:25:07Z</time>
</trkpt>
<trkpt lat="34.9522597" lon="32.8387460">
<ele>1491.18</ele>
<time>2015-04-30T08:25:12Z</time>
</trkpt>
<trkpt lat="34.9522527" lon="32.8388050">
<ele>1494.94</ele>
<time>2015-04-30T08:25:15Z</time>
</trkpt>
<trkpt lat="34.9522522" lon="32.8388651">
<ele>1498.28</ele>
<time>2015-04-30T08:25:18Z</time>
</trkpt>
<trkpt lat="34.9522528" lon="32.8389230">
<ele>1500.04</ele>
<time>2015-04-30T08:25:22Z</time>
</trkpt>
<trkpt lat="34.9522451" lon="32.8389908">
<ele>1498.71</ele>
<time>2015-04-30T08:25:27Z</time>
</trkpt>
<trkpt lat="34.9522404" lon="32.8390554">
<ele>1498.57</ele>
<time>2015-04-30T08:25:31Z</time>
</trkpt>
<trkpt lat="34.9522206" lon="32.8391089">
<ele>1496.94</ele>
<time>2015-04-30T08:25:35Z</time>
</trkpt>
<trkpt lat="34.9521899" lon="32.8391555">
<ele>1497.08</ele>
<time>2015-04-30T08:25:39Z</time>
</trkpt>
<trkpt lat="34.9521866" lon="32.8392112">
<ele>1498.41</ele>
<time>2015-04-30T08:25:43Z</time>
</trkpt>
<trkpt lat="34.9521901" lon="32.8392717">
<ele>1499.49</ele>
<time>2015-04-30T08:25:47Z</time>
</trkpt>
<trkpt lat="34.9521676" lon="32.8393241">
<ele>1498.12</ele>
<time>2015-04-30T08:25:51Z</time>
</trkpt>
<trkpt lat="34.9521662" lon="32.8393897">
<ele>1496.41</ele>
<time>2015-04-30T08:25:55Z</time>
</trkpt>
<trkpt lat="34.9521652" lon="32.8394532">
<ele>1494.49</ele>
<time>2015-04-30T08:25:59Z</time>
</trkpt>
<trkpt lat="34.9521772" lon="32.8395102">
<ele>1492.87</ele>
<time>2015-04-30T08:26:03Z</time>
</trkpt>
<trkpt lat="34.9521745" lon="32.8395727">
<ele>1495.14</ele>
<time>2015-04-30T08:26:08Z</time>
</trkpt>
<trkpt lat="34.9521871" lon="32.8396422">
<ele>1498.15</ele>
<time>2015-04-30T08:26:13Z</time>
</trkpt>
<trkpt lat="34.9521974" lon="32.8397056">
<ele>1498.78</ele>
<time>2015-04-30T08:26:17Z</time>
</trkpt>
<trkpt lat="34.9522190" lon="32.8397540">
<ele>1496.64</ele>
<time>2015-04-30T08:26:20Z</time>
</trkpt>
<trkpt lat="34.9522354" lon="32.8398175">
<ele>1496.25</ele>
<time>2015-04-30T08:26:24Z</time>
</trkpt>
<trkpt lat="34.9522083" lon="32.8398754">
<ele>1495.60</ele>
<time>2015-04-30T08:26:28Z</time>
</trkpt>
<trkpt lat="34.9521786" lon="32.8399311">
<ele>1495.69</ele>
<time>2015-04-30T08:26:32Z</time>
</trkpt>
<trkpt lat="34.9521542" lon="32.8399868">
<ele>1496.76</ele>
<time>2015-04-30T08:26:36Z</time>
</trkpt>
<trkpt lat="34.9521187" lon="32.8400329">
<ele>1495.07</ele>
<time>2015-04-30T08:26:40Z</time>
</trkpt>
<trkpt lat="34.9520803" lon="32.8400694">
<ele>1495.59</ele>
<time>2015-04-30T08:26:44Z</time>
</trkpt>
<trkpt lat="34.9520515" lon="32.8401209">
<ele>1497.56</ele>
<time>2015-04-30T08:26:48Z</time>
</trkpt>
<trkpt lat="34.9520072" lon="32.8401523">
<ele>1500.06</ele>
<time>2015-04-30T08:26:52Z</time>
</trkpt>
<trkpt lat="34.9519603" lon="32.8401811">
<ele>1500.72</ele>
<time>2015-04-30T08:26:56Z</time>
</trkpt>
<trkpt lat="34.9519206" lon="32.8402129">
<ele>1497.69</ele>
<time>2015-04-30T08:27:00Z</time>
</trkpt>
<trkpt lat="34.9518756" lon="32.8402474">
<ele>1497.45</ele>
<time>2015-04-30T08:27:05Z</time>
</trkpt>
<trkpt lat="34.9518508" lon="32.8402937">
<ele>1496.28</ele>
<time>2015-04-30T08:27:10Z</time>
</trkpt>
<trkpt lat="34.9518084" lon="32.8403358">
<ele>1495.56</ele>
<time>2015-04-30T08:27:15Z</time>
</trkpt>
<trkpt lat="34.9517638" lon="32.8403493">
<ele>1496.23</ele>
<time>2015-04-30T08:27:18Z</time>
</trkpt>
<trkpt lat="34.9517151" lon="32.8403736">
<ele>1499.29</ele>
<time>2015-04-30T08:27:22Z</time>
</trkpt>
<trkpt lat="34.9516698" lon="32.8404180">
<ele>1502.23</ele>
<time>2015-04-30T08:27:26Z</time>
</trkpt>
<trkpt lat="34.9516243" lon="32.8404440">
<ele>1505.16</ele>
<time>2015-04-30T08:27:30Z</time>
</trkpt>
<trkpt lat="34.9515934" lon="32.8404865">
<ele>1506.22</ele>
<time>2015-04-30T08:27:34Z</time>
</trkpt>
<trkpt lat="34.9515626" lon="32.8405481">
<ele>1507.60</ele>
<time>2015-04-30T08:27:38Z</time>
</trkpt>
<trkpt lat="34.9515388" lon="32.8406092">
<ele>1509.38</ele>
<time>2015-04-30T08:27:42Z</time>
</trkpt>
<trkpt lat="34.9515188" lon="32.8406665">
<ele>1510.17</ele>
<time>2015-04-30T08:27:46Z</time>
</trkpt>
<trkpt lat="34.9514955" lon="32.8407206">
<ele>1511.71</ele>
<time>2015-04-30T08:27:51Z</time>
</trkpt>
<trkpt lat="34.9514936" lon="32.8407812">
<ele>1509.73</ele>
<time>2015-04-30T08:27:56Z</time>
</trkpt>
<trkpt lat="34.9515049" lon="32.8408419">
<ele>1509.20</ele>
<time>2015-04-30T08:28:01Z</time>
</trkpt>
<trkpt lat="34.9515320" lon="32.8408918">
<ele>1510.60</ele>
<time>2015-04-30T08:28:05Z</time>
</trkpt>
<trkpt lat="34.9515688" lon="32.8409432">
<ele>1510.56</ele>
<time>2015-04-30T08:28:09Z</time>
</trkpt>
<trkpt lat="34.9516048" lon="32.8409905">
<ele>1508.94</ele>
<time>2015-04-30T08:28:13Z</time>
</trkpt>
<trkpt lat="34.9516366" lon="32.8410393">
<ele>1505.33</ele>
<time>2015-04-30T08:28:17Z</time>
</trkpt>
<trkpt lat="34.9516625" lon="32.8410862">
<ele>1505.30</ele>
<time>2015-04-30T08:28:21Z</time>
</trkpt>
<trkpt lat="34.9516939" lon="32.8411417">
<ele>1506.42</ele>
<time>2015-04-30T08:28:25Z</time>
</trkpt>
<trkpt lat="34.9517351" lon="32.8411916">
<ele>1507.43</ele>
<time>2015-04-30T08:28:29Z</time>
</trkpt>
<trkpt lat="34.9517680" lon="32.8412330">
<ele>1509.55</ele>
<time>2015-04-30T08:28:33Z</time>
</trkpt>
<trkpt lat="34.9517946" lon="32.8412936">
<ele>1509.66</ele>
<time>2015-04-30T08:28:38Z</time>
</trkpt>
<trkpt lat="34.9518279" lon="32.8413420">
<ele>1508.50</ele>
<time>2015-04-30T08:28:42Z</time>
</trkpt>
<trkpt lat="34.9518588" lon="32.8413960">
<ele>1511.37</ele>
<time>2015-04-30T08:28:46Z</time>
</trkpt>
<trkpt lat="34.9518996" lon="32.8414295">
<ele>1511.61</ele>
<time>2015-04-30T08:28:50Z</time>
</trkpt>
<trkpt lat="34.9519346" lon="32.8414793">
<ele>1513.13</ele>
<time>2015-04-30T08:28:55Z</time>
</trkpt>
<trkpt lat="34.9519691" lon="32.8415257">
<ele>1515.35</ele>
<time>2015-04-30T08:28:59Z</time>
</trkpt>
<trkpt lat="34.9520016" lon="32.8415822">
<ele>1515.42</ele>
<time>2015-04-30T08:29:03Z</time>
</trkpt>
<trkpt lat="34.9520257" lon="32.8416411">
<ele>1514.72</ele>
<time>2015-04-30T08:29:06Z</time>
</trkpt>
<trkpt lat="34.9520514" lon="32.8416934">
<ele>1515.38</ele>
<time>2015-04-30T08:29:09Z</time>
</trkpt>
<trkpt lat="34.9520781" lon="32.8417386">
<ele>1514.59</ele>
<time>2015-04-30T08:29:12Z</time>
</trkpt>
<trkpt lat="34.9521114" lon="32.8417989">
<ele>1511.94</ele>
<time>2015-04-30T08:29:16Z</time>
</trkpt>
<trkpt lat="34.9521412" lon="32.8418420">
<ele>1510.66</ele>
<time>2015-04-30T08:29:19Z</time>
</trkpt>
<trkpt lat="34.9521666" lon="32.8418889">
<ele>1512.62</ele>
<time>2015-04-30T08:29:22Z</time>
</trkpt>
<trkpt lat="34.9521961" lon="32.8419483">
<ele>1514.94</ele>
<time>2015-04-30T08:29:26Z</time>
</trkpt>
<trkpt lat="34.9522235" lon="32.8420007">
<ele>1515.55</ele>
<time>2015-04-30T08:29:31Z</time>
</trkpt>
<trkpt lat="34.9522389" lon="32.8420526">
<ele>1516.56</ele>
<time>2015-04-30T08:29:35Z</time>
</trkpt>
<trkpt lat="34.9522591" lon="32.8421030">
<ele>1516.62</ele>
<time>2015-04-30T08:29:39Z</time>
</trkpt>
<trkpt lat="34.9522925" lon="32.8421549">
<ele>1515.13</ele>
<time>2015-04-30T08:29:43Z</time>
</trkpt>
<trkpt lat="34.9523159" lon="32.8422093">
<ele>1514.03</ele>
<time>2015-04-30T08:29:47Z</time>
</trkpt>
<trkpt lat="34.9523264" lon="32.8422744">
<ele>1515.92</ele>
<time>2015-04-30T08:29:52Z</time>
</trkpt>
<trkpt lat="34.9523260" lon="32.8423365">
<ele>1517.83</ele>
<time>2015-04-30T08:29:57Z</time>
</trkpt>
<trkpt lat="34.9523023" lon="32.8423959">
<ele>1517.76</ele>
<time>2015-04-30T08:30:01Z</time>
</trkpt>
<trkpt lat="34.9522790" lon="32.8424622">
<ele>1519.26</ele>
<time>2015-04-30T08:30:05Z</time>
</trkpt>
<trkpt lat="34.9522553" lon="32.8425096">
<ele>1519.57</ele>
<time>2015-04-30T08:30:08Z</time>
</trkpt>
<trkpt lat="34.9522450" lon="32.8425668">
<ele>1521.99</ele>
<time>2015-04-30T08:30:11Z</time>
</trkpt>
<trkpt lat="34.9522262" lon="32.8426171">
<ele>1522.54</ele>
<time>2015-04-30T08:30:14Z</time>
</trkpt>
<trkpt lat="34.9521968" lon="32.8426712">
<ele>1522.93</ele>
<time>2015-04-30T08:30:18Z</time>
</trkpt>
<trkpt lat="34.9521721" lon="32.8427296">
<ele>1520.58</ele>
<time>2015-04-30T08:30:22Z</time>
</trkpt>
<trkpt lat="34.9521569" lon="32.8427876">
<ele>1524.85</ele>
<time>2015-04-30T08:30:27Z</time>
</trkpt>
<trkpt lat="34.9521296" lon="32.8428315">
<ele>1528.33</ele>
<time>2015-04-30T08:30:31Z</time>
</trkpt>
<trkpt lat="34.9521060" lon="32.8428859">
<ele>1528.30</ele>
<time>2015-04-30T08:30:35Z</time>
</trkpt>
<trkpt lat="34.9520779" lon="32.8429440">
<ele>1527.79</ele>
<time>2015-04-30T08:30:39Z</time>
</trkpt>
<trkpt lat="34.9520522" lon="32.8429939">
<ele>1529.64</ele>
<time>2015-04-30T08:30:42Z</time>
</trkpt>
<trkpt lat="34.9520498" lon="32.8430526">
<ele>1530.63</ele>
<time>2015-04-30T08:30:46Z</time>
</trkpt>
<trkpt lat="34.9520171" lon="32.8430127">
<ele>1530.82</ele>
<time>2015-04-30T08:39:37Z</time>
</trkpt>
<trkpt lat="34.9519736" lon="32.8430334">
<ele>1529.83</ele>
<time>2015-04-30T08:39:41Z</time>
</trkpt>
<trkpt lat="34.9519466" lon="32.8430797">
<ele>1528.51</ele>
<time>2015-04-30T08:39:45Z</time>
</trkpt>
<trkpt lat="34.9519221" lon="32.8431280">
<ele>1526.85</ele>
<time>2015-04-30T08:39:50Z</time>
</trkpt>
<trkpt lat="34.9518787" lon="32.8431459">
<ele>1528.58</ele>
<time>2015-04-30T08:39:55Z</time>
</trkpt>
<trkpt lat="34.9518342" lon="32.8431660">
<ele>1528.10</ele>
<time>2015-04-30T08:40:01Z</time>
</trkpt>
<trkpt lat="34.9518011" lon="32.8432142">
<ele>1527.84</ele>
<time>2015-04-30T08:40:07Z</time>
</trkpt>
<trkpt lat="34.9517495" lon="32.8432306">
<ele>1530.11</ele>
<time>2015-04-30T08:40:12Z</time>
</trkpt>
<trkpt lat="34.9517065" lon="32.8432487">
<ele>1528.18</ele>
<time>2015-04-30T08:40:17Z</time>
</trkpt>
<trkpt lat="34.9516566" lon="32.8432654">
<ele>1527.52</ele>
<time>2015-04-30T08:40:23Z</time>
</trkpt>
<trkpt lat="34.9516090" lon="32.8432878">
<ele>1531.12</ele>
<time>2015-04-30T08:40:29Z</time>
</trkpt>
<trkpt lat="34.9515534" lon="32.8432792">
<ele>1530.49</ele>
<time>2015-04-30T08:40:34Z</time>
</trkpt>
<trkpt lat="34.9515059" lon="32.8432851">
<ele>1530.68</ele>
<time>2015-04-30T08:40:38Z</time>
</trkpt>
<trkpt lat="34.9514540" lon="32.8432894">
<ele>1531.51</ele>
<time>2015-04-30T08:40:42Z</time>
</trkpt>
<trkpt lat="34.9514000" lon="32.8432961">
<ele>1533.12</ele>
<time>2015-04-30T08:40:46Z</time>
</trkpt>
<trkpt lat="34.9513499" lon="32.8432984">
<ele>1532.78</ele>
<time>2015-04-30T08:40:50Z</time>
</trkpt>
<trkpt lat="34.9513042" lon="32.8433151">
<ele>1532.57</ele>
<time>2015-04-30T08:40:54Z</time>
</trkpt>
<trkpt lat="34.9512548" lon="32.8433145">
<ele>1532.44</ele>
<time>2015-04-30T08:40:58Z</time>
</trkpt>
<trkpt lat="34.9512054" lon="32.8433268">
<ele>1534.05</ele>
<time>2015-04-30T08:41:02Z</time>
</trkpt>
<trkpt lat="34.9511515" lon="32.8433260">
<ele>1533.36</ele>
<time>2015-04-30T08:41:07Z</time>
</trkpt>
<trkpt lat="34.9511009" lon="32.8433200">
<ele>1532.56</ele>
<time>2015-04-30T08:41:12Z</time>
</trkpt>
<trkpt lat="34.9510495" lon="32.8433261">
<ele>1531.19</ele>
<time>2015-04-30T08:41:16Z</time>
</trkpt>
<trkpt lat="34.9509988" lon="32.8433388">
<ele>1531.77</ele>
<time>2015-04-30T08:41:21Z</time>
</trkpt>
<trkpt lat="34.9509483" lon="32.8433534">
<ele>1533.67</ele>
<time>2015-04-30T08:41:26Z</time>
</trkpt>
<trkpt lat="34.9509034" lon="32.8433831">
<ele>1535.44</ele>
<time>2015-04-30T08:41:30Z</time>
</trkpt>
<trkpt lat="34.9508577" lon="32.8434094">
<ele>1538.49</ele>
<time>2015-04-30T08:41:34Z</time>
</trkpt>
<trkpt lat="34.9508152" lon="32.8434303">
<ele>1541.62</ele>
<time>2015-04-30T08:41:38Z</time>
</trkpt>
<trkpt lat="34.9507637" lon="32.8434463">
<ele>1542.22</ele>
<time>2015-04-30T08:41:43Z</time>
</trkpt>
<trkpt lat="34.9507154" lon="32.8434745">
<ele>1540.38</ele>
<time>2015-04-30T08:41:53Z</time>
</trkpt>
<trkpt lat="34.9506888" lon="32.8435377">
<ele>1542.05</ele>
<time>2015-04-30T08:41:57Z</time>
</trkpt>
<trkpt lat="34.9506641" lon="32.8435930">
<ele>1541.09</ele>
<time>2015-04-30T08:42:01Z</time>
</trkpt>
<trkpt lat="34.9506450" lon="32.8436539">
<ele>1543.16</ele>
<time>2015-04-30T08:42:05Z</time>
</trkpt>
<trkpt lat="34.9506360" lon="32.8437175">
<ele>1545.58</ele>
<time>2015-04-30T08:42:10Z</time>
</trkpt>
<trkpt lat="34.9506219" lon="32.8437744">
<ele>1546.12</ele>
<time>2015-04-30T08:42:14Z</time>
</trkpt>
<trkpt lat="34.9506239" lon="32.8438383">
<ele>1546.90</ele>
<time>2015-04-30T08:42:19Z</time>
</trkpt>
<trkpt lat="34.9506286" lon="32.8439051">
<ele>1538.73</ele>
<time>2015-04-30T08:42:24Z</time>
</trkpt>
<trkpt lat="34.9506346" lon="32.8439778">
<ele>1533.88</ele>
<time>2015-04-30T08:42:28Z</time>
</trkpt>
<trkpt lat="34.9506371" lon="32.8440332">
<ele>1530.15</ele>
<time>2015-04-30T08:42:31Z</time>
</trkpt>
<trkpt lat="34.9506492" lon="32.8440952">
<ele>1528.65</ele>
<time>2015-04-30T08:42:36Z</time>
</trkpt>
<trkpt lat="34.9506670" lon="32.8441514">
<ele>1530.69</ele>
<time>2015-04-30T08:42:40Z</time>
</trkpt>
<trkpt lat="34.9506946" lon="32.8442138">
<ele>1530.51</ele>
<time>2015-04-30T08:42:44Z</time>
</trkpt>
<trkpt lat="34.9507281" lon="32.8442736">
<ele>1532.56</ele>
<time>2015-04-30T08:42:48Z</time>
</trkpt>
<trkpt lat="34.9507602" lon="32.8443223">
<ele>1535.50</ele>
<time>2015-04-30T08:42:52Z</time>
</trkpt>
<trkpt lat="34.9507834" lon="32.8443777">
<ele>1535.78</ele>
<time>2015-04-30T08:42:57Z</time>
</trkpt>
<trkpt lat="34.9508033" lon="32.8444302">
<ele>1538.45</ele>
<time>2015-04-30T08:43:01Z</time>
</trkpt>
<trkpt lat="34.9508075" lon="32.8444995">
<ele>1538.53</ele>
<time>2015-04-30T08:43:08Z</time>
</trkpt>
<trkpt lat="34.9508301" lon="32.8445561">
<ele>1538.87</ele>
<time>2015-04-30T08:43:12Z</time>
</trkpt>
<trkpt lat="34.9508593" lon="32.8446018">
<ele>1538.20</ele>
<time>2015-04-30T08:43:16Z</time>
</trkpt>
<trkpt lat="34.9508910" lon="32.8446508">
<ele>1540.35</ele>
<time>2015-04-30T08:43:20Z</time>
</trkpt>
<trkpt lat="34.9509024" lon="32.8447100">
<ele>1541.42</ele>
<time>2015-04-30T08:43:24Z</time>
</trkpt>
<trkpt lat="34.9509234" lon="32.8447736">
<ele>1539.97</ele>
<time>2015-04-30T08:43:29Z</time>
</trkpt>
<trkpt lat="34.9509448" lon="32.8448327">
<ele>1539.77</ele>
<time>2015-04-30T08:43:33Z</time>
</trkpt>
<trkpt lat="34.9509685" lon="32.8448929">
<ele>1542.17</ele>
<time>2015-04-30T08:43:38Z</time>
</trkpt>
<trkpt lat="34.9509838" lon="32.8449533">
<ele>1542.77</ele>
<time>2015-04-30T08:43:43Z</time>
</trkpt>
<trkpt lat="34.9510044" lon="32.8450070">
<ele>1545.32</ele>
<time>2015-04-30T08:43:47Z</time>
</trkpt>
<trkpt lat="34.9510056" lon="32.8450686">
<ele>1543.50</ele>
<time>2015-04-30T08:43:52Z</time>
</trkpt>
<trkpt lat="34.9510162" lon="32.8451295">
<ele>1543.91</ele>
<time>2015-04-30T08:43:57Z</time>
</trkpt>
<trkpt lat="34.9510229" lon="32.8451927">
<ele>1543.33</ele>
<time>2015-04-30T08:44:02Z</time>
</trkpt>
<trkpt lat="34.9510524" lon="32.8452433">
<ele>1542.48</ele>
<time>2015-04-30T08:44:06Z</time>
</trkpt>
<trkpt lat="34.9510656" lon="32.8453048">
<ele>1544.31</ele>
<time>2015-04-30T08:44:10Z</time>
</trkpt>
<trkpt lat="34.9510694" lon="32.8453602">
<ele>1543.20</ele>
<time>2015-04-30T08:44:13Z</time>
</trkpt>
<trkpt lat="34.9510636" lon="32.8454253">
<ele>1544.57</ele>
<time>2015-04-30T08:44:16Z</time>
</trkpt>
<trkpt lat="34.9510484" lon="32.8454936">
<ele>1545.50</ele>
<time>2015-04-30T08:44:20Z</time>
</trkpt>
<trkpt lat="34.9510320" lon="32.8455523">
<ele>1547.48</ele>
<time>2015-04-30T08:44:23Z</time>
</trkpt>
<trkpt lat="34.9510181" lon="32.8456057">
<ele>1547.69</ele>
<time>2015-04-30T08:44:25Z</time>
</trkpt>
<trkpt lat="34.9509945" lon="32.8456735">
<ele>1548.50</ele>
<time>2015-04-30T08:44:28Z</time>
</trkpt>
<trkpt lat="34.9509811" lon="32.8457354">
<ele>1550.48</ele>
<time>2015-04-30T08:44:31Z</time>
</trkpt>
<trkpt lat="34.9509629" lon="32.8457897">
<ele>1554.60</ele>
<time>2015-04-30T08:44:34Z</time>
</trkpt>
<trkpt lat="34.9509419" lon="32.8458433">
<ele>1555.99</ele>
<time>2015-04-30T08:44:37Z</time>
</trkpt>
<trkpt lat="34.9509141" lon="32.8458927">
<ele>1556.54</ele>
<time>2015-04-30T08:44:40Z</time>
</trkpt>
<trkpt lat="34.9508829" lon="32.8459452">
<ele>1556.32</ele>
<time>2015-04-30T08:44:45Z</time>
</trkpt>
<trkpt lat="34.9508471" lon="32.8459917">
<ele>1558.29</ele>
<time>2015-04-30T08:44:49Z</time>
</trkpt>
<trkpt lat="34.9508089" lon="32.8460368">
<ele>1561.67</ele>
<time>2015-04-30T08:44:53Z</time>
</trkpt>
<trkpt lat="34.9507770" lon="32.8460956">
<ele>1565.07</ele>
<time>2015-04-30T08:44:57Z</time>
</trkpt>
<trkpt lat="34.9507375" lon="32.8461388">
<ele>1567.55</ele>
<time>2015-04-30T08:45:00Z</time>
</trkpt>
<trkpt lat="34.9507049" lon="32.8461908">
<ele>1567.61</ele>
<time>2015-04-30T08:45:03Z</time>
</trkpt>
<trkpt lat="34.9506744" lon="32.8462418">
<ele>1567.74</ele>
<time>2015-04-30T08:45:06Z</time>
</trkpt>
<trkpt lat="34.9506405" lon="32.8462862">
<ele>1570.70</ele>
<time>2015-04-30T08:45:10Z</time>
</trkpt>
<trkpt lat="34.9506130" lon="32.8463373">
<ele>1571.63</ele>
<time>2015-04-30T08:45:14Z</time>
</trkpt>
<trkpt lat="34.9505974" lon="32.8463968">
<ele>1571.00</ele>
<time>2015-04-30T08:45:18Z</time>
</trkpt>
<trkpt lat="34.9505658" lon="32.8464556">
<ele>1570.53</ele>
<time>2015-04-30T08:45:22Z</time>
</trkpt>
<trkpt lat="34.9505441" lon="32.8465143">
<ele>1568.12</ele>
<time>2015-04-30T08:45:26Z</time>
</trkpt>
<trkpt lat="34.9505168" lon="32.8465628">
<ele>1568.72</ele>
<time>2015-04-30T08:45:30Z</time>
</trkpt>
<trkpt lat="34.9505072" lon="32.8466235">
<ele>1570.44</ele>
<time>2015-04-30T08:45:34Z</time>
</trkpt>
<trkpt lat="34.9504899" lon="32.8466882">
<ele>1569.99</ele>
<time>2015-04-30T08:45:38Z</time>
</trkpt>
<trkpt lat="34.9504546" lon="32.8467454">
<ele>1573.71</ele>
<time>2015-04-30T08:45:42Z</time>
</trkpt>
<trkpt lat="34.9504416" lon="32.8468035">
<ele>1575.57</ele>
<time>2015-04-30T08:45:46Z</time>
</trkpt>
<trkpt lat="34.9504257" lon="32.8468629">
<ele>1577.31</ele>
<time>2015-04-30T08:45:50Z</time>
</trkpt>
<trkpt lat="34.9504020" lon="32.8469218">
<ele>1580.23</ele>
<time>2015-04-30T08:45:54Z</time>
</trkpt>
<trkpt lat="34.9503822" lon="32.8469723">
<ele>1580.57</ele>
<time>2015-04-30T08:45:57Z</time>
</trkpt>
<trkpt lat="34.9503524" lon="32.8470203">
<ele>1577.37</ele>
<time>2015-04-30T08:46:01Z</time>
</trkpt>
<trkpt lat="34.9503334" lon="32.8470768">
<ele>1576.81</ele>
<time>2015-04-30T08:46:06Z</time>
</trkpt>
<trkpt lat="34.9503253" lon="32.8471450">
<ele>1581.26</ele>
<time>2015-04-30T08:46:11Z</time>
</trkpt>
<trkpt lat="34.9503152" lon="32.8472014">
<ele>1582.85</ele>
<time>2015-04-30T08:46:15Z</time>
</trkpt>
<trkpt lat="34.9502953" lon="32.8472560">
<ele>1583.08</ele>
<time>2015-04-30T08:46:19Z</time>
</trkpt>
<trkpt lat="34.9502766" lon="32.8473225">
<ele>1584.78</ele>
<time>2015-04-30T08:46:23Z</time>
</trkpt>
<trkpt lat="34.9502604" lon="32.8473816">
<ele>1585.39</ele>
<time>2015-04-30T08:46:26Z</time>
</trkpt>
<trkpt lat="34.9502358" lon="32.8474480">
<ele>1587.34</ele>
<time>2015-04-30T08:46:29Z</time>
</trkpt>
<trkpt lat="34.9502141" lon="32.8475210">
<ele>1584.46</ele>
<time>2015-04-30T08:46:32Z</time>
</trkpt>
<trkpt lat="34.9501966" lon="32.8476005">
<ele>1583.97</ele>
<time>2015-04-30T08:46:35Z</time>
</trkpt>
<trkpt lat="34.9501832" lon="32.8476766">
<ele>1582.41</ele>
<time>2015-04-30T08:46:38Z</time>
</trkpt>
<trkpt lat="34.9501629" lon="32.8477459">
<ele>1581.84</ele>
<time>2015-04-30T08:46:41Z</time>
</trkpt>
<trkpt lat="34.9501471" lon="32.8478100">
<ele>1579.27</ele>
<time>2015-04-30T08:46:44Z</time>
</trkpt>
<trkpt lat="34.9501314" lon="32.8478683">
<ele>1579.57</ele>
<time>2015-04-30T08:46:47Z</time>
</trkpt>
<trkpt lat="34.9501023" lon="32.8479224">
<ele>1576.36</ele>
<time>2015-04-30T08:46:50Z</time>
</trkpt>
<trkpt lat="34.9500620" lon="32.8479558">
<ele>1574.61</ele>
<time>2015-04-30T08:46:54Z</time>
</trkpt>
<trkpt lat="34.9500163" lon="32.8479578">
<ele>1573.88</ele>
<time>2015-04-30T08:46:58Z</time>
</trkpt>
<trkpt lat="34.9499717" lon="32.8479472">
<ele>1572.52</ele>
<time>2015-04-30T08:47:01Z</time>
</trkpt>
<trkpt lat="34.9499244" lon="32.8479316">
<ele>1572.73</ele>
<time>2015-04-30T08:47:04Z</time>
</trkpt>
<trkpt lat="34.9498841" lon="32.8478950">
<ele>1572.76</ele>
<time>2015-04-30T08:47:07Z</time>
</trkpt>
<trkpt lat="34.9498657" lon="32.8478320">
<ele>1572.01</ele>
<time>2015-04-30T08:47:10Z</time>
</trkpt>
<trkpt lat="34.9498675" lon="32.8477628">
<ele>1571.28</ele>
<time>2015-04-30T08:47:14Z</time>
</trkpt>
<trkpt lat="34.9498818" lon="32.8477028">
<ele>1569.45</ele>
<time>2015-04-30T08:47:17Z</time>
</trkpt>
<trkpt lat="34.9498803" lon="32.8476421">
<ele>1569.35</ele>
<time>2015-04-30T08:47:20Z</time>
</trkpt>
<trkpt lat="34.9498861" lon="32.8475875">
<ele>1569.71</ele>
<time>2015-04-30T08:47:23Z</time>
</trkpt>
<trkpt lat="34.9498984" lon="32.8475171">
<ele>1570.76</ele>
<time>2015-04-30T08:47:27Z</time>
</trkpt>
<trkpt lat="34.9499094" lon="32.8474618">
<ele>1569.76</ele>
<time>2015-04-30T08:47:30Z</time>
</trkpt>
<trkpt lat="34.9499102" lon="32.8474009">
<ele>1573.01</ele>
<time>2015-04-30T08:47:34Z</time>
</trkpt>
<trkpt lat="34.9499238" lon="32.8473402">
<ele>1573.59</ele>
<time>2015-04-30T08:47:38Z</time>
</trkpt>
<trkpt lat="34.9499330" lon="32.8472826">
<ele>1575.12</ele>
<time>2015-04-30T08:47:42Z</time>
</trkpt>
<trkpt lat="34.9499164" lon="32.8472160">
<ele>1577.91</ele>
<time>2015-04-30T08:47:46Z</time>
</trkpt>
<trkpt lat="34.9498988" lon="32.8471484">
<ele>1581.46</ele>
<time>2015-04-30T08:47:50Z</time>
</trkpt>
<trkpt lat="34.9498846" lon="32.8470895">
<ele>1583.93</ele>
<time>2015-04-30T08:47:54Z</time>
</trkpt>
<trkpt lat="34.9498345" lon="32.8470587">
<ele>1586.33</ele>
<time>2015-04-30T08:47:58Z</time>
</trkpt>
<trkpt lat="34.9497913" lon="32.8470062">
<ele>1588.11</ele>
<time>2015-04-30T08:48:02Z</time>
</trkpt>
<trkpt lat="34.9497506" lon="32.8469733">
<ele>1588.30</ele>
<time>2015-04-30T08:48:05Z</time>
</trkpt>
<trkpt lat="34.9497021" lon="32.8469420">
<ele>1589.67</ele>
<time>2015-04-30T08:48:09Z</time>
</trkpt>
<trkpt lat="34.9496626" lon="32.8469029">
<ele>1590.57</ele>
<time>2015-04-30T08:48:13Z</time>
</trkpt>
<trkpt lat="34.9496253" lon="32.8468561">
<ele>1589.81</ele>
<time>2015-04-30T08:48:17Z</time>
</trkpt>
<trkpt lat="34.9495893" lon="32.8468096">
<ele>1591.14</ele>
<time>2015-04-30T08:48:21Z</time>
</trkpt>
<trkpt lat="34.9495578" lon="32.8467524">
<ele>1596.47</ele>
<time>2015-04-30T08:48:25Z</time>
</trkpt>
<trkpt lat="34.9495140" lon="32.8467115">
<ele>1597.12</ele>
<time>2015-04-30T08:48:29Z</time>
</trkpt>
<trkpt lat="34.9494829" lon="32.8466662">
<ele>1595.22</ele>
<time>2015-04-30T08:48:33Z</time>
</trkpt>
<trkpt lat="34.9494481" lon="32.8466237">
<ele>1598.04</ele>
<time>2015-04-30T08:48:37Z</time>
</trkpt>
<trkpt lat="34.9494108" lon="32.8465830">
<ele>1600.15</ele>
<time>2015-04-30T08:48:41Z</time>
</trkpt>
<trkpt lat="34.9493824" lon="32.8465343">
<ele>1600.66</ele>
<time>2015-04-30T08:48:45Z</time>
</trkpt>
<trkpt lat="34.9493322" lon="32.8465043">
<ele>1596.19</ele>
<time>2015-04-30T08:48:49Z</time>
</trkpt>
<trkpt lat="34.9492893" lon="32.8464676">
<ele>1590.54</ele>
<time>2015-04-30T08:48:53Z</time>
</trkpt>
<trkpt lat="34.9492404" lon="32.8464432">
<ele>1587.75</ele>
<time>2015-04-30T08:48:57Z</time>
</trkpt>
<trkpt lat="34.9491893" lon="32.8464424">
<ele>1584.51</ele>
<time>2015-04-30T08:49:01Z</time>
</trkpt>
<trkpt lat="34.9491383" lon="32.8464337">
<ele>1582.50</ele>
<time>2015-04-30T08:49:06Z</time>
</trkpt>
<trkpt lat="34.9490838" lon="32.8464183">
<ele>1584.44</ele>
<time>2015-04-30T08:49:11Z</time>
</trkpt>
<trkpt lat="34.9490301" lon="32.8464149">
<ele>1586.18</ele>
<time>2015-04-30T08:49:15Z</time>
</trkpt>
<trkpt lat="34.9489849" lon="32.8464023">
<ele>1585.81</ele>
<time>2015-04-30T08:49:18Z</time>
</trkpt>
<trkpt lat="34.9489277" lon="32.8463848">
<ele>1585.95</ele>
<time>2015-04-30T08:49:22Z</time>
</trkpt>
<trkpt lat="34.9488814" lon="32.8463808">
<ele>1588.53</ele>
<time>2015-04-30T08:49:25Z</time>
</trkpt>
<trkpt lat="34.9488328" lon="32.8463648">
<ele>1590.86</ele>
<time>2015-04-30T08:49:28Z</time>
</trkpt>
<trkpt lat="34.9487797" lon="32.8463589">
<ele>1592.77</ele>
<time>2015-04-30T08:49:32Z</time>
</trkpt>
<trkpt lat="34.9487306" lon="32.8463698">
<ele>1594.95</ele>
<time>2015-04-30T08:49:36Z</time>
</trkpt>
<trkpt lat="34.9486948" lon="32.8464071">
<ele>1593.83</ele>
<time>2015-04-30T08:49:40Z</time>
</trkpt>
<trkpt lat="34.9486676" lon="32.8464558">
<ele>1587.45</ele>
<time>2015-04-30T08:49:44Z</time>
</trkpt>
<trkpt lat="34.9486309" lon="32.8464907">
<ele>1588.25</ele>
<time>2015-04-30T08:49:49Z</time>
</trkpt>
<trkpt lat="34.9485975" lon="32.8465446">
<ele>1591.49</ele>
<time>2015-04-30T08:49:54Z</time>
</trkpt>
<trkpt lat="34.9485555" lon="32.8465788">
<ele>1590.18</ele>
<time>2015-04-30T08:49:58Z</time>
</trkpt>
<trkpt lat="34.9485217" lon="32.8466223">
<ele>1589.35</ele>
<time>2015-04-30T08:50:02Z</time>
</trkpt>
<trkpt lat="34.9484846" lon="32.8466563">
<ele>1592.92</ele>
<time>2015-04-30T08:50:06Z</time>
</trkpt>
<trkpt lat="34.9484418" lon="32.8466901">
<ele>1595.45</ele>
<time>2015-04-30T08:50:11Z</time>
</trkpt>
<trkpt lat="34.9484032" lon="32.8467186">
<ele>1594.49</ele>
<time>2015-04-30T08:50:15Z</time>
</trkpt>
<trkpt lat="34.9483615" lon="32.8467657">
<ele>1595.06</ele>
<time>2015-04-30T08:50:19Z</time>
</trkpt>
<trkpt lat="34.9483189" lon="32.8468107">
<ele>1594.97</ele>
<time>2015-04-30T08:50:23Z</time>
</trkpt>
<trkpt lat="34.9482734" lon="32.8468501">
<ele>1595.40</ele>
<time>2015-04-30T08:50:27Z</time>
</trkpt>
<trkpt lat="34.9482345" lon="32.8468995">
<ele>1595.36</ele>
<time>2015-04-30T08:50:31Z</time>
</trkpt>
<trkpt lat="34.9481948" lon="32.8469430">
<ele>1594.86</ele>
<time>2015-04-30T08:50:35Z</time>
</trkpt>
<trkpt lat="34.9481550" lon="32.8469876">
<ele>1593.89</ele>
<time>2015-04-30T08:50:39Z</time>
</trkpt>
<trkpt lat="34.9481134" lon="32.8470334">
<ele>1594.71</ele>
<time>2015-04-30T08:50:43Z</time>
</trkpt>
<trkpt lat="34.9480718" lon="32.8470855">
<ele>1591.69</ele>
<time>2015-04-30T08:50:47Z</time>
</trkpt>
<trkpt lat="34.9480333" lon="32.8471260">
<ele>1593.00</ele>
<time>2015-04-30T08:50:50Z</time>
</trkpt>
<trkpt lat="34.9479941" lon="32.8471668">
<ele>1594.17</ele>
<time>2015-04-30T08:50:53Z</time>
</trkpt>
<trkpt lat="34.9479528" lon="32.8472085">
<ele>1596.06</ele>
<time>2015-04-30T08:50:56Z</time>
</trkpt>
<trkpt lat="34.9479063" lon="32.8472436">
<ele>1597.15</ele>
<time>2015-04-30T08:51:00Z</time>
</trkpt>
<trkpt lat="34.9478596" lon="32.8472801">
<ele>1597.35</ele>
<time>2015-04-30T08:51:04Z</time>
</trkpt>
<trkpt lat="34.9478017" lon="32.8472945">
<ele>1599.11</ele>
<time>2015-04-30T08:51:08Z</time>
</trkpt>
<trkpt lat="34.9477482" lon="32.8473136">
<ele>1599.66</ele>
<time>2015-04-30T08:51:12Z</time>
</trkpt>
<trkpt lat="34.9476983" lon="32.8473225">
<ele>1600.57</ele>
<time>2015-04-30T08:51:16Z</time>
</trkpt>
<trkpt lat="34.9476535" lon="32.8473319">
<ele>1602.31</ele>
<time>2015-04-30T08:51:20Z</time>
</trkpt>
<trkpt lat="34.9475994" lon="32.8473318">
<ele>1602.36</ele>
<time>2015-04-30T08:51:24Z</time>
</trkpt>
<trkpt lat="34.9475419" lon="32.8473363">
<ele>1602.48</ele>
<time>2015-04-30T08:51:28Z</time>
</trkpt>
<trkpt lat="34.9474802" lon="32.8473409">
<ele>1600.98</ele>
<time>2015-04-30T08:51:31Z</time>
</trkpt>
<trkpt lat="34.9474263" lon="32.8473266">
<ele>1601.31</ele>
<time>2015-04-30T08:51:33Z</time>
</trkpt>
<trkpt lat="34.9473741" lon="32.8473027">
<ele>1603.40</ele>
<time>2015-04-30T08:51:35Z</time>
</trkpt>
<trkpt lat="34.9473244" lon="32.8472783">
<ele>1605.17</ele>
<time>2015-04-30T08:51:37Z</time>
</trkpt>
<trkpt lat="34.9472801" lon="32.8472456">
<ele>1607.11</ele>
<time>2015-04-30T08:51:39Z</time>
</trkpt>
<trkpt lat="34.9472382" lon="32.8472175">
<ele>1607.85</ele>
<time>2015-04-30T08:51:41Z</time>
</trkpt>
<trkpt lat="34.9471808" lon="32.8471875">
<ele>1609.15</ele>
<time>2015-04-30T08:51:44Z</time>
</trkpt>
<trkpt lat="34.9471441" lon="32.8471407">
<ele>1609.06</ele>
<time>2015-04-30T08:51:47Z</time>
</trkpt>
<trkpt lat="34.9470982" lon="32.8471076">
<ele>1608.90</ele>
<time>2015-04-30T08:51:51Z</time>
</trkpt>
<trkpt lat="34.9470587" lon="32.8470795">
<ele>1612.53</ele>
<time>2015-04-30T08:51:54Z</time>
</trkpt>
<trkpt lat="34.9470302" lon="32.8470257">
<ele>1615.23</ele>
<time>2015-04-30T08:51:57Z</time>
</trkpt>
<trkpt lat="34.9470108" lon="32.8469720">
<ele>1614.57</ele>
<time>2015-04-30T08:52:00Z</time>
</trkpt>
<trkpt lat="34.9469906" lon="32.8469162">
<ele>1617.99</ele>
<time>2015-04-30T08:52:03Z</time>
</trkpt>
<trkpt lat="34.9469588" lon="32.8468642">
<ele>1621.16</ele>
<time>2015-04-30T08:52:06Z</time>
</trkpt>
<trkpt lat="34.9469390" lon="32.8468077">
<ele>1622.56</ele>
<time>2015-04-30T08:52:09Z</time>
</trkpt>
<trkpt lat="34.9469206" lon="32.8467518">
<ele>1617.99</ele>
<time>2015-04-30T08:52:12Z</time>
</trkpt>
<trkpt lat="34.9468995" lon="32.8466873">
<ele>1613.40</ele>
<time>2015-04-30T08:52:16Z</time>
</trkpt>
<trkpt lat="34.9468629" lon="32.8466297">
<ele>1614.92</ele>
<time>2015-04-30T08:52:20Z</time>
</trkpt>
<trkpt lat="34.9468257" lon="32.8465855">
<ele>1615.28</ele>
<time>2015-04-30T08:52:23Z</time>
</trkpt>
<trkpt lat="34.9467808" lon="32.8465508">
<ele>1615.08</ele>
<time>2015-04-30T08:52:26Z</time>
</trkpt>
<trkpt lat="34.9467384" lon="32.8465307">
<ele>1612.84</ele>
<time>2015-04-30T08:52:30Z</time>
</trkpt>
<trkpt lat="34.9466863" lon="32.8465403">
<ele>1614.76</ele>
<time>2015-04-30T08:52:35Z</time>
</trkpt>
<trkpt lat="34.9466397" lon="32.8465625">
<ele>1614.95</ele>
<time>2015-04-30T08:52:39Z</time>
</trkpt>
<trkpt lat="34.9465969" lon="32.8465817">
<ele>1615.58</ele>
<time>2015-04-30T08:52:43Z</time>
</trkpt>
<trkpt lat="34.9465453" lon="32.8466100">
<ele>1613.62</ele>
<time>2015-04-30T08:52:47Z</time>
</trkpt>
<trkpt lat="34.9465045" lon="32.8466405">
<ele>1612.99</ele>
<time>2015-04-30T08:52:50Z</time>
</trkpt>
<trkpt lat="34.9464591" lon="32.8466798">
<ele>1613.84</ele>
<time>2015-04-30T08:52:54Z</time>
</trkpt>
<trkpt lat="34.9464230" lon="32.8467153">
<ele>1615.14</ele>
<time>2015-04-30T08:52:57Z</time>
</trkpt>
<trkpt lat="34.9463888" lon="32.8467515">
<ele>1615.18</ele>
<time>2015-04-30T08:53:00Z</time>
</trkpt>
<trkpt lat="34.9463528" lon="32.8467892">
<ele>1616.56</ele>
<time>2015-04-30T08:53:03Z</time>
</trkpt>
<trkpt lat="34.9463094" lon="32.8468325">
<ele>1618.62</ele>
<time>2015-04-30T08:53:07Z</time>
</trkpt>
<trkpt lat="34.9462716" lon="32.8468841">
<ele>1620.38</ele>
<time>2015-04-30T08:53:11Z</time>
</trkpt>
<trkpt lat="34.9462361" lon="32.8469274">
<ele>1622.24</ele>
<time>2015-04-30T08:53:15Z</time>
</trkpt>
<trkpt lat="34.9462025" lon="32.8469645">
<ele>1622.23</ele>
<time>2015-04-30T08:53:19Z</time>
</trkpt>
<trkpt lat="34.9461790" lon="32.8470122">
<ele>1622.85</ele>
<time>2015-04-30T08:53:23Z</time>
</trkpt>
<trkpt lat="34.9461445" lon="32.8470552">
<ele>1622.77</ele>
<time>2015-04-30T08:53:27Z</time>
</trkpt>
<trkpt lat="34.9461052" lon="32.8471002">
<ele>1624.32</ele>
<time>2015-04-30T08:53:31Z</time>
</trkpt>
<trkpt lat="34.9460764" lon="32.8471460">
<ele>1624.73</ele>
<time>2015-04-30T08:53:35Z</time>
</trkpt>
<trkpt lat="34.9460322" lon="32.8471891">
<ele>1623.88</ele>
<time>2015-04-30T08:53:40Z</time>
</trkpt>
<trkpt lat="34.9460004" lon="32.8472378">
<ele>1623.96</ele>
<time>2015-04-30T08:53:44Z</time>
</trkpt>
<trkpt lat="34.9459702" lon="32.8472872">
<ele>1625.15</ele>
<time>2015-04-30T08:53:48Z</time>
</trkpt>
<trkpt lat="34.9459407" lon="32.8473344">
<ele>1625.53</ele>
<time>2015-04-30T08:53:52Z</time>
</trkpt>
<trkpt lat="34.9458999" lon="32.8473828">
<ele>1626.50</ele>
<time>2015-04-30T08:53:56Z</time>
</trkpt>
<trkpt lat="34.9458576" lon="32.8474107">
<ele>1624.49</ele>
<time>2015-04-30T08:54:00Z</time>
</trkpt>
<trkpt lat="34.9458135" lon="32.8474254">
<ele>1624.68</ele>
<time>2015-04-30T08:54:04Z</time>
</trkpt>
<trkpt lat="34.9457573" lon="32.8474446">
<ele>1626.10</ele>
<time>2015-04-30T08:54:12Z</time>
</trkpt>
<trkpt lat="34.9457162" lon="32.8474728">
<ele>1624.54</ele>
<time>2015-04-30T08:54:19Z</time>
</trkpt>
<trkpt lat="34.9456671" lon="32.8474724">
<ele>1621.41</ele>
<time>2015-04-30T08:54:24Z</time>
</trkpt>
<trkpt lat="34.9456101" lon="32.8474742">
<ele>1621.55</ele>
<time>2015-04-30T08:54:28Z</time>
</trkpt>
<trkpt lat="34.9455513" lon="32.8474651">
<ele>1623.18</ele>
<time>2015-04-30T08:54:32Z</time>
</trkpt>
<trkpt lat="34.9454965" lon="32.8474564">
<ele>1624.79</ele>
<time>2015-04-30T08:54:36Z</time>
</trkpt>
<trkpt lat="34.9454412" lon="32.8474460">
<ele>1624.32</ele>
<time>2015-04-30T08:54:40Z</time>
</trkpt>
<trkpt lat="34.9453869" lon="32.8474423">
<ele>1620.55</ele>
<time>2015-04-30T08:54:44Z</time>
</trkpt>
<trkpt lat="34.9453387" lon="32.8474441">
<ele>1619.06</ele>
<time>2015-04-30T08:54:48Z</time>
</trkpt>
<trkpt lat="34.9452896" lon="32.8474306">
<ele>1619.72</ele>
<time>2015-04-30T08:54:52Z</time>
</trkpt>
<trkpt lat="34.9452402" lon="32.8474207">
<ele>1617.51</ele>
<time>2015-04-30T08:54:56Z</time>
</trkpt>
<trkpt lat="34.9451905" lon="32.8474104">
<ele>1618.62</ele>
<time>2015-04-30T08:55:00Z</time>
</trkpt>
<trkpt lat="34.9451410" lon="32.8474161">
<ele>1619.44</ele>
<time>2015-04-30T08:55:04Z</time>
</trkpt>
<trkpt lat="34.9450866" lon="32.8474120">
<ele>1622.44</ele>
<time>2015-04-30T08:55:09Z</time>
</trkpt>
<trkpt lat="34.9450406" lon="32.8474145">
<ele>1624.05</ele>
<time>2015-04-30T08:55:13Z</time>
</trkpt>
<trkpt lat="34.9449942" lon="32.8474128">
<ele>1623.84</ele>
<time>2015-04-30T08:55:17Z</time>
</trkpt>
<trkpt lat="34.9449478" lon="32.8474093">
<ele>1625.83</ele>
<time>2015-04-30T08:55:21Z</time>
</trkpt>
<trkpt lat="34.9449016" lon="32.8474029">
<ele>1625.64</ele>
<time>2015-04-30T08:55:25Z</time>
</trkpt>
<trkpt lat="34.9448521" lon="32.8473885">
<ele>1625.88</ele>
<time>2015-04-30T08:55:31Z</time>
</trkpt>
<trkpt lat="34.9448066" lon="32.8473695">
<ele>1626.73</ele>
<time>2015-04-30T08:55:36Z</time>
</trkpt>
<trkpt lat="34.9447586" lon="32.8473683">
<ele>1626.51</ele>
<time>2015-04-30T08:55:40Z</time>
</trkpt>
<trkpt lat="34.9447060" lon="32.8473678">
<ele>1628.56</ele>
<time>2015-04-30T08:55:45Z</time>
</trkpt>
<trkpt lat="34.9446582" lon="32.8473571">
<ele>1627.82</ele>
<time>2015-04-30T08:55:50Z</time>
</trkpt>
<trkpt lat="34.9446073" lon="32.8473541">
<ele>1628.01</ele>
<time>2015-04-30T08:55:55Z</time>
</trkpt>
<trkpt lat="34.9445603" lon="32.8473409">
<ele>1629.86</ele>
<time>2015-04-30T08:56:00Z</time>
</trkpt>
<trkpt lat="34.9445117" lon="32.8473194">
<ele>1632.36</ele>
<time>2015-04-30T08:56:05Z</time>
</trkpt>
<trkpt lat="34.9444592" lon="32.8472942">
<ele>1635.09</ele>
<time>2015-04-30T08:56:10Z</time>
</trkpt>
<trkpt lat="34.9444132" lon="32.8472740">
<ele>1636.22</ele>
<time>2015-04-30T08:56:14Z</time>
</trkpt>
<trkpt lat="34.9443641" lon="32.8472532">
<ele>1637.23</ele>
<time>2015-04-30T08:56:18Z</time>
</trkpt>
<trkpt lat="34.9443147" lon="32.8472358">
<ele>1639.35</ele>
<time>2015-04-30T08:56:22Z</time>
</trkpt>
<trkpt lat="34.9442745" lon="32.8472023">
<ele>1637.18</ele>
<time>2015-04-30T08:56:27Z</time>
</trkpt>
<trkpt lat="34.9442303" lon="32.8471867">
<ele>1637.52</ele>
<time>2015-04-30T08:56:32Z</time>
</trkpt>
<trkpt lat="34.9441819" lon="32.8471873">
<ele>1638.22</ele>
<time>2015-04-30T08:56:37Z</time>
</trkpt>
<trkpt lat="34.9441366" lon="32.8471888">
<ele>1639.84</ele>
<time>2015-04-30T08:56:42Z</time>
</trkpt>
<trkpt lat="34.9440845" lon="32.8471903">
<ele>1645.65</ele>
<time>2015-04-30T08:56:48Z</time>
</trkpt>
<trkpt lat="34.9440398" lon="32.8472050">
<ele>1646.54</ele>
<time>2015-04-30T08:56:53Z</time>
</trkpt>
<trkpt lat="34.9439995" lon="32.8472431">
<ele>1638.58</ele>
<time>2015-04-30T08:57:12Z</time>
</trkpt>
<trkpt lat="34.9439594" lon="32.8472686">
<ele>1637.78</ele>
<time>2015-04-30T08:58:39Z</time>
</trkpt>
<trkpt lat="34.9439311" lon="32.8473190">
<ele>1644.86</ele>
<time>2015-04-30T09:06:45Z</time>
</trkpt>
<trkpt lat="34.9438953" lon="32.8473552">
<ele>1646.83</ele>
<time>2015-04-30T09:06:50Z</time>
</trkpt>
<trkpt lat="34.9438594" lon="32.8473963">
<ele>1647.73</ele>
<time>2015-04-30T09:06:55Z</time>
</trkpt>
<trkpt lat="34.9438164" lon="32.8474241">
<ele>1647.20</ele>
<time>2015-04-30T09:06:59Z</time>
</trkpt>
<trkpt lat="34.9437685" lon="32.8474559">
<ele>1649.46</ele>
<time>2015-04-30T09:07:04Z</time>
</trkpt>
<trkpt lat="34.9437272" lon="32.8474895">
<ele>1651.25</ele>
<time>2015-04-30T09:07:09Z</time>
</trkpt>
<trkpt lat="34.9436805" lon="32.8475172">
<ele>1651.90</ele>
<time>2015-04-30T09:07:14Z</time>
</trkpt>
<trkpt lat="34.9436375" lon="32.8475547">
<ele>1651.76</ele>
<time>2015-04-30T09:07:19Z</time>
</trkpt>
<trkpt lat="34.9435960" lon="32.8475875">
<ele>1652.26</ele>
<time>2015-04-30T09:07:23Z</time>
</trkpt>
<trkpt lat="34.9435503" lon="32.8476231">
<ele>1653.48</ele>
<time>2015-04-30T09:07:27Z</time>
</trkpt>
<trkpt lat="34.9435064" lon="32.8476547">
<ele>1654.24</ele>
<time>2015-04-30T09:07:31Z</time>
</trkpt>
<trkpt lat="34.9434611" lon="32.8476811">
<ele>1655.17</ele>
<time>2015-04-30T09:07:35Z</time>
</trkpt>
<trkpt lat="34.9434171" lon="32.8477039">
<ele>1654.04</ele>
<time>2015-04-30T09:07:39Z</time>
</trkpt>
<trkpt lat="34.9433752" lon="32.8477379">
<ele>1655.15</ele>
<time>2015-04-30T09:07:43Z</time>
</trkpt>
<trkpt lat="34.9433293" lon="32.8477706">
<ele>1654.78</ele>
<time>2015-04-30T09:07:47Z</time>
</trkpt>
<trkpt lat="34.9432836" lon="32.8478107">
<ele>1655.51</ele>
<time>2015-04-30T09:07:52Z</time>
</trkpt>
<trkpt lat="34.9432450" lon="32.8478564">
<ele>1656.25</ele>
<time>2015-04-30T09:07:57Z</time>
</trkpt>
<trkpt lat="34.9432000" lon="32.8478912">
<ele>1655.87</ele>
<time>2015-04-30T09:08:02Z</time>
</trkpt>
<trkpt lat="34.9431639" lon="32.8479352">
<ele>1656.70</ele>
<time>2015-04-30T09:08:07Z</time>
</trkpt>
<trkpt lat="34.9431314" lon="32.8479813">
<ele>1658.38</ele>
<time>2015-04-30T09:08:12Z</time>
</trkpt>
<trkpt lat="34.9430963" lon="32.8480264">
<ele>1659.44</ele>
<time>2015-04-30T09:08:17Z</time>
</trkpt>
<trkpt lat="34.9430651" lon="32.8480786">
<ele>1659.47</ele>
<time>2015-04-30T09:08:22Z</time>
</trkpt>
<trkpt lat="34.9430372" lon="32.8481348">
<ele>1657.53</ele>
<time>2015-04-30T09:08:27Z</time>
</trkpt>
<trkpt lat="34.9430172" lon="32.8481840">
<ele>1658.50</ele>
<time>2015-04-30T09:08:31Z</time>
</trkpt>
<trkpt lat="34.9429905" lon="32.8482325">
<ele>1659.99</ele>
<time>2015-04-30T09:08:35Z</time>
</trkpt>
<trkpt lat="34.9429527" lon="32.8482764">
<ele>1660.52</ele>
<time>2015-04-30T09:08:40Z</time>
</trkpt>
<trkpt lat="34.9429249" lon="32.8483276">
<ele>1661.25</ele>
<time>2015-04-30T09:08:45Z</time>
</trkpt>
<trkpt lat="34.9428971" lon="32.8483767">
<ele>1661.73</ele>
<time>2015-04-30T09:08:49Z</time>
</trkpt>
<trkpt lat="34.9428670" lon="32.8484225">
<ele>1660.82</ele>
<time>2015-04-30T09:08:53Z</time>
</trkpt>
<trkpt lat="34.9428438" lon="32.8484697">
<ele>1660.51</ele>
<time>2015-04-30T09:08:58Z</time>
</trkpt>
<trkpt lat="34.9428172" lon="32.8485224">
<ele>1659.81</ele>
<time>2015-04-30T09:09:03Z</time>
</trkpt>
<trkpt lat="34.9427843" lon="32.8485680">
<ele>1660.76</ele>
<time>2015-04-30T09:09:08Z</time>
</trkpt>
<trkpt lat="34.9427616" lon="32.8486211">
<ele>1661.73</ele>
<time>2015-04-30T09:09:13Z</time>
</trkpt>
<trkpt lat="34.9427280" lon="32.8486685">
<ele>1663.60</ele>
<time>2015-04-30T09:09:18Z</time>
</trkpt>
<trkpt lat="34.9426953" lon="32.8487225">
<ele>1664.26</ele>
<time>2015-04-30T09:09:23Z</time>
</trkpt>
<trkpt lat="34.9426700" lon="32.8487776">
<ele>1665.17</ele>
<time>2015-04-30T09:09:27Z</time>
</trkpt>
<trkpt lat="34.9426405" lon="32.8488316">
<ele>1665.22</ele>
<time>2015-04-30T09:09:31Z</time>
</trkpt>
<trkpt lat="34.9426062" lon="32.8488810">
<ele>1665.66</ele>
<time>2015-04-30T09:09:35Z</time>
</trkpt>
<trkpt lat="34.9425806" lon="32.8489270">
<ele>1666.00</ele>
<time>2015-04-30T09:09:39Z</time>
</trkpt>
<trkpt lat="34.9425602" lon="32.8489761">
<ele>1665.78</ele>
<time>2015-04-30T09:09:43Z</time>
</trkpt>
<trkpt lat="34.9425437" lon="32.8490375">
<ele>1666.20</ele>
<time>2015-04-30T09:09:48Z</time>
</trkpt>
<trkpt lat="34.9425391" lon="32.8491018">
<ele>1666.52</ele>
<time>2015-04-30T09:09:53Z</time>
</trkpt>
<trkpt lat="34.9425529" lon="32.8491656">
<ele>1667.63</ele>
<time>2015-04-30T09:09:58Z</time>
</trkpt>
<trkpt lat="34.9425638" lon="32.8492236">
<ele>1668.75</ele>
<time>2015-04-30T09:10:02Z</time>
</trkpt>
<trkpt lat="34.9425780" lon="32.8492811">
<ele>1668.32</ele>
<time>2015-04-30T09:10:06Z</time>
</trkpt>
<trkpt lat="34.9425883" lon="32.8493388">
<ele>1669.55</ele>
<time>2015-04-30T09:10:10Z</time>
</trkpt>
<trkpt lat="34.9426092" lon="32.8493940">
<ele>1671.12</ele>
<time>2015-04-30T09:10:14Z</time>
</trkpt>
<trkpt lat="34.9426374" lon="32.8494508">
<ele>1670.86</ele>
<time>2015-04-30T09:10:19Z</time>
</trkpt>
<trkpt lat="34.9426557" lon="32.8495045">
<ele>1670.33</ele>
<time>2015-04-30T09:10:23Z</time>
</trkpt>
<trkpt lat="34.9426831" lon="32.8495564">
<ele>1672.17</ele>
<time>2015-04-30T09:10:27Z</time>
</trkpt>
<trkpt lat="34.9427159" lon="32.8496003">
<ele>1673.60</ele>
<time>2015-04-30T09:10:31Z</time>
</trkpt>
<trkpt lat="34.9427545" lon="32.8496375">
<ele>1673.56</ele>
<time>2015-04-30T09:10:35Z</time>
</trkpt>
<trkpt lat="34.9427872" lon="32.8496819">
<ele>1674.50</ele>
<time>2015-04-30T09:10:39Z</time>
</trkpt>
<trkpt lat="34.9428296" lon="32.8497056">
<ele>1673.87</ele>
<time>2015-04-30T09:10:43Z</time>
</trkpt>
<trkpt lat="34.9428663" lon="32.8497377">
<ele>1672.89</ele>
<time>2015-04-30T09:10:47Z</time>
</trkpt>
<trkpt lat="34.9429054" lon="32.8497758">
<ele>1671.58</ele>
<time>2015-04-30T09:10:51Z</time>
</trkpt>
<trkpt lat="34.9429466" lon="32.8498102">
<ele>1671.75</ele>
<time>2015-04-30T09:10:55Z</time>
</trkpt>
<trkpt lat="34.9429800" lon="32.8498518">
<ele>1672.63</ele>
<time>2015-04-30T09:10:59Z</time>
</trkpt>
<trkpt lat="34.9430086" lon="32.8499020">
<ele>1672.69</ele>
<time>2015-04-30T09:11:03Z</time>
</trkpt>
<trkpt lat="34.9430347" lon="32.8499545">
<ele>1675.13</ele>
<time>2015-04-30T09:11:07Z</time>
</trkpt>
<trkpt lat="34.9430545" lon="32.8500087">
<ele>1677.28</ele>
<time>2015-04-30T09:11:11Z</time>
</trkpt>
<trkpt lat="34.9430722" lon="32.8500717">
<ele>1678.61</ele>
<time>2015-04-30T09:11:15Z</time>
</trkpt>
<trkpt lat="34.9430702" lon="32.8501390">
<ele>1678.00</ele>
<time>2015-04-30T09:11:19Z</time>
</trkpt>
<trkpt lat="34.9430773" lon="32.8501947">
<ele>1677.40</ele>
<time>2015-04-30T09:11:23Z</time>
</trkpt>
<trkpt lat="34.9430722" lon="32.8502568">
<ele>1677.11</ele>
<time>2015-04-30T09:11:27Z</time>
</trkpt>
<trkpt lat="34.9430674" lon="32.8503249">
<ele>1678.97</ele>
<time>2015-04-30T09:11:31Z</time>
</trkpt>
<trkpt lat="34.9430629" lon="32.8503819">
<ele>1680.04</ele>
<time>2015-04-30T09:11:34Z</time>
</trkpt>
<trkpt lat="34.9430575" lon="32.8504380">
<ele>1681.21</ele>
<time>2015-04-30T09:11:38Z</time>
</trkpt>
<trkpt lat="34.9430359" lon="32.8504977">
<ele>1682.62</ele>
<time>2015-04-30T09:11:43Z</time>
</trkpt>
<trkpt lat="34.9430284" lon="32.8505610">
<ele>1683.41</ele>
<time>2015-04-30T09:11:48Z</time>
</trkpt>
<trkpt lat="34.9430226" lon="32.8506216">
<ele>1684.19</ele>
<time>2015-04-30T09:11:53Z</time>
</trkpt>
<trkpt lat="34.9430157" lon="32.8506904">
<ele>1681.54</ele>
<time>2015-04-30T09:11:57Z</time>
</trkpt>
<trkpt lat="34.9430151" lon="32.8507635">
<ele>1683.37</ele>
<time>2015-04-30T09:12:01Z</time>
</trkpt>
<trkpt lat="34.9430209" lon="32.8508301">
<ele>1683.86</ele>
<time>2015-04-30T09:12:05Z</time>
</trkpt>
<trkpt lat="34.9430297" lon="32.8508912">
<ele>1683.64</ele>
<time>2015-04-30T09:12:09Z</time>
</trkpt>
<trkpt lat="34.9430460" lon="32.8509503">
<ele>1684.57</ele>
<time>2015-04-30T09:12:13Z</time>
</trkpt>
<trkpt lat="34.9430541" lon="32.8510134">
<ele>1684.75</ele>
<time>2015-04-30T09:12:17Z</time>
</trkpt>
<trkpt lat="34.9430672" lon="32.8510693">
<ele>1685.95</ele>
<time>2015-04-30T09:12:21Z</time>
</trkpt>
<trkpt lat="34.9430803" lon="32.8511234">
<ele>1687.08</ele>
<time>2015-04-30T09:12:25Z</time>
</trkpt>
<trkpt lat="34.9431011" lon="32.8511801">
<ele>1686.78</ele>
<time>2015-04-30T09:12:29Z</time>
</trkpt>
<trkpt lat="34.9431208" lon="32.8512343">
<ele>1684.64</ele>
<time>2015-04-30T09:12:33Z</time>
</trkpt>
<trkpt lat="34.9431333" lon="32.8512883">
<ele>1684.06</ele>
<time>2015-04-30T09:12:37Z</time>
</trkpt>
<trkpt lat="34.9431587" lon="32.8513478">
<ele>1686.61</ele>
<time>2015-04-30T09:12:42Z</time>
</trkpt>
<trkpt lat="34.9431738" lon="32.8514004">
<ele>1686.38</ele>
<time>2015-04-30T09:12:46Z</time>
</trkpt>
<trkpt lat="34.9431957" lon="32.8514551">
<ele>1688.55</ele>
<time>2015-04-30T09:12:50Z</time>
</trkpt>
<trkpt lat="34.9432192" lon="32.8515121">
<ele>1687.56</ele>
<time>2015-04-30T09:12:54Z</time>
</trkpt>
<trkpt lat="34.9432426" lon="32.8515623">
<ele>1686.87</ele>
<time>2015-04-30T09:12:58Z</time>
</trkpt>
<trkpt lat="34.9432745" lon="32.8516121">
<ele>1686.76</ele>
<time>2015-04-30T09:13:03Z</time>
</trkpt>
<trkpt lat="34.9432938" lon="32.8516654">
<ele>1688.32</ele>
<time>2015-04-30T09:13:07Z</time>
</trkpt>
<trkpt lat="34.9433114" lon="32.8517249">
<ele>1687.80</ele>
<time>2015-04-30T09:13:11Z</time>
</trkpt>
<trkpt lat="34.9433276" lon="32.8517860">
<ele>1686.89</ele>
<time>2015-04-30T09:13:15Z</time>
</trkpt>
<trkpt lat="34.9433571" lon="32.8518405">
<ele>1686.77</ele>
<time>2015-04-30T09:13:19Z</time>
</trkpt>
<trkpt lat="34.9433890" lon="32.8518913">
<ele>1689.07</ele>
<time>2015-04-30T09:13:23Z</time>
</trkpt>
<trkpt lat="34.9434150" lon="32.8519374">
<ele>1691.34</ele>
<time>2015-04-30T09:13:27Z</time>
</trkpt>
<trkpt lat="34.9434248" lon="32.8519940">
<ele>1692.23</ele>
<time>2015-04-30T09:13:31Z</time>
</trkpt>
<trkpt lat="34.9434593" lon="32.8520330">
<ele>1692.98</ele>
<time>2015-04-30T09:13:35Z</time>
</trkpt>
<trkpt lat="34.9434869" lon="32.8520878">
<ele>1693.24</ele>
<time>2015-04-30T09:13:40Z</time>
</trkpt>
<trkpt lat="34.9435158" lon="32.8521466">
<ele>1691.99</ele>
<time>2015-04-30T09:13:45Z</time>
</trkpt>
<trkpt lat="34.9435462" lon="32.8521941">
<ele>1690.77</ele>
<time>2015-04-30T09:13:49Z</time>
</trkpt>
<trkpt lat="34.9435681" lon="32.8522476">
<ele>1691.01</ele>
<time>2015-04-30T09:13:53Z</time>
</trkpt>
<trkpt lat="34.9435798" lon="32.8523021">
<ele>1689.84</ele>
<time>2015-04-30T09:13:57Z</time>
</trkpt>
<trkpt lat="34.9435984" lon="32.8523532">
<ele>1689.70</ele>
<time>2015-04-30T09:14:01Z</time>
</trkpt>
<trkpt lat="34.9436218" lon="32.8524047">
<ele>1690.26</ele>
<time>2015-04-30T09:14:05Z</time>
</trkpt>
<trkpt lat="34.9436502" lon="32.8524579">
<ele>1690.81</ele>
<time>2015-04-30T09:14:10Z</time>
</trkpt>
<trkpt lat="34.9436712" lon="32.8525138">
<ele>1689.57</ele>
<time>2015-04-30T09:14:15Z</time>
</trkpt>
<trkpt lat="34.9437022" lon="32.8525687">
<ele>1692.07</ele>
<time>2015-04-30T09:14:20Z</time>
</trkpt>
<trkpt lat="34.9437348" lon="32.8526239">
<ele>1691.02</ele>
<time>2015-04-30T09:14:25Z</time>
</trkpt>
<trkpt lat="34.9437512" lon="32.8526780">
<ele>1691.71</ele>
<time>2015-04-30T09:14:29Z</time>
</trkpt>
<trkpt lat="34.9437861" lon="32.8527316">
<ele>1692.45</ele>
<time>2015-04-30T09:14:34Z</time>
</trkpt>
<trkpt lat="34.9438078" lon="32.8527845">
<ele>1695.12</ele>
<time>2015-04-30T09:14:38Z</time>
</trkpt>
<trkpt lat="34.9438281" lon="32.8528373">
<ele>1695.47</ele>
<time>2015-04-30T09:14:42Z</time>
</trkpt>
<trkpt lat="34.9438514" lon="32.8528982">
<ele>1695.75</ele>
<time>2015-04-30T09:14:47Z</time>
</trkpt>
<trkpt lat="34.9438474" lon="32.8529607">
<ele>1696.63</ele>
<time>2015-04-30T09:14:52Z</time>
</trkpt>
<trkpt lat="34.9438821" lon="32.8529962">
<ele>1696.75</ele>
<time>2015-04-30T09:14:56Z</time>
</trkpt>
<trkpt lat="34.9439204" lon="32.8530400">
<ele>1699.01</ele>
<time>2015-04-30T09:15:00Z</time>
</trkpt>
<trkpt lat="34.9439494" lon="32.8530934">
<ele>1700.65</ele>
<time>2015-04-30T09:15:04Z</time>
</trkpt>
<trkpt lat="34.9439641" lon="32.8531514">
<ele>1700.75</ele>
<time>2015-04-30T09:15:08Z</time>
</trkpt>
<trkpt lat="34.9439988" lon="32.8532019">
<ele>1702.20</ele>
<time>2015-04-30T09:15:13Z</time>
</trkpt>
<trkpt lat="34.9440375" lon="32.8532435">
<ele>1703.66</ele>
<time>2015-04-30T09:15:17Z</time>
</trkpt>
<trkpt lat="34.9440741" lon="32.8532862">
<ele>1703.69</ele>
<time>2015-04-30T09:15:21Z</time>
</trkpt>
<trkpt lat="34.9441083" lon="32.8533297">
<ele>1703.01</ele>
<time>2015-04-30T09:15:25Z</time>
</trkpt>
<trkpt lat="34.9441517" lon="32.8533715">
<ele>1704.03</ele>
<time>2015-04-30T09:15:29Z</time>
</trkpt>
<trkpt lat="34.9441978" lon="32.8534065">
<ele>1703.09</ele>
<time>2015-04-30T09:15:33Z</time>
</trkpt>
<trkpt lat="34.9442417" lon="32.8534507">
<ele>1704.97</ele>
<time>2015-04-30T09:15:37Z</time>
</trkpt>
<trkpt lat="34.9442744" lon="32.8535007">
<ele>1705.59</ele>
<time>2015-04-30T09:15:41Z</time>
</trkpt>
<trkpt lat="34.9443180" lon="32.8535348">
<ele>1707.44</ele>
<time>2015-04-30T09:15:45Z</time>
</trkpt>
<trkpt lat="34.9443530" lon="32.8535708">
<ele>1707.61</ele>
<time>2015-04-30T09:15:49Z</time>
</trkpt>
<trkpt lat="34.9443924" lon="32.8536009">
<ele>1706.57</ele>
<time>2015-04-30T09:15:54Z</time>
</trkpt>
<trkpt lat="34.9444345" lon="32.8536387">
<ele>1708.88</ele>
<time>2015-04-30T09:15:59Z</time>
</trkpt>
<trkpt lat="34.9444750" lon="32.8536678">
<ele>1707.89</ele>
<time>2015-04-30T09:16:03Z</time>
</trkpt>
<trkpt lat="34.9445270" lon="32.8536936">
<ele>1707.67</ele>
<time>2015-04-30T09:16:08Z</time>
</trkpt>
<trkpt lat="34.9445691" lon="32.8537352">
<ele>1711.07</ele>
<time>2015-04-30T09:16:13Z</time>
</trkpt>
<trkpt lat="34.9446120" lon="32.8537796">
<ele>1714.30</ele>
<time>2015-04-30T09:16:18Z</time>
</trkpt>
<trkpt lat="34.9446522" lon="32.8538131">
<ele>1714.48</ele>
<time>2015-04-30T09:16:22Z</time>
</trkpt>
<trkpt lat="34.9446820" lon="32.8538579">
<ele>1715.24</ele>
<time>2015-04-30T09:16:26Z</time>
</trkpt>
<trkpt lat="34.9447167" lon="32.8538937">
<ele>1716.10</ele>
<time>2015-04-30T09:16:30Z</time>
</trkpt>
<trkpt lat="34.9447498" lon="32.8539362">
<ele>1714.03</ele>
<time>2015-04-30T09:16:34Z</time>
</trkpt>
<trkpt lat="34.9447814" lon="32.8539870">
<ele>1713.59</ele>
<time>2015-04-30T09:16:38Z</time>
</trkpt>
<trkpt lat="34.9448192" lon="32.8540328">
<ele>1714.25</ele>
<time>2015-04-30T09:16:42Z</time>
</trkpt>
<trkpt lat="34.9448513" lon="32.8540812">
<ele>1713.60</ele>
<time>2015-04-30T09:16:46Z</time>
</trkpt>
<trkpt lat="34.9448794" lon="32.8541302">
<ele>1713.00</ele>
<time>2015-04-30T09:16:50Z</time>
</trkpt>
<trkpt lat="34.9448962" lon="32.8541867">
<ele>1712.59</ele>
<time>2015-04-30T09:16:54Z</time>
</trkpt>
<trkpt lat="34.9449220" lon="32.8542392">
<ele>1713.44</ele>
<time>2015-04-30T09:16:58Z</time>
</trkpt>
<trkpt lat="34.9449528" lon="32.8542825">
<ele>1713.74</ele>
<time>2015-04-30T09:17:02Z</time>
</trkpt>
<trkpt lat="34.9449878" lon="32.8543194">
<ele>1713.26</ele>
<time>2015-04-30T09:17:06Z</time>
</trkpt>
<trkpt lat="34.9450149" lon="32.8543711">
<ele>1714.10</ele>
<time>2015-04-30T09:17:10Z</time>
</trkpt>
<trkpt lat="34.9450523" lon="32.8544234">
<ele>1714.22</ele>
<time>2015-04-30T09:17:14Z</time>
</trkpt>
<trkpt lat="34.9450844" lon="32.8544624">
<ele>1714.69</ele>
<time>2015-04-30T09:17:17Z</time>
</trkpt>
<trkpt lat="34.9451094" lon="32.8545163">
<ele>1713.38</ele>
<time>2015-04-30T09:17:20Z</time>
</trkpt>
<trkpt lat="34.9451364" lon="32.8545757">
<ele>1713.34</ele>
<time>2015-04-30T09:17:23Z</time>
</trkpt>
<trkpt lat="34.9451601" lon="32.8546334">
<ele>1713.33</ele>
<time>2015-04-30T09:17:26Z</time>
</trkpt>
<trkpt lat="34.9451668" lon="32.8546901">
<ele>1715.33</ele>
<time>2015-04-30T09:17:29Z</time>
</trkpt>
<trkpt lat="34.9451342" lon="32.8547451">
<ele>1715.98</ele>
<time>2015-04-30T09:17:33Z</time>
</trkpt>
<trkpt lat="34.9451588" lon="32.8548039">
<ele>1717.40</ele>
<time>2015-04-30T09:17:37Z</time>
</trkpt>
<trkpt lat="34.9451569" lon="32.8548701">
<ele>1717.30</ele>
<time>2015-04-30T09:17:41Z</time>
</trkpt>
<trkpt lat="34.9451132" lon="32.8549171">
<ele>1717.73</ele>
<time>2015-04-30T09:17:45Z</time>
</trkpt>
<trkpt lat="34.9450723" lon="32.8549537">
<ele>1717.38</ele>
<time>2015-04-30T09:17:49Z</time>
</trkpt>
<trkpt lat="34.9450259" lon="32.8549630">
<ele>1718.24</ele>
<time>2015-04-30T09:17:53Z</time>
</trkpt>
<trkpt lat="34.9449832" lon="32.8550044">
<ele>1719.70</ele>
<time>2015-04-30T09:18:02Z</time>
</trkpt>
<trkpt lat="34.9449322" lon="32.8550077">
<ele>1719.26</ele>
<time>2015-04-30T09:18:06Z</time>
</trkpt>
<trkpt lat="34.9448848" lon="32.8550008">
<ele>1719.54</ele>
<time>2015-04-30T09:18:10Z</time>
</trkpt>
<trkpt lat="34.9448310" lon="32.8549864">
<ele>1722.75</ele>
<time>2015-04-30T09:18:15Z</time>
</trkpt>
<trkpt lat="34.9447768" lon="32.8549700">
<ele>1721.85</ele>
<time>2015-04-30T09:18:20Z</time>
</trkpt>
<trkpt lat="34.9447355" lon="32.8549434">
<ele>1721.20</ele>
<time>2015-04-30T09:18:24Z</time>
</trkpt>
<trkpt lat="34.9446901" lon="32.8549178">
<ele>1720.85</ele>
<time>2015-04-30T09:18:28Z</time>
</trkpt>
<trkpt lat="34.9446498" lon="32.8548924">
<ele>1723.58</ele>
<time>2015-04-30T09:18:32Z</time>
</trkpt>
<trkpt lat="34.9446072" lon="32.8548648">
<ele>1725.56</ele>
<time>2015-04-30T09:18:36Z</time>
</trkpt>
<trkpt lat="34.9445567" lon="32.8548370">
<ele>1726.44</ele>
<time>2015-04-30T09:18:41Z</time>
</trkpt>
<trkpt lat="34.9445016" lon="32.8548269">
<ele>1727.03</ele>
<time>2015-04-30T09:18:46Z</time>
</trkpt>
<trkpt lat="34.9444507" lon="32.8548051">
<ele>1728.24</ele>
<time>2015-04-30T09:18:51Z</time>
</trkpt>
<trkpt lat="34.9444021" lon="32.8547857">
<ele>1728.85</ele>
<time>2015-04-30T09:18:57Z</time>
</trkpt>
<trkpt lat="34.9443568" lon="32.8547806">
<ele>1728.33</ele>
<time>2015-04-30T09:19:02Z</time>
</trkpt>
<trkpt lat="34.9443098" lon="32.8547774">
<ele>1728.97</ele>
<time>2015-04-30T09:19:07Z</time>
</trkpt>
<trkpt lat="34.9442615" lon="32.8547672">
<ele>1729.17</ele>
<time>2015-04-30T09:19:12Z</time>
</trkpt>
<trkpt lat="34.9442189" lon="32.8547458">
<ele>1728.87</ele>
<time>2015-04-30T09:19:17Z</time>
</trkpt>
<trkpt lat="34.9441723" lon="32.8547363">
<ele>1731.23</ele>
<time>2015-04-30T09:19:22Z</time>
</trkpt>
<trkpt lat="34.9441259" lon="32.8547420">
<ele>1732.34</ele>
<time>2015-04-30T09:19:27Z</time>
</trkpt>
<trkpt lat="34.9440742" lon="32.8547460">
<ele>1733.18</ele>
<time>2015-04-30T09:19:32Z</time>
</trkpt>
<trkpt lat="34.9440243" lon="32.8547588">
<ele>1732.05</ele>
<time>2015-04-30T09:19:37Z</time>
</trkpt>
<trkpt lat="34.9439780" lon="32.8547944">
<ele>1733.24</ele>
<time>2015-04-30T09:19:42Z</time>
</trkpt>
<trkpt lat="34.9439378" lon="32.8548298">
<ele>1732.37</ele>
<time>2015-04-30T09:19:47Z</time>
</trkpt>
<trkpt lat="34.9438971" lon="32.8548713">
<ele>1731.77</ele>
<time>2015-04-30T09:19:53Z</time>
</trkpt>
<trkpt lat="34.9438695" lon="32.8549187">
<ele>1731.51</ele>
<time>2015-04-30T09:19:58Z</time>
</trkpt>
<trkpt lat="34.9438456" lon="32.8549685">
<ele>1730.28</ele>
<time>2015-04-30T09:20:07Z</time>
</trkpt>
<trkpt lat="34.9438337" lon="32.8550233">
<ele>1729.84</ele>
<time>2015-04-30T09:20:12Z</time>
</trkpt>
<trkpt lat="34.9438183" lon="32.8550768">
<ele>1731.14</ele>
<time>2015-04-30T09:20:16Z</time>
</trkpt>
<trkpt lat="34.9438047" lon="32.8551346">
<ele>1730.85</ele>
<time>2015-04-30T09:20:20Z</time>
</trkpt>
<trkpt lat="34.9437960" lon="32.8551985">
<ele>1731.39</ele>
<time>2015-04-30T09:20:25Z</time>
</trkpt>
<trkpt lat="34.9437985" lon="32.8552641">
<ele>1738.12</ele>
<time>2015-04-30T09:20:38Z</time>
</trkpt>
<trkpt lat="34.9437990" lon="32.8553207">
<ele>1739.47</ele>
<time>2015-04-30T09:20:42Z</time>
</trkpt>
<trkpt lat="34.9438009" lon="32.8553774">
<ele>1738.80</ele>
<time>2015-04-30T09:20:46Z</time>
</trkpt>
<trkpt lat="34.9438041" lon="32.8554443">
<ele>1738.45</ele>
<time>2015-04-30T09:20:51Z</time>
</trkpt>
<trkpt lat="34.9438071" lon="32.8554994">
<ele>1739.49</ele>
<time>2015-04-30T09:20:55Z</time>
</trkpt>
<trkpt lat="34.9438108" lon="32.8555630">
<ele>1740.72</ele>
<time>2015-04-30T09:21:00Z</time>
</trkpt>
<trkpt lat="34.9438060" lon="32.8556228">
<ele>1740.29</ele>
<time>2015-04-30T09:21:05Z</time>
</trkpt>
<trkpt lat="34.9438025" lon="32.8556790">
<ele>1739.78</ele>
<time>2015-04-30T09:21:10Z</time>
</trkpt>
<trkpt lat="34.9438080" lon="32.8557387">
<ele>1739.35</ele>
<time>2015-04-30T09:21:15Z</time>
</trkpt>
<trkpt lat="34.9438048" lon="32.8557959">
<ele>1741.65</ele>
<time>2015-04-30T09:21:20Z</time>
</trkpt>
<trkpt lat="34.9437992" lon="32.8558582">
<ele>1741.26</ele>
<time>2015-04-30T09:21:25Z</time>
</trkpt>
<trkpt lat="34.9438012" lon="32.8559198">
<ele>1739.84</ele>
<time>2015-04-30T09:21:30Z</time>
</trkpt>
<trkpt lat="34.9438050" lon="32.8559854">
<ele>1740.82</ele>
<time>2015-04-30T09:21:35Z</time>
</trkpt>
<trkpt lat="34.9438080" lon="32.8560454">
<ele>1743.20</ele>
<time>2015-04-30T09:21:40Z</time>
</trkpt>
<trkpt lat="34.9437785" lon="32.8560946">
<ele>1743.18</ele>
<time>2015-04-30T09:21:45Z</time>
</trkpt>
<trkpt lat="34.9437538" lon="32.8561510">
<ele>1742.80</ele>
<time>2015-04-30T09:21:50Z</time>
</trkpt>
<trkpt lat="34.9437497" lon="32.8562059">
<ele>1741.14</ele>
<time>2015-04-30T09:21:54Z</time>
</trkpt>
<trkpt lat="34.9437477" lon="32.8562733">
<ele>1741.52</ele>
<time>2015-04-30T09:21:59Z</time>
</trkpt>
<trkpt lat="34.9437483" lon="32.8563327">
<ele>1741.75</ele>
<time>2015-04-30T09:22:04Z</time>
</trkpt>
<trkpt lat="34.9437596" lon="32.8563872">
<ele>1742.04</ele>
<time>2015-04-30T09:22:16Z</time>
</trkpt>
<trkpt lat="34.9437192" lon="32.8563605">
<ele>1733.34</ele>
<time>2015-04-30T09:27:04Z</time>
</trkpt>
<trkpt lat="34.9437538" lon="32.8563989">
<ele>1738.72</ele>
<time>2015-04-30T09:27:49Z</time>
</trkpt>
<trkpt lat="34.9438047" lon="32.8564064">
<ele>1739.01</ele>
<time>2015-04-30T09:28:17Z</time>
</trkpt>
<trkpt lat="34.9438130" lon="32.8564606">
<ele>1740.64</ele>
<time>2015-04-30T09:28:31Z</time>
</trkpt>
<trkpt lat="34.9438354" lon="32.8565098">
<ele>1739.69</ele>
<time>2015-04-30T09:28:36Z</time>
</trkpt>
<trkpt lat="34.9438367" lon="32.8565718">
<ele>1740.71</ele>
<time>2015-04-30T09:28:43Z</time>
</trkpt>
<trkpt lat="34.9438218" lon="32.8566260">
<ele>1740.88</ele>
<time>2015-04-30T09:28:48Z</time>
</trkpt>
<trkpt lat="34.9438078" lon="32.8566887">
<ele>1745.45</ele>
<time>2015-04-30T09:28:55Z</time>
</trkpt>
<trkpt lat="34.9437994" lon="32.8567474">
<ele>1744.88</ele>
<time>2015-04-30T09:29:00Z</time>
</trkpt>
<trkpt lat="34.9437761" lon="32.8567957">
<ele>1746.57</ele>
<time>2015-04-30T09:29:06Z</time>
</trkpt>
<trkpt lat="34.9437749" lon="32.8568507">
<ele>1747.08</ele>
<time>2015-04-30T09:29:13Z</time>
</trkpt>
<trkpt lat="34.9437546" lon="32.8569032">
<ele>1748.69</ele>
<time>2015-04-30T09:29:19Z</time>
</trkpt>
<trkpt lat="34.9437368" lon="32.8569543">
<ele>1749.29</ele>
<time>2015-04-30T09:29:24Z</time>
</trkpt>
<trkpt lat="34.9437106" lon="32.8570096">
<ele>1749.37</ele>
<time>2015-04-30T09:29:29Z</time>
</trkpt>
<trkpt lat="34.9436825" lon="32.8570556">
<ele>1752.11</ele>
<time>2015-04-30T09:29:33Z</time>
</trkpt>
<trkpt lat="34.9436539" lon="32.8570990">
<ele>1752.72</ele>
<time>2015-04-30T09:29:37Z</time>
</trkpt>
<trkpt lat="34.9436254" lon="32.8571460">
<ele>1752.32</ele>
<time>2015-04-30T09:29:41Z</time>
</trkpt>
<trkpt lat="34.9435957" lon="32.8571935">
<ele>1752.67</ele>
<time>2015-04-30T09:29:45Z</time>
</trkpt>
<trkpt lat="34.9435666" lon="32.8572368">
<ele>1751.69</ele>
<time>2015-04-30T09:29:49Z</time>
</trkpt>
<trkpt lat="34.9435357" lon="32.8572780">
<ele>1753.44</ele>
<time>2015-04-30T09:29:53Z</time>
</trkpt>
<trkpt lat="34.9434896" lon="32.8573098">
<ele>1754.63</ele>
<time>2015-04-30T09:29:58Z</time>
</trkpt>
<trkpt lat="34.9434644" lon="32.8573633">
<ele>1754.76</ele>
<time>2015-04-30T09:30:03Z</time>
</trkpt>
<trkpt lat="34.9434307" lon="32.8574117">
<ele>1755.45</ele>
<time>2015-04-30T09:30:08Z</time>
</trkpt>
<trkpt lat="34.9433953" lon="32.8574588">
<ele>1756.51</ele>
<time>2015-04-30T09:30:14Z</time>
</trkpt>
<trkpt lat="34.9433609" lon="32.8575106">
<ele>1758.44</ele>
<time>2015-04-30T09:30:19Z</time>
</trkpt>
<trkpt lat="34.9433176" lon="32.8575500">
<ele>1758.75</ele>
<time>2015-04-30T09:30:24Z</time>
</trkpt>
<trkpt lat="34.9432845" lon="32.8575943">
<ele>1758.62</ele>
<time>2015-04-30T09:30:30Z</time>
</trkpt>
<trkpt lat="34.9432462" lon="32.8576254">
<ele>1759.63</ele>
<time>2015-04-30T09:30:35Z</time>
</trkpt>
<trkpt lat="34.9432125" lon="32.8576769">
<ele>1759.76</ele>
<time>2015-04-30T09:30:40Z</time>
</trkpt>
<trkpt lat="34.9431703" lon="32.8577103">
<ele>1759.88</ele>
<time>2015-04-30T09:30:46Z</time>
</trkpt>
<trkpt lat="34.9431311" lon="32.8577422">
<ele>1760.20</ele>
<time>2015-04-30T09:30:51Z</time>
</trkpt>
<trkpt lat="34.9430909" lon="32.8577829">
<ele>1759.43</ele>
<time>2015-04-30T09:30:56Z</time>
</trkpt>
<trkpt lat="34.9430543" lon="32.8578228">
<ele>1759.75</ele>
<time>2015-04-30T09:31:01Z</time>
</trkpt>
<trkpt lat="34.9430191" lon="32.8578694">
<ele>1761.95</ele>
<time>2015-04-30T09:31:06Z</time>
</trkpt>
<trkpt lat="34.9429942" lon="32.8579181">
<ele>1761.27</ele>
<time>2015-04-30T09:31:10Z</time>
</trkpt>
<trkpt lat="34.9429763" lon="32.8579759">
<ele>1761.28</ele>
<time>2015-04-30T09:31:15Z</time>
</trkpt>
<trkpt lat="34.9429512" lon="32.8580307">
<ele>1761.75</ele>
<time>2015-04-30T09:31:21Z</time>
</trkpt>
<trkpt lat="34.9429203" lon="32.8580727">
<ele>1761.76</ele>
<time>2015-04-30T09:31:26Z</time>
</trkpt>
<trkpt lat="34.9428886" lon="32.8581177">
<ele>1761.28</ele>
<time>2015-04-30T09:31:32Z</time>
</trkpt>
<trkpt lat="34.9428692" lon="32.8581680">
<ele>1762.48</ele>
<time>2015-04-30T09:31:36Z</time>
</trkpt>
<trkpt lat="34.9428395" lon="32.8582154">
<ele>1763.18</ele>
<time>2015-04-30T09:31:40Z</time>
</trkpt>
<trkpt lat="34.9428014" lon="32.8582652">
<ele>1763.74</ele>
<time>2015-04-30T09:31:45Z</time>
</trkpt>
<trkpt lat="34.9427794" lon="32.8583144">
<ele>1764.51</ele>
<time>2015-04-30T09:31:49Z</time>
</trkpt>
<trkpt lat="34.9427674" lon="32.8583691">
<ele>1764.74</ele>
<time>2015-04-30T09:31:53Z</time>
</trkpt>
<trkpt lat="34.9427376" lon="32.8584137">
<ele>1766.63</ele>
<time>2015-04-30T09:31:57Z</time>
</trkpt>
<trkpt lat="34.9427155" lon="32.8584734">
<ele>1766.32</ele>
<time>2015-04-30T09:32:02Z</time>
</trkpt>
<trkpt lat="34.9426935" lon="32.8585259">
<ele>1766.53</ele>
<time>2015-04-30T09:32:07Z</time>
</trkpt>
<trkpt lat="34.9426653" lon="32.8585748">
<ele>1766.75</ele>
<time>2015-04-30T09:32:12Z</time>
</trkpt>
<trkpt lat="34.9426450" lon="32.8586379">
<ele>1768.51</ele>
<time>2015-04-30T09:32:17Z</time>
</trkpt>
<trkpt lat="34.9426289" lon="32.8586902">
<ele>1770.06</ele>
<time>2015-04-30T09:32:21Z</time>
</trkpt>
<trkpt lat="34.9426092" lon="32.8587413">
<ele>1770.72</ele>
<time>2015-04-30T09:32:25Z</time>
</trkpt>
<trkpt lat="34.9425996" lon="32.8588072">
<ele>1771.01</ele>
<time>2015-04-30T09:32:30Z</time>
</trkpt>
<trkpt lat="34.9425889" lon="32.8588733">
<ele>1771.36</ele>
<time>2015-04-30T09:32:35Z</time>
</trkpt>
<trkpt lat="34.9425785" lon="32.8589290">
<ele>1772.24</ele>
<time>2015-04-30T09:32:39Z</time>
</trkpt>
<trkpt lat="34.9425870" lon="32.8589867">
<ele>1771.85</ele>
<time>2015-04-30T09:32:43Z</time>
</trkpt>
<trkpt lat="34.9425886" lon="32.8590491">
<ele>1771.02</ele>
<time>2015-04-30T09:32:47Z</time>
</trkpt>
<trkpt lat="34.9425978" lon="32.8591099">
<ele>1770.78</ele>
<time>2015-04-30T09:32:51Z</time>
</trkpt>
<trkpt lat="34.9426018" lon="32.8591660">
<ele>1771.64</ele>
<time>2015-04-30T09:32:55Z</time>
</trkpt>
<trkpt lat="34.9426081" lon="32.8592257">
<ele>1771.06</ele>
<time>2015-04-30T09:32:59Z</time>
</trkpt>
<trkpt lat="34.9426083" lon="32.8592958">
<ele>1772.53</ele>
<time>2015-04-30T09:33:03Z</time>
</trkpt>
<trkpt lat="34.9425992" lon="32.8593587">
<ele>1772.75</ele>
<time>2015-04-30T09:33:07Z</time>
</trkpt>
<trkpt lat="34.9426086" lon="32.8594165">
<ele>1773.51</ele>
<time>2015-04-30T09:33:11Z</time>
</trkpt>
<trkpt lat="34.9426126" lon="32.8594764">
<ele>1776.18</ele>
<time>2015-04-30T09:33:15Z</time>
</trkpt>
<trkpt lat="34.9426305" lon="32.8595283">
<ele>1775.85</ele>
<time>2015-04-30T09:33:19Z</time>
</trkpt>
<trkpt lat="34.9426484" lon="32.8595908">
<ele>1775.76</ele>
<time>2015-04-30T09:33:24Z</time>
</trkpt>
<trkpt lat="34.9426697" lon="32.8596488">
<ele>1776.32</ele>
<time>2015-04-30T09:33:29Z</time>
</trkpt>
<trkpt lat="34.9426866" lon="32.8597034">
<ele>1777.68</ele>
<time>2015-04-30T09:33:34Z</time>
</trkpt>
<trkpt lat="34.9427099" lon="32.8597544">
<ele>1776.88</ele>
<time>2015-04-30T09:33:39Z</time>
</trkpt>
<trkpt lat="34.9427180" lon="32.8598090">
<ele>1777.64</ele>
<time>2015-04-30T09:33:43Z</time>
</trkpt>
<trkpt lat="34.9427352" lon="32.8598616">
<ele>1779.38</ele>
<time>2015-04-30T09:33:47Z</time>
</trkpt>
<trkpt lat="34.9427605" lon="32.8599217">
<ele>1780.65</ele>
<time>2015-04-30T09:33:52Z</time>
</trkpt>
<trkpt lat="34.9427856" lon="32.8599750">
<ele>1780.25</ele>
<time>2015-04-30T09:33:56Z</time>
</trkpt>
<trkpt lat="34.9428116" lon="32.8600272">
<ele>1778.92</ele>
<time>2015-04-30T09:34:00Z</time>
</trkpt>
<trkpt lat="34.9428293" lon="32.8600847">
<ele>1778.27</ele>
<time>2015-04-30T09:34:04Z</time>
</trkpt>
<trkpt lat="34.9428407" lon="32.8601402">
<ele>1778.73</ele>
<time>2015-04-30T09:34:08Z</time>
</trkpt>
<trkpt lat="34.9428579" lon="32.8601920">
<ele>1780.01</ele>
<time>2015-04-30T09:34:12Z</time>
</trkpt>
<trkpt lat="34.9428738" lon="32.8602512">
<ele>1779.89</ele>
<time>2015-04-30T09:34:17Z</time>
</trkpt>
<trkpt lat="34.9428730" lon="32.8603102">
<ele>1780.58</ele>
<time>2015-04-30T09:34:22Z</time>
</trkpt>
<trkpt lat="34.9428745" lon="32.8603752">
<ele>1781.85</ele>
<time>2015-04-30T09:34:27Z</time>
</trkpt>
<trkpt lat="34.9428788" lon="32.8604427">
<ele>1781.64</ele>
<time>2015-04-30T09:34:32Z</time>
</trkpt>
<trkpt lat="34.9428768" lon="32.8605058">
<ele>1781.44</ele>
<time>2015-04-30T09:34:36Z</time>
</trkpt>
<trkpt lat="34.9428796" lon="32.8605712">
<ele>1781.68</ele>
<time>2015-04-30T09:34:40Z</time>
</trkpt>
<trkpt lat="34.9428915" lon="32.8606341">
<ele>1782.25</ele>
<time>2015-04-30T09:34:44Z</time>
</trkpt>
<trkpt lat="34.9428977" lon="32.8607036">
<ele>1782.17</ele>
<time>2015-04-30T09:34:48Z</time>
</trkpt>
<trkpt lat="34.9429043" lon="32.8607596">
<ele>1782.31</ele>
<time>2015-04-30T09:34:51Z</time>
</trkpt>
<trkpt lat="34.9429153" lon="32.8608283">
<ele>1783.11</ele>
<time>2015-04-30T09:34:55Z</time>
</trkpt>
<trkpt lat="34.9429239" lon="32.8608943">
<ele>1782.91</ele>
<time>2015-04-30T09:34:59Z</time>
</trkpt>
<trkpt lat="34.9429294" lon="32.8609607">
<ele>1782.77</ele>
<time>2015-04-30T09:35:03Z</time>
</trkpt>
<trkpt lat="34.9429380" lon="32.8610274">
<ele>1783.51</ele>
<time>2015-04-30T09:35:07Z</time>
</trkpt>
<trkpt lat="34.9429437" lon="32.8610960">
<ele>1783.25</ele>
<time>2015-04-30T09:35:12Z</time>
</trkpt>
<trkpt lat="34.9429523" lon="32.8611572">
<ele>1782.81</ele>
<time>2015-04-30T09:35:17Z</time>
</trkpt>
<trkpt lat="34.9429617" lon="32.8612187">
<ele>1783.23</ele>
<time>2015-04-30T09:35:22Z</time>
</trkpt>
<trkpt lat="34.9429671" lon="32.8612747">
<ele>1784.48</ele>
<time>2015-04-30T09:35:26Z</time>
</trkpt>
<trkpt lat="34.9429750" lon="32.8613334">
<ele>1785.68</ele>
<time>2015-04-30T09:35:30Z</time>
</trkpt>
<trkpt lat="34.9429836" lon="32.8613934">
<ele>1785.57</ele>
<time>2015-04-30T09:35:35Z</time>
</trkpt>
<trkpt lat="34.9429844" lon="32.8614528">
<ele>1785.37</ele>
<time>2015-04-30T09:35:39Z</time>
</trkpt>
<trkpt lat="34.9429868" lon="32.8615174">
<ele>1787.36</ele>
<time>2015-04-30T09:35:43Z</time>
</trkpt>
<trkpt lat="34.9429975" lon="32.8615772">
<ele>1786.80</ele>
<time>2015-04-30T09:35:47Z</time>
</trkpt>
<trkpt lat="34.9430030" lon="32.8616430">
<ele>1786.95</ele>
<time>2015-04-30T09:35:51Z</time>
</trkpt>
<trkpt lat="34.9430108" lon="32.8617076">
<ele>1787.02</ele>
<time>2015-04-30T09:35:55Z</time>
</trkpt>
<trkpt lat="34.9430140" lon="32.8617696">
<ele>1788.15</ele>
<time>2015-04-30T09:35:59Z</time>
</trkpt>
<trkpt lat="34.9430185" lon="32.8618330">
<ele>1789.35</ele>
<time>2015-04-30T09:36:03Z</time>
</trkpt>
<trkpt lat="34.9430335" lon="32.8618952">
<ele>1790.86</ele>
<time>2015-04-30T09:36:07Z</time>
</trkpt>
<trkpt lat="34.9430383" lon="32.8619572">
<ele>1790.14</ele>
<time>2015-04-30T09:36:11Z</time>
</trkpt>
<trkpt lat="34.9430229" lon="32.8620112">
<ele>1790.28</ele>
<time>2015-04-30T09:36:15Z</time>
</trkpt>
<trkpt lat="34.9430297" lon="32.8620689">
<ele>1790.23</ele>
<time>2015-04-30T09:36:19Z</time>
</trkpt>
<trkpt lat="34.9430455" lon="32.8621321">
<ele>1790.27</ele>
<time>2015-04-30T09:36:24Z</time>
</trkpt>
<trkpt lat="34.9430435" lon="32.8621891">
<ele>1790.48</ele>
<time>2015-04-30T09:36:28Z</time>
</trkpt>
<trkpt lat="34.9430504" lon="32.8622501">
<ele>1789.68</ele>
<time>2015-04-30T09:36:32Z</time>
</trkpt>
<trkpt lat="34.9430470" lon="32.8623205">
<ele>1791.82</ele>
<time>2015-04-30T09:36:36Z</time>
</trkpt>
<trkpt lat="34.9430398" lon="32.8623876">
<ele>1793.45</ele>
<time>2015-04-30T09:36:40Z</time>
</trkpt>
<trkpt lat="34.9430263" lon="32.8624515">
<ele>1795.10</ele>
<time>2015-04-30T09:36:43Z</time>
</trkpt>
<trkpt lat="34.9430076" lon="32.8625027">
<ele>1795.68</ele>
<time>2015-04-30T09:36:46Z</time>
</trkpt>
<trkpt lat="34.9429726" lon="32.8625581">
<ele>1797.07</ele>
<time>2015-04-30T09:36:50Z</time>
</trkpt>
<trkpt lat="34.9429487" lon="32.8626139">
<ele>1797.55</ele>
<time>2015-04-30T09:36:53Z</time>
</trkpt>
<trkpt lat="34.9429247" lon="32.8626608">
<ele>1797.73</ele>
<time>2015-04-30T09:36:56Z</time>
</trkpt>
<trkpt lat="34.9428842" lon="32.8627113">
<ele>1798.07</ele>
<time>2015-04-30T09:37:00Z</time>
</trkpt>
<trkpt lat="34.9428375" lon="32.8627470">
<ele>1799.22</ele>
<time>2015-04-30T09:37:04Z</time>
</trkpt>
<trkpt lat="34.9428040" lon="32.8627860">
<ele>1799.73</ele>
<time>2015-04-30T09:37:08Z</time>
</trkpt>
<trkpt lat="34.9427635" lon="32.8628233">
<ele>1799.45</ele>
<time>2015-04-30T09:37:12Z</time>
</trkpt>
<trkpt lat="34.9427167" lon="32.8628597">
<ele>1799.30</ele>
<time>2015-04-30T09:37:16Z</time>
</trkpt>
<trkpt lat="34.9426770" lon="32.8628881">
<ele>1801.33</ele>
<time>2015-04-30T09:37:19Z</time>
</trkpt>
<trkpt lat="34.9426323" lon="32.8629117">
<ele>1802.58</ele>
<time>2015-04-30T09:37:22Z</time>
</trkpt>
<trkpt lat="34.9425885" lon="32.8629353">
<ele>1801.99</ele>
<time>2015-04-30T09:37:25Z</time>
</trkpt>
<trkpt lat="34.9425513" lon="32.8629729">
<ele>1802.54</ele>
<time>2015-04-30T09:37:28Z</time>
</trkpt>
<trkpt lat="34.9425110" lon="32.8630065">
<ele>1804.36</ele>
<time>2015-04-30T09:37:31Z</time>
</trkpt>
<trkpt lat="34.9424693" lon="32.8630304">
<ele>1803.96</ele>
<time>2015-04-30T09:37:34Z</time>
</trkpt>
<trkpt lat="34.9424188" lon="32.8630638">
<ele>1803.77</ele>
<time>2015-04-30T09:37:38Z</time>
</trkpt>
<trkpt lat="34.9423673" lon="32.8630972">
<ele>1804.01</ele>
<time>2015-04-30T09:37:42Z</time>
</trkpt>
<trkpt lat="34.9423250" lon="32.8631238">
<ele>1804.04</ele>
<time>2015-04-30T09:37:45Z</time>
</trkpt>
<trkpt lat="34.9422851" lon="32.8631542">
<ele>1803.67</ele>
<time>2015-04-30T09:37:48Z</time>
</trkpt>
<trkpt lat="34.9422365" lon="32.8631829">
<ele>1801.25</ele>
<time>2015-04-30T09:37:51Z</time>
</trkpt>
<trkpt lat="34.9421910" lon="32.8632014">
<ele>1803.45</ele>
<time>2015-04-30T09:37:54Z</time>
</trkpt>
<trkpt lat="34.9421412" lon="32.8632412">
<ele>1805.43</ele>
<time>2015-04-30T09:37:58Z</time>
</trkpt>
<trkpt lat="34.9420924" lon="32.8632790">
<ele>1808.49</ele>
<time>2015-04-30T09:38:02Z</time>
</trkpt>
<trkpt lat="34.9420386" lon="32.8633179">
<ele>1809.99</ele>
<time>2015-04-30T09:38:06Z</time>
</trkpt>
<trkpt lat="34.9419933" lon="32.8633568">
<ele>1809.54</ele>
<time>2015-04-30T09:38:09Z</time>
</trkpt>
<trkpt lat="34.9419439" lon="32.8634092">
<ele>1807.61</ele>
<time>2015-04-30T09:38:12Z</time>
</trkpt>
<trkpt lat="34.9418918" lon="32.8634482">
<ele>1809.12</ele>
<time>2015-04-30T09:38:15Z</time>
</trkpt>
<trkpt lat="34.9418440" lon="32.8634840">
<ele>1810.05</ele>
<time>2015-04-30T09:38:18Z</time>
</trkpt>
<trkpt lat="34.9418049" lon="32.8635208">
<ele>1809.80</ele>
<time>2015-04-30T09:38:21Z</time>
</trkpt>
<trkpt lat="34.9417656" lon="32.8635553">
<ele>1809.51</ele>
<time>2015-04-30T09:38:24Z</time>
</trkpt>
<trkpt lat="34.9417261" lon="32.8635899">
<ele>1809.85</ele>
<time>2015-04-30T09:38:27Z</time>
</trkpt>
<trkpt lat="34.9416880" lon="32.8636353">
<ele>1808.77</ele>
<time>2015-04-30T09:38:30Z</time>
</trkpt>
<trkpt lat="34.9416480" lon="32.8636880">
<ele>1807.14</ele>
<time>2015-04-30T09:38:33Z</time>
</trkpt>
<trkpt lat="34.9416072" lon="32.8637396">
<ele>1807.56</ele>
<time>2015-04-30T09:38:36Z</time>
</trkpt>
<trkpt lat="34.9415685" lon="32.8637814">
<ele>1808.61</ele>
<time>2015-04-30T09:38:39Z</time>
</trkpt>
<trkpt lat="34.9415309" lon="32.8638188">
<ele>1808.49</ele>
<time>2015-04-30T09:38:42Z</time>
</trkpt>
<trkpt lat="34.9414897" lon="32.8638632">
<ele>1810.10</ele>
<time>2015-04-30T09:38:45Z</time>
</trkpt>
<trkpt lat="34.9414509" lon="32.8639099">
<ele>1810.68</ele>
<time>2015-04-30T09:38:48Z</time>
</trkpt>
<trkpt lat="34.9414102" lon="32.8639626">
<ele>1809.94</ele>
<time>2015-04-30T09:38:52Z</time>
</trkpt>
<trkpt lat="34.9413731" lon="32.8640083">
<ele>1809.28</ele>
<time>2015-04-30T09:38:55Z</time>
</trkpt>
<trkpt lat="34.9413303" lon="32.8640496">
<ele>1810.20</ele>
<time>2015-04-30T09:38:58Z</time>
</trkpt>
<trkpt lat="34.9412806" lon="32.8640671">
<ele>1809.82</ele>
<time>2015-04-30T09:39:01Z</time>
</trkpt>
<trkpt lat="34.9412371" lon="32.8640897">
<ele>1811.39</ele>
<time>2015-04-30T09:39:13Z</time>
</trkpt>
<trkpt lat="34.9412057" lon="32.8640474">
<ele>1811.26</ele>
<time>2015-04-30T09:39:42Z</time>
</trkpt>
<trkpt lat="34.9412471" lon="32.8640748">
<ele>1810.89</ele>
<time>2015-04-30T09:40:10Z</time>
</trkpt>
<trkpt lat="34.9412154" lon="32.8641189">
<ele>1809.89</ele>
<time>2015-04-30T09:42:42Z</time>
</trkpt>
<trkpt lat="34.9411743" lon="32.8641509">
<ele>1810.01</ele>
<time>2015-04-30T09:42:54Z</time>
</trkpt>
<trkpt lat="34.9411368" lon="32.8642072">
<ele>1810.65</ele>
<time>2015-04-30T09:42:58Z</time>
</trkpt>
<trkpt lat="34.9411085" lon="32.8642792">
<ele>1811.50</ele>
<time>2015-04-30T09:43:01Z</time>
</trkpt>
<trkpt lat="34.9410773" lon="32.8643342">
<ele>1813.35</ele>
<time>2015-04-30T09:43:04Z</time>
</trkpt>
<trkpt lat="34.9410369" lon="32.8643770">
<ele>1813.08</ele>
<time>2015-04-30T09:43:07Z</time>
</trkpt>
<trkpt lat="34.9409925" lon="32.8644104">
<ele>1813.68</ele>
<time>2015-04-30T09:43:10Z</time>
</trkpt>
<trkpt lat="34.9409488" lon="32.8644417">
<ele>1812.75</ele>
<time>2015-04-30T09:43:13Z</time>
</trkpt>
<trkpt lat="34.9408992" lon="32.8644667">
<ele>1814.51</ele>
<time>2015-04-30T09:43:16Z</time>
</trkpt>
<trkpt lat="34.9408528" lon="32.8644788">
<ele>1814.73</ele>
<time>2015-04-30T09:43:19Z</time>
</trkpt>
<trkpt lat="34.9407996" lon="32.8645068">
<ele>1813.13</ele>
<time>2015-04-30T09:43:23Z</time>
</trkpt>
<trkpt lat="34.9407569" lon="32.8645398">
<ele>1812.41</ele>
<time>2015-04-30T09:43:27Z</time>
</trkpt>
<trkpt lat="34.9407106" lon="32.8645570">
<ele>1811.80</ele>
<time>2015-04-30T09:43:31Z</time>
</trkpt>
<trkpt lat="34.9406639" lon="32.8645688">
<ele>1811.89</ele>
<time>2015-04-30T09:43:34Z</time>
</trkpt>
<trkpt lat="34.9406083" lon="32.8645903">
<ele>1811.90</ele>
<time>2015-04-30T09:43:37Z</time>
</trkpt>
<trkpt lat="34.9405366" lon="32.8646055">
<ele>1810.15</ele>
<time>2015-04-30T09:43:40Z</time>
</trkpt>
<trkpt lat="34.9404685" lon="32.8646243">
<ele>1809.36</ele>
<time>2015-04-30T09:43:42Z</time>
</trkpt>
<trkpt lat="34.9403946" lon="32.8646558">
<ele>1809.66</ele>
<time>2015-04-30T09:43:44Z</time>
</trkpt>
<trkpt lat="34.9402808" lon="32.8646922">
<ele>1809.48</ele>
<time>2015-04-30T09:43:46Z</time>
</trkpt>
<trkpt lat="34.9402343" lon="32.8647079">
<ele>1809.62</ele>
<time>2015-04-30T09:43:47Z</time>
</trkpt>
<trkpt lat="34.9401395" lon="32.8647208">
<ele>1809.23</ele>
<time>2015-04-30T09:43:49Z</time>
</trkpt>
<trkpt lat="34.9400823" lon="32.8647247">
<ele>1808.99</ele>
<time>2015-04-30T09:43:50Z</time>
</trkpt>
<trkpt lat="34.9400350" lon="32.8647270">
<ele>1808.38</ele>
<time>2015-04-30T09:43:51Z</time>
</trkpt>
<trkpt lat="34.9399795" lon="32.8647532">
<ele>1808.57</ele>
<time>2015-04-30T09:43:52Z</time>
</trkpt>
<trkpt lat="34.9399193" lon="32.8647945">
<ele>1809.66</ele>
<time>2015-04-30T09:43:53Z</time>
</trkpt>
<trkpt lat="34.9398606" lon="32.8648310">
<ele>1810.21</ele>
<time>2015-04-30T09:43:54Z</time>
</trkpt>
<trkpt lat="34.9398241" lon="32.8649083">
<ele>1809.99</ele>
<time>2015-04-30T09:43:55Z</time>
</trkpt>
<trkpt lat="34.9397710" lon="32.8649730">
<ele>1810.37</ele>
<time>2015-04-30T09:43:56Z</time>
</trkpt>
<trkpt lat="34.9397273" lon="32.8650323">
<ele>1811.07</ele>
<time>2015-04-30T09:43:57Z</time>
</trkpt>
<trkpt lat="34.9396926" lon="32.8651139">
<ele>1811.41</ele>
<time>2015-04-30T09:43:58Z</time>
</trkpt>
<trkpt lat="34.9396729" lon="32.8651942">
<ele>1811.59</ele>
<time>2015-04-30T09:43:59Z</time>
</trkpt>
<trkpt lat="34.9396569" lon="32.8652819">
<ele>1811.17</ele>
<time>2015-04-30T09:44:00Z</time>
</trkpt>
<trkpt lat="34.9396635" lon="32.8653622">
<ele>1810.47</ele>
<time>2015-04-30T09:44:01Z</time>
</trkpt>
<trkpt lat="34.9396867" lon="32.8654431">
<ele>1809.61</ele>
<time>2015-04-30T09:44:02Z</time>
</trkpt>
<trkpt lat="34.9397302" lon="32.8655078">
<ele>1808.69</ele>
<time>2015-04-30T09:44:03Z</time>
</trkpt>
<trkpt lat="34.9397703" lon="32.8655630">
<ele>1807.72</ele>
<time>2015-04-30T09:44:04Z</time>
</trkpt>
<trkpt lat="34.9398475" lon="32.8656276">
<ele>1804.25</ele>
<time>2015-04-30T09:44:06Z</time>
</trkpt>
<trkpt lat="34.9398957" lon="32.8656744">
<ele>1803.51</ele>
<time>2015-04-30T09:44:07Z</time>
</trkpt>
<trkpt lat="34.9399322" lon="32.8657298">
<ele>1803.63</ele>
<time>2015-04-30T09:44:08Z</time>
</trkpt>
<trkpt lat="34.9399629" lon="32.8657767">
<ele>1804.20</ele>
<time>2015-04-30T09:44:09Z</time>
</trkpt>
<trkpt lat="34.9400015" lon="32.8658195">
<ele>1803.98</ele>
<time>2015-04-30T09:44:10Z</time>
</trkpt>
<trkpt lat="34.9400358" lon="32.8658582">
<ele>1803.87</ele>
<time>2015-04-30T09:44:11Z</time>
</trkpt>
<trkpt lat="34.9400836" lon="32.8659445">
<ele>1802.54</ele>
<time>2015-04-30T09:44:13Z</time>
</trkpt>
<trkpt lat="34.9401080" lon="32.8659923">
<ele>1802.15</ele>
<time>2015-04-30T09:44:14Z</time>
</trkpt>
<trkpt lat="34.9401304" lon="32.8660437">
<ele>1801.95</ele>
<time>2015-04-30T09:44:15Z</time>
</trkpt>
<trkpt lat="34.9401513" lon="32.8660953">
<ele>1802.36</ele>
<time>2015-04-30T09:44:16Z</time>
</trkpt>
<trkpt lat="34.9401669" lon="32.8661492">
<ele>1802.56</ele>
<time>2015-04-30T09:44:17Z</time>
</trkpt>
<trkpt lat="34.9401814" lon="32.8662101">
<ele>1802.66</ele>
<time>2015-04-30T09:44:18Z</time>
</trkpt>
<trkpt lat="34.9401840" lon="32.8662688">
<ele>1802.21</ele>
<time>2015-04-30T09:44:19Z</time>
</trkpt>
<trkpt lat="34.9401963" lon="32.8663264">
<ele>1801.98</ele>
<time>2015-04-30T09:44:20Z</time>
</trkpt>
<trkpt lat="34.9402014" lon="32.8663867">
<ele>1802.37</ele>
<time>2015-04-30T09:44:21Z</time>
</trkpt>
<trkpt lat="34.9402064" lon="32.8664452">
<ele>1802.57</ele>
<time>2015-04-30T09:44:22Z</time>
</trkpt>
<trkpt lat="34.9402087" lon="32.8665045">
<ele>1802.16</ele>
<time>2015-04-30T09:44:23Z</time>
</trkpt>
<trkpt lat="34.9402106" lon="32.8665739">
<ele>1801.96</ele>
<time>2015-04-30T09:44:24Z</time>
</trkpt>
<trkpt lat="34.9402152" lon="32.8666310">
<ele>1802.36</ele>
<time>2015-04-30T09:44:25Z</time>
</trkpt>
<trkpt lat="34.9402154" lon="32.8666937">
<ele>1802.56</ele>
<time>2015-04-30T09:44:26Z</time>
</trkpt>
<trkpt lat="34.9402001" lon="32.8668079">
<ele>1803.96</ele>
<time>2015-04-30T09:44:28Z</time>
</trkpt>
<trkpt lat="34.9402043" lon="32.8668647">
<ele>1803.86</ele>
<time>2015-04-30T09:44:29Z</time>
</trkpt>
<trkpt lat="34.9401881" lon="32.8669232">
<ele>1804.31</ele>
<time>2015-04-30T09:44:30Z</time>
</trkpt>
<trkpt lat="34.9401704" lon="32.8669818">
<ele>1804.54</ele>
<time>2015-04-30T09:44:31Z</time>
</trkpt>
<trkpt lat="34.9401513" lon="32.8670418">
<ele>1805.15</ele>
<time>2015-04-30T09:44:32Z</time>
</trkpt>
<trkpt lat="34.9401325" lon="32.8670924">
<ele>1805.45</ele>
<time>2015-04-30T09:44:33Z</time>
</trkpt>
<trkpt lat="34.9401062" lon="32.8671408">
<ele>1805.61</ele>
<time>2015-04-30T09:44:34Z</time>
</trkpt>
<trkpt lat="34.9400653" lon="32.8672233">
<ele>1805.72</ele>
<time>2015-04-30T09:44:36Z</time>
</trkpt>
<trkpt lat="34.9400186" lon="32.8673128">
<ele>1806.25</ele>
<time>2015-04-30T09:44:38Z</time>
</trkpt>
<trkpt lat="34.9399799" lon="32.8674094">
<ele>1806.63</ele>
<time>2015-04-30T09:44:40Z</time>
</trkpt>
<trkpt lat="34.9399494" lon="32.8674634">
<ele>1807.20</ele>
<time>2015-04-30T09:44:41Z</time>
</trkpt>
<trkpt lat="34.9399188" lon="32.8675135">
<ele>1806.98</ele>
<time>2015-04-30T09:44:42Z</time>
</trkpt>
<trkpt lat="34.9398907" lon="32.8675684">
<ele>1806.37</ele>
<time>2015-04-30T09:44:43Z</time>
</trkpt>
<trkpt lat="34.9398373" lon="32.8676725">
<ele>1806.41</ele>
<time>2015-04-30T09:44:45Z</time>
</trkpt>
<trkpt lat="34.9398181" lon="32.8677294">
<ele>1806.59</ele>
<time>2015-04-30T09:44:46Z</time>
</trkpt>
<trkpt lat="34.9397992" lon="32.8677812">
<ele>1806.67</ele>
<time>2015-04-30T09:44:47Z</time>
</trkpt>
<trkpt lat="34.9397696" lon="32.8678323">
<ele>1806.22</ele>
<time>2015-04-30T09:44:48Z</time>
</trkpt>
<trkpt lat="34.9397337" lon="32.8678791">
<ele>1806.49</ele>
<time>2015-04-30T09:44:49Z</time>
</trkpt>
<trkpt lat="34.9396933" lon="32.8679373">
<ele>1807.12</ele>
<time>2015-04-30T09:44:50Z</time>
</trkpt>
<trkpt lat="34.9396572" lon="32.8680004">
<ele>1807.94</ele>
<time>2015-04-30T09:44:51Z</time>
</trkpt>
<trkpt lat="34.9396230" lon="32.8680597">
<ele>1808.35</ele>
<time>2015-04-30T09:44:52Z</time>
</trkpt>
<trkpt lat="34.9395987" lon="32.8681341">
<ele>1808.06</ele>
<time>2015-04-30T09:44:53Z</time>
</trkpt>
<trkpt lat="34.9395710" lon="32.8681980">
<ele>1807.41</ele>
<time>2015-04-30T09:44:54Z</time>
</trkpt>
<trkpt lat="34.9395393" lon="32.8682577">
<ele>1807.58</ele>
<time>2015-04-30T09:44:55Z</time>
</trkpt>
<trkpt lat="34.9394953" lon="32.8683233">
<ele>1808.17</ele>
<time>2015-04-30T09:44:56Z</time>
</trkpt>
<trkpt lat="34.9394711" lon="32.8683878">
<ele>1808.97</ele>
<time>2015-04-30T09:44:57Z</time>
</trkpt>
<trkpt lat="34.9394448" lon="32.8684609">
<ele>1809.36</ele>
<time>2015-04-30T09:44:58Z</time>
</trkpt>
<trkpt lat="34.9394055" lon="32.8685403">
<ele>1810.06</ele>
<time>2015-04-30T09:44:59Z</time>
</trkpt>
<trkpt lat="34.9393645" lon="32.8686100">
<ele>1809.91</ele>
<time>2015-04-30T09:45:00Z</time>
</trkpt>
<trkpt lat="34.9393176" lon="32.8686963">
<ele>1809.84</ele>
<time>2015-04-30T09:45:01Z</time>
</trkpt>
<trkpt lat="34.9392736" lon="32.8687805">
<ele>1809.80</ele>
<time>2015-04-30T09:45:02Z</time>
</trkpt>
<trkpt lat="34.9392338" lon="32.8688545">
<ele>1809.78</ele>
<time>2015-04-30T09:45:03Z</time>
</trkpt>
<trkpt lat="34.9391864" lon="32.8689368">
<ele>1809.27</ele>
<time>2015-04-30T09:45:04Z</time>
</trkpt>
<trkpt lat="34.9391407" lon="32.8690184">
<ele>1808.51</ele>
<time>2015-04-30T09:45:05Z</time>
</trkpt>
<trkpt lat="34.9390854" lon="32.8690954">
<ele>1807.64</ele>
<time>2015-04-30T09:45:06Z</time>
</trkpt>
<trkpt lat="34.9390728" lon="32.8691573">
<ele>1804.20</ele>
<time>2015-04-30T09:45:07Z</time>
</trkpt>
<trkpt lat="34.9390087" lon="32.8692227">
<ele>1802.48</ele>
<time>2015-04-30T09:45:08Z</time>
</trkpt>
<trkpt lat="34.9389415" lon="32.8692922">
<ele>1802.12</ele>
<time>2015-04-30T09:45:09Z</time>
</trkpt>
<trkpt lat="34.9388705" lon="32.8693607">
<ele>1801.44</ele>
<time>2015-04-30T09:45:10Z</time>
</trkpt>
<trkpt lat="34.9387983" lon="32.8694219">
<ele>1801.10</ele>
<time>2015-04-30T09:45:11Z</time>
</trkpt>
<trkpt lat="34.9387179" lon="32.8694785">
<ele>1800.43</ele>
<time>2015-04-30T09:45:12Z</time>
</trkpt>
<trkpt lat="34.9386396" lon="32.8695248">
<ele>1800.09</ele>
<time>2015-04-30T09:45:13Z</time>
</trkpt>
<trkpt lat="34.9385506" lon="32.8695714">
<ele>1798.93</ele>
<time>2015-04-30T09:45:14Z</time>
</trkpt>
<trkpt lat="34.9384696" lon="32.8696235">
<ele>1797.84</ele>
<time>2015-04-30T09:45:15Z</time>
</trkpt>
<trkpt lat="34.9383766" lon="32.8696817">
<ele>1796.80</ele>
<time>2015-04-30T09:45:16Z</time>
</trkpt>
<trkpt lat="34.9382872" lon="32.8697333">
<ele>1796.28</ele>
<time>2015-04-30T09:45:17Z</time>
</trkpt>
<trkpt lat="34.9381916" lon="32.8697893">
<ele>1795.52</ele>
<time>2015-04-30T09:45:18Z</time>
</trkpt>
<trkpt lat="34.9380951" lon="32.8698507">
<ele>1795.14</ele>
<time>2015-04-30T09:45:19Z</time>
</trkpt>
<trkpt lat="34.9379874" lon="32.8699041">
<ele>1795.95</ele>
<time>2015-04-30T09:45:20Z</time>
</trkpt>
<trkpt lat="34.9378828" lon="32.8699610">
<ele>1795.86</ele>
<time>2015-04-30T09:45:21Z</time>
</trkpt>
<trkpt lat="34.9377796" lon="32.8700240">
<ele>1795.81</ele>
<time>2015-04-30T09:45:22Z</time>
</trkpt>
<trkpt lat="34.9376779" lon="32.8700963">
<ele>1795.78</ele>
<time>2015-04-30T09:45:23Z</time>
</trkpt>
<trkpt lat="34.9375716" lon="32.8701626">
<ele>1794.77</ele>
<time>2015-04-30T09:45:24Z</time>
</trkpt>
<trkpt lat="34.9374658" lon="32.8702119">
<ele>1794.27</ele>
<time>2015-04-30T09:45:25Z</time>
</trkpt>
<trkpt lat="34.9373598" lon="32.8702631">
<ele>1793.51</ele>
<time>2015-04-30T09:45:26Z</time>
</trkpt>
<trkpt lat="34.9372685" lon="32.8703198">
<ele>1793.64</ele>
<time>2015-04-30T09:45:27Z</time>
</trkpt>
<trkpt lat="34.9371693" lon="32.8703750">
<ele>1793.70</ele>
<time>2015-04-30T09:45:28Z</time>
</trkpt>
<trkpt lat="34.9370827" lon="32.8704310">
<ele>1793.23</ele>
<time>2015-04-30T09:45:29Z</time>
</trkpt>
<trkpt lat="34.9369915" lon="32.8704813">
<ele>1793.49</ele>
<time>2015-04-30T09:45:30Z</time>
</trkpt>
<trkpt lat="34.9369032" lon="32.8705287">
<ele>1793.63</ele>
<time>2015-04-30T09:45:31Z</time>
</trkpt>
<trkpt lat="34.9368151" lon="32.8705809">
<ele>1795.19</ele>
<time>2015-04-30T09:45:32Z</time>
</trkpt>
<trkpt lat="34.9367321" lon="32.8706182">
<ele>1795.98</ele>
<time>2015-04-30T09:45:33Z</time>
</trkpt>
<trkpt lat="34.9366645" lon="32.8706676">
<ele>1795.87</ele>
<time>2015-04-30T09:45:34Z</time>
</trkpt>
<trkpt lat="34.9365893" lon="32.8707039">
<ele>1796.81</ele>
<time>2015-04-30T09:45:35Z</time>
</trkpt>
<trkpt lat="34.9365186" lon="32.8707465">
<ele>1797.29</ele>
<time>2015-04-30T09:45:36Z</time>
</trkpt>
<trkpt lat="34.9364526" lon="32.8707862">
<ele>1797.52</ele>
<time>2015-04-30T09:45:37Z</time>
</trkpt>
<trkpt lat="34.9363905" lon="32.8708060">
<ele>1797.64</ele>
<time>2015-04-30T09:45:38Z</time>
</trkpt>
<trkpt lat="34.9363322" lon="32.8708367">
<ele>1797.70</ele>
<time>2015-04-30T09:45:39Z</time>
</trkpt>
<trkpt lat="34.9362732" lon="32.8708566">
<ele>1797.73</ele>
<time>2015-04-30T09:45:40Z</time>
</trkpt>
<trkpt lat="34.9362216" lon="32.8708673">
<ele>1797.75</ele>
<time>2015-04-30T09:45:41Z</time>
</trkpt>
<trkpt lat="34.9361666" lon="32.8708747">
<ele>1797.75</ele>
<time>2015-04-30T09:45:42Z</time>
</trkpt>
<trkpt lat="34.9361147" lon="32.8708755">
<ele>1797.76</ele>
<time>2015-04-30T09:45:43Z</time>
</trkpt>
<trkpt lat="34.9360662" lon="32.8708810">
<ele>1798.26</ele>
<time>2015-04-30T09:45:44Z</time>
</trkpt>
<trkpt lat="34.9360212" lon="32.8708869">
<ele>1798.51</ele>
<time>2015-04-30T09:45:45Z</time>
</trkpt>
<trkpt lat="34.9359560" lon="32.8709019">
<ele>1799.45</ele>
<time>2015-04-30T09:45:47Z</time>
</trkpt>
<trkpt lat="34.9358760" lon="32.8709236">
<ele>1800.43</ele>
<time>2015-04-30T09:45:49Z</time>
</trkpt>
<trkpt lat="34.9358098" lon="32.8709313">
<ele>1800.18</ele>
<time>2015-04-30T09:45:51Z</time>
</trkpt>
<trkpt lat="34.9357272" lon="32.8709539">
<ele>1799.86</ele>
<time>2015-04-30T09:45:53Z</time>
</trkpt>
<trkpt lat="34.9356524" lon="32.8709886">
<ele>1799.79</ele>
<time>2015-04-30T09:45:55Z</time>
</trkpt>
<trkpt lat="34.9355737" lon="32.8710343">
<ele>1799.77</ele>
<time>2015-04-30T09:45:57Z</time>
</trkpt>
<trkpt lat="34.9355091" lon="32.8710981">
<ele>1799.76</ele>
<time>2015-04-30T09:45:59Z</time>
</trkpt>
<trkpt lat="34.9354588" lon="32.8711779">
<ele>1800.51</ele>
<time>2015-04-30T09:46:01Z</time>
</trkpt>
<trkpt lat="34.9354488" lon="32.8712603">
<ele>1800.45</ele>
<time>2015-04-30T09:46:03Z</time>
</trkpt>
<trkpt lat="34.9354373" lon="32.8713433">
<ele>1801.18</ele>
<time>2015-04-30T09:46:05Z</time>
</trkpt>
<trkpt lat="34.9354582" lon="32.8714264">
<ele>1800.37</ele>
<time>2015-04-30T09:46:07Z</time>
</trkpt>
<trkpt lat="34.9355090" lon="32.8715063">
<ele>1799.91</ele>
<time>2015-04-30T09:46:09Z</time>
</trkpt>
<trkpt lat="34.9355743" lon="32.8715708">
<ele>1799.05</ele>
<time>2015-04-30T09:46:11Z</time>
</trkpt>
<trkpt lat="34.9356505" lon="32.8716217">
<ele>1798.83</ele>
<time>2015-04-30T09:46:13Z</time>
</trkpt>
<trkpt lat="34.9357231" lon="32.8716692">
<ele>1798.78</ele>
<time>2015-04-30T09:46:15Z</time>
</trkpt>
<trkpt lat="34.9357899" lon="32.8717143">
<ele>1798.26</ele>
<time>2015-04-30T09:46:17Z</time>
</trkpt>
<trkpt lat="34.9358502" lon="32.8717536">
<ele>1797.39</ele>
<time>2015-04-30T09:46:19Z</time>
</trkpt>
<trkpt lat="34.9359090" lon="32.8717973">
<ele>1796.42</ele>
<time>2015-04-30T09:46:21Z</time>
</trkpt>
<trkpt lat="34.9359648" lon="32.8718484">
<ele>1796.67</ele>
<time>2015-04-30T09:46:23Z</time>
</trkpt>
<trkpt lat="34.9360076" lon="32.8719225">
<ele>1796.74</ele>
<time>2015-04-30T09:46:25Z</time>
</trkpt>
<trkpt lat="34.9360364" lon="32.8720042">
<ele>1797.25</ele>
<time>2015-04-30T09:46:27Z</time>
</trkpt>
<trkpt lat="34.9360618" lon="32.8720853">
<ele>1796.88</ele>
<time>2015-04-30T09:46:29Z</time>
</trkpt>
<trkpt lat="34.9360718" lon="32.8721475">
<ele>1796.29</ele>
<time>2015-04-30T09:46:31Z</time>
</trkpt>
<trkpt lat="34.9360686" lon="32.8722300">
<ele>1795.83</ele>
<time>2015-04-30T09:46:34Z</time>
</trkpt>
<trkpt lat="34.9360759" lon="32.8722922">
<ele>1796.53</ele>
<time>2015-04-30T09:46:36Z</time>
</trkpt>
<trkpt lat="34.9360894" lon="32.8723569">
<ele>1796.70</ele>
<time>2015-04-30T09:46:38Z</time>
</trkpt>
<trkpt lat="34.9360864" lon="32.8724140">
<ele>1797.25</ele>
<time>2015-04-30T09:46:40Z</time>
</trkpt>
<trkpt lat="34.9360740" lon="32.8724674">
<ele>1798.13</ele>
<time>2015-04-30T09:46:42Z</time>
</trkpt>
<trkpt lat="34.9360629" lon="32.8725366">
<ele>1799.43</ele>
<time>2015-04-30T09:46:45Z</time>
</trkpt>
<trkpt lat="34.9360364" lon="32.8725924">
<ele>1805.28</ele>
<time>2015-04-30T09:48:02Z</time>
</trkpt>
<trkpt lat="34.9360197" lon="32.8726467">
<ele>1805.64</ele>
<time>2015-04-30T09:48:04Z</time>
</trkpt>
<trkpt lat="34.9360063" lon="32.8727198">
<ele>1805.73</ele>
<time>2015-04-30T09:48:06Z</time>
</trkpt>
<trkpt lat="34.9359887" lon="32.8727937">
<ele>1805.75</ele>
<time>2015-04-30T09:48:08Z</time>
</trkpt>
<trkpt lat="34.9359679" lon="32.8728650">
<ele>1806.26</ele>
<time>2015-04-30T09:48:10Z</time>
</trkpt>
<trkpt lat="34.9359474" lon="32.8729353">
<ele>1807.38</ele>
<time>2015-04-30T09:48:12Z</time>
</trkpt>
<trkpt lat="34.9359226" lon="32.8729978">
<ele>1806.92</ele>
<time>2015-04-30T09:48:14Z</time>
</trkpt>
<trkpt lat="34.9358916" lon="32.8730482">
<ele>1806.80</ele>
<time>2015-04-30T09:48:16Z</time>
</trkpt>
<trkpt lat="34.9358601" lon="32.8730915">
<ele>1807.27</ele>
<time>2015-04-30T09:48:18Z</time>
</trkpt>
<trkpt lat="34.9358341" lon="32.8731370">
<ele>1807.14</ele>
<time>2015-04-30T09:48:20Z</time>
</trkpt>
<trkpt lat="34.9358046" lon="32.8731796">
<ele>1806.85</ele>
<time>2015-04-30T09:48:22Z</time>
</trkpt>
<trkpt lat="34.9357594" lon="32.8732284">
<ele>1807.90</ele>
<time>2015-04-30T09:48:25Z</time>
</trkpt>
<trkpt lat="34.9357230" lon="32.8732655">
<ele>1807.78</ele>
<time>2015-04-30T09:48:28Z</time>
</trkpt>
<trkpt lat="34.9356964" lon="32.8733181">
<ele>1805.82</ele>
<time>2015-04-30T09:48:34Z</time>
</trkpt>
<trkpt lat="34.9356500" lon="32.8733338">
<ele>1807.33</ele>
<time>2015-04-30T09:49:02Z</time>
</trkpt>
<trkpt lat="34.9356040" lon="32.8733499">
<ele>1805.36</ele>
<time>2015-04-30T09:49:06Z</time>
</trkpt>
<trkpt lat="34.9355459" lon="32.8733722">
<ele>1805.80</ele>
<time>2015-04-30T09:49:10Z</time>
</trkpt>
<trkpt lat="34.9354924" lon="32.8733937">
<ele>1805.01</ele>
<time>2015-04-30T09:49:13Z</time>
</trkpt>
<trkpt lat="34.9354305" lon="32.8734158">
<ele>1805.29</ele>
<time>2015-04-30T09:49:16Z</time>
</trkpt>
<trkpt lat="34.9353821" lon="32.8734462">
<ele>1804.95</ele>
<time>2015-04-30T09:49:19Z</time>
</trkpt>
<trkpt lat="34.9353341" lon="32.8734586">
<ele>1804.76</ele>
<time>2015-04-30T09:49:31Z</time>
</trkpt>
<trkpt lat="34.9352783" lon="32.8734740">
<ele>1803.88</ele>
<time>2015-04-30T09:49:34Z</time>
</trkpt>
<trkpt lat="34.9352157" lon="32.8734905">
<ele>1805.04</ele>
<time>2015-04-30T09:49:36Z</time>
</trkpt>
<trkpt lat="34.9351389" lon="32.8735108">
<ele>1805.08</ele>
<time>2015-04-30T09:49:38Z</time>
</trkpt>
<trkpt lat="34.9350614" lon="32.8735356">
<ele>1805.59</ele>
<time>2015-04-30T09:49:40Z</time>
</trkpt>
<trkpt lat="34.9349814" lon="32.8735672">
<ele>1805.22</ele>
<time>2015-04-30T09:49:42Z</time>
</trkpt>
<trkpt lat="34.9348682" lon="32.8736272">
<ele>1803.87</ele>
<time>2015-04-30T09:49:44Z</time>
</trkpt>
<trkpt lat="34.9348196" lon="32.8736520">
<ele>1803.82</ele>
<time>2015-04-30T09:49:45Z</time>
</trkpt>
<trkpt lat="34.9347784" lon="32.8736801">
<ele>1803.29</ele>
<time>2015-04-30T09:49:46Z</time>
</trkpt>
<trkpt lat="34.9347416" lon="32.8737240">
<ele>1802.52</ele>
<time>2015-04-30T09:49:47Z</time>
</trkpt>
<trkpt lat="34.9347075" lon="32.8737790">
<ele>1802.14</ele>
<time>2015-04-30T09:49:48Z</time>
</trkpt>
<trkpt lat="34.9346802" lon="32.8738471">
<ele>1801.95</ele>
<time>2015-04-30T09:49:49Z</time>
</trkpt>
<trkpt lat="34.9346620" lon="32.8739226">
<ele>1801.86</ele>
<time>2015-04-30T09:49:50Z</time>
</trkpt>
<trkpt lat="34.9346558" lon="32.8739950">
<ele>1801.81</ele>
<time>2015-04-30T09:49:51Z</time>
</trkpt>
<trkpt lat="34.9346586" lon="32.8740785">
<ele>1801.78</ele>
<time>2015-04-30T09:49:52Z</time>
</trkpt>
<trkpt lat="34.9346728" lon="32.8741526">
<ele>1801.27</ele>
<time>2015-04-30T09:49:53Z</time>
</trkpt>
<trkpt lat="34.9346919" lon="32.8742205">
<ele>1801.02</ele>
<time>2015-04-30T09:49:54Z</time>
</trkpt>
<trkpt lat="34.9347060" lon="32.8742887">
<ele>1800.89</ele>
<time>2015-04-30T09:49:55Z</time>
</trkpt>
<trkpt lat="34.9347223" lon="32.8743664">
<ele>1800.82</ele>
<time>2015-04-30T09:49:56Z</time>
</trkpt>
<trkpt lat="34.9347319" lon="32.8744423">
<ele>1801.29</ele>
<time>2015-04-30T09:49:57Z</time>
</trkpt>
<trkpt lat="34.9347411" lon="32.8745052">
<ele>1801.53</ele>
<time>2015-04-30T09:49:58Z</time>
</trkpt>
<trkpt lat="34.9347422" lon="32.8745687">
<ele>1801.14</ele>
<time>2015-04-30T09:49:59Z</time>
</trkpt>
<trkpt lat="34.9347324" lon="32.8746335">
<ele>1800.95</ele>
<time>2015-04-30T09:50:00Z</time>
</trkpt>
<trkpt lat="34.9347189" lon="32.8747093">
<ele>1801.36</ele>
<time>2015-04-30T09:50:01Z</time>
</trkpt>
<trkpt lat="34.9346917" lon="32.8747664">
<ele>1801.56</ele>
<time>2015-04-30T09:50:02Z</time>
</trkpt>
<trkpt lat="34.9346710" lon="32.8748302">
<ele>1800.66</ele>
<time>2015-04-30T09:50:03Z</time>
</trkpt>
<trkpt lat="34.9346326" lon="32.8748775">
<ele>1800.71</ele>
<time>2015-04-30T09:50:04Z</time>
</trkpt>
<trkpt lat="34.9345740" lon="32.8749062">
<ele>1800.73</ele>
<time>2015-04-30T09:50:05Z</time>
</trkpt>
<trkpt lat="34.9345278" lon="32.8749325">
<ele>1799.75</ele>
<time>2015-04-30T09:50:06Z</time>
</trkpt>
<trkpt lat="34.9344715" lon="32.8749477">
<ele>1799.75</ele>
<time>2015-04-30T09:50:07Z</time>
</trkpt>
<trkpt lat="34.9344143" lon="32.8749537">
<ele>1799.26</ele>
<time>2015-04-30T09:50:08Z</time>
</trkpt>
<trkpt lat="34.9343604" lon="32.8749496">
<ele>1799.01</ele>
<time>2015-04-30T09:50:09Z</time>
</trkpt>
<trkpt lat="34.9343057" lon="32.8749488">
<ele>1798.88</ele>
<time>2015-04-30T09:50:10Z</time>
</trkpt>
<trkpt lat="34.9342310" lon="32.8749366">
<ele>1798.79</ele>
<time>2015-04-30T09:50:12Z</time>
</trkpt>
<trkpt lat="34.9341643" lon="32.8749271">
<ele>1798.77</ele>
<time>2015-04-30T09:50:14Z</time>
</trkpt>
<trkpt lat="34.9341028" lon="32.8748991">
<ele>1798.26</ele>
<time>2015-04-30T09:50:16Z</time>
</trkpt>
<trkpt lat="34.9340548" lon="32.8748761">
<ele>1797.14</ele>
<time>2015-04-30T09:50:18Z</time>
</trkpt>
<trkpt lat="34.9339990" lon="32.8748501">
<ele>1796.85</ele>
<time>2015-04-30T09:50:20Z</time>
</trkpt>
<trkpt lat="34.9339404" lon="32.8748200">
<ele>1796.78</ele>
<time>2015-04-30T09:50:22Z</time>
</trkpt>
<trkpt lat="34.9338799" lon="32.8747949">
<ele>1796.77</ele>
<time>2015-04-30T09:50:24Z</time>
</trkpt>
<trkpt lat="34.9338166" lon="32.8747799">
<ele>1795.51</ele>
<time>2015-04-30T09:50:26Z</time>
</trkpt>
<trkpt lat="34.9337533" lon="32.8747772">
<ele>1794.20</ele>
<time>2015-04-30T09:50:28Z</time>
</trkpt>
<trkpt lat="34.9336873" lon="32.8747831">
<ele>1794.62</ele>
<time>2015-04-30T09:50:30Z</time>
</trkpt>
<trkpt lat="34.9336157" lon="32.8748115">
<ele>1794.22</ele>
<time>2015-04-30T09:50:32Z</time>
</trkpt>
<trkpt lat="34.9335542" lon="32.8748591">
<ele>1794.49</ele>
<time>2015-04-30T09:50:33Z</time>
</trkpt>
<trkpt lat="34.9335058" lon="32.8749046">
<ele>1794.63</ele>
<time>2015-04-30T09:50:34Z</time>
</trkpt>
<trkpt lat="34.9334665" lon="32.8749547">
<ele>1795.19</ele>
<time>2015-04-30T09:50:35Z</time>
</trkpt>
<trkpt lat="34.9334231" lon="32.8750112">
<ele>1795.48</ele>
<time>2015-04-30T09:50:36Z</time>
</trkpt>
<trkpt lat="34.9333850" lon="32.8750891">
<ele>1795.62</ele>
<time>2015-04-30T09:50:37Z</time>
</trkpt>
<trkpt lat="34.9333542" lon="32.8751590">
<ele>1795.19</ele>
<time>2015-04-30T09:50:38Z</time>
</trkpt>
<trkpt lat="34.9333291" lon="32.8752470">
<ele>1794.97</ele>
<time>2015-04-30T09:50:39Z</time>
</trkpt>
<trkpt lat="34.9333092" lon="32.8753366">
<ele>1794.37</ele>
<time>2015-04-30T09:50:40Z</time>
</trkpt>
<trkpt lat="34.9332871" lon="32.8754216">
<ele>1793.56</ele>
<time>2015-04-30T09:50:41Z</time>
</trkpt>
<trkpt lat="34.9332693" lon="32.8755025">
<ele>1793.16</ele>
<time>2015-04-30T09:50:42Z</time>
</trkpt>
<trkpt lat="34.9332333" lon="32.8755928">
<ele>1792.96</ele>
<time>2015-04-30T09:50:43Z</time>
</trkpt>
<trkpt lat="34.9331885" lon="32.8756774">
<ele>1792.86</ele>
<time>2015-04-30T09:50:44Z</time>
</trkpt>
<trkpt lat="34.9331530" lon="32.8757437">
<ele>1792.81</ele>
<time>2015-04-30T09:50:45Z</time>
</trkpt>
<trkpt lat="34.9331129" lon="32.8758024">
<ele>1792.79</ele>
<time>2015-04-30T09:50:46Z</time>
</trkpt>
<trkpt lat="34.9330631" lon="32.8758730">
<ele>1791.77</ele>
<time>2015-04-30T09:50:47Z</time>
</trkpt>
<trkpt lat="34.9329930" lon="32.8759376">
<ele>1791.27</ele>
<time>2015-04-30T09:50:48Z</time>
</trkpt>
<trkpt lat="34.9329334" lon="32.8759958">
<ele>1791.51</ele>
<time>2015-04-30T09:50:49Z</time>
</trkpt>
<trkpt lat="34.9328635" lon="32.8760395">
<ele>1791.14</ele>
<time>2015-04-30T09:50:50Z</time>
</trkpt>
<trkpt lat="34.9327965" lon="32.8760831">
<ele>1790.45</ele>
<time>2015-04-30T09:50:51Z</time>
</trkpt>
<trkpt lat="34.9327253" lon="32.8761309">
<ele>1789.60</ele>
<time>2015-04-30T09:50:52Z</time>
</trkpt>
<trkpt lat="34.9326335" lon="32.8761768">
<ele>1788.68</ele>
<time>2015-04-30T09:50:53Z</time>
</trkpt>
<trkpt lat="34.9325468" lon="32.8762154">
<ele>1788.22</ele>
<time>2015-04-30T09:50:54Z</time>
</trkpt>
<trkpt lat="34.9324562" lon="32.8762646">
<ele>1787.49</ele>
<time>2015-04-30T09:50:55Z</time>
</trkpt>
<trkpt lat="34.9323618" lon="32.8763154">
<ele>1786.63</ele>
<time>2015-04-30T09:50:56Z</time>
</trkpt>
<trkpt lat="34.9322698" lon="32.8763604">
<ele>1785.69</ele>
<time>2015-04-30T09:50:57Z</time>
</trkpt>
<trkpt lat="34.9321765" lon="32.8764155">
<ele>1784.23</ele>
<time>2015-04-30T09:50:58Z</time>
</trkpt>
<trkpt lat="34.9320786" lon="32.8764692">
<ele>1783.49</ele>
<time>2015-04-30T09:50:59Z</time>
</trkpt>
<trkpt lat="34.9319663" lon="32.8765182">
<ele>1782.63</ele>
<time>2015-04-30T09:51:00Z</time>
</trkpt>
<trkpt lat="34.9318656" lon="32.8765810">
<ele>1782.19</ele>
<time>2015-04-30T09:51:01Z</time>
</trkpt>
<trkpt lat="34.9317743" lon="32.8766361">
<ele>1780.98</ele>
<time>2015-04-30T09:51:02Z</time>
</trkpt>
<trkpt lat="34.9316804" lon="32.8766876">
<ele>1779.37</ele>
<time>2015-04-30T09:51:03Z</time>
</trkpt>
<trkpt lat="34.9315808" lon="32.8767375">
<ele>1778.56</ele>
<time>2015-04-30T09:51:04Z</time>
</trkpt>
<trkpt lat="34.9314822" lon="32.8767781">
<ele>1777.66</ele>
<time>2015-04-30T09:51:05Z</time>
</trkpt>
<trkpt lat="34.9313736" lon="32.8768038">
<ele>1777.21</ele>
<time>2015-04-30T09:51:06Z</time>
</trkpt>
<trkpt lat="34.9312641" lon="32.8768169">
<ele>1776.99</ele>
<time>2015-04-30T09:51:07Z</time>
</trkpt>
<trkpt lat="34.9311523" lon="32.8768341">
<ele>1776.37</ele>
<time>2015-04-30T09:51:08Z</time>
</trkpt>
<trkpt lat="34.9310455" lon="32.8768266">
<ele>1776.07</ele>
<time>2015-04-30T09:51:09Z</time>
</trkpt>
<trkpt lat="34.9309469" lon="32.8768044">
<ele>1775.41</ele>
<time>2015-04-30T09:51:10Z</time>
</trkpt>
<trkpt lat="34.9308476" lon="32.8767748">
<ele>1775.09</ele>
<time>2015-04-30T09:51:11Z</time>
</trkpt>
<trkpt lat="34.9307456" lon="32.8767299">
<ele>1774.42</ele>
<time>2015-04-30T09:51:12Z</time>
</trkpt>
<trkpt lat="34.9306387" lon="32.8766874">
<ele>1773.59</ele>
<time>2015-04-30T09:51:13Z</time>
</trkpt>
<trkpt lat="34.9305291" lon="32.8766647">
<ele>1773.18</ele>
<time>2015-04-30T09:51:14Z</time>
</trkpt>
<trkpt lat="34.9304262" lon="32.8766472">
<ele>1772.47</ele>
<time>2015-04-30T09:51:15Z</time>
</trkpt>
<trkpt lat="34.9303023" lon="32.8766419">
<ele>1771.61</ele>
<time>2015-04-30T09:51:16Z</time>
</trkpt>
<trkpt lat="34.9301850" lon="32.8766499">
<ele>1770.69</ele>
<time>2015-04-30T09:51:17Z</time>
</trkpt>
<trkpt lat="34.9300623" lon="32.8766742">
<ele>1769.72</ele>
<time>2015-04-30T09:51:18Z</time>
</trkpt>
<trkpt lat="34.9299452" lon="32.8767012">
<ele>1768.74</ele>
<time>2015-04-30T09:51:19Z</time>
</trkpt>
<trkpt lat="34.9298220" lon="32.8767296">
<ele>1767.75</ele>
<time>2015-04-30T09:51:20Z</time>
</trkpt>
<trkpt lat="34.9297114" lon="32.8767615">
<ele>1766.76</ele>
<time>2015-04-30T09:51:21Z</time>
</trkpt>
<trkpt lat="34.9295894" lon="32.8767845">
<ele>1766.26</ele>
<time>2015-04-30T09:51:22Z</time>
</trkpt>
<trkpt lat="34.9294849" lon="32.8768082">
<ele>1765.51</ele>
<time>2015-04-30T09:51:23Z</time>
</trkpt>
<trkpt lat="34.9293656" lon="32.8768381">
<ele>1765.13</ele>
<time>2015-04-30T09:51:24Z</time>
</trkpt>
<trkpt lat="34.9292607" lon="32.8768629">
<ele>1764.45</ele>
<time>2015-04-30T09:51:25Z</time>
</trkpt>
<trkpt lat="34.9291556" lon="32.8768961">
<ele>1763.60</ele>
<time>2015-04-30T09:51:26Z</time>
</trkpt>
<trkpt lat="34.9290482" lon="32.8769181">
<ele>1763.18</ele>
<time>2015-04-30T09:51:27Z</time>
</trkpt>
<trkpt lat="34.9289404" lon="32.8769519">
<ele>1762.47</ele>
<time>2015-04-30T09:51:28Z</time>
</trkpt>
<trkpt lat="34.9288363" lon="32.8769977">
<ele>1762.12</ele>
<time>2015-04-30T09:51:29Z</time>
</trkpt>
<trkpt lat="34.9287373" lon="32.8770361">
<ele>1761.44</ele>
<time>2015-04-30T09:51:30Z</time>
</trkpt>
<trkpt lat="34.9286458" lon="32.8770930">
<ele>1760.60</ele>
<time>2015-04-30T09:51:31Z</time>
</trkpt>
<trkpt lat="34.9285403" lon="32.8771467">
<ele>1760.68</ele>
<time>2015-04-30T09:51:32Z</time>
</trkpt>
<trkpt lat="34.9284590" lon="32.8772164">
<ele>1761.22</ele>
<time>2015-04-30T09:51:33Z</time>
</trkpt>
<trkpt lat="34.9283731" lon="32.8772850">
<ele>1760.99</ele>
<time>2015-04-30T09:51:34Z</time>
</trkpt>
<trkpt lat="34.9282929" lon="32.8773629">
<ele>1760.37</ele>
<time>2015-04-30T09:51:35Z</time>
</trkpt>
<trkpt lat="34.9282097" lon="32.8774357">
<ele>1759.57</ele>
<time>2015-04-30T09:51:36Z</time>
</trkpt>
<trkpt lat="34.9281243" lon="32.8775003">
<ele>1759.16</ele>
<time>2015-04-30T09:51:37Z</time>
</trkpt>
<trkpt lat="34.9280398" lon="32.8775636">
<ele>1758.46</ele>
<time>2015-04-30T09:51:38Z</time>
</trkpt>
<trkpt lat="34.9279612" lon="32.8776294">
<ele>1757.61</ele>
<time>2015-04-30T09:51:39Z</time>
</trkpt>
<trkpt lat="34.9278724" lon="32.8776998">
<ele>1756.69</ele>
<time>2015-04-30T09:51:40Z</time>
</trkpt>
<trkpt lat="34.9277864" lon="32.8777560">
<ele>1756.22</ele>
<time>2015-04-30T09:51:41Z</time>
</trkpt>
<trkpt lat="34.9277004" lon="32.8778207">
<ele>1755.99</ele>
<time>2015-04-30T09:51:42Z</time>
</trkpt>
<trkpt lat="34.9276172" lon="32.8778862">
<ele>1755.88</ele>
<time>2015-04-30T09:51:43Z</time>
</trkpt>
<trkpt lat="34.9275379" lon="32.8779522">
<ele>1755.32</ele>
<time>2015-04-30T09:51:44Z</time>
</trkpt>
<trkpt lat="34.9274684" lon="32.8780269">
<ele>1755.04</ele>
<time>2015-04-30T09:51:45Z</time>
</trkpt>
<trkpt lat="34.9274018" lon="32.8780980">
<ele>1754.90</ele>
<time>2015-04-30T09:51:46Z</time>
</trkpt>
<trkpt lat="34.9273486" lon="32.8781879">
<ele>1753.83</ele>
<time>2015-04-30T09:51:47Z</time>
</trkpt>
<trkpt lat="34.9272962" lon="32.8782836">
<ele>1752.79</ele>
<time>2015-04-30T09:51:48Z</time>
</trkpt>
<trkpt lat="34.9272463" lon="32.8783779">
<ele>1752.28</ele>
<time>2015-04-30T09:51:49Z</time>
</trkpt>
<trkpt lat="34.9271946" lon="32.8784638">
<ele>1751.52</ele>
<time>2015-04-30T09:51:50Z</time>
</trkpt>
<trkpt lat="34.9271437" lon="32.8785413">
<ele>1751.14</ele>
<time>2015-04-30T09:51:51Z</time>
</trkpt>
<trkpt lat="34.9270904" lon="32.8786236">
<ele>1750.45</ele>
<time>2015-04-30T09:51:52Z</time>
</trkpt>
<trkpt lat="34.9270046" lon="32.8786748">
<ele>1750.60</ele>
<time>2015-04-30T09:51:53Z</time>
</trkpt>
<trkpt lat="34.9269245" lon="32.8786990">
<ele>1750.68</ele>
<time>2015-04-30T09:51:54Z</time>
</trkpt>
<trkpt lat="34.9268496" lon="32.8787044">
<ele>1750.22</ele>
<time>2015-04-30T09:51:55Z</time>
</trkpt>
<trkpt lat="34.9267663" lon="32.8786926">
<ele>1749.99</ele>
<time>2015-04-30T09:51:56Z</time>
</trkpt>
<trkpt lat="34.9266986" lon="32.8786661">
<ele>1749.38</ele>
<time>2015-04-30T09:51:57Z</time>
</trkpt>
<trkpt lat="34.9266300" lon="32.8786381">
<ele>1749.57</ele>
<time>2015-04-30T09:51:58Z</time>
</trkpt>
<trkpt lat="34.9265779" lon="32.8786053">
<ele>1749.16</ele>
<time>2015-04-30T09:51:59Z</time>
</trkpt>
<trkpt lat="34.9265228" lon="32.8785569">
<ele>1748.96</ele>
<time>2015-04-30T09:52:00Z</time>
</trkpt>
<trkpt lat="34.9264661" lon="32.8785216">
<ele>1748.86</ele>
<time>2015-04-30T09:52:01Z</time>
</trkpt>
<trkpt lat="34.9264177" lon="32.8784759">
<ele>1748.81</ele>
<time>2015-04-30T09:52:02Z</time>
</trkpt>
<trkpt lat="34.9263728" lon="32.8784274">
<ele>1748.79</ele>
<time>2015-04-30T09:52:03Z</time>
</trkpt>
<trkpt lat="34.9263243" lon="32.8783774">
<ele>1748.27</ele>
<time>2015-04-30T09:52:04Z</time>
</trkpt>
<trkpt lat="34.9262724" lon="32.8783377">
<ele>1748.02</ele>
<time>2015-04-30T09:52:05Z</time>
</trkpt>
<trkpt lat="34.9262208" lon="32.8782920">
<ele>1747.89</ele>
<time>2015-04-30T09:52:06Z</time>
</trkpt>
<trkpt lat="34.9261844" lon="32.8782491">
<ele>1747.32</ele>
<time>2015-04-30T09:52:07Z</time>
</trkpt>
<trkpt lat="34.9261430" lon="32.8782083">
<ele>1747.54</ele>
<time>2015-04-30T09:52:08Z</time>
</trkpt>
<trkpt lat="34.9261034" lon="32.8781737">
<ele>1747.15</ele>
<time>2015-04-30T09:52:09Z</time>
</trkpt>
<trkpt lat="34.9260318" lon="32.8781021">
<ele>1746.86</ele>
<time>2015-04-30T09:52:11Z</time>
</trkpt>
<trkpt lat="34.9259925" lon="32.8780642">
<ele>1746.81</ele>
<time>2015-04-30T09:52:12Z</time>
</trkpt>
<trkpt lat="34.9259524" lon="32.8780190">
<ele>1746.28</ele>
<time>2015-04-30T09:52:13Z</time>
</trkpt>
<trkpt lat="34.9258819" lon="32.8779654">
<ele>1746.39</ele>
<time>2015-04-30T09:52:15Z</time>
</trkpt>
<trkpt lat="34.9258103" lon="32.8779008">
<ele>1746.67</ele>
<time>2015-04-30T09:52:17Z</time>
</trkpt>
<trkpt lat="34.9257416" lon="32.8778442">
<ele>1746.74</ele>
<time>2015-04-30T09:52:19Z</time>
</trkpt>
<trkpt lat="34.9256944" lon="32.8778232">
<ele>1746.25</ele>
<time>2015-04-30T09:52:20Z</time>
</trkpt>
<trkpt lat="34.9256173" lon="32.8777716">
<ele>1745.88</ele>
<time>2015-04-30T09:52:22Z</time>
</trkpt>
<trkpt lat="34.9255722" lon="32.8777573">
<ele>1745.82</ele>
<time>2015-04-30T09:52:23Z</time>
</trkpt>
<trkpt lat="34.9255283" lon="32.8777380">
<ele>1745.79</ele>
<time>2015-04-30T09:52:24Z</time>
</trkpt>
<trkpt lat="34.9254842" lon="32.8777261">
<ele>1745.78</ele>
<time>2015-04-30T09:52:25Z</time>
</trkpt>
<trkpt lat="34.9254319" lon="32.8777269">
<ele>1745.77</ele>
<time>2015-04-30T09:52:26Z</time>
</trkpt>
<trkpt lat="34.9253371" lon="32.8777521">
<ele>1746.51</ele>
<time>2015-04-30T09:52:28Z</time>
</trkpt>
<trkpt lat="34.9252882" lon="32.8777742">
<ele>1746.64</ele>
<time>2015-04-30T09:52:29Z</time>
</trkpt>
<trkpt lat="34.9252473" lon="32.8778040">
<ele>1746.70</ele>
<time>2015-04-30T09:52:30Z</time>
</trkpt>
<trkpt lat="34.9252071" lon="32.8778390">
<ele>1746.73</ele>
<time>2015-04-30T09:52:31Z</time>
</trkpt>
<trkpt lat="34.9251700" lon="32.8778804">
<ele>1746.74</ele>
<time>2015-04-30T09:52:32Z</time>
</trkpt>
<trkpt lat="34.9251236" lon="32.8779217">
<ele>1746.75</ele>
<time>2015-04-30T09:52:33Z</time>
</trkpt>
<trkpt lat="34.9250830" lon="32.8779782">
<ele>1746.26</ele>
<time>2015-04-30T09:52:34Z</time>
</trkpt>
<trkpt lat="34.9250434" lon="32.8780355">
<ele>1746.01</ele>
<time>2015-04-30T09:52:35Z</time>
</trkpt>
<trkpt lat="34.9249998" lon="32.8780869">
<ele>1745.38</ele>
<time>2015-04-30T09:52:36Z</time>
</trkpt>
<trkpt lat="34.9249567" lon="32.8781232">
<ele>1744.57</ele>
<time>2015-04-30T09:52:37Z</time>
</trkpt>
<trkpt lat="34.9249178" lon="32.8781718">
<ele>1743.67</ele>
<time>2015-04-30T09:52:38Z</time>
</trkpt>
<trkpt lat="34.9248711" lon="32.8782362">
<ele>1742.71</ele>
<time>2015-04-30T09:52:39Z</time>
</trkpt>
<trkpt lat="34.9248210" lon="32.8783106">
<ele>1741.74</ele>
<time>2015-04-30T09:52:40Z</time>
</trkpt>
<trkpt lat="34.9247653" lon="32.8783785">
<ele>1741.25</ele>
<time>2015-04-30T09:52:41Z</time>
</trkpt>
<trkpt lat="34.9247108" lon="32.8784342">
<ele>1741.00</ele>
<time>2015-04-30T09:52:42Z</time>
</trkpt>
<trkpt lat="34.9246601" lon="32.8784954">
<ele>1741.38</ele>
<time>2015-04-30T09:52:43Z</time>
</trkpt>
<trkpt lat="34.9246047" lon="32.8785743">
<ele>1741.57</ele>
<time>2015-04-30T09:52:44Z</time>
</trkpt>
<trkpt lat="34.9245535" lon="32.8786513">
<ele>1741.67</ele>
<time>2015-04-30T09:52:45Z</time>
</trkpt>
<trkpt lat="34.9245079" lon="32.8787300">
<ele>1741.71</ele>
<time>2015-04-30T09:52:46Z</time>
</trkpt>
<trkpt lat="34.9244657" lon="32.8788126">
<ele>1741.74</ele>
<time>2015-04-30T09:52:47Z</time>
</trkpt>
<trkpt lat="34.9244240" lon="32.8789007">
<ele>1741.75</ele>
<time>2015-04-30T09:52:48Z</time>
</trkpt>
<trkpt lat="34.9243954" lon="32.8789984">
<ele>1741.25</ele>
<time>2015-04-30T09:52:49Z</time>
</trkpt>
<trkpt lat="34.9243698" lon="32.8790947">
<ele>1740.51</ele>
<time>2015-04-30T09:52:50Z</time>
</trkpt>
<trkpt lat="34.9243480" lon="32.8791927">
<ele>1739.63</ele>
<time>2015-04-30T09:52:51Z</time>
</trkpt>
<trkpt lat="34.9243519" lon="32.8793000">
<ele>1739.20</ele>
<time>2015-04-30T09:52:52Z</time>
</trkpt>
<trkpt lat="34.9243634" lon="32.8794097">
<ele>1738.48</ele>
<time>2015-04-30T09:52:53Z</time>
</trkpt>
<trkpt lat="34.9243845" lon="32.8795220">
<ele>1738.12</ele>
<time>2015-04-30T09:52:54Z</time>
</trkpt>
<trkpt lat="34.9244104" lon="32.8796315">
<ele>1737.44</ele>
<time>2015-04-30T09:52:55Z</time>
</trkpt>
<trkpt lat="34.9244357" lon="32.8797575">
<ele>1737.10</ele>
<time>2015-04-30T09:52:56Z</time>
</trkpt>
<trkpt lat="34.9244732" lon="32.8798691">
<ele>1736.43</ele>
<time>2015-04-30T09:52:57Z</time>
</trkpt>
<trkpt lat="34.9244999" lon="32.8799857">
<ele>1736.09</ele>
<time>2015-04-30T09:52:58Z</time>
</trkpt>
<trkpt lat="34.9245154" lon="32.8800867">
<ele>1735.93</ele>
<time>2015-04-30T09:52:59Z</time>
</trkpt>
<trkpt lat="34.9245127" lon="32.8802094">
<ele>1735.84</ele>
<time>2015-04-30T09:53:00Z</time>
</trkpt>
<trkpt lat="34.9245011" lon="32.8803200">
<ele>1736.30</ele>
<time>2015-04-30T09:53:01Z</time>
</trkpt>
<trkpt lat="34.9244871" lon="32.8804245">
<ele>1736.53</ele>
<time>2015-04-30T09:53:02Z</time>
</trkpt>
<trkpt lat="34.9244616" lon="32.8805178">
<ele>1736.65</ele>
<time>2015-04-30T09:53:03Z</time>
</trkpt>
<trkpt lat="34.9244303" lon="32.8806062">
<ele>1736.20</ele>
<time>2015-04-30T09:53:04Z</time>
</trkpt>
<trkpt lat="34.9244015" lon="32.8807025">
<ele>1735.98</ele>
<time>2015-04-30T09:53:05Z</time>
</trkpt>
<trkpt lat="34.9243760" lon="32.8807768">
<ele>1736.37</ele>
<time>2015-04-30T09:53:06Z</time>
</trkpt>
<trkpt lat="34.9243320" lon="32.8808542">
<ele>1736.57</ele>
<time>2015-04-30T09:53:07Z</time>
</trkpt>
<trkpt lat="34.9242866" lon="32.8809374">
<ele>1736.66</ele>
<time>2015-04-30T09:53:08Z</time>
</trkpt>
<trkpt lat="34.9242470" lon="32.8810167">
<ele>1736.21</ele>
<time>2015-04-30T09:53:09Z</time>
</trkpt>
<trkpt lat="34.9242099" lon="32.8810856">
<ele>1735.99</ele>
<time>2015-04-30T09:53:10Z</time>
</trkpt>
<trkpt lat="34.9241989" lon="32.8811429">
<ele>1734.37</ele>
<time>2015-04-30T09:53:11Z</time>
</trkpt>
<trkpt lat="34.9241758" lon="32.8812126">
<ele>1731.91</ele>
<time>2015-04-30T09:53:13Z</time>
</trkpt>
<trkpt lat="34.9241550" lon="32.8812639">
<ele>1732.14</ele>
<time>2015-04-30T09:53:17Z</time>
</trkpt>
<trkpt lat="34.9241201" lon="32.8813009">
<ele>1730.52</ele>
<time>2015-04-30T09:53:23Z</time>
</trkpt>
<trkpt lat="34.9240639" lon="32.8813021">
<ele>1727.97</ele>
<time>2015-04-30T09:53:28Z</time>
</trkpt>
<trkpt lat="34.9240064" lon="32.8812879">
<ele>1725.40</ele>
<time>2015-04-30T09:53:32Z</time>
</trkpt>
<trkpt lat="34.9239494" lon="32.8812347">
<ele>1725.34</ele>
<time>2015-04-30T09:53:35Z</time>
</trkpt>
<trkpt lat="34.9239004" lon="32.8811858">
<ele>1725.65</ele>
<time>2015-04-30T09:53:37Z</time>
</trkpt>
<trkpt lat="34.9238548" lon="32.8811343">
<ele>1725.73</ele>
<time>2015-04-30T09:53:39Z</time>
</trkpt>
<trkpt lat="34.9238205" lon="32.8810781">
<ele>1726.25</ele>
<time>2015-04-30T09:53:41Z</time>
</trkpt>
<trkpt lat="34.9237970" lon="32.8810234">
<ele>1727.38</ele>
<time>2015-04-30T09:53:43Z</time>
</trkpt>
<trkpt lat="34.9237731" lon="32.8809740">
<ele>1728.17</ele>
<time>2015-04-30T09:53:45Z</time>
</trkpt>
<trkpt lat="34.9237214" lon="32.8809206">
<ele>1730.31</ele>
<time>2015-04-30T09:53:48Z</time>
</trkpt>
<trkpt lat="34.9236845" lon="32.8808838">
<ele>1729.90</ele>
<time>2015-04-30T09:53:50Z</time>
</trkpt>
<trkpt lat="34.9236512" lon="32.8808404">
<ele>1729.29</ele>
<time>2015-04-30T09:53:52Z</time>
</trkpt>
<trkpt lat="34.9236183" lon="32.8807922">
<ele>1728.89</ele>
<time>2015-04-30T09:53:54Z</time>
</trkpt>
<trkpt lat="34.9235874" lon="32.8807448">
<ele>1729.79</ele>
<time>2015-04-30T09:53:56Z</time>
</trkpt>
<trkpt lat="34.9235610" lon="32.8806959">
<ele>1730.02</ele>
<time>2015-04-30T09:53:58Z</time>
</trkpt>
<trkpt lat="34.9235373" lon="32.8806466">
<ele>1730.57</ele>
<time>2015-04-30T09:54:00Z</time>
</trkpt>
<trkpt lat="34.9234950" lon="32.8805869">
<ele>1730.74</ele>
<time>2015-04-30T09:54:03Z</time>
</trkpt>
<trkpt lat="34.9234426" lon="32.8805460">
<ele>1732.38</ele>
<time>2015-04-30T09:54:06Z</time>
</trkpt>
<trkpt lat="34.9233997" lon="32.8805009">
<ele>1732.96</ele>
<time>2015-04-30T09:54:09Z</time>
</trkpt>
<trkpt lat="34.9233553" lon="32.8804582">
<ele>1731.29</ele>
<time>2015-04-30T09:54:12Z</time>
</trkpt>
<trkpt lat="34.9233018" lon="32.8804422">
<ele>1730.08</ele>
<time>2015-04-30T09:54:15Z</time>
</trkpt>
<trkpt lat="34.9232397" lon="32.8804346">
<ele>1730.17</ele>
<time>2015-04-30T09:54:18Z</time>
</trkpt>
<trkpt lat="34.9231818" lon="32.8804128">
<ele>1730.56</ele>
<time>2015-04-30T09:54:21Z</time>
</trkpt>
<trkpt lat="34.9231172" lon="32.8803819">
<ele>1729.86</ele>
<time>2015-04-30T09:54:24Z</time>
</trkpt>
<trkpt lat="34.9230687" lon="32.8803623">
<ele>1729.79</ele>
<time>2015-04-30T09:54:26Z</time>
</trkpt>
<trkpt lat="34.9230160" lon="32.8803398">
<ele>1729.77</ele>
<time>2015-04-30T09:54:28Z</time>
</trkpt>
<trkpt lat="34.9229612" lon="32.8803274">
<ele>1729.01</ele>
<time>2015-04-30T09:54:30Z</time>
</trkpt>
<trkpt lat="34.9229087" lon="32.8803292">
<ele>1728.82</ele>
<time>2015-04-30T09:54:32Z</time>
</trkpt>
<trkpt lat="34.9228606" lon="32.8803282">
<ele>1729.53</ele>
<time>2015-04-30T09:54:34Z</time>
</trkpt>
<trkpt lat="34.9227991" lon="32.8803242">
<ele>1728.73</ele>
<time>2015-04-30T09:54:37Z</time>
</trkpt>
<trkpt lat="34.9227442" lon="32.8803495">
<ele>1728.76</ele>
<time>2015-04-30T09:54:40Z</time>
</trkpt>
<trkpt lat="34.9226864" lon="32.8803403">
<ele>1730.93</ele>
<time>2015-04-30T09:54:51Z</time>
</trkpt>
<trkpt lat="34.9226332" lon="32.8803437">
<ele>1730.53</ele>
<time>2015-04-30T09:54:54Z</time>
</trkpt>
<trkpt lat="34.9225802" lon="32.8803406">
<ele>1730.61</ele>
<time>2015-04-30T09:54:57Z</time>
</trkpt>
<trkpt lat="34.9225596" lon="32.8802876">
<ele>1730.43</ele>
<time>2015-04-30T09:55:38Z</time>
</trkpt>
<trkpt lat="34.9225682" lon="32.8803503">
<ele>1723.83</ele>
<time>2015-04-30T09:56:41Z</time>
</trkpt>
<trkpt lat="34.9226099" lon="32.8803772">
<ele>1724.51</ele>
<time>2015-04-30T09:57:07Z</time>
</trkpt>
<trkpt lat="34.9225657" lon="32.8803640">
<ele>1733.50</ele>
<time>2015-04-30T10:04:25Z</time>
</trkpt>
<trkpt lat="34.9225586" lon="32.8803002">
<ele>1734.61</ele>
<time>2015-04-30T10:04:37Z</time>
</trkpt>
<trkpt lat="34.9225638" lon="32.8802432">
<ele>1733.29</ele>
<time>2015-04-30T10:04:42Z</time>
</trkpt>
<trkpt lat="34.9225634" lon="32.8802984">
<ele>1733.76</ele>
<time>2015-04-30T10:05:02Z</time>
</trkpt>
<trkpt lat="34.9225960" lon="32.8803486">
<ele>1733.04</ele>
<time>2015-04-30T10:05:07Z</time>
</trkpt>
<trkpt lat="34.9225890" lon="32.8804116">
<ele>1730.08</ele>
<time>2015-04-30T10:05:12Z</time>
</trkpt>
<trkpt lat="34.9225950" lon="32.8804701">
<ele>1730.57</ele>
<time>2015-04-30T10:05:19Z</time>
</trkpt>
<trkpt lat="34.9226150" lon="32.8805202">
<ele>1729.19</ele>
<time>2015-04-30T10:05:26Z</time>
</trkpt>
<trkpt lat="34.9226280" lon="32.8804659">
<ele>1724.72</ele>
<time>2015-04-30T10:06:22Z</time>
</trkpt>
<trkpt lat="34.9225859" lon="32.8804340">
<ele>1726.71</ele>
<time>2015-04-30T10:06:35Z</time>
</trkpt>
<trkpt lat="34.9225977" lon="32.8803793">
<ele>1727.76</ele>
<time>2015-04-30T10:10:53Z</time>
</trkpt>
<trkpt lat="34.9226504" lon="32.8803599">
<ele>1730.11</ele>
<time>2015-04-30T10:11:06Z</time>
</trkpt>
<trkpt lat="34.9227254" lon="32.8803466">
<ele>1730.85</ele>
<time>2015-04-30T10:11:08Z</time>
</trkpt>
<trkpt lat="34.9227894" lon="32.8803377">
<ele>1731.28</ele>
<time>2015-04-30T10:11:10Z</time>
</trkpt>
<trkpt lat="34.9228456" lon="32.8803379">
<ele>1732.39</ele>
<time>2015-04-30T10:11:12Z</time>
</trkpt>
<trkpt lat="34.9228956" lon="32.8803426">
<ele>1733.92</ele>
<time>2015-04-30T10:11:14Z</time>
</trkpt>
<trkpt lat="34.9229482" lon="32.8803401">
<ele>1733.80</ele>
<time>2015-04-30T10:11:16Z</time>
</trkpt>
<trkpt lat="34.9230061" lon="32.8803404">
<ele>1733.02</ele>
<time>2015-04-30T10:11:18Z</time>
</trkpt>
<trkpt lat="34.9230590" lon="32.8803508">
<ele>1732.32</ele>
<time>2015-04-30T10:11:20Z</time>
</trkpt>
<trkpt lat="34.9231076" lon="32.8803709">
<ele>1732.40</ele>
<time>2015-04-30T10:11:22Z</time>
</trkpt>
<trkpt lat="34.9231518" lon="32.8803938">
<ele>1732.17</ele>
<time>2015-04-30T10:11:24Z</time>
</trkpt>
<trkpt lat="34.9231930" lon="32.8804198">
<ele>1731.86</ele>
<time>2015-04-30T10:11:26Z</time>
</trkpt>
<trkpt lat="34.9232290" lon="32.8804581">
<ele>1732.04</ele>
<time>2015-04-30T10:11:28Z</time>
</trkpt>
<trkpt lat="34.9232484" lon="32.8805122">
<ele>1731.08</ele>
<time>2015-04-30T10:11:30Z</time>
</trkpt>
<trkpt lat="34.9232441" lon="32.8805783">
<ele>1731.34</ele>
<time>2015-04-30T10:11:32Z</time>
</trkpt>
<trkpt lat="34.9232251" lon="32.8806348">
<ele>1731.15</ele>
<time>2015-04-30T10:11:34Z</time>
</trkpt>
<trkpt lat="34.9231981" lon="32.8806808">
<ele>1731.11</ele>
<time>2015-04-30T10:11:36Z</time>
</trkpt>
<trkpt lat="34.9231912" lon="32.8807372">
<ele>1730.10</ele>
<time>2015-04-30T10:11:38Z</time>
</trkpt>
<trkpt lat="34.9231910" lon="32.8808036">
<ele>1729.84</ele>
<time>2015-04-30T10:11:40Z</time>
</trkpt>
<trkpt lat="34.9231920" lon="32.8808707">
<ele>1728.28</ele>
<time>2015-04-30T10:11:42Z</time>
</trkpt>
<trkpt lat="34.9231942" lon="32.8809408">
<ele>1726.64</ele>
<time>2015-04-30T10:11:44Z</time>
</trkpt>
<trkpt lat="34.9231814" lon="32.8810076">
<ele>1725.48</ele>
<time>2015-04-30T10:11:46Z</time>
</trkpt>
<trkpt lat="34.9231455" lon="32.8810562">
<ele>1724.94</ele>
<time>2015-04-30T10:11:48Z</time>
</trkpt>
<trkpt lat="34.9231105" lon="32.8810907">
<ele>1724.81</ele>
<time>2015-04-30T10:11:50Z</time>
</trkpt>
<trkpt lat="34.9231201" lon="32.8810342">
<ele>1720.98</ele>
<time>2015-04-30T10:12:11Z</time>
</trkpt>
<trkpt lat="34.9231604" lon="32.8810037">
<ele>1721.27</ele>
<time>2015-04-30T10:12:15Z</time>
</trkpt>
<trkpt lat="34.9232109" lon="32.8809721">
<ele>1721.20</ele>
<time>2015-04-30T10:12:18Z</time>
</trkpt>
<trkpt lat="34.9232386" lon="32.8809170">
<ele>1720.04</ele>
<time>2015-04-30T10:12:22Z</time>
</trkpt>
<trkpt lat="34.9232149" lon="32.8808449">
<ele>1725.59</ele>
<time>2015-04-30T10:12:26Z</time>
</trkpt>
<trkpt lat="34.9231965" lon="32.8807822">
<ele>1726.61</ele>
<time>2015-04-30T10:12:29Z</time>
</trkpt>
<trkpt lat="34.9231889" lon="32.8807162">
<ele>1728.99</ele>
<time>2015-04-30T10:12:32Z</time>
</trkpt>
<trkpt lat="34.9231833" lon="32.8806570">
<ele>1728.16</ele>
<time>2015-04-30T10:12:35Z</time>
</trkpt>
<trkpt lat="34.9231712" lon="32.8805913">
<ele>1729.29</ele>
<time>2015-04-30T10:12:39Z</time>
</trkpt>
<trkpt lat="34.9231720" lon="32.8805346">
<ele>1729.23</ele>
<time>2015-04-30T10:12:43Z</time>
</trkpt>
<trkpt lat="34.9231287" lon="32.8805115">
<ele>1729.46</ele>
<time>2015-04-30T10:12:48Z</time>
</trkpt>
<trkpt lat="34.9230836" lon="32.8804878">
<ele>1729.69</ele>
<time>2015-04-30T10:12:54Z</time>
</trkpt>
<trkpt lat="34.9230387" lon="32.8804496">
<ele>1725.10</ele>
<time>2015-04-30T10:13:05Z</time>
</trkpt>
<trkpt lat="34.9229887" lon="32.8804449">
<ele>1723.60</ele>
<time>2015-04-30T10:13:07Z</time>
</trkpt>
<trkpt lat="34.9229193" lon="32.8804314">
<ele>1725.11</ele>
<time>2015-04-30T10:13:10Z</time>
</trkpt>
<trkpt lat="34.9228703" lon="32.8804162">
<ele>1725.35</ele>
<time>2015-04-30T10:13:12Z</time>
</trkpt>
<trkpt lat="34.9228176" lon="32.8803877">
<ele>1726.16</ele>
<time>2015-04-30T10:13:14Z</time>
</trkpt>
<trkpt lat="34.9227580" lon="32.8803546">
<ele>1727.86</ele>
<time>2015-04-30T10:13:16Z</time>
</trkpt>
<trkpt lat="34.9227002" lon="32.8803274">
<ele>1729.28</ele>
<time>2015-04-30T10:13:18Z</time>
</trkpt>
<trkpt lat="34.9226524" lon="32.8803029">
<ele>1730.14</ele>
<time>2015-04-30T10:13:20Z</time>
</trkpt>
<trkpt lat="34.9225947" lon="32.8802840">
<ele>1729.81</ele>
<time>2015-04-30T10:13:23Z</time>
</trkpt>
<trkpt lat="34.9226111" lon="32.8803360">
<ele>1729.82</ele>
<time>2015-04-30T10:14:42Z</time>
</trkpt>
<trkpt lat="34.9226084" lon="32.8803910">
<ele>1728.76</ele>
<time>2015-04-30T10:15:54Z</time>
</trkpt>
<trkpt lat="34.9225684" lon="32.8803788">
<ele>1729.76</ele>
<time>2015-04-30T10:20:48Z</time>
</trkpt>
<trkpt lat="34.9225859" lon="32.8803530">
<ele>1729.76</ele>
<time>2015-04-30T10:50:57Z</time>
</trkpt>
<trkpt lat="34.9225827" lon="32.8802915">
<ele>1728.06</ele>
<time>2015-04-30T10:54:02Z</time>
</trkpt>
<trkpt lat="34.9226351" lon="32.8803029">
<ele>1732.71</ele>
<time>2015-04-30T10:57:07Z</time>
</trkpt>
<trkpt lat="34.9226916" lon="32.8803022">
<ele>1731.25</ele>
<time>2015-04-30T10:57:10Z</time>
</trkpt>
<trkpt lat="34.9227623" lon="32.8803035">
<ele>1731.88</ele>
<time>2015-04-30T10:57:12Z</time>
</trkpt>
<trkpt lat="34.9228394" lon="32.8803070">
<ele>1731.79</ele>
<time>2015-04-30T10:57:14Z</time>
</trkpt>
<trkpt lat="34.9229158" lon="32.8803138">
<ele>1730.27</ele>
<time>2015-04-30T10:57:16Z</time>
</trkpt>
<trkpt lat="34.9229868" lon="32.8803170">
<ele>1728.64</ele>
<time>2015-04-30T10:57:18Z</time>
</trkpt>
<trkpt lat="34.9230529" lon="32.8803216">
<ele>1727.73</ele>
<time>2015-04-30T10:57:20Z</time>
</trkpt>
<trkpt lat="34.9231185" lon="32.8803345">
<ele>1726.50</ele>
<time>2015-04-30T10:57:22Z</time>
</trkpt>
<trkpt lat="34.9231795" lon="32.8803512">
<ele>1728.20</ele>
<time>2015-04-30T10:57:24Z</time>
</trkpt>
<trkpt lat="34.9232325" lon="32.8803766">
<ele>1731.62</ele>
<time>2015-04-30T10:57:26Z</time>
</trkpt>
<trkpt lat="34.9232837" lon="32.8803955">
<ele>1732.97</ele>
<time>2015-04-30T10:57:28Z</time>
</trkpt>
<trkpt lat="34.9233360" lon="32.8804136">
<ele>1733.06</ele>
<time>2015-04-30T10:57:30Z</time>
</trkpt>
<trkpt lat="34.9233836" lon="32.8804341">
<ele>1732.84</ele>
<time>2015-04-30T10:57:32Z</time>
</trkpt>
<trkpt lat="34.9234334" lon="32.8804629">
<ele>1731.78</ele>
<time>2015-04-30T10:57:34Z</time>
</trkpt>
<trkpt lat="34.9234846" lon="32.8804961">
<ele>1730.51</ele>
<time>2015-04-30T10:57:36Z</time>
</trkpt>
<trkpt lat="34.9235380" lon="32.8805415">
<ele>1729.20</ele>
<time>2015-04-30T10:57:38Z</time>
</trkpt>
<trkpt lat="34.9235832" lon="32.8805964">
<ele>1728.87</ele>
<time>2015-04-30T10:57:40Z</time>
</trkpt>
<trkpt lat="34.9236218" lon="32.8806586">
<ele>1730.04</ele>
<time>2015-04-30T10:57:42Z</time>
</trkpt>
<trkpt lat="34.9236565" lon="32.8807310">
<ele>1731.33</ele>
<time>2015-04-30T10:57:44Z</time>
</trkpt>
<trkpt lat="34.9236858" lon="32.8808020">
<ele>1731.40</ele>
<time>2015-04-30T10:57:46Z</time>
</trkpt>
<trkpt lat="34.9237075" lon="32.8808688">
<ele>1732.42</ele>
<time>2015-04-30T10:57:48Z</time>
</trkpt>
<trkpt lat="34.9237263" lon="32.8809283">
<ele>1733.18</ele>
<time>2015-04-30T10:57:50Z</time>
</trkpt>
<trkpt lat="34.9237583" lon="32.8810008">
<ele>1734.69</ele>
<time>2015-04-30T10:57:53Z</time>
</trkpt>
<trkpt lat="34.9237858" lon="32.8810482">
<ele>1735.24</ele>
<time>2015-04-30T10:57:55Z</time>
</trkpt>
<trkpt lat="34.9238142" lon="32.8811051">
<ele>1735.38</ele>
<time>2015-04-30T10:57:57Z</time>
</trkpt>
<trkpt lat="34.9238584" lon="32.8811449">
<ele>1736.42</ele>
<time>2015-04-30T10:57:59Z</time>
</trkpt>
<trkpt lat="34.9239087" lon="32.8811847">
<ele>1736.17</ele>
<time>2015-04-30T10:58:01Z</time>
</trkpt>
<trkpt lat="34.9239529" lon="32.8812226">
<ele>1737.36</ele>
<time>2015-04-30T10:58:03Z</time>
</trkpt>
<trkpt lat="34.9239910" lon="32.8812656">
<ele>1737.66</ele>
<time>2015-04-30T10:58:05Z</time>
</trkpt>
<trkpt lat="34.9240192" lon="32.8813175">
<ele>1737.24</ele>
<time>2015-04-30T10:58:07Z</time>
</trkpt>
<trkpt lat="34.9240332" lon="32.8813848">
<ele>1737.63</ele>
<time>2015-04-30T10:58:09Z</time>
</trkpt>
<trkpt lat="34.9240391" lon="32.8814672">
<ele>1737.98</ele>
<time>2015-04-30T10:58:11Z</time>
</trkpt>
<trkpt lat="34.9240366" lon="32.8815538">
<ele>1737.87</ele>
<time>2015-04-30T10:58:12Z</time>
</trkpt>
<trkpt lat="34.9240432" lon="32.8816143">
<ele>1737.31</ele>
<time>2015-04-30T10:58:13Z</time>
</trkpt>
<trkpt lat="34.9240516" lon="32.8816837">
<ele>1736.04</ele>
<time>2015-04-30T10:58:14Z</time>
</trkpt>
<trkpt lat="34.9240574" lon="32.8817464">
<ele>1735.40</ele>
<time>2015-04-30T10:58:15Z</time>
</trkpt>
<trkpt lat="34.9240713" lon="32.8818026">
<ele>1735.08</ele>
<time>2015-04-30T10:58:16Z</time>
</trkpt>
<trkpt lat="34.9241078" lon="32.8819080">
<ele>1736.09</ele>
<time>2015-04-30T10:58:18Z</time>
</trkpt>
<trkpt lat="34.9241298" lon="32.8819662">
<ele>1736.42</ele>
<time>2015-04-30T10:58:19Z</time>
</trkpt>
<trkpt lat="34.9241595" lon="32.8820359">
<ele>1736.59</ele>
<time>2015-04-30T10:58:20Z</time>
</trkpt>
<trkpt lat="34.9242076" lon="32.8821035">
<ele>1736.68</ele>
<time>2015-04-30T10:58:21Z</time>
</trkpt>
<trkpt lat="34.9242535" lon="32.8821597">
<ele>1736.72</ele>
<time>2015-04-30T10:58:22Z</time>
</trkpt>
<trkpt lat="34.9243023" lon="32.8822062">
<ele>1736.24</ele>
<time>2015-04-30T10:58:23Z</time>
</trkpt>
<trkpt lat="34.9243549" lon="32.8822495">
<ele>1735.50</ele>
<time>2015-04-30T10:58:24Z</time>
</trkpt>
<trkpt lat="34.9244175" lon="32.8822886">
<ele>1734.63</ele>
<time>2015-04-30T10:58:25Z</time>
</trkpt>
<trkpt lat="34.9244800" lon="32.8823073">
<ele>1734.19</ele>
<time>2015-04-30T10:58:26Z</time>
</trkpt>
<trkpt lat="34.9245424" lon="32.8823251">
<ele>1733.98</ele>
<time>2015-04-30T10:58:27Z</time>
</trkpt>
<trkpt lat="34.9246230" lon="32.8823270">
<ele>1734.37</ele>
<time>2015-04-30T10:58:28Z</time>
</trkpt>
<trkpt lat="34.9247049" lon="32.8823405">
<ele>1733.06</ele>
<time>2015-04-30T10:58:29Z</time>
</trkpt>
<trkpt lat="34.9247693" lon="32.8823207">
<ele>1732.41</ele>
<time>2015-04-30T10:58:30Z</time>
</trkpt>
<trkpt lat="34.9248200" lon="32.8822909">
<ele>1732.59</ele>
<time>2015-04-30T10:58:31Z</time>
</trkpt>
<trkpt lat="34.9248835" lon="32.8822506">
<ele>1733.17</ele>
<time>2015-04-30T10:58:32Z</time>
</trkpt>
<trkpt lat="34.9249477" lon="32.8822034">
<ele>1733.47</ele>
<time>2015-04-30T10:58:33Z</time>
</trkpt>
<trkpt lat="34.9250049" lon="32.8821464">
<ele>1734.11</ele>
<time>2015-04-30T10:58:34Z</time>
</trkpt>
<trkpt lat="34.9250532" lon="32.8820912">
<ele>1734.44</ele>
<time>2015-04-30T10:58:35Z</time>
</trkpt>
<trkpt lat="34.9251049" lon="32.8820368">
<ele>1734.10</ele>
<time>2015-04-30T10:58:36Z</time>
</trkpt>
<trkpt lat="34.9251456" lon="32.8819810">
<ele>1734.43</ele>
<time>2015-04-30T10:58:37Z</time>
</trkpt>
<trkpt lat="34.9251897" lon="32.8819084">
<ele>1733.59</ele>
<time>2015-04-30T10:58:38Z</time>
</trkpt>
<trkpt lat="34.9252391" lon="32.8818442">
<ele>1733.18</ele>
<time>2015-04-30T10:58:39Z</time>
</trkpt>
<trkpt lat="34.9252951" lon="32.8817838">
<ele>1732.47</ele>
<time>2015-04-30T10:58:40Z</time>
</trkpt>
<trkpt lat="34.9253603" lon="32.8817303">
<ele>1732.11</ele>
<time>2015-04-30T10:58:41Z</time>
</trkpt>
<trkpt lat="34.9254298" lon="32.8816855">
<ele>1731.44</ele>
<time>2015-04-30T10:58:42Z</time>
</trkpt>
<trkpt lat="34.9254919" lon="32.8816431">
<ele>1731.10</ele>
<time>2015-04-30T10:58:43Z</time>
</trkpt>
<trkpt lat="34.9255736" lon="32.8816303">
<ele>1730.93</ele>
<time>2015-04-30T10:58:44Z</time>
</trkpt>
<trkpt lat="34.9256483" lon="32.8815989">
<ele>1730.34</ele>
<time>2015-04-30T10:58:45Z</time>
</trkpt>
<trkpt lat="34.9257273" lon="32.8815756">
<ele>1729.05</ele>
<time>2015-04-30T10:58:46Z</time>
</trkpt>
<trkpt lat="34.9258015" lon="32.8815460">
<ele>1727.91</ele>
<time>2015-04-30T10:58:47Z</time>
</trkpt>
<trkpt lat="34.9258788" lon="32.8815009">
<ele>1727.33</ele>
<time>2015-04-30T10:58:48Z</time>
</trkpt>
<trkpt lat="34.9259538" lon="32.8814652">
<ele>1726.55</ele>
<time>2015-04-30T10:58:49Z</time>
</trkpt>
<trkpt lat="34.9260335" lon="32.8814405">
<ele>1726.15</ele>
<time>2015-04-30T10:58:50Z</time>
</trkpt>
<trkpt lat="34.9260905" lon="32.8814034">
<ele>1726.46</ele>
<time>2015-04-30T10:58:51Z</time>
</trkpt>
<trkpt lat="34.9261658" lon="32.8813813">
<ele>1725.93</ele>
<time>2015-04-30T10:58:53Z</time>
</trkpt>
<trkpt lat="34.9262154" lon="32.8813580">
<ele>1724.55</ele>
<time>2015-04-30T10:58:55Z</time>
</trkpt>
<trkpt lat="34.9262618" lon="32.8813292">
<ele>1723.86</ele>
<time>2015-04-30T10:58:58Z</time>
</trkpt>
<trkpt lat="34.9263081" lon="32.8813145">
<ele>1722.52</ele>
<time>2015-04-30T10:59:01Z</time>
</trkpt>
<trkpt lat="34.9263542" lon="32.8813277">
<ele>1726.12</ele>
<time>2015-04-30T10:59:11Z</time>
</trkpt>
<trkpt lat="34.9263910" lon="32.8813620">
<ele>1725.72</ele>
<time>2015-04-30T10:59:40Z</time>
</trkpt>
<trkpt lat="34.9264560" lon="32.8813542">
<ele>1723.67</ele>
<time>2015-04-30T11:00:23Z</time>
</trkpt>
<trkpt lat="34.9265287" lon="32.8813264">
<ele>1722.49</ele>
<time>2015-04-30T11:00:25Z</time>
</trkpt>
<trkpt lat="34.9265758" lon="32.8813081">
<ele>1721.62</ele>
<time>2015-04-30T11:00:26Z</time>
</trkpt>
<trkpt lat="34.9266296" lon="32.8812699">
<ele>1720.69</ele>
<time>2015-04-30T11:00:27Z</time>
</trkpt>
<trkpt lat="34.9266838" lon="32.8812510">
<ele>1720.23</ele>
<time>2015-04-30T11:00:28Z</time>
</trkpt>
<trkpt lat="34.9267441" lon="32.8812396">
<ele>1719.99</ele>
<time>2015-04-30T11:00:29Z</time>
</trkpt>
<trkpt lat="34.9268052" lon="32.8812199">
<ele>1719.38</ele>
<time>2015-04-30T11:00:30Z</time>
</trkpt>
<trkpt lat="34.9268684" lon="32.8811950">
<ele>1718.57</ele>
<time>2015-04-30T11:00:31Z</time>
</trkpt>
<trkpt lat="34.9269370" lon="32.8811728">
<ele>1717.66</ele>
<time>2015-04-30T11:00:32Z</time>
</trkpt>
<trkpt lat="34.9270119" lon="32.8811528">
<ele>1716.71</ele>
<time>2015-04-30T11:00:33Z</time>
</trkpt>
<trkpt lat="34.9270902" lon="32.8811307">
<ele>1715.74</ele>
<time>2015-04-30T11:00:34Z</time>
</trkpt>
<trkpt lat="34.9271661" lon="32.8811112">
<ele>1714.75</ele>
<time>2015-04-30T11:00:35Z</time>
</trkpt>
<trkpt lat="34.9272502" lon="32.8810925">
<ele>1713.75</ele>
<time>2015-04-30T11:00:36Z</time>
</trkpt>
<trkpt lat="34.9273357" lon="32.8810834">
<ele>1713.26</ele>
<time>2015-04-30T11:00:37Z</time>
</trkpt>
<trkpt lat="34.9274274" lon="32.8810774">
<ele>1712.01</ele>
<time>2015-04-30T11:00:38Z</time>
</trkpt>
<trkpt lat="34.9275220" lon="32.8810773">
<ele>1711.38</ele>
<time>2015-04-30T11:00:39Z</time>
</trkpt>
<trkpt lat="34.9276136" lon="32.8810867">
<ele>1711.07</ele>
<time>2015-04-30T11:00:40Z</time>
</trkpt>
<trkpt lat="34.9277009" lon="32.8811176">
<ele>1710.42</ele>
<time>2015-04-30T11:00:41Z</time>
</trkpt>
<trkpt lat="34.9277874" lon="32.8811536">
<ele>1709.59</ele>
<time>2015-04-30T11:00:42Z</time>
</trkpt>
<trkpt lat="34.9278801" lon="32.8811834">
<ele>1709.17</ele>
<time>2015-04-30T11:00:43Z</time>
</trkpt>
<trkpt lat="34.9279705" lon="32.8812122">
<ele>1708.97</ele>
<time>2015-04-30T11:00:44Z</time>
</trkpt>
<trkpt lat="34.9280759" lon="32.8812380">
<ele>1707.36</ele>
<time>2015-04-30T11:00:45Z</time>
</trkpt>
<trkpt lat="34.9281656" lon="32.8812563">
<ele>1706.06</ele>
<time>2015-04-30T11:00:46Z</time>
</trkpt>
<trkpt lat="34.9282705" lon="32.8812972">
<ele>1704.91</ele>
<time>2015-04-30T11:00:47Z</time>
</trkpt>
<trkpt lat="34.9283657" lon="32.8813387">
<ele>1703.84</ele>
<time>2015-04-30T11:00:48Z</time>
</trkpt>
<trkpt lat="34.9284665" lon="32.8813820">
<ele>1703.30</ele>
<time>2015-04-30T11:00:49Z</time>
</trkpt>
<trkpt lat="34.9285704" lon="32.8814319">
<ele>1702.53</ele>
<time>2015-04-30T11:00:50Z</time>
</trkpt>
<trkpt lat="34.9286698" lon="32.8814792">
<ele>1702.14</ele>
<time>2015-04-30T11:00:51Z</time>
</trkpt>
<trkpt lat="34.9287763" lon="32.8815254">
<ele>1702.45</ele>
<time>2015-04-30T11:00:52Z</time>
</trkpt>
<trkpt lat="34.9288890" lon="32.8815797">
<ele>1701.61</ele>
<time>2015-04-30T11:00:53Z</time>
</trkpt>
<trkpt lat="34.9289930" lon="32.8816358">
<ele>1700.18</ele>
<time>2015-04-30T11:00:54Z</time>
</trkpt>
<trkpt lat="34.9291078" lon="32.8816920">
<ele>1698.97</ele>
<time>2015-04-30T11:00:55Z</time>
</trkpt>
<trkpt lat="34.9292170" lon="32.8817537">
<ele>1697.87</ele>
<time>2015-04-30T11:00:56Z</time>
</trkpt>
<trkpt lat="34.9293285" lon="32.8818112">
<ele>1696.81</ele>
<time>2015-04-30T11:00:57Z</time>
</trkpt>
<trkpt lat="34.9294404" lon="32.8818827">
<ele>1695.79</ele>
<time>2015-04-30T11:00:58Z</time>
</trkpt>
<trkpt lat="34.9295539" lon="32.8819618">
<ele>1695.27</ele>
<time>2015-04-30T11:00:59Z</time>
</trkpt>
<trkpt lat="34.9296686" lon="32.8820402">
<ele>1694.02</ele>
<time>2015-04-30T11:01:00Z</time>
</trkpt>
<trkpt lat="34.9297853" lon="32.8821196">
<ele>1691.89</ele>
<time>2015-04-30T11:01:01Z</time>
</trkpt>
<trkpt lat="34.9298935" lon="32.8822160">
<ele>1689.82</ele>
<time>2015-04-30T11:01:02Z</time>
</trkpt>
<trkpt lat="34.9300005" lon="32.8823152">
<ele>1688.29</ele>
<time>2015-04-30T11:01:03Z</time>
</trkpt>
<trkpt lat="34.9301023" lon="32.8824128">
<ele>1687.03</ele>
<time>2015-04-30T11:01:04Z</time>
</trkpt>
<trkpt lat="34.9302038" lon="32.8825155">
<ele>1685.39</ele>
<time>2015-04-30T11:01:05Z</time>
</trkpt>
<trkpt lat="34.9302974" lon="32.8826089">
<ele>1684.08</ele>
<time>2015-04-30T11:01:06Z</time>
</trkpt>
<trkpt lat="34.9303850" lon="32.8826998">
<ele>1682.42</ele>
<time>2015-04-30T11:01:07Z</time>
</trkpt>
<trkpt lat="34.9304758" lon="32.8827893">
<ele>1681.09</ele>
<time>2015-04-30T11:01:08Z</time>
</trkpt>
<trkpt lat="34.9305590" lon="32.8828765">
<ele>1679.92</ele>
<time>2015-04-30T11:01:09Z</time>
</trkpt>
<trkpt lat="34.9306414" lon="32.8829708">
<ele>1678.84</ele>
<time>2015-04-30T11:01:10Z</time>
</trkpt>
<trkpt lat="34.9307308" lon="32.8830564">
<ele>1677.80</ele>
<time>2015-04-30T11:01:11Z</time>
</trkpt>
<trkpt lat="34.9308138" lon="32.8831406">
<ele>1676.78</ele>
<time>2015-04-30T11:01:12Z</time>
</trkpt>
<trkpt lat="34.9308922" lon="32.8832115">
<ele>1675.77</ele>
<time>2015-04-30T11:01:13Z</time>
</trkpt>
<trkpt lat="34.9309627" lon="32.8832873">
<ele>1675.27</ele>
<time>2015-04-30T11:01:14Z</time>
</trkpt>
<trkpt lat="34.9310355" lon="32.8833550">
<ele>1674.51</ele>
<time>2015-04-30T11:01:15Z</time>
</trkpt>
<trkpt lat="34.9310936" lon="32.8834292">
<ele>1673.64</ele>
<time>2015-04-30T11:01:16Z</time>
</trkpt>
<trkpt lat="34.9311589" lon="32.8834928">
<ele>1672.70</ele>
<time>2015-04-30T11:01:17Z</time>
</trkpt>
<trkpt lat="34.9312284" lon="32.8835613">
<ele>1671.23</ele>
<time>2015-04-30T11:01:18Z</time>
</trkpt>
<trkpt lat="34.9313017" lon="32.8836326">
<ele>1670.49</ele>
<time>2015-04-30T11:01:19Z</time>
</trkpt>
<trkpt lat="34.9313730" lon="32.8837004">
<ele>1669.63</ele>
<time>2015-04-30T11:01:20Z</time>
</trkpt>
<trkpt lat="34.9314420" lon="32.8837775">
<ele>1668.69</ele>
<time>2015-04-30T11:01:21Z</time>
</trkpt>
<trkpt lat="34.9315216" lon="32.8838505">
<ele>1667.73</ele>
<time>2015-04-30T11:01:22Z</time>
</trkpt>
<trkpt lat="34.9315914" lon="32.8839394">
<ele>1666.74</ele>
<time>2015-04-30T11:01:23Z</time>
</trkpt>
<trkpt lat="34.9316454" lon="32.8840408">
<ele>1665.75</ele>
<time>2015-04-30T11:01:24Z</time>
</trkpt>
<trkpt lat="34.9316886" lon="32.8841434">
<ele>1664.76</ele>
<time>2015-04-30T11:01:25Z</time>
</trkpt>
<trkpt lat="34.9317221" lon="32.8842506">
<ele>1664.26</ele>
<time>2015-04-30T11:01:26Z</time>
</trkpt>
<trkpt lat="34.9317464" lon="32.8843621">
<ele>1663.51</ele>
<time>2015-04-30T11:01:27Z</time>
</trkpt>
<trkpt lat="34.9317542" lon="32.8844732">
<ele>1663.13</ele>
<time>2015-04-30T11:01:28Z</time>
</trkpt>
<trkpt lat="34.9317452" lon="32.8845888">
<ele>1662.45</ele>
<time>2015-04-30T11:01:29Z</time>
</trkpt>
<trkpt lat="34.9317355" lon="32.8847080">
<ele>1662.10</ele>
<time>2015-04-30T11:01:30Z</time>
</trkpt>
<trkpt lat="34.9317161" lon="32.8848259">
<ele>1661.93</ele>
<time>2015-04-30T11:01:31Z</time>
</trkpt>
<trkpt lat="34.9316859" lon="32.8849327">
<ele>1661.35</ele>
<time>2015-04-30T11:01:32Z</time>
</trkpt>
<trkpt lat="34.9316486" lon="32.8850391">
<ele>1661.05</ele>
<time>2015-04-30T11:01:33Z</time>
</trkpt>
<trkpt lat="34.9316073" lon="32.8851376">
<ele>1660.41</ele>
<time>2015-04-30T11:01:34Z</time>
</trkpt>
<trkpt lat="34.9315722" lon="32.8852292">
<ele>1660.08</ele>
<time>2015-04-30T11:01:35Z</time>
</trkpt>
<trkpt lat="34.9315409" lon="32.8853043">
<ele>1659.42</ele>
<time>2015-04-30T11:01:36Z</time>
</trkpt>
<trkpt lat="34.9315175" lon="32.8853623">
<ele>1659.09</ele>
<time>2015-04-30T11:01:37Z</time>
</trkpt>
<trkpt lat="34.9314867" lon="32.8854023">
<ele>1659.11</ele>
<time>2015-04-30T11:01:43Z</time>
</trkpt>
<trkpt lat="34.9314460" lon="32.8854407">
<ele>1659.23</ele>
<time>2015-04-30T11:03:00Z</time>
</trkpt>
<trkpt lat="34.9314267" lon="32.8855016">
<ele>1658.88</ele>
<time>2015-04-30T11:03:02Z</time>
</trkpt>
<trkpt lat="34.9314052" lon="32.8855569">
<ele>1658.79</ele>
<time>2015-04-30T11:03:04Z</time>
</trkpt>
<trkpt lat="34.9313802" lon="32.8856166">
<ele>1658.77</ele>
<time>2015-04-30T11:03:06Z</time>
</trkpt>
<trkpt lat="34.9313471" lon="32.8856820">
<ele>1659.26</ele>
<time>2015-04-30T11:03:08Z</time>
</trkpt>
<trkpt lat="34.9313144" lon="32.8857519">
<ele>1660.14</ele>
<time>2015-04-30T11:03:10Z</time>
</trkpt>
<trkpt lat="34.9312962" lon="32.8858280">
<ele>1660.60</ele>
<time>2015-04-30T11:03:12Z</time>
</trkpt>
<trkpt lat="34.9312813" lon="32.8859090">
<ele>1660.72</ele>
<time>2015-04-30T11:03:14Z</time>
</trkpt>
<trkpt lat="34.9312719" lon="32.8859948">
<ele>1660.75</ele>
<time>2015-04-30T11:03:16Z</time>
</trkpt>
<trkpt lat="34.9312791" lon="32.8860944">
<ele>1660.01</ele>
<time>2015-04-30T11:03:18Z</time>
</trkpt>
<trkpt lat="34.9312933" lon="32.8861877">
<ele>1659.38</ele>
<time>2015-04-30T11:03:19Z</time>
</trkpt>
<trkpt lat="34.9313117" lon="32.8862485">
<ele>1659.07</ele>
<time>2015-04-30T11:03:20Z</time>
</trkpt>
<trkpt lat="34.9313271" lon="32.8863127">
<ele>1659.42</ele>
<time>2015-04-30T11:03:21Z</time>
</trkpt>
<trkpt lat="34.9313608" lon="32.8863795">
<ele>1659.59</ele>
<time>2015-04-30T11:03:22Z</time>
</trkpt>
<trkpt lat="34.9313861" lon="32.8864407">
<ele>1659.17</ele>
<time>2015-04-30T11:03:23Z</time>
</trkpt>
<trkpt lat="34.9314221" lon="32.8865032">
<ele>1659.47</ele>
<time>2015-04-30T11:03:24Z</time>
</trkpt>
<trkpt lat="34.9314626" lon="32.8865644">
<ele>1659.11</ele>
<time>2015-04-30T11:03:25Z</time>
</trkpt>
<trkpt lat="34.9314996" lon="32.8866164">
<ele>1658.44</ele>
<time>2015-04-30T11:03:26Z</time>
</trkpt>
<trkpt lat="34.9315408" lon="32.8866829">
<ele>1657.60</ele>
<time>2015-04-30T11:03:27Z</time>
</trkpt>
<trkpt lat="34.9315742" lon="32.8867407">
<ele>1657.68</ele>
<time>2015-04-30T11:03:28Z</time>
</trkpt>
<trkpt lat="34.9316091" lon="32.8868107">
<ele>1657.72</ele>
<time>2015-04-30T11:03:29Z</time>
</trkpt>
<trkpt lat="34.9316458" lon="32.8868742">
<ele>1657.74</ele>
<time>2015-04-30T11:03:30Z</time>
</trkpt>
<trkpt lat="34.9316830" lon="32.8869332">
<ele>1658.25</ele>
<time>2015-04-30T11:03:31Z</time>
</trkpt>
<trkpt lat="34.9317253" lon="32.8870057">
<ele>1659.01</ele>
<time>2015-04-30T11:03:32Z</time>
</trkpt>
<trkpt lat="34.9317767" lon="32.8870868">
<ele>1659.38</ele>
<time>2015-04-30T11:03:33Z</time>
</trkpt>
<trkpt lat="34.9318234" lon="32.8871705">
<ele>1659.57</ele>
<time>2015-04-30T11:03:34Z</time>
</trkpt>
<trkpt lat="34.9318668" lon="32.8872388">
<ele>1660.17</ele>
<time>2015-04-30T11:03:35Z</time>
</trkpt>
<trkpt lat="34.9319117" lon="32.8873063">
<ele>1660.96</ele>
<time>2015-04-30T11:03:36Z</time>
</trkpt>
<trkpt lat="34.9319573" lon="32.8873757">
<ele>1660.86</ele>
<time>2015-04-30T11:03:37Z</time>
</trkpt>
<trkpt lat="34.9319985" lon="32.8874447">
<ele>1660.81</ele>
<time>2015-04-30T11:03:38Z</time>
</trkpt>
<trkpt lat="34.9320417" lon="32.8875208">
<ele>1661.29</ele>
<time>2015-04-30T11:03:39Z</time>
</trkpt>
<trkpt lat="34.9320921" lon="32.8875974">
<ele>1661.02</ele>
<time>2015-04-30T11:03:40Z</time>
</trkpt>
<trkpt lat="34.9321426" lon="32.8876719">
<ele>1660.89</ele>
<time>2015-04-30T11:03:41Z</time>
</trkpt>
<trkpt lat="34.9321850" lon="32.8877494">
<ele>1660.83</ele>
<time>2015-04-30T11:03:42Z</time>
</trkpt>
<trkpt lat="34.9322253" lon="32.8878208">
<ele>1660.79</ele>
<time>2015-04-30T11:03:43Z</time>
</trkpt>
<trkpt lat="34.9322718" lon="32.8878999">
<ele>1660.28</ele>
<time>2015-04-30T11:03:44Z</time>
</trkpt>
<trkpt lat="34.9323157" lon="32.8879720">
<ele>1660.02</ele>
<time>2015-04-30T11:03:45Z</time>
</trkpt>
<trkpt lat="34.9323645" lon="32.8880484">
<ele>1659.89</ele>
<time>2015-04-30T11:03:46Z</time>
</trkpt>
<trkpt lat="34.9324171" lon="32.8881138">
<ele>1659.82</ele>
<time>2015-04-30T11:03:47Z</time>
</trkpt>
<trkpt lat="34.9324643" lon="32.8881864">
<ele>1659.79</ele>
<time>2015-04-30T11:03:48Z</time>
</trkpt>
<trkpt lat="34.9325144" lon="32.8882574">
<ele>1659.78</ele>
<time>2015-04-30T11:03:49Z</time>
</trkpt>
<trkpt lat="34.9325666" lon="32.8883210">
<ele>1659.77</ele>
<time>2015-04-30T11:03:50Z</time>
</trkpt>
<trkpt lat="34.9326277" lon="32.8883968">
<ele>1659.76</ele>
<time>2015-04-30T11:03:51Z</time>
</trkpt>
<trkpt lat="34.9326839" lon="32.8884636">
<ele>1660.26</ele>
<time>2015-04-30T11:03:52Z</time>
</trkpt>
<trkpt lat="34.9327436" lon="32.8885192">
<ele>1660.01</ele>
<time>2015-04-30T11:03:53Z</time>
</trkpt>
<trkpt lat="34.9328067" lon="32.8885869">
<ele>1659.39</ele>
<time>2015-04-30T11:03:54Z</time>
</trkpt>
<trkpt lat="34.9328643" lon="32.8886394">
<ele>1659.57</ele>
<time>2015-04-30T11:03:55Z</time>
</trkpt>
<trkpt lat="34.9329236" lon="32.8886888">
<ele>1658.67</ele>
<time>2015-04-30T11:03:56Z</time>
</trkpt>
<trkpt lat="34.9329818" lon="32.8887345">
<ele>1657.71</ele>
<time>2015-04-30T11:03:57Z</time>
</trkpt>
<trkpt lat="34.9330320" lon="32.8887758">
<ele>1657.24</ele>
<time>2015-04-30T11:03:58Z</time>
</trkpt>
<trkpt lat="34.9330808" lon="32.8888145">
<ele>1657.00</ele>
<time>2015-04-30T11:03:59Z</time>
</trkpt>
<trkpt lat="34.9331260" lon="32.8888499">
<ele>1656.88</ele>
<time>2015-04-30T11:04:00Z</time>
</trkpt>
<trkpt lat="34.9331705" lon="32.8888858">
<ele>1657.32</ele>
<time>2015-04-30T11:04:01Z</time>
</trkpt>
<trkpt lat="34.9332128" lon="32.8889286">
<ele>1658.04</ele>
<time>2015-04-30T11:04:02Z</time>
</trkpt>
<trkpt lat="34.9332534" lon="32.8889661">
<ele>1658.90</ele>
<time>2015-04-30T11:04:03Z</time>
</trkpt>
<trkpt lat="34.9332903" lon="32.8890115">
<ele>1659.33</ele>
<time>2015-04-30T11:04:04Z</time>
</trkpt>
<trkpt lat="34.9333347" lon="32.8890422">
<ele>1659.54</ele>
<time>2015-04-30T11:04:05Z</time>
</trkpt>
<trkpt lat="34.9334163" lon="32.8890981">
<ele>1659.46</ele>
<time>2015-04-30T11:04:07Z</time>
</trkpt>
<trkpt lat="34.9334577" lon="32.8891340">
<ele>1659.11</ele>
<time>2015-04-30T11:04:08Z</time>
</trkpt>
<trkpt lat="34.9334995" lon="32.8891641">
<ele>1659.43</ele>
<time>2015-04-30T11:04:09Z</time>
</trkpt>
<trkpt lat="34.9335630" lon="32.8892262">
<ele>1659.68</ele>
<time>2015-04-30T11:04:11Z</time>
</trkpt>
<trkpt lat="34.9336342" lon="32.8892536">
<ele>1659.49</ele>
<time>2015-04-30T11:04:13Z</time>
</trkpt>
<trkpt lat="34.9336800" lon="32.8892761">
<ele>1659.94</ele>
<time>2015-04-30T11:04:15Z</time>
</trkpt>
<trkpt lat="34.9337218" lon="32.8893198">
<ele>1660.03</ele>
<time>2015-04-30T11:04:18Z</time>
</trkpt>
<trkpt lat="34.9337830" lon="32.8893462">
<ele>1662.04</ele>
<time>2015-04-30T11:04:21Z</time>
</trkpt>
<trkpt lat="34.9338335" lon="32.8893857">
<ele>1663.42</ele>
<time>2015-04-30T11:04:24Z</time>
</trkpt>
<trkpt lat="34.9338871" lon="32.8894224">
<ele>1660.84</ele>
<time>2015-04-30T11:04:27Z</time>
</trkpt>
<trkpt lat="34.9339320" lon="32.8894474">
<ele>1659.28</ele>
<time>2015-04-30T11:04:29Z</time>
</trkpt>
<trkpt lat="34.9340029" lon="32.8894739">
<ele>1659.08</ele>
<time>2015-04-30T11:04:32Z</time>
</trkpt>
<trkpt lat="34.9340496" lon="32.8894852">
<ele>1660.34</ele>
<time>2015-04-30T11:04:34Z</time>
</trkpt>
<trkpt lat="34.9340960" lon="32.8895032">
<ele>1661.40</ele>
<time>2015-04-30T11:04:36Z</time>
</trkpt>
<trkpt lat="34.9341414" lon="32.8895201">
<ele>1660.67</ele>
<time>2015-04-30T11:04:38Z</time>
</trkpt>
<trkpt lat="34.9341831" lon="32.8895434">
<ele>1660.74</ele>
<time>2015-04-30T11:04:40Z</time>
</trkpt>
<trkpt lat="34.9342467" lon="32.8895668">
<ele>1662.38</ele>
<time>2015-04-30T11:04:43Z</time>
</trkpt>
<trkpt lat="34.9342914" lon="32.8895793">
<ele>1663.42</ele>
<time>2015-04-30T11:04:45Z</time>
</trkpt>
<trkpt lat="34.9343362" lon="32.8895954">
<ele>1662.92</ele>
<time>2015-04-30T11:04:47Z</time>
</trkpt>
<trkpt lat="34.9343797" lon="32.8896102">
<ele>1663.55</ele>
<time>2015-04-30T11:04:49Z</time>
</trkpt>
<trkpt lat="34.9344421" lon="32.8896306">
<ele>1662.11</ele>
<time>2015-04-30T11:04:52Z</time>
</trkpt>
<trkpt lat="34.9345043" lon="32.8896486">
<ele>1661.80</ele>
<time>2015-04-30T11:04:55Z</time>
</trkpt>
<trkpt lat="34.9345660" lon="32.8896636">
<ele>1664.39</ele>
<time>2015-04-30T11:04:58Z</time>
</trkpt>
<trkpt lat="34.9346280" lon="32.8896847">
<ele>1666.09</ele>
<time>2015-04-30T11:05:01Z</time>
</trkpt>
<trkpt lat="34.9346919" lon="32.8896983">
<ele>1668.30</ele>
<time>2015-04-30T11:05:04Z</time>
</trkpt>
<trkpt lat="34.9347537" lon="32.8897150">
<ele>1668.45</ele>
<time>2015-04-30T11:05:07Z</time>
</trkpt>
<trkpt lat="34.9348113" lon="32.8897404">
<ele>1668.72</ele>
<time>2015-04-30T11:05:10Z</time>
</trkpt>
<trkpt lat="34.9348701" lon="32.8897593">
<ele>1669.63</ele>
<time>2015-04-30T11:05:13Z</time>
</trkpt>
<trkpt lat="34.9349281" lon="32.8897698">
<ele>1670.99</ele>
<time>2015-04-30T11:05:16Z</time>
</trkpt>
<trkpt lat="34.9349861" lon="32.8897772">
<ele>1672.91</ele>
<time>2015-04-30T11:05:19Z</time>
</trkpt>
<trkpt lat="34.9350456" lon="32.8897899">
<ele>1674.15</ele>
<time>2015-04-30T11:05:22Z</time>
</trkpt>
<trkpt lat="34.9351069" lon="32.8898003">
<ele>1675.43</ele>
<time>2015-04-30T11:05:25Z</time>
</trkpt>
<trkpt lat="34.9351697" lon="32.8898049">
<ele>1674.84</ele>
<time>2015-04-30T11:05:28Z</time>
</trkpt>
<trkpt lat="34.9352259" lon="32.8898162">
<ele>1674.77</ele>
<time>2015-04-30T11:05:31Z</time>
</trkpt>
<trkpt lat="34.9352834" lon="32.8898286">
<ele>1675.64</ele>
<time>2015-04-30T11:05:34Z</time>
</trkpt>
<trkpt lat="34.9353400" lon="32.8898422">
<ele>1675.49</ele>
<time>2015-04-30T11:05:37Z</time>
</trkpt>
<trkpt lat="34.9353901" lon="32.8898692">
<ele>1676.60</ele>
<time>2015-04-30T11:05:40Z</time>
</trkpt>
<trkpt lat="34.9354348" lon="32.8898821">
<ele>1677.62</ele>
<time>2015-04-30T11:05:43Z</time>
</trkpt>
<trkpt lat="34.9354858" lon="32.8899000">
<ele>1678.62</ele>
<time>2015-04-30T11:05:46Z</time>
</trkpt>
<trkpt lat="34.9355378" lon="32.8899276">
<ele>1679.37</ele>
<time>2015-04-30T11:05:49Z</time>
</trkpt>
<trkpt lat="34.9355906" lon="32.8899489">
<ele>1679.96</ele>
<time>2015-04-30T11:05:52Z</time>
</trkpt>
<trkpt lat="34.9356385" lon="32.8899665">
<ele>1680.91</ele>
<time>2015-04-30T11:05:55Z</time>
</trkpt>
<trkpt lat="34.9356926" lon="32.8899889">
<ele>1680.78</ele>
<time>2015-04-30T11:05:58Z</time>
</trkpt>
<trkpt lat="34.9357538" lon="32.8900156">
<ele>1679.39</ele>
<time>2015-04-30T11:06:01Z</time>
</trkpt>
<trkpt lat="34.9357949" lon="32.8900438">
<ele>1678.17</ele>
<time>2015-04-30T11:06:03Z</time>
</trkpt>
<trkpt lat="34.9358383" lon="32.8900710">
<ele>1677.86</ele>
<time>2015-04-30T11:06:05Z</time>
</trkpt>
<trkpt lat="34.9358797" lon="32.8900966">
<ele>1678.54</ele>
<time>2015-04-30T11:06:07Z</time>
</trkpt>
<trkpt lat="34.9359212" lon="32.8901266">
<ele>1679.95</ele>
<time>2015-04-30T11:06:09Z</time>
</trkpt>
<trkpt lat="34.9359703" lon="32.8901607">
<ele>1680.06</ele>
<time>2015-04-30T11:06:11Z</time>
</trkpt>
<trkpt lat="34.9360153" lon="32.8901939">
<ele>1679.08</ele>
<time>2015-04-30T11:06:13Z</time>
</trkpt>
<trkpt lat="34.9360675" lon="32.8902421">
<ele>1679.43</ele>
<time>2015-04-30T11:06:16Z</time>
</trkpt>
<trkpt lat="34.9361137" lon="32.8902904">
<ele>1678.84</ele>
<time>2015-04-30T11:06:19Z</time>
</trkpt>
<trkpt lat="34.9361542" lon="32.8903471">
<ele>1678.65</ele>
<time>2015-04-30T11:06:22Z</time>
</trkpt>
<trkpt lat="34.9361933" lon="32.8904003">
<ele>1679.25</ele>
<time>2015-04-30T11:06:25Z</time>
</trkpt>
<trkpt lat="34.9362265" lon="32.8904571">
<ele>1678.07</ele>
<time>2015-04-30T11:06:28Z</time>
</trkpt>
<trkpt lat="34.9362615" lon="32.8905161">
<ele>1677.17</ele>
<time>2015-04-30T11:06:31Z</time>
</trkpt>
<trkpt lat="34.9362947" lon="32.8905796">
<ele>1676.31</ele>
<time>2015-04-30T11:06:34Z</time>
</trkpt>
<trkpt lat="34.9363230" lon="32.8906545">
<ele>1676.45</ele>
<time>2015-04-30T11:06:37Z</time>
</trkpt>
<trkpt lat="34.9363454" lon="32.8907214">
<ele>1675.93</ele>
<time>2015-04-30T11:06:39Z</time>
</trkpt>
<trkpt lat="34.9363724" lon="32.8908028">
<ele>1676.55</ele>
<time>2015-04-30T11:06:41Z</time>
</trkpt>
<trkpt lat="34.9363998" lon="32.8908881">
<ele>1676.71</ele>
<time>2015-04-30T11:06:43Z</time>
</trkpt>
<trkpt lat="34.9364219" lon="32.8909762">
<ele>1676.75</ele>
<time>2015-04-30T11:06:45Z</time>
</trkpt>
<trkpt lat="34.9364401" lon="32.8910614">
<ele>1677.26</ele>
<time>2015-04-30T11:06:47Z</time>
</trkpt>
<trkpt lat="34.9364597" lon="32.8911554">
<ele>1678.13</ele>
<time>2015-04-30T11:06:49Z</time>
</trkpt>
<trkpt lat="34.9364749" lon="32.8912617">
<ele>1679.10</ele>
<time>2015-04-30T11:06:51Z</time>
</trkpt>
<trkpt lat="34.9364833" lon="32.8913181">
<ele>1678.93</ele>
<time>2015-04-30T11:06:52Z</time>
</trkpt>
<trkpt lat="34.9364926" lon="32.8913747">
<ele>1678.35</ele>
<time>2015-04-30T11:06:53Z</time>
</trkpt>
<trkpt lat="34.9365018" lon="32.8914611">
<ele>1678.05</ele>
<time>2015-04-30T11:06:54Z</time>
</trkpt>
<trkpt lat="34.9364950" lon="32.8915243">
<ele>1678.41</ele>
<time>2015-04-30T11:06:55Z</time>
</trkpt>
<trkpt lat="34.9364962" lon="32.8915905">
<ele>1678.58</ele>
<time>2015-04-30T11:06:56Z</time>
</trkpt>
<trkpt lat="34.9365013" lon="32.8916642">
<ele>1678.67</ele>
<time>2015-04-30T11:06:57Z</time>
</trkpt>
<trkpt lat="34.9365089" lon="32.8917340">
<ele>1678.72</ele>
<time>2015-04-30T11:06:58Z</time>
</trkpt>
<trkpt lat="34.9365127" lon="32.8918048">
<ele>1679.24</ele>
<time>2015-04-30T11:06:59Z</time>
</trkpt>
<trkpt lat="34.9365137" lon="32.8918839">
<ele>1679.00</ele>
<time>2015-04-30T11:07:00Z</time>
</trkpt>
<trkpt lat="34.9365026" lon="32.8919660">
<ele>1678.88</ele>
<time>2015-04-30T11:07:01Z</time>
</trkpt>
<trkpt lat="34.9365011" lon="32.8920525">
<ele>1678.32</ele>
<time>2015-04-30T11:07:02Z</time>
</trkpt>
<trkpt lat="34.9364940" lon="32.8921456">
<ele>1677.54</ele>
<time>2015-04-30T11:07:03Z</time>
</trkpt>
<trkpt lat="34.9364869" lon="32.8922400">
<ele>1677.15</ele>
<time>2015-04-30T11:07:04Z</time>
</trkpt>
<trkpt lat="34.9364548" lon="32.8923368">
<ele>1676.45</ele>
<time>2015-04-30T11:07:05Z</time>
</trkpt>
<trkpt lat="34.9364226" lon="32.8924390">
<ele>1675.61</ele>
<time>2015-04-30T11:07:06Z</time>
</trkpt>
<trkpt lat="34.9363913" lon="32.8925401">
<ele>1675.18</ele>
<time>2015-04-30T11:07:07Z</time>
</trkpt>
<trkpt lat="34.9363484" lon="32.8926581">
<ele>1674.97</ele>
<time>2015-04-30T11:07:08Z</time>
</trkpt>
<trkpt lat="34.9363007" lon="32.8927792">
<ele>1674.87</ele>
<time>2015-04-30T11:07:09Z</time>
</trkpt>
<trkpt lat="34.9362605" lon="32.8928931">
<ele>1674.31</ele>
<time>2015-04-30T11:07:10Z</time>
</trkpt>
<trkpt lat="34.9362150" lon="32.8930104">
<ele>1674.04</ele>
<time>2015-04-30T11:07:11Z</time>
</trkpt>
<trkpt lat="34.9361727" lon="32.8931409">
<ele>1673.40</ele>
<time>2015-04-30T11:07:12Z</time>
</trkpt>
<trkpt lat="34.9361272" lon="32.8932772">
<ele>1672.58</ele>
<time>2015-04-30T11:07:13Z</time>
</trkpt>
<trkpt lat="34.9360538" lon="32.8933983">
<ele>1672.17</ele>
<time>2015-04-30T11:07:14Z</time>
</trkpt>
<trkpt lat="34.9360013" lon="32.8935269">
<ele>1671.96</ele>
<time>2015-04-30T11:07:15Z</time>
</trkpt>
<trkpt lat="34.9359352" lon="32.8936588">
<ele>1670.86</ele>
<time>2015-04-30T11:07:16Z</time>
</trkpt>
<trkpt lat="34.9358764" lon="32.8938100">
<ele>1670.81</ele>
<time>2015-04-30T11:07:17Z</time>
</trkpt>
<trkpt lat="34.9358224" lon="32.8939582">
<ele>1669.79</ele>
<time>2015-04-30T11:07:18Z</time>
</trkpt>
<trkpt lat="34.9357614" lon="32.8940951">
<ele>1668.77</ele>
<time>2015-04-30T11:07:19Z</time>
</trkpt>
<trkpt lat="34.9357052" lon="32.8942400">
<ele>1667.77</ele>
<time>2015-04-30T11:07:20Z</time>
</trkpt>
<trkpt lat="34.9356418" lon="32.8943881">
<ele>1667.26</ele>
<time>2015-04-30T11:07:21Z</time>
</trkpt>
<trkpt lat="34.9355905" lon="32.8945291">
<ele>1666.51</ele>
<time>2015-04-30T11:07:22Z</time>
</trkpt>
<trkpt lat="34.9355341" lon="32.8946815">
<ele>1666.14</ele>
<time>2015-04-30T11:07:23Z</time>
</trkpt>
<trkpt lat="34.9354641" lon="32.8948335">
<ele>1665.45</ele>
<time>2015-04-30T11:07:24Z</time>
</trkpt>
<trkpt lat="34.9353937" lon="32.8949861">
<ele>1664.60</ele>
<time>2015-04-30T11:07:25Z</time>
</trkpt>
<trkpt lat="34.9353184" lon="32.8951349">
<ele>1663.18</ele>
<time>2015-04-30T11:07:26Z</time>
</trkpt>
<trkpt lat="34.9352527" lon="32.8952841">
<ele>1661.47</ele>
<time>2015-04-30T11:07:27Z</time>
</trkpt>
<trkpt lat="34.9351833" lon="32.8954528">
<ele>1660.12</ele>
<time>2015-04-30T11:07:28Z</time>
</trkpt>
<trkpt lat="34.9351134" lon="32.8956057">
<ele>1658.44</ele>
<time>2015-04-30T11:07:29Z</time>
</trkpt>
<trkpt lat="34.9350422" lon="32.8957632">
<ele>1656.60</ele>
<time>2015-04-30T11:07:30Z</time>
</trkpt>
<trkpt lat="34.9349610" lon="32.8959352">
<ele>1655.68</ele>
<time>2015-04-30T11:07:31Z</time>
</trkpt>
<trkpt lat="34.9348868" lon="32.8960918">
<ele>1654.72</ele>
<time>2015-04-30T11:07:32Z</time>
</trkpt>
<trkpt lat="34.9348153" lon="32.8962546">
<ele>1653.74</ele>
<time>2015-04-30T11:07:33Z</time>
</trkpt>
<trkpt lat="34.9347478" lon="32.8964179">
<ele>1652.75</ele>
<time>2015-04-30T11:07:34Z</time>
</trkpt>
<trkpt lat="34.9346784" lon="32.8965738">
<ele>1651.26</ele>
<time>2015-04-30T11:07:35Z</time>
</trkpt>
<trkpt lat="34.9346049" lon="32.8967383">
<ele>1650.01</ele>
<time>2015-04-30T11:07:36Z</time>
</trkpt>
<trkpt lat="34.9345325" lon="32.8969039">
<ele>1648.38</ele>
<time>2015-04-30T11:07:37Z</time>
</trkpt>
<trkpt lat="34.9344686" lon="32.8970625">
<ele>1647.07</ele>
<time>2015-04-30T11:07:38Z</time>
</trkpt>
<trkpt lat="34.9344044" lon="32.8972206">
<ele>1645.42</ele>
<time>2015-04-30T11:07:39Z</time>
</trkpt>
<trkpt lat="34.9343491" lon="32.8973848">
<ele>1644.59</ele>
<time>2015-04-30T11:07:40Z</time>
</trkpt>
<trkpt lat="34.9342897" lon="32.8975305">
<ele>1643.67</ele>
<time>2015-04-30T11:07:41Z</time>
</trkpt>
<trkpt lat="34.9342257" lon="32.8976800">
<ele>1643.22</ele>
<time>2015-04-30T11:07:42Z</time>
</trkpt>
<trkpt lat="34.9341524" lon="32.8978099">
<ele>1641.49</ele>
<time>2015-04-30T11:07:43Z</time>
</trkpt>
<trkpt lat="34.9340891" lon="32.8979588">
<ele>1640.62</ele>
<time>2015-04-30T11:07:44Z</time>
</trkpt>
<trkpt lat="34.9340123" lon="32.8980751">
<ele>1639.19</ele>
<time>2015-04-30T11:07:45Z</time>
</trkpt>
<trkpt lat="34.9339576" lon="32.8982076">
<ele>1637.48</ele>
<time>2015-04-30T11:07:46Z</time>
</trkpt>
<trkpt lat="34.9338945" lon="32.8983443">
<ele>1636.62</ele>
<time>2015-04-30T11:07:47Z</time>
</trkpt>
<trkpt lat="34.9338316" lon="32.8984811">
<ele>1635.69</ele>
<time>2015-04-30T11:07:48Z</time>
</trkpt>
<trkpt lat="34.9337680" lon="32.8986121">
<ele>1634.72</ele>
<time>2015-04-30T11:07:49Z</time>
</trkpt>
<trkpt lat="34.9337065" lon="32.8987560">
<ele>1634.24</ele>
<time>2015-04-30T11:07:50Z</time>
</trkpt>
<trkpt lat="34.9336494" lon="32.8988946">
<ele>1633.50</ele>
<time>2015-04-30T11:07:51Z</time>
</trkpt>
<trkpt lat="34.9335913" lon="32.8990319">
<ele>1633.13</ele>
<time>2015-04-30T11:07:52Z</time>
</trkpt>
<trkpt lat="34.9335319" lon="32.8991617">
<ele>1632.45</ele>
<time>2015-04-30T11:07:53Z</time>
</trkpt>
<trkpt lat="34.9334582" lon="32.8992735">
<ele>1631.10</ele>
<time>2015-04-30T11:07:54Z</time>
</trkpt>
<trkpt lat="34.9333834" lon="32.8993940">
<ele>1630.43</ele>
<time>2015-04-30T11:07:55Z</time>
</trkpt>
<trkpt lat="34.9333071" lon="32.8995032">
<ele>1629.60</ele>
<time>2015-04-30T11:07:56Z</time>
</trkpt>
<trkpt lat="34.9332238" lon="32.8996160">
<ele>1629.68</ele>
<time>2015-04-30T11:07:57Z</time>
</trkpt>
<trkpt lat="34.9331359" lon="32.8997094">
<ele>1629.72</ele>
<time>2015-04-30T11:07:58Z</time>
</trkpt>
<trkpt lat="34.9330554" lon="32.8998138">
<ele>1628.74</ele>
<time>2015-04-30T11:07:59Z</time>
</trkpt>
<trkpt lat="34.9329603" lon="32.8999048">
<ele>1628.25</ele>
<time>2015-04-30T11:08:00Z</time>
</trkpt>
<trkpt lat="34.9328722" lon="32.8999871">
<ele>1627.50</ele>
<time>2015-04-30T11:08:01Z</time>
</trkpt>
<trkpt lat="34.9327840" lon="32.9000774">
<ele>1626.63</ele>
<time>2015-04-30T11:08:02Z</time>
</trkpt>
<trkpt lat="34.9326837" lon="32.9001632">
<ele>1626.20</ele>
<time>2015-04-30T11:08:03Z</time>
</trkpt>
<trkpt lat="34.9325798" lon="32.9002627">
<ele>1625.48</ele>
<time>2015-04-30T11:08:04Z</time>
</trkpt>
<trkpt lat="34.9324803" lon="32.9003491">
<ele>1625.12</ele>
<time>2015-04-30T11:08:05Z</time>
</trkpt>
<trkpt lat="34.9323829" lon="32.9004381">
<ele>1625.44</ele>
<time>2015-04-30T11:08:06Z</time>
</trkpt>
<trkpt lat="34.9322858" lon="32.9005232">
<ele>1625.60</ele>
<time>2015-04-30T11:08:07Z</time>
</trkpt>
<trkpt lat="34.9321831" lon="32.9006035">
<ele>1625.18</ele>
<time>2015-04-30T11:08:08Z</time>
</trkpt>
<trkpt lat="34.9320858" lon="32.9006851">
<ele>1624.97</ele>
<time>2015-04-30T11:08:09Z</time>
</trkpt>
<trkpt lat="34.9319801" lon="32.9007682">
<ele>1623.36</ele>
<time>2015-04-30T11:08:10Z</time>
</trkpt>
<trkpt lat="34.9318839" lon="32.9008640">
<ele>1622.56</ele>
<time>2015-04-30T11:08:11Z</time>
</trkpt>
<trkpt lat="34.9317948" lon="32.9009699">
<ele>1621.16</ele>
<time>2015-04-30T11:08:12Z</time>
</trkpt>
<trkpt lat="34.9317142" lon="32.9010823">
<ele>1620.46</ele>
<time>2015-04-30T11:08:13Z</time>
</trkpt>
<trkpt lat="34.9316329" lon="32.9011933">
<ele>1620.11</ele>
<time>2015-04-30T11:08:14Z</time>
</trkpt>
<trkpt lat="34.9315505" lon="32.9013105">
<ele>1619.94</ele>
<time>2015-04-30T11:08:15Z</time>
</trkpt>
<trkpt lat="34.9314693" lon="32.9014256">
<ele>1619.85</ele>
<time>2015-04-30T11:08:16Z</time>
</trkpt>
<trkpt lat="34.9313978" lon="32.9015385">
<ele>1618.80</ele>
<time>2015-04-30T11:08:17Z</time>
</trkpt>
<trkpt lat="34.9313240" lon="32.9016427">
<ele>1618.28</ele>
<time>2015-04-30T11:08:18Z</time>
</trkpt>
<trkpt lat="34.9312493" lon="32.9017457">
<ele>1617.02</ele>
<time>2015-04-30T11:08:19Z</time>
</trkpt>
<trkpt lat="34.9311808" lon="32.9018563">
<ele>1615.89</ele>
<time>2015-04-30T11:08:20Z</time>
</trkpt>
<trkpt lat="34.9311079" lon="32.9019674">
<ele>1615.33</ele>
<time>2015-04-30T11:08:21Z</time>
</trkpt>
<trkpt lat="34.9310377" lon="32.9020853">
<ele>1615.54</ele>
<time>2015-04-30T11:08:22Z</time>
</trkpt>
<trkpt lat="34.9309712" lon="32.9021964">
<ele>1615.65</ele>
<time>2015-04-30T11:08:23Z</time>
</trkpt>
<trkpt lat="34.9309213" lon="32.9023199">
<ele>1614.71</ele>
<time>2015-04-30T11:08:24Z</time>
</trkpt>
<trkpt lat="34.9308638" lon="32.9024467">
<ele>1613.73</ele>
<time>2015-04-30T11:08:25Z</time>
</trkpt>
<trkpt lat="34.9308228" lon="32.9025844">
<ele>1612.75</ele>
<time>2015-04-30T11:08:26Z</time>
</trkpt>
<trkpt lat="34.9308059" lon="32.9027080">
<ele>1611.75</ele>
<time>2015-04-30T11:08:27Z</time>
</trkpt>
<trkpt lat="34.9307948" lon="32.9028477">
<ele>1610.76</ele>
<time>2015-04-30T11:08:28Z</time>
</trkpt>
<trkpt lat="34.9307832" lon="32.9029880">
<ele>1609.76</ele>
<time>2015-04-30T11:08:29Z</time>
</trkpt>
<trkpt lat="34.9307744" lon="32.9031309">
<ele>1608.76</ele>
<time>2015-04-30T11:08:30Z</time>
</trkpt>
<trkpt lat="34.9307655" lon="32.9032698">
<ele>1608.26</ele>
<time>2015-04-30T11:08:31Z</time>
</trkpt>
<trkpt lat="34.9307530" lon="32.9034141">
<ele>1607.51</ele>
<time>2015-04-30T11:08:32Z</time>
</trkpt>
<trkpt lat="34.9307442" lon="32.9035527">
<ele>1606.63</ele>
<time>2015-04-30T11:08:33Z</time>
</trkpt>
<trkpt lat="34.9307305" lon="32.9037020">
<ele>1605.70</ele>
<time>2015-04-30T11:08:34Z</time>
</trkpt>
<trkpt lat="34.9307106" lon="32.9038410">
<ele>1605.23</ele>
<time>2015-04-30T11:08:35Z</time>
</trkpt>
<trkpt lat="34.9307022" lon="32.9039917">
<ele>1604.99</ele>
<time>2015-04-30T11:08:36Z</time>
</trkpt>
<trkpt lat="34.9306984" lon="32.9041340">
<ele>1604.38</ele>
<time>2015-04-30T11:08:37Z</time>
</trkpt>
<trkpt lat="34.9306971" lon="32.9042828">
<ele>1604.07</ele>
<time>2015-04-30T11:08:38Z</time>
</trkpt>
<trkpt lat="34.9306958" lon="32.9044338">
<ele>1603.41</ele>
<time>2015-04-30T11:08:39Z</time>
</trkpt>
<trkpt lat="34.9307052" lon="32.9045780">
<ele>1602.59</ele>
<time>2015-04-30T11:08:40Z</time>
</trkpt>
<trkpt lat="34.9307161" lon="32.9047222">
<ele>1601.67</ele>
<time>2015-04-30T11:08:41Z</time>
</trkpt>
<trkpt lat="34.9307260" lon="32.9048776">
<ele>1600.72</ele>
<time>2015-04-30T11:08:42Z</time>
</trkpt>
<trkpt lat="34.9307363" lon="32.9050172">
<ele>1600.24</ele>
<time>2015-04-30T11:08:43Z</time>
</trkpt>
<trkpt lat="34.9307595" lon="32.9051543">
<ele>1599.50</ele>
<time>2015-04-30T11:08:44Z</time>
</trkpt>
<trkpt lat="34.9307731" lon="32.9052706">
<ele>1598.63</ele>
<time>2015-04-30T11:08:45Z</time>
</trkpt>
<trkpt lat="34.9308052" lon="32.9053843">
<ele>1598.19</ele>
<time>2015-04-30T11:08:46Z</time>
</trkpt>
<trkpt lat="34.9308359" lon="32.9054753">
<ele>1596.98</ele>
<time>2015-04-30T11:08:47Z</time>
</trkpt>
<trkpt lat="34.9308705" lon="32.9055721">
<ele>1595.87</ele>
<time>2015-04-30T11:08:48Z</time>
</trkpt>
<trkpt lat="34.9309168" lon="32.9056681">
<ele>1594.81</ele>
<time>2015-04-30T11:08:49Z</time>
</trkpt>
<trkpt lat="34.9309552" lon="32.9057657">
<ele>1594.29</ele>
<time>2015-04-30T11:08:50Z</time>
</trkpt>
<trkpt lat="34.9310085" lon="32.9058577">
<ele>1593.02</ele>
<time>2015-04-30T11:08:51Z</time>
</trkpt>
<trkpt lat="34.9310694" lon="32.9059636">
<ele>1591.89</ele>
<time>2015-04-30T11:08:52Z</time>
</trkpt>
<trkpt lat="34.9311344" lon="32.9060543">
<ele>1590.83</ele>
<time>2015-04-30T11:08:53Z</time>
</trkpt>
<trkpt lat="34.9312074" lon="32.9061474">
<ele>1589.79</ele>
<time>2015-04-30T11:08:54Z</time>
</trkpt>
<trkpt lat="34.9312815" lon="32.9062322">
<ele>1588.28</ele>
<time>2015-04-30T11:08:55Z</time>
</trkpt>
<trkpt lat="34.9313631" lon="32.9063272">
<ele>1587.02</ele>
<time>2015-04-30T11:08:56Z</time>
</trkpt>
<trkpt lat="34.9314456" lon="32.9064098">
<ele>1585.39</ele>
<time>2015-04-30T11:08:57Z</time>
</trkpt>
<trkpt lat="34.9315373" lon="32.9064875">
<ele>1584.07</ele>
<time>2015-04-30T11:08:58Z</time>
</trkpt>
<trkpt lat="34.9316276" lon="32.9065530">
<ele>1583.42</ele>
<time>2015-04-30T11:08:59Z</time>
</trkpt>
<trkpt lat="34.9317261" lon="32.9066300">
<ele>1582.59</ele>
<time>2015-04-30T11:09:00Z</time>
</trkpt>
<trkpt lat="34.9318209" lon="32.9067148">
<ele>1581.67</ele>
<time>2015-04-30T11:09:01Z</time>
</trkpt>
<trkpt lat="34.9319111" lon="32.9068020">
<ele>1580.72</ele>
<time>2015-04-30T11:09:02Z</time>
</trkpt>
<trkpt lat="34.9319953" lon="32.9069027">
<ele>1580.24</ele>
<time>2015-04-30T11:09:03Z</time>
</trkpt>
<trkpt lat="34.9320714" lon="32.9070186">
<ele>1579.50</ele>
<time>2015-04-30T11:09:04Z</time>
</trkpt>
<trkpt lat="34.9321451" lon="32.9071287">
<ele>1579.63</ele>
<time>2015-04-30T11:09:05Z</time>
</trkpt>
<trkpt lat="34.9322125" lon="32.9072442">
<ele>1579.19</ele>
<time>2015-04-30T11:09:06Z</time>
</trkpt>
<trkpt lat="34.9322652" lon="32.9073459">
<ele>1578.48</ele>
<time>2015-04-30T11:09:07Z</time>
</trkpt>
<trkpt lat="34.9322986" lon="32.9074267">
<ele>1577.62</ele>
<time>2015-04-30T11:09:08Z</time>
</trkpt>
<trkpt lat="34.9323258" lon="32.9075000">
<ele>1577.19</ele>
<time>2015-04-30T11:09:09Z</time>
</trkpt>
<trkpt lat="34.9323512" lon="32.9075681">
<ele>1576.62</ele>
<time>2015-04-30T11:09:11Z</time>
</trkpt>
<trkpt lat="34.9323985" lon="32.9076257">
<ele>1571.26</ele>
<time>2015-04-30T11:14:16Z</time>
</trkpt>
<trkpt lat="34.9324100" lon="32.9077004">
<ele>1570.14</ele>
<time>2015-04-30T11:14:18Z</time>
</trkpt>
<trkpt lat="34.9324112" lon="32.9077654">
<ele>1567.76</ele>
<time>2015-04-30T11:14:27Z</time>
</trkpt>
<trkpt lat="34.9324304" lon="32.9078392">
<ele>1566.26</ele>
<time>2015-04-30T11:14:29Z</time>
</trkpt>
<trkpt lat="34.9324424" lon="32.9078945">
<ele>1565.01</ele>
<time>2015-04-30T11:14:30Z</time>
</trkpt>
<trkpt lat="34.9324603" lon="32.9079942">
<ele>1564.39</ele>
<time>2015-04-30T11:14:31Z</time>
</trkpt>
<trkpt lat="34.9324758" lon="32.9080718">
<ele>1563.57</ele>
<time>2015-04-30T11:14:32Z</time>
</trkpt>
<trkpt lat="34.9324947" lon="32.9081500">
<ele>1562.67</ele>
<time>2015-04-30T11:14:33Z</time>
</trkpt>
<trkpt lat="34.9325138" lon="32.9082274">
<ele>1561.71</ele>
<time>2015-04-30T11:14:34Z</time>
</trkpt>
<trkpt lat="34.9325334" lon="32.9083164">
<ele>1561.24</ele>
<time>2015-04-30T11:14:35Z</time>
</trkpt>
<trkpt lat="34.9325646" lon="32.9084097">
<ele>1560.50</ele>
<time>2015-04-30T11:14:36Z</time>
</trkpt>
<trkpt lat="34.9325897" lon="32.9085020">
<ele>1560.13</ele>
<time>2015-04-30T11:14:37Z</time>
</trkpt>
<trkpt lat="34.9326213" lon="32.9085984">
<ele>1559.94</ele>
<time>2015-04-30T11:14:38Z</time>
</trkpt>
<trkpt lat="34.9326587" lon="32.9086995">
<ele>1559.85</ele>
<time>2015-04-30T11:14:39Z</time>
</trkpt>
<trkpt lat="34.9327020" lon="32.9088034">
<ele>1559.81</ele>
<time>2015-04-30T11:14:40Z</time>
</trkpt>
<trkpt lat="34.9327299" lon="32.9089122">
<ele>1559.28</ele>
<time>2015-04-30T11:14:41Z</time>
</trkpt>
<trkpt lat="34.9327727" lon="32.9090176">
<ele>1558.52</ele>
<time>2015-04-30T11:14:42Z</time>
</trkpt>
<trkpt lat="34.9328105" lon="32.9091102">
<ele>1558.14</ele>
<time>2015-04-30T11:14:43Z</time>
</trkpt>
<trkpt lat="34.9328482" lon="32.9092133">
<ele>1557.45</ele>
<time>2015-04-30T11:14:44Z</time>
</trkpt>
<trkpt lat="34.9328847" lon="32.9093127">
<ele>1557.11</ele>
<time>2015-04-30T11:14:45Z</time>
</trkpt>
<trkpt lat="34.9329232" lon="32.9094067">
<ele>1556.93</ele>
<time>2015-04-30T11:14:46Z</time>
</trkpt>
<trkpt lat="34.9329707" lon="32.9094941">
<ele>1556.35</ele>
<time>2015-04-30T11:14:47Z</time>
</trkpt>
<trkpt lat="34.9330080" lon="32.9095784">
<ele>1555.55</ele>
<time>2015-04-30T11:14:48Z</time>
</trkpt>
<trkpt lat="34.9330454" lon="32.9096572">
<ele>1555.66</ele>
<time>2015-04-30T11:14:49Z</time>
</trkpt>
<trkpt lat="34.9330660" lon="32.9097300">
<ele>1555.21</ele>
<time>2015-04-30T11:14:50Z</time>
</trkpt>
<trkpt lat="34.9330814" lon="32.9098001">
<ele>1553.98</ele>
<time>2015-04-30T11:14:51Z</time>
</trkpt>
<trkpt lat="34.9331032" lon="32.9098617">
<ele>1553.37</ele>
<time>2015-04-30T11:14:52Z</time>
</trkpt>
<trkpt lat="34.9331281" lon="32.9099537">
<ele>1552.91</ele>
<time>2015-04-30T11:14:54Z</time>
</trkpt>
<trkpt lat="34.9331562" lon="32.9100139">
<ele>1552.80</ele>
<time>2015-04-30T11:14:56Z</time>
</trkpt>
<trkpt lat="34.9331888" lon="32.9100613">
<ele>1550.20</ele>
<time>2015-04-30T11:15:00Z</time>
</trkpt>
<trkpt lat="34.9332198" lon="32.9101042">
<ele>1548.18</ele>
<time>2015-04-30T11:15:05Z</time>
</trkpt>
<trkpt lat="34.9332603" lon="32.9101601">
<ele>1548.72</ele>
<time>2015-04-30T11:15:09Z</time>
</trkpt>
<trkpt lat="34.9333049" lon="32.9102067">
<ele>1548.75</ele>
<time>2015-04-30T11:15:11Z</time>
</trkpt>
<trkpt lat="34.9333631" lon="32.9102625">
<ele>1547.51</ele>
<time>2015-04-30T11:15:13Z</time>
</trkpt>
<trkpt lat="34.9334130" lon="32.9103179">
<ele>1546.20</ele>
<time>2015-04-30T11:15:15Z</time>
</trkpt>
<trkpt lat="34.9334638" lon="32.9103848">
<ele>1546.87</ele>
<time>2015-04-30T11:15:17Z</time>
</trkpt>
<trkpt lat="34.9335086" lon="32.9104418">
<ele>1546.81</ele>
<time>2015-04-30T11:15:18Z</time>
</trkpt>
<trkpt lat="34.9335380" lon="32.9104920">
<ele>1546.79</ele>
<time>2015-04-30T11:15:19Z</time>
</trkpt>
<trkpt lat="34.9335796" lon="32.9105542">
<ele>1546.77</ele>
<time>2015-04-30T11:15:20Z</time>
</trkpt>
<trkpt lat="34.9336141" lon="32.9106125">
<ele>1547.27</ele>
<time>2015-04-30T11:15:21Z</time>
</trkpt>
<trkpt lat="34.9336458" lon="32.9106832">
<ele>1547.51</ele>
<time>2015-04-30T11:15:22Z</time>
</trkpt>
<trkpt lat="34.9336708" lon="32.9107651">
<ele>1547.64</ele>
<time>2015-04-30T11:15:23Z</time>
</trkpt>
<trkpt lat="34.9336986" lon="32.9108475">
<ele>1546.70</ele>
<time>2015-04-30T11:15:24Z</time>
</trkpt>
<trkpt lat="34.9337204" lon="32.9109299">
<ele>1546.73</ele>
<time>2015-04-30T11:15:25Z</time>
</trkpt>
<trkpt lat="34.9337334" lon="32.9110232">
<ele>1546.24</ele>
<time>2015-04-30T11:15:26Z</time>
</trkpt>
<trkpt lat="34.9337385" lon="32.9111184">
<ele>1545.50</ele>
<time>2015-04-30T11:15:27Z</time>
</trkpt>
<trkpt lat="34.9337489" lon="32.9112263">
<ele>1545.13</ele>
<time>2015-04-30T11:15:28Z</time>
</trkpt>
<trkpt lat="34.9337466" lon="32.9113324">
<ele>1544.45</ele>
<time>2015-04-30T11:15:29Z</time>
</trkpt>
<trkpt lat="34.9337302" lon="32.9114325">
<ele>1543.60</ele>
<time>2015-04-30T11:15:30Z</time>
</trkpt>
<trkpt lat="34.9337009" lon="32.9115481">
<ele>1543.18</ele>
<time>2015-04-30T11:15:31Z</time>
</trkpt>
<trkpt lat="34.9336603" lon="32.9116570">
<ele>1542.47</ele>
<time>2015-04-30T11:15:32Z</time>
</trkpt>
<trkpt lat="34.9336015" lon="32.9117584">
<ele>1542.12</ele>
<time>2015-04-30T11:15:33Z</time>
</trkpt>
<trkpt lat="34.9335397" lon="32.9118482">
<ele>1541.44</ele>
<time>2015-04-30T11:15:34Z</time>
</trkpt>
<trkpt lat="34.9334631" lon="32.9119305">
<ele>1540.60</ele>
<time>2015-04-30T11:15:35Z</time>
</trkpt>
<trkpt lat="34.9333819" lon="32.9120261">
<ele>1539.68</ele>
<time>2015-04-30T11:15:36Z</time>
</trkpt>
<trkpt lat="34.9332987" lon="32.9121195">
<ele>1538.72</ele>
<time>2015-04-30T11:15:37Z</time>
</trkpt>
<trkpt lat="34.9332181" lon="32.9122272">
<ele>1537.24</ele>
<time>2015-04-30T11:15:38Z</time>
</trkpt>
<trkpt lat="34.9331393" lon="32.9123248">
<ele>1536.00</ele>
<time>2015-04-30T11:15:39Z</time>
</trkpt>
<trkpt lat="34.9330634" lon="32.9124174">
<ele>1534.38</ele>
<time>2015-04-30T11:15:40Z</time>
</trkpt>
<trkpt lat="34.9329879" lon="32.9125004">
<ele>1533.07</ele>
<time>2015-04-30T11:15:41Z</time>
</trkpt>
<trkpt lat="34.9329133" lon="32.9125919">
<ele>1532.42</ele>
<time>2015-04-30T11:15:42Z</time>
</trkpt>
<trkpt lat="34.9328719" lon="32.9126758">
<ele>1532.09</ele>
<time>2015-04-30T11:15:43Z</time>
</trkpt>
<trkpt lat="34.9328332" lon="32.9127752">
<ele>1531.42</ele>
<time>2015-04-30T11:15:44Z</time>
</trkpt>
<trkpt lat="34.9327967" lon="32.9128736">
<ele>1530.59</ele>
<time>2015-04-30T11:15:45Z</time>
</trkpt>
<trkpt lat="34.9327826" lon="32.9129811">
<ele>1529.68</ele>
<time>2015-04-30T11:15:46Z</time>
</trkpt>
<trkpt lat="34.9327926" lon="32.9130851">
<ele>1529.22</ele>
<time>2015-04-30T11:15:47Z</time>
</trkpt>
<trkpt lat="34.9328090" lon="32.9131929">
<ele>1527.99</ele>
<time>2015-04-30T11:15:48Z</time>
</trkpt>
<trkpt lat="34.9328465" lon="32.9132864">
<ele>1526.87</ele>
<time>2015-04-30T11:15:49Z</time>
</trkpt>
<trkpt lat="34.9329061" lon="32.9133804">
<ele>1526.32</ele>
<time>2015-04-30T11:15:50Z</time>
</trkpt>
<trkpt lat="34.9329585" lon="32.9134675">
<ele>1526.04</ele>
<time>2015-04-30T11:15:51Z</time>
</trkpt>
<trkpt lat="34.9330061" lon="32.9135629">
<ele>1525.40</ele>
<time>2015-04-30T11:15:52Z</time>
</trkpt>
<trkpt lat="34.9330592" lon="32.9136622">
<ele>1524.08</ele>
<time>2015-04-30T11:15:53Z</time>
</trkpt>
<trkpt lat="34.9331168" lon="32.9137529">
<ele>1522.92</ele>
<time>2015-04-30T11:15:54Z</time>
</trkpt>
<trkpt lat="34.9331664" lon="32.9138489">
<ele>1521.84</ele>
<time>2015-04-30T11:15:55Z</time>
</trkpt>
<trkpt lat="34.9332280" lon="32.9139570">
<ele>1521.30</ele>
<time>2015-04-30T11:15:56Z</time>
</trkpt>
<trkpt lat="34.9332789" lon="32.9140666">
<ele>1520.53</ele>
<time>2015-04-30T11:15:57Z</time>
</trkpt>
<trkpt lat="34.9333078" lon="32.9141744">
<ele>1520.15</ele>
<time>2015-04-30T11:15:58Z</time>
</trkpt>
<trkpt lat="34.9333146" lon="32.9142903">
<ele>1519.45</ele>
<time>2015-04-30T11:15:59Z</time>
</trkpt>
<trkpt lat="34.9333038" lon="32.9144004">
<ele>1518.11</ele>
<time>2015-04-30T11:16:00Z</time>
</trkpt>
<trkpt lat="34.9332749" lon="32.9145120">
<ele>1517.43</ele>
<time>2015-04-30T11:16:01Z</time>
</trkpt>
<trkpt lat="34.9332298" lon="32.9146127">
<ele>1516.60</ele>
<time>2015-04-30T11:16:02Z</time>
</trkpt>
<trkpt lat="34.9331800" lon="32.9147084">
<ele>1516.18</ele>
<time>2015-04-30T11:16:03Z</time>
</trkpt>
<trkpt lat="34.9331246" lon="32.9147744">
<ele>1514.97</ele>
<time>2015-04-30T11:16:04Z</time>
</trkpt>
<trkpt lat="34.9330834" lon="32.9148464">
<ele>1513.86</ele>
<time>2015-04-30T11:16:05Z</time>
</trkpt>
<trkpt lat="34.9330437" lon="32.9149026">
<ele>1513.31</ele>
<time>2015-04-30T11:16:06Z</time>
</trkpt>
<trkpt lat="34.9330106" lon="32.9149652">
<ele>1512.54</ele>
<time>2015-04-30T11:16:07Z</time>
</trkpt>
<trkpt lat="34.9329762" lon="32.9150267">
<ele>1511.65</ele>
<time>2015-04-30T11:16:08Z</time>
</trkpt>
<trkpt lat="34.9329378" lon="32.9150921">
<ele>1510.70</ele>
<time>2015-04-30T11:16:09Z</time>
</trkpt>
<trkpt lat="34.9329027" lon="32.9151558">
<ele>1510.23</ele>
<time>2015-04-30T11:16:10Z</time>
</trkpt>
<trkpt lat="34.9328808" lon="32.9152307">
<ele>1509.50</ele>
<time>2015-04-30T11:16:11Z</time>
</trkpt>
<trkpt lat="34.9328702" lon="32.9153022">
<ele>1508.63</ele>
<time>2015-04-30T11:16:12Z</time>
</trkpt>
<trkpt lat="34.9328829" lon="32.9153898">
<ele>1507.69</ele>
<time>2015-04-30T11:16:13Z</time>
</trkpt>
<trkpt lat="34.9329107" lon="32.9154620">
<ele>1506.73</ele>
<time>2015-04-30T11:16:14Z</time>
</trkpt>
<trkpt lat="34.9329503" lon="32.9155381">
<ele>1506.74</ele>
<time>2015-04-30T11:16:15Z</time>
</trkpt>
<trkpt lat="34.9330125" lon="32.9155986">
<ele>1506.25</ele>
<time>2015-04-30T11:16:16Z</time>
</trkpt>
<trkpt lat="34.9330854" lon="32.9156578">
<ele>1506.01</ele>
<time>2015-04-30T11:16:17Z</time>
</trkpt>
<trkpt lat="34.9331600" lon="32.9157113">
<ele>1504.88</ele>
<time>2015-04-30T11:16:18Z</time>
</trkpt>
<trkpt lat="34.9332392" lon="32.9157710">
<ele>1504.32</ele>
<time>2015-04-30T11:16:19Z</time>
</trkpt>
<trkpt lat="34.9333196" lon="32.9158324">
<ele>1503.54</ele>
<time>2015-04-30T11:16:20Z</time>
</trkpt>
<trkpt lat="34.9334073" lon="32.9158890">
<ele>1503.15</ele>
<time>2015-04-30T11:16:21Z</time>
</trkpt>
<trkpt lat="34.9334899" lon="32.9159460">
<ele>1502.46</ele>
<time>2015-04-30T11:16:22Z</time>
</trkpt>
<trkpt lat="34.9335764" lon="32.9159987">
<ele>1501.61</ele>
<time>2015-04-30T11:16:23Z</time>
</trkpt>
<trkpt lat="34.9336620" lon="32.9160674">
<ele>1501.18</ele>
<time>2015-04-30T11:16:24Z</time>
</trkpt>
<trkpt lat="34.9337456" lon="32.9161365">
<ele>1499.97</ele>
<time>2015-04-30T11:16:25Z</time>
</trkpt>
<trkpt lat="34.9338361" lon="32.9162069">
<ele>1498.87</ele>
<time>2015-04-30T11:16:26Z</time>
</trkpt>
<trkpt lat="34.9339175" lon="32.9162977">
<ele>1497.81</ele>
<time>2015-04-30T11:16:27Z</time>
</trkpt>
<trkpt lat="34.9340080" lon="32.9163854">
<ele>1496.29</ele>
<time>2015-04-30T11:16:28Z</time>
</trkpt>
<trkpt lat="34.9340714" lon="32.9164806">
<ele>1495.02</ele>
<time>2015-04-30T11:16:29Z</time>
</trkpt>
<trkpt lat="34.9341326" lon="32.9165900">
<ele>1493.89</ele>
<time>2015-04-30T11:16:30Z</time>
</trkpt>
<trkpt lat="34.9341875" lon="32.9167162">
<ele>1492.33</ele>
<time>2015-04-30T11:16:31Z</time>
</trkpt>
<trkpt lat="34.9342365" lon="32.9168425">
<ele>1491.04</ele>
<time>2015-04-30T11:16:32Z</time>
</trkpt>
<trkpt lat="34.9342815" lon="32.9169719">
<ele>1490.40</ele>
<time>2015-04-30T11:16:33Z</time>
</trkpt>
<trkpt lat="34.9343275" lon="32.9171122">
<ele>1490.08</ele>
<time>2015-04-30T11:16:34Z</time>
</trkpt>
<trkpt lat="34.9343693" lon="32.9172499">
<ele>1489.42</ele>
<time>2015-04-30T11:16:35Z</time>
</trkpt>
<trkpt lat="34.9343972" lon="32.9173902">
<ele>1488.09</ele>
<time>2015-04-30T11:16:36Z</time>
</trkpt>
<trkpt lat="34.9344203" lon="32.9175207">
<ele>1486.93</ele>
<time>2015-04-30T11:16:37Z</time>
</trkpt>
<trkpt lat="34.9344280" lon="32.9176687">
<ele>1486.34</ele>
<time>2015-04-30T11:16:38Z</time>
</trkpt>
<trkpt lat="34.9344292" lon="32.9177943">
<ele>1485.05</ele>
<time>2015-04-30T11:16:39Z</time>
</trkpt>
<trkpt lat="34.9344265" lon="32.9179355">
<ele>1483.41</ele>
<time>2015-04-30T11:16:40Z</time>
</trkpt>
<trkpt lat="34.9344209" lon="32.9180666">
<ele>1481.58</ele>
<time>2015-04-30T11:16:41Z</time>
</trkpt>
<trkpt lat="34.9344108" lon="32.9182136">
<ele>1479.67</ele>
<time>2015-04-30T11:16:42Z</time>
</trkpt>
<trkpt lat="34.9343988" lon="32.9183541">
<ele>1478.22</ele>
<time>2015-04-30T11:16:43Z</time>
</trkpt>
<trkpt lat="34.9343824" lon="32.9185045">
<ele>1476.99</ele>
<time>2015-04-30T11:16:44Z</time>
</trkpt>
<trkpt lat="34.9343643" lon="32.9186463">
<ele>1475.87</ele>
<time>2015-04-30T11:16:45Z</time>
</trkpt>
<trkpt lat="34.9343542" lon="32.9187945">
<ele>1474.82</ele>
<time>2015-04-30T11:16:46Z</time>
</trkpt>
<trkpt lat="34.9343410" lon="32.9189434">
<ele>1472.79</ele>
<time>2015-04-30T11:16:47Z</time>
</trkpt>
<trkpt lat="34.9343152" lon="32.9190965">
<ele>1471.27</ele>
<time>2015-04-30T11:16:48Z</time>
</trkpt>
<trkpt lat="34.9342821" lon="32.9192494">
<ele>1470.02</ele>
<time>2015-04-30T11:16:49Z</time>
</trkpt>
<trkpt lat="34.9342483" lon="32.9194038">
<ele>1468.39</ele>
<time>2015-04-30T11:16:50Z</time>
</trkpt>
<trkpt lat="34.9342145" lon="32.9195567">
<ele>1466.57</ele>
<time>2015-04-30T11:16:51Z</time>
</trkpt>
<trkpt lat="34.9341654" lon="32.9197091">
<ele>1464.67</ele>
<time>2015-04-30T11:16:52Z</time>
</trkpt>
<trkpt lat="34.9341039" lon="32.9198449">
<ele>1463.21</ele>
<time>2015-04-30T11:16:53Z</time>
</trkpt>
<trkpt lat="34.9340368" lon="32.9199656">
<ele>1461.49</ele>
<time>2015-04-30T11:16:54Z</time>
</trkpt>
<trkpt lat="34.9339621" lon="32.9200827">
<ele>1459.62</ele>
<time>2015-04-30T11:16:55Z</time>
</trkpt>
<trkpt lat="34.9338652" lon="32.9201928">
<ele>1457.69</ele>
<time>2015-04-30T11:16:56Z</time>
</trkpt>
<trkpt lat="34.9337672" lon="32.9202872">
<ele>1456.23</ele>
<time>2015-04-30T11:16:57Z</time>
</trkpt>
<trkpt lat="34.9336561" lon="32.9203668">
<ele>1454.99</ele>
<time>2015-04-30T11:16:58Z</time>
</trkpt>
<trkpt lat="34.9335416" lon="32.9204052">
<ele>1452.88</ele>
<time>2015-04-30T11:16:59Z</time>
</trkpt>
<trkpt lat="34.9334149" lon="32.9204319">
<ele>1450.82</ele>
<time>2015-04-30T11:17:00Z</time>
</trkpt>
<trkpt lat="34.9332942" lon="32.9204489">
<ele>1449.29</ele>
<time>2015-04-30T11:17:01Z</time>
</trkpt>
<trkpt lat="34.9331629" lon="32.9204395">
<ele>1448.02</ele>
<time>2015-04-30T11:17:02Z</time>
</trkpt>
<trkpt lat="34.9330416" lon="32.9204060">
<ele>1446.89</ele>
<time>2015-04-30T11:17:03Z</time>
</trkpt>
<trkpt lat="34.9329112" lon="32.9203488">
<ele>1445.33</ele>
<time>2015-04-30T11:17:04Z</time>
</trkpt>
<trkpt lat="34.9327954" lon="32.9202758">
<ele>1444.04</ele>
<time>2015-04-30T11:17:05Z</time>
</trkpt>
<trkpt lat="34.9326865" lon="32.9201882">
<ele>1442.90</ele>
<time>2015-04-30T11:17:06Z</time>
</trkpt>
<trkpt lat="34.9325776" lon="32.9200810">
<ele>1441.83</ele>
<time>2015-04-30T11:17:07Z</time>
</trkpt>
<trkpt lat="34.9324753" lon="32.9199663">
<ele>1440.30</ele>
<time>2015-04-30T11:17:08Z</time>
</trkpt>
<trkpt lat="34.9323773" lon="32.9198532">
<ele>1439.03</ele>
<time>2015-04-30T11:17:09Z</time>
</trkpt>
<trkpt lat="34.9322788" lon="32.9197337">
<ele>1437.89</ele>
<time>2015-04-30T11:17:10Z</time>
</trkpt>
<trkpt lat="34.9321712" lon="32.9196183">
<ele>1436.33</ele>
<time>2015-04-30T11:17:11Z</time>
</trkpt>
<trkpt lat="34.9320637" lon="32.9194937">
<ele>1434.54</ele>
<time>2015-04-30T11:17:12Z</time>
</trkpt>
<trkpt lat="34.9319628" lon="32.9193820">
<ele>1433.65</ele>
<time>2015-04-30T11:17:13Z</time>
</trkpt>
<trkpt lat="34.9318698" lon="32.9192752">
<ele>1432.21</ele>
<time>2015-04-30T11:17:14Z</time>
</trkpt>
<trkpt lat="34.9317849" lon="32.9191672">
<ele>1430.98</ele>
<time>2015-04-30T11:17:15Z</time>
</trkpt>
<trkpt lat="34.9316968" lon="32.9190557">
<ele>1429.87</ele>
<time>2015-04-30T11:17:16Z</time>
</trkpt>
<trkpt lat="34.9316156" lon="32.9189552">
<ele>1428.82</ele>
<time>2015-04-30T11:17:17Z</time>
</trkpt>
<trkpt lat="34.9315355" lon="32.9188474">
<ele>1427.29</ele>
<time>2015-04-30T11:17:18Z</time>
</trkpt>
<trkpt lat="34.9314663" lon="32.9187314">
<ele>1426.02</ele>
<time>2015-04-30T11:17:19Z</time>
</trkpt>
<trkpt lat="34.9313971" lon="32.9186028">
<ele>1424.89</ele>
<time>2015-04-30T11:17:20Z</time>
</trkpt>
<trkpt lat="34.9313322" lon="32.9184808">
<ele>1423.83</ele>
<time>2015-04-30T11:17:21Z</time>
</trkpt>
<trkpt lat="34.9312668" lon="32.9183542">
<ele>1422.29</ele>
<time>2015-04-30T11:17:22Z</time>
</trkpt>
<trkpt lat="34.9312036" lon="32.9182276">
<ele>1421.03</ele>
<time>2015-04-30T11:17:23Z</time>
</trkpt>
<trkpt lat="34.9311460" lon="32.9180906">
<ele>1419.89</ele>
<time>2015-04-30T11:17:24Z</time>
</trkpt>
<trkpt lat="34.9310974" lon="32.9179669">
<ele>1419.33</ele>
<time>2015-04-30T11:17:25Z</time>
</trkpt>
<trkpt lat="34.9310607" lon="32.9178396">
<ele>1418.54</ele>
<time>2015-04-30T11:17:26Z</time>
</trkpt>
<trkpt lat="34.9310376" lon="32.9177100">
<ele>1417.65</ele>
<time>2015-04-30T11:17:27Z</time>
</trkpt>
<trkpt lat="34.9310221" lon="32.9175756">
<ele>1416.71</ele>
<time>2015-04-30T11:17:28Z</time>
</trkpt>
<trkpt lat="34.9310250" lon="32.9174456">
<ele>1415.73</ele>
<time>2015-04-30T11:17:29Z</time>
</trkpt>
<trkpt lat="34.9310207" lon="32.9173189">
<ele>1414.75</ele>
<time>2015-04-30T11:17:30Z</time>
</trkpt>
<trkpt lat="34.9310190" lon="32.9171883">
<ele>1413.25</ele>
<time>2015-04-30T11:17:31Z</time>
</trkpt>
<trkpt lat="34.9310240" lon="32.9170485">
<ele>1412.51</ele>
<time>2015-04-30T11:17:32Z</time>
</trkpt>
<trkpt lat="34.9310265" lon="32.9169151">
<ele>1411.63</ele>
<time>2015-04-30T11:17:33Z</time>
</trkpt>
<trkpt lat="34.9310326" lon="32.9167799">
<ele>1410.70</ele>
<time>2015-04-30T11:17:34Z</time>
</trkpt>
<trkpt lat="34.9310279" lon="32.9166420">
<ele>1409.23</ele>
<time>2015-04-30T11:17:35Z</time>
</trkpt>
<trkpt lat="34.9310132" lon="32.9164952">
<ele>1408.49</ele>
<time>2015-04-30T11:17:36Z</time>
</trkpt>
<trkpt lat="34.9309910" lon="32.9163599">
<ele>1407.13</ele>
<time>2015-04-30T11:17:37Z</time>
</trkpt>
<trkpt lat="34.9309647" lon="32.9162170">
<ele>1406.44</ele>
<time>2015-04-30T11:17:38Z</time>
</trkpt>
<trkpt lat="34.9309328" lon="32.9160714">
<ele>1405.60</ele>
<time>2015-04-30T11:17:39Z</time>
</trkpt>
<trkpt lat="34.9309036" lon="32.9159207">
<ele>1404.68</ele>
<time>2015-04-30T11:17:40Z</time>
</trkpt>
<trkpt lat="34.9308737" lon="32.9157744">
<ele>1403.22</ele>
<time>2015-04-30T11:17:41Z</time>
</trkpt>
<trkpt lat="34.9308430" lon="32.9156214">
<ele>1402.49</ele>
<time>2015-04-30T11:17:42Z</time>
</trkpt>
<trkpt lat="34.9308066" lon="32.9154713">
<ele>1401.63</ele>
<time>2015-04-30T11:17:43Z</time>
</trkpt>
<trkpt lat="34.9307808" lon="32.9153208">
<ele>1400.69</ele>
<time>2015-04-30T11:17:44Z</time>
</trkpt>
<trkpt lat="34.9307631" lon="32.9151787">
<ele>1399.73</ele>
<time>2015-04-30T11:17:45Z</time>
</trkpt>
<trkpt lat="34.9307527" lon="32.9150207">
<ele>1398.24</ele>
<time>2015-04-30T11:17:46Z</time>
</trkpt>
<trkpt lat="34.9307445" lon="32.9148755">
<ele>1397.50</ele>
<time>2015-04-30T11:17:47Z</time>
</trkpt>
<trkpt lat="34.9307412" lon="32.9147315">
<ele>1396.63</ele>
<time>2015-04-30T11:17:48Z</time>
</trkpt>
<trkpt lat="34.9307401" lon="32.9146061">
<ele>1396.20</ele>
<time>2015-04-30T11:17:49Z</time>
</trkpt>
<trkpt lat="34.9307250" lon="32.9145024">
<ele>1395.48</ele>
<time>2015-04-30T11:17:50Z</time>
</trkpt>
<trkpt lat="34.9306926" lon="32.9144167">
<ele>1395.12</ele>
<time>2015-04-30T11:17:51Z</time>
</trkpt>
<trkpt lat="34.9306339" lon="32.9143654">
<ele>1394.44</ele>
<time>2015-04-30T11:17:52Z</time>
</trkpt>
<trkpt lat="34.9305785" lon="32.9143515">
<ele>1393.60</ele>
<time>2015-04-30T11:17:53Z</time>
</trkpt>
<trkpt lat="34.9305183" lon="32.9143743">
<ele>1393.18</ele>
<time>2015-04-30T11:17:54Z</time>
</trkpt>
<trkpt lat="34.9304689" lon="32.9144113">
<ele>1392.47</ele>
<time>2015-04-30T11:17:55Z</time>
</trkpt>
<trkpt lat="34.9304331" lon="32.9144596">
<ele>1392.11</ele>
<time>2015-04-30T11:17:56Z</time>
</trkpt>
<trkpt lat="34.9304319" lon="32.9145576">
<ele>1391.35</ele>
<time>2015-04-30T11:17:58Z</time>
</trkpt>
<trkpt lat="34.9304576" lon="32.9146563">
<ele>1390.41</ele>
<time>2015-04-30T11:18:00Z</time>
</trkpt>
<trkpt lat="34.9304650" lon="32.9147148">
<ele>1389.58</ele>
<time>2015-04-30T11:18:01Z</time>
</trkpt>
<trkpt lat="34.9304689" lon="32.9147736">
<ele>1389.17</ele>
<time>2015-04-30T11:18:02Z</time>
</trkpt>
<trkpt lat="34.9304660" lon="32.9148322">
<ele>1388.97</ele>
<time>2015-04-30T11:18:03Z</time>
</trkpt>
<trkpt lat="34.9304742" lon="32.9149005">
<ele>1388.36</ele>
<time>2015-04-30T11:18:04Z</time>
</trkpt>
<trkpt lat="34.9304880" lon="32.9149722">
<ele>1388.06</ele>
<time>2015-04-30T11:18:05Z</time>
</trkpt>
<trkpt lat="34.9305046" lon="32.9150460">
<ele>1387.41</ele>
<time>2015-04-30T11:18:06Z</time>
</trkpt>
<trkpt lat="34.9305164" lon="32.9151235">
<ele>1387.09</ele>
<time>2015-04-30T11:18:07Z</time>
</trkpt>
<trkpt lat="34.9305270" lon="32.9152060">
<ele>1386.92</ele>
<time>2015-04-30T11:18:08Z</time>
</trkpt>
<trkpt lat="34.9305416" lon="32.9152848">
<ele>1386.84</ele>
<time>2015-04-30T11:18:09Z</time>
</trkpt>
<trkpt lat="34.9305520" lon="32.9153692">
<ele>1386.80</ele>
<time>2015-04-30T11:18:10Z</time>
</trkpt>
<trkpt lat="34.9305616" lon="32.9154548">
<ele>1386.28</ele>
<time>2015-04-30T11:18:11Z</time>
</trkpt>
<trkpt lat="34.9305727" lon="32.9155484">
<ele>1386.02</ele>
<time>2015-04-30T11:18:12Z</time>
</trkpt>
<trkpt lat="34.9305939" lon="32.9156333">
<ele>1385.89</ele>
<time>2015-04-30T11:18:13Z</time>
</trkpt>
<trkpt lat="34.9305993" lon="32.9157271">
<ele>1384.83</ele>
<time>2015-04-30T11:18:14Z</time>
</trkpt>
<trkpt lat="34.9306080" lon="32.9158247">
<ele>1384.29</ele>
<time>2015-04-30T11:18:15Z</time>
</trkpt>
<trkpt lat="34.9306100" lon="32.9159340">
<ele>1383.53</ele>
<time>2015-04-30T11:18:16Z</time>
</trkpt>
<trkpt lat="34.9306153" lon="32.9160416">
<ele>1383.14</ele>
<time>2015-04-30T11:18:17Z</time>
</trkpt>
<trkpt lat="34.9306100" lon="32.9161504">
<ele>1382.45</ele>
<time>2015-04-30T11:18:18Z</time>
</trkpt>
<trkpt lat="34.9305956" lon="32.9162626">
<ele>1381.61</ele>
<time>2015-04-30T11:18:19Z</time>
</trkpt>
<trkpt lat="34.9305794" lon="32.9163817">
<ele>1381.18</ele>
<time>2015-04-30T11:18:20Z</time>
</trkpt>
<trkpt lat="34.9305652" lon="32.9164874">
<ele>1379.97</ele>
<time>2015-04-30T11:18:21Z</time>
</trkpt>
<trkpt lat="34.9305480" lon="32.9166066">
<ele>1379.37</ele>
<time>2015-04-30T11:18:22Z</time>
</trkpt>
<trkpt lat="34.9305282" lon="32.9167252">
<ele>1378.56</ele>
<time>2015-04-30T11:18:23Z</time>
</trkpt>
<trkpt lat="34.9305032" lon="32.9168593">
<ele>1378.16</ele>
<time>2015-04-30T11:18:24Z</time>
</trkpt>
<trkpt lat="34.9304814" lon="32.9169783">
<ele>1377.46</ele>
<time>2015-04-30T11:18:25Z</time>
</trkpt>
<trkpt lat="34.9304585" lon="32.9171038">
<ele>1377.11</ele>
<time>2015-04-30T11:18:26Z</time>
</trkpt>
<trkpt lat="34.9304365" lon="32.9172274">
<ele>1376.44</ele>
<time>2015-04-30T11:18:27Z</time>
</trkpt>
<trkpt lat="34.9304189" lon="32.9173593">
<ele>1376.10</ele>
<time>2015-04-30T11:18:28Z</time>
</trkpt>
<trkpt lat="34.9303958" lon="32.9174909">
<ele>1375.93</ele>
<time>2015-04-30T11:18:29Z</time>
</trkpt>
<trkpt lat="34.9303743" lon="32.9176134">
<ele>1375.84</ele>
<time>2015-04-30T11:18:30Z</time>
</trkpt>
<trkpt lat="34.9303527" lon="32.9177428">
<ele>1375.30</ele>
<time>2015-04-30T11:18:31Z</time>
</trkpt>
<trkpt lat="34.9303132" lon="32.9178755">
<ele>1374.53</ele>
<time>2015-04-30T11:18:32Z</time>
</trkpt>
<trkpt lat="34.9302677" lon="32.9179972">
<ele>1373.65</ele>
<time>2015-04-30T11:18:33Z</time>
</trkpt>
<trkpt lat="34.9302154" lon="32.9181198">
<ele>1373.20</ele>
<time>2015-04-30T11:18:34Z</time>
</trkpt>
<trkpt lat="34.9301444" lon="32.9182336">
<ele>1372.98</ele>
<time>2015-04-30T11:18:35Z</time>
</trkpt>
<trkpt lat="34.9300714" lon="32.9183299">
<ele>1372.37</ele>
<time>2015-04-30T11:18:36Z</time>
</trkpt>
<trkpt lat="34.9299908" lon="32.9184154">
<ele>1372.07</ele>
<time>2015-04-30T11:18:37Z</time>
</trkpt>
<trkpt lat="34.9299003" lon="32.9185008">
<ele>1371.41</ele>
<time>2015-04-30T11:18:38Z</time>
</trkpt>
<trkpt lat="34.9298070" lon="32.9185840">
<ele>1371.09</ele>
<time>2015-04-30T11:18:39Z</time>
</trkpt>
<trkpt lat="34.9297126" lon="32.9186760">
<ele>1370.42</ele>
<time>2015-04-30T11:18:40Z</time>
</trkpt>
<trkpt lat="34.9296282" lon="32.9187753">
<ele>1370.09</ele>
<time>2015-04-30T11:18:41Z</time>
</trkpt>
<trkpt lat="34.9295458" lon="32.9188737">
<ele>1369.43</ele>
<time>2015-04-30T11:18:42Z</time>
</trkpt>
<trkpt lat="34.9294769" lon="32.9189844">
<ele>1368.59</ele>
<time>2015-04-30T11:18:43Z</time>
</trkpt>
<trkpt lat="34.9294267" lon="32.9191141">
<ele>1368.18</ele>
<time>2015-04-30T11:18:44Z</time>
</trkpt>
<trkpt lat="34.9293994" lon="32.9192405">
<ele>1366.97</ele>
<time>2015-04-30T11:18:45Z</time>
</trkpt>
<trkpt lat="34.9293874" lon="32.9193878">
<ele>1366.36</ele>
<time>2015-04-30T11:18:46Z</time>
</trkpt>
<trkpt lat="34.9293800" lon="32.9195384">
<ele>1365.56</ele>
<time>2015-04-30T11:18:47Z</time>
</trkpt>
<trkpt lat="34.9293930" lon="32.9196932">
<ele>1364.66</ele>
<time>2015-04-30T11:18:48Z</time>
</trkpt>
<trkpt lat="34.9294055" lon="32.9198393">
<ele>1363.71</ele>
<time>2015-04-30T11:18:49Z</time>
</trkpt>
<trkpt lat="34.9294210" lon="32.9199976">
<ele>1362.74</ele>
<time>2015-04-30T11:18:50Z</time>
</trkpt>
<trkpt lat="34.9294380" lon="32.9201572">
<ele>1361.75</ele>
<time>2015-04-30T11:18:51Z</time>
</trkpt>
<trkpt lat="34.9294500" lon="32.9203225">
<ele>1360.75</ele>
<time>2015-04-30T11:18:52Z</time>
</trkpt>
<trkpt lat="34.9294595" lon="32.9204842">
<ele>1359.76</ele>
<time>2015-04-30T11:18:53Z</time>
</trkpt>
<trkpt lat="34.9294673" lon="32.9206459">
<ele>1358.26</ele>
<time>2015-04-30T11:18:54Z</time>
</trkpt>
<trkpt lat="34.9294747" lon="32.9208066">
<ele>1357.01</ele>
<time>2015-04-30T11:18:55Z</time>
</trkpt>
<trkpt lat="34.9294791" lon="32.9209627">
<ele>1355.88</ele>
<time>2015-04-30T11:18:56Z</time>
</trkpt>
<trkpt lat="34.9294635" lon="32.9211020">
<ele>1354.82</ele>
<time>2015-04-30T11:18:57Z</time>
</trkpt>
<trkpt lat="34.9294347" lon="32.9212271">
<ele>1353.79</ele>
<time>2015-04-30T11:18:58Z</time>
</trkpt>
<trkpt lat="34.9293888" lon="32.9213446">
<ele>1352.78</ele>
<time>2015-04-30T11:18:59Z</time>
</trkpt>
<trkpt lat="34.9293300" lon="32.9214697">
<ele>1351.77</ele>
<time>2015-04-30T11:19:00Z</time>
</trkpt>
<trkpt lat="34.9292876" lon="32.9215837">
<ele>1350.76</ele>
<time>2015-04-30T11:19:01Z</time>
</trkpt>
<trkpt lat="34.9292393" lon="32.9216899">
<ele>1349.76</ele>
<time>2015-04-30T11:19:02Z</time>
</trkpt>
<trkpt lat="34.9292106" lon="32.9217833">
<ele>1348.76</ele>
<time>2015-04-30T11:19:03Z</time>
</trkpt>
<trkpt lat="34.9291853" lon="32.9218843">
<ele>1347.76</ele>
<time>2015-04-30T11:19:04Z</time>
</trkpt>
<trkpt lat="34.9291845" lon="32.9219795">
<ele>1346.76</ele>
<time>2015-04-30T11:19:05Z</time>
</trkpt>
<trkpt lat="34.9292063" lon="32.9220824">
<ele>1345.76</ele>
<time>2015-04-30T11:19:06Z</time>
</trkpt>
<trkpt lat="34.9292456" lon="32.9221856">
<ele>1344.76</ele>
<time>2015-04-30T11:19:07Z</time>
</trkpt>
<trkpt lat="34.9292909" lon="32.9222888">
<ele>1343.76</ele>
<time>2015-04-30T11:19:08Z</time>
</trkpt>
<trkpt lat="34.9293352" lon="32.9223893">
<ele>1342.76</ele>
<time>2015-04-30T11:19:09Z</time>
</trkpt>
<trkpt lat="34.9293719" lon="32.9225037">
<ele>1341.76</ele>
<time>2015-04-30T11:19:10Z</time>
</trkpt>
<trkpt lat="34.9294078" lon="32.9226265">
<ele>1340.76</ele>
<time>2015-04-30T11:19:11Z</time>
</trkpt>
<trkpt lat="34.9294247" lon="32.9227596">
<ele>1339.76</ele>
<time>2015-04-30T11:19:12Z</time>
</trkpt>
<trkpt lat="34.9294369" lon="32.9228873">
<ele>1338.76</ele>
<time>2015-04-30T11:19:13Z</time>
</trkpt>
<trkpt lat="34.9294365" lon="32.9230207">
<ele>1337.76</ele>
<time>2015-04-30T11:19:14Z</time>
</trkpt>
<trkpt lat="34.9294295" lon="32.9231568">
<ele>1336.76</ele>
<time>2015-04-30T11:19:15Z</time>
</trkpt>
<trkpt lat="34.9294152" lon="32.9233007">
<ele>1335.76</ele>
<time>2015-04-30T11:19:16Z</time>
</trkpt>
<trkpt lat="34.9294033" lon="32.9234352">
<ele>1335.26</ele>
<time>2015-04-30T11:19:17Z</time>
</trkpt>
<trkpt lat="34.9293974" lon="32.9235777">
<ele>1334.51</ele>
<time>2015-04-30T11:19:18Z</time>
</trkpt>
<trkpt lat="34.9293937" lon="32.9237265">
<ele>1333.64</ele>
<time>2015-04-30T11:19:19Z</time>
</trkpt>
<trkpt lat="34.9293968" lon="32.9238841">
<ele>1332.70</ele>
<time>2015-04-30T11:19:20Z</time>
</trkpt>
<trkpt lat="34.9294079" lon="32.9240258">
<ele>1331.73</ele>
<time>2015-04-30T11:19:21Z</time>
</trkpt>
<trkpt lat="34.9294452" lon="32.9241690">
<ele>1330.24</ele>
<time>2015-04-30T11:19:22Z</time>
</trkpt>
<trkpt lat="34.9294978" lon="32.9243003">
<ele>1329.50</ele>
<time>2015-04-30T11:19:23Z</time>
</trkpt>
<trkpt lat="34.9295727" lon="32.9244133">
<ele>1328.63</ele>
<time>2015-04-30T11:19:24Z</time>
</trkpt>
<trkpt lat="34.9296608" lon="32.9244953">
<ele>1327.70</ele>
<time>2015-04-30T11:19:25Z</time>
</trkpt>
<trkpt lat="34.9297592" lon="32.9245553">
<ele>1327.23</ele>
<time>2015-04-30T11:19:26Z</time>
</trkpt>
<trkpt lat="34.9298728" lon="32.9245885">
<ele>1326.49</ele>
<time>2015-04-30T11:19:27Z</time>
</trkpt>
<trkpt lat="34.9299831" lon="32.9246079">
<ele>1326.13</ele>
<time>2015-04-30T11:19:28Z</time>
</trkpt>
<trkpt lat="34.9300815" lon="32.9245713">
<ele>1325.94</ele>
<time>2015-04-30T11:19:29Z</time>
</trkpt>
<trkpt lat="34.9301895" lon="32.9245357">
<ele>1325.35</ele>
<time>2015-04-30T11:19:30Z</time>
</trkpt>
<trkpt lat="34.9302882" lon="32.9245049">
<ele>1325.06</ele>
<time>2015-04-30T11:19:31Z</time>
</trkpt>
<trkpt lat="34.9303891" lon="32.9244792">
<ele>1324.41</ele>
<time>2015-04-30T11:19:32Z</time>
</trkpt>
<trkpt lat="34.9304824" lon="32.9244586">
<ele>1324.08</ele>
<time>2015-04-30T11:19:33Z</time>
</trkpt>
<trkpt lat="34.9305791" lon="32.9244326">
<ele>1323.42</ele>
<time>2015-04-30T11:19:34Z</time>
</trkpt>
<trkpt lat="34.9306801" lon="32.9244038">
<ele>1323.09</ele>
<time>2015-04-30T11:19:35Z</time>
</trkpt>
<trkpt lat="34.9307796" lon="32.9243753">
<ele>1322.43</ele>
<time>2015-04-30T11:19:36Z</time>
</trkpt>
<trkpt lat="34.9308719" lon="32.9243617">
<ele>1322.09</ele>
<time>2015-04-30T11:19:37Z</time>
</trkpt>
<trkpt lat="34.9309797" lon="32.9243542">
<ele>1321.43</ele>
<time>2015-04-30T11:19:38Z</time>
</trkpt>
<trkpt lat="34.9310758" lon="32.9243569">
<ele>1320.59</ele>
<time>2015-04-30T11:19:39Z</time>
</trkpt>
<trkpt lat="34.9311748" lon="32.9243731">
<ele>1320.18</ele>
<time>2015-04-30T11:19:40Z</time>
</trkpt>
<trkpt lat="34.9312684" lon="32.9243957">
<ele>1319.47</ele>
<time>2015-04-30T11:19:41Z</time>
</trkpt>
<trkpt lat="34.9313515" lon="32.9244124">
<ele>1318.61</ele>
<time>2015-04-30T11:19:42Z</time>
</trkpt>
<trkpt lat="34.9314561" lon="32.9244184">
<ele>1317.69</ele>
<time>2015-04-30T11:19:43Z</time>
</trkpt>
<trkpt lat="34.9315697" lon="32.9244235">
<ele>1317.22</ele>
<time>2015-04-30T11:19:44Z</time>
</trkpt>
<trkpt lat="34.9316625" lon="32.9244366">
<ele>1316.49</ele>
<time>2015-04-30T11:19:45Z</time>
</trkpt>
<trkpt lat="34.9317692" lon="32.9244572">
<ele>1316.13</ele>
<time>2015-04-30T11:19:46Z</time>
</trkpt>
<trkpt lat="34.9318746" lon="32.9244716">
<ele>1315.94</ele>
<time>2015-04-30T11:19:47Z</time>
</trkpt>
<trkpt lat="34.9319749" lon="32.9244832">
<ele>1315.35</ele>
<time>2015-04-30T11:19:48Z</time>
</trkpt>
<trkpt lat="34.9320631" lon="32.9244971">
<ele>1314.56</ele>
<time>2015-04-30T11:19:49Z</time>
</trkpt>
<trkpt lat="34.9321541" lon="32.9245149">
<ele>1313.66</ele>
<time>2015-04-30T11:19:50Z</time>
</trkpt>
<trkpt lat="34.9322467" lon="32.9245245">
<ele>1312.21</ele>
<time>2015-04-30T11:19:51Z</time>
</trkpt>
<trkpt lat="34.9323459" lon="32.9245303">
<ele>1310.98</ele>
<time>2015-04-30T11:19:52Z</time>
</trkpt>
<trkpt lat="34.9324485" lon="32.9245469">
<ele>1309.87</ele>
<time>2015-04-30T11:19:53Z</time>
</trkpt>
<trkpt lat="34.9325553" lon="32.9245642">
<ele>1308.82</ele>
<time>2015-04-30T11:19:54Z</time>
</trkpt>
<trkpt lat="34.9326655" lon="32.9245571">
<ele>1307.29</ele>
<time>2015-04-30T11:19:55Z</time>
</trkpt>
<trkpt lat="34.9327895" lon="32.9245762">
<ele>1306.02</ele>
<time>2015-04-30T11:19:56Z</time>
</trkpt>
<trkpt lat="34.9328975" lon="32.9245957">
<ele>1304.89</ele>
<time>2015-04-30T11:19:57Z</time>
</trkpt>
<trkpt lat="34.9330141" lon="32.9246193">
<ele>1303.83</ele>
<time>2015-04-30T11:19:58Z</time>
</trkpt>
<trkpt lat="34.9331217" lon="32.9246678">
<ele>1302.29</ele>
<time>2015-04-30T11:19:59Z</time>
</trkpt>
<trkpt lat="34.9332406" lon="32.9247161">
<ele>1301.03</ele>
<time>2015-04-30T11:20:00Z</time>
</trkpt>
<trkpt lat="34.9333529" lon="32.9247778">
<ele>1299.89</ele>
<time>2015-04-30T11:20:01Z</time>
</trkpt>
<trkpt lat="34.9334558" lon="32.9248629">
<ele>1298.83</ele>
<time>2015-04-30T11:20:02Z</time>
</trkpt>
<trkpt lat="34.9335584" lon="32.9249524">
<ele>1297.79</ele>
<time>2015-04-30T11:20:03Z</time>
</trkpt>
<trkpt lat="34.9336637" lon="32.9250589">
<ele>1296.28</ele>
<time>2015-04-30T11:20:04Z</time>
</trkpt>
<trkpt lat="34.9337507" lon="32.9251675">
<ele>1295.52</ele>
<time>2015-04-30T11:20:05Z</time>
</trkpt>
<trkpt lat="34.9338336" lon="32.9252945">
<ele>1294.14</ele>
<time>2015-04-30T11:20:06Z</time>
</trkpt>
<trkpt lat="34.9339111" lon="32.9254107">
<ele>1292.95</ele>
<time>2015-04-30T11:20:07Z</time>
</trkpt>
<trkpt lat="34.9339889" lon="32.9255351">
<ele>1292.35</ele>
<time>2015-04-30T11:20:08Z</time>
</trkpt>
<trkpt lat="34.9340584" lon="32.9256497">
<ele>1292.06</ele>
<time>2015-04-30T11:20:09Z</time>
</trkpt>
<trkpt lat="34.9341268" lon="32.9257610">
<ele>1291.41</ele>
<time>2015-04-30T11:20:10Z</time>
</trkpt>
<trkpt lat="34.9341962" lon="32.9258720">
<ele>1290.58</ele>
<time>2015-04-30T11:20:11Z</time>
</trkpt>
<trkpt lat="34.9342716" lon="32.9259738">
<ele>1289.67</ele>
<time>2015-04-30T11:20:12Z</time>
</trkpt>
<trkpt lat="34.9343380" lon="32.9260687">
<ele>1288.72</ele>
<time>2015-04-30T11:20:13Z</time>
</trkpt>
<trkpt lat="34.9344150" lon="32.9261663">
<ele>1288.24</ele>
<time>2015-04-30T11:20:14Z</time>
</trkpt>
<trkpt lat="34.9344982" lon="32.9262601">
<ele>1287.00</ele>
<time>2015-04-30T11:20:15Z</time>
</trkpt>
<trkpt lat="34.9345734" lon="32.9263653">
<ele>1285.88</ele>
<time>2015-04-30T11:20:16Z</time>
</trkpt>
<trkpt lat="34.9346412" lon="32.9264594">
<ele>1284.82</ele>
<time>2015-04-30T11:20:17Z</time>
</trkpt>
<trkpt lat="34.9347185" lon="32.9265557">
<ele>1283.79</ele>
<time>2015-04-30T11:20:18Z</time>
</trkpt>
<trkpt lat="34.9347961" lon="32.9266617">
<ele>1282.77</ele>
<time>2015-04-30T11:20:19Z</time>
</trkpt>
<trkpt lat="34.9348625" lon="32.9267665">
<ele>1282.27</ele>
<time>2015-04-30T11:20:20Z</time>
</trkpt>
<trkpt lat="34.9349202" lon="32.9268734">
<ele>1281.51</ele>
<time>2015-04-30T11:20:21Z</time>
</trkpt>
<trkpt lat="34.9349688" lon="32.9269855">
<ele>1280.64</ele>
<time>2015-04-30T11:20:22Z</time>
</trkpt>
<trkpt lat="34.9350078" lon="32.9271020">
<ele>1279.20</ele>
<time>2015-04-30T11:20:23Z</time>
</trkpt>
<trkpt lat="34.9350428" lon="32.9272222">
<ele>1277.98</ele>
<time>2015-04-30T11:20:24Z</time>
</trkpt>
<trkpt lat="34.9350583" lon="32.9273373">
<ele>1276.37</ele>
<time>2015-04-30T11:20:25Z</time>
</trkpt>
<trkpt lat="34.9350599" lon="32.9274621">
<ele>1275.56</ele>
<time>2015-04-30T11:20:26Z</time>
</trkpt>
<trkpt lat="34.9350674" lon="32.9275854">
<ele>1275.16</ele>
<time>2015-04-30T11:20:27Z</time>
</trkpt>
<trkpt lat="34.9350846" lon="32.9277113">
<ele>1273.96</ele>
<time>2015-04-30T11:20:28Z</time>
</trkpt>
<trkpt lat="34.9350970" lon="32.9278170">
<ele>1273.86</ele>
<time>2015-04-30T11:20:29Z</time>
</trkpt>
<trkpt lat="34.9351335" lon="32.9279237">
<ele>1273.31</ele>
<time>2015-04-30T11:20:30Z</time>
</trkpt>
<trkpt lat="34.9351843" lon="32.9280034">
<ele>1272.54</ele>
<time>2015-04-30T11:20:31Z</time>
</trkpt>
<trkpt lat="34.9352318" lon="32.9280811">
<ele>1271.65</ele>
<time>2015-04-30T11:20:32Z</time>
</trkpt>
<trkpt lat="34.9352985" lon="32.9280978">
<ele>1270.70</ele>
<time>2015-04-30T11:20:33Z</time>
</trkpt>
<trkpt lat="34.9353780" lon="32.9281064">
<ele>1269.73</ele>
<time>2015-04-30T11:20:34Z</time>
</trkpt>
<trkpt lat="34.9354528" lon="32.9280942">
<ele>1268.75</ele>
<time>2015-04-30T11:20:35Z</time>
</trkpt>
<trkpt lat="34.9355232" lon="32.9280641">
<ele>1268.25</ele>
<time>2015-04-30T11:20:36Z</time>
</trkpt>
<trkpt lat="34.9355681" lon="32.9280227">
<ele>1268.01</ele>
<time>2015-04-30T11:20:37Z</time>
</trkpt>
<trkpt lat="34.9355906" lon="32.9279687">
<ele>1267.88</ele>
<time>2015-04-30T11:20:38Z</time>
</trkpt>
<trkpt lat="34.9356150" lon="32.9279072">
<ele>1267.32</ele>
<time>2015-04-30T11:20:39Z</time>
</trkpt>
<trkpt lat="34.9356370" lon="32.9278410">
<ele>1267.04</ele>
<time>2015-04-30T11:20:40Z</time>
</trkpt>
<trkpt lat="34.9356656" lon="32.9277740">
<ele>1266.40</ele>
<time>2015-04-30T11:20:41Z</time>
</trkpt>
<trkpt lat="34.9356800" lon="32.9276971">
<ele>1265.58</ele>
<time>2015-04-30T11:20:42Z</time>
</trkpt>
<trkpt lat="34.9356909" lon="32.9276180">
<ele>1265.17</ele>
<time>2015-04-30T11:20:43Z</time>
</trkpt>
<trkpt lat="34.9357153" lon="32.9275256">
<ele>1264.47</ele>
<time>2015-04-30T11:20:44Z</time>
</trkpt>
<trkpt lat="34.9357426" lon="32.9274306">
<ele>1263.61</ele>
<time>2015-04-30T11:20:45Z</time>
</trkpt>
<trkpt lat="34.9357602" lon="32.9273383">
<ele>1262.69</ele>
<time>2015-04-30T11:20:46Z</time>
</trkpt>
<trkpt lat="34.9357837" lon="32.9272524">
<ele>1261.72</ele>
<time>2015-04-30T11:20:47Z</time>
</trkpt>
<trkpt lat="34.9358242" lon="32.9271981">
<ele>1261.24</ele>
<time>2015-04-30T11:20:48Z</time>
</trkpt>
<trkpt lat="34.9358586" lon="32.9271606">
<ele>1261.00</ele>
<time>2015-04-30T11:20:49Z</time>
</trkpt>
<trkpt lat="34.9359061" lon="32.9271227">
<ele>1260.38</ele>
<time>2015-04-30T11:20:50Z</time>
</trkpt>
<trkpt lat="34.9359513" lon="32.9270911">
<ele>1259.57</ele>
<time>2015-04-30T11:20:51Z</time>
</trkpt>
<trkpt lat="34.9359908" lon="32.9270542">
<ele>1259.17</ele>
<time>2015-04-30T11:20:52Z</time>
</trkpt>
<trkpt lat="34.9360415" lon="32.9270212">
<ele>1258.96</ele>
<time>2015-04-30T11:20:53Z</time>
</trkpt>
<trkpt lat="34.9361031" lon="32.9269972">
<ele>1258.36</ele>
<time>2015-04-30T11:20:54Z</time>
</trkpt>
<trkpt lat="34.9361611" lon="32.9269718">
<ele>1258.06</ele>
<time>2015-04-30T11:20:55Z</time>
</trkpt>
<trkpt lat="34.9362415" lon="32.9269427">
<ele>1257.91</ele>
<time>2015-04-30T11:20:56Z</time>
</trkpt>
<trkpt lat="34.9363140" lon="32.9269271">
<ele>1258.34</ele>
<time>2015-04-30T11:20:57Z</time>
</trkpt>
<trkpt lat="34.9364065" lon="32.9269311">
<ele>1259.55</ele>
<time>2015-04-30T11:20:58Z</time>
</trkpt>
<trkpt lat="34.9364994" lon="32.9269426">
<ele>1259.65</ele>
<time>2015-04-30T11:20:59Z</time>
</trkpt>
<trkpt lat="34.9365979" lon="32.9269606">
<ele>1259.71</ele>
<time>2015-04-30T11:21:00Z</time>
</trkpt>
<trkpt lat="34.9366682" lon="32.9269879">
<ele>1258.73</ele>
<time>2015-04-30T11:21:01Z</time>
</trkpt>
<trkpt lat="34.9367471" lon="32.9270287">
<ele>1257.75</ele>
<time>2015-04-30T11:21:02Z</time>
</trkpt>
<trkpt lat="34.9368179" lon="32.9270730">
<ele>1257.25</ele>
<time>2015-04-30T11:21:03Z</time>
</trkpt>
<trkpt lat="34.9368756" lon="32.9271296">
<ele>1256.01</ele>
<time>2015-04-30T11:21:04Z</time>
</trkpt>
<trkpt lat="34.9369306" lon="32.9271789">
<ele>1255.38</ele>
<time>2015-04-30T11:21:05Z</time>
</trkpt>
<trkpt lat="34.9369902" lon="32.9272216">
<ele>1254.57</ele>
<time>2015-04-30T11:21:06Z</time>
</trkpt>
<trkpt lat="34.9370456" lon="32.9272641">
<ele>1254.17</ele>
<time>2015-04-30T11:21:07Z</time>
</trkpt>
<trkpt lat="34.9370843" lon="32.9273106">
<ele>1252.96</ele>
<time>2015-04-30T11:21:08Z</time>
</trkpt>
<trkpt lat="34.9371131" lon="32.9273610">
<ele>1252.36</ele>
<time>2015-04-30T11:21:09Z</time>
</trkpt>
<trkpt lat="34.9371493" lon="32.9274192">
<ele>1252.56</ele>
<time>2015-04-30T11:21:10Z</time>
</trkpt>
<trkpt lat="34.9371899" lon="32.9274647">
<ele>1252.66</ele>
<time>2015-04-30T11:21:11Z</time>
</trkpt>
<trkpt lat="34.9372170" lon="32.9275138">
<ele>1252.71</ele>
<time>2015-04-30T11:21:12Z</time>
</trkpt>
<trkpt lat="34.9372782" lon="32.9276150">
<ele>1252.25</ele>
<time>2015-04-30T11:21:14Z</time>
</trkpt>
<trkpt lat="34.9373145" lon="32.9276690">
<ele>1251.50</ele>
<time>2015-04-30T11:21:15Z</time>
</trkpt>
<trkpt lat="34.9373666" lon="32.9277203">
<ele>1250.63</ele>
<time>2015-04-30T11:21:16Z</time>
</trkpt>
<trkpt lat="34.9374161" lon="32.9277692">
<ele>1249.70</ele>
<time>2015-04-30T11:21:17Z</time>
</trkpt>
<trkpt lat="34.9374756" lon="32.9278150">
<ele>1248.73</ele>
<time>2015-04-30T11:21:18Z</time>
</trkpt>
<trkpt lat="34.9375390" lon="32.9278508">
<ele>1248.24</ele>
<time>2015-04-30T11:21:19Z</time>
</trkpt>
<trkpt lat="34.9376061" lon="32.9278826">
<ele>1248.00</ele>
<time>2015-04-30T11:21:20Z</time>
</trkpt>
<trkpt lat="34.9376796" lon="32.9279031">
<ele>1247.38</ele>
<time>2015-04-30T11:21:21Z</time>
</trkpt>
<trkpt lat="34.9377460" lon="32.9279188">
<ele>1247.07</ele>
<time>2015-04-30T11:21:22Z</time>
</trkpt>
<trkpt lat="34.9378221" lon="32.9279045">
<ele>1246.42</ele>
<time>2015-04-30T11:21:23Z</time>
</trkpt>
<trkpt lat="34.9378955" lon="32.9278952">
<ele>1246.09</ele>
<time>2015-04-30T11:21:24Z</time>
</trkpt>
<trkpt lat="34.9379610" lon="32.9278703">
<ele>1245.42</ele>
<time>2015-04-30T11:21:25Z</time>
</trkpt>
<trkpt lat="34.9380245" lon="32.9278311">
<ele>1244.59</ele>
<time>2015-04-30T11:21:26Z</time>
</trkpt>
<trkpt lat="34.9380944" lon="32.9277820">
<ele>1244.18</ele>
<time>2015-04-30T11:21:27Z</time>
</trkpt>
<trkpt lat="34.9381661" lon="32.9277268">
<ele>1242.97</ele>
<time>2015-04-30T11:21:28Z</time>
</trkpt>
<trkpt lat="34.9382349" lon="32.9276832">
<ele>1242.36</ele>
<time>2015-04-30T11:21:29Z</time>
</trkpt>
<trkpt lat="34.9383057" lon="32.9276361">
<ele>1241.06</ele>
<time>2015-04-30T11:21:30Z</time>
</trkpt>
<trkpt lat="34.9383722" lon="32.9275999">
<ele>1240.41</ele>
<time>2015-04-30T11:21:31Z</time>
</trkpt>
<trkpt lat="34.9384394" lon="32.9275761">
<ele>1239.59</ele>
<time>2015-04-30T11:21:32Z</time>
</trkpt>
<trkpt lat="34.9385069" lon="32.9275670">
<ele>1239.17</ele>
<time>2015-04-30T11:21:33Z</time>
</trkpt>
<trkpt lat="34.9385758" lon="32.9275464">
<ele>1238.47</ele>
<time>2015-04-30T11:21:34Z</time>
</trkpt>
<trkpt lat="34.9386486" lon="32.9275368">
<ele>1237.61</ele>
<time>2015-04-30T11:21:35Z</time>
</trkpt>
<trkpt lat="34.9387274" lon="32.9275384">
<ele>1236.69</ele>
<time>2015-04-30T11:21:36Z</time>
</trkpt>
<trkpt lat="34.9387960" lon="32.9275470">
<ele>1235.72</ele>
<time>2015-04-30T11:21:37Z</time>
</trkpt>
<trkpt lat="34.9388661" lon="32.9275664">
<ele>1234.74</ele>
<time>2015-04-30T11:21:38Z</time>
</trkpt>
<trkpt lat="34.9389363" lon="32.9276023">
<ele>1233.75</ele>
<time>2015-04-30T11:21:39Z</time>
</trkpt>
<trkpt lat="34.9390036" lon="32.9276403">
<ele>1232.76</ele>
<time>2015-04-30T11:21:40Z</time>
</trkpt>
<trkpt lat="34.9390634" lon="32.9276883">
<ele>1232.26</ele>
<time>2015-04-30T11:21:41Z</time>
</trkpt>
<trkpt lat="34.9391212" lon="32.9277466">
<ele>1231.51</ele>
<time>2015-04-30T11:21:42Z</time>
</trkpt>
<trkpt lat="34.9391744" lon="32.9278145">
<ele>1230.63</ele>
<time>2015-04-30T11:21:43Z</time>
</trkpt>
<trkpt lat="34.9392264" lon="32.9278936">
<ele>1230.20</ele>
<time>2015-04-30T11:21:44Z</time>
</trkpt>
<trkpt lat="34.9392793" lon="32.9279666">
<ele>1229.48</ele>
<time>2015-04-30T11:21:45Z</time>
</trkpt>
<trkpt lat="34.9393372" lon="32.9280400">
<ele>1229.12</ele>
<time>2015-04-30T11:21:46Z</time>
</trkpt>
<trkpt lat="34.9393917" lon="32.9281024">
<ele>1228.94</ele>
<time>2015-04-30T11:21:47Z</time>
</trkpt>
<trkpt lat="34.9394441" lon="32.9281647">
<ele>1228.35</ele>
<time>2015-04-30T11:21:48Z</time>
</trkpt>
<trkpt lat="34.9394937" lon="32.9282220">
<ele>1227.55</ele>
<time>2015-04-30T11:21:49Z</time>
</trkpt>
<trkpt lat="34.9395416" lon="32.9282621">
<ele>1227.16</ele>
<time>2015-04-30T11:21:50Z</time>
</trkpt>
<trkpt lat="34.9395922" lon="32.9282989">
<ele>1226.46</ele>
<time>2015-04-30T11:21:51Z</time>
</trkpt>
<trkpt lat="34.9396492" lon="32.9283355">
<ele>1226.11</ele>
<time>2015-04-30T11:21:52Z</time>
</trkpt>
<trkpt lat="34.9397044" lon="32.9283580">
<ele>1225.43</ele>
<time>2015-04-30T11:21:53Z</time>
</trkpt>
<trkpt lat="34.9397631" lon="32.9283742">
<ele>1224.60</ele>
<time>2015-04-30T11:21:54Z</time>
</trkpt>
<trkpt lat="34.9398245" lon="32.9283802">
<ele>1224.18</ele>
<time>2015-04-30T11:21:55Z</time>
</trkpt>
<trkpt lat="34.9398896" lon="32.9283766">
<ele>1223.97</ele>
<time>2015-04-30T11:21:56Z</time>
</trkpt>
<trkpt lat="34.9399412" lon="32.9283700">
<ele>1223.86</ele>
<time>2015-04-30T11:21:57Z</time>
</trkpt>
<trkpt lat="34.9399975" lon="32.9283542">
<ele>1223.81</ele>
<time>2015-04-30T11:21:58Z</time>
</trkpt>
<trkpt lat="34.9400580" lon="32.9283218">
<ele>1223.29</ele>
<time>2015-04-30T11:21:59Z</time>
</trkpt>
<trkpt lat="34.9401203" lon="32.9282874">
<ele>1223.02</ele>
<time>2015-04-30T11:22:00Z</time>
</trkpt>
<trkpt lat="34.9401818" lon="32.9282387">
<ele>1221.89</ele>
<time>2015-04-30T11:22:01Z</time>
</trkpt>
<trkpt lat="34.9402493" lon="32.9281840">
<ele>1221.33</ele>
<time>2015-04-30T11:22:02Z</time>
</trkpt>
<trkpt lat="34.9403184" lon="32.9281362">
<ele>1220.54</ele>
<time>2015-04-30T11:22:03Z</time>
</trkpt>
<trkpt lat="34.9403896" lon="32.9280773">
<ele>1220.15</ele>
<time>2015-04-30T11:22:04Z</time>
</trkpt>
<trkpt lat="34.9404512" lon="32.9280286">
<ele>1219.46</ele>
<time>2015-04-30T11:22:05Z</time>
</trkpt>
<trkpt lat="34.9405214" lon="32.9279768">
<ele>1218.61</ele>
<time>2015-04-30T11:22:06Z</time>
</trkpt>
<trkpt lat="34.9405966" lon="32.9279404">
<ele>1217.68</ele>
<time>2015-04-30T11:22:07Z</time>
</trkpt>
<trkpt lat="34.9406702" lon="32.9279224">
<ele>1217.22</ele>
<time>2015-04-30T11:22:08Z</time>
</trkpt>
<trkpt lat="34.9407424" lon="32.9279109">
<ele>1216.49</ele>
<time>2015-04-30T11:22:09Z</time>
</trkpt>
<trkpt lat="34.9408171" lon="32.9279206">
<ele>1216.13</ele>
<time>2015-04-30T11:22:10Z</time>
</trkpt>
<trkpt lat="34.9408932" lon="32.9279424">
<ele>1214.94</ele>
<time>2015-04-30T11:22:11Z</time>
</trkpt>
<trkpt lat="34.9409648" lon="32.9279779">
<ele>1213.85</ele>
<time>2015-04-30T11:22:12Z</time>
</trkpt>
<trkpt lat="34.9410216" lon="32.9280284">
<ele>1213.31</ele>
<time>2015-04-30T11:22:13Z</time>
</trkpt>
<trkpt lat="34.9410780" lon="32.9280887">
<ele>1212.03</ele>
<time>2015-04-30T11:22:14Z</time>
</trkpt>
<trkpt lat="34.9411159" lon="32.9281460">
<ele>1210.90</ele>
<time>2015-04-30T11:22:15Z</time>
</trkpt>
<trkpt lat="34.9411500" lon="32.9282148">
<ele>1209.83</ele>
<time>2015-04-30T11:22:16Z</time>
</trkpt>
<trkpt lat="34.9411818" lon="32.9282889">
<ele>1209.29</ele>
<time>2015-04-30T11:22:17Z</time>
</trkpt>
<trkpt lat="34.9412064" lon="32.9283739">
<ele>1209.03</ele>
<time>2015-04-30T11:22:18Z</time>
</trkpt>
<trkpt lat="34.9412172" lon="32.9284620">
<ele>1208.39</ele>
<time>2015-04-30T11:22:19Z</time>
</trkpt>
<trkpt lat="34.9412266" lon="32.9285481">
<ele>1208.08</ele>
<time>2015-04-30T11:22:20Z</time>
</trkpt>
<trkpt lat="34.9412236" lon="32.9286284">
<ele>1207.42</ele>
<time>2015-04-30T11:22:21Z</time>
</trkpt>
<trkpt lat="34.9412287" lon="32.9287137">
<ele>1207.09</ele>
<time>2015-04-30T11:22:22Z</time>
</trkpt>
<trkpt lat="34.9412279" lon="32.9287938">
<ele>1206.42</ele>
<time>2015-04-30T11:22:23Z</time>
</trkpt>
<trkpt lat="34.9412259" lon="32.9288752">
<ele>1206.09</ele>
<time>2015-04-30T11:22:24Z</time>
</trkpt>
<trkpt lat="34.9412233" lon="32.9289510">
<ele>1205.93</ele>
<time>2015-04-30T11:22:25Z</time>
</trkpt>
<trkpt lat="34.9412281" lon="32.9290321">
<ele>1205.34</ele>
<time>2015-04-30T11:22:26Z</time>
</trkpt>
<trkpt lat="34.9412377" lon="32.9291096">
<ele>1204.55</ele>
<time>2015-04-30T11:22:27Z</time>
</trkpt>
<trkpt lat="34.9412541" lon="32.9291895">
<ele>1203.66</ele>
<time>2015-04-30T11:22:28Z</time>
</trkpt>
<trkpt lat="34.9412683" lon="32.9292492">
<ele>1202.71</ele>
<time>2015-04-30T11:22:29Z</time>
</trkpt>
<trkpt lat="34.9412981" lon="32.9293143">
<ele>1201.73</ele>
<time>2015-04-30T11:22:30Z</time>
</trkpt>
<trkpt lat="34.9413328" lon="32.9293842">
<ele>1200.75</ele>
<time>2015-04-30T11:22:31Z</time>
</trkpt>
<trkpt lat="34.9413692" lon="32.9294557">
<ele>1199.25</ele>
<time>2015-04-30T11:22:32Z</time>
</trkpt>
<trkpt lat="34.9414130" lon="32.9295144">
<ele>1198.51</ele>
<time>2015-04-30T11:22:33Z</time>
</trkpt>
<trkpt lat="34.9414629" lon="32.9295706">
<ele>1198.13</ele>
<time>2015-04-30T11:22:34Z</time>
</trkpt>
<trkpt lat="34.9415270" lon="32.9296289">
<ele>1197.45</ele>
<time>2015-04-30T11:22:35Z</time>
</trkpt>
<trkpt lat="34.9415878" lon="32.9296933">
<ele>1197.60</ele>
<time>2015-04-30T11:22:36Z</time>
</trkpt>
<trkpt lat="34.9416434" lon="32.9297464">
<ele>1196.68</ele>
<time>2015-04-30T11:22:37Z</time>
</trkpt>
<trkpt lat="34.9416933" lon="32.9298003">
<ele>1196.22</ele>
<time>2015-04-30T11:22:38Z</time>
</trkpt>
<trkpt lat="34.9417481" lon="32.9298544">
<ele>1195.99</ele>
<time>2015-04-30T11:22:39Z</time>
</trkpt>
<trkpt lat="34.9418096" lon="32.9299082">
<ele>1196.38</ele>
<time>2015-04-30T11:22:40Z</time>
</trkpt>
<trkpt lat="34.9418622" lon="32.9299641">
<ele>1196.07</ele>
<time>2015-04-30T11:22:41Z</time>
</trkpt>
<trkpt lat="34.9419196" lon="32.9300162">
<ele>1195.91</ele>
<time>2015-04-30T11:22:42Z</time>
</trkpt>
<trkpt lat="34.9419761" lon="32.9300745">
<ele>1195.34</ele>
<time>2015-04-30T11:22:43Z</time>
</trkpt>
<trkpt lat="34.9420353" lon="32.9301265">
<ele>1195.05</ele>
<time>2015-04-30T11:22:44Z</time>
</trkpt>
<trkpt lat="34.9420839" lon="32.9301684">
<ele>1194.40</ele>
<time>2015-04-30T11:22:45Z</time>
</trkpt>
<trkpt lat="34.9421320" lon="32.9302098">
<ele>1194.08</ele>
<time>2015-04-30T11:22:46Z</time>
</trkpt>
<trkpt lat="34.9421756" lon="32.9302423">
<ele>1193.42</ele>
<time>2015-04-30T11:22:47Z</time>
</trkpt>
<trkpt lat="34.9422222" lon="32.9302781">
<ele>1192.59</ele>
<time>2015-04-30T11:22:48Z</time>
</trkpt>
<trkpt lat="34.9422761" lon="32.9303435">
<ele>1191.47</ele>
<time>2015-04-30T11:22:50Z</time>
</trkpt>
<trkpt lat="34.9423301" lon="32.9303898">
<ele>1190.19</ele>
<time>2015-04-30T11:22:52Z</time>
</trkpt>
<trkpt lat="34.9423749" lon="32.9304339">
<ele>1189.87</ele>
<time>2015-04-30T11:22:54Z</time>
</trkpt>
<trkpt lat="34.9423988" lon="32.9304836">
<ele>1189.79</ele>
<time>2015-04-30T11:22:56Z</time>
</trkpt>
<trkpt lat="34.9423788" lon="32.9305586">
<ele>1189.76</ele>
<time>2015-04-30T11:22:59Z</time>
</trkpt>
<trkpt lat="34.9423334" lon="32.9305940">
<ele>1190.01</ele>
<time>2015-04-30T11:23:01Z</time>
</trkpt>
<trkpt lat="34.9422760" lon="32.9306062">
<ele>1189.82</ele>
<time>2015-04-30T11:23:03Z</time>
</trkpt>
<trkpt lat="34.9422141" lon="32.9305954">
<ele>1189.78</ele>
<time>2015-04-30T11:23:05Z</time>
</trkpt>
<trkpt lat="34.9421415" lon="32.9305816">
<ele>1189.01</ele>
<time>2015-04-30T11:23:07Z</time>
</trkpt>
<trkpt lat="34.9420422" lon="32.9305760">
<ele>1188.32</ele>
<time>2015-04-30T11:23:09Z</time>
</trkpt>
<trkpt lat="34.9419560" lon="32.9305705">
<ele>1188.54</ele>
<time>2015-04-30T11:23:10Z</time>
</trkpt>
<trkpt lat="34.9418968" lon="32.9305654">
<ele>1189.15</ele>
<time>2015-04-30T11:23:11Z</time>
</trkpt>
<trkpt lat="34.9418371" lon="32.9305750">
<ele>1189.46</ele>
<time>2015-04-30T11:23:12Z</time>
</trkpt>
<trkpt lat="34.9417630" lon="32.9305738">
<ele>1189.61</ele>
<time>2015-04-30T11:23:13Z</time>
</trkpt>
<trkpt lat="34.9416724" lon="32.9305676">
<ele>1189.18</ele>
<time>2015-04-30T11:23:14Z</time>
</trkpt>
<trkpt lat="34.9415531" lon="32.9305807">
<ele>1187.97</ele>
<time>2015-04-30T11:23:15Z</time>
</trkpt>
<trkpt lat="34.9414762" lon="32.9306136">
<ele>1186.87</ele>
<time>2015-04-30T11:23:16Z</time>
</trkpt>
<trkpt lat="34.9413825" lon="32.9306368">
<ele>1186.31</ele>
<time>2015-04-30T11:23:17Z</time>
</trkpt>
<trkpt lat="34.9412818" lon="32.9306649">
<ele>1186.04</ele>
<time>2015-04-30T11:23:18Z</time>
</trkpt>
<trkpt lat="34.9411979" lon="32.9307038">
<ele>1184.40</ele>
<time>2015-04-30T11:23:19Z</time>
</trkpt>
<trkpt lat="34.9410850" lon="32.9307400">
<ele>1183.08</ele>
<time>2015-04-30T11:23:20Z</time>
</trkpt>
<trkpt lat="34.9409842" lon="32.9307774">
<ele>1182.42</ele>
<time>2015-04-30T11:23:21Z</time>
</trkpt>
<trkpt lat="34.9408820" lon="32.9308249">
<ele>1181.59</ele>
<time>2015-04-30T11:23:22Z</time>
</trkpt>
<trkpt lat="34.9407830" lon="32.9308798">
<ele>1180.67</ele>
<time>2015-04-30T11:23:23Z</time>
</trkpt>
<trkpt lat="34.9406788" lon="32.9309280">
<ele>1179.72</ele>
<time>2015-04-30T11:23:24Z</time>
</trkpt>
<trkpt lat="34.9405938" lon="32.9309901">
<ele>1178.74</ele>
<time>2015-04-30T11:23:25Z</time>
</trkpt>
<trkpt lat="34.9405194" lon="32.9310056">
<ele>1178.25</ele>
<time>2015-04-30T11:23:26Z</time>
</trkpt>
<trkpt lat="34.9404579" lon="32.9310394">
<ele>1177.50</ele>
<time>2015-04-30T11:23:27Z</time>
</trkpt>
<trkpt lat="34.9403783" lon="32.9310812">
<ele>1176.45</ele>
<time>2015-04-30T11:23:29Z</time>
</trkpt>
<trkpt lat="34.9403197" lon="32.9311101">
<ele>1176.60</ele>
<time>2015-04-30T11:23:30Z</time>
</trkpt>
<trkpt lat="34.9402634" lon="32.9311378">
<ele>1176.18</ele>
<time>2015-04-30T11:23:31Z</time>
</trkpt>
<trkpt lat="34.9401955" lon="32.9311701">
<ele>1175.47</ele>
<time>2015-04-30T11:23:32Z</time>
</trkpt>
<trkpt lat="34.9401323" lon="32.9312045">
<ele>1175.12</ele>
<time>2015-04-30T11:23:33Z</time>
</trkpt>
<trkpt lat="34.9400595" lon="32.9312448">
<ele>1174.44</ele>
<time>2015-04-30T11:23:34Z</time>
</trkpt>
<trkpt lat="34.9399850" lon="32.9312793">
<ele>1174.10</ele>
<time>2015-04-30T11:23:35Z</time>
</trkpt>
<trkpt lat="34.9398966" lon="32.9313228">
<ele>1173.43</ele>
<time>2015-04-30T11:23:36Z</time>
</trkpt>
<trkpt lat="34.9398091" lon="32.9313651">
<ele>1173.09</ele>
<time>2015-04-30T11:23:37Z</time>
</trkpt>
<trkpt lat="34.9397284" lon="32.9314128">
<ele>1172.43</ele>
<time>2015-04-30T11:23:38Z</time>
</trkpt>
<trkpt lat="34.9396385" lon="32.9314558">
<ele>1172.09</ele>
<time>2015-04-30T11:23:39Z</time>
</trkpt>
<trkpt lat="34.9395458" lon="32.9315099">
<ele>1171.43</ele>
<time>2015-04-30T11:23:40Z</time>
</trkpt>
<trkpt lat="34.9394448" lon="32.9315522">
<ele>1170.59</ele>
<time>2015-04-30T11:23:41Z</time>
</trkpt>
<trkpt lat="34.9393488" lon="32.9315995">
<ele>1169.68</ele>
<time>2015-04-30T11:23:42Z</time>
</trkpt>
<trkpt lat="34.9392410" lon="32.9316410">
<ele>1168.72</ele>
<time>2015-04-30T11:23:43Z</time>
</trkpt>
<trkpt lat="34.9391208" lon="32.9316819">
<ele>1167.74</ele>
<time>2015-04-30T11:23:44Z</time>
</trkpt>
<trkpt lat="34.9390090" lon="32.9317236">
<ele>1166.75</ele>
<time>2015-04-30T11:23:45Z</time>
</trkpt>
<trkpt lat="34.9388846" lon="32.9317632">
<ele>1165.75</ele>
<time>2015-04-30T11:23:46Z</time>
</trkpt>
<trkpt lat="34.9387562" lon="32.9317965">
<ele>1164.76</ele>
<time>2015-04-30T11:23:47Z</time>
</trkpt>
<trkpt lat="34.9386254" lon="32.9318407">
<ele>1163.26</ele>
<time>2015-04-30T11:23:48Z</time>
</trkpt>
<trkpt lat="34.9385010" lon="32.9318920">
<ele>1162.01</ele>
<time>2015-04-30T11:23:49Z</time>
</trkpt>
<trkpt lat="34.9383764" lon="32.9319414">
<ele>1160.88</ele>
<time>2015-04-30T11:23:50Z</time>
</trkpt>
<trkpt lat="34.9382466" lon="32.9319893">
<ele>1160.32</ele>
<time>2015-04-30T11:23:51Z</time>
</trkpt>
<trkpt lat="34.9381132" lon="32.9320491">
<ele>1159.04</ele>
<time>2015-04-30T11:23:52Z</time>
</trkpt>
<trkpt lat="34.9379779" lon="32.9320947">
<ele>1157.90</ele>
<time>2015-04-30T11:23:53Z</time>
</trkpt>
<trkpt lat="34.9378272" lon="32.9321389">
<ele>1155.83</ele>
<time>2015-04-30T11:23:54Z</time>
</trkpt>
<trkpt lat="34.9376765" lon="32.9321875">
<ele>1154.30</ele>
<time>2015-04-30T11:23:55Z</time>
</trkpt>
<trkpt lat="34.9375263" lon="32.9322441">
<ele>1152.53</ele>
<time>2015-04-30T11:23:56Z</time>
</trkpt>
<trkpt lat="34.9373841" lon="32.9322904">
<ele>1150.64</ele>
<time>2015-04-30T11:23:57Z</time>
</trkpt>
<trkpt lat="34.9372349" lon="32.9323444">
<ele>1149.20</ele>
<time>2015-04-30T11:23:58Z</time>
</trkpt>
<trkpt lat="34.9370787" lon="32.9323891">
<ele>1148.48</ele>
<time>2015-04-30T11:23:59Z</time>
</trkpt>
<trkpt lat="34.9369238" lon="32.9324368">
<ele>1147.62</ele>
<time>2015-04-30T11:24:00Z</time>
</trkpt>
<trkpt lat="34.9367777" lon="32.9324873">
<ele>1146.69</ele>
<time>2015-04-30T11:24:01Z</time>
</trkpt>
<trkpt lat="34.9366262" lon="32.9325331">
<ele>1145.73</ele>
<time>2015-04-30T11:24:02Z</time>
</trkpt>
<trkpt lat="34.9364783" lon="32.9325756">
<ele>1144.24</ele>
<time>2015-04-30T11:24:03Z</time>
</trkpt>
<trkpt lat="34.9363306" lon="32.9326284">
<ele>1143.00</ele>
<time>2015-04-30T11:24:04Z</time>
</trkpt>
<trkpt lat="34.9361951" lon="32.9326745">
<ele>1141.88</ele>
<time>2015-04-30T11:24:05Z</time>
</trkpt>
<trkpt lat="34.9360699" lon="32.9327270">
<ele>1140.82</ele>
<time>2015-04-30T11:24:06Z</time>
</trkpt>
<trkpt lat="34.9359476" lon="32.9327694">
<ele>1138.79</ele>
<time>2015-04-30T11:24:07Z</time>
</trkpt>
<trkpt lat="34.9358169" lon="32.9328104">
<ele>1136.78</ele>
<time>2015-04-30T11:24:08Z</time>
</trkpt>
<trkpt lat="34.9356969" lon="32.9328464">
<ele>1134.27</ele>
<time>2015-04-30T11:24:09Z</time>
</trkpt>
<trkpt lat="34.9355814" lon="32.9328911">
<ele>1132.51</ele>
<time>2015-04-30T11:24:10Z</time>
</trkpt>
<trkpt lat="34.9354622" lon="32.9329193">
<ele>1130.64</ele>
<time>2015-04-30T11:24:11Z</time>
</trkpt>
<trkpt lat="34.9353381" lon="32.9329366">
<ele>1129.20</ele>
<time>2015-04-30T11:24:12Z</time>
</trkpt>
<trkpt lat="34.9352283" lon="32.9329451">
<ele>1127.48</ele>
<time>2015-04-30T11:24:13Z</time>
</trkpt>
<trkpt lat="34.9351145" lon="32.9329459">
<ele>1126.12</ele>
<time>2015-04-30T11:24:14Z</time>
</trkpt>
<trkpt lat="34.9350128" lon="32.9329414">
<ele>1124.94</ele>
<time>2015-04-30T11:24:15Z</time>
</trkpt>
<trkpt lat="34.9348963" lon="32.9329314">
<ele>1123.35</ele>
<time>2015-04-30T11:24:16Z</time>
</trkpt>
<trkpt lat="34.9347864" lon="32.9329268">
<ele>1122.05</ele>
<time>2015-04-30T11:24:17Z</time>
</trkpt>
<trkpt lat="34.9346704" lon="32.9329094">
<ele>1120.91</ele>
<time>2015-04-30T11:24:18Z</time>
</trkpt>
<trkpt lat="34.9345586" lon="32.9328957">
<ele>1119.83</ele>
<time>2015-04-30T11:24:19Z</time>
</trkpt>
<trkpt lat="34.9344382" lon="32.9328996">
<ele>1118.80</ele>
<time>2015-04-30T11:24:20Z</time>
</trkpt>
<trkpt lat="34.9343260" lon="32.9329219">
<ele>1117.28</ele>
<time>2015-04-30T11:24:21Z</time>
</trkpt>
<trkpt lat="34.9342088" lon="32.9329539">
<ele>1116.02</ele>
<time>2015-04-30T11:24:22Z</time>
</trkpt>
<trkpt lat="34.9340878" lon="32.9329999">
<ele>1114.89</ele>
<time>2015-04-30T11:24:23Z</time>
</trkpt>
<trkpt lat="34.9339693" lon="32.9330587">
<ele>1113.82</ele>
<time>2015-04-30T11:24:24Z</time>
</trkpt>
<trkpt lat="34.9338568" lon="32.9331306">
<ele>1112.79</ele>
<time>2015-04-30T11:24:25Z</time>
</trkpt>
<trkpt lat="34.9337504" lon="32.9332180">
<ele>1111.78</ele>
<time>2015-04-30T11:24:26Z</time>
</trkpt>
<trkpt lat="34.9336455" lon="32.9333084">
<ele>1110.77</ele>
<time>2015-04-30T11:24:27Z</time>
</trkpt>
<trkpt lat="34.9335388" lon="32.9334119">
<ele>1109.76</ele>
<time>2015-04-30T11:24:28Z</time>
</trkpt>
<trkpt lat="34.9334395" lon="32.9335104">
<ele>1109.26</ele>
<time>2015-04-30T11:24:29Z</time>
</trkpt>
<trkpt lat="34.9333418" lon="32.9336199">
<ele>1108.01</ele>
<time>2015-04-30T11:24:30Z</time>
</trkpt>
<trkpt lat="34.9332533" lon="32.9337250">
<ele>1106.89</ele>
<time>2015-04-30T11:24:31Z</time>
</trkpt>
<trkpt lat="34.9331537" lon="32.9338257">
<ele>1105.82</ele>
<time>2015-04-30T11:24:32Z</time>
</trkpt>
<trkpt lat="34.9330616" lon="32.9339151">
<ele>1104.79</ele>
<time>2015-04-30T11:24:33Z</time>
</trkpt>
<trkpt lat="34.9329665" lon="32.9340142">
<ele>1103.78</ele>
<time>2015-04-30T11:24:34Z</time>
</trkpt>
<trkpt lat="34.9328673" lon="32.9341150">
<ele>1102.77</ele>
<time>2015-04-30T11:24:35Z</time>
</trkpt>
<trkpt lat="34.9327565" lon="32.9342190">
<ele>1101.76</ele>
<time>2015-04-30T11:24:36Z</time>
</trkpt>
<trkpt lat="34.9326578" lon="32.9343172">
<ele>1100.76</ele>
<time>2015-04-30T11:24:37Z</time>
</trkpt>
<trkpt lat="34.9325546" lon="32.9344195">
<ele>1099.76</ele>
<time>2015-04-30T11:24:38Z</time>
</trkpt>
<trkpt lat="34.9324501" lon="32.9345210">
<ele>1099.26</ele>
<time>2015-04-30T11:24:39Z</time>
</trkpt>
<trkpt lat="34.9323326" lon="32.9346150">
<ele>1098.51</ele>
<time>2015-04-30T11:24:40Z</time>
</trkpt>
<trkpt lat="34.9322212" lon="32.9346951">
<ele>1097.64</ele>
<time>2015-04-30T11:24:41Z</time>
</trkpt>
<trkpt lat="34.9321058" lon="32.9347729">
<ele>1096.20</ele>
<time>2015-04-30T11:24:42Z</time>
</trkpt>
<trkpt lat="34.9319932" lon="32.9348472">
<ele>1094.98</ele>
<time>2015-04-30T11:24:43Z</time>
</trkpt>
<trkpt lat="34.9318764" lon="32.9349174">
<ele>1094.37</ele>
<time>2015-04-30T11:24:44Z</time>
</trkpt>
<trkpt lat="34.9317625" lon="32.9349761">
<ele>1093.56</ele>
<time>2015-04-30T11:24:45Z</time>
</trkpt>
<trkpt lat="34.9316601" lon="32.9350360">
<ele>1092.66</ele>
<time>2015-04-30T11:24:46Z</time>
</trkpt>
<trkpt lat="34.9315582" lon="32.9350774">
<ele>1091.21</ele>
<time>2015-04-30T11:24:47Z</time>
</trkpt>
<trkpt lat="34.9314499" lon="32.9351238">
<ele>1089.99</ele>
<time>2015-04-30T11:24:48Z</time>
</trkpt>
<trkpt lat="34.9313484" lon="32.9351634">
<ele>1088.87</ele>
<time>2015-04-30T11:24:49Z</time>
</trkpt>
<trkpt lat="34.9312433" lon="32.9352029">
<ele>1088.32</ele>
<time>2015-04-30T11:24:50Z</time>
</trkpt>
<trkpt lat="34.9311372" lon="32.9352295">
<ele>1087.54</ele>
<time>2015-04-30T11:24:51Z</time>
</trkpt>
<trkpt lat="34.9310216" lon="32.9352598">
<ele>1086.65</ele>
<time>2015-04-30T11:24:52Z</time>
</trkpt>
<trkpt lat="34.9309194" lon="32.9352843">
<ele>1085.70</ele>
<time>2015-04-30T11:24:53Z</time>
</trkpt>
<trkpt lat="34.9308182" lon="32.9353107">
<ele>1084.73</ele>
<time>2015-04-30T11:24:54Z</time>
</trkpt>
<trkpt lat="34.9307110" lon="32.9353256">
<ele>1083.75</ele>
<time>2015-04-30T11:24:55Z</time>
</trkpt>
<trkpt lat="34.9306081" lon="32.9353367">
<ele>1082.75</ele>
<time>2015-04-30T11:24:56Z</time>
</trkpt>
<trkpt lat="34.9305112" lon="32.9353484">
<ele>1081.76</ele>
<time>2015-04-30T11:24:57Z</time>
</trkpt>
<trkpt lat="34.9304031" lon="32.9353538">
<ele>1081.26</ele>
<time>2015-04-30T11:24:58Z</time>
</trkpt>
<trkpt lat="34.9303080" lon="32.9353536">
<ele>1081.01</ele>
<time>2015-04-30T11:24:59Z</time>
</trkpt>
<trkpt lat="34.9301934" lon="32.9353586">
<ele>1080.38</ele>
<time>2015-04-30T11:25:00Z</time>
</trkpt>
<trkpt lat="34.9300924" lon="32.9353578">
<ele>1079.07</ele>
<time>2015-04-30T11:25:01Z</time>
</trkpt>
<trkpt lat="34.9299772" lon="32.9353547">
<ele>1077.92</ele>
<time>2015-04-30T11:25:02Z</time>
</trkpt>
<trkpt lat="34.9298611" lon="32.9353593">
<ele>1076.84</ele>
<time>2015-04-30T11:25:03Z</time>
</trkpt>
<trkpt lat="34.9297391" lon="32.9353549">
<ele>1075.80</ele>
<time>2015-04-30T11:25:04Z</time>
</trkpt>
<trkpt lat="34.9296276" lon="32.9353459">
<ele>1074.78</ele>
<time>2015-04-30T11:25:05Z</time>
</trkpt>
<trkpt lat="34.9295211" lon="32.9353272">
<ele>1073.77</ele>
<time>2015-04-30T11:25:06Z</time>
</trkpt>
<trkpt lat="34.9294194" lon="32.9353144">
<ele>1072.76</ele>
<time>2015-04-30T11:25:07Z</time>
</trkpt>
<trkpt lat="34.9293196" lon="32.9352949">
<ele>1071.76</ele>
<time>2015-04-30T11:25:08Z</time>
</trkpt>
<trkpt lat="34.9292242" lon="32.9352722">
<ele>1070.76</ele>
<time>2015-04-30T11:25:09Z</time>
</trkpt>
<trkpt lat="34.9291192" lon="32.9352511">
<ele>1069.26</ele>
<time>2015-04-30T11:25:10Z</time>
</trkpt>
<trkpt lat="34.9290177" lon="32.9352301">
<ele>1068.01</ele>
<time>2015-04-30T11:25:11Z</time>
</trkpt>
<trkpt lat="34.9289072" lon="32.9352012">
<ele>1067.39</ele>
<time>2015-04-30T11:25:12Z</time>
</trkpt>
<trkpt lat="34.9288046" lon="32.9351652">
<ele>1066.57</ele>
<time>2015-04-30T11:25:13Z</time>
</trkpt>
<trkpt lat="34.9286920" lon="32.9351243">
<ele>1065.67</ele>
<time>2015-04-30T11:25:14Z</time>
</trkpt>
<trkpt lat="34.9285818" lon="32.9350682">
<ele>1064.71</ele>
<time>2015-04-30T11:25:15Z</time>
</trkpt>
<trkpt lat="34.9284666" lon="32.9350073">
<ele>1063.74</ele>
<time>2015-04-30T11:25:16Z</time>
</trkpt>
<trkpt lat="34.9283590" lon="32.9349508">
<ele>1062.75</ele>
<time>2015-04-30T11:25:17Z</time>
</trkpt>
<trkpt lat="34.9282460" lon="32.9348859">
<ele>1061.75</ele>
<time>2015-04-30T11:25:18Z</time>
</trkpt>
<trkpt lat="34.9281290" lon="32.9348205">
<ele>1061.26</ele>
<time>2015-04-30T11:25:19Z</time>
</trkpt>
<trkpt lat="34.9280057" lon="32.9347576">
<ele>1060.51</ele>
<time>2015-04-30T11:25:20Z</time>
</trkpt>
<trkpt lat="34.9278831" lon="32.9347114">
<ele>1060.13</ele>
<time>2015-04-30T11:25:21Z</time>
</trkpt>
<trkpt lat="34.9277562" lon="32.9346622">
<ele>1059.45</ele>
<time>2015-04-30T11:25:22Z</time>
</trkpt>
<trkpt lat="34.9276218" lon="32.9346294">
<ele>1058.60</ele>
<time>2015-04-30T11:25:23Z</time>
</trkpt>
<trkpt lat="34.9274972" lon="32.9346043">
<ele>1058.18</ele>
<time>2015-04-30T11:25:24Z</time>
</trkpt>
<trkpt lat="34.9273652" lon="32.9345812">
<ele>1056.97</ele>
<time>2015-04-30T11:25:25Z</time>
</trkpt>
<trkpt lat="34.9272298" lon="32.9345657">
<ele>1055.87</ele>
<time>2015-04-30T11:25:26Z</time>
</trkpt>
<trkpt lat="34.9270990" lon="32.9345449">
<ele>1054.81</ele>
<time>2015-04-30T11:25:27Z</time>
</trkpt>
<trkpt lat="34.9269686" lon="32.9345343">
<ele>1054.29</ele>
<time>2015-04-30T11:25:28Z</time>
</trkpt>
<trkpt lat="34.9268388" lon="32.9345195">
<ele>1054.02</ele>
<time>2015-04-30T11:25:29Z</time>
</trkpt>
<trkpt lat="34.9267004" lon="32.9344977">
<ele>1052.89</ele>
<time>2015-04-30T11:25:30Z</time>
</trkpt>
<trkpt lat="34.9265618" lon="32.9344698">
<ele>1051.83</ele>
<time>2015-04-30T11:25:31Z</time>
</trkpt>
<trkpt lat="34.9264170" lon="32.9344562">
<ele>1050.79</ele>
<time>2015-04-30T11:25:32Z</time>
</trkpt>
<trkpt lat="34.9262838" lon="32.9344540">
<ele>1049.78</ele>
<time>2015-04-30T11:25:33Z</time>
</trkpt>
<trkpt lat="34.9261611" lon="32.9344652">
<ele>1048.77</ele>
<time>2015-04-30T11:25:34Z</time>
</trkpt>
<trkpt lat="34.9260272" lon="32.9344926">
<ele>1047.76</ele>
<time>2015-04-30T11:25:35Z</time>
</trkpt>
<trkpt lat="34.9258977" lon="32.9345210">
<ele>1046.76</ele>
<time>2015-04-30T11:25:36Z</time>
</trkpt>
<trkpt lat="34.9257808" lon="32.9345563">
<ele>1045.76</ele>
<time>2015-04-30T11:25:37Z</time>
</trkpt>
<trkpt lat="34.9256525" lon="32.9345875">
<ele>1044.26</ele>
<time>2015-04-30T11:25:38Z</time>
</trkpt>
<trkpt lat="34.9255316" lon="32.9346243">
<ele>1042.01</ele>
<time>2015-04-30T11:25:39Z</time>
</trkpt>
<trkpt lat="34.9253990" lon="32.9346564">
<ele>1040.39</ele>
<time>2015-04-30T11:25:40Z</time>
</trkpt>
<trkpt lat="34.9252729" lon="32.9346938">
<ele>1039.07</ele>
<time>2015-04-30T11:25:41Z</time>
</trkpt>
<trkpt lat="34.9251397" lon="32.9347345">
<ele>1037.42</ele>
<time>2015-04-30T11:25:42Z</time>
</trkpt>
<trkpt lat="34.9250110" lon="32.9347829">
<ele>1036.09</ele>
<time>2015-04-30T11:25:43Z</time>
</trkpt>
<trkpt lat="34.9248770" lon="32.9348372">
<ele>1034.42</ele>
<time>2015-04-30T11:25:44Z</time>
</trkpt>
<trkpt lat="34.9247460" lon="32.9348847">
<ele>1032.59</ele>
<time>2015-04-30T11:25:45Z</time>
</trkpt>
<trkpt lat="34.9246086" lon="32.9349496">
<ele>1031.18</ele>
<time>2015-04-30T11:25:46Z</time>
</trkpt>
<trkpt lat="34.9244674" lon="32.9350164">
<ele>1029.97</ele>
<time>2015-04-30T11:25:47Z</time>
</trkpt>
<trkpt lat="34.9243164" lon="32.9350762">
<ele>1028.36</ele>
<time>2015-04-30T11:25:48Z</time>
</trkpt>
<trkpt lat="34.9241733" lon="32.9351327">
<ele>1027.06</ele>
<time>2015-04-30T11:25:49Z</time>
</trkpt>
<trkpt lat="34.9240345" lon="32.9351950">
<ele>1025.91</ele>
<time>2015-04-30T11:25:50Z</time>
</trkpt>
<trkpt lat="34.9239011" lon="32.9352585">
<ele>1024.84</ele>
<time>2015-04-30T11:25:51Z</time>
</trkpt>
<trkpt lat="34.9237600" lon="32.9353225">
<ele>1023.30</ele>
<time>2015-04-30T11:25:52Z</time>
</trkpt>
<trkpt lat="34.9236244" lon="32.9353824">
<ele>1021.53</ele>
<time>2015-04-30T11:25:53Z</time>
</trkpt>
<trkpt lat="34.9234887" lon="32.9354550">
<ele>1020.64</ele>
<time>2015-04-30T11:25:54Z</time>
</trkpt>
<trkpt lat="34.9233569" lon="32.9355295">
<ele>1019.70</ele>
<time>2015-04-30T11:25:55Z</time>
</trkpt>
<trkpt lat="34.9232285" lon="32.9356173">
<ele>1018.73</ele>
<time>2015-04-30T11:25:56Z</time>
</trkpt>
<trkpt lat="34.9231252" lon="32.9357180">
<ele>1017.25</ele>
<time>2015-04-30T11:25:57Z</time>
</trkpt>
<trkpt lat="34.9230315" lon="32.9358278">
<ele>1016.00</ele>
<time>2015-04-30T11:25:58Z</time>
</trkpt>
<trkpt lat="34.9229356" lon="32.9359466">
<ele>1014.38</ele>
<time>2015-04-30T11:25:59Z</time>
</trkpt>
<trkpt lat="34.9228419" lon="32.9360514">
<ele>1013.07</ele>
<time>2015-04-30T11:26:00Z</time>
</trkpt>
<trkpt lat="34.9227449" lon="32.9361404">
<ele>1011.92</ele>
<time>2015-04-30T11:26:01Z</time>
</trkpt>
<trkpt lat="34.9226486" lon="32.9362130">
<ele>1010.84</ele>
<time>2015-04-30T11:26:02Z</time>
</trkpt>
<trkpt lat="34.9225384" lon="32.9362606">
<ele>1009.80</ele>
<time>2015-04-30T11:26:03Z</time>
</trkpt>
<trkpt lat="34.9224124" lon="32.9362851">
<ele>1008.28</ele>
<time>2015-04-30T11:26:04Z</time>
</trkpt>
<trkpt lat="34.9222973" lon="32.9363080">
<ele>1007.52</ele>
<time>2015-04-30T11:26:05Z</time>
</trkpt>
<trkpt lat="34.9221753" lon="32.9362603">
<ele>1006.64</ele>
<time>2015-04-30T11:26:06Z</time>
</trkpt>
<trkpt lat="34.9220449" lon="32.9362156">
<ele>1005.70</ele>
<time>2015-04-30T11:26:07Z</time>
</trkpt>
<trkpt lat="34.9219203" lon="32.9361479">
<ele>1004.73</ele>
<time>2015-04-30T11:26:08Z</time>
</trkpt>
<trkpt lat="34.9218005" lon="32.9360820">
<ele>1003.74</ele>
<time>2015-04-30T11:26:09Z</time>
</trkpt>
<trkpt lat="34.9216709" lon="32.9360184">
<ele>1002.75</ele>
<time>2015-04-30T11:26:10Z</time>
</trkpt>
<trkpt lat="34.9215429" lon="32.9359594">
<ele>1001.76</ele>
<time>2015-04-30T11:26:11Z</time>
</trkpt>
<trkpt lat="34.9214152" lon="32.9359054">
<ele>1000.76</ele>
<time>2015-04-30T11:26:12Z</time>
</trkpt>
<trkpt lat="34.9213045" lon="32.9358658">
<ele>999.76</ele>
<time>2015-04-30T11:26:13Z</time>
</trkpt>
<trkpt lat="34.9211974" lon="32.9358360">
<ele>998.76</ele>
<time>2015-04-30T11:26:14Z</time>
</trkpt>
<trkpt lat="34.9211045" lon="32.9358138">
<ele>997.76</ele>
<time>2015-04-30T11:26:15Z</time>
</trkpt>
<trkpt lat="34.9210152" lon="32.9358055">
<ele>997.26</ele>
<time>2015-04-30T11:26:16Z</time>
</trkpt>
<trkpt lat="34.9209377" lon="32.9358010">
<ele>996.51</ele>
<time>2015-04-30T11:26:17Z</time>
</trkpt>
<trkpt lat="34.9208601" lon="32.9357961">
<ele>996.13</ele>
<time>2015-04-30T11:26:18Z</time>
</trkpt>
<trkpt lat="34.9207995" lon="32.9357770">
<ele>994.95</ele>
<time>2015-04-30T11:26:19Z</time>
</trkpt>
<trkpt lat="34.9207421" lon="32.9357439">
<ele>993.35</ele>
<time>2015-04-30T11:26:20Z</time>
</trkpt>
<trkpt lat="34.9207059" lon="32.9357034">
<ele>992.06</ele>
<time>2015-04-30T11:26:21Z</time>
</trkpt>
<trkpt lat="34.9206739" lon="32.9356432">
<ele>991.41</ele>
<time>2015-04-30T11:26:22Z</time>
</trkpt>
<trkpt lat="34.9206505" lon="32.9355689">
<ele>990.58</ele>
<time>2015-04-30T11:26:23Z</time>
</trkpt>
<trkpt lat="34.9206374" lon="32.9354854">
<ele>989.67</ele>
<time>2015-04-30T11:26:24Z</time>
</trkpt>
<trkpt lat="34.9206320" lon="32.9353954">
<ele>989.22</ele>
<time>2015-04-30T11:26:25Z</time>
</trkpt>
<trkpt lat="34.9206208" lon="32.9353099">
<ele>988.49</ele>
<time>2015-04-30T11:26:26Z</time>
</trkpt>
<trkpt lat="34.9206111" lon="32.9352184">
<ele>988.12</ele>
<time>2015-04-30T11:26:27Z</time>
</trkpt>
<trkpt lat="34.9205953" lon="32.9351259">
<ele>987.94</ele>
<time>2015-04-30T11:26:28Z</time>
</trkpt>
<trkpt lat="34.9205622" lon="32.9350515">
<ele>987.35</ele>
<time>2015-04-30T11:26:29Z</time>
</trkpt>
<trkpt lat="34.9205342" lon="32.9350037">
<ele>987.06</ele>
<time>2015-04-30T11:26:30Z</time>
</trkpt>
<trkpt lat="34.9204700" lon="32.9349430">
<ele>986.83</ele>
<time>2015-04-30T11:26:32Z</time>
</trkpt>
<trkpt lat="34.9204320" lon="32.9349114">
<ele>986.80</ele>
<time>2015-04-30T11:26:33Z</time>
</trkpt>
<trkpt lat="34.9203771" lon="32.9348511">
<ele>986.02</ele>
<time>2015-04-30T11:26:35Z</time>
</trkpt>
<trkpt lat="34.9203382" lon="32.9348147">
<ele>985.39</ele>
<time>2015-04-30T11:26:36Z</time>
</trkpt>
<trkpt lat="34.9202767" lon="32.9347561">
<ele>985.17</ele>
<time>2015-04-30T11:26:38Z</time>
</trkpt>
<trkpt lat="34.9202173" lon="32.9347078">
<ele>984.86</ele>
<time>2015-04-30T11:26:40Z</time>
</trkpt>
<trkpt lat="34.9201490" lon="32.9346767">
<ele>984.79</ele>
<time>2015-04-30T11:26:42Z</time>
</trkpt>
<trkpt lat="34.9200952" lon="32.9346461">
<ele>985.52</ele>
<time>2015-04-30T11:26:44Z</time>
</trkpt>
<trkpt lat="34.9200471" lon="32.9346045">
<ele>986.60</ele>
<time>2015-04-30T11:26:47Z</time>
</trkpt>
<trkpt lat="34.9200105" lon="32.9345612">
<ele>986.74</ele>
<time>2015-04-30T11:26:50Z</time>
</trkpt>
<trkpt lat="34.9199725" lon="32.9345244">
<ele>987.63</ele>
<time>2015-04-30T11:26:53Z</time>
</trkpt>
<trkpt lat="34.9199270" lon="32.9345077">
<ele>988.24</ele>
<time>2015-04-30T11:26:56Z</time>
</trkpt>
<trkpt lat="34.9198761" lon="32.9344981">
<ele>989.20</ele>
<time>2015-04-30T11:26:59Z</time>
</trkpt>
<trkpt lat="34.9198174" lon="32.9344995">
<ele>988.19</ele>
<time>2015-04-30T11:27:02Z</time>
</trkpt>
<trkpt lat="34.9197678" lon="32.9345007">
<ele>988.62</ele>
<time>2015-04-30T11:27:04Z</time>
</trkpt>
<trkpt lat="34.9197079" lon="32.9345097">
<ele>988.72</ele>
<time>2015-04-30T11:27:06Z</time>
</trkpt>
<trkpt lat="34.9196420" lon="32.9345306">
<ele>988.00</ele>
<time>2015-04-30T11:27:08Z</time>
</trkpt>
<trkpt lat="34.9195810" lon="32.9345605">
<ele>987.82</ele>
<time>2015-04-30T11:27:10Z</time>
</trkpt>
<trkpt lat="34.9195259" lon="32.9345864">
<ele>987.78</ele>
<time>2015-04-30T11:27:12Z</time>
</trkpt>
<trkpt lat="34.9194689" lon="32.9346002">
<ele>987.01</ele>
<time>2015-04-30T11:27:14Z</time>
</trkpt>
<trkpt lat="34.9194092" lon="32.9346192">
<ele>987.32</ele>
<time>2015-04-30T11:27:16Z</time>
</trkpt>
<trkpt lat="34.9193507" lon="32.9346460">
<ele>988.40</ele>
<time>2015-04-30T11:27:18Z</time>
</trkpt>
<trkpt lat="34.9192923" lon="32.9346750">
<ele>989.42</ele>
<time>2015-04-30T11:27:20Z</time>
</trkpt>
<trkpt lat="34.9192375" lon="32.9347025">
<ele>989.68</ele>
<time>2015-04-30T11:27:22Z</time>
</trkpt>
<trkpt lat="34.9191802" lon="32.9347248">
<ele>989.49</ele>
<time>2015-04-30T11:27:24Z</time>
</trkpt>
<trkpt lat="34.9191247" lon="32.9347420">
<ele>989.69</ele>
<time>2015-04-30T11:27:26Z</time>
</trkpt>
<trkpt lat="34.9190730" lon="32.9347715">
<ele>989.24</ele>
<time>2015-04-30T11:27:28Z</time>
</trkpt>
<trkpt lat="34.9190276" lon="32.9348072">
<ele>989.38</ele>
<time>2015-04-30T11:27:30Z</time>
</trkpt>
<trkpt lat="34.9189802" lon="32.9348460">
<ele>989.67</ele>
<time>2015-04-30T11:27:32Z</time>
</trkpt>
<trkpt lat="34.9189364" lon="32.9348960">
<ele>989.74</ele>
<time>2015-04-30T11:27:34Z</time>
</trkpt>
<trkpt lat="34.9188881" lon="32.9349536">
<ele>989.75</ele>
<time>2015-04-30T11:27:36Z</time>
</trkpt>
<trkpt lat="34.9188282" lon="32.9350256">
<ele>988.51</ele>
<time>2015-04-30T11:27:38Z</time>
</trkpt>
<trkpt lat="34.9187836" lon="32.9350953">
<ele>988.13</ele>
<time>2015-04-30T11:27:39Z</time>
</trkpt>
<trkpt lat="34.9187506" lon="32.9351460">
<ele>987.45</ele>
<time>2015-04-30T11:27:40Z</time>
</trkpt>
<trkpt lat="34.9187139" lon="32.9351938">
<ele>986.60</ele>
<time>2015-04-30T11:27:41Z</time>
</trkpt>
<trkpt lat="34.9186738" lon="32.9352469">
<ele>986.18</ele>
<time>2015-04-30T11:27:42Z</time>
</trkpt>
<trkpt lat="34.9186347" lon="32.9353010">
<ele>985.47</ele>
<time>2015-04-30T11:27:43Z</time>
</trkpt>
<trkpt lat="34.9185911" lon="32.9353645">
<ele>985.12</ele>
<time>2015-04-30T11:27:44Z</time>
</trkpt>
<trkpt lat="34.9185464" lon="32.9354198">
<ele>984.44</ele>
<time>2015-04-30T11:27:45Z</time>
</trkpt>
<trkpt lat="34.9184945" lon="32.9354852">
<ele>983.60</ele>
<time>2015-04-30T11:27:46Z</time>
</trkpt>
<trkpt lat="34.9184404" lon="32.9355539">
<ele>982.68</ele>
<time>2015-04-30T11:27:47Z</time>
</trkpt>
<trkpt lat="34.9183808" lon="32.9356286">
<ele>981.72</ele>
<time>2015-04-30T11:27:48Z</time>
</trkpt>
<trkpt lat="34.9183279" lon="32.9357025">
<ele>981.24</ele>
<time>2015-04-30T11:27:49Z</time>
</trkpt>
<trkpt lat="34.9182693" lon="32.9357775">
<ele>980.50</ele>
<time>2015-04-30T11:27:50Z</time>
</trkpt>
<trkpt lat="34.9182048" lon="32.9358572">
<ele>979.63</ele>
<time>2015-04-30T11:27:51Z</time>
</trkpt>
<trkpt lat="34.9181418" lon="32.9359368">
<ele>979.20</ele>
<time>2015-04-30T11:27:52Z</time>
</trkpt>
<trkpt lat="34.9180823" lon="32.9360142">
<ele>978.48</ele>
<time>2015-04-30T11:27:53Z</time>
</trkpt>
<trkpt lat="34.9180200" lon="32.9360943">
<ele>977.62</ele>
<time>2015-04-30T11:27:54Z</time>
</trkpt>
<trkpt lat="34.9179681" lon="32.9361726">
<ele>976.69</ele>
<time>2015-04-30T11:27:55Z</time>
</trkpt>
<trkpt lat="34.9179041" lon="32.9362407">
<ele>976.22</ele>
<time>2015-04-30T11:27:56Z</time>
</trkpt>
<trkpt lat="34.9178526" lon="32.9363052">
<ele>975.99</ele>
<time>2015-04-30T11:27:57Z</time>
</trkpt>
<trkpt lat="34.9177918" lon="32.9363668">
<ele>975.38</ele>
<time>2015-04-30T11:27:58Z</time>
</trkpt>
<trkpt lat="34.9177347" lon="32.9364348">
<ele>974.57</ele>
<time>2015-04-30T11:27:59Z</time>
</trkpt>
<trkpt lat="34.9176792" lon="32.9365055">
<ele>973.66</ele>
<time>2015-04-30T11:28:00Z</time>
</trkpt>
<trkpt lat="34.9176317" lon="32.9365762">
<ele>973.21</ele>
<time>2015-04-30T11:28:01Z</time>
</trkpt>
<trkpt lat="34.9175807" lon="32.9366509">
<ele>972.49</ele>
<time>2015-04-30T11:28:02Z</time>
</trkpt>
<trkpt lat="34.9175370" lon="32.9367201">
<ele>971.62</ele>
<time>2015-04-30T11:28:03Z</time>
</trkpt>
<trkpt lat="34.9174972" lon="32.9367874">
<ele>971.19</ele>
<time>2015-04-30T11:28:04Z</time>
</trkpt>
<trkpt lat="34.9174641" lon="32.9368385">
<ele>970.98</ele>
<time>2015-04-30T11:28:05Z</time>
</trkpt>
<trkpt lat="34.9174156" lon="32.9369197">
<ele>970.06</ele>
<time>2015-04-30T11:28:07Z</time>
</trkpt>
<trkpt lat="34.9173999" lon="32.9370016">
<ele>970.34</ele>
<time>2015-04-30T11:28:09Z</time>
</trkpt>
<trkpt lat="34.9174323" lon="32.9370404">
<ele>969.40</ele>
<time>2015-04-30T11:28:11Z</time>
</trkpt>
<trkpt lat="34.9174719" lon="32.9370751">
<ele>970.61</ele>
<time>2015-04-30T11:28:17Z</time>
</trkpt>
<trkpt lat="34.9174752" lon="32.9370202">
<ele>978.76</ele>
<time>2015-04-30T11:33:04Z</time>
</trkpt>
<trkpt lat="34.9174332" lon="32.9369984">
<ele>979.52</ele>
<time>2015-04-30T11:35:55Z</time>
</trkpt>
<trkpt lat="34.9173761" lon="32.9370151">
<ele>978.35</ele>
<time>2015-04-30T11:35:58Z</time>
</trkpt>
<trkpt lat="34.9173229" lon="32.9370606">
<ele>976.91</ele>
<time>2015-04-30T11:36:00Z</time>
</trkpt>
<trkpt lat="34.9172834" lon="32.9371480">
<ele>975.55</ele>
<time>2015-04-30T11:36:02Z</time>
</trkpt>
<trkpt lat="34.9172617" lon="32.9371979">
<ele>974.65</ele>
<time>2015-04-30T11:36:03Z</time>
</trkpt>
<trkpt lat="34.9172382" lon="32.9372475">
<ele>974.21</ele>
<time>2015-04-30T11:36:04Z</time>
</trkpt>
<trkpt lat="34.9171895" lon="32.9373405">
<ele>973.12</ele>
<time>2015-04-30T11:36:06Z</time>
</trkpt>
<trkpt lat="34.9171654" lon="32.9373876">
<ele>972.44</ele>
<time>2015-04-30T11:36:07Z</time>
</trkpt>
<trkpt lat="34.9171420" lon="32.9374351">
<ele>971.60</ele>
<time>2015-04-30T11:36:08Z</time>
</trkpt>
<trkpt lat="34.9170970" lon="32.9375246">
<ele>970.47</ele>
<time>2015-04-30T11:36:10Z</time>
</trkpt>
<trkpt lat="34.9170435" lon="32.9376274">
<ele>969.44</ele>
<time>2015-04-30T11:36:12Z</time>
</trkpt>
<trkpt lat="34.9170178" lon="32.9376779">
<ele>969.10</ele>
<time>2015-04-30T11:36:13Z</time>
</trkpt>
<trkpt lat="34.9169901" lon="32.9377293">
<ele>968.43</ele>
<time>2015-04-30T11:36:14Z</time>
</trkpt>
<trkpt lat="34.9169621" lon="32.9377770">
<ele>967.59</ele>
<time>2015-04-30T11:36:15Z</time>
</trkpt>
<trkpt lat="34.9169275" lon="32.9378246">
<ele>967.18</ele>
<time>2015-04-30T11:36:16Z</time>
</trkpt>
<trkpt lat="34.9168934" lon="32.9378759">
<ele>966.97</ele>
<time>2015-04-30T11:36:17Z</time>
</trkpt>
<trkpt lat="34.9168592" lon="32.9379277">
<ele>966.36</ele>
<time>2015-04-30T11:36:18Z</time>
</trkpt>
<trkpt lat="34.9168166" lon="32.9379857">
<ele>965.56</ele>
<time>2015-04-30T11:36:19Z</time>
</trkpt>
<trkpt lat="34.9167671" lon="32.9380390">
<ele>965.16</ele>
<time>2015-04-30T11:36:20Z</time>
</trkpt>
<trkpt lat="34.9167264" lon="32.9380972">
<ele>964.96</ele>
<time>2015-04-30T11:36:21Z</time>
</trkpt>
<trkpt lat="34.9166587" lon="32.9381584">
<ele>963.86</ele>
<time>2015-04-30T11:36:22Z</time>
</trkpt>
<trkpt lat="34.9165934" lon="32.9382200">
<ele>963.31</ele>
<time>2015-04-30T11:36:23Z</time>
</trkpt>
<trkpt lat="34.9165314" lon="32.9382806">
<ele>963.04</ele>
<time>2015-04-30T11:36:24Z</time>
</trkpt>
<trkpt lat="34.9164698" lon="32.9383334">
<ele>962.40</ele>
<time>2015-04-30T11:36:25Z</time>
</trkpt>
<trkpt lat="34.9164015" lon="32.9383929">
<ele>962.08</ele>
<time>2015-04-30T11:36:26Z</time>
</trkpt>
<trkpt lat="34.9163388" lon="32.9384618">
<ele>961.42</ele>
<time>2015-04-30T11:36:27Z</time>
</trkpt>
<trkpt lat="34.9162644" lon="32.9385234">
<ele>961.09</ele>
<time>2015-04-30T11:36:28Z</time>
</trkpt>
<trkpt lat="34.9162030" lon="32.9385822">
<ele>960.42</ele>
<time>2015-04-30T11:36:29Z</time>
</trkpt>
<trkpt lat="34.9161286" lon="32.9386397">
<ele>959.59</ele>
<time>2015-04-30T11:36:30Z</time>
</trkpt>
<trkpt lat="34.9160546" lon="32.9386982">
<ele>958.18</ele>
<time>2015-04-30T11:36:31Z</time>
</trkpt>
<trkpt lat="34.9159818" lon="32.9387501">
<ele>956.97</ele>
<time>2015-04-30T11:36:32Z</time>
</trkpt>
<trkpt lat="34.9159096" lon="32.9388080">
<ele>956.36</ele>
<time>2015-04-30T11:36:33Z</time>
</trkpt>
<trkpt lat="34.9158260" lon="32.9388717">
<ele>955.56</ele>
<time>2015-04-30T11:36:34Z</time>
</trkpt>
<trkpt lat="34.9157390" lon="32.9389342">
<ele>954.16</ele>
<time>2015-04-30T11:36:35Z</time>
</trkpt>
<trkpt lat="34.9156477" lon="32.9390028">
<ele>953.46</ele>
<time>2015-04-30T11:36:36Z</time>
</trkpt>
<trkpt lat="34.9155727" lon="32.9390695">
<ele>952.61</ele>
<time>2015-04-30T11:36:37Z</time>
</trkpt>
<trkpt lat="34.9154942" lon="32.9391318">
<ele>952.19</ele>
<time>2015-04-30T11:36:38Z</time>
</trkpt>
<trkpt lat="34.9154103" lon="32.9391931">
<ele>951.97</ele>
<time>2015-04-30T11:36:39Z</time>
</trkpt>
<trkpt lat="34.9153228" lon="32.9392595">
<ele>951.87</ele>
<time>2015-04-30T11:36:40Z</time>
</trkpt>
<trkpt lat="34.9152424" lon="32.9393233">
<ele>951.31</ele>
<time>2015-04-30T11:36:41Z</time>
</trkpt>
<trkpt lat="34.9151624" lon="32.9393917">
<ele>951.04</ele>
<time>2015-04-30T11:36:42Z</time>
</trkpt>
<trkpt lat="34.9150826" lon="32.9394661">
<ele>950.40</ele>
<time>2015-04-30T11:36:43Z</time>
</trkpt>
<trkpt lat="34.9150105" lon="32.9395485">
<ele>949.58</ele>
<time>2015-04-30T11:36:44Z</time>
</trkpt>
<trkpt lat="34.9149525" lon="32.9396348">
<ele>948.67</ele>
<time>2015-04-30T11:36:45Z</time>
</trkpt>
<trkpt lat="34.9148975" lon="32.9397317">
<ele>947.71</ele>
<time>2015-04-30T11:36:46Z</time>
</trkpt>
<trkpt lat="34.9148434" lon="32.9398341">
<ele>946.74</ele>
<time>2015-04-30T11:36:47Z</time>
</trkpt>
<trkpt lat="34.9147906" lon="32.9399341">
<ele>945.75</ele>
<time>2015-04-30T11:36:48Z</time>
</trkpt>
<trkpt lat="34.9147373" lon="32.9400304">
<ele>944.75</ele>
<time>2015-04-30T11:36:49Z</time>
</trkpt>
<trkpt lat="34.9146870" lon="32.9401286">
<ele>944.26</ele>
<time>2015-04-30T11:36:50Z</time>
</trkpt>
<trkpt lat="34.9146277" lon="32.9402206">
<ele>944.01</ele>
<time>2015-04-30T11:36:51Z</time>
</trkpt>
<trkpt lat="34.9145596" lon="32.9403125">
<ele>943.38</ele>
<time>2015-04-30T11:36:52Z</time>
</trkpt>
<trkpt lat="34.9144867" lon="32.9404002">
<ele>943.07</ele>
<time>2015-04-30T11:36:53Z</time>
</trkpt>
<trkpt lat="34.9144109" lon="32.9404905">
<ele>942.42</ele>
<time>2015-04-30T11:36:54Z</time>
</trkpt>
<trkpt lat="34.9143270" lon="32.9405726">
<ele>942.09</ele>
<time>2015-04-30T11:36:55Z</time>
</trkpt>
<trkpt lat="34.9142354" lon="32.9406532">
<ele>941.42</ele>
<time>2015-04-30T11:36:56Z</time>
</trkpt>
<trkpt lat="34.9141454" lon="32.9407323">
<ele>941.09</ele>
<time>2015-04-30T11:36:57Z</time>
</trkpt>
<trkpt lat="34.9140516" lon="32.9408124">
<ele>940.43</ele>
<time>2015-04-30T11:36:58Z</time>
</trkpt>
<trkpt lat="34.9139468" lon="32.9408908">
<ele>939.59</ele>
<time>2015-04-30T11:36:59Z</time>
</trkpt>
<trkpt lat="34.9138434" lon="32.9409780">
<ele>938.68</ele>
<time>2015-04-30T11:37:00Z</time>
</trkpt>
<trkpt lat="34.9137476" lon="32.9410558">
<ele>938.22</ele>
<time>2015-04-30T11:37:01Z</time>
</trkpt>
<trkpt lat="34.9136481" lon="32.9411362">
<ele>937.99</ele>
<time>2015-04-30T11:37:02Z</time>
</trkpt>
<trkpt lat="34.9135450" lon="32.9412165">
<ele>937.37</ele>
<time>2015-04-30T11:37:03Z</time>
</trkpt>
<trkpt lat="34.9134399" lon="32.9412966">
<ele>936.57</ele>
<time>2015-04-30T11:37:04Z</time>
</trkpt>
<trkpt lat="34.9133459" lon="32.9413746">
<ele>936.16</ele>
<time>2015-04-30T11:37:05Z</time>
</trkpt>
<trkpt lat="34.9132452" lon="32.9414519">
<ele>935.46</ele>
<time>2015-04-30T11:37:06Z</time>
</trkpt>
<trkpt lat="34.9131436" lon="32.9415235">
<ele>935.11</ele>
<time>2015-04-30T11:37:07Z</time>
</trkpt>
<trkpt lat="34.9130386" lon="32.9415950">
<ele>934.94</ele>
<time>2015-04-30T11:37:08Z</time>
</trkpt>
<trkpt lat="34.9129338" lon="32.9416574">
<ele>934.35</ele>
<time>2015-04-30T11:37:09Z</time>
</trkpt>
<trkpt lat="34.9128320" lon="32.9417074">
<ele>933.05</ele>
<time>2015-04-30T11:37:10Z</time>
</trkpt>
<trkpt lat="34.9127232" lon="32.9417582">
<ele>932.41</ele>
<time>2015-04-30T11:37:11Z</time>
</trkpt>
<trkpt lat="34.9126135" lon="32.9418098">
<ele>931.58</ele>
<time>2015-04-30T11:37:12Z</time>
</trkpt>
<trkpt lat="34.9125111" lon="32.9418584">
<ele>930.67</ele>
<time>2015-04-30T11:37:13Z</time>
</trkpt>
<trkpt lat="34.9124019" lon="32.9418997">
<ele>930.22</ele>
<time>2015-04-30T11:37:14Z</time>
</trkpt>
<trkpt lat="34.9122902" lon="32.9419367">
<ele>929.49</ele>
<time>2015-04-30T11:37:15Z</time>
</trkpt>
<trkpt lat="34.9121676" lon="32.9419609">
<ele>928.62</ele>
<time>2015-04-30T11:37:16Z</time>
</trkpt>
<trkpt lat="34.9120531" lon="32.9419803">
<ele>927.69</ele>
<time>2015-04-30T11:37:17Z</time>
</trkpt>
<trkpt lat="34.9119394" lon="32.9419979">
<ele>926.73</ele>
<time>2015-04-30T11:37:18Z</time>
</trkpt>
<trkpt lat="34.9118158" lon="32.9420230">
<ele>926.24</ele>
<time>2015-04-30T11:37:19Z</time>
</trkpt>
<trkpt lat="34.9116965" lon="32.9420542">
<ele>925.50</ele>
<time>2015-04-30T11:37:20Z</time>
</trkpt>
<trkpt lat="34.9115829" lon="32.9420899">
<ele>924.63</ele>
<time>2015-04-30T11:37:21Z</time>
</trkpt>
<trkpt lat="34.9114623" lon="32.9421345">
<ele>923.70</ele>
<time>2015-04-30T11:37:22Z</time>
</trkpt>
<trkpt lat="34.9113449" lon="32.9421899">
<ele>923.23</ele>
<time>2015-04-30T11:37:23Z</time>
</trkpt>
<trkpt lat="34.9112267" lon="32.9422518">
<ele>922.49</ele>
<time>2015-04-30T11:37:24Z</time>
</trkpt>
<trkpt lat="34.9111188" lon="32.9423122">
<ele>922.13</ele>
<time>2015-04-30T11:37:25Z</time>
</trkpt>
<trkpt lat="34.9110065" lon="32.9423726">
<ele>921.44</ele>
<time>2015-04-30T11:37:26Z</time>
</trkpt>
<trkpt lat="34.9109034" lon="32.9424224">
<ele>921.10</ele>
<time>2015-04-30T11:37:27Z</time>
</trkpt>
<trkpt lat="34.9107995" lon="32.9424766">
<ele>920.43</ele>
<time>2015-04-30T11:37:28Z</time>
</trkpt>
<trkpt lat="34.9107014" lon="32.9425260">
<ele>919.60</ele>
<time>2015-04-30T11:37:29Z</time>
</trkpt>
<trkpt lat="34.9105952" lon="32.9425823">
<ele>918.68</ele>
<time>2015-04-30T11:37:30Z</time>
</trkpt>
<trkpt lat="34.9104862" lon="32.9426363">
<ele>917.72</ele>
<time>2015-04-30T11:37:31Z</time>
</trkpt>
<trkpt lat="34.9103715" lon="32.9426932">
<ele>916.74</ele>
<time>2015-04-30T11:37:32Z</time>
</trkpt>
<trkpt lat="34.9102607" lon="32.9427496">
<ele>915.75</ele>
<time>2015-04-30T11:37:33Z</time>
</trkpt>
<trkpt lat="34.9101468" lon="32.9428123">
<ele>915.25</ele>
<time>2015-04-30T11:37:34Z</time>
</trkpt>
<trkpt lat="34.9100338" lon="32.9428681">
<ele>914.51</ele>
<time>2015-04-30T11:37:35Z</time>
</trkpt>
<trkpt lat="34.9099109" lon="32.9429279">
<ele>913.63</ele>
<time>2015-04-30T11:37:36Z</time>
</trkpt>
<trkpt lat="34.9098022" lon="32.9429824">
<ele>912.70</ele>
<time>2015-04-30T11:37:37Z</time>
</trkpt>
<trkpt lat="34.9096899" lon="32.9430370">
<ele>911.73</ele>
<time>2015-04-30T11:37:38Z</time>
</trkpt>
<trkpt lat="34.9095801" lon="32.9430886">
<ele>911.24</ele>
<time>2015-04-30T11:37:39Z</time>
</trkpt>
<trkpt lat="34.9094718" lon="32.9431301">
<ele>910.50</ele>
<time>2015-04-30T11:37:40Z</time>
</trkpt>
<trkpt lat="34.9093696" lon="32.9431486">
<ele>910.13</ele>
<time>2015-04-30T11:37:41Z</time>
</trkpt>
<trkpt lat="34.9092597" lon="32.9431546">
<ele>908.95</ele>
<time>2015-04-30T11:37:42Z</time>
</trkpt>
<trkpt lat="34.9091425" lon="32.9431551">
<ele>907.85</ele>
<time>2015-04-30T11:37:43Z</time>
</trkpt>
<trkpt lat="34.9090246" lon="32.9431550">
<ele>907.31</ele>
<time>2015-04-30T11:37:44Z</time>
</trkpt>
<trkpt lat="34.9089100" lon="32.9431516">
<ele>906.53</ele>
<time>2015-04-30T11:37:45Z</time>
</trkpt>
<trkpt lat="34.9087905" lon="32.9431533">
<ele>905.65</ele>
<time>2015-04-30T11:37:46Z</time>
</trkpt>
<trkpt lat="34.9086706" lon="32.9431610">
<ele>904.70</ele>
<time>2015-04-30T11:37:47Z</time>
</trkpt>
<trkpt lat="34.9085414" lon="32.9431675">
<ele>904.23</ele>
<time>2015-04-30T11:37:48Z</time>
</trkpt>
<trkpt lat="34.9084223" lon="32.9431661">
<ele>904.00</ele>
<time>2015-04-30T11:37:49Z</time>
</trkpt>
<trkpt lat="34.9083024" lon="32.9431664">
<ele>903.38</ele>
<time>2015-04-30T11:37:50Z</time>
</trkpt>
<trkpt lat="34.9081791" lon="32.9431718">
<ele>902.57</ele>
<time>2015-04-30T11:37:51Z</time>
</trkpt>
<trkpt lat="34.9080505" lon="32.9431704">
<ele>901.66</ele>
<time>2015-04-30T11:37:52Z</time>
</trkpt>
<trkpt lat="34.9079263" lon="32.9431686">
<ele>900.71</ele>
<time>2015-04-30T11:37:53Z</time>
</trkpt>
<trkpt lat="34.9078007" lon="32.9431700">
<ele>900.24</ele>
<time>2015-04-30T11:37:54Z</time>
</trkpt>
<trkpt lat="34.9076797" lon="32.9431755">
<ele>900.00</ele>
<time>2015-04-30T11:37:55Z</time>
</trkpt>
<trkpt lat="34.9075522" lon="32.9431754">
<ele>899.88</ele>
<time>2015-04-30T11:37:56Z</time>
</trkpt>
<trkpt lat="34.9074217" lon="32.9431780">
<ele>899.32</ele>
<time>2015-04-30T11:37:57Z</time>
</trkpt>
<trkpt lat="34.9072944" lon="32.9431784">
<ele>898.54</ele>
<time>2015-04-30T11:37:58Z</time>
</trkpt>
<trkpt lat="34.9071673" lon="32.9431801">
<ele>897.65</ele>
<time>2015-04-30T11:37:59Z</time>
</trkpt>
<trkpt lat="34.9070366" lon="32.9431793">
<ele>896.70</ele>
<time>2015-04-30T11:38:00Z</time>
</trkpt>
<trkpt lat="34.9069100" lon="32.9431867">
<ele>896.23</ele>
<time>2015-04-30T11:38:01Z</time>
</trkpt>
<trkpt lat="34.9067832" lon="32.9431886">
<ele>896.00</ele>
<time>2015-04-30T11:38:02Z</time>
</trkpt>
<trkpt lat="34.9066555" lon="32.9431912">
<ele>895.88</ele>
<time>2015-04-30T11:38:03Z</time>
</trkpt>
<trkpt lat="34.9065266" lon="32.9431975">
<ele>895.32</ele>
<time>2015-04-30T11:38:04Z</time>
</trkpt>
<trkpt lat="34.9064053" lon="32.9431975">
<ele>895.04</ele>
<time>2015-04-30T11:38:05Z</time>
</trkpt>
<trkpt lat="34.9062758" lon="32.9431875">
<ele>894.40</ele>
<time>2015-04-30T11:38:06Z</time>
</trkpt>
<trkpt lat="34.9061451" lon="32.9431796">
<ele>893.58</ele>
<time>2015-04-30T11:38:07Z</time>
</trkpt>
<trkpt lat="34.9060150" lon="32.9431689">
<ele>893.17</ele>
<time>2015-04-30T11:38:08Z</time>
</trkpt>
<trkpt lat="34.9058950" lon="32.9431466">
<ele>892.46</ele>
<time>2015-04-30T11:38:09Z</time>
</trkpt>
<trkpt lat="34.9057749" lon="32.9431221">
<ele>891.61</ele>
<time>2015-04-30T11:38:10Z</time>
</trkpt>
<trkpt lat="34.9056548" lon="32.9430994">
<ele>890.69</ele>
<time>2015-04-30T11:38:11Z</time>
</trkpt>
<trkpt lat="34.9055383" lon="32.9430719">
<ele>890.22</ele>
<time>2015-04-30T11:38:12Z</time>
</trkpt>
<trkpt lat="34.9054294" lon="32.9430403">
<ele>889.49</ele>
<time>2015-04-30T11:38:13Z</time>
</trkpt>
<trkpt lat="34.9053175" lon="32.9429924">
<ele>889.13</ele>
<time>2015-04-30T11:38:14Z</time>
</trkpt>
<trkpt lat="34.9052081" lon="32.9429314">
<ele>888.44</ele>
<time>2015-04-30T11:38:15Z</time>
</trkpt>
<trkpt lat="34.9050965" lon="32.9428732">
<ele>888.10</ele>
<time>2015-04-30T11:38:16Z</time>
</trkpt>
<trkpt lat="34.9049875" lon="32.9428224">
<ele>887.93</ele>
<time>2015-04-30T11:38:17Z</time>
</trkpt>
<trkpt lat="34.9048814" lon="32.9427615">
<ele>887.35</ele>
<time>2015-04-30T11:38:18Z</time>
</trkpt>
<trkpt lat="34.9047741" lon="32.9427015">
<ele>887.05</ele>
<time>2015-04-30T11:38:19Z</time>
</trkpt>
<trkpt lat="34.9046681" lon="32.9426394">
<ele>886.41</ele>
<time>2015-04-30T11:38:20Z</time>
</trkpt>
<trkpt lat="34.9045580" lon="32.9425824">
<ele>886.08</ele>
<time>2015-04-30T11:38:21Z</time>
</trkpt>
<trkpt lat="34.9044523" lon="32.9425221">
<ele>885.42</ele>
<time>2015-04-30T11:38:22Z</time>
</trkpt>
<trkpt lat="34.9043532" lon="32.9424641">
<ele>884.09</ele>
<time>2015-04-30T11:38:23Z</time>
</trkpt>
<trkpt lat="34.9042509" lon="32.9424076">
<ele>882.93</ele>
<time>2015-04-30T11:38:24Z</time>
</trkpt>
<trkpt lat="34.9041489" lon="32.9423499">
<ele>882.34</ele>
<time>2015-04-30T11:38:25Z</time>
</trkpt>
<trkpt lat="34.9040329" lon="32.9423022">
<ele>881.55</ele>
<time>2015-04-30T11:38:26Z</time>
</trkpt>
<trkpt lat="34.9039182" lon="32.9422681">
<ele>880.66</ele>
<time>2015-04-30T11:38:27Z</time>
</trkpt>
<trkpt lat="34.9038030" lon="32.9422378">
<ele>880.21</ele>
<time>2015-04-30T11:38:28Z</time>
</trkpt>
<trkpt lat="34.9036922" lon="32.9422127">
<ele>879.48</ele>
<time>2015-04-30T11:38:29Z</time>
</trkpt>
<trkpt lat="34.9035811" lon="32.9422015">
<ele>879.12</ele>
<time>2015-04-30T11:38:30Z</time>
</trkpt>
<trkpt lat="34.9034672" lon="32.9421911">
<ele>878.44</ele>
<time>2015-04-30T11:38:31Z</time>
</trkpt>
<trkpt lat="34.9033520" lon="32.9421886">
<ele>878.10</ele>
<time>2015-04-30T11:38:32Z</time>
</trkpt>
<trkpt lat="34.9032410" lon="32.9421933">
<ele>877.43</ele>
<time>2015-04-30T11:38:33Z</time>
</trkpt>
<trkpt lat="34.9031329" lon="32.9421994">
<ele>877.10</ele>
<time>2015-04-30T11:38:34Z</time>
</trkpt>
<trkpt lat="34.9030319" lon="32.9422071">
<ele>876.43</ele>
<time>2015-04-30T11:38:35Z</time>
</trkpt>
<trkpt lat="34.9029212" lon="32.9422175">
<ele>876.09</ele>
<time>2015-04-30T11:38:36Z</time>
</trkpt>
<trkpt lat="34.9028208" lon="32.9422314">
<ele>875.43</ele>
<time>2015-04-30T11:38:37Z</time>
</trkpt>
<trkpt lat="34.9027159" lon="32.9422451">
<ele>875.09</ele>
<time>2015-04-30T11:38:38Z</time>
</trkpt>
<trkpt lat="34.9026107" lon="32.9422445">
<ele>874.43</ele>
<time>2015-04-30T11:38:39Z</time>
</trkpt>
<trkpt lat="34.9025047" lon="32.9422406">
<ele>874.09</ele>
<time>2015-04-30T11:38:40Z</time>
</trkpt>
<trkpt lat="34.9024051" lon="32.9422403">
<ele>873.93</ele>
<time>2015-04-30T11:38:41Z</time>
</trkpt>
<trkpt lat="34.9023015" lon="32.9422301">
<ele>873.84</ele>
<time>2015-04-30T11:38:42Z</time>
</trkpt>
<trkpt lat="34.9021986" lon="32.9422206">
<ele>873.30</ele>
<time>2015-04-30T11:38:43Z</time>
</trkpt>
<trkpt lat="34.9020982" lon="32.9422056">
<ele>873.03</ele>
<time>2015-04-30T11:38:44Z</time>
</trkpt>
<trkpt lat="34.9020040" lon="32.9421849">
<ele>872.40</ele>
<time>2015-04-30T11:38:45Z</time>
</trkpt>
<trkpt lat="34.9019085" lon="32.9421743">
<ele>872.08</ele>
<time>2015-04-30T11:38:46Z</time>
</trkpt>
<trkpt lat="34.9018159" lon="32.9421574">
<ele>871.92</ele>
<time>2015-04-30T11:38:47Z</time>
</trkpt>
<trkpt lat="34.9017164" lon="32.9421226">
<ele>871.34</ele>
<time>2015-04-30T11:38:48Z</time>
</trkpt>
<trkpt lat="34.9016328" lon="32.9420890">
<ele>871.05</ele>
<time>2015-04-30T11:38:49Z</time>
</trkpt>
<trkpt lat="34.9015484" lon="32.9420305">
<ele>870.90</ele>
<time>2015-04-30T11:38:50Z</time>
</trkpt>
<trkpt lat="34.9014726" lon="32.9419566">
<ele>870.33</ele>
<time>2015-04-30T11:38:51Z</time>
</trkpt>
<trkpt lat="34.9013912" lon="32.9418757">
<ele>869.55</ele>
<time>2015-04-30T11:38:52Z</time>
</trkpt>
<trkpt lat="34.9013141" lon="32.9417960">
<ele>869.15</ele>
<time>2015-04-30T11:38:53Z</time>
</trkpt>
<trkpt lat="34.9012344" lon="32.9417166">
<ele>868.96</ele>
<time>2015-04-30T11:38:54Z</time>
</trkpt>
<trkpt lat="34.9011560" lon="32.9416329">
<ele>868.86</ele>
<time>2015-04-30T11:38:55Z</time>
</trkpt>
<trkpt lat="34.9010752" lon="32.9415405">
<ele>868.81</ele>
<time>2015-04-30T11:38:56Z</time>
</trkpt>
<trkpt lat="34.9010021" lon="32.9414552">
<ele>868.78</ele>
<time>2015-04-30T11:38:57Z</time>
</trkpt>
<trkpt lat="34.9009206" lon="32.9413687">
<ele>868.27</ele>
<time>2015-04-30T11:38:58Z</time>
</trkpt>
<trkpt lat="34.9008377" lon="32.9412834">
<ele>868.02</ele>
<time>2015-04-30T11:38:59Z</time>
</trkpt>
<trkpt lat="34.9007534" lon="32.9411953">
<ele>867.89</ele>
<time>2015-04-30T11:39:00Z</time>
</trkpt>
<trkpt lat="34.9006774" lon="32.9411119">
<ele>867.82</ele>
<time>2015-04-30T11:39:01Z</time>
</trkpt>
<trkpt lat="34.9005969" lon="32.9410283">
<ele>867.79</ele>
<time>2015-04-30T11:39:02Z</time>
</trkpt>
<trkpt lat="34.9005259" lon="32.9409348">
<ele>867.28</ele>
<time>2015-04-30T11:39:03Z</time>
</trkpt>
<trkpt lat="34.9004492" lon="32.9408434">
<ele>867.52</ele>
<time>2015-04-30T11:39:04Z</time>
</trkpt>
<trkpt lat="34.9003814" lon="32.9407626">
<ele>867.14</ele>
<time>2015-04-30T11:39:05Z</time>
</trkpt>
<trkpt lat="34.9003040" lon="32.9406806">
<ele>866.95</ele>
<time>2015-04-30T11:39:06Z</time>
</trkpt>
<trkpt lat="34.9002276" lon="32.9406050">
<ele>866.85</ele>
<time>2015-04-30T11:39:07Z</time>
</trkpt>
<trkpt lat="34.9001485" lon="32.9405231">
<ele>866.81</ele>
<time>2015-04-30T11:39:08Z</time>
</trkpt>
<trkpt lat="34.9000847" lon="32.9404438">
<ele>866.28</ele>
<time>2015-04-30T11:39:09Z</time>
</trkpt>
<trkpt lat="34.9000168" lon="32.9403567">
<ele>865.52</ele>
<time>2015-04-30T11:39:10Z</time>
</trkpt>
<trkpt lat="34.8999510" lon="32.9402654">
<ele>865.14</ele>
<time>2015-04-30T11:39:11Z</time>
</trkpt>
<trkpt lat="34.8998872" lon="32.9401656">
<ele>864.45</ele>
<time>2015-04-30T11:39:12Z</time>
</trkpt>
<trkpt lat="34.8998338" lon="32.9400673">
<ele>863.61</ele>
<time>2015-04-30T11:39:13Z</time>
</trkpt>
<trkpt lat="34.8997723" lon="32.9399648">
<ele>862.68</ele>
<time>2015-04-30T11:39:14Z</time>
</trkpt>
<trkpt lat="34.8997131" lon="32.9398520">
<ele>861.72</ele>
<time>2015-04-30T11:39:15Z</time>
</trkpt>
<trkpt lat="34.8996545" lon="32.9397389">
<ele>861.24</ele>
<time>2015-04-30T11:39:16Z</time>
</trkpt>
<trkpt lat="34.8995991" lon="32.9396327">
<ele>860.50</ele>
<time>2015-04-30T11:39:17Z</time>
</trkpt>
<trkpt lat="34.8995453" lon="32.9395221">
<ele>859.63</ele>
<time>2015-04-30T11:39:18Z</time>
</trkpt>
<trkpt lat="34.8995035" lon="32.9394062">
<ele>859.20</ele>
<time>2015-04-30T11:39:19Z</time>
</trkpt>
<trkpt lat="34.8994633" lon="32.9392848">
<ele>858.48</ele>
<time>2015-04-30T11:39:20Z</time>
</trkpt>
<trkpt lat="34.8994278" lon="32.9391636">
<ele>857.62</ele>
<time>2015-04-30T11:39:21Z</time>
</trkpt>
<trkpt lat="34.8993958" lon="32.9390198">
<ele>856.69</ele>
<time>2015-04-30T11:39:22Z</time>
</trkpt>
<trkpt lat="34.8993687" lon="32.9388787">
<ele>855.72</ele>
<time>2015-04-30T11:39:23Z</time>
</trkpt>
<trkpt lat="34.8993304" lon="32.9387322">
<ele>854.74</ele>
<time>2015-04-30T11:39:24Z</time>
</trkpt>
<trkpt lat="34.8993016" lon="32.9385860">
<ele>853.75</ele>
<time>2015-04-30T11:39:25Z</time>
</trkpt>
<trkpt lat="34.8992630" lon="32.9384435">
<ele>852.76</ele>
<time>2015-04-30T11:39:26Z</time>
</trkpt>
<trkpt lat="34.8992396" lon="32.9383026">
<ele>852.26</ele>
<time>2015-04-30T11:39:27Z</time>
</trkpt>
<trkpt lat="34.8992167" lon="32.9381466">
<ele>851.51</ele>
<time>2015-04-30T11:39:28Z</time>
</trkpt>
<trkpt lat="34.8991779" lon="32.9380120">
<ele>850.63</ele>
<time>2015-04-30T11:39:29Z</time>
</trkpt>
<trkpt lat="34.8991420" lon="32.9378808">
<ele>848.70</ele>
<time>2015-04-30T11:39:30Z</time>
</trkpt>
<trkpt lat="34.8991010" lon="32.9377386">
<ele>847.23</ele>
<time>2015-04-30T11:39:31Z</time>
</trkpt>
<trkpt lat="34.8990713" lon="32.9376058">
<ele>845.99</ele>
<time>2015-04-30T11:39:32Z</time>
</trkpt>
<trkpt lat="34.8990427" lon="32.9374945">
<ele>844.88</ele>
<time>2015-04-30T11:39:33Z</time>
</trkpt>
<trkpt lat="34.8990145" lon="32.9373722">
<ele>843.82</ele>
<time>2015-04-30T11:39:34Z</time>
</trkpt>
<trkpt lat="34.8989917" lon="32.9372584">
<ele>842.29</ele>
<time>2015-04-30T11:39:35Z</time>
</trkpt>
<trkpt lat="34.8989456" lon="32.9371451">
<ele>840.52</ele>
<time>2015-04-30T11:39:36Z</time>
</trkpt>
<trkpt lat="34.8989154" lon="32.9370436">
<ele>838.64</ele>
<time>2015-04-30T11:39:37Z</time>
</trkpt>
<trkpt lat="34.8988747" lon="32.9369475">
<ele>837.70</ele>
<time>2015-04-30T11:39:38Z</time>
</trkpt>
<trkpt lat="34.8988252" lon="32.9368558">
<ele>837.23</ele>
<time>2015-04-30T11:39:39Z</time>
</trkpt>
<trkpt lat="34.8987715" lon="32.9367644">
<ele>836.00</ele>
<time>2015-04-30T11:39:40Z</time>
</trkpt>
<trkpt lat="34.8987187" lon="32.9366853">
<ele>834.88</ele>
<time>2015-04-30T11:39:41Z</time>
</trkpt>
<trkpt lat="34.8986550" lon="32.9366087">
<ele>833.82</ele>
<time>2015-04-30T11:39:42Z</time>
</trkpt>
<trkpt lat="34.8985776" lon="32.9365444">
<ele>832.79</ele>
<time>2015-04-30T11:39:43Z</time>
</trkpt>
<trkpt lat="34.8984963" lon="32.9364778">
<ele>831.77</ele>
<time>2015-04-30T11:39:44Z</time>
</trkpt>
<trkpt lat="34.8984154" lon="32.9364292">
<ele>831.27</ele>
<time>2015-04-30T11:39:45Z</time>
</trkpt>
<trkpt lat="34.8983155" lon="32.9363841">
<ele>830.51</ele>
<time>2015-04-30T11:39:46Z</time>
</trkpt>
<trkpt lat="34.8982297" lon="32.9363414">
<ele>829.64</ele>
<time>2015-04-30T11:39:47Z</time>
</trkpt>
<trkpt lat="34.8981243" lon="32.9363124">
<ele>829.20</ele>
<time>2015-04-30T11:39:48Z</time>
</trkpt>
<trkpt lat="34.8980180" lon="32.9362862">
<ele>828.48</ele>
<time>2015-04-30T11:39:49Z</time>
</trkpt>
<trkpt lat="34.8979101" lon="32.9362618">
<ele>827.62</ele>
<time>2015-04-30T11:39:50Z</time>
</trkpt>
<trkpt lat="34.8978035" lon="32.9362349">
<ele>827.19</ele>
<time>2015-04-30T11:39:51Z</time>
</trkpt>
<trkpt lat="34.8976979" lon="32.9361844">
<ele>826.47</ele>
<time>2015-04-30T11:39:52Z</time>
</trkpt>
<trkpt lat="34.8976134" lon="32.9361462">
<ele>825.62</ele>
<time>2015-04-30T11:39:53Z</time>
</trkpt>
<trkpt lat="34.8975185" lon="32.9361011">
<ele>824.69</ele>
<time>2015-04-30T11:39:54Z</time>
</trkpt>
<trkpt lat="34.8974291" lon="32.9360480">
<ele>823.72</ele>
<time>2015-04-30T11:39:55Z</time>
</trkpt>
<trkpt lat="34.8973357" lon="32.9359967">
<ele>822.74</ele>
<time>2015-04-30T11:39:56Z</time>
</trkpt>
<trkpt lat="34.8972461" lon="32.9359480">
<ele>822.25</ele>
<time>2015-04-30T11:39:57Z</time>
</trkpt>
<trkpt lat="34.8971487" lon="32.9359059">
<ele>821.51</ele>
<time>2015-04-30T11:39:58Z</time>
</trkpt>
<trkpt lat="34.8970499" lon="32.9358730">
<ele>821.13</ele>
<time>2015-04-30T11:39:59Z</time>
</trkpt>
<trkpt lat="34.8969433" lon="32.9358454">
<ele>820.95</ele>
<time>2015-04-30T11:40:00Z</time>
</trkpt>
<trkpt lat="34.8968412" lon="32.9358214">
<ele>820.35</ele>
<time>2015-04-30T11:40:01Z</time>
</trkpt>
<trkpt lat="34.8967342" lon="32.9357993">
<ele>820.06</ele>
<time>2015-04-30T11:40:02Z</time>
</trkpt>
<trkpt lat="34.8966398" lon="32.9357686">
<ele>819.41</ele>
<time>2015-04-30T11:40:03Z</time>
</trkpt>
<trkpt lat="34.8965445" lon="32.9357396">
<ele>818.58</ele>
<time>2015-04-30T11:40:04Z</time>
</trkpt>
<trkpt lat="34.8964492" lon="32.9357067">
<ele>817.67</ele>
<time>2015-04-30T11:40:05Z</time>
</trkpt>
<trkpt lat="34.8963529" lon="32.9356709">
<ele>816.72</ele>
<time>2015-04-30T11:40:06Z</time>
</trkpt>
<trkpt lat="34.8962427" lon="32.9356336">
<ele>816.24</ele>
<time>2015-04-30T11:40:07Z</time>
</trkpt>
<trkpt lat="34.8961421" lon="32.9355901">
<ele>815.50</ele>
<time>2015-04-30T11:40:08Z</time>
</trkpt>
<trkpt lat="34.8960454" lon="32.9355550">
<ele>814.63</ele>
<time>2015-04-30T11:40:09Z</time>
</trkpt>
<trkpt lat="34.8959405" lon="32.9355218">
<ele>813.69</ele>
<time>2015-04-30T11:40:10Z</time>
</trkpt>
<trkpt lat="34.8958416" lon="32.9354897">
<ele>813.23</ele>
<time>2015-04-30T11:40:11Z</time>
</trkpt>
<trkpt lat="34.8957405" lon="32.9354691">
<ele>812.99</ele>
<time>2015-04-30T11:40:12Z</time>
</trkpt>
<trkpt lat="34.8956482" lon="32.9354554">
<ele>812.88</ele>
<time>2015-04-30T11:40:13Z</time>
</trkpt>
<trkpt lat="34.8955581" lon="32.9354589">
<ele>812.32</ele>
<time>2015-04-30T11:40:14Z</time>
</trkpt>
<trkpt lat="34.8954572" lon="32.9354805">
<ele>812.04</ele>
<time>2015-04-30T11:40:15Z</time>
</trkpt>
<trkpt lat="34.8953702" lon="32.9355162">
<ele>811.40</ele>
<time>2015-04-30T11:40:16Z</time>
</trkpt>
<trkpt lat="34.8952898" lon="32.9355541">
<ele>811.08</ele>
<time>2015-04-30T11:40:17Z</time>
</trkpt>
<trkpt lat="34.8952046" lon="32.9356034">
<ele>810.42</ele>
<time>2015-04-30T11:40:18Z</time>
</trkpt>
<trkpt lat="34.8951291" lon="32.9356516">
<ele>809.59</ele>
<time>2015-04-30T11:40:19Z</time>
</trkpt>
<trkpt lat="34.8950459" lon="32.9357108">
<ele>809.17</ele>
<time>2015-04-30T11:40:20Z</time>
</trkpt>
<trkpt lat="34.8949704" lon="32.9357617">
<ele>808.97</ele>
<time>2015-04-30T11:40:21Z</time>
</trkpt>
<trkpt lat="34.8948886" lon="32.9358196">
<ele>808.86</ele>
<time>2015-04-30T11:40:22Z</time>
</trkpt>
<trkpt lat="34.8948120" lon="32.9358721">
<ele>808.31</ele>
<time>2015-04-30T11:40:23Z</time>
</trkpt>
<trkpt lat="34.8947278" lon="32.9359250">
<ele>807.54</ele>
<time>2015-04-30T11:40:24Z</time>
</trkpt>
<trkpt lat="34.8946424" lon="32.9359712">
<ele>807.15</ele>
<time>2015-04-30T11:40:25Z</time>
</trkpt>
<trkpt lat="34.8945589" lon="32.9360205">
<ele>806.45</ele>
<time>2015-04-30T11:40:26Z</time>
</trkpt>
<trkpt lat="34.8944926" lon="32.9360604">
<ele>806.11</ele>
<time>2015-04-30T11:40:27Z</time>
</trkpt>
<trkpt lat="34.8944244" lon="32.9360869">
<ele>805.43</ele>
<time>2015-04-30T11:40:28Z</time>
</trkpt>
<trkpt lat="34.8943572" lon="32.9361025">
<ele>805.60</ele>
<time>2015-04-30T11:40:29Z</time>
</trkpt>
<trkpt lat="34.8942732" lon="32.9361176">
<ele>805.18</ele>
<time>2015-04-30T11:40:30Z</time>
</trkpt>
<trkpt lat="34.8941958" lon="32.9361176">
<ele>803.97</ele>
<time>2015-04-30T11:40:31Z</time>
</trkpt>
<trkpt lat="34.8941078" lon="32.9361278">
<ele>802.86</ele>
<time>2015-04-30T11:40:32Z</time>
</trkpt>
<trkpt lat="34.8940263" lon="32.9361286">
<ele>802.31</ele>
<time>2015-04-30T11:40:33Z</time>
</trkpt>
<trkpt lat="34.8939417" lon="32.9361271">
<ele>802.04</ele>
<time>2015-04-30T11:40:34Z</time>
</trkpt>
<trkpt lat="34.8938534" lon="32.9361145">
<ele>801.90</ele>
<time>2015-04-30T11:40:35Z</time>
</trkpt>
<trkpt lat="34.8937632" lon="32.9360988">
<ele>801.83</ele>
<time>2015-04-30T11:40:36Z</time>
</trkpt>
<trkpt lat="34.8936806" lon="32.9360746">
<ele>801.79</ele>
<time>2015-04-30T11:40:37Z</time>
</trkpt>
<trkpt lat="34.8935956" lon="32.9360462">
<ele>801.78</ele>
<time>2015-04-30T11:40:38Z</time>
</trkpt>
<trkpt lat="34.8935078" lon="32.9360080">
<ele>801.77</ele>
<time>2015-04-30T11:40:39Z</time>
</trkpt>
<trkpt lat="34.8934182" lon="32.9359767">
<ele>801.76</ele>
<time>2015-04-30T11:40:40Z</time>
</trkpt>
<trkpt lat="34.8933228" lon="32.9359456">
<ele>801.76</ele>
<time>2015-04-30T11:40:41Z</time>
</trkpt>
<trkpt lat="34.8932318" lon="32.9359074">
<ele>801.76</ele>
<time>2015-04-30T11:40:42Z</time>
</trkpt>
<trkpt lat="34.8931373" lon="32.9358713">
<ele>801.76</ele>
<time>2015-04-30T11:40:43Z</time>
</trkpt>
<trkpt lat="34.8930459" lon="32.9358275">
<ele>801.26</ele>
<time>2015-04-30T11:40:44Z</time>
</trkpt>
<trkpt lat="34.8929508" lon="32.9357788">
<ele>800.51</ele>
<time>2015-04-30T11:40:45Z</time>
</trkpt>
<trkpt lat="34.8928602" lon="32.9357417">
<ele>799.64</ele>
<time>2015-04-30T11:40:46Z</time>
</trkpt>
<trkpt lat="34.8927599" lon="32.9357170">
<ele>799.20</ele>
<time>2015-04-30T11:40:47Z</time>
</trkpt>
<trkpt lat="34.8926596" lon="32.9356918">
<ele>798.48</ele>
<time>2015-04-30T11:40:48Z</time>
</trkpt>
<trkpt lat="34.8925695" lon="32.9356816">
<ele>797.62</ele>
<time>2015-04-30T11:40:49Z</time>
</trkpt>
<trkpt lat="34.8924826" lon="32.9356643">
<ele>796.69</ele>
<time>2015-04-30T11:40:50Z</time>
</trkpt>
<trkpt lat="34.8923939" lon="32.9356577">
<ele>795.72</ele>
<time>2015-04-30T11:40:51Z</time>
</trkpt>
<trkpt lat="34.8923048" lon="32.9356567">
<ele>794.74</ele>
<time>2015-04-30T11:40:52Z</time>
</trkpt>
<trkpt lat="34.8922241" lon="32.9356586">
<ele>793.75</ele>
<time>2015-04-30T11:40:53Z</time>
</trkpt>
<trkpt lat="34.8921387" lon="32.9356535">
<ele>793.26</ele>
<time>2015-04-30T11:40:54Z</time>
</trkpt>
<trkpt lat="34.8920575" lon="32.9356453">
<ele>793.01</ele>
<time>2015-04-30T11:40:55Z</time>
</trkpt>
<trkpt lat="34.8919737" lon="32.9356385">
<ele>792.88</ele>
<time>2015-04-30T11:40:56Z</time>
</trkpt>
<trkpt lat="34.8918926" lon="32.9356353">
<ele>792.82</ele>
<time>2015-04-30T11:40:57Z</time>
</trkpt>
<trkpt lat="34.8918141" lon="32.9356309">
<ele>792.29</ele>
<time>2015-04-30T11:40:58Z</time>
</trkpt>
<trkpt lat="34.8917372" lon="32.9356277">
<ele>792.03</ele>
<time>2015-04-30T11:40:59Z</time>
</trkpt>
<trkpt lat="34.8916534" lon="32.9356209">
<ele>791.39</ele>
<time>2015-04-30T11:41:00Z</time>
</trkpt>
<trkpt lat="34.8915739" lon="32.9356172">
<ele>791.08</ele>
<time>2015-04-30T11:41:01Z</time>
</trkpt>
<trkpt lat="34.8914945" lon="32.9356117">
<ele>790.92</ele>
<time>2015-04-30T11:41:02Z</time>
</trkpt>
<trkpt lat="34.8914173" lon="32.9356102">
<ele>790.84</ele>
<time>2015-04-30T11:41:03Z</time>
</trkpt>
<trkpt lat="34.8913399" lon="32.9356047">
<ele>790.30</ele>
<time>2015-04-30T11:41:04Z</time>
</trkpt>
<trkpt lat="34.8912687" lon="32.9355980">
<ele>789.53</ele>
<time>2015-04-30T11:41:05Z</time>
</trkpt>
<trkpt lat="34.8911903" lon="32.9355907">
<ele>789.14</ele>
<time>2015-04-30T11:41:06Z</time>
</trkpt>
<trkpt lat="34.8911096" lon="32.9355908">
<ele>788.95</ele>
<time>2015-04-30T11:41:07Z</time>
</trkpt>
<trkpt lat="34.8910274" lon="32.9356034">
<ele>788.86</ele>
<time>2015-04-30T11:41:08Z</time>
</trkpt>
<trkpt lat="34.8909524" lon="32.9356106">
<ele>788.31</ele>
<time>2015-04-30T11:41:09Z</time>
</trkpt>
<trkpt lat="34.8908768" lon="32.9356301">
<ele>788.03</ele>
<time>2015-04-30T11:41:10Z</time>
</trkpt>
<trkpt lat="34.8908025" lon="32.9356554">
<ele>787.90</ele>
<time>2015-04-30T11:41:11Z</time>
</trkpt>
<trkpt lat="34.8907345" lon="32.9356738">
<ele>787.33</ele>
<time>2015-04-30T11:41:12Z</time>
</trkpt>
<trkpt lat="34.8906666" lon="32.9356879">
<ele>786.54</ele>
<time>2015-04-30T11:41:13Z</time>
</trkpt>
<trkpt lat="34.8905925" lon="32.9356968">
<ele>786.15</ele>
<time>2015-04-30T11:41:14Z</time>
</trkpt>
<trkpt lat="34.8905239" lon="32.9357031">
<ele>786.46</ele>
<time>2015-04-30T11:41:15Z</time>
</trkpt>
<trkpt lat="34.8904538" lon="32.9356997">
<ele>786.61</ele>
<time>2015-04-30T11:41:16Z</time>
</trkpt>
<trkpt lat="34.8903943" lon="32.9356861">
<ele>787.18</ele>
<time>2015-04-30T11:41:17Z</time>
</trkpt>
<trkpt lat="34.8903335" lon="32.9356596">
<ele>787.47</ele>
<time>2015-04-30T11:41:18Z</time>
</trkpt>
<trkpt lat="34.8902836" lon="32.9356228">
<ele>787.12</ele>
<time>2015-04-30T11:41:19Z</time>
</trkpt>
<trkpt lat="34.8902346" lon="32.9355748">
<ele>786.94</ele>
<time>2015-04-30T11:41:20Z</time>
</trkpt>
<trkpt lat="34.8901981" lon="32.9355249">
<ele>786.85</ele>
<time>2015-04-30T11:41:21Z</time>
</trkpt>
<trkpt lat="34.8901547" lon="32.9354695">
<ele>786.80</ele>
<time>2015-04-30T11:41:22Z</time>
</trkpt>
<trkpt lat="34.8901175" lon="32.9354138">
<ele>786.78</ele>
<time>2015-04-30T11:41:23Z</time>
</trkpt>
<trkpt lat="34.8900748" lon="32.9353542">
<ele>786.27</ele>
<time>2015-04-30T11:41:24Z</time>
</trkpt>
<trkpt lat="34.8900361" lon="32.9352967">
<ele>786.02</ele>
<time>2015-04-30T11:41:25Z</time>
</trkpt>
<trkpt lat="34.8899985" lon="32.9352371">
<ele>785.89</ele>
<time>2015-04-30T11:41:26Z</time>
</trkpt>
<trkpt lat="34.8899626" lon="32.9351855">
<ele>785.32</ele>
<time>2015-04-30T11:41:27Z</time>
</trkpt>
<trkpt lat="34.8899279" lon="32.9351238">
<ele>785.04</ele>
<time>2015-04-30T11:41:28Z</time>
</trkpt>
<trkpt lat="34.8898981" lon="32.9350616">
<ele>784.90</ele>
<time>2015-04-30T11:41:29Z</time>
</trkpt>
<trkpt lat="34.8898661" lon="32.9349971">
<ele>784.83</ele>
<time>2015-04-30T11:41:30Z</time>
</trkpt>
<trkpt lat="34.8898291" lon="32.9349325">
<ele>784.80</ele>
<time>2015-04-30T11:41:31Z</time>
</trkpt>
<trkpt lat="34.8897956" lon="32.9348631">
<ele>784.78</ele>
<time>2015-04-30T11:41:32Z</time>
</trkpt>
<trkpt lat="34.8897755" lon="32.9347945">
<ele>784.77</ele>
<time>2015-04-30T11:41:33Z</time>
</trkpt>
<trkpt lat="34.8897541" lon="32.9347165">
<ele>784.76</ele>
<time>2015-04-30T11:41:34Z</time>
</trkpt>
<trkpt lat="34.8897390" lon="32.9346327">
<ele>784.76</ele>
<time>2015-04-30T11:41:35Z</time>
</trkpt>
<trkpt lat="34.8897247" lon="32.9345450">
<ele>784.76</ele>
<time>2015-04-30T11:41:36Z</time>
</trkpt>
<trkpt lat="34.8897253" lon="32.9344613">
<ele>784.76</ele>
<time>2015-04-30T11:41:37Z</time>
</trkpt>
<trkpt lat="34.8897242" lon="32.9343691">
<ele>784.26</ele>
<time>2015-04-30T11:41:38Z</time>
</trkpt>
<trkpt lat="34.8897244" lon="32.9342730">
<ele>784.01</ele>
<time>2015-04-30T11:41:39Z</time>
</trkpt>
<trkpt lat="34.8897267" lon="32.9341713">
<ele>783.89</ele>
<time>2015-04-30T11:41:40Z</time>
</trkpt>
<trkpt lat="34.8897359" lon="32.9340727">
<ele>783.32</ele>
<time>2015-04-30T11:41:41Z</time>
</trkpt>
<trkpt lat="34.8897336" lon="32.9339685">
<ele>783.04</ele>
<time>2015-04-30T11:41:42Z</time>
</trkpt>
<trkpt lat="34.8897307" lon="32.9338614">
<ele>782.40</ele>
<time>2015-04-30T11:41:43Z</time>
</trkpt>
<trkpt lat="34.8897131" lon="32.9337603">
<ele>782.08</ele>
<time>2015-04-30T11:41:44Z</time>
</trkpt>
<trkpt lat="34.8896839" lon="32.9336671">
<ele>781.92</ele>
<time>2015-04-30T11:41:45Z</time>
</trkpt>
<trkpt lat="34.8896417" lon="32.9335790">
<ele>781.84</ele>
<time>2015-04-30T11:41:46Z</time>
</trkpt>
<trkpt lat="34.8895922" lon="32.9334884">
<ele>781.80</ele>
<time>2015-04-30T11:41:47Z</time>
</trkpt>
<trkpt lat="34.8895321" lon="32.9333938">
<ele>781.78</ele>
<time>2015-04-30T11:41:48Z</time>
</trkpt>
<trkpt lat="34.8894717" lon="32.9333086">
<ele>781.27</ele>
<time>2015-04-30T11:41:49Z</time>
</trkpt>
<trkpt lat="34.8894017" lon="32.9332249">
<ele>781.02</ele>
<time>2015-04-30T11:41:50Z</time>
</trkpt>
<trkpt lat="34.8893202" lon="32.9331439">
<ele>780.39</ele>
<time>2015-04-30T11:41:51Z</time>
</trkpt>
<trkpt lat="34.8892314" lon="32.9330659">
<ele>780.07</ele>
<time>2015-04-30T11:41:52Z</time>
</trkpt>
<trkpt lat="34.8891342" lon="32.9329967">
<ele>779.92</ele>
<time>2015-04-30T11:41:53Z</time>
</trkpt>
<trkpt lat="34.8890396" lon="32.9329318">
<ele>779.34</ele>
<time>2015-04-30T11:41:54Z</time>
</trkpt>
<trkpt lat="34.8889316" lon="32.9328565">
<ele>779.05</ele>
<time>2015-04-30T11:41:55Z</time>
</trkpt>
<trkpt lat="34.8888266" lon="32.9327808">
<ele>777.90</ele>
<time>2015-04-30T11:41:56Z</time>
</trkpt>
<trkpt lat="34.8887280" lon="32.9327073">
<ele>777.33</ele>
<time>2015-04-30T11:41:57Z</time>
</trkpt>
<trkpt lat="34.8886206" lon="32.9326377">
<ele>776.05</ele>
<time>2015-04-30T11:41:58Z</time>
</trkpt>
<trkpt lat="34.8885067" lon="32.9325856">
<ele>774.90</ele>
<time>2015-04-30T11:41:59Z</time>
</trkpt>
<trkpt lat="34.8883754" lon="32.9325555">
<ele>774.33</ele>
<time>2015-04-30T11:42:00Z</time>
</trkpt>
<trkpt lat="34.8882633" lon="32.9325374">
<ele>773.55</ele>
<time>2015-04-30T11:42:01Z</time>
</trkpt>
<trkpt lat="34.8881524" lon="32.9325247">
<ele>772.65</ele>
<time>2015-04-30T11:42:02Z</time>
</trkpt>
<trkpt lat="34.8880431" lon="32.9325142">
<ele>771.21</ele>
<time>2015-04-30T11:42:03Z</time>
</trkpt>
<trkpt lat="34.8879381" lon="32.9325049">
<ele>769.98</ele>
<time>2015-04-30T11:42:04Z</time>
</trkpt>
<trkpt lat="34.8878330" lon="32.9324886">
<ele>769.37</ele>
<time>2015-04-30T11:42:05Z</time>
</trkpt>
<trkpt lat="34.8877203" lon="32.9324644">
<ele>768.57</ele>
<time>2015-04-30T11:42:06Z</time>
</trkpt>
<trkpt lat="34.8876164" lon="32.9324323">
<ele>767.66</ele>
<time>2015-04-30T11:42:07Z</time>
</trkpt>
<trkpt lat="34.8874999" lon="32.9323839">
<ele>766.71</ele>
<time>2015-04-30T11:42:08Z</time>
</trkpt>
<trkpt lat="34.8873892" lon="32.9323360">
<ele>765.74</ele>
<time>2015-04-30T11:42:09Z</time>
</trkpt>
<trkpt lat="34.8872783" lon="32.9322823">
<ele>764.25</ele>
<time>2015-04-30T11:42:10Z</time>
</trkpt>
<trkpt lat="34.8871609" lon="32.9322150">
<ele>762.50</ele>
<time>2015-04-30T11:42:11Z</time>
</trkpt>
<trkpt lat="34.8870300" lon="32.9321440">
<ele>761.13</ele>
<time>2015-04-30T11:42:12Z</time>
</trkpt>
<trkpt lat="34.8869006" lon="32.9320828">
<ele>759.95</ele>
<time>2015-04-30T11:42:13Z</time>
</trkpt>
<trkpt lat="34.8867745" lon="32.9320276">
<ele>758.85</ele>
<time>2015-04-30T11:42:14Z</time>
</trkpt>
<trkpt lat="34.8866553" lon="32.9319697">
<ele>757.81</ele>
<time>2015-04-30T11:42:15Z</time>
</trkpt>
<trkpt lat="34.8865459" lon="32.9319089">
<ele>756.78</ele>
<time>2015-04-30T11:42:16Z</time>
</trkpt>
<trkpt lat="34.8864360" lon="32.9318555">
<ele>755.27</ele>
<time>2015-04-30T11:42:17Z</time>
</trkpt>
<trkpt lat="34.8863299" lon="32.9318104">
<ele>754.02</ele>
<time>2015-04-30T11:42:18Z</time>
</trkpt>
<trkpt lat="34.8862262" lon="32.9317558">
<ele>752.39</ele>
<time>2015-04-30T11:42:19Z</time>
</trkpt>
<trkpt lat="34.8861123" lon="32.9316922">
<ele>751.07</ele>
<time>2015-04-30T11:42:20Z</time>
</trkpt>
<trkpt lat="34.8860108" lon="32.9316312">
<ele>749.92</ele>
<time>2015-04-30T11:42:21Z</time>
</trkpt>
<trkpt lat="34.8859182" lon="32.9315716">
<ele>748.84</ele>
<time>2015-04-30T11:42:22Z</time>
</trkpt>
<trkpt lat="34.8858274" lon="32.9315138">
<ele>747.80</ele>
<time>2015-04-30T11:42:23Z</time>
</trkpt>
<trkpt lat="34.8857606" lon="32.9314382">
<ele>746.78</ele>
<time>2015-04-30T11:42:24Z</time>
</trkpt>
<trkpt lat="34.8857060" lon="32.9313459">
<ele>745.77</ele>
<time>2015-04-30T11:42:25Z</time>
</trkpt>
<trkpt lat="34.8856543" lon="32.9312435">
<ele>744.76</ele>
<time>2015-04-30T11:42:26Z</time>
</trkpt>
<trkpt lat="34.8856083" lon="32.9311318">
<ele>743.26</ele>
<time>2015-04-30T11:42:27Z</time>
</trkpt>
<trkpt lat="34.8855647" lon="32.9310100">
<ele>742.01</ele>
<time>2015-04-30T11:42:28Z</time>
</trkpt>
<trkpt lat="34.8855313" lon="32.9308830">
<ele>740.89</ele>
<time>2015-04-30T11:42:29Z</time>
</trkpt>
<trkpt lat="34.8855032" lon="32.9307572">
<ele>739.82</ele>
<time>2015-04-30T11:42:30Z</time>
</trkpt>
<trkpt lat="34.8854809" lon="32.9306286">
<ele>738.29</ele>
<time>2015-04-30T11:42:31Z</time>
</trkpt>
<trkpt lat="34.8854577" lon="32.9304913">
<ele>737.03</ele>
<time>2015-04-30T11:42:32Z</time>
</trkpt>
<trkpt lat="34.8854378" lon="32.9303640">
<ele>735.89</ele>
<time>2015-04-30T11:42:33Z</time>
</trkpt>
<trkpt lat="34.8854172" lon="32.9302315">
<ele>735.33</ele>
<time>2015-04-30T11:42:34Z</time>
</trkpt>
<trkpt lat="34.8853908" lon="32.9301012">
<ele>734.54</ele>
<time>2015-04-30T11:42:35Z</time>
</trkpt>
<trkpt lat="34.8853639" lon="32.9299683">
<ele>734.15</ele>
<time>2015-04-30T11:42:36Z</time>
</trkpt>
<trkpt lat="34.8853476" lon="32.9298413">
<ele>733.96</ele>
<time>2015-04-30T11:42:37Z</time>
</trkpt>
<trkpt lat="34.8853326" lon="32.9297110">
<ele>733.36</ele>
<time>2015-04-30T11:42:38Z</time>
</trkpt>
<trkpt lat="34.8853167" lon="32.9295830">
<ele>733.06</ele>
<time>2015-04-30T11:42:39Z</time>
</trkpt>
<trkpt lat="34.8853002" lon="32.9294520">
<ele>732.91</ele>
<time>2015-04-30T11:42:40Z</time>
</trkpt>
<trkpt lat="34.8852820" lon="32.9293311">
<ele>732.83</ele>
<time>2015-04-30T11:42:41Z</time>
</trkpt>
<trkpt lat="34.8852648" lon="32.9292063">
<ele>732.30</ele>
<time>2015-04-30T11:42:42Z</time>
</trkpt>
<trkpt lat="34.8852465" lon="32.9290880">
<ele>732.03</ele>
<time>2015-04-30T11:42:43Z</time>
</trkpt>
<trkpt lat="34.8852266" lon="32.9289684">
<ele>731.89</ele>
<time>2015-04-30T11:42:44Z</time>
</trkpt>
<trkpt lat="34.8852002" lon="32.9288564">
<ele>731.83</ele>
<time>2015-04-30T11:42:45Z</time>
</trkpt>
<trkpt lat="34.8851648" lon="32.9287450">
<ele>731.29</ele>
<time>2015-04-30T11:42:46Z</time>
</trkpt>
<trkpt lat="34.8851181" lon="32.9286381">
<ele>731.03</ele>
<time>2015-04-30T11:42:47Z</time>
</trkpt>
<trkpt lat="34.8850669" lon="32.9285377">
<ele>730.39</ele>
<time>2015-04-30T11:42:48Z</time>
</trkpt>
<trkpt lat="34.8850212" lon="32.9284408">
<ele>730.08</ele>
<time>2015-04-30T11:42:49Z</time>
</trkpt>
<trkpt lat="34.8849658" lon="32.9283450">
<ele>729.42</ele>
<time>2015-04-30T11:42:50Z</time>
</trkpt>
<trkpt lat="34.8849135" lon="32.9282542">
<ele>729.09</ele>
<time>2015-04-30T11:42:51Z</time>
</trkpt>
<trkpt lat="34.8848609" lon="32.9281486">
<ele>729.42</ele>
<time>2015-04-30T11:42:52Z</time>
</trkpt>
<trkpt lat="34.8848037" lon="32.9280638">
<ele>729.59</ele>
<time>2015-04-30T11:42:53Z</time>
</trkpt>
<trkpt lat="34.8847486" lon="32.9279705">
<ele>729.18</ele>
<time>2015-04-30T11:42:54Z</time>
</trkpt>
<trkpt lat="34.8846838" lon="32.9278854">
<ele>728.97</ele>
<time>2015-04-30T11:42:55Z</time>
</trkpt>
<trkpt lat="34.8846254" lon="32.9278011">
<ele>728.36</ele>
<time>2015-04-30T11:42:56Z</time>
</trkpt>
<trkpt lat="34.8845584" lon="32.9277290">
<ele>728.06</ele>
<time>2015-04-30T11:42:57Z</time>
</trkpt>
<trkpt lat="34.8844893" lon="32.9276604">
<ele>727.91</ele>
<time>2015-04-30T11:42:58Z</time>
</trkpt>
<trkpt lat="34.8844131" lon="32.9276042">
<ele>727.84</ele>
<time>2015-04-30T11:42:59Z</time>
</trkpt>
<trkpt lat="34.8843377" lon="32.9275590">
<ele>728.30</ele>
<time>2015-04-30T11:43:00Z</time>
</trkpt>
<trkpt lat="34.8842618" lon="32.9275187">
<ele>728.03</ele>
<time>2015-04-30T11:43:01Z</time>
</trkpt>
<trkpt lat="34.8841851" lon="32.9274910">
<ele>727.89</ele>
<time>2015-04-30T11:43:02Z</time>
</trkpt>
<trkpt lat="34.8841080" lon="32.9274609">
<ele>727.83</ele>
<time>2015-04-30T11:43:03Z</time>
</trkpt>
<trkpt lat="34.8840358" lon="32.9274272">
<ele>727.79</ele>
<time>2015-04-30T11:43:04Z</time>
</trkpt>
<trkpt lat="34.8839757" lon="32.9273881">
<ele>727.78</ele>
<time>2015-04-30T11:43:05Z</time>
</trkpt>
<trkpt lat="34.8839128" lon="32.9273465">
<ele>727.77</ele>
<time>2015-04-30T11:43:06Z</time>
</trkpt>
<trkpt lat="34.8838508" lon="32.9273049">
<ele>727.76</ele>
<time>2015-04-30T11:43:07Z</time>
</trkpt>
<trkpt lat="34.8837858" lon="32.9272610">
<ele>727.76</ele>
<time>2015-04-30T11:43:08Z</time>
</trkpt>
<trkpt lat="34.8837254" lon="32.9272201">
<ele>727.76</ele>
<time>2015-04-30T11:43:09Z</time>
</trkpt>
<trkpt lat="34.8836583" lon="32.9271767">
<ele>727.76</ele>
<time>2015-04-30T11:43:10Z</time>
</trkpt>
<trkpt lat="34.8835897" lon="32.9271373">
<ele>727.76</ele>
<time>2015-04-30T11:43:11Z</time>
</trkpt>
<trkpt lat="34.8835258" lon="32.9270989">
<ele>727.26</ele>
<time>2015-04-30T11:43:12Z</time>
</trkpt>
<trkpt lat="34.8834659" lon="32.9270730">
<ele>727.01</ele>
<time>2015-04-30T11:43:13Z</time>
</trkpt>
<trkpt lat="34.8833910" lon="32.9270495">
<ele>726.39</ele>
<time>2015-04-30T11:43:14Z</time>
</trkpt>
<trkpt lat="34.8833259" lon="32.9270327">
<ele>726.07</ele>
<time>2015-04-30T11:43:15Z</time>
</trkpt>
<trkpt lat="34.8832587" lon="32.9270223">
<ele>725.42</ele>
<time>2015-04-30T11:43:16Z</time>
</trkpt>
<trkpt lat="34.8831933" lon="32.9270148">
<ele>725.09</ele>
<time>2015-04-30T11:43:17Z</time>
</trkpt>
<trkpt lat="34.8831231" lon="32.9270100">
<ele>724.92</ele>
<time>2015-04-30T11:43:18Z</time>
</trkpt>
<trkpt lat="34.8830586" lon="32.9270176">
<ele>724.84</ele>
<time>2015-04-30T11:43:19Z</time>
</trkpt>
<trkpt lat="34.8829860" lon="32.9270180">
<ele>724.80</ele>
<time>2015-04-30T11:43:20Z</time>
</trkpt>
<trkpt lat="34.8829218" lon="32.9270136">
<ele>724.28</ele>
<time>2015-04-30T11:43:21Z</time>
</trkpt>
<trkpt lat="34.8828561" lon="32.9270194">
<ele>724.02</ele>
<time>2015-04-30T11:43:22Z</time>
</trkpt>
<trkpt lat="34.8827933" lon="32.9270306">
<ele>723.89</ele>
<time>2015-04-30T11:43:23Z</time>
</trkpt>
<trkpt lat="34.8827281" lon="32.9270310">
<ele>723.33</ele>
<time>2015-04-30T11:43:24Z</time>
</trkpt>
<trkpt lat="34.8826668" lon="32.9270336">
<ele>723.04</ele>
<time>2015-04-30T11:43:25Z</time>
</trkpt>
<trkpt lat="34.8826049" lon="32.9270304">
<ele>722.90</ele>
<time>2015-04-30T11:43:26Z</time>
</trkpt>
<trkpt lat="34.8825400" lon="32.9270273">
<ele>722.83</ele>
<time>2015-04-30T11:43:27Z</time>
</trkpt>
<trkpt lat="34.8824737" lon="32.9270191">
<ele>722.80</ele>
<time>2015-04-30T11:43:28Z</time>
</trkpt>
<trkpt lat="34.8824138" lon="32.9270054">
<ele>722.28</ele>
<time>2015-04-30T11:43:29Z</time>
</trkpt>
<trkpt lat="34.8823576" lon="32.9269882">
<ele>722.02</ele>
<time>2015-04-30T11:43:30Z</time>
</trkpt>
<trkpt lat="34.8823028" lon="32.9269701">
<ele>721.89</ele>
<time>2015-04-30T11:43:31Z</time>
</trkpt>
<trkpt lat="34.8822497" lon="32.9269525">
<ele>721.82</ele>
<time>2015-04-30T11:43:32Z</time>
</trkpt>
<trkpt lat="34.8822001" lon="32.9269328">
<ele>721.29</ele>
<time>2015-04-30T11:43:33Z</time>
</trkpt>
<trkpt lat="34.8821456" lon="32.9269108">
<ele>721.03</ele>
<time>2015-04-30T11:43:34Z</time>
</trkpt>
<trkpt lat="34.8820970" lon="32.9268861">
<ele>720.89</ele>
<time>2015-04-30T11:43:35Z</time>
</trkpt>
<trkpt lat="34.8820507" lon="32.9268585">
<ele>720.83</ele>
<time>2015-04-30T11:43:36Z</time>
</trkpt>
<trkpt lat="34.8820075" lon="32.9268323">
<ele>720.79</ele>
<time>2015-04-30T11:43:37Z</time>
</trkpt>
<trkpt lat="34.8819607" lon="32.9268079">
<ele>720.78</ele>
<time>2015-04-30T11:43:38Z</time>
</trkpt>
<trkpt lat="34.8819096" lon="32.9267810">
<ele>720.27</ele>
<time>2015-04-30T11:43:39Z</time>
</trkpt>
<trkpt lat="34.8818628" lon="32.9267552">
<ele>720.01</ele>
<time>2015-04-30T11:43:40Z</time>
</trkpt>
<trkpt lat="34.8818116" lon="32.9267340">
<ele>719.39</ele>
<time>2015-04-30T11:43:41Z</time>
</trkpt>
<trkpt lat="34.8817610" lon="32.9267127">
<ele>719.07</ele>
<time>2015-04-30T11:43:42Z</time>
</trkpt>
<trkpt lat="34.8817118" lon="32.9266984">
<ele>718.92</ele>
<time>2015-04-30T11:43:43Z</time>
</trkpt>
<trkpt lat="34.8816560" lon="32.9266938">
<ele>718.34</ele>
<time>2015-04-30T11:43:44Z</time>
</trkpt>
<trkpt lat="34.8815987" lon="32.9266895">
<ele>718.55</ele>
<time>2015-04-30T11:43:45Z</time>
</trkpt>
<trkpt lat="34.8815483" lon="32.9266812">
<ele>718.15</ele>
<time>2015-04-30T11:43:46Z</time>
</trkpt>
<trkpt lat="34.8814921" lon="32.9266820">
<ele>717.96</ele>
<time>2015-04-30T11:43:47Z</time>
</trkpt>
<trkpt lat="34.8814417" lon="32.9266842">
<ele>717.36</ele>
<time>2015-04-30T11:43:48Z</time>
</trkpt>
<trkpt lat="34.8813892" lon="32.9266857">
<ele>717.06</ele>
<time>2015-04-30T11:43:49Z</time>
</trkpt>
<trkpt lat="34.8813379" lon="32.9266844">
<ele>716.41</ele>
<time>2015-04-30T11:43:50Z</time>
</trkpt>
<trkpt lat="34.8812887" lon="32.9266858">
<ele>716.08</ele>
<time>2015-04-30T11:43:51Z</time>
</trkpt>
<trkpt lat="34.8812415" lon="32.9266785">
<ele>715.92</ele>
<time>2015-04-30T11:43:52Z</time>
</trkpt>
<trkpt lat="34.8811929" lon="32.9266757">
<ele>715.84</ele>
<time>2015-04-30T11:43:53Z</time>
</trkpt>
<trkpt lat="34.8811406" lon="32.9266697">
<ele>715.80</ele>
<time>2015-04-30T11:43:54Z</time>
</trkpt>
<trkpt lat="34.8810921" lon="32.9266692">
<ele>715.78</ele>
<time>2015-04-30T11:43:55Z</time>
</trkpt>
<trkpt lat="34.8810443" lon="32.9266646">
<ele>716.27</ele>
<time>2015-04-30T11:43:56Z</time>
</trkpt>
<trkpt lat="34.8809656" lon="32.9266465">
<ele>715.89</ele>
<time>2015-04-30T11:43:58Z</time>
</trkpt>
<trkpt lat="34.8809177" lon="32.9266310">
<ele>716.32</ele>
<time>2015-04-30T11:43:59Z</time>
</trkpt>
<trkpt lat="34.8808400" lon="32.9266064">
<ele>716.65</ele>
<time>2015-04-30T11:44:01Z</time>
</trkpt>
<trkpt lat="34.8807575" lon="32.9265638">
<ele>716.73</ele>
<time>2015-04-30T11:44:03Z</time>
</trkpt>
<trkpt lat="34.8807169" lon="32.9265383">
<ele>716.75</ele>
<time>2015-04-30T11:44:04Z</time>
</trkpt>
<trkpt lat="34.8806780" lon="32.9265061">
<ele>716.75</ele>
<time>2015-04-30T11:44:05Z</time>
</trkpt>
<trkpt lat="34.8806460" lon="32.9264646">
<ele>716.76</ele>
<time>2015-04-30T11:44:06Z</time>
</trkpt>
<trkpt lat="34.8806159" lon="32.9264122">
<ele>716.26</ele>
<time>2015-04-30T11:44:07Z</time>
</trkpt>
<trkpt lat="34.8805794" lon="32.9263582">
<ele>716.01</ele>
<time>2015-04-30T11:44:08Z</time>
</trkpt>
<trkpt lat="34.8805493" lon="32.9262973">
<ele>715.88</ele>
<time>2015-04-30T11:44:09Z</time>
</trkpt>
<trkpt lat="34.8805172" lon="32.9262422">
<ele>715.82</ele>
<time>2015-04-30T11:44:10Z</time>
</trkpt>
<trkpt lat="34.8804950" lon="32.9261862">
<ele>715.29</ele>
<time>2015-04-30T11:44:11Z</time>
</trkpt>
<trkpt lat="34.8804747" lon="32.9261334">
<ele>715.03</ele>
<time>2015-04-30T11:44:12Z</time>
</trkpt>
<trkpt lat="34.8804534" lon="32.9260442">
<ele>714.83</ele>
<time>2015-04-30T11:44:14Z</time>
</trkpt>
<trkpt lat="34.8804446" lon="32.9259383">
<ele>714.78</ele>
<time>2015-04-30T11:44:16Z</time>
</trkpt>
<trkpt lat="34.8804384" lon="32.9258774">
<ele>714.27</ele>
<time>2015-04-30T11:44:17Z</time>
</trkpt>
<trkpt lat="34.8804345" lon="32.9258173">
<ele>714.01</ele>
<time>2015-04-30T11:44:18Z</time>
</trkpt>
<trkpt lat="34.8804357" lon="32.9257546">
<ele>713.89</ele>
<time>2015-04-30T11:44:19Z</time>
</trkpt>
<trkpt lat="34.8804398" lon="32.9256776">
<ele>713.32</ele>
<time>2015-04-30T11:44:20Z</time>
</trkpt>
<trkpt lat="34.8804463" lon="32.9255961">
<ele>713.04</ele>
<time>2015-04-30T11:44:21Z</time>
</trkpt>
<trkpt lat="34.8804639" lon="32.9255076">
<ele>712.40</ele>
<time>2015-04-30T11:44:22Z</time>
</trkpt>
<trkpt lat="34.8804708" lon="32.9254066">
<ele>711.58</ele>
<time>2015-04-30T11:44:23Z</time>
</trkpt>
<trkpt lat="34.8804804" lon="32.9253020">
<ele>710.67</ele>
<time>2015-04-30T11:44:24Z</time>
</trkpt>
<trkpt lat="34.8804862" lon="32.9252042">
<ele>710.22</ele>
<time>2015-04-30T11:44:25Z</time>
</trkpt>
<trkpt lat="34.8804879" lon="32.9250961">
<ele>708.99</ele>
<time>2015-04-30T11:44:26Z</time>
</trkpt>
<trkpt lat="34.8804770" lon="32.9249885">
<ele>708.37</ele>
<time>2015-04-30T11:44:27Z</time>
</trkpt>
<trkpt lat="34.8804534" lon="32.9248748">
<ele>707.57</ele>
<time>2015-04-30T11:44:28Z</time>
</trkpt>
<trkpt lat="34.8804293" lon="32.9247674">
<ele>707.16</ele>
<time>2015-04-30T11:44:29Z</time>
</trkpt>
<trkpt lat="34.8803908" lon="32.9246559">
<ele>706.96</ele>
<time>2015-04-30T11:44:30Z</time>
</trkpt>
<trkpt lat="34.8803501" lon="32.9245494">
<ele>706.36</ele>
<time>2015-04-30T11:44:31Z</time>
</trkpt>
<trkpt lat="34.8802925" lon="32.9244499">
<ele>705.56</ele>
<time>2015-04-30T11:44:32Z</time>
</trkpt>
<trkpt lat="34.8802298" lon="32.9243563">
<ele>705.16</ele>
<time>2015-04-30T11:44:33Z</time>
</trkpt>
<trkpt lat="34.8801522" lon="32.9242755">
<ele>704.96</ele>
<time>2015-04-30T11:44:34Z</time>
</trkpt>
<trkpt lat="34.8800661" lon="32.9242048">
<ele>704.86</ele>
<time>2015-04-30T11:44:35Z</time>
</trkpt>
<trkpt lat="34.8799708" lon="32.9241406">
<ele>704.31</ele>
<time>2015-04-30T11:44:36Z</time>
</trkpt>
<trkpt lat="34.8798762" lon="32.9240891">
<ele>704.04</ele>
<time>2015-04-30T11:44:37Z</time>
</trkpt>
<trkpt lat="34.8797827" lon="32.9240379">
<ele>703.90</ele>
<time>2015-04-30T11:44:38Z</time>
</trkpt>
<trkpt lat="34.8796914" lon="32.9239880">
<ele>704.33</ele>
<time>2015-04-30T11:44:39Z</time>
</trkpt>
<trkpt lat="34.8795964" lon="32.9239411">
<ele>704.54</ele>
<time>2015-04-30T11:44:40Z</time>
</trkpt>
<trkpt lat="34.8795079" lon="32.9238936">
<ele>704.65</ele>
<time>2015-04-30T11:44:41Z</time>
</trkpt>
<trkpt lat="34.8794242" lon="32.9238443">
<ele>704.71</ele>
<time>2015-04-30T11:44:42Z</time>
</trkpt>
<trkpt lat="34.8793337" lon="32.9237942">
<ele>704.73</ele>
<time>2015-04-30T11:44:43Z</time>
</trkpt>
<trkpt lat="34.8792481" lon="32.9237473">
<ele>704.25</ele>
<time>2015-04-30T11:44:44Z</time>
</trkpt>
<trkpt lat="34.8791639" lon="32.9237022">
<ele>704.00</ele>
<time>2015-04-30T11:44:45Z</time>
</trkpt>
<trkpt lat="34.8790746" lon="32.9236556">
<ele>703.88</ele>
<time>2015-04-30T11:44:46Z</time>
</trkpt>
<trkpt lat="34.8789892" lon="32.9236114">
<ele>703.82</ele>
<time>2015-04-30T11:44:47Z</time>
</trkpt>
<trkpt lat="34.8788961" lon="32.9235642">
<ele>703.79</ele>
<time>2015-04-30T11:44:48Z</time>
</trkpt>
<trkpt lat="34.8788095" lon="32.9235212">
<ele>703.28</ele>
<time>2015-04-30T11:44:49Z</time>
</trkpt>
<trkpt lat="34.8787202" lon="32.9234692">
<ele>703.52</ele>
<time>2015-04-30T11:44:50Z</time>
</trkpt>
<trkpt lat="34.8786337" lon="32.9234223">
<ele>703.64</ele>
<time>2015-04-30T11:44:51Z</time>
</trkpt>
<trkpt lat="34.8785422" lon="32.9233758">
<ele>703.70</ele>
<time>2015-04-30T11:44:52Z</time>
</trkpt>
<trkpt lat="34.8784626" lon="32.9233297">
<ele>703.23</ele>
<time>2015-04-30T11:44:53Z</time>
</trkpt>
<trkpt lat="34.8783727" lon="32.9232848">
<ele>702.99</ele>
<time>2015-04-30T11:44:54Z</time>
</trkpt>
<trkpt lat="34.8782841" lon="32.9232353">
<ele>702.38</ele>
<time>2015-04-30T11:44:55Z</time>
</trkpt>
<trkpt lat="34.8781904" lon="32.9231811">
<ele>702.57</ele>
<time>2015-04-30T11:44:56Z</time>
</trkpt>
<trkpt lat="34.8781024" lon="32.9231192">
<ele>702.16</ele>
<time>2015-04-30T11:44:57Z</time>
</trkpt>
<trkpt lat="34.8780114" lon="32.9230607">
<ele>701.96</ele>
<time>2015-04-30T11:44:58Z</time>
</trkpt>
<trkpt lat="34.8779172" lon="32.9229962">
<ele>701.86</ele>
<time>2015-04-30T11:44:59Z</time>
</trkpt>
<trkpt lat="34.8778245" lon="32.9229230">
<ele>701.81</ele>
<time>2015-04-30T11:45:00Z</time>
</trkpt>
<trkpt lat="34.8777400" lon="32.9228479">
<ele>701.29</ele>
<time>2015-04-30T11:45:01Z</time>
</trkpt>
<trkpt lat="34.8776485" lon="32.9227696">
<ele>701.02</ele>
<time>2015-04-30T11:45:02Z</time>
</trkpt>
<trkpt lat="34.8775544" lon="32.9226860">
<ele>700.89</ele>
<time>2015-04-30T11:45:03Z</time>
</trkpt>
<trkpt lat="34.8774556" lon="32.9225997">
<ele>700.33</ele>
<time>2015-04-30T11:45:04Z</time>
</trkpt>
<trkpt lat="34.8773623" lon="32.9225130">
<ele>699.54</ele>
<time>2015-04-30T11:45:05Z</time>
</trkpt>
<trkpt lat="34.8772727" lon="32.9224208">
<ele>699.15</ele>
<time>2015-04-30T11:45:06Z</time>
</trkpt>
<trkpt lat="34.8771821" lon="32.9223170">
<ele>698.46</ele>
<time>2015-04-30T11:45:07Z</time>
</trkpt>
<trkpt lat="34.8770895" lon="32.9222073">
<ele>697.61</ele>
<time>2015-04-30T11:45:08Z</time>
</trkpt>
<trkpt lat="34.8770068" lon="32.9220976">
<ele>697.18</ele>
<time>2015-04-30T11:45:09Z</time>
</trkpt>
<trkpt lat="34.8769185" lon="32.9219776">
<ele>696.47</ele>
<time>2015-04-30T11:45:10Z</time>
</trkpt>
<trkpt lat="34.8768358" lon="32.9218599">
<ele>696.12</ele>
<time>2015-04-30T11:45:11Z</time>
</trkpt>
<trkpt lat="34.8767543" lon="32.9217340">
<ele>695.44</ele>
<time>2015-04-30T11:45:12Z</time>
</trkpt>
<trkpt lat="34.8766766" lon="32.9216094">
<ele>694.60</ele>
<time>2015-04-30T11:45:13Z</time>
</trkpt>
<trkpt lat="34.8765977" lon="32.9214771">
<ele>693.68</ele>
<time>2015-04-30T11:45:14Z</time>
</trkpt>
<trkpt lat="34.8765181" lon="32.9213389">
<ele>692.72</ele>
<time>2015-04-30T11:45:15Z</time>
</trkpt>
<trkpt lat="34.8764348" lon="32.9211989">
<ele>691.74</ele>
<time>2015-04-30T11:45:16Z</time>
</trkpt>
<trkpt lat="34.8763567" lon="32.9210654">
<ele>690.75</ele>
<time>2015-04-30T11:45:17Z</time>
</trkpt>
<trkpt lat="34.8762796" lon="32.9209307">
<ele>689.75</ele>
<time>2015-04-30T11:45:18Z</time>
</trkpt>
<trkpt lat="34.8761971" lon="32.9208021">
<ele>689.26</ele>
<time>2015-04-30T11:45:19Z</time>
</trkpt>
<trkpt lat="34.8761140" lon="32.9206675">
<ele>689.01</ele>
<time>2015-04-30T11:45:20Z</time>
</trkpt>
<trkpt lat="34.8760329" lon="32.9205445">
<ele>688.88</ele>
<time>2015-04-30T11:45:21Z</time>
</trkpt>
<trkpt lat="34.8759520" lon="32.9204192">
<ele>688.32</ele>
<time>2015-04-30T11:45:22Z</time>
</trkpt>
<trkpt lat="34.8758626" lon="32.9203038">
<ele>687.54</ele>
<time>2015-04-30T11:45:23Z</time>
</trkpt>
<trkpt lat="34.8757635" lon="32.9201815">
<ele>687.15</ele>
<time>2015-04-30T11:45:24Z</time>
</trkpt>
<trkpt lat="34.8756701" lon="32.9200799">
<ele>686.46</ele>
<time>2015-04-30T11:45:25Z</time>
</trkpt>
<trkpt lat="34.8755730" lon="32.9199836">
<ele>686.11</ele>
<time>2015-04-30T11:45:26Z</time>
</trkpt>
<trkpt lat="34.8754809" lon="32.9198924">
<ele>685.93</ele>
<time>2015-04-30T11:45:27Z</time>
</trkpt>
<trkpt lat="34.8753822" lon="32.9198037">
<ele>685.85</ele>
<time>2015-04-30T11:45:28Z</time>
</trkpt>
<trkpt lat="34.8752921" lon="32.9197192">
<ele>685.80</ele>
<time>2015-04-30T11:45:29Z</time>
</trkpt>
<trkpt lat="34.8751984" lon="32.9196355">
<ele>685.78</ele>
<time>2015-04-30T11:45:30Z</time>
</trkpt>
<trkpt lat="34.8751107" lon="32.9195488">
<ele>685.27</ele>
<time>2015-04-30T11:45:31Z</time>
</trkpt>
<trkpt lat="34.8750162" lon="32.9194631">
<ele>685.02</ele>
<time>2015-04-30T11:45:32Z</time>
</trkpt>
<trkpt lat="34.8749270" lon="32.9193820">
<ele>684.89</ele>
<time>2015-04-30T11:45:33Z</time>
</trkpt>
<trkpt lat="34.8748481" lon="32.9193034">
<ele>684.32</ele>
<time>2015-04-30T11:45:34Z</time>
</trkpt>
<trkpt lat="34.8747716" lon="32.9192291">
<ele>684.04</ele>
<time>2015-04-30T11:45:35Z</time>
</trkpt>
<trkpt lat="34.8746897" lon="32.9191518">
<ele>683.90</ele>
<time>2015-04-30T11:45:36Z</time>
</trkpt>
<trkpt lat="34.8746177" lon="32.9190826">
<ele>683.33</ele>
<time>2015-04-30T11:45:37Z</time>
</trkpt>
<trkpt lat="34.8745410" lon="32.9190129">
<ele>683.05</ele>
<time>2015-04-30T11:45:38Z</time>
</trkpt>
<trkpt lat="34.8744699" lon="32.9189448">
<ele>682.90</ele>
<time>2015-04-30T11:45:39Z</time>
</trkpt>
<trkpt lat="34.8743852" lon="32.9188748">
<ele>682.33</ele>
<time>2015-04-30T11:45:40Z</time>
</trkpt>
<trkpt lat="34.8743098" lon="32.9188187">
<ele>682.05</ele>
<time>2015-04-30T11:45:41Z</time>
</trkpt>
<trkpt lat="34.8742345" lon="32.9187698">
<ele>681.40</ele>
<time>2015-04-30T11:45:42Z</time>
</trkpt>
<trkpt lat="34.8741498" lon="32.9187333">
<ele>681.08</ele>
<time>2015-04-30T11:45:43Z</time>
</trkpt>
<trkpt lat="34.8740701" lon="32.9186912">
<ele>680.42</ele>
<time>2015-04-30T11:45:44Z</time>
</trkpt>
<trkpt lat="34.8739880" lon="32.9186658">
<ele>680.09</ele>
<time>2015-04-30T11:45:45Z</time>
</trkpt>
<trkpt lat="34.8739001" lon="32.9186431">
<ele>678.93</ele>
<time>2015-04-30T11:45:46Z</time>
</trkpt>
<trkpt lat="34.8738152" lon="32.9186319">
<ele>677.84</ele>
<time>2015-04-30T11:45:47Z</time>
</trkpt>
<trkpt lat="34.8737315" lon="32.9186295">
<ele>677.30</ele>
<time>2015-04-30T11:45:48Z</time>
</trkpt>
<trkpt lat="34.8736622" lon="32.9186354">
<ele>676.53</ele>
<time>2015-04-30T11:45:49Z</time>
</trkpt>
<trkpt lat="34.8735924" lon="32.9186376">
<ele>676.15</ele>
<time>2015-04-30T11:45:50Z</time>
</trkpt>
<trkpt lat="34.8735345" lon="32.9186467">
<ele>675.95</ele>
<time>2015-04-30T11:45:51Z</time>
</trkpt>
<trkpt lat="34.8734868" lon="32.9186591">
<ele>675.86</ele>
<time>2015-04-30T11:45:52Z</time>
</trkpt>
<trkpt lat="34.8734055" lon="32.9186819">
<ele>675.03</ele>
<time>2015-04-30T11:45:54Z</time>
</trkpt>
<trkpt lat="34.8733377" lon="32.9186924">
<ele>674.83</ele>
<time>2015-04-30T11:45:56Z</time>
</trkpt>
<trkpt lat="34.8732788" lon="32.9187027">
<ele>674.78</ele>
<time>2015-04-30T11:45:58Z</time>
</trkpt>
<trkpt lat="34.8732138" lon="32.9187165">
<ele>674.01</ele>
<time>2015-04-30T11:46:00Z</time>
</trkpt>
<trkpt lat="34.8731508" lon="32.9187368">
<ele>673.07</ele>
<time>2015-04-30T11:46:02Z</time>
</trkpt>
<trkpt lat="34.8730885" lon="32.9187460">
<ele>672.09</ele>
<time>2015-04-30T11:46:04Z</time>
</trkpt>
<trkpt lat="34.8730260" lon="32.9187535">
<ele>670.59</ele>
<time>2015-04-30T11:46:06Z</time>
</trkpt>
<trkpt lat="34.8729738" lon="32.9187606">
<ele>669.47</ele>
<time>2015-04-30T11:46:08Z</time>
</trkpt>
<trkpt lat="34.8730132" lon="32.9187923">
<ele>666.76</ele>
<time>2015-04-30T11:46:22Z</time>
</trkpt>
<trkpt lat="34.8729539" lon="32.9188064">
<ele>662.35</ele>
<time>2015-04-30T11:47:22Z</time>
</trkpt>
<trkpt lat="34.8729047" lon="32.9188231">
<ele>661.91</ele>
<time>2015-04-30T11:47:24Z</time>
</trkpt>
<trkpt lat="34.8728547" lon="32.9188393">
<ele>661.80</ele>
<time>2015-04-30T11:47:26Z</time>
</trkpt>
<trkpt lat="34.8728007" lon="32.9188360">
<ele>662.27</ele>
<time>2015-04-30T11:47:28Z</time>
</trkpt>
<trkpt lat="34.8727460" lon="32.9188225">
<ele>662.14</ele>
<time>2015-04-30T11:47:30Z</time>
</trkpt>
<trkpt lat="34.8726745" lon="32.9188171">
<ele>662.10</ele>
<time>2015-04-30T11:47:32Z</time>
</trkpt>
<trkpt lat="34.8725829" lon="32.9188316">
<ele>661.85</ele>
<time>2015-04-30T11:47:34Z</time>
</trkpt>
<trkpt lat="34.8725190" lon="32.9188422">
<ele>661.80</ele>
<time>2015-04-30T11:47:35Z</time>
</trkpt>
<trkpt lat="34.8724706" lon="32.9188462">
<ele>661.78</ele>
<time>2015-04-30T11:47:36Z</time>
</trkpt>
<trkpt lat="34.8724195" lon="32.9188475">
<ele>661.77</ele>
<time>2015-04-30T11:47:37Z</time>
</trkpt>
<trkpt lat="34.8723563" lon="32.9188535">
<ele>661.27</ele>
<time>2015-04-30T11:47:38Z</time>
</trkpt>
<trkpt lat="34.8723023" lon="32.9188601">
<ele>661.51</ele>
<time>2015-04-30T11:47:39Z</time>
</trkpt>
<trkpt lat="34.8722442" lon="32.9188637">
<ele>660.64</ele>
<time>2015-04-30T11:47:40Z</time>
</trkpt>
<trkpt lat="34.8721796" lon="32.9188583">
<ele>660.20</ele>
<time>2015-04-30T11:47:41Z</time>
</trkpt>
<trkpt lat="34.8721193" lon="32.9188506">
<ele>660.48</ele>
<time>2015-04-30T11:47:42Z</time>
</trkpt>
<trkpt lat="34.8720570" lon="32.9188289">
<ele>660.62</ele>
<time>2015-04-30T11:47:43Z</time>
</trkpt>
<trkpt lat="34.8719872" lon="32.9187992">
<ele>660.69</ele>
<time>2015-04-30T11:47:44Z</time>
</trkpt>
<trkpt lat="34.8719276" lon="32.9187628">
<ele>660.22</ele>
<time>2015-04-30T11:47:45Z</time>
</trkpt>
<trkpt lat="34.8718567" lon="32.9187258">
<ele>659.99</ele>
<time>2015-04-30T11:47:46Z</time>
</trkpt>
<trkpt lat="34.8717847" lon="32.9186932">
<ele>659.88</ele>
<time>2015-04-30T11:47:47Z</time>
</trkpt>
<trkpt lat="34.8717131" lon="32.9186640">
<ele>659.82</ele>
<time>2015-04-30T11:47:48Z</time>
</trkpt>
<trkpt lat="34.8716304" lon="32.9186347">
<ele>659.79</ele>
<time>2015-04-30T11:47:49Z</time>
</trkpt>
<trkpt lat="34.8715533" lon="32.9186060">
<ele>659.77</ele>
<time>2015-04-30T11:47:50Z</time>
</trkpt>
<trkpt lat="34.8714727" lon="32.9185785">
<ele>659.77</ele>
<time>2015-04-30T11:47:51Z</time>
</trkpt>
<trkpt lat="34.8713918" lon="32.9185539">
<ele>659.76</ele>
<time>2015-04-30T11:47:52Z</time>
</trkpt>
<trkpt lat="34.8712947" lon="32.9185348">
<ele>659.76</ele>
<time>2015-04-30T11:47:53Z</time>
</trkpt>
<trkpt lat="34.8712051" lon="32.9185141">
<ele>660.26</ele>
<time>2015-04-30T11:47:54Z</time>
</trkpt>
<trkpt lat="34.8711064" lon="32.9184921">
<ele>660.51</ele>
<time>2015-04-30T11:47:55Z</time>
</trkpt>
<trkpt lat="34.8710146" lon="32.9184591">
<ele>661.14</ele>
<time>2015-04-30T11:47:56Z</time>
</trkpt>
<trkpt lat="34.8709376" lon="32.9184231">
<ele>660.95</ele>
<time>2015-04-30T11:47:57Z</time>
</trkpt>
<trkpt lat="34.8708547" lon="32.9183858">
<ele>660.85</ele>
<time>2015-04-30T11:47:58Z</time>
</trkpt>
<trkpt lat="34.8707804" lon="32.9183309">
<ele>660.31</ele>
<time>2015-04-30T11:47:59Z</time>
</trkpt>
<trkpt lat="34.8707097" lon="32.9182684">
<ele>659.53</ele>
<time>2015-04-30T11:48:00Z</time>
</trkpt>
<trkpt lat="34.8706365" lon="32.9182065">
<ele>658.65</ele>
<time>2015-04-30T11:48:01Z</time>
</trkpt>
<trkpt lat="34.8705578" lon="32.9181430">
<ele>658.20</ele>
<time>2015-04-30T11:48:02Z</time>
</trkpt>
<trkpt lat="34.8704806" lon="32.9180732">
<ele>657.98</ele>
<time>2015-04-30T11:48:03Z</time>
</trkpt>
<trkpt lat="34.8703981" lon="32.9180015">
<ele>657.37</ele>
<time>2015-04-30T11:48:04Z</time>
</trkpt>
<trkpt lat="34.8703296" lon="32.9179317">
<ele>657.07</ele>
<time>2015-04-30T11:48:05Z</time>
</trkpt>
<trkpt lat="34.8702704" lon="32.9178641">
<ele>656.41</ele>
<time>2015-04-30T11:48:06Z</time>
</trkpt>
<trkpt lat="34.8702069" lon="32.9178005">
<ele>656.09</ele>
<time>2015-04-30T11:48:07Z</time>
</trkpt>
<trkpt lat="34.8701529" lon="32.9177401">
<ele>655.42</ele>
<time>2015-04-30T11:48:08Z</time>
</trkpt>
<trkpt lat="34.8701039" lon="32.9176853">
<ele>654.59</ele>
<time>2015-04-30T11:48:09Z</time>
</trkpt>
<trkpt lat="34.8700632" lon="32.9176406">
<ele>654.18</ele>
<time>2015-04-30T11:48:10Z</time>
</trkpt>
<trkpt lat="34.8700192" lon="32.9176018">
<ele>653.97</ele>
<time>2015-04-30T11:48:11Z</time>
</trkpt>
<trkpt lat="34.8699513" lon="32.9175657">
<ele>653.81</ele>
<time>2015-04-30T11:48:13Z</time>
</trkpt>
<trkpt lat="34.8699009" lon="32.9175380">
<ele>653.77</ele>
<time>2015-04-30T11:48:15Z</time>
</trkpt>
<trkpt lat="34.8698297" lon="32.9174963">
<ele>652.89</ele>
<time>2015-04-30T11:48:18Z</time>
</trkpt>
<trkpt lat="34.8697349" lon="32.9174898">
<ele>651.54</ele>
<time>2015-04-30T11:48:20Z</time>
</trkpt>
<trkpt lat="34.8696822" lon="32.9174786">
<ele>651.15</ele>
<time>2015-04-30T11:48:21Z</time>
</trkpt>
<trkpt lat="34.8696268" lon="32.9174628">
<ele>650.96</ele>
<time>2015-04-30T11:48:22Z</time>
</trkpt>
<trkpt lat="34.8695656" lon="32.9174527">
<ele>650.86</ele>
<time>2015-04-30T11:48:23Z</time>
</trkpt>
<trkpt lat="34.8695062" lon="32.9174320">
<ele>650.81</ele>
<time>2015-04-30T11:48:24Z</time>
</trkpt>
<trkpt lat="34.8694457" lon="32.9174111">
<ele>651.28</ele>
<time>2015-04-30T11:48:25Z</time>
</trkpt>
<trkpt lat="34.8693836" lon="32.9173856">
<ele>651.52</ele>
<time>2015-04-30T11:48:26Z</time>
</trkpt>
<trkpt lat="34.8693218" lon="32.9173580">
<ele>651.64</ele>
<time>2015-04-30T11:48:27Z</time>
</trkpt>
<trkpt lat="34.8692590" lon="32.9173291">
<ele>651.70</ele>
<time>2015-04-30T11:48:28Z</time>
</trkpt>
<trkpt lat="34.8692042" lon="32.9172976">
<ele>650.73</ele>
<time>2015-04-30T11:48:29Z</time>
</trkpt>
<trkpt lat="34.8691399" lon="32.9172645">
<ele>649.75</ele>
<time>2015-04-30T11:48:30Z</time>
</trkpt>
<trkpt lat="34.8690713" lon="32.9172430">
<ele>649.25</ele>
<time>2015-04-30T11:48:31Z</time>
</trkpt>
<trkpt lat="34.8690056" lon="32.9172184">
<ele>648.51</ele>
<time>2015-04-30T11:48:32Z</time>
</trkpt>
<trkpt lat="34.8689361" lon="32.9171900">
<ele>648.13</ele>
<time>2015-04-30T11:48:33Z</time>
</trkpt>
<trkpt lat="34.8688674" lon="32.9171599">
<ele>647.95</ele>
<time>2015-04-30T11:48:34Z</time>
</trkpt>
<trkpt lat="34.8687861" lon="32.9171342">
<ele>647.35</ele>
<time>2015-04-30T11:48:35Z</time>
</trkpt>
<trkpt lat="34.8687092" lon="32.9170974">
<ele>647.06</ele>
<time>2015-04-30T11:48:36Z</time>
</trkpt>
<trkpt lat="34.8686363" lon="32.9170571">
<ele>646.41</ele>
<time>2015-04-30T11:48:37Z</time>
</trkpt>
<trkpt lat="34.8685646" lon="32.9170095">
<ele>646.08</ele>
<time>2015-04-30T11:48:38Z</time>
</trkpt>
<trkpt lat="34.8685011" lon="32.9169589">
<ele>645.92</ele>
<time>2015-04-30T11:48:39Z</time>
</trkpt>
<trkpt lat="34.8684412" lon="32.9169071">
<ele>645.34</ele>
<time>2015-04-30T11:48:40Z</time>
</trkpt>
<trkpt lat="34.8683919" lon="32.9168537">
<ele>645.05</ele>
<time>2015-04-30T11:48:41Z</time>
</trkpt>
<trkpt lat="34.8683482" lon="32.9167802">
<ele>644.41</ele>
<time>2015-04-30T11:48:42Z</time>
</trkpt>
<trkpt lat="34.8683096" lon="32.9167049">
<ele>643.58</ele>
<time>2015-04-30T11:48:43Z</time>
</trkpt>
<trkpt lat="34.8682660" lon="32.9166209">
<ele>643.17</ele>
<time>2015-04-30T11:48:44Z</time>
</trkpt>
<trkpt lat="34.8682344" lon="32.9165460">
<ele>642.47</ele>
<time>2015-04-30T11:48:45Z</time>
</trkpt>
<trkpt lat="34.8681957" lon="32.9164576">
<ele>641.61</ele>
<time>2015-04-30T11:48:46Z</time>
</trkpt>
<trkpt lat="34.8681442" lon="32.9163960">
<ele>640.19</ele>
<time>2015-04-30T11:48:47Z</time>
</trkpt>
<trkpt lat="34.8680864" lon="32.9163237">
<ele>639.47</ele>
<time>2015-04-30T11:48:48Z</time>
</trkpt>
<trkpt lat="34.8680358" lon="32.9162588">
<ele>639.12</ele>
<time>2015-04-30T11:48:49Z</time>
</trkpt>
<trkpt lat="34.8679768" lon="32.9162094">
<ele>638.44</ele>
<time>2015-04-30T11:48:50Z</time>
</trkpt>
<trkpt lat="34.8679048" lon="32.9161696">
<ele>638.10</ele>
<time>2015-04-30T11:48:51Z</time>
</trkpt>
<trkpt lat="34.8678374" lon="32.9161104">
<ele>637.93</ele>
<time>2015-04-30T11:48:52Z</time>
</trkpt>
<trkpt lat="34.8677742" lon="32.9160584">
<ele>637.34</ele>
<time>2015-04-30T11:48:53Z</time>
</trkpt>
<trkpt lat="34.8676993" lon="32.9160005">
<ele>637.55</ele>
<time>2015-04-30T11:48:54Z</time>
</trkpt>
<trkpt lat="34.8676144" lon="32.9159434">
<ele>638.16</ele>
<time>2015-04-30T11:48:55Z</time>
</trkpt>
<trkpt lat="34.8675280" lon="32.9158878">
<ele>638.46</ele>
<time>2015-04-30T11:48:56Z</time>
</trkpt>
<trkpt lat="34.8674589" lon="32.9158347">
<ele>638.61</ele>
<time>2015-04-30T11:48:57Z</time>
</trkpt>
<trkpt lat="34.8673883" lon="32.9157833">
<ele>638.68</ele>
<time>2015-04-30T11:48:58Z</time>
</trkpt>
<trkpt lat="34.8673075" lon="32.9157353">
<ele>638.22</ele>
<time>2015-04-30T11:48:59Z</time>
</trkpt>
<trkpt lat="34.8672185" lon="32.9156966">
<ele>637.99</ele>
<time>2015-04-30T11:49:00Z</time>
</trkpt>
<trkpt lat="34.8671377" lon="32.9156592">
<ele>637.88</ele>
<time>2015-04-30T11:49:01Z</time>
</trkpt>
<trkpt lat="34.8670612" lon="32.9156172">
<ele>637.32</ele>
<time>2015-04-30T11:49:02Z</time>
</trkpt>
<trkpt lat="34.8669916" lon="32.9155637">
<ele>637.04</ele>
<time>2015-04-30T11:49:03Z</time>
</trkpt>
<trkpt lat="34.8669184" lon="32.9155111">
<ele>636.90</ele>
<time>2015-04-30T11:49:04Z</time>
</trkpt>
<trkpt lat="34.8668572" lon="32.9154516">
<ele>636.33</ele>
<time>2015-04-30T11:49:05Z</time>
</trkpt>
<trkpt lat="34.8667958" lon="32.9153948">
<ele>636.04</ele>
<time>2015-04-30T11:49:06Z</time>
</trkpt>
<trkpt lat="34.8667362" lon="32.9153399">
<ele>635.90</ele>
<time>2015-04-30T11:49:07Z</time>
</trkpt>
<trkpt lat="34.8666723" lon="32.9152840">
<ele>635.83</ele>
<time>2015-04-30T11:49:08Z</time>
</trkpt>
<trkpt lat="34.8666004" lon="32.9152280">
<ele>635.30</ele>
<time>2015-04-30T11:49:09Z</time>
</trkpt>
<trkpt lat="34.8665352" lon="32.9151594">
<ele>635.03</ele>
<time>2015-04-30T11:49:10Z</time>
</trkpt>
<trkpt lat="34.8664772" lon="32.9150889">
<ele>634.39</ele>
<time>2015-04-30T11:49:11Z</time>
</trkpt>
<trkpt lat="34.8664167" lon="32.9150179">
<ele>633.58</ele>
<time>2015-04-30T11:49:12Z</time>
</trkpt>
<trkpt lat="34.8663689" lon="32.9149435">
<ele>632.67</ele>
<time>2015-04-30T11:49:13Z</time>
</trkpt>
<trkpt lat="34.8663109" lon="32.9148669">
<ele>632.21</ele>
<time>2015-04-30T11:49:14Z</time>
</trkpt>
<trkpt lat="34.8662574" lon="32.9147892">
<ele>631.49</ele>
<time>2015-04-30T11:49:15Z</time>
</trkpt>
<trkpt lat="34.8661983" lon="32.9147212">
<ele>631.62</ele>
<time>2015-04-30T11:49:16Z</time>
</trkpt>
<trkpt lat="34.8661444" lon="32.9146567">
<ele>631.19</ele>
<time>2015-04-30T11:49:17Z</time>
</trkpt>
<trkpt lat="34.8660922" lon="32.9145871">
<ele>630.98</ele>
<time>2015-04-30T11:49:18Z</time>
</trkpt>
<trkpt lat="34.8660407" lon="32.9145164">
<ele>630.37</ele>
<time>2015-04-30T11:49:19Z</time>
</trkpt>
<trkpt lat="34.8659831" lon="32.9144509">
<ele>630.06</ele>
<time>2015-04-30T11:49:20Z</time>
</trkpt>
<trkpt lat="34.8659285" lon="32.9143980">
<ele>629.91</ele>
<time>2015-04-30T11:49:21Z</time>
</trkpt>
<trkpt lat="34.8658784" lon="32.9143443">
<ele>629.84</ele>
<time>2015-04-30T11:49:22Z</time>
</trkpt>
<trkpt lat="34.8658230" lon="32.9142950">
<ele>630.30</ele>
<time>2015-04-30T11:49:23Z</time>
</trkpt>
<trkpt lat="34.8657661" lon="32.9142327">
<ele>630.03</ele>
<time>2015-04-30T11:49:24Z</time>
</trkpt>
<trkpt lat="34.8657194" lon="32.9141810">
<ele>629.89</ele>
<time>2015-04-30T11:49:25Z</time>
</trkpt>
<trkpt lat="34.8656649" lon="32.9141307">
<ele>629.83</ele>
<time>2015-04-30T11:49:26Z</time>
</trkpt>
<trkpt lat="34.8656030" lon="32.9140821">
<ele>629.29</ele>
<time>2015-04-30T11:49:27Z</time>
</trkpt>
<trkpt lat="34.8655459" lon="32.9140316">
<ele>629.03</ele>
<time>2015-04-30T11:49:28Z</time>
</trkpt>
<trkpt lat="34.8655000" lon="32.9139744">
<ele>628.89</ele>
<time>2015-04-30T11:49:29Z</time>
</trkpt>
<trkpt lat="34.8654633" lon="32.9139158">
<ele>628.83</ele>
<time>2015-04-30T11:49:30Z</time>
</trkpt>
<trkpt lat="34.8654340" lon="32.9138495">
<ele>628.79</ele>
<time>2015-04-30T11:49:31Z</time>
</trkpt>
<trkpt lat="34.8654070" lon="32.9137792">
<ele>628.78</ele>
<time>2015-04-30T11:49:32Z</time>
</trkpt>
<trkpt lat="34.8653678" lon="32.9137339">
<ele>628.27</ele>
<time>2015-04-30T11:49:33Z</time>
</trkpt>
<trkpt lat="34.8653472" lon="32.9136736">
<ele>628.01</ele>
<time>2015-04-30T11:49:34Z</time>
</trkpt>
<trkpt lat="34.8653336" lon="32.9136182">
<ele>627.89</ele>
<time>2015-04-30T11:49:35Z</time>
</trkpt>
<trkpt lat="34.8653240" lon="32.9135521">
<ele>627.32</ele>
<time>2015-04-30T11:49:36Z</time>
</trkpt>
<trkpt lat="34.8653131" lon="32.9134964">
<ele>627.54</ele>
<time>2015-04-30T11:49:37Z</time>
</trkpt>
<trkpt lat="34.8653028" lon="32.9134361">
<ele>627.65</ele>
<time>2015-04-30T11:49:38Z</time>
</trkpt>
<trkpt lat="34.8652908" lon="32.9133806">
<ele>627.21</ele>
<time>2015-04-30T11:49:39Z</time>
</trkpt>
<trkpt lat="34.8652697" lon="32.9133251">
<ele>626.98</ele>
<time>2015-04-30T11:49:40Z</time>
</trkpt>
<trkpt lat="34.8652467" lon="32.9132701">
<ele>626.87</ele>
<time>2015-04-30T11:49:41Z</time>
</trkpt>
<trkpt lat="34.8652190" lon="32.9132260">
<ele>626.32</ele>
<time>2015-04-30T11:49:42Z</time>
</trkpt>
<trkpt lat="34.8651901" lon="32.9131775">
<ele>625.54</ele>
<time>2015-04-30T11:49:43Z</time>
</trkpt>
<trkpt lat="34.8651490" lon="32.9131213">
<ele>625.15</ele>
<time>2015-04-30T11:49:44Z</time>
</trkpt>
<trkpt lat="34.8651079" lon="32.9130705">
<ele>624.95</ele>
<time>2015-04-30T11:49:45Z</time>
</trkpt>
<trkpt lat="34.8650665" lon="32.9130213">
<ele>624.86</ele>
<time>2015-04-30T11:49:46Z</time>
</trkpt>
<trkpt lat="34.8650201" lon="32.9129719">
<ele>624.81</ele>
<time>2015-04-30T11:49:47Z</time>
</trkpt>
<trkpt lat="34.8649744" lon="32.9129210">
<ele>624.78</ele>
<time>2015-04-30T11:49:48Z</time>
</trkpt>
<trkpt lat="34.8649230" lon="32.9128750">
<ele>624.77</ele>
<time>2015-04-30T11:49:49Z</time>
</trkpt>
<trkpt lat="34.8648730" lon="32.9128279">
<ele>624.77</ele>
<time>2015-04-30T11:49:50Z</time>
</trkpt>
<trkpt lat="34.8648257" lon="32.9127805">
<ele>624.76</ele>
<time>2015-04-30T11:49:51Z</time>
</trkpt>
<trkpt lat="34.8647769" lon="32.9127405">
<ele>625.26</ele>
<time>2015-04-30T11:49:52Z</time>
</trkpt>
<trkpt lat="34.8647340" lon="32.9127124">
<ele>625.51</ele>
<time>2015-04-30T11:49:53Z</time>
</trkpt>
<trkpt lat="34.8646769" lon="32.9126889">
<ele>626.14</ele>
<time>2015-04-30T11:49:54Z</time>
</trkpt>
<trkpt lat="34.8646186" lon="32.9126781">
<ele>625.95</ele>
<time>2015-04-30T11:49:55Z</time>
</trkpt>
<trkpt lat="34.8645650" lon="32.9126654">
<ele>626.35</ele>
<time>2015-04-30T11:49:56Z</time>
</trkpt>
<trkpt lat="34.8645191" lon="32.9126566">
<ele>626.56</ele>
<time>2015-04-30T11:49:57Z</time>
</trkpt>
<trkpt lat="34.8644675" lon="32.9126486">
<ele>626.66</ele>
<time>2015-04-30T11:49:58Z</time>
</trkpt>
<trkpt lat="34.8643677" lon="32.9126367">
<ele>626.48</ele>
<time>2015-04-30T11:50:00Z</time>
</trkpt>
<trkpt lat="34.8642671" lon="32.9126106">
<ele>626.69</ele>
<time>2015-04-30T11:50:02Z</time>
</trkpt>
<trkpt lat="34.8642021" lon="32.9126026">
<ele>626.23</ele>
<time>2015-04-30T11:50:03Z</time>
</trkpt>
<trkpt lat="34.8641489" lon="32.9125905">
<ele>626.49</ele>
<time>2015-04-30T11:50:04Z</time>
</trkpt>
<trkpt lat="34.8640957" lon="32.9125794">
<ele>626.13</ele>
<time>2015-04-30T11:50:05Z</time>
</trkpt>
<trkpt lat="34.8640487" lon="32.9125870">
<ele>625.94</ele>
<time>2015-04-30T11:50:06Z</time>
</trkpt>
<trkpt lat="34.8640031" lon="32.9125972">
<ele>625.35</ele>
<time>2015-04-30T11:50:07Z</time>
</trkpt>
<trkpt lat="34.8639554" lon="32.9125942">
<ele>625.56</ele>
<time>2015-04-30T11:50:08Z</time>
</trkpt>
<trkpt lat="34.8638934" lon="32.9125965">
<ele>625.16</ele>
<time>2015-04-30T11:50:09Z</time>
</trkpt>
<trkpt lat="34.8638424" lon="32.9126171">
<ele>624.96</ele>
<time>2015-04-30T11:50:10Z</time>
</trkpt>
<trkpt lat="34.8637885" lon="32.9126283">
<ele>624.36</ele>
<time>2015-04-30T11:50:11Z</time>
</trkpt>
<trkpt lat="34.8637361" lon="32.9126418">
<ele>623.56</ele>
<time>2015-04-30T11:50:12Z</time>
</trkpt>
<trkpt lat="34.8636443" lon="32.9126724">
<ele>621.71</ele>
<time>2015-04-30T11:50:14Z</time>
</trkpt>
<trkpt lat="34.8635957" lon="32.9126762">
<ele>620.73</ele>
<time>2015-04-30T11:50:15Z</time>
</trkpt>
<trkpt lat="34.8635514" lon="32.9126901">
<ele>620.25</ele>
<time>2015-04-30T11:50:16Z</time>
</trkpt>
<trkpt lat="34.8634502" lon="32.9126893">
<ele>617.88</ele>
<time>2015-04-30T11:50:18Z</time>
</trkpt>
<trkpt lat="34.8633950" lon="32.9126793">
<ele>617.82</ele>
<time>2015-04-30T11:50:19Z</time>
</trkpt>
<trkpt lat="34.8633321" lon="32.9126591">
<ele>617.29</ele>
<time>2015-04-30T11:50:20Z</time>
</trkpt>
<trkpt lat="34.8632770" lon="32.9126385">
<ele>617.03</ele>
<time>2015-04-30T11:50:21Z</time>
</trkpt>
<trkpt lat="34.8632253" lon="32.9126189">
<ele>617.39</ele>
<time>2015-04-30T11:50:22Z</time>
</trkpt>
<trkpt lat="34.8631857" lon="32.9125799">
<ele>617.08</ele>
<time>2015-04-30T11:50:23Z</time>
</trkpt>
<trkpt lat="34.8631160" lon="32.9125594">
<ele>616.92</ele>
<time>2015-04-30T11:50:24Z</time>
</trkpt>
<trkpt lat="34.8630456" lon="32.9125344">
<ele>616.84</ele>
<time>2015-04-30T11:50:25Z</time>
</trkpt>
<trkpt lat="34.8629793" lon="32.9125093">
<ele>616.80</ele>
<time>2015-04-30T11:50:26Z</time>
</trkpt>
<trkpt lat="34.8629144" lon="32.9124858">
<ele>616.78</ele>
<time>2015-04-30T11:50:27Z</time>
</trkpt>
<trkpt lat="34.8628462" lon="32.9124653">
<ele>616.77</ele>
<time>2015-04-30T11:50:28Z</time>
</trkpt>
<trkpt lat="34.8627855" lon="32.9124338">
<ele>616.26</ele>
<time>2015-04-30T11:50:29Z</time>
</trkpt>
<trkpt lat="34.8627245" lon="32.9124116">
<ele>615.51</ele>
<time>2015-04-30T11:50:30Z</time>
</trkpt>
<trkpt lat="34.8626691" lon="32.9123928">
<ele>615.14</ele>
<time>2015-04-30T11:50:31Z</time>
</trkpt>
<trkpt lat="34.8626128" lon="32.9123715">
<ele>614.95</ele>
<time>2015-04-30T11:50:32Z</time>
</trkpt>
<trkpt lat="34.8625681" lon="32.9123372">
<ele>614.35</ele>
<time>2015-04-30T11:50:33Z</time>
</trkpt>
<trkpt lat="34.8625258" lon="32.9123061">
<ele>614.06</ele>
<time>2015-04-30T11:50:34Z</time>
</trkpt>
<trkpt lat="34.8624828" lon="32.9122711">
<ele>613.41</ele>
<time>2015-04-30T11:50:35Z</time>
</trkpt>
<trkpt lat="34.8624445" lon="32.9122371">
<ele>613.08</ele>
<time>2015-04-30T11:50:36Z</time>
</trkpt>
<trkpt lat="34.8623848" lon="32.9121809">
<ele>612.84</ele>
<time>2015-04-30T11:50:38Z</time>
</trkpt>
<trkpt lat="34.8623330" lon="32.9121310">
<ele>612.03</ele>
<time>2015-04-30T11:50:40Z</time>
</trkpt>
<trkpt lat="34.8622935" lon="32.9120900">
<ele>611.58</ele>
<time>2015-04-30T11:50:42Z</time>
</trkpt>
<trkpt lat="34.8622491" lon="32.9120462">
<ele>611.36</ele>
<time>2015-04-30T11:50:45Z</time>
</trkpt>
<trkpt lat="34.8621944" lon="32.9120348">
<ele>610.53</ele>
<time>2015-04-30T11:50:50Z</time>
</trkpt>
<trkpt lat="34.8621488" lon="32.9120739">
<ele>609.95</ele>
<time>2015-04-30T11:50:52Z</time>
</trkpt>
<trkpt lat="34.8621028" lon="32.9121205">
<ele>609.31</ele>
<time>2015-04-30T11:50:54Z</time>
</trkpt>
<trkpt lat="34.8620535" lon="32.9121750">
<ele>608.90</ele>
<time>2015-04-30T11:50:56Z</time>
</trkpt>
<trkpt lat="34.8620049" lon="32.9122299">
<ele>608.04</ele>
<time>2015-04-30T11:50:58Z</time>
</trkpt>
<trkpt lat="34.8619545" lon="32.9122860">
<ele>607.08</ele>
<time>2015-04-30T11:51:00Z</time>
</trkpt>
<trkpt lat="34.8619106" lon="32.9123418">
<ele>606.84</ele>
<time>2015-04-30T11:51:02Z</time>
</trkpt>
<trkpt lat="34.8618777" lon="32.9123796">
<ele>606.03</ele>
<time>2015-04-30T11:51:04Z</time>
</trkpt>
<trkpt lat="34.8618183" lon="32.9124108">
<ele>605.78</ele>
<time>2015-04-30T11:51:08Z</time>
</trkpt>
<trkpt lat="34.8617842" lon="32.9124466">
<ele>605.76</ele>
<time>2015-04-30T11:51:10Z</time>
</trkpt>
<trkpt lat="34.8617508" lon="32.9124884">
<ele>605.76</ele>
<time>2015-04-30T11:51:12Z</time>
</trkpt>
<trkpt lat="34.8617077" lon="32.9125456">
<ele>606.51</ele>
<time>2015-04-30T11:51:14Z</time>
</trkpt>
<trkpt lat="34.8616458" lon="32.9126167">
<ele>605.45</ele>
<time>2015-04-30T11:51:16Z</time>
</trkpt>
<trkpt lat="34.8615838" lon="32.9126833">
<ele>604.93</ele>
<time>2015-04-30T11:51:18Z</time>
</trkpt>
<trkpt lat="34.8615212" lon="32.9127540">
<ele>604.30</ele>
<time>2015-04-30T11:51:20Z</time>
</trkpt>
<trkpt lat="34.8614620" lon="32.9128174">
<ele>603.90</ele>
<time>2015-04-30T11:51:22Z</time>
</trkpt>
<trkpt lat="34.8614247" lon="32.9128894">
<ele>603.79</ele>
<time>2015-04-30T11:51:24Z</time>
</trkpt>
<trkpt lat="34.8614470" lon="32.9129572">
<ele>603.77</ele>
<time>2015-04-30T11:51:26Z</time>
</trkpt>
<trkpt lat="34.8614963" lon="32.9129910">
<ele>604.26</ele>
<time>2015-04-30T11:51:28Z</time>
</trkpt>
<trkpt lat="34.8615381" lon="32.9130128">
<ele>604.57</ele>
<time>2015-04-30T11:51:36Z</time>
</trkpt>
<trkpt lat="34.8615643" lon="32.9130580">
<ele>603.76</ele>
<time>2015-04-30T11:51:50Z</time>
</trkpt>
<trkpt lat="34.8616033" lon="32.9130893">
<ele>604.37</ele>
<time>2015-04-30T11:51:56Z</time>
</trkpt>
<trkpt lat="34.8615527" lon="32.9130707">
<ele>607.42</ele>
<time>2015-04-30T11:56:09Z</time>
</trkpt>
<trkpt lat="34.8614843" lon="32.9130309">
<ele>606.72</ele>
<time>2015-04-30T11:56:12Z</time>
</trkpt>
<trkpt lat="34.8614202" lon="32.9130205">
<ele>606.75</ele>
<time>2015-04-30T11:56:14Z</time>
</trkpt>
<trkpt lat="34.8613606" lon="32.9130255">
<ele>606.76</ele>
<time>2015-04-30T11:56:16Z</time>
</trkpt>
<trkpt lat="34.8612981" lon="32.9130346">
<ele>605.13</ele>
<time>2015-04-30T11:56:19Z</time>
</trkpt>
<trkpt lat="34.8612540" lon="32.9130751">
<ele>604.60</ele>
<time>2015-04-30T11:56:21Z</time>
</trkpt>
<trkpt lat="34.8611961" lon="32.9131481">
<ele>604.72</ele>
<time>2015-04-30T11:56:23Z</time>
</trkpt>
<trkpt lat="34.8611620" lon="32.9131920">
<ele>604.24</ele>
<time>2015-04-30T11:56:24Z</time>
</trkpt>
<trkpt lat="34.8611275" lon="32.9132459">
<ele>604.00</ele>
<time>2015-04-30T11:56:25Z</time>
</trkpt>
<trkpt lat="34.8610936" lon="32.9132919">
<ele>603.38</ele>
<time>2015-04-30T11:56:26Z</time>
</trkpt>
<trkpt lat="34.8610489" lon="32.9133368">
<ele>602.57</ele>
<time>2015-04-30T11:56:27Z</time>
</trkpt>
<trkpt lat="34.8610005" lon="32.9133882">
<ele>602.17</ele>
<time>2015-04-30T11:56:28Z</time>
</trkpt>
<trkpt lat="34.8609491" lon="32.9134309">
<ele>601.46</ele>
<time>2015-04-30T11:56:29Z</time>
</trkpt>
<trkpt lat="34.8609023" lon="32.9134738">
<ele>601.11</ele>
<time>2015-04-30T11:56:30Z</time>
</trkpt>
<trkpt lat="34.8608591" lon="32.9135047">
<ele>600.94</ele>
<time>2015-04-30T11:56:31Z</time>
</trkpt>
<trkpt lat="34.8608012" lon="32.9135588">
<ele>600.80</ele>
<time>2015-04-30T11:56:33Z</time>
</trkpt>
<trkpt lat="34.8607513" lon="32.9135941">
<ele>600.77</ele>
<time>2015-04-30T11:56:36Z</time>
</trkpt>
<trkpt lat="34.8607003" lon="32.9136230">
<ele>600.39</ele>
<time>2015-04-30T11:56:39Z</time>
</trkpt>
<trkpt lat="34.8606515" lon="32.9136302">
<ele>600.46</ele>
<time>2015-04-30T11:56:42Z</time>
</trkpt>
<trkpt lat="34.8606057" lon="32.9136390">
<ele>601.24</ele>
<time>2015-04-30T11:56:46Z</time>
</trkpt>
<trkpt lat="34.8605532" lon="32.9136332">
<ele>601.78</ele>
<time>2015-04-30T11:56:59Z</time>
</trkpt>
<trkpt lat="34.8605374" lon="32.9135594">
<ele>601.01</ele>
<time>2015-04-30T11:57:01Z</time>
</trkpt>
<trkpt lat="34.8605275" lon="32.9134844">
<ele>600.82</ele>
<time>2015-04-30T11:57:03Z</time>
</trkpt>
<trkpt lat="34.8605006" lon="32.9134085">
<ele>598.78</ele>
<time>2015-04-30T11:57:05Z</time>
</trkpt>
<trkpt lat="34.8604738" lon="32.9133578">
<ele>597.77</ele>
<time>2015-04-30T11:57:06Z</time>
</trkpt>
<trkpt lat="34.8604132" lon="32.9133049">
<ele>597.26</ele>
<time>2015-04-30T11:57:07Z</time>
</trkpt>
<trkpt lat="34.8603642" lon="32.9132874">
<ele>597.51</ele>
<time>2015-04-30T11:57:08Z</time>
</trkpt>
<trkpt lat="34.8602793" lon="32.9132962">
<ele>597.20</ele>
<time>2015-04-30T11:57:10Z</time>
</trkpt>
<trkpt lat="34.8601957" lon="32.9133071">
<ele>596.87</ele>
<time>2015-04-30T11:57:12Z</time>
</trkpt>
<trkpt lat="34.8601259" lon="32.9133266">
<ele>596.79</ele>
<time>2015-04-30T11:57:14Z</time>
</trkpt>
<trkpt lat="34.8600635" lon="32.9133223">
<ele>596.77</ele>
<time>2015-04-30T11:57:16Z</time>
</trkpt>
<trkpt lat="34.8600401" lon="32.9132732">
<ele>596.01</ele>
<time>2015-04-30T11:57:19Z</time>
</trkpt>
<trkpt lat="34.8600534" lon="32.9132155">
<ele>593.27</ele>
<time>2015-04-30T11:57:39Z</time>
</trkpt>
<trkpt lat="34.8600178" lon="32.9132678">
<ele>595.50</ele>
<time>2015-04-30T11:59:48Z</time>
</trkpt>
<trkpt lat="34.8600219" lon="32.9133437">
<ele>596.44</ele>
<time>2015-04-30T11:59:50Z</time>
</trkpt>
<trkpt lat="34.8600272" lon="32.9134128">
<ele>596.18</ele>
<time>2015-04-30T11:59:52Z</time>
</trkpt>
<trkpt lat="34.8600253" lon="32.9134678">
<ele>594.74</ele>
<time>2015-04-30T12:00:10Z</time>
</trkpt>
<trkpt lat="34.8599989" lon="32.9135318">
<ele>595.63</ele>
<time>2015-04-30T12:00:16Z</time>
</trkpt>
<trkpt lat="34.8599586" lon="32.9135652">
<ele>594.98</ele>
<time>2015-04-30T12:00:18Z</time>
</trkpt>
<trkpt lat="34.8599080" lon="32.9136007">
<ele>595.56</ele>
<time>2015-04-30T12:00:20Z</time>
</trkpt>
<trkpt lat="34.8598537" lon="32.9136157">
<ele>596.46</ele>
<time>2015-04-30T12:00:22Z</time>
</trkpt>
<trkpt lat="34.8597932" lon="32.9136123">
<ele>596.44</ele>
<time>2015-04-30T12:00:24Z</time>
</trkpt>
<trkpt lat="34.8597343" lon="32.9136265">
<ele>596.68</ele>
<time>2015-04-30T12:00:26Z</time>
</trkpt>
<trkpt lat="34.8596642" lon="32.9136391">
<ele>595.74</ele>
<time>2015-04-30T12:00:28Z</time>
</trkpt>
<trkpt lat="34.8595896" lon="32.9136226">
<ele>595.75</ele>
<time>2015-04-30T12:00:30Z</time>
</trkpt>
<trkpt lat="34.8595056" lon="32.9136060">
<ele>595.76</ele>
<time>2015-04-30T12:00:32Z</time>
</trkpt>
<trkpt lat="34.8594586" lon="32.9135971">
<ele>595.76</ele>
<time>2015-04-30T12:00:33Z</time>
</trkpt>
<trkpt lat="34.8594001" lon="32.9135907">
<ele>595.26</ele>
<time>2015-04-30T12:00:34Z</time>
</trkpt>
<trkpt lat="34.8593516" lon="32.9135802">
<ele>595.01</ele>
<time>2015-04-30T12:00:35Z</time>
</trkpt>
<trkpt lat="34.8592962" lon="32.9135741">
<ele>594.88</ele>
<time>2015-04-30T12:00:36Z</time>
</trkpt>
<trkpt lat="34.8592059" lon="32.9135549">
<ele>595.04</ele>
<time>2015-04-30T12:00:38Z</time>
</trkpt>
<trkpt lat="34.8591502" lon="32.9135477">
<ele>595.40</ele>
<time>2015-04-30T12:00:39Z</time>
</trkpt>
<trkpt lat="34.8590957" lon="32.9135317">
<ele>595.08</ele>
<time>2015-04-30T12:00:40Z</time>
</trkpt>
<trkpt lat="34.8590442" lon="32.9135210">
<ele>594.92</ele>
<time>2015-04-30T12:00:41Z</time>
</trkpt>
<trkpt lat="34.8589882" lon="32.9135075">
<ele>594.84</ele>
<time>2015-04-30T12:00:42Z</time>
</trkpt>
<trkpt lat="34.8589301" lon="32.9134978">
<ele>594.80</ele>
<time>2015-04-30T12:00:43Z</time>
</trkpt>
<trkpt lat="34.8588737" lon="32.9134834">
<ele>594.78</ele>
<time>2015-04-30T12:00:44Z</time>
</trkpt>
<trkpt lat="34.8588229" lon="32.9134709">
<ele>594.77</ele>
<time>2015-04-30T12:00:45Z</time>
</trkpt>
<trkpt lat="34.8587659" lon="32.9134621">
<ele>594.27</ele>
<time>2015-04-30T12:00:46Z</time>
</trkpt>
<trkpt lat="34.8587093" lon="32.9134505">
<ele>594.01</ele>
<time>2015-04-30T12:00:47Z</time>
</trkpt>
<trkpt lat="34.8586434" lon="32.9134366">
<ele>593.39</ele>
<time>2015-04-30T12:00:48Z</time>
</trkpt>
<trkpt lat="34.8585886" lon="32.9134241">
<ele>593.57</ele>
<time>2015-04-30T12:00:49Z</time>
</trkpt>
<trkpt lat="34.8585293" lon="32.9134151">
<ele>593.17</ele>
<time>2015-04-30T12:00:50Z</time>
</trkpt>
<trkpt lat="34.8584665" lon="32.9134088">
<ele>592.46</ele>
<time>2015-04-30T12:00:51Z</time>
</trkpt>
<trkpt lat="34.8584018" lon="32.9133949">
<ele>592.11</ele>
<time>2015-04-30T12:00:52Z</time>
</trkpt>
<trkpt lat="34.8583386" lon="32.9133882">
<ele>591.94</ele>
<time>2015-04-30T12:00:53Z</time>
</trkpt>
<trkpt lat="34.8582778" lon="32.9133746">
<ele>591.35</ele>
<time>2015-04-30T12:00:54Z</time>
</trkpt>
<trkpt lat="34.8582153" lon="32.9133598">
<ele>591.55</ele>
<time>2015-04-30T12:00:55Z</time>
</trkpt>
<trkpt lat="34.8581488" lon="32.9133479">
<ele>591.16</ele>
<time>2015-04-30T12:00:56Z</time>
</trkpt>
<trkpt lat="34.8580882" lon="32.9133346">
<ele>590.96</ele>
<time>2015-04-30T12:00:57Z</time>
</trkpt>
<trkpt lat="34.8580208" lon="32.9133164">
<ele>590.36</ele>
<time>2015-04-30T12:00:58Z</time>
</trkpt>
<trkpt lat="34.8579587" lon="32.9133026">
<ele>590.06</ele>
<time>2015-04-30T12:00:59Z</time>
</trkpt>
<trkpt lat="34.8578908" lon="32.9132938">
<ele>589.41</ele>
<time>2015-04-30T12:01:00Z</time>
</trkpt>
<trkpt lat="34.8578280" lon="32.9132867">
<ele>588.58</ele>
<time>2015-04-30T12:01:01Z</time>
</trkpt>
<trkpt lat="34.8577513" lon="32.9132746">
<ele>588.17</ele>
<time>2015-04-30T12:01:02Z</time>
</trkpt>
<trkpt lat="34.8576829" lon="32.9132555">
<ele>587.97</ele>
<time>2015-04-30T12:01:03Z</time>
</trkpt>
<trkpt lat="34.8576152" lon="32.9132438">
<ele>587.36</ele>
<time>2015-04-30T12:01:04Z</time>
</trkpt>
<trkpt lat="34.8575543" lon="32.9132331">
<ele>587.06</ele>
<time>2015-04-30T12:01:05Z</time>
</trkpt>
<trkpt lat="34.8574991" lon="32.9132262">
<ele>587.41</ele>
<time>2015-04-30T12:01:06Z</time>
</trkpt>
<trkpt lat="34.8574530" lon="32.9132199">
<ele>587.09</ele>
<time>2015-04-30T12:01:07Z</time>
</trkpt>
<trkpt lat="34.8574076" lon="32.9132143">
<ele>587.42</ele>
<time>2015-04-30T12:01:08Z</time>
</trkpt>
<trkpt lat="34.8573286" lon="32.9131966">
<ele>587.68</ele>
<time>2015-04-30T12:01:10Z</time>
</trkpt>
<trkpt lat="34.8572503" lon="32.9131727">
<ele>586.99</ele>
<time>2015-04-30T12:01:12Z</time>
</trkpt>
<trkpt lat="34.8572009" lon="32.9131590">
<ele>586.37</ele>
<time>2015-04-30T12:01:13Z</time>
</trkpt>
<trkpt lat="34.8571566" lon="32.9131385">
<ele>586.57</ele>
<time>2015-04-30T12:01:14Z</time>
</trkpt>
<trkpt lat="34.8570728" lon="32.9131028">
<ele>586.71</ele>
<time>2015-04-30T12:01:16Z</time>
</trkpt>
<trkpt lat="34.8570263" lon="32.9130842">
<ele>586.24</ele>
<time>2015-04-30T12:01:17Z</time>
</trkpt>
<trkpt lat="34.8569805" lon="32.9130695">
<ele>586.00</ele>
<time>2015-04-30T12:01:18Z</time>
</trkpt>
<trkpt lat="34.8569239" lon="32.9130463">
<ele>585.88</ele>
<time>2015-04-30T12:01:19Z</time>
</trkpt>
<trkpt lat="34.8568760" lon="32.9130174">
<ele>585.82</ele>
<time>2015-04-30T12:01:20Z</time>
</trkpt>
<trkpt lat="34.8568300" lon="32.9129864">
<ele>585.29</ele>
<time>2015-04-30T12:01:21Z</time>
</trkpt>
<trkpt lat="34.8567776" lon="32.9129611">
<ele>585.52</ele>
<time>2015-04-30T12:01:22Z</time>
</trkpt>
<trkpt lat="34.8567251" lon="32.9129394">
<ele>585.64</ele>
<time>2015-04-30T12:01:23Z</time>
</trkpt>
<trkpt lat="34.8566695" lon="32.9129170">
<ele>585.70</ele>
<time>2015-04-30T12:01:24Z</time>
</trkpt>
<trkpt lat="34.8566280" lon="32.9128875">
<ele>585.73</ele>
<time>2015-04-30T12:01:25Z</time>
</trkpt>
<trkpt lat="34.8565820" lon="32.9128560">
<ele>585.75</ele>
<time>2015-04-30T12:01:26Z</time>
</trkpt>
<trkpt lat="34.8565334" lon="32.9128326">
<ele>585.75</ele>
<time>2015-04-30T12:01:27Z</time>
</trkpt>
<trkpt lat="34.8564783" lon="32.9128050">
<ele>585.76</ele>
<time>2015-04-30T12:01:28Z</time>
</trkpt>
<trkpt lat="34.8564297" lon="32.9127847">
<ele>585.26</ele>
<time>2015-04-30T12:01:29Z</time>
</trkpt>
<trkpt lat="34.8563800" lon="32.9127603">
<ele>585.01</ele>
<time>2015-04-30T12:01:30Z</time>
</trkpt>
<trkpt lat="34.8563277" lon="32.9127352">
<ele>584.88</ele>
<time>2015-04-30T12:01:31Z</time>
</trkpt>
<trkpt lat="34.8562753" lon="32.9127066">
<ele>584.82</ele>
<time>2015-04-30T12:01:32Z</time>
</trkpt>
<trkpt lat="34.8562228" lon="32.9126867">
<ele>584.79</ele>
<time>2015-04-30T12:01:33Z</time>
</trkpt>
<trkpt lat="34.8561737" lon="32.9126688">
<ele>584.78</ele>
<time>2015-04-30T12:01:34Z</time>
</trkpt>
<trkpt lat="34.8560909" lon="32.9126438">
<ele>584.76</ele>
<time>2015-04-30T12:01:36Z</time>
</trkpt>
<trkpt lat="34.8560098" lon="32.9126502">
<ele>584.76</ele>
<time>2015-04-30T12:01:38Z</time>
</trkpt>
<trkpt lat="34.8559160" lon="32.9126616">
<ele>584.26</ele>
<time>2015-04-30T12:01:40Z</time>
</trkpt>
<trkpt lat="34.8558691" lon="32.9126755">
<ele>584.01</ele>
<time>2015-04-30T12:01:41Z</time>
</trkpt>
<trkpt lat="34.8558220" lon="32.9126833">
<ele>583.89</ele>
<time>2015-04-30T12:01:42Z</time>
</trkpt>
<trkpt lat="34.8557700" lon="32.9126888">
<ele>583.82</ele>
<time>2015-04-30T12:01:43Z</time>
</trkpt>
<trkpt lat="34.8557151" lon="32.9127044">
<ele>583.79</ele>
<time>2015-04-30T12:01:44Z</time>
</trkpt>
<trkpt lat="34.8556546" lon="32.9127215">
<ele>583.28</ele>
<time>2015-04-30T12:01:45Z</time>
</trkpt>
<trkpt lat="34.8555978" lon="32.9127393">
<ele>583.02</ele>
<time>2015-04-30T12:01:46Z</time>
</trkpt>
<trkpt lat="34.8555344" lon="32.9127640">
<ele>582.39</ele>
<time>2015-04-30T12:01:47Z</time>
</trkpt>
<trkpt lat="34.8554677" lon="32.9127927">
<ele>582.07</ele>
<time>2015-04-30T12:01:48Z</time>
</trkpt>
<trkpt lat="34.8554012" lon="32.9128188">
<ele>581.92</ele>
<time>2015-04-30T12:01:49Z</time>
</trkpt>
<trkpt lat="34.8553366" lon="32.9128512">
<ele>581.34</ele>
<time>2015-04-30T12:01:50Z</time>
</trkpt>
<trkpt lat="34.8552701" lon="32.9128789">
<ele>580.55</ele>
<time>2015-04-30T12:01:51Z</time>
</trkpt>
<trkpt lat="34.8551995" lon="32.9129082">
<ele>580.15</ele>
<time>2015-04-30T12:01:52Z</time>
</trkpt>
<trkpt lat="34.8551432" lon="32.9129360">
<ele>579.96</ele>
<time>2015-04-30T12:01:53Z</time>
</trkpt>
<trkpt lat="34.8550805" lon="32.9129590">
<ele>579.36</ele>
<time>2015-04-30T12:01:54Z</time>
</trkpt>
<trkpt lat="34.8550230" lon="32.9129922">
<ele>579.06</ele>
<time>2015-04-30T12:01:55Z</time>
</trkpt>
<trkpt lat="34.8549699" lon="32.9130099">
<ele>578.91</ele>
<time>2015-04-30T12:01:56Z</time>
</trkpt>
<trkpt lat="34.8549230" lon="32.9130334">
<ele>578.33</ele>
<time>2015-04-30T12:01:57Z</time>
</trkpt>
<trkpt lat="34.8548754" lon="32.9130491">
<ele>578.05</ele>
<time>2015-04-30T12:01:58Z</time>
</trkpt>
<trkpt lat="34.8548178" lon="32.9130668">
<ele>577.90</ele>
<time>2015-04-30T12:01:59Z</time>
</trkpt>
<trkpt lat="34.8547649" lon="32.9130868">
<ele>577.33</ele>
<time>2015-04-30T12:02:00Z</time>
</trkpt>
<trkpt lat="34.8547198" lon="32.9130953">
<ele>577.05</ele>
<time>2015-04-30T12:02:01Z</time>
</trkpt>
<trkpt lat="34.8546613" lon="32.9131009">
<ele>576.40</ele>
<time>2015-04-30T12:02:02Z</time>
</trkpt>
<trkpt lat="34.8546032" lon="32.9130951">
<ele>575.58</ele>
<time>2015-04-30T12:02:03Z</time>
</trkpt>
<trkpt lat="34.8545482" lon="32.9130769">
<ele>575.17</ele>
<time>2015-04-30T12:02:04Z</time>
</trkpt>
<trkpt lat="34.8544889" lon="32.9130529">
<ele>574.47</ele>
<time>2015-04-30T12:02:05Z</time>
</trkpt>
<trkpt lat="34.8544306" lon="32.9130183">
<ele>574.11</ele>
<time>2015-04-30T12:02:06Z</time>
</trkpt>
<trkpt lat="34.8543631" lon="32.9129888">
<ele>573.94</ele>
<time>2015-04-30T12:02:07Z</time>
</trkpt>
<trkpt lat="34.8543072" lon="32.9129597">
<ele>573.85</ele>
<time>2015-04-30T12:02:08Z</time>
</trkpt>
<trkpt lat="34.8542303" lon="32.9129368">
<ele>573.80</ele>
<time>2015-04-30T12:02:09Z</time>
</trkpt>
<trkpt lat="34.8541625" lon="32.9129101">
<ele>574.28</ele>
<time>2015-04-30T12:02:10Z</time>
</trkpt>
<trkpt lat="34.8540910" lon="32.9128846">
<ele>574.52</ele>
<time>2015-04-30T12:02:11Z</time>
</trkpt>
<trkpt lat="34.8540138" lon="32.9128504">
<ele>574.14</ele>
<time>2015-04-30T12:02:12Z</time>
</trkpt>
<trkpt lat="34.8539457" lon="32.9128227">
<ele>573.95</ele>
<time>2015-04-30T12:02:13Z</time>
</trkpt>
<trkpt lat="34.8538754" lon="32.9127926">
<ele>574.36</ele>
<time>2015-04-30T12:02:14Z</time>
</trkpt>
<trkpt lat="34.8538042" lon="32.9127571">
<ele>574.56</ele>
<time>2015-04-30T12:02:15Z</time>
</trkpt>
<trkpt lat="34.8537314" lon="32.9127402">
<ele>574.66</ele>
<time>2015-04-30T12:02:16Z</time>
</trkpt>
<trkpt lat="34.8536691" lon="32.9127146">
<ele>574.71</ele>
<time>2015-04-30T12:02:17Z</time>
</trkpt>
<trkpt lat="34.8536046" lon="32.9126936">
<ele>574.73</ele>
<time>2015-04-30T12:02:18Z</time>
</trkpt>
<trkpt lat="34.8535429" lon="32.9126550">
<ele>574.75</ele>
<time>2015-04-30T12:02:19Z</time>
</trkpt>
<trkpt lat="34.8534838" lon="32.9126175">
<ele>574.75</ele>
<time>2015-04-30T12:02:20Z</time>
</trkpt>
<trkpt lat="34.8534392" lon="32.9125764">
<ele>574.76</ele>
<time>2015-04-30T12:02:21Z</time>
</trkpt>
<trkpt lat="34.8533922" lon="32.9125290">
<ele>574.76</ele>
<time>2015-04-30T12:02:22Z</time>
</trkpt>
<trkpt lat="34.8533515" lon="32.9124816">
<ele>574.76</ele>
<time>2015-04-30T12:02:23Z</time>
</trkpt>
<trkpt lat="34.8532992" lon="32.9123979">
<ele>573.26</ele>
<time>2015-04-30T12:02:25Z</time>
</trkpt>
<trkpt lat="34.8532760" lon="32.9123509">
<ele>572.51</ele>
<time>2015-04-30T12:02:26Z</time>
</trkpt>
<trkpt lat="34.8532491" lon="32.9123040">
<ele>572.13</ele>
<time>2015-04-30T12:02:27Z</time>
</trkpt>
<trkpt lat="34.8531987" lon="32.9122147">
<ele>571.85</ele>
<time>2015-04-30T12:02:29Z</time>
</trkpt>
<trkpt lat="34.8531690" lon="32.9121623">
<ele>571.81</ele>
<time>2015-04-30T12:02:30Z</time>
</trkpt>
<trkpt lat="34.8531414" lon="32.9121113">
<ele>572.28</ele>
<time>2015-04-30T12:02:31Z</time>
</trkpt>
<trkpt lat="34.8531133" lon="32.9120542">
<ele>572.52</ele>
<time>2015-04-30T12:02:32Z</time>
</trkpt>
<trkpt lat="34.8530875" lon="32.9119982">
<ele>572.64</ele>
<time>2015-04-30T12:02:33Z</time>
</trkpt>
<trkpt lat="34.8530338" lon="32.9119282">
<ele>571.98</ele>
<time>2015-04-30T12:02:35Z</time>
</trkpt>
<trkpt lat="34.8529973" lon="32.9118945">
<ele>571.87</ele>
<time>2015-04-30T12:02:36Z</time>
</trkpt>
<trkpt lat="34.8529200" lon="32.9118301">
<ele>571.79</ele>
<time>2015-04-30T12:02:38Z</time>
</trkpt>
<trkpt lat="34.8528735" lon="32.9118032">
<ele>571.77</ele>
<time>2015-04-30T12:02:39Z</time>
</trkpt>
<trkpt lat="34.8528195" lon="32.9117820">
<ele>571.27</ele>
<time>2015-04-30T12:02:40Z</time>
</trkpt>
<trkpt lat="34.8527738" lon="32.9117700">
<ele>571.01</ele>
<time>2015-04-30T12:02:41Z</time>
</trkpt>
<trkpt lat="34.8527278" lon="32.9117581">
<ele>570.39</ele>
<time>2015-04-30T12:02:42Z</time>
</trkpt>
<trkpt lat="34.8526434" lon="32.9117422">
<ele>569.42</ele>
<time>2015-04-30T12:02:44Z</time>
</trkpt>
<trkpt lat="34.8525539" lon="32.9117401">
<ele>569.17</ele>
<time>2015-04-30T12:02:46Z</time>
</trkpt>
<trkpt lat="34.8524684" lon="32.9117411">
<ele>568.86</ele>
<time>2015-04-30T12:02:48Z</time>
</trkpt>
<trkpt lat="34.8523780" lon="32.9117353">
<ele>568.29</ele>
<time>2015-04-30T12:02:50Z</time>
</trkpt>
<trkpt lat="34.8523285" lon="32.9117376">
<ele>568.02</ele>
<time>2015-04-30T12:02:51Z</time>
</trkpt>
<trkpt lat="34.8522786" lon="32.9117368">
<ele>567.89</ele>
<time>2015-04-30T12:02:52Z</time>
</trkpt>
<trkpt lat="34.8522008" lon="32.9117462">
<ele>568.29</ele>
<time>2015-04-30T12:02:54Z</time>
</trkpt>
<trkpt lat="34.8521207" lon="32.9117560">
<ele>567.39</ele>
<time>2015-04-30T12:02:56Z</time>
</trkpt>
<trkpt lat="34.8520298" lon="32.9117679">
<ele>568.17</ele>
<time>2015-04-30T12:02:58Z</time>
</trkpt>
<trkpt lat="34.8519821" lon="32.9117643">
<ele>568.46</ele>
<time>2015-04-30T12:02:59Z</time>
</trkpt>
<trkpt lat="34.8519274" lon="32.9117626">
<ele>569.11</ele>
<time>2015-04-30T12:03:00Z</time>
</trkpt>
<trkpt lat="34.8518444" lon="32.9117608">
<ele>569.60</ele>
<time>2015-04-30T12:03:02Z</time>
</trkpt>
<trkpt lat="34.8517636" lon="32.9117524">
<ele>569.72</ele>
<time>2015-04-30T12:03:04Z</time>
</trkpt>
<trkpt lat="34.8516834" lon="32.9117471">
<ele>570.50</ele>
<time>2015-04-30T12:03:06Z</time>
</trkpt>
<trkpt lat="34.8515886" lon="32.9117330">
<ele>569.94</ele>
<time>2015-04-30T12:03:08Z</time>
</trkpt>
<trkpt lat="34.8515435" lon="32.9117164">
<ele>569.85</ele>
<time>2015-04-30T12:03:09Z</time>
</trkpt>
<trkpt lat="34.8514928" lon="32.9116972">
<ele>569.81</ele>
<time>2015-04-30T12:03:10Z</time>
</trkpt>
<trkpt lat="34.8514486" lon="32.9116833">
<ele>570.28</ele>
<time>2015-04-30T12:03:11Z</time>
</trkpt>
<trkpt lat="34.8513942" lon="32.9116758">
<ele>570.52</ele>
<time>2015-04-30T12:03:12Z</time>
</trkpt>
<trkpt lat="34.8513396" lon="32.9116644">
<ele>571.14</ele>
<time>2015-04-30T12:03:13Z</time>
</trkpt>
<trkpt lat="34.8512889" lon="32.9116590">
<ele>571.45</ele>
<time>2015-04-30T12:03:14Z</time>
</trkpt>
<trkpt lat="34.8511914" lon="32.9116368">
<ele>571.68</ele>
<time>2015-04-30T12:03:16Z</time>
</trkpt>
<trkpt lat="34.8511292" lon="32.9116209">
<ele>571.72</ele>
<time>2015-04-30T12:03:17Z</time>
</trkpt>
<trkpt lat="34.8510757" lon="32.9116106">
<ele>571.74</ele>
<time>2015-04-30T12:03:18Z</time>
</trkpt>
<trkpt lat="34.8510187" lon="32.9115896">
<ele>571.25</ele>
<time>2015-04-30T12:03:19Z</time>
</trkpt>
<trkpt lat="34.8509634" lon="32.9115678">
<ele>570.51</ele>
<time>2015-04-30T12:03:20Z</time>
</trkpt>
<trkpt lat="34.8508999" lon="32.9115472">
<ele>570.13</ele>
<time>2015-04-30T12:03:21Z</time>
</trkpt>
<trkpt lat="34.8508386" lon="32.9115250">
<ele>570.95</ele>
<time>2015-04-30T12:03:22Z</time>
</trkpt>
<trkpt lat="34.8507790" lon="32.9115073">
<ele>571.35</ele>
<time>2015-04-30T12:03:23Z</time>
</trkpt>
<trkpt lat="34.8507079" lon="32.9114860">
<ele>570.56</ele>
<time>2015-04-30T12:03:24Z</time>
</trkpt>
<trkpt lat="34.8506444" lon="32.9114671">
<ele>569.66</ele>
<time>2015-04-30T12:03:25Z</time>
</trkpt>
<trkpt lat="34.8505827" lon="32.9114502">
<ele>569.21</ele>
<time>2015-04-30T12:03:26Z</time>
</trkpt>
<trkpt lat="34.8505179" lon="32.9114309">
<ele>568.98</ele>
<time>2015-04-30T12:03:27Z</time>
</trkpt>
<trkpt lat="34.8504676" lon="32.9114171">
<ele>568.37</ele>
<time>2015-04-30T12:03:28Z</time>
</trkpt>
<trkpt lat="34.8503983" lon="32.9113987">
<ele>567.57</ele>
<time>2015-04-30T12:03:29Z</time>
</trkpt>
<trkpt lat="34.8503411" lon="32.9113875">
<ele>567.16</ele>
<time>2015-04-30T12:03:30Z</time>
</trkpt>
<trkpt lat="34.8502730" lon="32.9113741">
<ele>566.46</ele>
<time>2015-04-30T12:03:31Z</time>
</trkpt>
<trkpt lat="34.8501989" lon="32.9113702">
<ele>566.11</ele>
<time>2015-04-30T12:03:32Z</time>
</trkpt>
<trkpt lat="34.8501314" lon="32.9113709">
<ele>565.44</ele>
<time>2015-04-30T12:03:33Z</time>
</trkpt>
<trkpt lat="34.8500524" lon="32.9113720">
<ele>565.10</ele>
<time>2015-04-30T12:03:34Z</time>
</trkpt>
<trkpt lat="34.8499882" lon="32.9113640">
<ele>564.93</ele>
<time>2015-04-30T12:03:35Z</time>
</trkpt>
<trkpt lat="34.8499283" lon="32.9113577">
<ele>564.84</ele>
<time>2015-04-30T12:03:36Z</time>
</trkpt>
<trkpt lat="34.8498626" lon="32.9113590">
<ele>564.80</ele>
<time>2015-04-30T12:03:37Z</time>
</trkpt>
<trkpt lat="34.8498026" lon="32.9113481">
<ele>564.78</ele>
<time>2015-04-30T12:03:38Z</time>
</trkpt>
<trkpt lat="34.8497327" lon="32.9113209">
<ele>564.27</ele>
<time>2015-04-30T12:03:39Z</time>
</trkpt>
<trkpt lat="34.8496726" lon="32.9112939">
<ele>564.52</ele>
<time>2015-04-30T12:03:40Z</time>
</trkpt>
<trkpt lat="34.8496155" lon="32.9112732">
<ele>564.64</ele>
<time>2015-04-30T12:03:41Z</time>
</trkpt>
<trkpt lat="34.8495448" lon="32.9112410">
<ele>564.70</ele>
<time>2015-04-30T12:03:42Z</time>
</trkpt>
<trkpt lat="34.8494753" lon="32.9112187">
<ele>564.73</ele>
<time>2015-04-30T12:03:43Z</time>
</trkpt>
<trkpt lat="34.8493977" lon="32.9111876">
<ele>563.74</ele>
<time>2015-04-30T12:03:44Z</time>
</trkpt>
<trkpt lat="34.8493378" lon="32.9111738">
<ele>563.25</ele>
<time>2015-04-30T12:03:45Z</time>
</trkpt>
<trkpt lat="34.8492872" lon="32.9111677">
<ele>563.01</ele>
<time>2015-04-30T12:03:46Z</time>
</trkpt>
<trkpt lat="34.8492110" lon="32.9111605">
<ele>562.88</ele>
<time>2015-04-30T12:03:47Z</time>
</trkpt>
<trkpt lat="34.8491190" lon="32.9111634">
<ele>562.32</ele>
<time>2015-04-30T12:03:48Z</time>
</trkpt>
<trkpt lat="34.8490355" lon="32.9111721">
<ele>561.54</ele>
<time>2015-04-30T12:03:49Z</time>
</trkpt>
<trkpt lat="34.8489533" lon="32.9111951">
<ele>561.65</ele>
<time>2015-04-30T12:03:50Z</time>
</trkpt>
<trkpt lat="34.8488728" lon="32.9112355">
<ele>560.71</ele>
<time>2015-04-30T12:03:51Z</time>
</trkpt>
<trkpt lat="34.8487988" lon="32.9112480">
<ele>560.23</ele>
<time>2015-04-30T12:03:52Z</time>
</trkpt>
<trkpt lat="34.8487129" lon="32.9112537">
<ele>560.00</ele>
<time>2015-04-30T12:03:53Z</time>
</trkpt>
<trkpt lat="34.8486202" lon="32.9112475">
<ele>560.38</ele>
<time>2015-04-30T12:03:54Z</time>
</trkpt>
<trkpt lat="34.8485289" lon="32.9112366">
<ele>559.57</ele>
<time>2015-04-30T12:03:55Z</time>
</trkpt>
<trkpt lat="34.8484456" lon="32.9112146">
<ele>559.16</ele>
<time>2015-04-30T12:03:56Z</time>
</trkpt>
<trkpt lat="34.8483723" lon="32.9111660">
<ele>559.96</ele>
<time>2015-04-30T12:03:57Z</time>
</trkpt>
<trkpt lat="34.8483039" lon="32.9111136">
<ele>560.36</ele>
<time>2015-04-30T12:03:58Z</time>
</trkpt>
<trkpt lat="34.8482498" lon="32.9110629">
<ele>560.56</ele>
<time>2015-04-30T12:03:59Z</time>
</trkpt>
<trkpt lat="34.8482068" lon="32.9110176">
<ele>560.66</ele>
<time>2015-04-30T12:04:00Z</time>
</trkpt>
<trkpt lat="34.8481714" lon="32.9109605">
<ele>560.21</ele>
<time>2015-04-30T12:04:01Z</time>
</trkpt>
<trkpt lat="34.8481310" lon="32.9109058">
<ele>559.99</ele>
<time>2015-04-30T12:04:02Z</time>
</trkpt>
<trkpt lat="34.8480777" lon="32.9108653">
<ele>560.37</ele>
<time>2015-04-30T12:04:03Z</time>
</trkpt>
<trkpt lat="34.8480312" lon="32.9108243">
<ele>561.07</ele>
<time>2015-04-30T12:04:04Z</time>
</trkpt>
<trkpt lat="34.8479876" lon="32.9107791">
<ele>560.41</ele>
<time>2015-04-30T12:04:05Z</time>
</trkpt>
<trkpt lat="34.8479319" lon="32.9107097">
<ele>560.42</ele>
<time>2015-04-30T12:04:07Z</time>
</trkpt>
<trkpt lat="34.8478804" lon="32.9106532">
<ele>560.43</ele>
<time>2015-04-30T12:04:09Z</time>
</trkpt>
<trkpt lat="34.8478268" lon="32.9105926">
<ele>561.68</ele>
<time>2015-04-30T12:04:11Z</time>
</trkpt>
<trkpt lat="34.8477895" lon="32.9105543">
<ele>561.22</ele>
<time>2015-04-30T12:04:12Z</time>
</trkpt>
<trkpt lat="34.8477455" lon="32.9105261">
<ele>560.49</ele>
<time>2015-04-30T12:04:13Z</time>
</trkpt>
<trkpt lat="34.8477038" lon="32.9104947">
<ele>560.12</ele>
<time>2015-04-30T12:04:14Z</time>
</trkpt>
<trkpt lat="34.8476316" lon="32.9104386">
<ele>560.35</ele>
<time>2015-04-30T12:04:16Z</time>
</trkpt>
<trkpt lat="34.8475540" lon="32.9103898">
<ele>559.91</ele>
<time>2015-04-30T12:04:18Z</time>
</trkpt>
<trkpt lat="34.8474881" lon="32.9103572">
<ele>559.80</ele>
<time>2015-04-30T12:04:20Z</time>
</trkpt>
<trkpt lat="34.8474297" lon="32.9103419">
<ele>561.27</ele>
<time>2015-04-30T12:04:22Z</time>
</trkpt>
<trkpt lat="34.8473732" lon="32.9103378">
<ele>562.39</ele>
<time>2015-04-30T12:04:24Z</time>
</trkpt>
<trkpt lat="34.8473162" lon="32.9103342">
<ele>563.17</ele>
<time>2015-04-30T12:04:26Z</time>
</trkpt>
<trkpt lat="34.8472584" lon="32.9103459">
<ele>564.36</ele>
<time>2015-04-30T12:04:28Z</time>
</trkpt>
<trkpt lat="34.8471924" lon="32.9103699">
<ele>564.66</ele>
<time>2015-04-30T12:04:30Z</time>
</trkpt>
<trkpt lat="34.8471290" lon="32.9104013">
<ele>563.99</ele>
<time>2015-04-30T12:04:32Z</time>
</trkpt>
<trkpt lat="34.8470656" lon="32.9104221">
<ele>563.82</ele>
<time>2015-04-30T12:04:34Z</time>
</trkpt>
<trkpt lat="34.8470017" lon="32.9104408">
<ele>564.27</ele>
<time>2015-04-30T12:04:36Z</time>
</trkpt>
<trkpt lat="34.8469339" lon="32.9104681">
<ele>563.89</ele>
<time>2015-04-30T12:04:38Z</time>
</trkpt>
<trkpt lat="34.8468683" lon="32.9105089">
<ele>563.79</ele>
<time>2015-04-30T12:04:40Z</time>
</trkpt>
<trkpt lat="34.8468101" lon="32.9105579">
<ele>563.77</ele>
<time>2015-04-30T12:04:42Z</time>
</trkpt>
<trkpt lat="34.8467519" lon="32.9106124">
<ele>564.51</ele>
<time>2015-04-30T12:04:44Z</time>
</trkpt>
<trkpt lat="34.8467014" lon="32.9106689">
<ele>564.70</ele>
<time>2015-04-30T12:04:46Z</time>
</trkpt>
<trkpt lat="34.8466551" lon="32.9107109">
<ele>564.74</ele>
<time>2015-04-30T12:04:48Z</time>
</trkpt>
<trkpt lat="34.8466144" lon="32.9107481">
<ele>564.01</ele>
<time>2015-04-30T12:04:50Z</time>
</trkpt>
<trkpt lat="34.8465696" lon="32.9107755">
<ele>562.82</ele>
<time>2015-04-30T12:04:52Z</time>
</trkpt>
<trkpt lat="34.8465278" lon="32.9107995">
<ele>563.28</ele>
<time>2015-04-30T12:04:54Z</time>
</trkpt>
<trkpt lat="34.8464843" lon="32.9108235">
<ele>564.14</ele>
<time>2015-04-30T12:04:56Z</time>
</trkpt>
<trkpt lat="34.8464386" lon="32.9108402">
<ele>565.35</ele>
<time>2015-04-30T12:04:58Z</time>
</trkpt>
<trkpt lat="34.8463995" lon="32.9108681">
<ele>565.16</ele>
<time>2015-04-30T12:05:00Z</time>
</trkpt>
<trkpt lat="34.8463617" lon="32.9109122">
<ele>567.06</ele>
<time>2015-04-30T12:05:03Z</time>
</trkpt>
<trkpt lat="34.8463297" lon="32.9109528">
<ele>567.67</ele>
<time>2015-04-30T12:05:06Z</time>
</trkpt>
<trkpt lat="34.8462994" lon="32.9110100">
<ele>567.75</ele>
<time>2015-04-30T12:05:09Z</time>
</trkpt>
<trkpt lat="34.8462614" lon="32.9110670">
<ele>569.01</ele>
<time>2015-04-30T12:05:12Z</time>
</trkpt>
<trkpt lat="34.8462109" lon="32.9111006">
<ele>569.17</ele>
<time>2015-04-30T12:05:15Z</time>
</trkpt>
<trkpt lat="34.8461673" lon="32.9111485">
<ele>568.06</ele>
<time>2015-04-30T12:05:18Z</time>
</trkpt>
<trkpt lat="34.8461195" lon="32.9111859">
<ele>571.67</ele>
<time>2015-04-30T12:05:21Z</time>
</trkpt>
<trkpt lat="34.8461469" lon="32.9111413">
<ele>568.76</ele>
<time>2015-04-30T12:05:40Z</time>
</trkpt>
<trkpt lat="34.8460887" lon="32.9111446">
<ele>566.14</ele>
<time>2015-04-30T12:10:05Z</time>
</trkpt>
<trkpt lat="34.8460337" lon="32.9111291">
<ele>566.93</ele>
<time>2015-04-30T12:10:08Z</time>
</trkpt>
<trkpt lat="34.8459956" lon="32.9110982">
<ele>565.53</ele>
<time>2015-04-30T12:10:11Z</time>
</trkpt>
<trkpt lat="34.8459923" lon="32.9110275">
<ele>566.50</ele>
<time>2015-04-30T12:10:15Z</time>
</trkpt>
<trkpt lat="34.8459973" lon="32.9109664">
<ele>567.60</ele>
<time>2015-04-30T12:10:18Z</time>
</trkpt>
<trkpt lat="34.8459796" lon="32.9108970">
<ele>567.37</ele>
<time>2015-04-30T12:10:21Z</time>
</trkpt>
<trkpt lat="34.8459682" lon="32.9108414">
<ele>567.21</ele>
<time>2015-04-30T12:10:24Z</time>
</trkpt>
<trkpt lat="34.8459782" lon="32.9107856">
<ele>567.73</ele>
<time>2015-04-30T12:10:28Z</time>
</trkpt>
<trkpt lat="34.8460296" lon="32.9108044">
<ele>568.13</ele>
<time>2015-04-30T12:10:31Z</time>
</trkpt>
<trkpt lat="34.8460794" lon="32.9108412">
<ele>568.43</ele>
<time>2015-04-30T12:10:34Z</time>
</trkpt>
<trkpt lat="34.8461073" lon="32.9108950">
<ele>566.22</ele>
<time>2015-04-30T12:10:37Z</time>
</trkpt>
<trkpt lat="34.8461374" lon="32.9109461">
<ele>564.44</ele>
<time>2015-04-30T12:10:40Z</time>
</trkpt>
<trkpt lat="34.8461628" lon="32.9109944">
<ele>564.68</ele>
<time>2015-04-30T12:10:42Z</time>
</trkpt>
<trkpt lat="34.8461842" lon="32.9110572">
<ele>565.49</ele>
<time>2015-04-30T12:10:44Z</time>
</trkpt>
<trkpt lat="34.8461920" lon="32.9111189">
<ele>565.69</ele>
<time>2015-04-30T12:10:46Z</time>
</trkpt>
<trkpt lat="34.8461849" lon="32.9111866">
<ele>565.26</ele>
<time>2015-04-30T12:10:50Z</time>
</trkpt>
<trkpt lat="34.8461700" lon="32.9112497">
<ele>564.95</ele>
<time>2015-04-30T12:10:53Z</time>
</trkpt>
<trkpt lat="34.8461686" lon="32.9113345">
<ele>564.06</ele>
<time>2015-04-30T12:10:55Z</time>
</trkpt>
<trkpt lat="34.8461441" lon="32.9114125">
<ele>563.83</ele>
<time>2015-04-30T12:10:57Z</time>
</trkpt>
<trkpt lat="34.8461026" lon="32.9114729">
<ele>563.78</ele>
<time>2015-04-30T12:10:59Z</time>
</trkpt>
<trkpt lat="34.8460653" lon="32.9115406">
<ele>563.76</ele>
<time>2015-04-30T12:11:01Z</time>
</trkpt>
<trkpt lat="34.8460381" lon="32.9116119">
<ele>564.26</ele>
<time>2015-04-30T12:11:03Z</time>
</trkpt>
<trkpt lat="34.8460134" lon="32.9116890">
<ele>565.14</ele>
<time>2015-04-30T12:11:05Z</time>
</trkpt>
<trkpt lat="34.8459983" lon="32.9117697">
<ele>565.10</ele>
<time>2015-04-30T12:11:07Z</time>
</trkpt>
<trkpt lat="34.8459892" lon="32.9118571">
<ele>564.85</ele>
<time>2015-04-30T12:11:09Z</time>
</trkpt>
<trkpt lat="34.8459808" lon="32.9119522">
<ele>565.03</ele>
<time>2015-04-30T12:11:11Z</time>
</trkpt>
<trkpt lat="34.8459825" lon="32.9120531">
<ele>564.83</ele>
<time>2015-04-30T12:11:13Z</time>
</trkpt>
<trkpt lat="34.8459887" lon="32.9121612">
<ele>565.53</ele>
<time>2015-04-30T12:11:15Z</time>
</trkpt>
<trkpt lat="34.8459934" lon="32.9122197">
<ele>565.64</ele>
<time>2015-04-30T12:11:16Z</time>
</trkpt>
<trkpt lat="34.8459981" lon="32.9122775">
<ele>566.20</ele>
<time>2015-04-30T12:11:17Z</time>
</trkpt>
<trkpt lat="34.8460085" lon="32.9123481">
<ele>566.48</ele>
<time>2015-04-30T12:11:18Z</time>
</trkpt>
<trkpt lat="34.8460162" lon="32.9124053">
<ele>566.62</ele>
<time>2015-04-30T12:11:19Z</time>
</trkpt>
<trkpt lat="34.8460172" lon="32.9124618">
<ele>566.69</ele>
<time>2015-04-30T12:11:20Z</time>
</trkpt>
<trkpt lat="34.8460182" lon="32.9125702">
<ele>567.24</ele>
<time>2015-04-30T12:11:22Z</time>
</trkpt>
<trkpt lat="34.8460148" lon="32.9126823">
<ele>567.63</ele>
<time>2015-04-30T12:11:24Z</time>
</trkpt>
<trkpt lat="34.8459887" lon="32.9127845">
<ele>567.98</ele>
<time>2015-04-30T12:11:26Z</time>
</trkpt>
<trkpt lat="34.8459686" lon="32.9128388">
<ele>567.87</ele>
<time>2015-04-30T12:11:27Z</time>
</trkpt>
<trkpt lat="34.8459503" lon="32.9128901">
<ele>567.81</ele>
<time>2015-04-30T12:11:28Z</time>
</trkpt>
<trkpt lat="34.8459157" lon="32.9129450">
<ele>567.79</ele>
<time>2015-04-30T12:11:29Z</time>
</trkpt>
<trkpt lat="34.8458882" lon="32.9129944">
<ele>567.77</ele>
<time>2015-04-30T12:11:30Z</time>
</trkpt>
<trkpt lat="34.8458570" lon="32.9130459">
<ele>567.27</ele>
<time>2015-04-30T12:11:31Z</time>
</trkpt>
<trkpt lat="34.8458190" lon="32.9131040">
<ele>567.01</ele>
<time>2015-04-30T12:11:32Z</time>
</trkpt>
<trkpt lat="34.8457766" lon="32.9131536">
<ele>566.39</ele>
<time>2015-04-30T12:11:33Z</time>
</trkpt>
<trkpt lat="34.8457321" lon="32.9132048">
<ele>566.07</ele>
<time>2015-04-30T12:11:34Z</time>
</trkpt>
<trkpt lat="34.8456756" lon="32.9132649">
<ele>565.92</ele>
<time>2015-04-30T12:11:35Z</time>
</trkpt>
<trkpt lat="34.8456121" lon="32.9133339">
<ele>565.84</ele>
<time>2015-04-30T12:11:36Z</time>
</trkpt>
<trkpt lat="34.8455518" lon="32.9133936">
<ele>565.30</ele>
<time>2015-04-30T12:11:37Z</time>
</trkpt>
<trkpt lat="34.8454922" lon="32.9134497">
<ele>565.03</ele>
<time>2015-04-30T12:11:38Z</time>
</trkpt>
<trkpt lat="34.8454418" lon="32.9134774">
<ele>565.39</ele>
<time>2015-04-30T12:11:39Z</time>
</trkpt>
<trkpt lat="34.8453673" lon="32.9135128">
<ele>566.58</ele>
<time>2015-04-30T12:11:40Z</time>
</trkpt>
<trkpt lat="34.8452898" lon="32.9135301">
<ele>567.67</ele>
<time>2015-04-30T12:11:41Z</time>
</trkpt>
<trkpt lat="34.8452265" lon="32.9135375">
<ele>567.71</ele>
<time>2015-04-30T12:11:42Z</time>
</trkpt>
<trkpt lat="34.8451643" lon="32.9135348">
<ele>567.74</ele>
<time>2015-04-30T12:11:43Z</time>
</trkpt>
<trkpt lat="34.8450942" lon="32.9135333">
<ele>567.75</ele>
<time>2015-04-30T12:11:44Z</time>
</trkpt>
<trkpt lat="34.8450404" lon="32.9135219">
<ele>567.75</ele>
<time>2015-04-30T12:11:45Z</time>
</trkpt>
<trkpt lat="34.8449804" lon="32.9135174">
<ele>567.26</ele>
<time>2015-04-30T12:11:46Z</time>
</trkpt>
<trkpt lat="34.8449188" lon="32.9135237">
<ele>566.51</ele>
<time>2015-04-30T12:11:47Z</time>
</trkpt>
<trkpt lat="34.8448558" lon="32.9135259">
<ele>565.63</ele>
<time>2015-04-30T12:11:48Z</time>
</trkpt>
<trkpt lat="34.8447972" lon="32.9135311">
<ele>564.70</ele>
<time>2015-04-30T12:11:49Z</time>
</trkpt>
<trkpt lat="34.8447347" lon="32.9135376">
<ele>564.23</ele>
<time>2015-04-30T12:11:50Z</time>
</trkpt>
<trkpt lat="34.8446764" lon="32.9135592">
<ele>563.99</ele>
<time>2015-04-30T12:11:51Z</time>
</trkpt>
<trkpt lat="34.8446144" lon="32.9135860">
<ele>563.88</ele>
<time>2015-04-30T12:11:52Z</time>
</trkpt>
<trkpt lat="34.8445690" lon="32.9136062">
<ele>563.82</ele>
<time>2015-04-30T12:11:53Z</time>
</trkpt>
<trkpt lat="34.8445224" lon="32.9136215">
<ele>564.29</ele>
<time>2015-04-30T12:11:54Z</time>
</trkpt>
<trkpt lat="34.8444700" lon="32.9136493">
<ele>564.02</ele>
<time>2015-04-30T12:11:55Z</time>
</trkpt>
<trkpt lat="34.8444192" lon="32.9136783">
<ele>563.89</ele>
<time>2015-04-30T12:11:56Z</time>
</trkpt>
<trkpt lat="34.8443693" lon="32.9136972">
<ele>563.83</ele>
<time>2015-04-30T12:11:57Z</time>
</trkpt>
<trkpt lat="34.8443155" lon="32.9137150">
<ele>564.29</ele>
<time>2015-04-30T12:11:58Z</time>
</trkpt>
<trkpt lat="34.8442667" lon="32.9137348">
<ele>564.53</ele>
<time>2015-04-30T12:11:59Z</time>
</trkpt>
<trkpt lat="34.8442154" lon="32.9137408">
<ele>565.14</ele>
<time>2015-04-30T12:12:00Z</time>
</trkpt>
<trkpt lat="34.8441172" lon="32.9137716">
<ele>564.11</ele>
<time>2015-04-30T12:12:02Z</time>
</trkpt>
<trkpt lat="34.8440652" lon="32.9137832">
<ele>564.43</ele>
<time>2015-04-30T12:12:03Z</time>
</trkpt>
<trkpt lat="34.8440048" lon="32.9137910">
<ele>564.60</ele>
<time>2015-04-30T12:12:04Z</time>
</trkpt>
<trkpt lat="34.8439576" lon="32.9137982">
<ele>564.68</ele>
<time>2015-04-30T12:12:05Z</time>
</trkpt>
<trkpt lat="34.8438940" lon="32.9138268">
<ele>564.99</ele>
<time>2015-04-30T12:12:07Z</time>
</trkpt>
<trkpt lat="34.8438500" lon="32.9138064">
<ele>565.66</ele>
<time>2015-04-30T12:12:10Z</time>
</trkpt>
<trkpt lat="34.8438169" lon="32.9137655">
<ele>564.99</ele>
<time>2015-04-30T12:12:12Z</time>
</trkpt>
<trkpt lat="34.8437827" lon="32.9137134">
<ele>564.82</ele>
<time>2015-04-30T12:12:14Z</time>
</trkpt>
<trkpt lat="34.8437492" lon="32.9136760">
<ele>564.77</ele>
<time>2015-04-30T12:12:16Z</time>
</trkpt>
<trkpt lat="34.8436870" lon="32.9136536">
<ele>565.14</ele>
<time>2015-04-30T12:12:19Z</time>
</trkpt>
<trkpt lat="34.8436301" lon="32.9136431">
<ele>565.68</ele>
<time>2015-04-30T12:12:22Z</time>
</trkpt>
<trkpt lat="34.8435744" lon="32.9136453">
<ele>566.63</ele>
<time>2015-04-30T12:12:26Z</time>
</trkpt>
<trkpt lat="34.8435318" lon="32.9136856">
<ele>565.81</ele>
<time>2015-04-30T12:12:30Z</time>
</trkpt>
<trkpt lat="34.8435781" lon="32.9137086">
<ele>566.52</ele>
<time>2015-04-30T12:12:32Z</time>
</trkpt>
<trkpt lat="34.8436279" lon="32.9136960">
<ele>566.95</ele>
<time>2015-04-30T12:12:34Z</time>
</trkpt>
<trkpt lat="34.8436725" lon="32.9136856">
<ele>566.81</ele>
<time>2015-04-30T12:12:36Z</time>
</trkpt>
<trkpt lat="34.8437340" lon="32.9136824">
<ele>566.27</ele>
<time>2015-04-30T12:12:38Z</time>
</trkpt>
<trkpt lat="34.8437892" lon="32.9136800">
<ele>565.14</ele>
<time>2015-04-30T12:12:40Z</time>
</trkpt>
<trkpt lat="34.8438374" lon="32.9136736">
<ele>564.35</ele>
<time>2015-04-30T12:12:42Z</time>
</trkpt>
<trkpt lat="34.8438681" lon="32.9137278">
<ele>563.33</ele>
<time>2015-04-30T12:12:45Z</time>
</trkpt>
<trkpt lat="34.8438449" lon="32.9137917">
<ele>563.71</ele>
<time>2015-04-30T12:12:48Z</time>
</trkpt>
<trkpt lat="34.8437924" lon="32.9138102">
<ele>563.75</ele>
<time>2015-04-30T12:12:51Z</time>
</trkpt>
<trkpt lat="34.8437451" lon="32.9138088">
<ele>563.76</ele>
<time>2015-04-30T12:12:53Z</time>
</trkpt>
<trkpt lat="34.8436570" lon="32.9138036">
<ele>563.76</ele>
<time>2015-04-30T12:12:56Z</time>
</trkpt>
<trkpt lat="34.8435857" lon="32.9138106">
<ele>564.26</ele>
<time>2015-04-30T12:12:58Z</time>
</trkpt>
<trkpt lat="34.8435132" lon="32.9138262">
<ele>564.64</ele>
<time>2015-04-30T12:13:00Z</time>
</trkpt>
<trkpt lat="34.8434461" lon="32.9138482">
<ele>564.48</ele>
<time>2015-04-30T12:13:02Z</time>
</trkpt>
<trkpt lat="34.8433823" lon="32.9138757">
<ele>564.69</ele>
<time>2015-04-30T12:13:04Z</time>
</trkpt>
<trkpt lat="34.8433193" lon="32.9139114">
<ele>564.49</ele>
<time>2015-04-30T12:13:06Z</time>
</trkpt>
<trkpt lat="34.8432709" lon="32.9139692">
<ele>563.44</ele>
<time>2015-04-30T12:13:08Z</time>
</trkpt>
<trkpt lat="34.8432279" lon="32.9140324">
<ele>562.93</ele>
<time>2015-04-30T12:13:10Z</time>
</trkpt>
<trkpt lat="34.8431838" lon="32.9141057">
<ele>563.55</ele>
<time>2015-04-30T12:13:12Z</time>
</trkpt>
<trkpt lat="34.8431434" lon="32.9141784">
<ele>563.71</ele>
<time>2015-04-30T12:13:14Z</time>
</trkpt>
<trkpt lat="34.8431138" lon="32.9142368">
<ele>563.73</ele>
<time>2015-04-30T12:13:15Z</time>
</trkpt>
<trkpt lat="34.8430708" lon="32.9143246">
<ele>565.00</ele>
<time>2015-04-30T12:13:17Z</time>
</trkpt>
<trkpt lat="34.8430381" lon="32.9144011">
<ele>566.32</ele>
<time>2015-04-30T12:13:19Z</time>
</trkpt>
<trkpt lat="34.8429974" lon="32.9144747">
<ele>567.40</ele>
<time>2015-04-30T12:13:21Z</time>
</trkpt>
<trkpt lat="34.8429601" lon="32.9145510">
<ele>567.67</ele>
<time>2015-04-30T12:13:23Z</time>
</trkpt>
<trkpt lat="34.8429220" lon="32.9146333">
<ele>568.24</ele>
<time>2015-04-30T12:13:25Z</time>
</trkpt>
<trkpt lat="34.8428835" lon="32.9147105">
<ele>568.63</ele>
<time>2015-04-30T12:13:27Z</time>
</trkpt>
<trkpt lat="34.8428461" lon="32.9147862">
<ele>569.23</ele>
<time>2015-04-30T12:13:29Z</time>
</trkpt>
<trkpt lat="34.8428042" lon="32.9148537">
<ele>569.63</ele>
<time>2015-04-30T12:13:31Z</time>
</trkpt>
<trkpt lat="34.8427562" lon="32.9149234">
<ele>569.23</ele>
<time>2015-04-30T12:13:33Z</time>
</trkpt>
<trkpt lat="34.8427026" lon="32.9149852">
<ele>568.88</ele>
<time>2015-04-30T12:13:35Z</time>
</trkpt>
<trkpt lat="34.8426424" lon="32.9150426">
<ele>568.04</ele>
<time>2015-04-30T12:13:37Z</time>
</trkpt>
<trkpt lat="34.8425896" lon="32.9150872">
<ele>567.83</ele>
<time>2015-04-30T12:13:39Z</time>
</trkpt>
<trkpt lat="34.8425254" lon="32.9151209">
<ele>567.78</ele>
<time>2015-04-30T12:13:41Z</time>
</trkpt>
<trkpt lat="34.8424574" lon="32.9151516">
<ele>567.51</ele>
<time>2015-04-30T12:13:43Z</time>
</trkpt>
<trkpt lat="34.8423830" lon="32.9151788">
<ele>566.95</ele>
<time>2015-04-30T12:13:45Z</time>
</trkpt>
<trkpt lat="34.8423061" lon="32.9151939">
<ele>566.81</ele>
<time>2015-04-30T12:13:47Z</time>
</trkpt>
<trkpt lat="34.8422241" lon="32.9151990">
<ele>566.77</ele>
<time>2015-04-30T12:13:49Z</time>
</trkpt>
<trkpt lat="34.8421430" lon="32.9151902">
<ele>566.76</ele>
<time>2015-04-30T12:13:51Z</time>
</trkpt>
<trkpt lat="34.8420883" lon="32.9151683">
<ele>566.76</ele>
<time>2015-04-30T12:13:52Z</time>
</trkpt>
<trkpt lat="34.8420419" lon="32.9151520">
<ele>566.76</ele>
<time>2015-04-30T12:13:53Z</time>
</trkpt>
<trkpt lat="34.8419892" lon="32.9151277">
<ele>567.26</ele>
<time>2015-04-30T12:13:54Z</time>
</trkpt>
<trkpt lat="34.8419391" lon="32.9150980">
<ele>567.01</ele>
<time>2015-04-30T12:13:55Z</time>
</trkpt>
<trkpt lat="34.8418904" lon="32.9150618">
<ele>566.89</ele>
<time>2015-04-30T12:13:56Z</time>
</trkpt>
<trkpt lat="34.8418430" lon="32.9150272">
<ele>566.32</ele>
<time>2015-04-30T12:13:57Z</time>
</trkpt>
<trkpt lat="34.8417995" lon="32.9149833">
<ele>566.04</ele>
<time>2015-04-30T12:13:58Z</time>
</trkpt>
<trkpt lat="34.8417540" lon="32.9149477">
<ele>565.90</ele>
<time>2015-04-30T12:13:59Z</time>
</trkpt>
<trkpt lat="34.8417134" lon="32.9148997">
<ele>565.83</ele>
<time>2015-04-30T12:14:00Z</time>
</trkpt>
<trkpt lat="34.8416759" lon="32.9148447">
<ele>565.30</ele>
<time>2015-04-30T12:14:01Z</time>
</trkpt>
<trkpt lat="34.8416384" lon="32.9147942">
<ele>565.03</ele>
<time>2015-04-30T12:14:02Z</time>
</trkpt>
<trkpt lat="34.8416012" lon="32.9147418">
<ele>564.89</ele>
<time>2015-04-30T12:14:03Z</time>
</trkpt>
<trkpt lat="34.8415597" lon="32.9146912">
<ele>564.33</ele>
<time>2015-04-30T12:14:04Z</time>
</trkpt>
<trkpt lat="34.8415202" lon="32.9146435">
<ele>564.04</ele>
<time>2015-04-30T12:14:05Z</time>
</trkpt>
<trkpt lat="34.8414848" lon="32.9145895">
<ele>563.40</ele>
<time>2015-04-30T12:14:06Z</time>
</trkpt>
<trkpt lat="34.8414443" lon="32.9145444">
<ele>563.08</ele>
<time>2015-04-30T12:14:07Z</time>
</trkpt>
<trkpt lat="34.8414028" lon="32.9144853">
<ele>562.92</ele>
<time>2015-04-30T12:14:08Z</time>
</trkpt>
<trkpt lat="34.8413706" lon="32.9144363">
<ele>562.84</ele>
<time>2015-04-30T12:14:09Z</time>
</trkpt>
<trkpt lat="34.8413426" lon="32.9143851">
<ele>562.80</ele>
<time>2015-04-30T12:14:10Z</time>
</trkpt>
<trkpt lat="34.8413111" lon="32.9143318">
<ele>562.28</ele>
<time>2015-04-30T12:14:11Z</time>
</trkpt>
<trkpt lat="34.8412709" lon="32.9142752">
<ele>562.02</ele>
<time>2015-04-30T12:14:12Z</time>
</trkpt>
<trkpt lat="34.8412357" lon="32.9142298">
<ele>561.89</ele>
<time>2015-04-30T12:14:13Z</time>
</trkpt>
<trkpt lat="34.8411988" lon="32.9141869">
<ele>561.83</ele>
<time>2015-04-30T12:14:14Z</time>
</trkpt>
<trkpt lat="34.8411564" lon="32.9141388">
<ele>561.79</ele>
<time>2015-04-30T12:14:15Z</time>
</trkpt>
<trkpt lat="34.8411167" lon="32.9140819">
<ele>562.28</ele>
<time>2015-04-30T12:14:16Z</time>
</trkpt>
<trkpt lat="34.8410871" lon="32.9140239">
<ele>561.52</ele>
<time>2015-04-30T12:14:17Z</time>
</trkpt>
<trkpt lat="34.8410450" lon="32.9139671">
<ele>560.64</ele>
<time>2015-04-30T12:14:18Z</time>
</trkpt>
<trkpt lat="34.8410077" lon="32.9139138">
<ele>560.20</ele>
<time>2015-04-30T12:14:19Z</time>
</trkpt>
<trkpt lat="34.8409692" lon="32.9138559">
<ele>559.98</ele>
<time>2015-04-30T12:14:20Z</time>
</trkpt>
<trkpt lat="34.8409323" lon="32.9138020">
<ele>559.37</ele>
<time>2015-04-30T12:14:21Z</time>
</trkpt>
<trkpt lat="34.8408897" lon="32.9137497">
<ele>559.06</ele>
<time>2015-04-30T12:14:22Z</time>
</trkpt>
<trkpt lat="34.8408452" lon="32.9136948">
<ele>558.91</ele>
<time>2015-04-30T12:14:23Z</time>
</trkpt>
<trkpt lat="34.8408003" lon="32.9136361">
<ele>559.34</ele>
<time>2015-04-30T12:14:24Z</time>
</trkpt>
<trkpt lat="34.8407669" lon="32.9135851">
<ele>559.55</ele>
<time>2015-04-30T12:14:25Z</time>
</trkpt>
<trkpt lat="34.8407203" lon="32.9135370">
<ele>559.65</ele>
<time>2015-04-30T12:14:26Z</time>
</trkpt>
<trkpt lat="34.8406856" lon="32.9134872">
<ele>559.71</ele>
<time>2015-04-30T12:14:27Z</time>
</trkpt>
<trkpt lat="34.8406453" lon="32.9134312">
<ele>559.73</ele>
<time>2015-04-30T12:14:28Z</time>
</trkpt>
<trkpt lat="34.8406052" lon="32.9133798">
<ele>560.25</ele>
<time>2015-04-30T12:14:29Z</time>
</trkpt>
<trkpt lat="34.8405491" lon="32.9133048">
<ele>559.88</ele>
<time>2015-04-30T12:14:31Z</time>
</trkpt>
<trkpt lat="34.8405137" lon="32.9132595">
<ele>559.82</ele>
<time>2015-04-30T12:14:32Z</time>
</trkpt>
<trkpt lat="34.8404826" lon="32.9132121">
<ele>560.29</ele>
<time>2015-04-30T12:14:33Z</time>
</trkpt>
<trkpt lat="34.8404570" lon="32.9131668">
<ele>560.53</ele>
<time>2015-04-30T12:14:34Z</time>
</trkpt>
<trkpt lat="34.8404248" lon="32.9131275">
<ele>560.64</ele>
<time>2015-04-30T12:14:35Z</time>
</trkpt>
<trkpt lat="34.8403966" lon="32.9130766">
<ele>560.70</ele>
<time>2015-04-30T12:14:36Z</time>
</trkpt>
<trkpt lat="34.8403690" lon="32.9130319">
<ele>560.73</ele>
<time>2015-04-30T12:14:37Z</time>
</trkpt>
<trkpt lat="34.8403082" lon="32.9129624">
<ele>560.25</ele>
<time>2015-04-30T12:14:39Z</time>
</trkpt>
<trkpt lat="34.8402565" lon="32.9128854">
<ele>559.88</ele>
<time>2015-04-30T12:14:41Z</time>
</trkpt>
<trkpt lat="34.8402207" lon="32.9128440">
<ele>560.32</ele>
<time>2015-04-30T12:14:42Z</time>
</trkpt>
<trkpt lat="34.8401565" lon="32.9127706">
<ele>561.15</ele>
<time>2015-04-30T12:14:44Z</time>
</trkpt>
<trkpt lat="34.8401003" lon="32.9126988">
<ele>561.11</ele>
<time>2015-04-30T12:14:46Z</time>
</trkpt>
<trkpt lat="34.8400424" lon="32.9126071">
<ele>561.35</ele>
<time>2015-04-30T12:14:48Z</time>
</trkpt>
<trkpt lat="34.8400099" lon="32.9125661">
<ele>561.55</ele>
<time>2015-04-30T12:14:49Z</time>
</trkpt>
<trkpt lat="34.8399506" lon="32.9124875">
<ele>560.96</ele>
<time>2015-04-30T12:14:51Z</time>
</trkpt>
<trkpt lat="34.8399034" lon="32.9124237">
<ele>561.06</ele>
<time>2015-04-30T12:14:53Z</time>
</trkpt>
<trkpt lat="34.8398540" lon="32.9123616">
<ele>560.83</ele>
<time>2015-04-30T12:14:55Z</time>
</trkpt>
<trkpt lat="34.8398227" lon="32.9123218">
<ele>560.80</ele>
<time>2015-04-30T12:14:56Z</time>
</trkpt>
<trkpt lat="34.8397859" lon="32.9122363">
<ele>560.27</ele>
<time>2015-04-30T12:14:58Z</time>
</trkpt>
<trkpt lat="34.8397353" lon="32.9121428">
<ele>561.14</ele>
<time>2015-04-30T12:15:00Z</time>
</trkpt>
<trkpt lat="34.8397015" lon="32.9120907">
<ele>561.45</ele>
<time>2015-04-30T12:15:01Z</time>
</trkpt>
<trkpt lat="34.8396655" lon="32.9120065">
<ele>562.43</ele>
<time>2015-04-30T12:15:03Z</time>
</trkpt>
<trkpt lat="34.8396464" lon="32.9119548">
<ele>563.10</ele>
<time>2015-04-30T12:15:04Z</time>
</trkpt>
<trkpt lat="34.8396202" lon="32.9119074">
<ele>563.43</ele>
<time>2015-04-30T12:15:05Z</time>
</trkpt>
<trkpt lat="34.8395738" lon="32.9118151">
<ele>563.68</ele>
<time>2015-04-30T12:15:07Z</time>
</trkpt>
<trkpt lat="34.8395390" lon="32.9117202">
<ele>563.74</ele>
<time>2015-04-30T12:15:09Z</time>
</trkpt>
<trkpt lat="34.8395102" lon="32.9116342">
<ele>564.25</ele>
<time>2015-04-30T12:15:11Z</time>
</trkpt>
<trkpt lat="34.8394809" lon="32.9115490">
<ele>563.88</ele>
<time>2015-04-30T12:15:13Z</time>
</trkpt>
<trkpt lat="34.8394580" lon="32.9114695">
<ele>564.79</ele>
<time>2015-04-30T12:15:15Z</time>
</trkpt>
<trkpt lat="34.8394410" lon="32.9113823">
<ele>564.77</ele>
<time>2015-04-30T12:15:17Z</time>
</trkpt>
<trkpt lat="34.8394274" lon="32.9112928">
<ele>564.76</ele>
<time>2015-04-30T12:15:19Z</time>
</trkpt>
<trkpt lat="34.8394151" lon="32.9112014">
<ele>565.51</ele>
<time>2015-04-30T12:15:21Z</time>
</trkpt>
<trkpt lat="34.8394097" lon="32.9111114">
<ele>566.20</ele>
<time>2015-04-30T12:15:23Z</time>
</trkpt>
<trkpt lat="34.8393997" lon="32.9110170">
<ele>566.37</ele>
<time>2015-04-30T12:15:25Z</time>
</trkpt>
<trkpt lat="34.8393876" lon="32.9109175">
<ele>566.66</ele>
<time>2015-04-30T12:15:27Z</time>
</trkpt>
<trkpt lat="34.8393785" lon="32.9108162">
<ele>567.24</ele>
<time>2015-04-30T12:15:29Z</time>
</trkpt>
<trkpt lat="34.8393781" lon="32.9107177">
<ele>566.88</ele>
<time>2015-04-30T12:15:31Z</time>
</trkpt>
<trkpt lat="34.8393809" lon="32.9106127">
<ele>566.79</ele>
<time>2015-04-30T12:15:33Z</time>
</trkpt>
<trkpt lat="34.8393833" lon="32.9105116">
<ele>567.52</ele>
<time>2015-04-30T12:15:35Z</time>
</trkpt>
<trkpt lat="34.8393820" lon="32.9104106">
<ele>568.20</ele>
<time>2015-04-30T12:15:37Z</time>
</trkpt>
<trkpt lat="34.8393754" lon="32.9103132">
<ele>567.87</ele>
<time>2015-04-30T12:15:39Z</time>
</trkpt>
<trkpt lat="34.8393678" lon="32.9102115">
<ele>568.54</ele>
<time>2015-04-30T12:15:41Z</time>
</trkpt>
<trkpt lat="34.8393598" lon="32.9101152">
<ele>568.70</ele>
<time>2015-04-30T12:15:43Z</time>
</trkpt>
<trkpt lat="34.8393454" lon="32.9100170">
<ele>569.25</ele>
<time>2015-04-30T12:15:45Z</time>
</trkpt>
<trkpt lat="34.8393042" lon="32.9099084">
<ele>569.63</ele>
<time>2015-04-30T12:15:47Z</time>
</trkpt>
<trkpt lat="34.8392722" lon="32.9098553">
<ele>569.70</ele>
<time>2015-04-30T12:15:48Z</time>
</trkpt>
<trkpt lat="34.8392494" lon="32.9097979">
<ele>569.73</ele>
<time>2015-04-30T12:15:49Z</time>
</trkpt>
<trkpt lat="34.8392161" lon="32.9097484">
<ele>569.74</ele>
<time>2015-04-30T12:15:50Z</time>
</trkpt>
<trkpt lat="34.8391937" lon="32.9096973">
<ele>569.75</ele>
<time>2015-04-30T12:15:51Z</time>
</trkpt>
<trkpt lat="34.8391634" lon="32.9096464">
<ele>569.76</ele>
<time>2015-04-30T12:15:52Z</time>
</trkpt>
<trkpt lat="34.8391414" lon="32.9095930">
<ele>569.76</ele>
<time>2015-04-30T12:15:53Z</time>
</trkpt>
<trkpt lat="34.8391108" lon="32.9095475">
<ele>569.76</ele>
<time>2015-04-30T12:15:54Z</time>
</trkpt>
<trkpt lat="34.8390538" lon="32.9094630">
<ele>569.76</ele>
<time>2015-04-30T12:15:56Z</time>
</trkpt>
<trkpt lat="34.8390215" lon="32.9094140">
<ele>570.26</ele>
<time>2015-04-30T12:15:57Z</time>
</trkpt>
<trkpt lat="34.8389823" lon="32.9093742">
<ele>570.01</ele>
<time>2015-04-30T12:15:58Z</time>
</trkpt>
<trkpt lat="34.8389421" lon="32.9093315">
<ele>569.88</ele>
<time>2015-04-30T12:15:59Z</time>
</trkpt>
<trkpt lat="34.8388960" lon="32.9092913">
<ele>569.82</ele>
<time>2015-04-30T12:16:00Z</time>
</trkpt>
<trkpt lat="34.8388533" lon="32.9092604">
<ele>569.79</ele>
<time>2015-04-30T12:16:01Z</time>
</trkpt>
<trkpt lat="34.8388076" lon="32.9092249">
<ele>569.78</ele>
<time>2015-04-30T12:16:02Z</time>
</trkpt>
<trkpt lat="34.8387628" lon="32.9091895">
<ele>569.77</ele>
<time>2015-04-30T12:16:03Z</time>
</trkpt>
<trkpt lat="34.8387131" lon="32.9091610">
<ele>569.76</ele>
<time>2015-04-30T12:16:04Z</time>
</trkpt>
<trkpt lat="34.8386684" lon="32.9091303">
<ele>569.76</ele>
<time>2015-04-30T12:16:05Z</time>
</trkpt>
<trkpt lat="34.8386238" lon="32.9091036">
<ele>569.26</ele>
<time>2015-04-30T12:16:06Z</time>
</trkpt>
<trkpt lat="34.8385830" lon="32.9090738">
<ele>569.01</ele>
<time>2015-04-30T12:16:07Z</time>
</trkpt>
<trkpt lat="34.8384977" lon="32.9090258">
<ele>569.57</ele>
<time>2015-04-30T12:16:09Z</time>
</trkpt>
<trkpt lat="34.8384550" lon="32.9089934">
<ele>569.67</ele>
<time>2015-04-30T12:16:10Z</time>
</trkpt>
<trkpt lat="34.8383652" lon="32.9089434">
<ele>569.74</ele>
<time>2015-04-30T12:16:12Z</time>
</trkpt>
<trkpt lat="34.8383207" lon="32.9089107">
<ele>570.25</ele>
<time>2015-04-30T12:16:13Z</time>
</trkpt>
<trkpt lat="34.8382788" lon="32.9088756">
<ele>570.50</ele>
<time>2015-04-30T12:16:14Z</time>
</trkpt>
<trkpt lat="34.8382381" lon="32.9088503">
<ele>571.13</ele>
<time>2015-04-30T12:16:15Z</time>
</trkpt>
<trkpt lat="34.8381951" lon="32.9088213">
<ele>571.95</ele>
<time>2015-04-30T12:16:16Z</time>
</trkpt>
<trkpt lat="34.8381542" lon="32.9087985">
<ele>572.35</ele>
<time>2015-04-30T12:16:17Z</time>
</trkpt>
<trkpt lat="34.8380807" lon="32.9087535">
<ele>573.91</ele>
<time>2015-04-30T12:16:19Z</time>
</trkpt>
<trkpt lat="34.8380071" lon="32.9087113">
<ele>574.55</ele>
<time>2015-04-30T12:16:21Z</time>
</trkpt>
<trkpt lat="34.8379411" lon="32.9086576">
<ele>573.96</ele>
<time>2015-04-30T12:16:23Z</time>
</trkpt>
<trkpt lat="34.8379003" lon="32.9086306">
<ele>573.86</ele>
<time>2015-04-30T12:16:24Z</time>
</trkpt>
<trkpt lat="34.8378252" lon="32.9085647">
<ele>574.28</ele>
<time>2015-04-30T12:16:26Z</time>
</trkpt>
<trkpt lat="34.8377918" lon="32.9085258">
<ele>574.02</ele>
<time>2015-04-30T12:16:27Z</time>
</trkpt>
<trkpt lat="34.8377513" lon="32.9084919">
<ele>574.39</ele>
<time>2015-04-30T12:16:28Z</time>
</trkpt>
<trkpt lat="34.8376902" lon="32.9084258">
<ele>574.42</ele>
<time>2015-04-30T12:16:30Z</time>
</trkpt>
<trkpt lat="34.8376348" lon="32.9083566">
<ele>574.67</ele>
<time>2015-04-30T12:16:32Z</time>
</trkpt>
<trkpt lat="34.8375775" lon="32.9082865">
<ele>574.74</ele>
<time>2015-04-30T12:16:34Z</time>
</trkpt>
<trkpt lat="34.8375294" lon="32.9082309">
<ele>574.25</ele>
<time>2015-04-30T12:16:36Z</time>
</trkpt>
<trkpt lat="34.8374813" lon="32.9081710">
<ele>573.88</ele>
<time>2015-04-30T12:16:38Z</time>
</trkpt>
<trkpt lat="34.8374268" lon="32.9081154">
<ele>574.54</ele>
<time>2015-04-30T12:16:40Z</time>
</trkpt>
<trkpt lat="34.8373704" lon="32.9080610">
<ele>574.71</ele>
<time>2015-04-30T12:16:42Z</time>
</trkpt>
<trkpt lat="34.8373183" lon="32.9079982">
<ele>575.25</ele>
<time>2015-04-30T12:16:44Z</time>
</trkpt>
<trkpt lat="34.8372663" lon="32.9079349">
<ele>575.13</ele>
<time>2015-04-30T12:16:46Z</time>
</trkpt>
<trkpt lat="34.8372101" lon="32.9078726">
<ele>574.85</ele>
<time>2015-04-30T12:16:48Z</time>
</trkpt>
<trkpt lat="34.8371526" lon="32.9078055">
<ele>574.78</ele>
<time>2015-04-30T12:16:50Z</time>
</trkpt>
<trkpt lat="34.8370928" lon="32.9077386">
<ele>575.52</ele>
<time>2015-04-30T12:16:52Z</time>
</trkpt>
<trkpt lat="34.8370320" lon="32.9076726">
<ele>575.20</ele>
<time>2015-04-30T12:16:54Z</time>
</trkpt>
<trkpt lat="34.8369700" lon="32.9076112">
<ele>574.87</ele>
<time>2015-04-30T12:16:56Z</time>
</trkpt>
<trkpt lat="34.8369102" lon="32.9075498">
<ele>574.79</ele>
<time>2015-04-30T12:16:58Z</time>
</trkpt>
<trkpt lat="34.8368511" lon="32.9074910">
<ele>574.77</ele>
<time>2015-04-30T12:17:00Z</time>
</trkpt>
<trkpt lat="34.8367913" lon="32.9074310">
<ele>575.51</ele>
<time>2015-04-30T12:17:02Z</time>
</trkpt>
<trkpt lat="34.8367296" lon="32.9073747">
<ele>575.70</ele>
<time>2015-04-30T12:17:04Z</time>
</trkpt>
<trkpt lat="34.8366726" lon="32.9073186">
<ele>575.74</ele>
<time>2015-04-30T12:17:06Z</time>
</trkpt>
<trkpt lat="34.8366252" lon="32.9072658">
<ele>576.51</ele>
<time>2015-04-30T12:17:08Z</time>
</trkpt>
<trkpt lat="34.8365707" lon="32.9072169">
<ele>576.70</ele>
<time>2015-04-30T12:17:10Z</time>
</trkpt>
<trkpt lat="34.8365099" lon="32.9071796">
<ele>576.24</ele>
<time>2015-04-30T12:17:12Z</time>
</trkpt>
<trkpt lat="34.8364409" lon="32.9071509">
<ele>576.63</ele>
<time>2015-04-30T12:17:14Z</time>
</trkpt>
<trkpt lat="34.8363688" lon="32.9071311">
<ele>576.73</ele>
<time>2015-04-30T12:17:16Z</time>
</trkpt>
<trkpt lat="34.8362954" lon="32.9071280">
<ele>576.75</ele>
<time>2015-04-30T12:17:18Z</time>
</trkpt>
<trkpt lat="34.8362190" lon="32.9071456">
<ele>577.26</ele>
<time>2015-04-30T12:17:20Z</time>
</trkpt>
<trkpt lat="34.8361434" lon="32.9071713">
<ele>577.13</ele>
<time>2015-04-30T12:17:22Z</time>
</trkpt>
<trkpt lat="34.8360650" lon="32.9072138">
<ele>576.85</ele>
<time>2015-04-30T12:17:24Z</time>
</trkpt>
<trkpt lat="34.8359893" lon="32.9072554">
<ele>576.78</ele>
<time>2015-04-30T12:17:26Z</time>
</trkpt>
<trkpt lat="34.8359178" lon="32.9073018">
<ele>576.02</ele>
<time>2015-04-30T12:17:28Z</time>
</trkpt>
<trkpt lat="34.8358687" lon="32.9073362">
<ele>575.89</ele>
<time>2015-04-30T12:17:29Z</time>
</trkpt>
<trkpt lat="34.8357642" lon="32.9074024">
<ele>575.04</ele>
<time>2015-04-30T12:17:31Z</time>
</trkpt>
<trkpt lat="34.8357084" lon="32.9074318">
<ele>574.90</ele>
<time>2015-04-30T12:17:32Z</time>
</trkpt>
<trkpt lat="34.8356544" lon="32.9074612">
<ele>574.33</ele>
<time>2015-04-30T12:17:33Z</time>
</trkpt>
<trkpt lat="34.8355964" lon="32.9074882">
<ele>574.05</ele>
<time>2015-04-30T12:17:34Z</time>
</trkpt>
<trkpt lat="34.8355387" lon="32.9075168">
<ele>573.40</ele>
<time>2015-04-30T12:17:35Z</time>
</trkpt>
<trkpt lat="34.8354793" lon="32.9075508">
<ele>573.08</ele>
<time>2015-04-30T12:17:36Z</time>
</trkpt>
<trkpt lat="34.8354133" lon="32.9075860">
<ele>572.92</ele>
<time>2015-04-30T12:17:37Z</time>
</trkpt>
<trkpt lat="34.8353496" lon="32.9076213">
<ele>572.34</ele>
<time>2015-04-30T12:17:38Z</time>
</trkpt>
<trkpt lat="34.8352824" lon="32.9076653">
<ele>571.55</ele>
<time>2015-04-30T12:17:39Z</time>
</trkpt>
<trkpt lat="34.8352194" lon="32.9077104">
<ele>571.16</ele>
<time>2015-04-30T12:17:40Z</time>
</trkpt>
<trkpt lat="34.8351604" lon="32.9077467">
<ele>570.96</ele>
<time>2015-04-30T12:17:41Z</time>
</trkpt>
<trkpt lat="34.8351045" lon="32.9077941">
<ele>570.36</ele>
<time>2015-04-30T12:17:42Z</time>
</trkpt>
<trkpt lat="34.8350477" lon="32.9078467">
<ele>570.06</ele>
<time>2015-04-30T12:17:43Z</time>
</trkpt>
<trkpt lat="34.8349899" lon="32.9079021">
<ele>569.41</ele>
<time>2015-04-30T12:17:44Z</time>
</trkpt>
<trkpt lat="34.8349411" lon="32.9079891">
<ele>569.58</ele>
<time>2015-04-30T12:17:45Z</time>
</trkpt>
<trkpt lat="34.8348907" lon="32.9080585">
<ele>569.17</ele>
<time>2015-04-30T12:17:46Z</time>
</trkpt>
<trkpt lat="34.8348701" lon="32.9081558">
<ele>568.97</ele>
<time>2015-04-30T12:17:47Z</time>
</trkpt>
<trkpt lat="34.8348372" lon="32.9082544">
<ele>568.86</ele>
<time>2015-04-30T12:17:48Z</time>
</trkpt>
<trkpt lat="34.8348061" lon="32.9083582">
<ele>568.81</ele>
<time>2015-04-30T12:17:49Z</time>
</trkpt>
<trkpt lat="34.8347814" lon="32.9084599">
<ele>568.29</ele>
<time>2015-04-30T12:17:50Z</time>
</trkpt>
<trkpt lat="34.8347582" lon="32.9085701">
<ele>568.02</ele>
<time>2015-04-30T12:17:51Z</time>
</trkpt>
<trkpt lat="34.8347347" lon="32.9086846">
<ele>567.89</ele>
<time>2015-04-30T12:17:52Z</time>
</trkpt>
<trkpt lat="34.8347147" lon="32.9087950">
<ele>567.33</ele>
<time>2015-04-30T12:17:53Z</time>
</trkpt>
<trkpt lat="34.8346927" lon="32.9089127">
<ele>566.54</ele>
<time>2015-04-30T12:17:54Z</time>
</trkpt>
<trkpt lat="34.8346641" lon="32.9090248">
<ele>566.15</ele>
<time>2015-04-30T12:17:55Z</time>
</trkpt>
<trkpt lat="34.8346321" lon="32.9091497">
<ele>565.96</ele>
<time>2015-04-30T12:17:56Z</time>
</trkpt>
<trkpt lat="34.8346031" lon="32.9092660">
<ele>565.36</ele>
<time>2015-04-30T12:17:57Z</time>
</trkpt>
<trkpt lat="34.8345739" lon="32.9093787">
<ele>565.06</ele>
<time>2015-04-30T12:17:58Z</time>
</trkpt>
<trkpt lat="34.8345474" lon="32.9094983">
<ele>564.41</ele>
<time>2015-04-30T12:17:59Z</time>
</trkpt>
<trkpt lat="34.8345210" lon="32.9096293">
<ele>563.58</ele>
<time>2015-04-30T12:18:00Z</time>
</trkpt>
<trkpt lat="34.8345012" lon="32.9097437">
<ele>563.17</ele>
<time>2015-04-30T12:18:01Z</time>
</trkpt>
<trkpt lat="34.8344751" lon="32.9098674">
<ele>562.47</ele>
<time>2015-04-30T12:18:02Z</time>
</trkpt>
<trkpt lat="34.8344450" lon="32.9099822">
<ele>562.11</ele>
<time>2015-04-30T12:18:03Z</time>
</trkpt>
<trkpt lat="34.8344148" lon="32.9101115">
<ele>561.44</ele>
<time>2015-04-30T12:18:04Z</time>
</trkpt>
<trkpt lat="34.8343673" lon="32.9102256">
<ele>561.10</ele>
<time>2015-04-30T12:18:05Z</time>
</trkpt>
<trkpt lat="34.8343179" lon="32.9103354">
<ele>560.43</ele>
<time>2015-04-30T12:18:06Z</time>
</trkpt>
<trkpt lat="34.8342637" lon="32.9104399">
<ele>560.09</ele>
<time>2015-04-30T12:18:07Z</time>
</trkpt>
<trkpt lat="34.8341881" lon="32.9105345">
<ele>559.43</ele>
<time>2015-04-30T12:18:08Z</time>
</trkpt>
<trkpt lat="34.8341116" lon="32.9106140">
<ele>559.09</ele>
<time>2015-04-30T12:18:09Z</time>
</trkpt>
<trkpt lat="34.8340303" lon="32.9106816">
<ele>558.43</ele>
<time>2015-04-30T12:18:10Z</time>
</trkpt>
<trkpt lat="34.8339450" lon="32.9107383">
<ele>558.59</ele>
<time>2015-04-30T12:18:11Z</time>
</trkpt>
<trkpt lat="34.8338546" lon="32.9107826">
<ele>558.18</ele>
<time>2015-04-30T12:18:12Z</time>
</trkpt>
<trkpt lat="34.8337604" lon="32.9108183">
<ele>557.97</ele>
<time>2015-04-30T12:18:13Z</time>
</trkpt>
<trkpt lat="34.8336735" lon="32.9108485">
<ele>557.86</ele>
<time>2015-04-30T12:18:14Z</time>
</trkpt>
<trkpt lat="34.8335910" lon="32.9108730">
<ele>557.81</ele>
<time>2015-04-30T12:18:15Z</time>
</trkpt>
<trkpt lat="34.8335018" lon="32.9108914">
<ele>557.79</ele>
<time>2015-04-30T12:18:16Z</time>
</trkpt>
<trkpt lat="34.8334158" lon="32.9109158">
<ele>557.77</ele>
<time>2015-04-30T12:18:17Z</time>
</trkpt>
<trkpt lat="34.8333350" lon="32.9109336">
<ele>557.77</ele>
<time>2015-04-30T12:18:18Z</time>
</trkpt>
<trkpt lat="34.8332589" lon="32.9109577">
<ele>558.26</ele>
<time>2015-04-30T12:18:19Z</time>
</trkpt>
<trkpt lat="34.8331806" lon="32.9109787">
<ele>558.51</ele>
<time>2015-04-30T12:18:20Z</time>
</trkpt>
<trkpt lat="34.8331088" lon="32.9110019">
<ele>558.64</ele>
<time>2015-04-30T12:18:21Z</time>
</trkpt>
<trkpt lat="34.8330403" lon="32.9110195">
<ele>558.70</ele>
<time>2015-04-30T12:18:22Z</time>
</trkpt>
<trkpt lat="34.8329769" lon="32.9110314">
<ele>558.73</ele>
<time>2015-04-30T12:18:23Z</time>
</trkpt>
<trkpt lat="34.8329082" lon="32.9110507">
<ele>558.74</ele>
<time>2015-04-30T12:18:24Z</time>
</trkpt>
<trkpt lat="34.8328439" lon="32.9110653">
<ele>559.25</ele>
<time>2015-04-30T12:18:25Z</time>
</trkpt>
<trkpt lat="34.8327849" lon="32.9110840">
<ele>560.01</ele>
<time>2015-04-30T12:18:26Z</time>
</trkpt>
<trkpt lat="34.8327213" lon="32.9111072">
<ele>560.38</ele>
<time>2015-04-30T12:18:27Z</time>
</trkpt>
<trkpt lat="34.8326592" lon="32.9111257">
<ele>561.07</ele>
<time>2015-04-30T12:18:28Z</time>
</trkpt>
<trkpt lat="34.8325968" lon="32.9111444">
<ele>561.42</ele>
<time>2015-04-30T12:18:29Z</time>
</trkpt>
<trkpt lat="34.8325335" lon="32.9111643">
<ele>561.59</ele>
<time>2015-04-30T12:18:30Z</time>
</trkpt>
<trkpt lat="34.8324756" lon="32.9111846">
<ele>561.67</ele>
<time>2015-04-30T12:18:31Z</time>
</trkpt>
<trkpt lat="34.8324137" lon="32.9111944">
<ele>561.72</ele>
<time>2015-04-30T12:18:32Z</time>
</trkpt>
<trkpt lat="34.8323569" lon="32.9112111">
<ele>562.24</ele>
<time>2015-04-30T12:18:33Z</time>
</trkpt>
<trkpt lat="34.8323056" lon="32.9112311">
<ele>562.50</ele>
<time>2015-04-30T12:18:34Z</time>
</trkpt>
<trkpt lat="34.8322584" lon="32.9112484">
<ele>562.63</ele>
<time>2015-04-30T12:18:35Z</time>
</trkpt>
<trkpt lat="34.8322112" lon="32.9112698">
<ele>562.69</ele>
<time>2015-04-30T12:18:36Z</time>
</trkpt>
<trkpt lat="34.8321280" lon="32.9113093">
<ele>562.74</ele>
<time>2015-04-30T12:18:38Z</time>
</trkpt>
<trkpt lat="34.8320872" lon="32.9113334">
<ele>562.75</ele>
<time>2015-04-30T12:18:39Z</time>
</trkpt>
<trkpt lat="34.8320459" lon="32.9113663">
<ele>563.26</ele>
<time>2015-04-30T12:18:40Z</time>
</trkpt>
<trkpt lat="34.8319759" lon="32.9114284">
<ele>562.88</ele>
<time>2015-04-30T12:18:42Z</time>
</trkpt>
<trkpt lat="34.8319075" lon="32.9115006">
<ele>562.29</ele>
<time>2015-04-30T12:18:44Z</time>
</trkpt>
<trkpt lat="34.8318742" lon="32.9115417">
<ele>562.03</ele>
<time>2015-04-30T12:18:45Z</time>
</trkpt>
<trkpt lat="34.8318442" lon="32.9115861">
<ele>561.89</ele>
<time>2015-04-30T12:18:46Z</time>
</trkpt>
<trkpt lat="34.8318238" lon="32.9116390">
<ele>561.83</ele>
<time>2015-04-30T12:18:47Z</time>
</trkpt>
<trkpt lat="34.8318028" lon="32.9116880">
<ele>561.79</ele>
<time>2015-04-30T12:18:48Z</time>
</trkpt>
<trkpt lat="34.8317554" lon="32.9117801">
<ele>561.77</ele>
<time>2015-04-30T12:18:50Z</time>
</trkpt>
<trkpt lat="34.8317283" lon="32.9118727">
<ele>561.51</ele>
<time>2015-04-30T12:18:52Z</time>
</trkpt>
<trkpt lat="34.8317044" lon="32.9119709">
<ele>561.20</ele>
<time>2015-04-30T12:18:54Z</time>
</trkpt>
<trkpt lat="34.8316844" lon="32.9120809">
<ele>561.37</ele>
<time>2015-04-30T12:18:56Z</time>
</trkpt>
<trkpt lat="34.8316745" lon="32.9121451">
<ele>561.56</ele>
<time>2015-04-30T12:18:57Z</time>
</trkpt>
<trkpt lat="34.8316687" lon="32.9122132">
<ele>561.66</ele>
<time>2015-04-30T12:18:58Z</time>
</trkpt>
<trkpt lat="34.8316692" lon="32.9122781">
<ele>561.71</ele>
<time>2015-04-30T12:18:59Z</time>
</trkpt>
<trkpt lat="34.8316724" lon="32.9123450">
<ele>561.74</ele>
<time>2015-04-30T12:19:00Z</time>
</trkpt>
<trkpt lat="34.8316732" lon="32.9124144">
<ele>561.25</ele>
<time>2015-04-30T12:19:01Z</time>
</trkpt>
<trkpt lat="34.8316684" lon="32.9124804">
<ele>561.00</ele>
<time>2015-04-30T12:19:02Z</time>
</trkpt>
<trkpt lat="34.8316819" lon="32.9125857">
<ele>560.82</ele>
<time>2015-04-30T12:19:04Z</time>
</trkpt>
<trkpt lat="34.8316780" lon="32.9126497">
<ele>560.79</ele>
<time>2015-04-30T12:19:05Z</time>
</trkpt>
<trkpt lat="34.8316785" lon="32.9127163">
<ele>560.28</ele>
<time>2015-04-30T12:19:06Z</time>
</trkpt>
<trkpt lat="34.8316871" lon="32.9127737">
<ele>560.52</ele>
<time>2015-04-30T12:19:07Z</time>
</trkpt>
<trkpt lat="34.8316900" lon="32.9128511">
<ele>560.64</ele>
<time>2015-04-30T12:19:08Z</time>
</trkpt>
<trkpt lat="34.8316926" lon="32.9129248">
<ele>561.20</ele>
<time>2015-04-30T12:19:09Z</time>
</trkpt>
<trkpt lat="34.8316865" lon="32.9130046">
<ele>561.48</ele>
<time>2015-04-30T12:19:10Z</time>
</trkpt>
<trkpt lat="34.8316879" lon="32.9130809">
<ele>562.12</ele>
<time>2015-04-30T12:19:11Z</time>
</trkpt>
<trkpt lat="34.8316840" lon="32.9131652">
<ele>561.94</ele>
<time>2015-04-30T12:19:12Z</time>
</trkpt>
<trkpt lat="34.8316826" lon="32.9132318">
<ele>561.85</ele>
<time>2015-04-30T12:19:13Z</time>
</trkpt>
<trkpt lat="34.8316831" lon="32.9133043">
<ele>561.80</ele>
<time>2015-04-30T12:19:14Z</time>
</trkpt>
<trkpt lat="34.8316818" lon="32.9133670">
<ele>561.78</ele>
<time>2015-04-30T12:19:15Z</time>
</trkpt>
<trkpt lat="34.8316779" lon="32.9134391">
<ele>561.77</ele>
<time>2015-04-30T12:19:16Z</time>
</trkpt>
<trkpt lat="34.8316779" lon="32.9135057">
<ele>562.27</ele>
<time>2015-04-30T12:19:17Z</time>
</trkpt>
<trkpt lat="34.8316837" lon="32.9135796">
<ele>562.51</ele>
<time>2015-04-30T12:19:18Z</time>
</trkpt>
<trkpt lat="34.8316923" lon="32.9136443">
<ele>562.64</ele>
<time>2015-04-30T12:19:19Z</time>
</trkpt>
<trkpt lat="34.8316947" lon="32.9137268">
<ele>562.20</ele>
<time>2015-04-30T12:19:20Z</time>
</trkpt>
<trkpt lat="34.8316992" lon="32.9137985">
<ele>562.48</ele>
<time>2015-04-30T12:19:21Z</time>
</trkpt>
<trkpt lat="34.8317014" lon="32.9138764">
<ele>562.62</ele>
<time>2015-04-30T12:19:22Z</time>
</trkpt>
<trkpt lat="34.8317048" lon="32.9139508">
<ele>562.69</ele>
<time>2015-04-30T12:19:23Z</time>
</trkpt>
<trkpt lat="34.8317108" lon="32.9140242">
<ele>562.22</ele>
<time>2015-04-30T12:19:24Z</time>
</trkpt>
<trkpt lat="34.8317184" lon="32.9141011">
<ele>561.49</ele>
<time>2015-04-30T12:19:25Z</time>
</trkpt>
<trkpt lat="34.8317216" lon="32.9141654">
<ele>560.63</ele>
<time>2015-04-30T12:19:26Z</time>
</trkpt>
<trkpt lat="34.8317311" lon="32.9142478">
<ele>560.19</ele>
<time>2015-04-30T12:19:27Z</time>
</trkpt>
<trkpt lat="34.8317375" lon="32.9143286">
<ele>559.98</ele>
<time>2015-04-30T12:19:28Z</time>
</trkpt>
<trkpt lat="34.8317402" lon="32.9144038">
<ele>559.87</ele>
<time>2015-04-30T12:19:29Z</time>
</trkpt>
<trkpt lat="34.8317460" lon="32.9144781">
<ele>559.31</ele>
<time>2015-04-30T12:19:30Z</time>
</trkpt>
<trkpt lat="34.8317424" lon="32.9145498">
<ele>558.54</ele>
<time>2015-04-30T12:19:31Z</time>
</trkpt>
<trkpt lat="34.8317363" lon="32.9146286">
<ele>557.65</ele>
<time>2015-04-30T12:19:32Z</time>
</trkpt>
<trkpt lat="34.8317380" lon="32.9147028">
<ele>557.20</ele>
<time>2015-04-30T12:19:33Z</time>
</trkpt>
<trkpt lat="34.8317337" lon="32.9147931">
<ele>555.98</ele>
<time>2015-04-30T12:19:34Z</time>
</trkpt>
<trkpt lat="34.8317406" lon="32.9148709">
<ele>556.37</ele>
<time>2015-04-30T12:19:35Z</time>
</trkpt>
<trkpt lat="34.8317331" lon="32.9149571">
<ele>556.57</ele>
<time>2015-04-30T12:19:36Z</time>
</trkpt>
<trkpt lat="34.8317252" lon="32.9150340">
<ele>556.16</ele>
<time>2015-04-30T12:19:37Z</time>
</trkpt>
<trkpt lat="34.8317162" lon="32.9151138">
<ele>555.96</ele>
<time>2015-04-30T12:19:38Z</time>
</trkpt>
<trkpt lat="34.8316998" lon="32.9151950">
<ele>555.36</ele>
<time>2015-04-30T12:19:39Z</time>
</trkpt>
<trkpt lat="34.8316908" lon="32.9152742">
<ele>555.06</ele>
<time>2015-04-30T12:19:40Z</time>
</trkpt>
<trkpt lat="34.8316682" lon="32.9153593">
<ele>554.91</ele>
<time>2015-04-30T12:19:41Z</time>
</trkpt>
<trkpt lat="34.8316500" lon="32.9154548">
<ele>554.84</ele>
<time>2015-04-30T12:19:42Z</time>
</trkpt>
<trkpt lat="34.8316298" lon="32.9155314">
<ele>554.80</ele>
<time>2015-04-30T12:19:43Z</time>
</trkpt>
<trkpt lat="34.8316075" lon="32.9156142">
<ele>554.78</ele>
<time>2015-04-30T12:19:44Z</time>
</trkpt>
<trkpt lat="34.8315766" lon="32.9156969">
<ele>554.27</ele>
<time>2015-04-30T12:19:45Z</time>
</trkpt>
<trkpt lat="34.8315425" lon="32.9157739">
<ele>554.01</ele>
<time>2015-04-30T12:19:46Z</time>
</trkpt>
<trkpt lat="34.8315103" lon="32.9158316">
<ele>553.39</ele>
<time>2015-04-30T12:19:47Z</time>
</trkpt>
<trkpt lat="34.8314692" lon="32.9158938">
<ele>553.07</ele>
<time>2015-04-30T12:19:48Z</time>
</trkpt>
<trkpt lat="34.8314269" lon="32.9159584">
<ele>552.92</ele>
<time>2015-04-30T12:19:49Z</time>
</trkpt>
<trkpt lat="34.8313824" lon="32.9160166">
<ele>552.84</ele>
<time>2015-04-30T12:19:50Z</time>
</trkpt>
<trkpt lat="34.8313349" lon="32.9160709">
<ele>552.80</ele>
<time>2015-04-30T12:19:51Z</time>
</trkpt>
<trkpt lat="34.8312878" lon="32.9161212">
<ele>552.78</ele>
<time>2015-04-30T12:19:52Z</time>
</trkpt>
<trkpt lat="34.8312441" lon="32.9161685">
<ele>552.77</ele>
<time>2015-04-30T12:19:53Z</time>
</trkpt>
<trkpt lat="34.8311916" lon="32.9162031">
<ele>553.26</ele>
<time>2015-04-30T12:19:54Z</time>
</trkpt>
<trkpt lat="34.8311443" lon="32.9162424">
<ele>553.51</ele>
<time>2015-04-30T12:19:55Z</time>
</trkpt>
<trkpt lat="34.8310857" lon="32.9162702">
<ele>553.14</ele>
<time>2015-04-30T12:19:56Z</time>
</trkpt>
<trkpt lat="34.8310413" lon="32.9163051">
<ele>552.95</ele>
<time>2015-04-30T12:19:57Z</time>
</trkpt>
<trkpt lat="34.8309851" lon="32.9163375">
<ele>552.85</ele>
<time>2015-04-30T12:19:58Z</time>
</trkpt>
<trkpt lat="34.8309311" lon="32.9163707">
<ele>552.81</ele>
<time>2015-04-30T12:19:59Z</time>
</trkpt>
<trkpt lat="34.8308714" lon="32.9163918">
<ele>552.28</ele>
<time>2015-04-30T12:20:00Z</time>
</trkpt>
<trkpt lat="34.8308135" lon="32.9164171">
<ele>552.52</ele>
<time>2015-04-30T12:20:01Z</time>
</trkpt>
<trkpt lat="34.8307581" lon="32.9164362">
<ele>552.64</ele>
<time>2015-04-30T12:20:02Z</time>
</trkpt>
<trkpt lat="34.8306994" lon="32.9164549">
<ele>552.70</ele>
<time>2015-04-30T12:20:03Z</time>
</trkpt>
<trkpt lat="34.8306331" lon="32.9164704">
<ele>552.73</ele>
<time>2015-04-30T12:20:04Z</time>
</trkpt>
<trkpt lat="34.8305641" lon="32.9164772">
<ele>552.75</ele>
<time>2015-04-30T12:20:05Z</time>
</trkpt>
<trkpt lat="34.8304964" lon="32.9164821">
<ele>552.25</ele>
<time>2015-04-30T12:20:06Z</time>
</trkpt>
<trkpt lat="34.8304200" lon="32.9164797">
<ele>551.51</ele>
<time>2015-04-30T12:20:07Z</time>
</trkpt>
<trkpt lat="34.8303480" lon="32.9164783">
<ele>551.13</ele>
<time>2015-04-30T12:20:08Z</time>
</trkpt>
<trkpt lat="34.8302886" lon="32.9164776">
<ele>550.95</ele>
<time>2015-04-30T12:20:09Z</time>
</trkpt>
<trkpt lat="34.8302171" lon="32.9164721">
<ele>550.85</ele>
<time>2015-04-30T12:20:10Z</time>
</trkpt>
<trkpt lat="34.8301515" lon="32.9164631">
<ele>550.31</ele>
<time>2015-04-30T12:20:11Z</time>
</trkpt>
<trkpt lat="34.8300802" lon="32.9164535">
<ele>550.53</ele>
<time>2015-04-30T12:20:12Z</time>
</trkpt>
<trkpt lat="34.8300189" lon="32.9164340">
<ele>551.15</ele>
<time>2015-04-30T12:20:13Z</time>
</trkpt>
<trkpt lat="34.8299586" lon="32.9164182">
<ele>550.95</ele>
<time>2015-04-30T12:20:14Z</time>
</trkpt>
<trkpt lat="34.8299004" lon="32.9163989">
<ele>550.86</ele>
<time>2015-04-30T12:20:15Z</time>
</trkpt>
<trkpt lat="34.8298333" lon="32.9163573">
<ele>551.31</ele>
<time>2015-04-30T12:20:16Z</time>
</trkpt>
<trkpt lat="34.8297684" lon="32.9163203">
<ele>551.53</ele>
<time>2015-04-30T12:20:17Z</time>
</trkpt>
<trkpt lat="34.8297070" lon="32.9162840">
<ele>551.65</ele>
<time>2015-04-30T12:20:18Z</time>
</trkpt>
<trkpt lat="34.8296523" lon="32.9162310">
<ele>550.70</ele>
<time>2015-04-30T12:20:19Z</time>
</trkpt>
<trkpt lat="34.8295926" lon="32.9161803">
<ele>550.23</ele>
<time>2015-04-30T12:20:20Z</time>
</trkpt>
<trkpt lat="34.8295403" lon="32.9161336">
<ele>550.00</ele>
<time>2015-04-30T12:20:21Z</time>
</trkpt>
<trkpt lat="34.8294883" lon="32.9160845">
<ele>550.38</ele>
<time>2015-04-30T12:20:22Z</time>
</trkpt>
<trkpt lat="34.8294390" lon="32.9160333">
<ele>550.57</ele>
<time>2015-04-30T12:20:23Z</time>
</trkpt>
<trkpt lat="34.8293936" lon="32.9159705">
<ele>550.16</ele>
<time>2015-04-30T12:20:24Z</time>
</trkpt>
<trkpt lat="34.8293579" lon="32.9159100">
<ele>549.96</ele>
<time>2015-04-30T12:20:25Z</time>
</trkpt>
<trkpt lat="34.8293182" lon="32.9158491">
<ele>549.86</ele>
<time>2015-04-30T12:20:26Z</time>
</trkpt>
<trkpt lat="34.8292741" lon="32.9157887">
<ele>549.31</ele>
<time>2015-04-30T12:20:27Z</time>
</trkpt>
<trkpt lat="34.8292395" lon="32.9157172">
<ele>548.54</ele>
<time>2015-04-30T12:20:28Z</time>
</trkpt>
<trkpt lat="34.8292063" lon="32.9156507">
<ele>547.65</ele>
<time>2015-04-30T12:20:29Z</time>
</trkpt>
<trkpt lat="34.8291808" lon="32.9155864">
<ele>546.70</ele>
<time>2015-04-30T12:20:30Z</time>
</trkpt>
<trkpt lat="34.8291583" lon="32.9155189">
<ele>546.23</ele>
<time>2015-04-30T12:20:31Z</time>
</trkpt>
<trkpt lat="34.8291324" lon="32.9154409">
<ele>546.00</ele>
<time>2015-04-30T12:20:32Z</time>
</trkpt>
<trkpt lat="34.8291190" lon="32.9153583">
<ele>546.88</ele>
<time>2015-04-30T12:20:33Z</time>
</trkpt>
<trkpt lat="34.8290971" lon="32.9152765">
<ele>546.82</ele>
<time>2015-04-30T12:20:34Z</time>
</trkpt>
<trkpt lat="34.8290815" lon="32.9151956">
<ele>546.79</ele>
<time>2015-04-30T12:20:35Z</time>
</trkpt>
<trkpt lat="34.8290673" lon="32.9151065">
<ele>546.77</ele>
<time>2015-04-30T12:20:36Z</time>
</trkpt>
<trkpt lat="34.8290628" lon="32.9150164">
<ele>547.27</ele>
<time>2015-04-30T12:20:37Z</time>
</trkpt>
<trkpt lat="34.8290526" lon="32.9149201">
<ele>548.01</ele>
<time>2015-04-30T12:20:38Z</time>
</trkpt>
<trkpt lat="34.8290340" lon="32.9148349">
<ele>548.39</ele>
<time>2015-04-30T12:20:39Z</time>
</trkpt>
<trkpt lat="34.8290208" lon="32.9147553">
<ele>548.57</ele>
<time>2015-04-30T12:20:40Z</time>
</trkpt>
<trkpt lat="34.8290127" lon="32.9146668">
<ele>548.67</ele>
<time>2015-04-30T12:20:41Z</time>
</trkpt>
<trkpt lat="34.8290050" lon="32.9145682">
<ele>547.71</ele>
<time>2015-04-30T12:20:42Z</time>
</trkpt>
<trkpt lat="34.8289901" lon="32.9144930">
<ele>546.74</ele>
<time>2015-04-30T12:20:43Z</time>
</trkpt>
<trkpt lat="34.8289768" lon="32.9144134">
<ele>546.25</ele>
<time>2015-04-30T12:20:44Z</time>
</trkpt>
<trkpt lat="34.8289647" lon="32.9143237">
<ele>546.00</ele>
<time>2015-04-30T12:20:45Z</time>
</trkpt>
<trkpt lat="34.8289477" lon="32.9142305">
<ele>544.88</ele>
<time>2015-04-30T12:20:46Z</time>
</trkpt>
<trkpt lat="34.8289372" lon="32.9141320">
<ele>543.82</ele>
<time>2015-04-30T12:20:47Z</time>
</trkpt>
<trkpt lat="34.8289254" lon="32.9140286">
<ele>543.29</ele>
<time>2015-04-30T12:20:48Z</time>
</trkpt>
<trkpt lat="34.8289166" lon="32.9139363">
<ele>543.03</ele>
<time>2015-04-30T12:20:49Z</time>
</trkpt>
<trkpt lat="34.8289100" lon="32.9138401">
<ele>542.89</ele>
<time>2015-04-30T12:20:50Z</time>
</trkpt>
<trkpt lat="34.8288819" lon="32.9137411">
<ele>541.83</ele>
<time>2015-04-30T12:20:51Z</time>
</trkpt>
<trkpt lat="34.8288657" lon="32.9136370">
<ele>540.79</ele>
<time>2015-04-30T12:20:52Z</time>
</trkpt>
<trkpt lat="34.8288570" lon="32.9135386">
<ele>540.28</ele>
<time>2015-04-30T12:20:53Z</time>
</trkpt>
<trkpt lat="34.8288350" lon="32.9134466">
<ele>540.02</ele>
<time>2015-04-30T12:20:54Z</time>
</trkpt>
<trkpt lat="34.8288200" lon="32.9133538">
<ele>539.39</ele>
<time>2015-04-30T12:20:55Z</time>
</trkpt>
<trkpt lat="34.8288041" lon="32.9132482">
<ele>538.57</ele>
<time>2015-04-30T12:20:56Z</time>
</trkpt>
<trkpt lat="34.8287873" lon="32.9131511">
<ele>538.17</ele>
<time>2015-04-30T12:20:57Z</time>
</trkpt>
<trkpt lat="34.8287924" lon="32.9130366">
<ele>538.46</ele>
<time>2015-04-30T12:20:58Z</time>
</trkpt>
<trkpt lat="34.8287708" lon="32.9129381">
<ele>538.61</ele>
<time>2015-04-30T12:20:59Z</time>
</trkpt>
<trkpt lat="34.8287490" lon="32.9128401">
<ele>538.19</ele>
<time>2015-04-30T12:21:00Z</time>
</trkpt>
<trkpt lat="34.8287189" lon="32.9127423">
<ele>537.97</ele>
<time>2015-04-30T12:21:01Z</time>
</trkpt>
<trkpt lat="34.8286895" lon="32.9126462">
<ele>537.87</ele>
<time>2015-04-30T12:21:02Z</time>
</trkpt>
<trkpt lat="34.8286601" lon="32.9125544">
<ele>537.81</ele>
<time>2015-04-30T12:21:03Z</time>
</trkpt>
<trkpt lat="34.8286275" lon="32.9124646">
<ele>537.29</ele>
<time>2015-04-30T12:21:04Z</time>
</trkpt>
<trkpt lat="34.8285924" lon="32.9123740">
<ele>536.02</ele>
<time>2015-04-30T12:21:05Z</time>
</trkpt>
<trkpt lat="34.8285566" lon="32.9122847">
<ele>534.89</ele>
<time>2015-04-30T12:21:06Z</time>
</trkpt>
<trkpt lat="34.8285222" lon="32.9122051">
<ele>534.33</ele>
<time>2015-04-30T12:21:07Z</time>
</trkpt>
<trkpt lat="34.8284834" lon="32.9121161">
<ele>533.54</ele>
<time>2015-04-30T12:21:08Z</time>
</trkpt>
<trkpt lat="34.8284486" lon="32.9120234">
<ele>532.65</ele>
<time>2015-04-30T12:21:09Z</time>
</trkpt>
<trkpt lat="34.8284132" lon="32.9119450">
<ele>532.21</ele>
<time>2015-04-30T12:21:10Z</time>
</trkpt>
<trkpt lat="34.8283769" lon="32.9118599">
<ele>531.48</ele>
<time>2015-04-30T12:21:11Z</time>
</trkpt>
<trkpt lat="34.8283406" lon="32.9117778">
<ele>531.12</ele>
<time>2015-04-30T12:21:12Z</time>
</trkpt>
<trkpt lat="34.8283096" lon="32.9116871">
<ele>530.94</ele>
<time>2015-04-30T12:21:13Z</time>
</trkpt>
<trkpt lat="34.8282784" lon="32.9116119">
<ele>530.35</ele>
<time>2015-04-30T12:21:14Z</time>
</trkpt>
<trkpt lat="34.8282546" lon="32.9115314">
<ele>530.06</ele>
<time>2015-04-30T12:21:15Z</time>
</trkpt>
<trkpt lat="34.8282221" lon="32.9114540">
<ele>529.91</ele>
<time>2015-04-30T12:21:16Z</time>
</trkpt>
<trkpt lat="34.8281919" lon="32.9113731">
<ele>528.83</ele>
<time>2015-04-30T12:21:17Z</time>
</trkpt>
<trkpt lat="34.8281641" lon="32.9112916">
<ele>528.30</ele>
<time>2015-04-30T12:21:18Z</time>
</trkpt>
<trkpt lat="34.8281397" lon="32.9112096">
<ele>528.03</ele>
<time>2015-04-30T12:21:19Z</time>
</trkpt>
<trkpt lat="34.8281041" lon="32.9111266">
<ele>527.89</ele>
<time>2015-04-30T12:21:20Z</time>
</trkpt>
<trkpt lat="34.8280738" lon="32.9110495">
<ele>527.83</ele>
<time>2015-04-30T12:21:21Z</time>
</trkpt>
<trkpt lat="34.8280492" lon="32.9109723">
<ele>527.79</ele>
<time>2015-04-30T12:21:22Z</time>
</trkpt>
<trkpt lat="34.8280239" lon="32.9108987">
<ele>527.28</ele>
<time>2015-04-30T12:21:23Z</time>
</trkpt>
<trkpt lat="34.8279952" lon="32.9108210">
<ele>527.02</ele>
<time>2015-04-30T12:21:24Z</time>
</trkpt>
<trkpt lat="34.8279700" lon="32.9107431">
<ele>526.89</ele>
<time>2015-04-30T12:21:25Z</time>
</trkpt>
<trkpt lat="34.8279442" lon="32.9106760">
<ele>526.32</ele>
<time>2015-04-30T12:21:26Z</time>
</trkpt>
<trkpt lat="34.8279154" lon="32.9106091">
<ele>525.54</ele>
<time>2015-04-30T12:21:27Z</time>
</trkpt>
<trkpt lat="34.8278840" lon="32.9105328">
<ele>525.15</ele>
<time>2015-04-30T12:21:28Z</time>
</trkpt>
<trkpt lat="34.8278612" lon="32.9104581">
<ele>524.96</ele>
<time>2015-04-30T12:21:29Z</time>
</trkpt>
<trkpt lat="34.8278358" lon="32.9103938">
<ele>524.86</ele>
<time>2015-04-30T12:21:30Z</time>
</trkpt>
<trkpt lat="34.8278090" lon="32.9103243">
<ele>524.81</ele>
<time>2015-04-30T12:21:31Z</time>
</trkpt>
<trkpt lat="34.8277756" lon="32.9102569">
<ele>524.78</ele>
<time>2015-04-30T12:21:32Z</time>
</trkpt>
<trkpt lat="34.8277442" lon="32.9101943">
<ele>524.77</ele>
<time>2015-04-30T12:21:33Z</time>
</trkpt>
<trkpt lat="34.8277162" lon="32.9101262">
<ele>524.77</ele>
<time>2015-04-30T12:21:34Z</time>
</trkpt>
<trkpt lat="34.8276884" lon="32.9100653">
<ele>524.76</ele>
<time>2015-04-30T12:21:35Z</time>
</trkpt>
<trkpt lat="34.8276513" lon="32.9100027">
<ele>524.76</ele>
<time>2015-04-30T12:21:36Z</time>
</trkpt>
<trkpt lat="34.8276104" lon="32.9099464">
<ele>524.76</ele>
<time>2015-04-30T12:21:37Z</time>
</trkpt>
<trkpt lat="34.8275680" lon="32.9098925">
<ele>524.76</ele>
<time>2015-04-30T12:21:38Z</time>
</trkpt>
<trkpt lat="34.8275274" lon="32.9098451">
<ele>524.76</ele>
<time>2015-04-30T12:21:39Z</time>
</trkpt>
<trkpt lat="34.8274750" lon="32.9098024">
<ele>524.26</ele>
<time>2015-04-30T12:21:40Z</time>
</trkpt>
<trkpt lat="34.8274244" lon="32.9097660">
<ele>524.01</ele>
<time>2015-04-30T12:21:41Z</time>
</trkpt>
<trkpt lat="34.8273790" lon="32.9097279">
<ele>523.89</ele>
<time>2015-04-30T12:21:42Z</time>
</trkpt>
<trkpt lat="34.8273259" lon="32.9097000">
<ele>523.82</ele>
<time>2015-04-30T12:21:43Z</time>
</trkpt>
<trkpt lat="34.8272666" lon="32.9096758">
<ele>523.79</ele>
<time>2015-04-30T12:21:44Z</time>
</trkpt>
<trkpt lat="34.8272116" lon="32.9096547">
<ele>523.78</ele>
<time>2015-04-30T12:21:45Z</time>
</trkpt>
<trkpt lat="34.8271469" lon="32.9096444">
<ele>523.77</ele>
<time>2015-04-30T12:21:46Z</time>
</trkpt>
<trkpt lat="34.8270833" lon="32.9096307">
<ele>523.76</ele>
<time>2015-04-30T12:21:47Z</time>
</trkpt>
<trkpt lat="34.8270147" lon="32.9096270">
<ele>523.26</ele>
<time>2015-04-30T12:21:48Z</time>
</trkpt>
<trkpt lat="34.8269472" lon="32.9096315">
<ele>523.51</ele>
<time>2015-04-30T12:21:49Z</time>
</trkpt>
<trkpt lat="34.8268789" lon="32.9096291">
<ele>523.14</ele>
<time>2015-04-30T12:21:50Z</time>
</trkpt>
<trkpt lat="34.8268229" lon="32.9096455">
<ele>523.45</ele>
<time>2015-04-30T12:21:51Z</time>
</trkpt>
<trkpt lat="34.8267566" lon="32.9096674">
<ele>523.60</ele>
<time>2015-04-30T12:21:52Z</time>
</trkpt>
<trkpt lat="34.8266928" lon="32.9096817">
<ele>523.68</ele>
<time>2015-04-30T12:21:53Z</time>
</trkpt>
<trkpt lat="34.8266301" lon="32.9097003">
<ele>523.72</ele>
<time>2015-04-30T12:21:54Z</time>
</trkpt>
<trkpt lat="34.8265682" lon="32.9097171">
<ele>523.74</ele>
<time>2015-04-30T12:21:55Z</time>
</trkpt>
<trkpt lat="34.8265014" lon="32.9097382">
<ele>523.75</ele>
<time>2015-04-30T12:21:56Z</time>
</trkpt>
<trkpt lat="34.8264331" lon="32.9097555">
<ele>523.76</ele>
<time>2015-04-30T12:21:57Z</time>
</trkpt>
<trkpt lat="34.8263684" lon="32.9097719">
<ele>523.76</ele>
<time>2015-04-30T12:21:58Z</time>
</trkpt>
<trkpt lat="34.8262976" lon="32.9097874">
<ele>523.76</ele>
<time>2015-04-30T12:21:59Z</time>
</trkpt>
<trkpt lat="34.8262288" lon="32.9098049">
<ele>523.76</ele>
<time>2015-04-30T12:22:00Z</time>
</trkpt>
<trkpt lat="34.8261613" lon="32.9098181">
<ele>523.76</ele>
<time>2015-04-30T12:22:01Z</time>
</trkpt>
<trkpt lat="34.8260907" lon="32.9098381">
<ele>523.76</ele>
<time>2015-04-30T12:22:02Z</time>
</trkpt>
<trkpt lat="34.8260257" lon="32.9098612">
<ele>523.26</ele>
<time>2015-04-30T12:22:03Z</time>
</trkpt>
<trkpt lat="34.8259556" lon="32.9098793">
<ele>523.01</ele>
<time>2015-04-30T12:22:04Z</time>
</trkpt>
<trkpt lat="34.8258843" lon="32.9098926">
<ele>522.89</ele>
<time>2015-04-30T12:22:05Z</time>
</trkpt>
<trkpt lat="34.8258117" lon="32.9099094">
<ele>522.82</ele>
<time>2015-04-30T12:22:06Z</time>
</trkpt>
<trkpt lat="34.8257410" lon="32.9099257">
<ele>522.79</ele>
<time>2015-04-30T12:22:07Z</time>
</trkpt>
<trkpt lat="34.8256698" lon="32.9099417">
<ele>522.28</ele>
<time>2015-04-30T12:22:08Z</time>
</trkpt>
<trkpt lat="34.8256018" lon="32.9099604">
<ele>522.02</ele>
<time>2015-04-30T12:22:09Z</time>
</trkpt>
<trkpt lat="34.8255337" lon="32.9099788">
<ele>521.39</ele>
<time>2015-04-30T12:22:10Z</time>
</trkpt>
<trkpt lat="34.8254591" lon="32.9099949">
<ele>521.07</ele>
<time>2015-04-30T12:22:11Z</time>
</trkpt>
<trkpt lat="34.8253885" lon="32.9100140">
<ele>520.42</ele>
<time>2015-04-30T12:22:12Z</time>
</trkpt>
<trkpt lat="34.8253195" lon="32.9100306">
<ele>520.09</ele>
<time>2015-04-30T12:22:13Z</time>
</trkpt>
<trkpt lat="34.8252483" lon="32.9100479">
<ele>519.92</ele>
<time>2015-04-30T12:22:14Z</time>
</trkpt>
<trkpt lat="34.8251789" lon="32.9100730">
<ele>519.84</ele>
<time>2015-04-30T12:22:15Z</time>
</trkpt>
<trkpt lat="34.8251064" lon="32.9100979">
<ele>519.80</ele>
<time>2015-04-30T12:22:16Z</time>
</trkpt>
<trkpt lat="34.8250382" lon="32.9101216">
<ele>519.78</ele>
<time>2015-04-30T12:22:17Z</time>
</trkpt>
<trkpt lat="34.8249678" lon="32.9101441">
<ele>519.27</ele>
<time>2015-04-30T12:22:18Z</time>
</trkpt>
<trkpt lat="34.8248995" lon="32.9101680">
<ele>519.02</ele>
<time>2015-04-30T12:22:19Z</time>
</trkpt>
<trkpt lat="34.8248287" lon="32.9101935">
<ele>518.89</ele>
<time>2015-04-30T12:22:20Z</time>
</trkpt>
<trkpt lat="34.8247605" lon="32.9102191">
<ele>518.82</ele>
<time>2015-04-30T12:22:21Z</time>
</trkpt>
<trkpt lat="34.8246902" lon="32.9102520">
<ele>518.29</ele>
<time>2015-04-30T12:22:22Z</time>
</trkpt>
<trkpt lat="34.8246250" lon="32.9102912">
<ele>518.03</ele>
<time>2015-04-30T12:22:23Z</time>
</trkpt>
<trkpt lat="34.8245572" lon="32.9103279">
<ele>517.89</ele>
<time>2015-04-30T12:22:24Z</time>
</trkpt>
<trkpt lat="34.8244975" lon="32.9103671">
<ele>517.83</ele>
<time>2015-04-30T12:22:25Z</time>
</trkpt>
<trkpt lat="34.8244356" lon="32.9104068">
<ele>517.79</ele>
<time>2015-04-30T12:22:26Z</time>
</trkpt>
<trkpt lat="34.8243741" lon="32.9104565">
<ele>517.78</ele>
<time>2015-04-30T12:22:27Z</time>
</trkpt>
<trkpt lat="34.8243127" lon="32.9105093">
<ele>517.77</ele>
<time>2015-04-30T12:22:28Z</time>
</trkpt>
<trkpt lat="34.8242554" lon="32.9105638">
<ele>517.76</ele>
<time>2015-04-30T12:22:29Z</time>
</trkpt>
<trkpt lat="34.8241974" lon="32.9106181">
<ele>517.76</ele>
<time>2015-04-30T12:22:30Z</time>
</trkpt>
<trkpt lat="34.8241443" lon="32.9106746">
<ele>517.76</ele>
<time>2015-04-30T12:22:31Z</time>
</trkpt>
<trkpt lat="34.8240928" lon="32.9107362">
<ele>517.76</ele>
<time>2015-04-30T12:22:32Z</time>
</trkpt>
<trkpt lat="34.8240438" lon="32.9107941">
<ele>517.76</ele>
<time>2015-04-30T12:22:33Z</time>
</trkpt>
<trkpt lat="34.8239939" lon="32.9108517">
<ele>517.26</ele>
<time>2015-04-30T12:22:34Z</time>
</trkpt>
<trkpt lat="34.8239460" lon="32.9109062">
<ele>517.01</ele>
<time>2015-04-30T12:22:35Z</time>
</trkpt>
<trkpt lat="34.8238953" lon="32.9109690">
<ele>517.39</ele>
<time>2015-04-30T12:22:36Z</time>
</trkpt>
<trkpt lat="34.8238487" lon="32.9110256">
<ele>517.57</ele>
<time>2015-04-30T12:22:37Z</time>
</trkpt>
<trkpt lat="34.8238022" lon="32.9110737">
<ele>517.67</ele>
<time>2015-04-30T12:22:38Z</time>
</trkpt>
<trkpt lat="34.8237588" lon="32.9111287">
<ele>517.71</ele>
<time>2015-04-30T12:22:39Z</time>
</trkpt>
<trkpt lat="34.8237120" lon="32.9111903">
<ele>517.24</ele>
<time>2015-04-30T12:22:40Z</time>
</trkpt>
<trkpt lat="34.8236777" lon="32.9112448">
<ele>517.00</ele>
<time>2015-04-30T12:22:41Z</time>
</trkpt>
<trkpt lat="34.8236372" lon="32.9113045">
<ele>516.88</ele>
<time>2015-04-30T12:22:42Z</time>
</trkpt>
<trkpt lat="34.8235891" lon="32.9113518">
<ele>516.82</ele>
<time>2015-04-30T12:22:43Z</time>
</trkpt>
<trkpt lat="34.8235417" lon="32.9114046">
<ele>516.29</ele>
<time>2015-04-30T12:22:44Z</time>
</trkpt>
<trkpt lat="34.8234980" lon="32.9114566">
<ele>516.02</ele>
<time>2015-04-30T12:22:45Z</time>
</trkpt>
<trkpt lat="34.8234612" lon="32.9115195">
<ele>516.39</ele>
<time>2015-04-30T12:22:46Z</time>
</trkpt>
<trkpt lat="34.8234049" lon="32.9115585">
<ele>516.58</ele>
<time>2015-04-30T12:22:47Z</time>
</trkpt>
<trkpt lat="34.8233591" lon="32.9116104">
<ele>516.17</ele>
<time>2015-04-30T12:22:48Z</time>
</trkpt>
<trkpt lat="34.8233214" lon="32.9116625">
<ele>515.96</ele>
<time>2015-04-30T12:22:49Z</time>
</trkpt>
<trkpt lat="34.8232783" lon="32.9117191">
<ele>515.86</ele>
<time>2015-04-30T12:22:50Z</time>
</trkpt>
<trkpt lat="34.8232404" lon="32.9117746">
<ele>515.81</ele>
<time>2015-04-30T12:22:51Z</time>
</trkpt>
<trkpt lat="34.8231984" lon="32.9118238">
<ele>515.29</ele>
<time>2015-04-30T12:22:52Z</time>
</trkpt>
<trkpt lat="34.8231546" lon="32.9118737">
<ele>515.02</ele>
<time>2015-04-30T12:22:53Z</time>
</trkpt>
<trkpt lat="34.8231130" lon="32.9119201">
<ele>514.89</ele>
<time>2015-04-30T12:22:54Z</time>
</trkpt>
<trkpt lat="34.8230731" lon="32.9119643">
<ele>514.83</ele>
<time>2015-04-30T12:22:55Z</time>
</trkpt>
<trkpt lat="34.8230342" lon="32.9120138">
<ele>514.79</ele>
<time>2015-04-30T12:22:56Z</time>
</trkpt>
<trkpt lat="34.8229966" lon="32.9120601">
<ele>514.28</ele>
<time>2015-04-30T12:22:57Z</time>
</trkpt>
<trkpt lat="34.8229607" lon="32.9121109">
<ele>514.52</ele>
<time>2015-04-30T12:22:58Z</time>
</trkpt>
<trkpt lat="34.8229287" lon="32.9121630">
<ele>514.14</ele>
<time>2015-04-30T12:22:59Z</time>
</trkpt>
<trkpt lat="34.8228968" lon="32.9122029">
<ele>513.95</ele>
<time>2015-04-30T12:23:00Z</time>
</trkpt>
<trkpt lat="34.8228611" lon="32.9122470">
<ele>513.35</ele>
<time>2015-04-30T12:23:01Z</time>
</trkpt>
<trkpt lat="34.8228242" lon="32.9122965">
<ele>513.56</ele>
<time>2015-04-30T12:23:02Z</time>
</trkpt>
<trkpt lat="34.8227874" lon="32.9123416">
<ele>513.66</ele>
<time>2015-04-30T12:23:03Z</time>
</trkpt>
<trkpt lat="34.8227530" lon="32.9123818">
<ele>513.71</ele>
<time>2015-04-30T12:23:04Z</time>
</trkpt>
<trkpt lat="34.8227191" lon="32.9124281">
<ele>513.73</ele>
<time>2015-04-30T12:23:05Z</time>
</trkpt>
<trkpt lat="34.8226703" lon="32.9125054">
<ele>513.75</ele>
<time>2015-04-30T12:23:07Z</time>
</trkpt>
<trkpt lat="34.8226047" lon="32.9125661">
<ele>513.76</ele>
<time>2015-04-30T12:23:09Z</time>
</trkpt>
<trkpt lat="34.8225489" lon="32.9126365">
<ele>514.51</ele>
<time>2015-04-30T12:23:11Z</time>
</trkpt>
<trkpt lat="34.8225149" lon="32.9126792">
<ele>514.63</ele>
<time>2015-04-30T12:23:12Z</time>
</trkpt>
<trkpt lat="34.8224580" lon="32.9127510">
<ele>515.48</ele>
<time>2015-04-30T12:23:14Z</time>
</trkpt>
<trkpt lat="34.8224003" lon="32.9128200">
<ele>516.44</ele>
<time>2015-04-30T12:23:16Z</time>
</trkpt>
<trkpt lat="34.8223715" lon="32.9128624">
<ele>516.60</ele>
<time>2015-04-30T12:23:17Z</time>
</trkpt>
<trkpt lat="34.8223115" lon="32.9129289">
<ele>516.72</ele>
<time>2015-04-30T12:23:19Z</time>
</trkpt>
<trkpt lat="34.8222548" lon="32.9130101">
<ele>516.75</ele>
<time>2015-04-30T12:23:21Z</time>
</trkpt>
<trkpt lat="34.8222174" lon="32.9130420">
<ele>517.26</ele>
<time>2015-04-30T12:23:22Z</time>
</trkpt>
<trkpt lat="34.8221690" lon="32.9131032">
<ele>516.88</ele>
<time>2015-04-30T12:23:24Z</time>
</trkpt>
<trkpt lat="34.8221167" lon="32.9131640">
<ele>518.29</ele>
<time>2015-04-30T12:23:26Z</time>
</trkpt>
<trkpt lat="34.8220652" lon="32.9132302">
<ele>516.39</ele>
<time>2015-04-30T12:23:28Z</time>
</trkpt>
<trkpt lat="34.8220080" lon="32.9132848">
<ele>514.67</ele>
<time>2015-04-30T12:23:30Z</time>
</trkpt>
<trkpt lat="34.8219488" lon="32.9133403">
<ele>514.24</ele>
<time>2015-04-30T12:23:32Z</time>
</trkpt>
<trkpt lat="34.8218876" lon="32.9133975">
<ele>515.13</ele>
<time>2015-04-30T12:23:34Z</time>
</trkpt>
<trkpt lat="34.8218332" lon="32.9134362">
<ele>516.35</ele>
<time>2015-04-30T12:23:36Z</time>
</trkpt>
<trkpt lat="34.8217731" lon="32.9134661">
<ele>516.66</ele>
<time>2015-04-30T12:23:38Z</time>
</trkpt>
<trkpt lat="34.8217114" lon="32.9134922">
<ele>517.23</ele>
<time>2015-04-30T12:23:40Z</time>
</trkpt>
<trkpt lat="34.8216463" lon="32.9135094">
<ele>518.63</ele>
<time>2015-04-30T12:23:42Z</time>
</trkpt>
<trkpt lat="34.8215822" lon="32.9135186">
<ele>519.48</ele>
<time>2015-04-30T12:23:44Z</time>
</trkpt>
<trkpt lat="34.8215280" lon="32.9135223">
<ele>520.19</ele>
<time>2015-04-30T12:23:46Z</time>
</trkpt>
<trkpt lat="34.8214778" lon="32.9135239">
<ele>520.62</ele>
<time>2015-04-30T12:23:48Z</time>
</trkpt>
<trkpt lat="34.8214242" lon="32.9135239">
<ele>520.22</ele>
<time>2015-04-30T12:23:50Z</time>
</trkpt>
<trkpt lat="34.8213651" lon="32.9135181">
<ele>520.38</ele>
<time>2015-04-30T12:23:52Z</time>
</trkpt>
<trkpt lat="34.8213046" lon="32.9135097">
<ele>520.16</ele>
<time>2015-04-30T12:23:54Z</time>
</trkpt>
<trkpt lat="34.8212455" lon="32.9135036">
<ele>519.86</ele>
<time>2015-04-30T12:23:56Z</time>
</trkpt>
<trkpt lat="34.8211866" lon="32.9135016">
<ele>520.54</ele>
<time>2015-04-30T12:23:58Z</time>
</trkpt>
<trkpt lat="34.8211282" lon="32.9134997">
<ele>521.20</ele>
<time>2015-04-30T12:24:00Z</time>
</trkpt>
<trkpt lat="34.8210689" lon="32.9135023">
<ele>521.62</ele>
<time>2015-04-30T12:24:02Z</time>
</trkpt>
<trkpt lat="34.8210110" lon="32.9135102">
<ele>521.73</ele>
<time>2015-04-30T12:24:04Z</time>
</trkpt>
<trkpt lat="34.8209531" lon="32.9135203">
<ele>521.75</ele>
<time>2015-04-30T12:24:06Z</time>
</trkpt>
<trkpt lat="34.8208948" lon="32.9135390">
<ele>521.76</ele>
<time>2015-04-30T12:24:08Z</time>
</trkpt>
<trkpt lat="34.8208375" lon="32.9135690">
<ele>522.26</ele>
<time>2015-04-30T12:24:10Z</time>
</trkpt>
<trkpt lat="34.8207841" lon="32.9136057">
<ele>522.63</ele>
<time>2015-04-30T12:24:12Z</time>
</trkpt>
<trkpt lat="34.8207344" lon="32.9136576">
<ele>521.98</ele>
<time>2015-04-30T12:24:14Z</time>
</trkpt>
<trkpt lat="34.8206874" lon="32.9137101">
<ele>522.06</ele>
<time>2015-04-30T12:24:16Z</time>
</trkpt>
<trkpt lat="34.8206469" lon="32.9137706">
<ele>522.59</ele>
<time>2015-04-30T12:24:18Z</time>
</trkpt>
<trkpt lat="34.8206113" lon="32.9138334">
<ele>521.97</ele>
<time>2015-04-30T12:24:20Z</time>
</trkpt>
<trkpt lat="34.8205763" lon="32.9138966">
<ele>522.31</ele>
<time>2015-04-30T12:24:22Z</time>
</trkpt>
<trkpt lat="34.8205367" lon="32.9139570">
<ele>522.65</ele>
<time>2015-04-30T12:24:24Z</time>
</trkpt>
<trkpt lat="34.8204961" lon="32.9140138">
<ele>522.73</ele>
<time>2015-04-30T12:24:26Z</time>
</trkpt>
<trkpt lat="34.8204564" lon="32.9140756">
<ele>523.00</ele>
<time>2015-04-30T12:24:28Z</time>
</trkpt>
<trkpt lat="34.8204206" lon="32.9141330">
<ele>523.57</ele>
<time>2015-04-30T12:24:30Z</time>
</trkpt>
<trkpt lat="34.8203848" lon="32.9141933">
<ele>523.74</ele>
<time>2015-04-30T12:24:33Z</time>
</trkpt>
<trkpt lat="34.8203423" lon="32.9142568">
<ele>524.26</ele>
<time>2015-04-30T12:24:36Z</time>
</trkpt>
<trkpt lat="34.8203098" lon="32.9143110">
<ele>525.13</ele>
<time>2015-04-30T12:24:38Z</time>
</trkpt>
<trkpt lat="34.8202782" lon="32.9143687">
<ele>525.60</ele>
<time>2015-04-30T12:24:40Z</time>
</trkpt>
<trkpt lat="34.8202451" lon="32.9144195">
<ele>525.72</ele>
<time>2015-04-30T12:24:42Z</time>
</trkpt>
<trkpt lat="34.8202135" lon="32.9144776">
<ele>525.75</ele>
<time>2015-04-30T12:24:44Z</time>
</trkpt>
<trkpt lat="34.8201740" lon="32.9145521">
<ele>525.76</ele>
<time>2015-04-30T12:24:46Z</time>
</trkpt>
<trkpt lat="34.8201368" lon="32.9146203">
<ele>525.01</ele>
<time>2015-04-30T12:24:48Z</time>
</trkpt>
<trkpt lat="34.8200938" lon="32.9146892">
<ele>524.82</ele>
<time>2015-04-30T12:24:50Z</time>
</trkpt>
<trkpt lat="34.8200426" lon="32.9147773">
<ele>524.78</ele>
<time>2015-04-30T12:24:52Z</time>
</trkpt>
<trkpt lat="34.8199903" lon="32.9148643">
<ele>525.26</ele>
<time>2015-04-30T12:24:54Z</time>
</trkpt>
<trkpt lat="34.8199352" lon="32.9149501">
<ele>525.64</ele>
<time>2015-04-30T12:24:56Z</time>
</trkpt>
<trkpt lat="34.8199056" lon="32.9149925">
<ele>525.70</ele>
<time>2015-04-30T12:24:57Z</time>
</trkpt>
<trkpt lat="34.8198660" lon="32.9150474">
<ele>525.73</ele>
<time>2015-04-30T12:24:58Z</time>
</trkpt>
<trkpt lat="34.8198343" lon="32.9150910">
<ele>525.74</ele>
<time>2015-04-30T12:24:59Z</time>
</trkpt>
<trkpt lat="34.8197964" lon="32.9151337">
<ele>525.75</ele>
<time>2015-04-30T12:25:00Z</time>
</trkpt>
<trkpt lat="34.8197477" lon="32.9151782">
<ele>525.76</ele>
<time>2015-04-30T12:25:01Z</time>
</trkpt>
<trkpt lat="34.8197053" lon="32.9152180">
<ele>525.76</ele>
<time>2015-04-30T12:25:02Z</time>
</trkpt>
<trkpt lat="34.8196622" lon="32.9152541">
<ele>525.76</ele>
<time>2015-04-30T12:25:03Z</time>
</trkpt>
<trkpt lat="34.8196191" lon="32.9152871">
<ele>525.76</ele>
<time>2015-04-30T12:25:04Z</time>
</trkpt>
<trkpt lat="34.8195740" lon="32.9153145">
<ele>525.26</ele>
<time>2015-04-30T12:25:05Z</time>
</trkpt>
<trkpt lat="34.8195236" lon="32.9153410">
<ele>524.51</ele>
<time>2015-04-30T12:25:06Z</time>
</trkpt>
<trkpt lat="34.8194745" lon="32.9153663">
<ele>524.13</ele>
<time>2015-04-30T12:25:07Z</time>
</trkpt>
<trkpt lat="34.8194206" lon="32.9153916">
<ele>523.95</ele>
<time>2015-04-30T12:25:08Z</time>
</trkpt>
<trkpt lat="34.8193616" lon="32.9154150">
<ele>524.35</ele>
<time>2015-04-30T12:25:09Z</time>
</trkpt>
<trkpt lat="34.8193071" lon="32.9154375">
<ele>524.56</ele>
<time>2015-04-30T12:25:10Z</time>
</trkpt>
<trkpt lat="34.8192545" lon="32.9154523">
<ele>524.66</ele>
<time>2015-04-30T12:25:11Z</time>
</trkpt>
<trkpt lat="34.8192012" lon="32.9154575">
<ele>524.71</ele>
<time>2015-04-30T12:25:12Z</time>
</trkpt>
<trkpt lat="34.8191512" lon="32.9154643">
<ele>524.73</ele>
<time>2015-04-30T12:25:13Z</time>
</trkpt>
<trkpt lat="34.8191031" lon="32.9154648">
<ele>524.75</ele>
<time>2015-04-30T12:25:14Z</time>
</trkpt>
<trkpt lat="34.8190566" lon="32.9154667">
<ele>524.75</ele>
<time>2015-04-30T12:25:15Z</time>
</trkpt>
<trkpt lat="34.8190043" lon="32.9154709">
<ele>525.26</ele>
<time>2015-04-30T12:25:16Z</time>
</trkpt>
<trkpt lat="34.8189517" lon="32.9154709">
<ele>525.51</ele>
<time>2015-04-30T12:25:17Z</time>
</trkpt>
<trkpt lat="34.8189012" lon="32.9154691">
<ele>525.63</ele>
<time>2015-04-30T12:25:18Z</time>
</trkpt>
<trkpt lat="34.8188486" lon="32.9154729">
<ele>525.20</ele>
<time>2015-04-30T12:25:19Z</time>
</trkpt>
<trkpt lat="34.8187977" lon="32.9154689">
<ele>524.98</ele>
<time>2015-04-30T12:25:20Z</time>
</trkpt>
<trkpt lat="34.8187475" lon="32.9154710">
<ele>525.37</ele>
<time>2015-04-30T12:25:21Z</time>
</trkpt>
<trkpt lat="34.8186941" lon="32.9154748">
<ele>525.56</ele>
<time>2015-04-30T12:25:22Z</time>
</trkpt>
<trkpt lat="34.8186419" lon="32.9154767">
<ele>525.66</ele>
<time>2015-04-30T12:25:23Z</time>
</trkpt>
<trkpt lat="34.8185849" lon="32.9154818">
<ele>525.71</ele>
<time>2015-04-30T12:25:24Z</time>
</trkpt>
<trkpt lat="34.8185316" lon="32.9154821">
<ele>525.74</ele>
<time>2015-04-30T12:25:25Z</time>
</trkpt>
<trkpt lat="34.8184827" lon="32.9154817">
<ele>526.25</ele>
<time>2015-04-30T12:25:26Z</time>
</trkpt>
<trkpt lat="34.8183846" lon="32.9154809">
<ele>526.88</ele>
<time>2015-04-30T12:25:28Z</time>
</trkpt>
<trkpt lat="34.8183335" lon="32.9154870">
<ele>526.82</ele>
<time>2015-04-30T12:25:29Z</time>
</trkpt>
<trkpt lat="34.8182869" lon="32.9154938">
<ele>527.29</ele>
<time>2015-04-30T12:25:30Z</time>
</trkpt>
<trkpt lat="34.8181972" lon="32.9155066">
<ele>527.64</ele>
<time>2015-04-30T12:25:32Z</time>
</trkpt>
<trkpt lat="34.8181273" lon="32.9155182">
<ele>528.23</ele>
<time>2015-04-30T12:25:34Z</time>
</trkpt>
<trkpt lat="34.8180502" lon="32.9155340">
<ele>528.63</ele>
<time>2015-04-30T12:25:36Z</time>
</trkpt>
<trkpt lat="34.8179768" lon="32.9155483">
<ele>529.48</ele>
<time>2015-04-30T12:25:38Z</time>
</trkpt>
<trkpt lat="34.8179067" lon="32.9155734">
<ele>530.19</ele>
<time>2015-04-30T12:25:40Z</time>
</trkpt>
<trkpt lat="34.8178372" lon="32.9156007">
<ele>530.12</ele>
<time>2015-04-30T12:25:42Z</time>
</trkpt>
<trkpt lat="34.8177664" lon="32.9156275">
<ele>529.85</ele>
<time>2015-04-30T12:25:44Z</time>
</trkpt>
<trkpt lat="34.8176976" lon="32.9156590">
<ele>529.78</ele>
<time>2015-04-30T12:25:46Z</time>
</trkpt>
<trkpt lat="34.8176311" lon="32.9156807">
<ele>529.52</ele>
<time>2015-04-30T12:25:48Z</time>
</trkpt>
<trkpt lat="34.8175768" lon="32.9156964">
<ele>529.70</ele>
<time>2015-04-30T12:25:50Z</time>
</trkpt>
<trkpt lat="34.8175222" lon="32.9157174">
<ele>529.74</ele>
<time>2015-04-30T12:25:52Z</time>
</trkpt>
<trkpt lat="34.8174627" lon="32.9157414">
<ele>529.76</ele>
<time>2015-04-30T12:25:54Z</time>
</trkpt>
<trkpt lat="34.8173978" lon="32.9157687">
<ele>529.76</ele>
<time>2015-04-30T12:25:56Z</time>
</trkpt>
<trkpt lat="34.8173356" lon="32.9158000">
<ele>530.51</ele>
<time>2015-04-30T12:25:58Z</time>
</trkpt>
<trkpt lat="34.8172688" lon="32.9158336">
<ele>530.70</ele>
<time>2015-04-30T12:26:00Z</time>
</trkpt>
<trkpt lat="34.8171862" lon="32.9158703">
<ele>530.74</ele>
<time>2015-04-30T12:26:02Z</time>
</trkpt>
<trkpt lat="34.8171041" lon="32.9159015">
<ele>531.26</ele>
<time>2015-04-30T12:26:04Z</time>
</trkpt>
<trkpt lat="34.8170269" lon="32.9159323">
<ele>531.63</ele>
<time>2015-04-30T12:26:06Z</time>
</trkpt>
<trkpt lat="34.8169524" lon="32.9159660">
<ele>531.73</ele>
<time>2015-04-30T12:26:08Z</time>
</trkpt>
<trkpt lat="34.8168764" lon="32.9159999">
<ele>531.75</ele>
<time>2015-04-30T12:26:10Z</time>
</trkpt>
<trkpt lat="34.8167977" lon="32.9160359">
<ele>531.76</ele>
<time>2015-04-30T12:26:12Z</time>
</trkpt>
<trkpt lat="34.8167203" lon="32.9160684">
<ele>532.51</ele>
<time>2015-04-30T12:26:14Z</time>
</trkpt>
<trkpt lat="34.8166577" lon="32.9160916">
<ele>532.70</ele>
<time>2015-04-30T12:26:16Z</time>
</trkpt>
<trkpt lat="34.8166059" lon="32.9161107">
<ele>532.74</ele>
<time>2015-04-30T12:26:18Z</time>
</trkpt>
<trkpt lat="34.8165538" lon="32.9161308">
<ele>532.76</ele>
<time>2015-04-30T12:26:20Z</time>
</trkpt>
<trkpt lat="34.8165015" lon="32.9161470">
<ele>532.76</ele>
<time>2015-04-30T12:26:22Z</time>
</trkpt>
<trkpt lat="34.8164480" lon="32.9161572">
<ele>531.88</ele>
<time>2015-04-30T12:26:25Z</time>
</trkpt>
<trkpt lat="34.8164052" lon="32.9161192">
<ele>531.78</ele>
<time>2015-04-30T12:26:28Z</time>
</trkpt>
<trkpt lat="34.8163908" lon="32.9160415">
<ele>530.76</ele>
<time>2015-04-30T12:26:31Z</time>
</trkpt>
<trkpt lat="34.8163529" lon="32.9160036">
<ele>530.76</ele>
<time>2015-04-30T12:26:34Z</time>
</trkpt>
<trkpt lat="34.8163076" lon="32.9160218">
<ele>532.82</ele>
<time>2015-04-30T12:27:09Z</time>
</trkpt>
<trkpt lat="34.8162643" lon="32.9160505">
<ele>530.58</ele>
<time>2015-04-30T12:27:13Z</time>
</trkpt>
<trkpt lat="34.8162268" lon="32.9160937">
<ele>530.31</ele>
<time>2015-04-30T12:27:17Z</time>
</trkpt>
<trkpt lat="34.8161976" lon="32.9161523">
<ele>531.23</ele>
<time>2015-04-30T12:27:21Z</time>
</trkpt>
<trkpt lat="34.8161983" lon="32.9162288">
<ele>529.91</ele>
<time>2015-04-30T12:27:25Z</time>
</trkpt>
<trkpt lat="34.8161889" lon="32.9162837">
<ele>530.05</ele>
<time>2015-04-30T12:27:27Z</time>
</trkpt>
<trkpt lat="34.8161506" lon="32.9163262">
<ele>529.83</ele>
<time>2015-04-30T12:27:29Z</time>
</trkpt>
<trkpt lat="34.8160982" lon="32.9163456">
<ele>530.53</ele>
<time>2015-04-30T12:27:31Z</time>
</trkpt>
<trkpt lat="34.8160466" lon="32.9163637">
<ele>530.70</ele>
<time>2015-04-30T12:27:33Z</time>
</trkpt>
<trkpt lat="34.8160005" lon="32.9163820">
<ele>531.50</ele>
<time>2015-04-30T12:27:35Z</time>
</trkpt>
<trkpt lat="34.8159526" lon="32.9164004">
<ele>530.94</ele>
<time>2015-04-30T12:27:37Z</time>
</trkpt>
<trkpt lat="34.8159058" lon="32.9164137">
<ele>531.56</ele>
<time>2015-04-30T12:27:39Z</time>
</trkpt>
<trkpt lat="34.8158569" lon="32.9164271">
<ele>532.46</ele>
<time>2015-04-30T12:27:41Z</time>
</trkpt>
<trkpt lat="34.8158097" lon="32.9164404">
<ele>532.68</ele>
<time>2015-04-30T12:27:43Z</time>
</trkpt>
<trkpt lat="34.8157608" lon="32.9164521">
<ele>533.24</ele>
<time>2015-04-30T12:27:45Z</time>
</trkpt>
<trkpt lat="34.8157126" lon="32.9164673">
<ele>533.63</ele>
<time>2015-04-30T12:27:47Z</time>
</trkpt>
<trkpt lat="34.8156624" lon="32.9164791">
<ele>533.73</ele>
<time>2015-04-30T12:27:49Z</time>
</trkpt>
<trkpt lat="34.8156133" lon="32.9164836">
<ele>533.75</ele>
<time>2015-04-30T12:27:51Z</time>
</trkpt>
<trkpt lat="34.8155636" lon="32.9164895">
<ele>533.76</ele>
<time>2015-04-30T12:27:53Z</time>
</trkpt>
<trkpt lat="34.8155173" lon="32.9164981">
<ele>533.76</ele>
<time>2015-04-30T12:27:55Z</time>
</trkpt>
<trkpt lat="34.8154588" lon="32.9165061">
<ele>534.51</ele>
<time>2015-04-30T12:27:58Z</time>
</trkpt>
<trkpt lat="34.8154068" lon="32.9165067">
<ele>535.48</ele>
<time>2015-04-30T12:28:01Z</time>
</trkpt>
<trkpt lat="34.8153491" lon="32.9165041">
<ele>535.72</ele>
<time>2015-04-30T12:28:04Z</time>
</trkpt>
<trkpt lat="34.8152922" lon="32.9164958">
<ele>535.76</ele>
<time>2015-04-30T12:28:07Z</time>
</trkpt>
<trkpt lat="34.8152326" lon="32.9164874">
<ele>536.26</ele>
<time>2015-04-30T12:28:10Z</time>
</trkpt>
<trkpt lat="34.8151701" lon="32.9164794">
<ele>536.70</ele>
<time>2015-04-30T12:28:13Z</time>
</trkpt>
<trkpt lat="34.8151046" lon="32.9164690">
<ele>536.75</ele>
<time>2015-04-30T12:28:16Z</time>
</trkpt>
<trkpt lat="34.8150600" lon="32.9164552">
<ele>536.76</ele>
<time>2015-04-30T12:28:18Z</time>
</trkpt>
<trkpt lat="34.8150151" lon="32.9164376">
<ele>537.76</ele>
<time>2015-04-30T12:28:20Z</time>
</trkpt>
<trkpt lat="34.8149695" lon="32.9164189">
<ele>538.51</ele>
<time>2015-04-30T12:28:22Z</time>
</trkpt>
<trkpt lat="34.8149233" lon="32.9164008">
<ele>539.95</ele>
<time>2015-04-30T12:28:24Z</time>
</trkpt>
<trkpt lat="34.8148768" lon="32.9163841">
<ele>540.06</ele>
<time>2015-04-30T12:28:26Z</time>
</trkpt>
<trkpt lat="34.8148316" lon="32.9163676">
<ele>540.58</ele>
<time>2015-04-30T12:28:28Z</time>
</trkpt>
<trkpt lat="34.8147865" lon="32.9163488">
<ele>540.97</ele>
<time>2015-04-30T12:28:30Z</time>
</trkpt>
<trkpt lat="34.8147414" lon="32.9163329">
<ele>541.56</ele>
<time>2015-04-30T12:28:32Z</time>
</trkpt>
<trkpt lat="34.8146944" lon="32.9163167">
<ele>541.21</ele>
<time>2015-04-30T12:28:34Z</time>
</trkpt>
<trkpt lat="34.8146469" lon="32.9163000">
<ele>540.87</ele>
<time>2015-04-30T12:28:36Z</time>
</trkpt>
<trkpt lat="34.8145986" lon="32.9162825">
<ele>540.79</ele>
<time>2015-04-30T12:28:38Z</time>
</trkpt>
<trkpt lat="34.8145514" lon="32.9162599">
<ele>540.77</ele>
<time>2015-04-30T12:28:40Z</time>
</trkpt>
<trkpt lat="34.8145032" lon="32.9162378">
<ele>540.76</ele>
<time>2015-04-30T12:28:42Z</time>
</trkpt>
<trkpt lat="34.8144525" lon="32.9162173">
<ele>541.26</ele>
<time>2015-04-30T12:28:44Z</time>
</trkpt>
<trkpt lat="34.8144005" lon="32.9161926">
<ele>541.64</ele>
<time>2015-04-30T12:28:46Z</time>
</trkpt>
<trkpt lat="34.8143494" lon="32.9161686">
<ele>541.73</ele>
<time>2015-04-30T12:28:48Z</time>
</trkpt>
<trkpt lat="34.8143008" lon="32.9161440">
<ele>542.50</ele>
<time>2015-04-30T12:28:50Z</time>
</trkpt>
<trkpt lat="34.8142547" lon="32.9161248">
<ele>543.20</ele>
<time>2015-04-30T12:28:52Z</time>
</trkpt>
<trkpt lat="34.8142067" lon="32.9161094">
<ele>543.12</ele>
<time>2015-04-30T12:28:54Z</time>
</trkpt>
<trkpt lat="34.8141611" lon="32.9160866">
<ele>542.85</ele>
<time>2015-04-30T12:28:56Z</time>
</trkpt>
<trkpt lat="34.8141126" lon="32.9160617">
<ele>543.53</ele>
<time>2015-04-30T12:28:58Z</time>
</trkpt>
<trkpt lat="34.8140613" lon="32.9160373">
<ele>542.95</ele>
<time>2015-04-30T12:29:00Z</time>
</trkpt>
<trkpt lat="34.8140009" lon="32.9160120">
<ele>543.56</ele>
<time>2015-04-30T12:29:02Z</time>
</trkpt>
<trkpt lat="34.8139373" lon="32.9159908">
<ele>543.71</ele>
<time>2015-04-30T12:29:04Z</time>
</trkpt>
<trkpt lat="34.8138787" lon="32.9159660">
<ele>544.50</ele>
<time>2015-04-30T12:29:06Z</time>
</trkpt>
<trkpt lat="34.8138264" lon="32.9159400">
<ele>543.94</ele>
<time>2015-04-30T12:29:08Z</time>
</trkpt>
<trkpt lat="34.8137729" lon="32.9159141">
<ele>545.31</ele>
<time>2015-04-30T12:29:10Z</time>
</trkpt>
<trkpt lat="34.8137170" lon="32.9158874">
<ele>545.15</ele>
<time>2015-04-30T12:29:12Z</time>
</trkpt>
<trkpt lat="34.8136505" lon="32.9158533">
<ele>544.86</ele>
<time>2015-04-30T12:29:14Z</time>
</trkpt>
<trkpt lat="34.8135885" lon="32.9158189">
<ele>544.03</ele>
<time>2015-04-30T12:29:16Z</time>
</trkpt>
<trkpt lat="34.8135339" lon="32.9157941">
<ele>544.58</ele>
<time>2015-04-30T12:29:18Z</time>
</trkpt>
<trkpt lat="34.8134900" lon="32.9157683">
<ele>544.46</ele>
<time>2015-04-30T12:29:20Z</time>
</trkpt>
<trkpt lat="34.8134490" lon="32.9157421">
<ele>544.69</ele>
<time>2015-04-30T12:29:22Z</time>
</trkpt>
<trkpt lat="34.8133983" lon="32.9157272">
<ele>543.99</ele>
<time>2015-04-30T12:29:24Z</time>
</trkpt>
<trkpt lat="34.8133273" lon="32.9156934">
<ele>543.07</ele>
<time>2015-04-30T12:29:26Z</time>
</trkpt>
<trkpt lat="34.8132597" lon="32.9156540">
<ele>542.84</ele>
<time>2015-04-30T12:29:28Z</time>
</trkpt>
<trkpt lat="34.8132006" lon="32.9156144">
<ele>542.78</ele>
<time>2015-04-30T12:29:30Z</time>
</trkpt>
<trkpt lat="34.8131560" lon="32.9155772">
<ele>542.76</ele>
<time>2015-04-30T12:29:32Z</time>
</trkpt>
<trkpt lat="34.8131050" lon="32.9155349">
<ele>544.01</ele>
<time>2015-04-30T12:29:34Z</time>
</trkpt>
<trkpt lat="34.8130402" lon="32.9154912">
<ele>544.57</ele>
<time>2015-04-30T12:29:36Z</time>
</trkpt>
<trkpt lat="34.8129777" lon="32.9154423">
<ele>544.71</ele>
<time>2015-04-30T12:29:38Z</time>
</trkpt>
<trkpt lat="34.8129177" lon="32.9153970">
<ele>544.75</ele>
<time>2015-04-30T12:29:40Z</time>
</trkpt>
<trkpt lat="34.8128604" lon="32.9153570">
<ele>544.76</ele>
<time>2015-04-30T12:29:42Z</time>
</trkpt>
<trkpt lat="34.8128071" lon="32.9153250">
<ele>544.76</ele>
<time>2015-04-30T12:29:44Z</time>
</trkpt>
<trkpt lat="34.8127608" lon="32.9152930">
<ele>543.51</ele>
<time>2015-04-30T12:29:46Z</time>
</trkpt>
<trkpt lat="34.8127076" lon="32.9152535">
<ele>543.70</ele>
<time>2015-04-30T12:29:48Z</time>
</trkpt>
<trkpt lat="34.8126371" lon="32.9152037">
<ele>543.74</ele>
<time>2015-04-30T12:29:50Z</time>
</trkpt>
<trkpt lat="34.8125708" lon="32.9151526">
<ele>543.76</ele>
<time>2015-04-30T12:29:52Z</time>
</trkpt>
<trkpt lat="34.8125069" lon="32.9151047">
<ele>543.76</ele>
<time>2015-04-30T12:29:54Z</time>
</trkpt>
<trkpt lat="34.8124382" lon="32.9150700">
<ele>543.26</ele>
<time>2015-04-30T12:29:56Z</time>
</trkpt>
<trkpt lat="34.8123678" lon="32.9150367">
<ele>543.63</ele>
<time>2015-04-30T12:29:58Z</time>
</trkpt>
<trkpt lat="34.8122880" lon="32.9150074">
<ele>543.73</ele>
<time>2015-04-30T12:30:00Z</time>
</trkpt>
<trkpt lat="34.8122422" lon="32.9149937">
<ele>543.24</ele>
<time>2015-04-30T12:30:01Z</time>
</trkpt>
<trkpt lat="34.8121866" lon="32.9149860">
<ele>542.50</ele>
<time>2015-04-30T12:30:02Z</time>
</trkpt>
<trkpt lat="34.8121001" lon="32.9149758">
<ele>541.95</ele>
<time>2015-04-30T12:30:04Z</time>
</trkpt>
<trkpt lat="34.8120516" lon="32.9149734">
<ele>541.35</ele>
<time>2015-04-30T12:30:05Z</time>
</trkpt>
<trkpt lat="34.8120040" lon="32.9149726">
<ele>541.06</ele>
<time>2015-04-30T12:30:06Z</time>
</trkpt>
<trkpt lat="34.8119137" lon="32.9149794">
<ele>541.58</ele>
<time>2015-04-30T12:30:08Z</time>
</trkpt>
<trkpt lat="34.8118240" lon="32.9150006">
<ele>541.72</ele>
<time>2015-04-30T12:30:10Z</time>
</trkpt>
<trkpt lat="34.8117312" lon="32.9150363">
<ele>541.75</ele>
<time>2015-04-30T12:30:12Z</time>
</trkpt>
<trkpt lat="34.8116833" lon="32.9150561">
<ele>541.25</ele>
<time>2015-04-30T12:30:13Z</time>
</trkpt>
<trkpt lat="34.8116089" lon="32.9151031">
<ele>541.38</ele>
<time>2015-04-30T12:30:15Z</time>
</trkpt>
<trkpt lat="34.8115314" lon="32.9151581">
<ele>541.67</ele>
<time>2015-04-30T12:30:17Z</time>
</trkpt>
<trkpt lat="34.8114678" lon="32.9152191">
<ele>540.74</ele>
<time>2015-04-30T12:30:19Z</time>
</trkpt>
<trkpt lat="34.8114279" lon="32.9152629">
<ele>540.75</ele>
<time>2015-04-30T12:30:20Z</time>
</trkpt>
<trkpt lat="34.8113904" lon="32.9153003">
<ele>541.25</ele>
<time>2015-04-30T12:30:21Z</time>
</trkpt>
<trkpt lat="34.8113338" lon="32.9153830">
<ele>541.38</ele>
<time>2015-04-30T12:30:23Z</time>
</trkpt>
<trkpt lat="34.8113012" lon="32.9154277">
<ele>541.57</ele>
<time>2015-04-30T12:30:24Z</time>
</trkpt>
<trkpt lat="34.8112526" lon="32.9155041">
<ele>540.96</ele>
<time>2015-04-30T12:30:26Z</time>
</trkpt>
<trkpt lat="34.8112110" lon="32.9155741">
<ele>540.81</ele>
<time>2015-04-30T12:30:28Z</time>
</trkpt>
<trkpt lat="34.8111653" lon="32.9156294">
<ele>540.77</ele>
<time>2015-04-30T12:30:30Z</time>
</trkpt>
<trkpt lat="34.8111304" lon="32.9156852">
<ele>540.76</ele>
<time>2015-04-30T12:30:32Z</time>
</trkpt>
<trkpt lat="34.8110914" lon="32.9157574">
<ele>540.76</ele>
<time>2015-04-30T12:30:34Z</time>
</trkpt>
<trkpt lat="34.8110452" lon="32.9158345">
<ele>541.51</ele>
<time>2015-04-30T12:30:36Z</time>
</trkpt>
<trkpt lat="34.8109988" lon="32.9159111">
<ele>541.70</ele>
<time>2015-04-30T12:30:38Z</time>
</trkpt>
<trkpt lat="34.8109490" lon="32.9159863">
<ele>542.24</ele>
<time>2015-04-30T12:30:40Z</time>
</trkpt>
<trkpt lat="34.8109004" lon="32.9160608">
<ele>542.63</ele>
<time>2015-04-30T12:30:42Z</time>
</trkpt>
<trkpt lat="34.8108464" lon="32.9161273">
<ele>542.73</ele>
<time>2015-04-30T12:30:44Z</time>
</trkpt>
<trkpt lat="34.8107874" lon="32.9161932">
<ele>542.75</ele>
<time>2015-04-30T12:30:46Z</time>
</trkpt>
<trkpt lat="34.8107176" lon="32.9162740">
<ele>543.51</ele>
<time>2015-04-30T12:30:48Z</time>
</trkpt>
<trkpt lat="34.8106611" lon="32.9163460">
<ele>543.70</ele>
<time>2015-04-30T12:30:50Z</time>
</trkpt>
<trkpt lat="34.8106094" lon="32.9163990">
<ele>543.74</ele>
<time>2015-04-30T12:30:52Z</time>
</trkpt>
<trkpt lat="34.8105627" lon="32.9164390">
<ele>543.76</ele>
<time>2015-04-30T12:30:54Z</time>
</trkpt>
<trkpt lat="34.8105210" lon="32.9164695">
<ele>543.76</ele>
<time>2015-04-30T12:30:56Z</time>
</trkpt>
<trkpt lat="34.8104728" lon="32.9165029">
<ele>543.76</ele>
<time>2015-04-30T12:30:58Z</time>
</trkpt>
<trkpt lat="34.8104249" lon="32.9165393">
<ele>543.76</ele>
<time>2015-04-30T12:31:00Z</time>
</trkpt>
<trkpt lat="34.8103759" lon="32.9165732">
<ele>543.76</ele>
<time>2015-04-30T12:31:02Z</time>
</trkpt>
<trkpt lat="34.8103225" lon="32.9166006">
<ele>543.76</ele>
<time>2015-04-30T12:31:04Z</time>
</trkpt>
<trkpt lat="34.8102557" lon="32.9166351">
<ele>543.76</ele>
<time>2015-04-30T12:31:06Z</time>
</trkpt>
<trkpt lat="34.8101792" lon="32.9166789">
<ele>543.76</ele>
<time>2015-04-30T12:31:08Z</time>
</trkpt>
<trkpt lat="34.8100847" lon="32.9167271">
<ele>543.76</ele>
<time>2015-04-30T12:31:10Z</time>
</trkpt>
<trkpt lat="34.8100403" lon="32.9167415">
<ele>543.76</ele>
<time>2015-04-30T12:31:11Z</time>
</trkpt>
<trkpt lat="34.8099942" lon="32.9167530">
<ele>543.76</ele>
<time>2015-04-30T12:31:12Z</time>
</trkpt>
<trkpt lat="34.8099084" lon="32.9167761">
<ele>543.76</ele>
<time>2015-04-30T12:31:14Z</time>
</trkpt>
<trkpt lat="34.8098632" lon="32.9167925">
<ele>543.76</ele>
<time>2015-04-30T12:31:15Z</time>
</trkpt>
<trkpt lat="34.8098177" lon="32.9168060">
<ele>543.76</ele>
<time>2015-04-30T12:31:16Z</time>
</trkpt>
<trkpt lat="34.8097722" lon="32.9168192">
<ele>543.76</ele>
<time>2015-04-30T12:31:17Z</time>
</trkpt>
<trkpt lat="34.8096836" lon="32.9168418">
<ele>543.76</ele>
<time>2015-04-30T12:31:19Z</time>
</trkpt>
<trkpt lat="34.8096384" lon="32.9168490">
<ele>543.76</ele>
<time>2015-04-30T12:31:20Z</time>
</trkpt>
<trkpt lat="34.8095933" lon="32.9168505">
<ele>543.76</ele>
<time>2015-04-30T12:31:21Z</time>
</trkpt>
<trkpt lat="34.8095084" lon="32.9168546">
<ele>543.01</ele>
<time>2015-04-30T12:31:23Z</time>
</trkpt>
<trkpt lat="34.8094628" lon="32.9168578">
<ele>542.89</ele>
<time>2015-04-30T12:31:24Z</time>
</trkpt>
<trkpt lat="34.8094176" lon="32.9168602">
<ele>542.82</ele>
<time>2015-04-30T12:31:25Z</time>
</trkpt>
<trkpt lat="34.8093684" lon="32.9168655">
<ele>542.79</ele>
<time>2015-04-30T12:31:26Z</time>
</trkpt>
<trkpt lat="34.8093184" lon="32.9168682">
<ele>542.78</ele>
<time>2015-04-30T12:31:27Z</time>
</trkpt>
<trkpt lat="34.8092654" lon="32.9168764">
<ele>542.77</ele>
<time>2015-04-30T12:31:28Z</time>
</trkpt>
<trkpt lat="34.8092190" lon="32.9168748">
<ele>542.76</ele>
<time>2015-04-30T12:31:29Z</time>
</trkpt>
<trkpt lat="34.8091649" lon="32.9168763">
<ele>542.26</ele>
<time>2015-04-30T12:31:30Z</time>
</trkpt>
<trkpt lat="34.8091132" lon="32.9168746">
<ele>542.01</ele>
<time>2015-04-30T12:31:31Z</time>
</trkpt>
<trkpt lat="34.8090608" lon="32.9168707">
<ele>541.89</ele>
<time>2015-04-30T12:31:32Z</time>
</trkpt>
<trkpt lat="34.8090078" lon="32.9168696">
<ele>541.82</ele>
<time>2015-04-30T12:31:33Z</time>
</trkpt>
<trkpt lat="34.8089586" lon="32.9168747">
<ele>542.29</ele>
<time>2015-04-30T12:31:34Z</time>
</trkpt>
<trkpt lat="34.8088984" lon="32.9168874">
<ele>542.39</ele>
<time>2015-04-30T12:31:36Z</time>
</trkpt>
<trkpt lat="34.8088718" lon="32.9169422">
<ele>542.74</ele>
<time>2015-04-30T12:31:40Z</time>
</trkpt>
<trkpt lat="34.8089187" lon="32.9169565">
<ele>542.88</ele>
<time>2015-04-30T12:31:43Z</time>
</trkpt>
<trkpt lat="34.8089635" lon="32.9169455">
<ele>542.77</ele>
<time>2015-04-30T12:31:47Z</time>
</trkpt>
<trkpt lat="34.8089671" lon="32.9168741">
<ele>541.82</ele>
<time>2015-04-30T12:31:52Z</time>
</trkpt>
<trkpt lat="34.8089236" lon="32.9168600">
<ele>541.78</ele>
<time>2015-04-30T12:31:54Z</time>
</trkpt>
<trkpt lat="34.8088700" lon="32.9168746">
<ele>542.51</ele>
<time>2015-04-30T12:31:56Z</time>
</trkpt>
<trkpt lat="34.8087939" lon="32.9168814">
<ele>542.70</ele>
<time>2015-04-30T12:31:58Z</time>
</trkpt>
<trkpt lat="34.8087113" lon="32.9168910">
<ele>542.74</ele>
<time>2015-04-30T12:32:00Z</time>
</trkpt>
<trkpt lat="34.8086094" lon="32.9169233">
<ele>542.76</ele>
<time>2015-04-30T12:32:02Z</time>
</trkpt>
<trkpt lat="34.8085158" lon="32.9169500">
<ele>542.26</ele>
<time>2015-04-30T12:32:04Z</time>
</trkpt>
<trkpt lat="34.8084679" lon="32.9169671">
<ele>542.01</ele>
<time>2015-04-30T12:32:05Z</time>
</trkpt>
<trkpt lat="34.8084223" lon="32.9169869">
<ele>541.88</ele>
<time>2015-04-30T12:32:06Z</time>
</trkpt>
<trkpt lat="34.8083730" lon="32.9170027">
<ele>541.82</ele>
<time>2015-04-30T12:32:07Z</time>
</trkpt>
<trkpt lat="34.8083255" lon="32.9170228">
<ele>541.79</ele>
<time>2015-04-30T12:32:08Z</time>
</trkpt>
<trkpt lat="34.8082740" lon="32.9170503">
<ele>541.78</ele>
<time>2015-04-30T12:32:09Z</time>
</trkpt>
<trkpt lat="34.8082230" lon="32.9170748">
<ele>541.77</ele>
<time>2015-04-30T12:32:10Z</time>
</trkpt>
<trkpt lat="34.8081764" lon="32.9171047">
<ele>541.76</ele>
<time>2015-04-30T12:32:11Z</time>
</trkpt>
<trkpt lat="34.8081278" lon="32.9171381">
<ele>541.76</ele>
<time>2015-04-30T12:32:12Z</time>
</trkpt>
<trkpt lat="34.8080761" lon="32.9171687">
<ele>541.26</ele>
<time>2015-04-30T12:32:13Z</time>
</trkpt>
<trkpt lat="34.8080264" lon="32.9171998">
<ele>541.01</ele>
<time>2015-04-30T12:32:14Z</time>
</trkpt>
<trkpt lat="34.8079759" lon="32.9172353">
<ele>540.89</ele>
<time>2015-04-30T12:32:15Z</time>
</trkpt>
<trkpt lat="34.8079206" lon="32.9172627">
<ele>540.32</ele>
<time>2015-04-30T12:32:16Z</time>
</trkpt>
<trkpt lat="34.8078684" lon="32.9172979">
<ele>540.04</ele>
<time>2015-04-30T12:32:17Z</time>
</trkpt>
<trkpt lat="34.8078195" lon="32.9173379">
<ele>539.90</ele>
<time>2015-04-30T12:32:18Z</time>
</trkpt>
<trkpt lat="34.8077613" lon="32.9173684">
<ele>539.33</ele>
<time>2015-04-30T12:32:19Z</time>
</trkpt>
<trkpt lat="34.8077027" lon="32.9174054">
<ele>538.55</ele>
<time>2015-04-30T12:32:20Z</time>
</trkpt>
<trkpt lat="34.8076411" lon="32.9174248">
<ele>538.15</ele>
<time>2015-04-30T12:32:21Z</time>
</trkpt>
<trkpt lat="34.8075778" lon="32.9174475">
<ele>537.96</ele>
<time>2015-04-30T12:32:22Z</time>
</trkpt>
<trkpt lat="34.8075171" lon="32.9174644">
<ele>537.36</ele>
<time>2015-04-30T12:32:23Z</time>
</trkpt>
<trkpt lat="34.8074515" lon="32.9174833">
<ele>537.06</ele>
<time>2015-04-30T12:32:24Z</time>
</trkpt>
<trkpt lat="34.8073845" lon="32.9174973">
<ele>536.91</ele>
<time>2015-04-30T12:32:25Z</time>
</trkpt>
<trkpt lat="34.8073127" lon="32.9175007">
<ele>536.83</ele>
<time>2015-04-30T12:32:26Z</time>
</trkpt>
<trkpt lat="34.8072421" lon="32.9175005">
<ele>536.80</ele>
<time>2015-04-30T12:32:27Z</time>
</trkpt>
<trkpt lat="34.8071671" lon="32.9174996">
<ele>536.78</ele>
<time>2015-04-30T12:32:28Z</time>
</trkpt>
<trkpt lat="34.8070910" lon="32.9174934">
<ele>536.27</ele>
<time>2015-04-30T12:32:29Z</time>
</trkpt>
<trkpt lat="34.8070116" lon="32.9174760">
<ele>535.51</ele>
<time>2015-04-30T12:32:30Z</time>
</trkpt>
<trkpt lat="34.8069357" lon="32.9174572">
<ele>535.14</ele>
<time>2015-04-30T12:32:31Z</time>
</trkpt>
<trkpt lat="34.8068534" lon="32.9174320">
<ele>534.45</ele>
<time>2015-04-30T12:32:32Z</time>
</trkpt>
<trkpt lat="34.8067694" lon="32.9174000">
<ele>533.60</ele>
<time>2015-04-30T12:32:33Z</time>
</trkpt>
<trkpt lat="34.8066838" lon="32.9173751">
<ele>533.18</ele>
<time>2015-04-30T12:32:34Z</time>
</trkpt>
<trkpt lat="34.8066002" lon="32.9173464">
<ele>532.47</ele>
<time>2015-04-30T12:32:35Z</time>
</trkpt>
<trkpt lat="34.8065121" lon="32.9173079">
<ele>532.12</ele>
<time>2015-04-30T12:32:36Z</time>
</trkpt>
<trkpt lat="34.8064288" lon="32.9172736">
<ele>531.44</ele>
<time>2015-04-30T12:32:37Z</time>
</trkpt>
<trkpt lat="34.8063374" lon="32.9172431">
<ele>530.60</ele>
<time>2015-04-30T12:32:38Z</time>
</trkpt>
<trkpt lat="34.8062500" lon="32.9172118">
<ele>529.68</ele>
<time>2015-04-30T12:32:39Z</time>
</trkpt>
<trkpt lat="34.8061513" lon="32.9171816">
<ele>529.22</ele>
<time>2015-04-30T12:32:40Z</time>
</trkpt>
<trkpt lat="34.8060528" lon="32.9171510">
<ele>528.49</ele>
<time>2015-04-30T12:32:41Z</time>
</trkpt>
<trkpt lat="34.8059520" lon="32.9171185">
<ele>527.62</ele>
<time>2015-04-30T12:32:42Z</time>
</trkpt>
<trkpt lat="34.8058557" lon="32.9170850">
<ele>527.19</ele>
<time>2015-04-30T12:32:43Z</time>
</trkpt>
<trkpt lat="34.8057415" lon="32.9170458">
<ele>525.98</ele>
<time>2015-04-30T12:32:44Z</time>
</trkpt>
<trkpt lat="34.8056366" lon="32.9170019">
<ele>524.87</ele>
<time>2015-04-30T12:32:45Z</time>
</trkpt>
<trkpt lat="34.8055283" lon="32.9169660">
<ele>523.81</ele>
<time>2015-04-30T12:32:46Z</time>
</trkpt>
<trkpt lat="34.8054193" lon="32.9169264">
<ele>523.29</ele>
<time>2015-04-30T12:32:47Z</time>
</trkpt>
<trkpt lat="34.8053071" lon="32.9168801">
<ele>522.52</ele>
<time>2015-04-30T12:32:48Z</time>
</trkpt>
<trkpt lat="34.8051949" lon="32.9168393">
<ele>522.14</ele>
<time>2015-04-30T12:32:49Z</time>
</trkpt>
<trkpt lat="34.8050824" lon="32.9167993">
<ele>521.95</ele>
<time>2015-04-30T12:32:50Z</time>
</trkpt>
<trkpt lat="34.8049734" lon="32.9167574">
<ele>521.36</ele>
<time>2015-04-30T12:32:51Z</time>
</trkpt>
<trkpt lat="34.8048601" lon="32.9167167">
<ele>520.56</ele>
<time>2015-04-30T12:32:52Z</time>
</trkpt>
<trkpt lat="34.8047484" lon="32.9166827">
<ele>519.66</ele>
<time>2015-04-30T12:32:53Z</time>
</trkpt>
<trkpt lat="34.8046364" lon="32.9166475">
<ele>519.21</ele>
<time>2015-04-30T12:32:54Z</time>
</trkpt>
<trkpt lat="34.8045279" lon="32.9166080">
<ele>518.48</ele>
<time>2015-04-30T12:32:55Z</time>
</trkpt>
<trkpt lat="34.8044140" lon="32.9165652">
<ele>517.62</ele>
<time>2015-04-30T12:32:56Z</time>
</trkpt>
<trkpt lat="34.8043070" lon="32.9165227">
<ele>516.69</ele>
<time>2015-04-30T12:32:57Z</time>
</trkpt>
<trkpt lat="34.8042026" lon="32.9164905">
<ele>516.23</ele>
<time>2015-04-30T12:32:58Z</time>
</trkpt>
<trkpt lat="34.8041032" lon="32.9164516">
<ele>515.49</ele>
<time>2015-04-30T12:32:59Z</time>
</trkpt>
<trkpt lat="34.8039941" lon="32.9164115">
<ele>515.13</ele>
<time>2015-04-30T12:33:00Z</time>
</trkpt>
<trkpt lat="34.8038966" lon="32.9163759">
<ele>514.94</ele>
<time>2015-04-30T12:33:01Z</time>
</trkpt>
<trkpt lat="34.8037975" lon="32.9163440">
<ele>514.35</ele>
<time>2015-04-30T12:33:02Z</time>
</trkpt>
<trkpt lat="34.8037053" lon="32.9163145">
<ele>514.06</ele>
<time>2015-04-30T12:33:03Z</time>
</trkpt>
<trkpt lat="34.8036118" lon="32.9162878">
<ele>514.41</ele>
<time>2015-04-30T12:33:04Z</time>
</trkpt>
<trkpt lat="34.8035189" lon="32.9162651">
<ele>514.08</ele>
<time>2015-04-30T12:33:05Z</time>
</trkpt>
<trkpt lat="34.8034329" lon="32.9162385">
<ele>514.42</ele>
<time>2015-04-30T12:33:06Z</time>
</trkpt>
<trkpt lat="34.8033487" lon="32.9162161">
<ele>514.59</ele>
<time>2015-04-30T12:33:07Z</time>
</trkpt>
<trkpt lat="34.8032557" lon="32.9161956">
<ele>514.18</ele>
<time>2015-04-30T12:33:08Z</time>
</trkpt>
<trkpt lat="34.8031700" lon="32.9161850">
<ele>513.97</ele>
<time>2015-04-30T12:33:09Z</time>
</trkpt>
<trkpt lat="34.8030873" lon="32.9161707">
<ele>514.36</ele>
<time>2015-04-30T12:33:10Z</time>
</trkpt>
<trkpt lat="34.8030080" lon="32.9161583">
<ele>514.56</ele>
<time>2015-04-30T12:33:11Z</time>
</trkpt>
<trkpt lat="34.8029225" lon="32.9161525">
<ele>514.16</ele>
<time>2015-04-30T12:33:12Z</time>
</trkpt>
<trkpt lat="34.8028377" lon="32.9161427">
<ele>514.46</ele>
<time>2015-04-30T12:33:13Z</time>
</trkpt>
<trkpt lat="34.8027552" lon="32.9161369">
<ele>514.61</ele>
<time>2015-04-30T12:33:14Z</time>
</trkpt>
<trkpt lat="34.8026774" lon="32.9161302">
<ele>514.69</ele>
<time>2015-04-30T12:33:15Z</time>
</trkpt>
<trkpt lat="34.8025864" lon="32.9161264">
<ele>514.72</ele>
<time>2015-04-30T12:33:16Z</time>
</trkpt>
<trkpt lat="34.8025064" lon="32.9161126">
<ele>514.24</ele>
<time>2015-04-30T12:33:17Z</time>
</trkpt>
<trkpt lat="34.8024199" lon="32.9161064">
<ele>514.00</ele>
<time>2015-04-30T12:33:18Z</time>
</trkpt>
<trkpt lat="34.8023383" lon="32.9160943">
<ele>513.38</ele>
<time>2015-04-30T12:33:19Z</time>
</trkpt>
<trkpt lat="34.8022473" lon="32.9160867">
<ele>512.57</ele>
<time>2015-04-30T12:33:20Z</time>
</trkpt>
<trkpt lat="34.8021670" lon="32.9160802">
<ele>512.17</ele>
<time>2015-04-30T12:33:21Z</time>
</trkpt>
<trkpt lat="34.8020855" lon="32.9160765">
<ele>511.46</ele>
<time>2015-04-30T12:33:22Z</time>
</trkpt>
<trkpt lat="34.8020073" lon="32.9160721">
<ele>511.11</ele>
<time>2015-04-30T12:33:23Z</time>
</trkpt>
<trkpt lat="34.8019237" lon="32.9160695">
<ele>510.94</ele>
<time>2015-04-30T12:33:24Z</time>
</trkpt>
<trkpt lat="34.8018487" lon="32.9160591">
<ele>510.85</ele>
<time>2015-04-30T12:33:25Z</time>
</trkpt>
<trkpt lat="34.8017631" lon="32.9160518">
<ele>510.80</ele>
<time>2015-04-30T12:33:26Z</time>
</trkpt>
<trkpt lat="34.8016825" lon="32.9160405">
<ele>510.28</ele>
<time>2015-04-30T12:33:27Z</time>
</trkpt>
<trkpt lat="34.8015939" lon="32.9160312">
<ele>510.02</ele>
<time>2015-04-30T12:33:28Z</time>
</trkpt>
<trkpt lat="34.8015083" lon="32.9160289">
<ele>509.89</ele>
<time>2015-04-30T12:33:29Z</time>
</trkpt>
<trkpt lat="34.8014176" lon="32.9160231">
<ele>509.83</ele>
<time>2015-04-30T12:33:30Z</time>
</trkpt>
<trkpt lat="34.8013312" lon="32.9160121">
<ele>509.79</ele>
<time>2015-04-30T12:33:31Z</time>
</trkpt>
<trkpt lat="34.8012423" lon="32.9159998">
<ele>509.28</ele>
<time>2015-04-30T12:33:32Z</time>
</trkpt>
<trkpt lat="34.8011574" lon="32.9159943">
<ele>509.02</ele>
<time>2015-04-30T12:33:33Z</time>
</trkpt>
<trkpt lat="34.8010697" lon="32.9159857">
<ele>508.39</ele>
<time>2015-04-30T12:33:34Z</time>
</trkpt>
<trkpt lat="34.8009869" lon="32.9159781">
<ele>508.07</ele>
<time>2015-04-30T12:33:35Z</time>
</trkpt>
<trkpt lat="34.8008980" lon="32.9159683">
<ele>507.92</ele>
<time>2015-04-30T12:33:36Z</time>
</trkpt>
<trkpt lat="34.8008145" lon="32.9159538">
<ele>507.34</ele>
<time>2015-04-30T12:33:37Z</time>
</trkpt>
<trkpt lat="34.8007228" lon="32.9159487">
<ele>506.55</ele>
<time>2015-04-30T12:33:38Z</time>
</trkpt>
<trkpt lat="34.8006367" lon="32.9159424">
<ele>505.65</ele>
<time>2015-04-30T12:33:39Z</time>
</trkpt>
<trkpt lat="34.8005494" lon="32.9159332">
<ele>505.21</ele>
<time>2015-04-30T12:33:40Z</time>
</trkpt>
<trkpt lat="34.8004703" lon="32.9159272">
<ele>504.48</ele>
<time>2015-04-30T12:33:41Z</time>
</trkpt>
<trkpt lat="34.8003945" lon="32.9159208">
<ele>504.62</ele>
<time>2015-04-30T12:33:42Z</time>
</trkpt>
<trkpt lat="34.8003228" lon="32.9159106">
<ele>504.19</ele>
<time>2015-04-30T12:33:43Z</time>
</trkpt>
<trkpt lat="34.8002501" lon="32.9158952">
<ele>503.98</ele>
<time>2015-04-30T12:33:44Z</time>
</trkpt>
<trkpt lat="34.8001789" lon="32.9158729">
<ele>503.37</ele>
<time>2015-04-30T12:33:45Z</time>
</trkpt>
<trkpt lat="34.8001068" lon="32.9158495">
<ele>503.56</ele>
<time>2015-04-30T12:33:46Z</time>
</trkpt>
<trkpt lat="34.8000384" lon="32.9158305">
<ele>503.66</ele>
<time>2015-04-30T12:33:47Z</time>
</trkpt>
<trkpt lat="34.7999657" lon="32.9158013">
<ele>503.71</ele>
<time>2015-04-30T12:33:48Z</time>
</trkpt>
<trkpt lat="34.7998975" lon="32.9157696">
<ele>503.74</ele>
<time>2015-04-30T12:33:49Z</time>
</trkpt>
<trkpt lat="34.7998322" lon="32.9157341">
<ele>503.75</ele>
<time>2015-04-30T12:33:50Z</time>
</trkpt>
<trkpt lat="34.7997713" lon="32.9156828">
<ele>503.25</ele>
<time>2015-04-30T12:33:51Z</time>
</trkpt>
<trkpt lat="34.7997069" lon="32.9156314">
<ele>503.01</ele>
<time>2015-04-30T12:33:52Z</time>
</trkpt>
<trkpt lat="34.7996484" lon="32.9155894">
<ele>502.88</ele>
<time>2015-04-30T12:33:53Z</time>
</trkpt>
<trkpt lat="34.7995871" lon="32.9155420">
<ele>502.82</ele>
<time>2015-04-30T12:33:54Z</time>
</trkpt>
<trkpt lat="34.7995298" lon="32.9154994">
<ele>502.29</ele>
<time>2015-04-30T12:33:55Z</time>
</trkpt>
<trkpt lat="34.7994715" lon="32.9154592">
<ele>502.03</ele>
<time>2015-04-30T12:33:56Z</time>
</trkpt>
<trkpt lat="34.7994106" lon="32.9154150">
<ele>501.89</ele>
<time>2015-04-30T12:33:57Z</time>
</trkpt>
<trkpt lat="34.7993538" lon="32.9153782">
<ele>501.83</ele>
<time>2015-04-30T12:33:58Z</time>
</trkpt>
<trkpt lat="34.7992973" lon="32.9153388">
<ele>501.79</ele>
<time>2015-04-30T12:33:59Z</time>
</trkpt>
<trkpt lat="34.7992381" lon="32.9152955">
<ele>501.78</ele>
<time>2015-04-30T12:34:00Z</time>
</trkpt>
<trkpt lat="34.7991843" lon="32.9152514">
<ele>501.77</ele>
<time>2015-04-30T12:34:01Z</time>
</trkpt>
<trkpt lat="34.7991244" lon="32.9152206">
<ele>501.76</ele>
<time>2015-04-30T12:34:02Z</time>
</trkpt>
<trkpt lat="34.7990685" lon="32.9151860">
<ele>501.26</ele>
<time>2015-04-30T12:34:03Z</time>
</trkpt>
<trkpt lat="34.7990085" lon="32.9151542">
<ele>501.01</ele>
<time>2015-04-30T12:34:04Z</time>
</trkpt>
<trkpt lat="34.7989487" lon="32.9151108">
<ele>500.89</ele>
<time>2015-04-30T12:34:05Z</time>
</trkpt>
<trkpt lat="34.7988882" lon="32.9150780">
<ele>500.32</ele>
<time>2015-04-30T12:34:06Z</time>
</trkpt>
<trkpt lat="34.7988405" lon="32.9150602">
<ele>500.04</ele>
<time>2015-04-30T12:34:07Z</time>
</trkpt>
<trkpt lat="34.7987775" lon="32.9150414">
<ele>499.90</ele>
<time>2015-04-30T12:34:08Z</time>
</trkpt>
<trkpt lat="34.7987134" lon="32.9150193">
<ele>499.83</ele>
<time>2015-04-30T12:34:09Z</time>
</trkpt>
<trkpt lat="34.7986484" lon="32.9149996">
<ele>499.80</ele>
<time>2015-04-30T12:34:10Z</time>
</trkpt>
<trkpt lat="34.7985834" lon="32.9149850">
<ele>499.78</ele>
<time>2015-04-30T12:34:11Z</time>
</trkpt>
<trkpt lat="34.7985200" lon="32.9149717">
<ele>499.77</ele>
<time>2015-04-30T12:34:12Z</time>
</trkpt>
<trkpt lat="34.7984557" lon="32.9149620">
<ele>499.76</ele>
<time>2015-04-30T12:34:13Z</time>
</trkpt>
<trkpt lat="34.7983919" lon="32.9149603">
<ele>499.26</ele>
<time>2015-04-30T12:34:14Z</time>
</trkpt>
<trkpt lat="34.7983291" lon="32.9149558">
<ele>499.51</ele>
<time>2015-04-30T12:34:15Z</time>
</trkpt>
<trkpt lat="34.7982652" lon="32.9149439">
<ele>499.14</ele>
<time>2015-04-30T12:34:16Z</time>
</trkpt>
<trkpt lat="34.7982017" lon="32.9149390">
<ele>498.95</ele>
<time>2015-04-30T12:34:17Z</time>
</trkpt>
<trkpt lat="34.7981346" lon="32.9149438">
<ele>498.85</ele>
<time>2015-04-30T12:34:18Z</time>
</trkpt>
<trkpt lat="34.7980702" lon="32.9149520">
<ele>498.81</ele>
<time>2015-04-30T12:34:19Z</time>
</trkpt>
<trkpt lat="34.7980064" lon="32.9149620">
<ele>498.78</ele>
<time>2015-04-30T12:34:20Z</time>
</trkpt>
<trkpt lat="34.7979488" lon="32.9149681">
<ele>498.27</ele>
<time>2015-04-30T12:34:21Z</time>
</trkpt>
<trkpt lat="34.7978818" lon="32.9149789">
<ele>498.02</ele>
<time>2015-04-30T12:34:22Z</time>
</trkpt>
<trkpt lat="34.7978209" lon="32.9149892">
<ele>497.89</ele>
<time>2015-04-30T12:34:23Z</time>
</trkpt>
<trkpt lat="34.7977545" lon="32.9150004">
<ele>497.82</ele>
<time>2015-04-30T12:34:24Z</time>
</trkpt>
<trkpt lat="34.7976801" lon="32.9150123">
<ele>497.29</ele>
<time>2015-04-30T12:34:25Z</time>
</trkpt>
<trkpt lat="34.7976149" lon="32.9150188">
<ele>497.03</ele>
<time>2015-04-30T12:34:26Z</time>
</trkpt>
<trkpt lat="34.7975529" lon="32.9150321">
<ele>496.89</ele>
<time>2015-04-30T12:34:27Z</time>
</trkpt>
<trkpt lat="34.7974794" lon="32.9150483">
<ele>496.33</ele>
<time>2015-04-30T12:34:28Z</time>
</trkpt>
<trkpt lat="34.7974155" lon="32.9150595">
<ele>496.04</ele>
<time>2015-04-30T12:34:29Z</time>
</trkpt>
<trkpt lat="34.7973476" lon="32.9150723">
<ele>495.90</ele>
<time>2015-04-30T12:34:30Z</time>
</trkpt>
<trkpt lat="34.7972805" lon="32.9150861">
<ele>495.33</ele>
<time>2015-04-30T12:34:31Z</time>
</trkpt>
<trkpt lat="34.7972027" lon="32.9150978">
<ele>495.05</ele>
<time>2015-04-30T12:34:32Z</time>
</trkpt>
<trkpt lat="34.7971242" lon="32.9151143">
<ele>494.90</ele>
<time>2015-04-30T12:34:33Z</time>
</trkpt>
<trkpt lat="34.7970438" lon="32.9151258">
<ele>494.33</ele>
<time>2015-04-30T12:34:34Z</time>
</trkpt>
<trkpt lat="34.7969613" lon="32.9151427">
<ele>494.05</ele>
<time>2015-04-30T12:34:35Z</time>
</trkpt>
<trkpt lat="34.7968794" lon="32.9151712">
<ele>493.40</ele>
<time>2015-04-30T12:34:36Z</time>
</trkpt>
<trkpt lat="34.7967899" lon="32.9151865">
<ele>493.58</ele>
<time>2015-04-30T12:34:37Z</time>
</trkpt>
<trkpt lat="34.7967018" lon="32.9152030">
<ele>493.17</ele>
<time>2015-04-30T12:34:38Z</time>
</trkpt>
<trkpt lat="34.7966122" lon="32.9152218">
<ele>492.47</ele>
<time>2015-04-30T12:34:39Z</time>
</trkpt>
<trkpt lat="34.7965135" lon="32.9152329">
<ele>492.11</ele>
<time>2015-04-30T12:34:40Z</time>
</trkpt>
<trkpt lat="34.7964198" lon="32.9152368">
<ele>491.94</ele>
<time>2015-04-30T12:34:41Z</time>
</trkpt>
<trkpt lat="34.7963266" lon="32.9152551">
<ele>491.85</ele>
<time>2015-04-30T12:34:42Z</time>
</trkpt>
<trkpt lat="34.7962363" lon="32.9152736">
<ele>491.30</ele>
<time>2015-04-30T12:34:43Z</time>
</trkpt>
<trkpt lat="34.7961366" lon="32.9152923">
<ele>491.03</ele>
<time>2015-04-30T12:34:44Z</time>
</trkpt>
<trkpt lat="34.7960422" lon="32.9153130">
<ele>490.40</ele>
<time>2015-04-30T12:34:45Z</time>
</trkpt>
<trkpt lat="34.7959478" lon="32.9153260">
<ele>490.08</ele>
<time>2015-04-30T12:34:46Z</time>
</trkpt>
<trkpt lat="34.7958545" lon="32.9153443">
<ele>489.92</ele>
<time>2015-04-30T12:34:47Z</time>
</trkpt>
<trkpt lat="34.7957584" lon="32.9153627">
<ele>489.84</ele>
<time>2015-04-30T12:34:48Z</time>
</trkpt>
<trkpt lat="34.7956641" lon="32.9153774">
<ele>489.30</ele>
<time>2015-04-30T12:34:49Z</time>
</trkpt>
<trkpt lat="34.7955750" lon="32.9153969">
<ele>489.03</ele>
<time>2015-04-30T12:34:50Z</time>
</trkpt>
<trkpt lat="34.7954909" lon="32.9154162">
<ele>488.39</ele>
<time>2015-04-30T12:34:51Z</time>
</trkpt>
<trkpt lat="34.7953992" lon="32.9154321">
<ele>488.08</ele>
<time>2015-04-30T12:34:52Z</time>
</trkpt>
<trkpt lat="34.7953080" lon="32.9154515">
<ele>487.92</ele>
<time>2015-04-30T12:34:53Z</time>
</trkpt>
<trkpt lat="34.7952211" lon="32.9154662">
<ele>487.84</ele>
<time>2015-04-30T12:34:54Z</time>
</trkpt>
<trkpt lat="34.7951369" lon="32.9154843">
<ele>487.80</ele>
<time>2015-04-30T12:34:55Z</time>
</trkpt>
<trkpt lat="34.7950492" lon="32.9154993">
<ele>487.78</ele>
<time>2015-04-30T12:34:56Z</time>
</trkpt>
<trkpt lat="34.7949662" lon="32.9155180">
<ele>487.77</ele>
<time>2015-04-30T12:34:57Z</time>
</trkpt>
<trkpt lat="34.7948871" lon="32.9155313">
<ele>487.76</ele>
<time>2015-04-30T12:34:58Z</time>
</trkpt>
<trkpt lat="34.7948096" lon="32.9155429">
<ele>487.76</ele>
<time>2015-04-30T12:34:59Z</time>
</trkpt>
<trkpt lat="34.7947235" lon="32.9155478">
<ele>487.26</ele>
<time>2015-04-30T12:35:00Z</time>
</trkpt>
<trkpt lat="34.7946536" lon="32.9155568">
<ele>486.51</ele>
<time>2015-04-30T12:35:01Z</time>
</trkpt>
<trkpt lat="34.7945834" lon="32.9155677">
<ele>486.14</ele>
<time>2015-04-30T12:35:02Z</time>
</trkpt>
<trkpt lat="34.7945177" lon="32.9155852">
<ele>486.45</ele>
<time>2015-04-30T12:35:03Z</time>
</trkpt>
<trkpt lat="34.7944478" lon="32.9155933">
<ele>486.60</ele>
<time>2015-04-30T12:35:04Z</time>
</trkpt>
<trkpt lat="34.7943819" lon="32.9156049">
<ele>486.18</ele>
<time>2015-04-30T12:35:05Z</time>
</trkpt>
<trkpt lat="34.7943104" lon="32.9156175">
<ele>485.97</ele>
<time>2015-04-30T12:35:06Z</time>
</trkpt>
<trkpt lat="34.7942484" lon="32.9156344">
<ele>485.87</ele>
<time>2015-04-30T12:35:07Z</time>
</trkpt>
<trkpt lat="34.7941810" lon="32.9156505">
<ele>485.81</ele>
<time>2015-04-30T12:35:08Z</time>
</trkpt>
<trkpt lat="34.7941199" lon="32.9156651">
<ele>485.79</ele>
<time>2015-04-30T12:35:09Z</time>
</trkpt>
<trkpt lat="34.7940560" lon="32.9156790">
<ele>486.27</ele>
<time>2015-04-30T12:35:10Z</time>
</trkpt>
<trkpt lat="34.7939949" lon="32.9156964">
<ele>486.52</ele>
<time>2015-04-30T12:35:11Z</time>
</trkpt>
<trkpt lat="34.7939267" lon="32.9157086">
<ele>486.64</ele>
<time>2015-04-30T12:35:12Z</time>
</trkpt>
<trkpt lat="34.7938604" lon="32.9157255">
<ele>486.70</ele>
<time>2015-04-30T12:35:13Z</time>
</trkpt>
<trkpt lat="34.7937945" lon="32.9157402">
<ele>487.23</ele>
<time>2015-04-30T12:35:14Z</time>
</trkpt>
<trkpt lat="34.7937330" lon="32.9157495">
<ele>487.49</ele>
<time>2015-04-30T12:35:15Z</time>
</trkpt>
<trkpt lat="34.7936691" lon="32.9157640">
<ele>487.13</ele>
<time>2015-04-30T12:35:16Z</time>
</trkpt>
<trkpt lat="34.7936032" lon="32.9157736">
<ele>486.94</ele>
<time>2015-04-30T12:35:17Z</time>
</trkpt>
<trkpt lat="34.7935367" lon="32.9157820">
<ele>486.85</ele>
<time>2015-04-30T12:35:18Z</time>
</trkpt>
<trkpt lat="34.7934746" lon="32.9157949">
<ele>487.31</ele>
<time>2015-04-30T12:35:19Z</time>
</trkpt>
<trkpt lat="34.7934083" lon="32.9158138">
<ele>487.53</ele>
<time>2015-04-30T12:35:20Z</time>
</trkpt>
<trkpt lat="34.7933435" lon="32.9158255">
<ele>488.15</ele>
<time>2015-04-30T12:35:21Z</time>
</trkpt>
<trkpt lat="34.7932815" lon="32.9158388">
<ele>488.45</ele>
<time>2015-04-30T12:35:22Z</time>
</trkpt>
<trkpt lat="34.7932192" lon="32.9158502">
<ele>488.61</ele>
<time>2015-04-30T12:35:23Z</time>
</trkpt>
<trkpt lat="34.7931561" lon="32.9158673">
<ele>488.68</ele>
<time>2015-04-30T12:35:24Z</time>
</trkpt>
<trkpt lat="34.7930947" lon="32.9158716">
<ele>487.72</ele>
<time>2015-04-30T12:35:25Z</time>
</trkpt>
<trkpt lat="34.7930324" lon="32.9158746">
<ele>487.24</ele>
<time>2015-04-30T12:35:26Z</time>
</trkpt>
<trkpt lat="34.7929730" lon="32.9158753">
<ele>487.00</ele>
<time>2015-04-30T12:35:27Z</time>
</trkpt>
<trkpt lat="34.7929112" lon="32.9158818">
<ele>486.88</ele>
<time>2015-04-30T12:35:28Z</time>
</trkpt>
<trkpt lat="34.7928430" lon="32.9158893">
<ele>486.32</ele>
<time>2015-04-30T12:35:29Z</time>
</trkpt>
<trkpt lat="34.7927778" lon="32.9158931">
<ele>486.04</ele>
<time>2015-04-30T12:35:30Z</time>
</trkpt>
<trkpt lat="34.7927150" lon="32.9158965">
<ele>485.40</ele>
<time>2015-04-30T12:35:31Z</time>
</trkpt>
<trkpt lat="34.7926516" lon="32.9159001">
<ele>485.08</ele>
<time>2015-04-30T12:35:32Z</time>
</trkpt>
<trkpt lat="34.7925823" lon="32.9159029">
<ele>484.42</ele>
<time>2015-04-30T12:35:33Z</time>
</trkpt>
<trkpt lat="34.7925247" lon="32.9159134">
<ele>483.59</ele>
<time>2015-04-30T12:35:34Z</time>
</trkpt>
<trkpt lat="34.7924633" lon="32.9159227">
<ele>483.17</ele>
<time>2015-04-30T12:35:35Z</time>
</trkpt>
<trkpt lat="34.7924000" lon="32.9159221">
<ele>482.97</ele>
<time>2015-04-30T12:35:36Z</time>
</trkpt>
<trkpt lat="34.7923364" lon="32.9159270">
<ele>482.36</ele>
<time>2015-04-30T12:35:37Z</time>
</trkpt>
<trkpt lat="34.7922724" lon="32.9159273">
<ele>482.06</ele>
<time>2015-04-30T12:35:38Z</time>
</trkpt>
<trkpt lat="34.7922099" lon="32.9159361">
<ele>481.91</ele>
<time>2015-04-30T12:35:39Z</time>
</trkpt>
<trkpt lat="34.7921450" lon="32.9159444">
<ele>481.34</ele>
<time>2015-04-30T12:35:40Z</time>
</trkpt>
<trkpt lat="34.7920713" lon="32.9159533">
<ele>481.05</ele>
<time>2015-04-30T12:35:41Z</time>
</trkpt>
<trkpt lat="34.7920043" lon="32.9159542">
<ele>480.90</ele>
<time>2015-04-30T12:35:42Z</time>
</trkpt>
<trkpt lat="34.7919306" lon="32.9159574">
<ele>480.33</ele>
<time>2015-04-30T12:35:43Z</time>
</trkpt>
<trkpt lat="34.7918512" lon="32.9159628">
<ele>480.05</ele>
<time>2015-04-30T12:35:44Z</time>
</trkpt>
<trkpt lat="34.7917696" lon="32.9159713">
<ele>479.90</ele>
<time>2015-04-30T12:35:45Z</time>
</trkpt>
<trkpt lat="34.7916938" lon="32.9159737">
<ele>479.83</ele>
<time>2015-04-30T12:35:46Z</time>
</trkpt>
<trkpt lat="34.7916239" lon="32.9159796">
<ele>479.80</ele>
<time>2015-04-30T12:35:47Z</time>
</trkpt>
<trkpt lat="34.7915435" lon="32.9159799">
<ele>479.28</ele>
<time>2015-04-30T12:35:48Z</time>
</trkpt>
<trkpt lat="34.7914675" lon="32.9159835">
<ele>478.52</ele>
<time>2015-04-30T12:35:49Z</time>
</trkpt>
<trkpt lat="34.7913922" lon="32.9159853">
<ele>478.14</ele>
<time>2015-04-30T12:35:50Z</time>
</trkpt>
<trkpt lat="34.7913079" lon="32.9159942">
<ele>477.45</ele>
<time>2015-04-30T12:35:51Z</time>
</trkpt>
<trkpt lat="34.7912302" lon="32.9160013">
<ele>477.10</ele>
<time>2015-04-30T12:35:52Z</time>
</trkpt>
<trkpt lat="34.7911478" lon="32.9160042">
<ele>476.93</ele>
<time>2015-04-30T12:35:53Z</time>
</trkpt>
<trkpt lat="34.7910692" lon="32.9160088">
<ele>476.35</ele>
<time>2015-04-30T12:35:54Z</time>
</trkpt>
<trkpt lat="34.7909862" lon="32.9160122">
<ele>475.55</ele>
<time>2015-04-30T12:35:55Z</time>
</trkpt>
<trkpt lat="34.7909082" lon="32.9160121">
<ele>474.66</ele>
<time>2015-04-30T12:35:56Z</time>
</trkpt>
<trkpt lat="34.7908169" lon="32.9160164">
<ele>474.21</ele>
<time>2015-04-30T12:35:57Z</time>
</trkpt>
<trkpt lat="34.7907274" lon="32.9160260">
<ele>473.48</ele>
<time>2015-04-30T12:35:58Z</time>
</trkpt>
<trkpt lat="34.7906413" lon="32.9160317">
<ele>473.12</ele>
<time>2015-04-30T12:35:59Z</time>
</trkpt>
<trkpt lat="34.7905414" lon="32.9160389">
<ele>472.44</ele>
<time>2015-04-30T12:36:00Z</time>
</trkpt>
<trkpt lat="34.7904459" lon="32.9160494">
<ele>471.60</ele>
<time>2015-04-30T12:36:01Z</time>
</trkpt>
<trkpt lat="34.7903510" lon="32.9160578">
<ele>470.68</ele>
<time>2015-04-30T12:36:02Z</time>
</trkpt>
<trkpt lat="34.7902549" lon="32.9160623">
<ele>470.22</ele>
<time>2015-04-30T12:36:03Z</time>
</trkpt>
<trkpt lat="34.7901490" lon="32.9160675">
<ele>468.99</ele>
<time>2015-04-30T12:36:04Z</time>
</trkpt>
<trkpt lat="34.7900484" lon="32.9160712">
<ele>468.38</ele>
<time>2015-04-30T12:36:05Z</time>
</trkpt>
<trkpt lat="34.7899496" lon="32.9160805">
<ele>468.07</ele>
<time>2015-04-30T12:36:06Z</time>
</trkpt>
<trkpt lat="34.7898508" lon="32.9160844">
<ele>467.41</ele>
<time>2015-04-30T12:36:07Z</time>
</trkpt>
<trkpt lat="34.7897488" lon="32.9160878">
<ele>467.09</ele>
<time>2015-04-30T12:36:08Z</time>
</trkpt>
<trkpt lat="34.7896578" lon="32.9160744">
<ele>466.92</ele>
<time>2015-04-30T12:36:09Z</time>
</trkpt>
<trkpt lat="34.7895650" lon="32.9160603">
<ele>466.84</ele>
<time>2015-04-30T12:36:10Z</time>
</trkpt>
<trkpt lat="34.7894766" lon="32.9160383">
<ele>466.80</ele>
<time>2015-04-30T12:36:11Z</time>
</trkpt>
<trkpt lat="34.7893842" lon="32.9160134">
<ele>466.78</ele>
<time>2015-04-30T12:36:12Z</time>
</trkpt>
<trkpt lat="34.7892974" lon="32.9159855">
<ele>466.77</ele>
<time>2015-04-30T12:36:13Z</time>
</trkpt>
<trkpt lat="34.7892113" lon="32.9159514">
<ele>466.77</ele>
<time>2015-04-30T12:36:14Z</time>
</trkpt>
<trkpt lat="34.7891340" lon="32.9159114">
<ele>466.26</ele>
<time>2015-04-30T12:36:15Z</time>
</trkpt>
<trkpt lat="34.7890540" lon="32.9158694">
<ele>466.01</ele>
<time>2015-04-30T12:36:16Z</time>
</trkpt>
<trkpt lat="34.7889746" lon="32.9158189">
<ele>465.89</ele>
<time>2015-04-30T12:36:17Z</time>
</trkpt>
<trkpt lat="34.7889039" lon="32.9157757">
<ele>465.82</ele>
<time>2015-04-30T12:36:18Z</time>
</trkpt>
<trkpt lat="34.7888334" lon="32.9157202">
<ele>465.29</ele>
<time>2015-04-30T12:36:19Z</time>
</trkpt>
<trkpt lat="34.7887649" lon="32.9156649">
<ele>465.03</ele>
<time>2015-04-30T12:36:20Z</time>
</trkpt>
<trkpt lat="34.7886928" lon="32.9156142">
<ele>464.39</ele>
<time>2015-04-30T12:36:21Z</time>
</trkpt>
<trkpt lat="34.7886245" lon="32.9155620">
<ele>463.58</ele>
<time>2015-04-30T12:36:22Z</time>
</trkpt>
<trkpt lat="34.7885605" lon="32.9155150">
<ele>463.17</ele>
<time>2015-04-30T12:36:23Z</time>
</trkpt>
<trkpt lat="34.7885018" lon="32.9154679">
<ele>462.96</ele>
<time>2015-04-30T12:36:24Z</time>
</trkpt>
<trkpt lat="34.7884425" lon="32.9154246">
<ele>463.36</ele>
<time>2015-04-30T12:36:25Z</time>
</trkpt>
<trkpt lat="34.7883822" lon="32.9153822">
<ele>463.56</ele>
<time>2015-04-30T12:36:26Z</time>
</trkpt>
<trkpt lat="34.7883212" lon="32.9153491">
<ele>463.66</ele>
<time>2015-04-30T12:36:27Z</time>
</trkpt>
<trkpt lat="34.7882557" lon="32.9153120">
<ele>463.71</ele>
<time>2015-04-30T12:36:28Z</time>
</trkpt>
<trkpt lat="34.7881972" lon="32.9152791">
<ele>463.74</ele>
<time>2015-04-30T12:36:29Z</time>
</trkpt>
<trkpt lat="34.7881385" lon="32.9152507">
<ele>463.75</ele>
<time>2015-04-30T12:36:30Z</time>
</trkpt>
<trkpt lat="34.7880799" lon="32.9152152">
<ele>464.25</ele>
<time>2015-04-30T12:36:31Z</time>
</trkpt>
<trkpt lat="34.7880119" lon="32.9151869">
<ele>464.51</ele>
<time>2015-04-30T12:36:32Z</time>
</trkpt>
<trkpt lat="34.7879486" lon="32.9151622">
<ele>465.13</ele>
<time>2015-04-30T12:36:33Z</time>
</trkpt>
<trkpt lat="34.7878760" lon="32.9151453">
<ele>464.95</ele>
<time>2015-04-30T12:36:34Z</time>
</trkpt>
<trkpt lat="34.7878140" lon="32.9151373">
<ele>465.35</ele>
<time>2015-04-30T12:36:35Z</time>
</trkpt>
<trkpt lat="34.7877425" lon="32.9151276">
<ele>465.56</ele>
<time>2015-04-30T12:36:36Z</time>
</trkpt>
<trkpt lat="34.7876675" lon="32.9151285">
<ele>465.66</ele>
<time>2015-04-30T12:36:37Z</time>
</trkpt>
<trkpt lat="34.7875949" lon="32.9151339">
<ele>465.71</ele>
<time>2015-04-30T12:36:38Z</time>
</trkpt>
<trkpt lat="34.7875251" lon="32.9151436">
<ele>465.73</ele>
<time>2015-04-30T12:36:39Z</time>
</trkpt>
<trkpt lat="34.7874490" lon="32.9151639">
<ele>465.75</ele>
<time>2015-04-30T12:36:40Z</time>
</trkpt>
<trkpt lat="34.7873742" lon="32.9151898">
<ele>465.25</ele>
<time>2015-04-30T12:36:41Z</time>
</trkpt>
<trkpt lat="34.7873076" lon="32.9152113">
<ele>465.01</ele>
<time>2015-04-30T12:36:42Z</time>
</trkpt>
<trkpt lat="34.7872373" lon="32.9152445">
<ele>464.88</ele>
<time>2015-04-30T12:36:43Z</time>
</trkpt>
<trkpt lat="34.7871687" lon="32.9152802">
<ele>464.82</ele>
<time>2015-04-30T12:36:44Z</time>
</trkpt>
<trkpt lat="34.7870973" lon="32.9153197">
<ele>464.79</ele>
<time>2015-04-30T12:36:45Z</time>
</trkpt>
<trkpt lat="34.7870261" lon="32.9153568">
<ele>464.28</ele>
<time>2015-04-30T12:36:46Z</time>
</trkpt>
<trkpt lat="34.7869569" lon="32.9153961">
<ele>464.52</ele>
<time>2015-04-30T12:36:47Z</time>
</trkpt>
<trkpt lat="34.7868812" lon="32.9154362">
<ele>464.64</ele>
<time>2015-04-30T12:36:48Z</time>
</trkpt>
<trkpt lat="34.7868041" lon="32.9154729">
<ele>464.20</ele>
<time>2015-04-30T12:36:49Z</time>
</trkpt>
<trkpt lat="34.7867299" lon="32.9155186">
<ele>463.98</ele>
<time>2015-04-30T12:36:50Z</time>
</trkpt>
<trkpt lat="34.7866570" lon="32.9155617">
<ele>463.87</ele>
<time>2015-04-30T12:36:51Z</time>
</trkpt>
<trkpt lat="34.7865807" lon="32.9156076">
<ele>463.81</ele>
<time>2015-04-30T12:36:52Z</time>
</trkpt>
<trkpt lat="34.7865088" lon="32.9156497">
<ele>463.79</ele>
<time>2015-04-30T12:36:53Z</time>
</trkpt>
<trkpt lat="34.7864405" lon="32.9156932">
<ele>463.77</ele>
<time>2015-04-30T12:36:54Z</time>
</trkpt>
<trkpt lat="34.7863746" lon="32.9157323">
<ele>463.77</ele>
<time>2015-04-30T12:36:55Z</time>
</trkpt>
<trkpt lat="34.7863059" lon="32.9157726">
<ele>463.76</ele>
<time>2015-04-30T12:36:56Z</time>
</trkpt>
<trkpt lat="34.7862393" lon="32.9158102">
<ele>464.26</ele>
<time>2015-04-30T12:36:57Z</time>
</trkpt>
<trkpt lat="34.7861749" lon="32.9158459">
<ele>464.51</ele>
<time>2015-04-30T12:36:58Z</time>
</trkpt>
<trkpt lat="34.7861134" lon="32.9158814">
<ele>464.64</ele>
<time>2015-04-30T12:36:59Z</time>
</trkpt>
<trkpt lat="34.7860556" lon="32.9159191">
<ele>465.20</ele>
<time>2015-04-30T12:37:00Z</time>
</trkpt>
<trkpt lat="34.7859930" lon="32.9159544">
<ele>464.98</ele>
<time>2015-04-30T12:37:01Z</time>
</trkpt>
<trkpt lat="34.7859320" lon="32.9159760">
<ele>464.87</ele>
<time>2015-04-30T12:37:02Z</time>
</trkpt>
<trkpt lat="34.7858754" lon="32.9159956">
<ele>465.31</ele>
<time>2015-04-30T12:37:03Z</time>
</trkpt>
<trkpt lat="34.7858150" lon="32.9160185">
<ele>465.54</ele>
<time>2015-04-30T12:37:04Z</time>
</trkpt>
<trkpt lat="34.7857569" lon="32.9160375">
<ele>465.65</ele>
<time>2015-04-30T12:37:05Z</time>
</trkpt>
<trkpt lat="34.7856984" lon="32.9160503">
<ele>465.70</ele>
<time>2015-04-30T12:37:06Z</time>
</trkpt>
<trkpt lat="34.7856446" lon="32.9160690">
<ele>465.73</ele>
<time>2015-04-30T12:37:07Z</time>
</trkpt>
<trkpt lat="34.7855870" lon="32.9160830">
<ele>465.75</ele>
<time>2015-04-30T12:37:08Z</time>
</trkpt>
<trkpt lat="34.7855269" lon="32.9160897">
<ele>465.25</ele>
<time>2015-04-30T12:37:09Z</time>
</trkpt>
<trkpt lat="34.7854698" lon="32.9160936">
<ele>465.01</ele>
<time>2015-04-30T12:37:10Z</time>
</trkpt>
<trkpt lat="34.7854219" lon="32.9161032">
<ele>464.88</ele>
<time>2015-04-30T12:37:11Z</time>
</trkpt>
<trkpt lat="34.7853704" lon="32.9161062">
<ele>464.82</ele>
<time>2015-04-30T12:37:12Z</time>
</trkpt>
<trkpt lat="34.7853197" lon="32.9161059">
<ele>464.79</ele>
<time>2015-04-30T12:37:13Z</time>
</trkpt>
<trkpt lat="34.7852739" lon="32.9161099">
<ele>464.78</ele>
<time>2015-04-30T12:37:14Z</time>
</trkpt>
<trkpt lat="34.7851915" lon="32.9160950">
<ele>464.76</ele>
<time>2015-04-30T12:37:16Z</time>
</trkpt>
<trkpt lat="34.7851147" lon="32.9160872">
<ele>464.76</ele>
<time>2015-04-30T12:37:18Z</time>
</trkpt>
<trkpt lat="34.7850382" lon="32.9160716">
<ele>464.76</ele>
<time>2015-04-30T12:37:20Z</time>
</trkpt>
<trkpt lat="34.7849649" lon="32.9160651">
<ele>464.76</ele>
<time>2015-04-30T12:37:22Z</time>
</trkpt>
<trkpt lat="34.7848882" lon="32.9160475">
<ele>464.26</ele>
<time>2015-04-30T12:37:24Z</time>
</trkpt>
<trkpt lat="34.7848172" lon="32.9160242">
<ele>464.39</ele>
<time>2015-04-30T12:37:26Z</time>
</trkpt>
<trkpt lat="34.7847417" lon="32.9160050">
<ele>464.17</ele>
<time>2015-04-30T12:37:28Z</time>
</trkpt>
<trkpt lat="34.7846613" lon="32.9159859">
<ele>463.11</ele>
<time>2015-04-30T12:37:30Z</time>
</trkpt>
<trkpt lat="34.7845697" lon="32.9159639">
<ele>463.60</ele>
<time>2015-04-30T12:37:32Z</time>
</trkpt>
<trkpt lat="34.7845193" lon="32.9159505">
<ele>463.68</ele>
<time>2015-04-30T12:37:33Z</time>
</trkpt>
<trkpt lat="34.7844332" lon="32.9159232">
<ele>464.49</ele>
<time>2015-04-30T12:37:35Z</time>
</trkpt>
<trkpt lat="34.7843867" lon="32.9159094">
<ele>464.62</ele>
<time>2015-04-30T12:37:36Z</time>
</trkpt>
<trkpt lat="34.7843381" lon="32.9158937">
<ele>464.69</ele>
<time>2015-04-30T12:37:37Z</time>
</trkpt>
<trkpt lat="34.7842606" lon="32.9158673">
<ele>464.99</ele>
<time>2015-04-30T12:37:39Z</time>
</trkpt>
<trkpt lat="34.7841829" lon="32.9158378">
<ele>464.82</ele>
<time>2015-04-30T12:37:41Z</time>
</trkpt>
<trkpt lat="34.7841347" lon="32.9158321">
<ele>464.02</ele>
<time>2015-04-30T12:37:43Z</time>
</trkpt>
<trkpt lat="34.7840904" lon="32.9158179">
<ele>461.88</ele>
<time>2015-04-30T12:38:05Z</time>
</trkpt>
<trkpt lat="34.7840479" lon="32.9157995">
<ele>461.78</ele>
<time>2015-04-30T12:38:08Z</time>
</trkpt>
<trkpt lat="34.7839849" lon="32.9157774">
<ele>461.76</ele>
<time>2015-04-30T12:38:11Z</time>
</trkpt>
<trkpt lat="34.7839381" lon="32.9157664">
<ele>461.76</ele>
<time>2015-04-30T12:38:13Z</time>
</trkpt>
<trkpt lat="34.7838882" lon="32.9157562">
<ele>461.01</ele>
<time>2015-04-30T12:38:15Z</time>
</trkpt>
<trkpt lat="34.7838221" lon="32.9157383">
<ele>460.82</ele>
<time>2015-04-30T12:38:17Z</time>
</trkpt>
<trkpt lat="34.7837461" lon="32.9157175">
<ele>460.03</ele>
<time>2015-04-30T12:38:19Z</time>
</trkpt>
<trkpt lat="34.7836683" lon="32.9156955">
<ele>459.83</ele>
<time>2015-04-30T12:38:21Z</time>
</trkpt>
<trkpt lat="34.7835983" lon="32.9156723">
<ele>459.28</ele>
<time>2015-04-30T12:38:23Z</time>
</trkpt>
<trkpt lat="34.7835306" lon="32.9156533">
<ele>458.89</ele>
<time>2015-04-30T12:38:25Z</time>
</trkpt>
<trkpt lat="34.7834814" lon="32.9156382">
<ele>458.79</ele>
<time>2015-04-30T12:38:27Z</time>
</trkpt>
<trkpt lat="34.7834181" lon="32.9156239">
<ele>458.02</ele>
<time>2015-04-30T12:38:29Z</time>
</trkpt>
<trkpt lat="34.7833701" lon="32.9156136">
<ele>457.89</ele>
<time>2015-04-30T12:38:30Z</time>
</trkpt>
<trkpt lat="34.7833145" lon="32.9155999">
<ele>457.82</ele>
<time>2015-04-30T12:38:31Z</time>
</trkpt>
<trkpt lat="34.7832644" lon="32.9155842">
<ele>457.29</ele>
<time>2015-04-30T12:38:32Z</time>
</trkpt>
<trkpt lat="34.7832028" lon="32.9155662">
<ele>457.03</ele>
<time>2015-04-30T12:38:33Z</time>
</trkpt>
<trkpt lat="34.7831437" lon="32.9155466">
<ele>457.39</ele>
<time>2015-04-30T12:38:34Z</time>
</trkpt>
<trkpt lat="34.7830816" lon="32.9155252">
<ele>457.08</ele>
<time>2015-04-30T12:38:35Z</time>
</trkpt>
<trkpt lat="34.7830169" lon="32.9155078">
<ele>456.92</ele>
<time>2015-04-30T12:38:36Z</time>
</trkpt>
<trkpt lat="34.7829515" lon="32.9154897">
<ele>456.34</ele>
<time>2015-04-30T12:38:37Z</time>
</trkpt>
<trkpt lat="34.7828839" lon="32.9154702">
<ele>456.05</ele>
<time>2015-04-30T12:38:38Z</time>
</trkpt>
<trkpt lat="34.7828094" lon="32.9154505">
<ele>455.90</ele>
<time>2015-04-30T12:38:39Z</time>
</trkpt>
<trkpt lat="34.7827326" lon="32.9154317">
<ele>455.33</ele>
<time>2015-04-30T12:38:40Z</time>
</trkpt>
<trkpt lat="34.7826513" lon="32.9154160">
<ele>455.05</ele>
<time>2015-04-30T12:38:41Z</time>
</trkpt>
<trkpt lat="34.7825695" lon="32.9154010">
<ele>454.40</ele>
<time>2015-04-30T12:38:42Z</time>
</trkpt>
<trkpt lat="34.7824872" lon="32.9153891">
<ele>453.58</ele>
<time>2015-04-30T12:38:43Z</time>
</trkpt>
<trkpt lat="34.7824020" lon="32.9153770">
<ele>453.17</ele>
<time>2015-04-30T12:38:44Z</time>
</trkpt>
<trkpt lat="34.7823085" lon="32.9153681">
<ele>451.97</ele>
<time>2015-04-30T12:38:45Z</time>
</trkpt>
<trkpt lat="34.7822192" lon="32.9153623">
<ele>451.36</ele>
<time>2015-04-30T12:38:46Z</time>
</trkpt>
<trkpt lat="34.7821290" lon="32.9153660">
<ele>450.56</ele>
<time>2015-04-30T12:38:47Z</time>
</trkpt>
<trkpt lat="34.7820330" lon="32.9153691">
<ele>449.66</ele>
<time>2015-04-30T12:38:48Z</time>
</trkpt>
<trkpt lat="34.7819366" lon="32.9153714">
<ele>448.71</ele>
<time>2015-04-30T12:38:49Z</time>
</trkpt>
<trkpt lat="34.7818379" lon="32.9153797">
<ele>448.24</ele>
<time>2015-04-30T12:38:50Z</time>
</trkpt>
<trkpt lat="34.7817467" lon="32.9153883">
<ele>447.50</ele>
<time>2015-04-30T12:38:51Z</time>
</trkpt>
<trkpt lat="34.7816424" lon="32.9154017">
<ele>447.13</ele>
<time>2015-04-30T12:38:52Z</time>
</trkpt>
<trkpt lat="34.7815456" lon="32.9154059">
<ele>445.94</ele>
<time>2015-04-30T12:38:53Z</time>
</trkpt>
<trkpt lat="34.7814449" lon="32.9154086">
<ele>445.35</ele>
<time>2015-04-30T12:38:54Z</time>
</trkpt>
<trkpt lat="34.7813370" lon="32.9154182">
<ele>444.56</ele>
<time>2015-04-30T12:38:55Z</time>
</trkpt>
<trkpt lat="34.7812289" lon="32.9154316">
<ele>444.66</ele>
<time>2015-04-30T12:38:56Z</time>
</trkpt>
<trkpt lat="34.7811173" lon="32.9154473">
<ele>444.21</ele>
<time>2015-04-30T12:38:57Z</time>
</trkpt>
<trkpt lat="34.7810186" lon="32.9154538">
<ele>443.98</ele>
<time>2015-04-30T12:38:58Z</time>
</trkpt>
<trkpt lat="34.7809130" lon="32.9154696">
<ele>443.37</ele>
<time>2015-04-30T12:38:59Z</time>
</trkpt>
<trkpt lat="34.7808089" lon="32.9154809">
<ele>442.57</ele>
<time>2015-04-30T12:39:00Z</time>
</trkpt>
<trkpt lat="34.7806998" lon="32.9154861">
<ele>442.66</ele>
<time>2015-04-30T12:39:01Z</time>
</trkpt>
<trkpt lat="34.7805922" lon="32.9154993">
<ele>442.21</ele>
<time>2015-04-30T12:39:02Z</time>
</trkpt>
<trkpt lat="34.7804788" lon="32.9155168">
<ele>441.99</ele>
<time>2015-04-30T12:39:03Z</time>
</trkpt>
<trkpt lat="34.7803554" lon="32.9155223">
<ele>440.87</ele>
<time>2015-04-30T12:39:04Z</time>
</trkpt>
<trkpt lat="34.7802366" lon="32.9155390">
<ele>440.32</ele>
<time>2015-04-30T12:39:05Z</time>
</trkpt>
<trkpt lat="34.7801266" lon="32.9155473">
<ele>440.04</ele>
<time>2015-04-30T12:39:06Z</time>
</trkpt>
<trkpt lat="34.7800113" lon="32.9155662">
<ele>439.40</ele>
<time>2015-04-30T12:39:07Z</time>
</trkpt>
<trkpt lat="34.7798945" lon="32.9155715">
<ele>439.58</ele>
<time>2015-04-30T12:39:08Z</time>
</trkpt>
<trkpt lat="34.7797865" lon="32.9155747">
<ele>439.67</ele>
<time>2015-04-30T12:39:09Z</time>
</trkpt>
<trkpt lat="34.7797086" lon="32.9155666">
<ele>439.71</ele>
<time>2015-04-30T12:39:10Z</time>
</trkpt>
<trkpt lat="34.7796427" lon="32.9155546">
<ele>439.24</ele>
<time>2015-04-30T12:39:11Z</time>
</trkpt>
<trkpt lat="34.7795625" lon="32.9155516">
<ele>438.00</ele>
<time>2015-04-30T12:39:12Z</time>
</trkpt>
<trkpt lat="34.7794984" lon="32.9155282">
<ele>437.38</ele>
<time>2015-04-30T12:39:13Z</time>
</trkpt>
<trkpt lat="34.7794396" lon="32.9154999">
<ele>438.07</ele>
<time>2015-04-30T12:39:14Z</time>
</trkpt>
<trkpt lat="34.7793818" lon="32.9154679">
<ele>438.41</ele>
<time>2015-04-30T12:39:15Z</time>
</trkpt>
<trkpt lat="34.7793349" lon="32.9154280">
<ele>438.59</ele>
<time>2015-04-30T12:39:16Z</time>
</trkpt>
<trkpt lat="34.7792871" lon="32.9153827">
<ele>437.67</ele>
<time>2015-04-30T12:39:17Z</time>
</trkpt>
<trkpt lat="34.7792411" lon="32.9153242">
<ele>437.72</ele>
<time>2015-04-30T12:39:18Z</time>
</trkpt>
<trkpt lat="34.7791931" lon="32.9152800">
<ele>436.74</ele>
<time>2015-04-30T12:39:19Z</time>
</trkpt>
<trkpt lat="34.7791454" lon="32.9152324">
<ele>436.25</ele>
<time>2015-04-30T12:39:20Z</time>
</trkpt>
<trkpt lat="34.7791025" lon="32.9151719">
<ele>435.50</ele>
<time>2015-04-30T12:39:21Z</time>
</trkpt>
<trkpt lat="34.7790575" lon="32.9151166">
<ele>435.13</ele>
<time>2015-04-30T12:39:22Z</time>
</trkpt>
<trkpt lat="34.7790107" lon="32.9150639">
<ele>434.45</ele>
<time>2015-04-30T12:39:23Z</time>
</trkpt>
<trkpt lat="34.7789710" lon="32.9150093">
<ele>434.10</ele>
<time>2015-04-30T12:39:24Z</time>
</trkpt>
<trkpt lat="34.7789299" lon="32.9149629">
<ele>433.43</ele>
<time>2015-04-30T12:39:25Z</time>
</trkpt>
<trkpt lat="34.7788844" lon="32.9149139">
<ele>433.10</ele>
<time>2015-04-30T12:39:26Z</time>
</trkpt>
<trkpt lat="34.7788305" lon="32.9148704">
<ele>432.93</ele>
<time>2015-04-30T12:39:27Z</time>
</trkpt>
<trkpt lat="34.7787774" lon="32.9148165">
<ele>432.34</ele>
<time>2015-04-30T12:39:28Z</time>
</trkpt>
<trkpt lat="34.7787388" lon="32.9147702">
<ele>432.55</ele>
<time>2015-04-30T12:39:29Z</time>
</trkpt>
<trkpt lat="34.7786946" lon="32.9147238">
<ele>432.66</ele>
<time>2015-04-30T12:39:30Z</time>
</trkpt>
<trkpt lat="34.7786212" lon="32.9146984">
<ele>433.21</ele>
<time>2015-04-30T12:39:31Z</time>
</trkpt>
<trkpt lat="34.7785558" lon="32.9146597">
<ele>432.98</ele>
<time>2015-04-30T12:39:32Z</time>
</trkpt>
<trkpt lat="34.7784876" lon="32.9146384">
<ele>432.87</ele>
<time>2015-04-30T12:39:33Z</time>
</trkpt>
<trkpt lat="34.7784171" lon="32.9146318">
<ele>432.32</ele>
<time>2015-04-30T12:39:34Z</time>
</trkpt>
<trkpt lat="34.7783370" lon="32.9146273">
<ele>431.54</ele>
<time>2015-04-30T12:39:35Z</time>
</trkpt>
<trkpt lat="34.7782501" lon="32.9146304">
<ele>431.15</ele>
<time>2015-04-30T12:39:36Z</time>
</trkpt>
<trkpt lat="34.7781673" lon="32.9146477">
<ele>430.95</ele>
<time>2015-04-30T12:39:37Z</time>
</trkpt>
<trkpt lat="34.7780892" lon="32.9146766">
<ele>430.86</ele>
<time>2015-04-30T12:39:38Z</time>
</trkpt>
<trkpt lat="34.7779963" lon="32.9147229">
<ele>429.31</ele>
<time>2015-04-30T12:39:39Z</time>
</trkpt>
<trkpt lat="34.7779052" lon="32.9147528">
<ele>429.03</ele>
<time>2015-04-30T12:39:40Z</time>
</trkpt>
<trkpt lat="34.7778130" lon="32.9147903">
<ele>428.90</ele>
<time>2015-04-30T12:39:41Z</time>
</trkpt>
<trkpt lat="34.7777197" lon="32.9148373">
<ele>428.33</ele>
<time>2015-04-30T12:39:42Z</time>
</trkpt>
<trkpt lat="34.7776319" lon="32.9148819">
<ele>427.54</ele>
<time>2015-04-30T12:39:43Z</time>
</trkpt>
<trkpt lat="34.7775329" lon="32.9149231">
<ele>427.15</ele>
<time>2015-04-30T12:39:44Z</time>
</trkpt>
<trkpt lat="34.7774347" lon="32.9149654">
<ele>426.96</ele>
<time>2015-04-30T12:39:45Z</time>
</trkpt>
<trkpt lat="34.7773355" lon="32.9150069">
<ele>427.36</ele>
<time>2015-04-30T12:39:46Z</time>
</trkpt>
<trkpt lat="34.7772336" lon="32.9150372">
<ele>428.06</ele>
<time>2015-04-30T12:39:47Z</time>
</trkpt>
<trkpt lat="34.7771238" lon="32.9150619">
<ele>427.41</ele>
<time>2015-04-30T12:39:48Z</time>
</trkpt>
<trkpt lat="34.7770160" lon="32.9150782">
<ele>426.58</ele>
<time>2015-04-30T12:39:49Z</time>
</trkpt>
<trkpt lat="34.7769012" lon="32.9150982">
<ele>426.17</ele>
<time>2015-04-30T12:39:50Z</time>
</trkpt>
<trkpt lat="34.7767888" lon="32.9151179">
<ele>424.97</ele>
<time>2015-04-30T12:39:51Z</time>
</trkpt>
<trkpt lat="34.7766637" lon="32.9151482">
<ele>423.86</ele>
<time>2015-04-30T12:39:52Z</time>
</trkpt>
<trkpt lat="34.7765476" lon="32.9151704">
<ele>423.81</ele>
<time>2015-04-30T12:39:53Z</time>
</trkpt>
<trkpt lat="34.7764251" lon="32.9151951">
<ele>423.29</ele>
<time>2015-04-30T12:39:54Z</time>
</trkpt>
<trkpt lat="34.7763127" lon="32.9152125">
<ele>422.02</ele>
<time>2015-04-30T12:39:55Z</time>
</trkpt>
<trkpt lat="34.7761894" lon="32.9152221">
<ele>420.89</ele>
<time>2015-04-30T12:39:56Z</time>
</trkpt>
<trkpt lat="34.7760664" lon="32.9152465">
<ele>419.33</ele>
<time>2015-04-30T12:39:57Z</time>
</trkpt>
<trkpt lat="34.7759593" lon="32.9152708">
<ele>418.04</ele>
<time>2015-04-30T12:39:58Z</time>
</trkpt>
<trkpt lat="34.7758596" lon="32.9152904">
<ele>417.40</ele>
<time>2015-04-30T12:39:59Z</time>
</trkpt>
<trkpt lat="34.7757484" lon="32.9153089">
<ele>416.58</ele>
<time>2015-04-30T12:40:00Z</time>
</trkpt>
<trkpt lat="34.7756500" lon="32.9153108">
<ele>415.17</ele>
<time>2015-04-30T12:40:01Z</time>
</trkpt>
<trkpt lat="34.7755597" lon="32.9153070">
<ele>413.97</ele>
<time>2015-04-30T12:40:02Z</time>
</trkpt>
<trkpt lat="34.7754706" lon="32.9152895">
<ele>412.86</ele>
<time>2015-04-30T12:40:03Z</time>
</trkpt>
<trkpt lat="34.7753940" lon="32.9152597">
<ele>412.31</ele>
<time>2015-04-30T12:40:04Z</time>
</trkpt>
<trkpt lat="34.7753075" lon="32.9152224">
<ele>411.04</ele>
<time>2015-04-30T12:40:05Z</time>
</trkpt>
<trkpt lat="34.7752208" lon="32.9151827">
<ele>409.40</ele>
<time>2015-04-30T12:40:06Z</time>
</trkpt>
<trkpt lat="34.7751350" lon="32.9151263">
<ele>409.08</ele>
<time>2015-04-30T12:40:07Z</time>
</trkpt>
<trkpt lat="34.7750531" lon="32.9150581">
<ele>408.92</ele>
<time>2015-04-30T12:40:08Z</time>
</trkpt>
<trkpt lat="34.7749658" lon="32.9149991">
<ele>408.34</ele>
<time>2015-04-30T12:40:09Z</time>
</trkpt>
<trkpt lat="34.7748792" lon="32.9149322">
<ele>408.05</ele>
<time>2015-04-30T12:40:10Z</time>
</trkpt>
<trkpt lat="34.7747984" lon="32.9148688">
<ele>407.40</ele>
<time>2015-04-30T12:40:11Z</time>
</trkpt>
<trkpt lat="34.7747041" lon="32.9148128">
<ele>407.08</ele>
<time>2015-04-30T12:40:12Z</time>
</trkpt>
<trkpt lat="34.7746143" lon="32.9147591">
<ele>406.42</ele>
<time>2015-04-30T12:40:13Z</time>
</trkpt>
<trkpt lat="34.7745137" lon="32.9147148">
<ele>405.59</ele>
<time>2015-04-30T12:40:14Z</time>
</trkpt>
<trkpt lat="34.7744160" lon="32.9146736">
<ele>405.18</ele>
<time>2015-04-30T12:40:15Z</time>
</trkpt>
<trkpt lat="34.7743055" lon="32.9146569">
<ele>405.47</ele>
<time>2015-04-30T12:40:16Z</time>
</trkpt>
<trkpt lat="34.7742017" lon="32.9146333">
<ele>405.61</ele>
<time>2015-04-30T12:40:17Z</time>
</trkpt>
<trkpt lat="34.7741021" lon="32.9146386">
<ele>405.69</ele>
<time>2015-04-30T12:40:18Z</time>
</trkpt>
<trkpt lat="34.7739956" lon="32.9146298">
<ele>404.72</ele>
<time>2015-04-30T12:40:19Z</time>
</trkpt>
<trkpt lat="34.7738871" lon="32.9146244">
<ele>404.24</ele>
<time>2015-04-30T12:40:20Z</time>
</trkpt>
<trkpt lat="34.7737892" lon="32.9146320">
<ele>403.50</ele>
<time>2015-04-30T12:40:21Z</time>
</trkpt>
<trkpt lat="34.7736889" lon="32.9146360">
<ele>403.13</ele>
<time>2015-04-30T12:40:22Z</time>
</trkpt>
<trkpt lat="34.7735769" lon="32.9146562">
<ele>400.45</ele>
<time>2015-04-30T12:40:23Z</time>
</trkpt>
<trkpt lat="34.7734664" lon="32.9146550">
<ele>398.60</ele>
<time>2015-04-30T12:40:24Z</time>
</trkpt>
<trkpt lat="34.7733539" lon="32.9146592">
<ele>397.68</ele>
<time>2015-04-30T12:40:25Z</time>
</trkpt>
<trkpt lat="34.7732478" lon="32.9146608">
<ele>396.72</ele>
<time>2015-04-30T12:40:26Z</time>
</trkpt>
<trkpt lat="34.7731384" lon="32.9146632">
<ele>395.24</ele>
<time>2015-04-30T12:40:27Z</time>
</trkpt>
<trkpt lat="34.7730369" lon="32.9147015">
<ele>391.50</ele>
<time>2015-04-30T12:40:28Z</time>
</trkpt>
<trkpt lat="34.7729308" lon="32.9147207">
<ele>388.13</ele>
<time>2015-04-30T12:40:29Z</time>
</trkpt>
<trkpt lat="34.7728178" lon="32.9147323">
<ele>386.45</ele>
<time>2015-04-30T12:40:30Z</time>
</trkpt>
<trkpt lat="34.7727058" lon="32.9147253">
<ele>385.60</ele>
<time>2015-04-30T12:40:31Z</time>
</trkpt>
<trkpt lat="34.7725876" lon="32.9147150">
<ele>385.68</ele>
<time>2015-04-30T12:40:32Z</time>
</trkpt>
<trkpt lat="34.7724693" lon="32.9147097">
<ele>385.72</ele>
<time>2015-04-30T12:40:33Z</time>
</trkpt>
<trkpt lat="34.7723517" lon="32.9147181">
<ele>385.74</ele>
<time>2015-04-30T12:40:34Z</time>
</trkpt>
<trkpt lat="34.7722405" lon="32.9147144">
<ele>385.75</ele>
<time>2015-04-30T12:40:35Z</time>
</trkpt>
<trkpt lat="34.7721298" lon="32.9147150">
<ele>385.26</ele>
<time>2015-04-30T12:40:36Z</time>
</trkpt>
<trkpt lat="34.7720225" lon="32.9147216">
<ele>384.51</ele>
<time>2015-04-30T12:40:37Z</time>
</trkpt>
<trkpt lat="34.7719241" lon="32.9147297">
<ele>383.13</ele>
<time>2015-04-30T12:40:38Z</time>
</trkpt>
<trkpt lat="34.7718265" lon="32.9147465">
<ele>381.95</ele>
<time>2015-04-30T12:40:39Z</time>
</trkpt>
<trkpt lat="34.7717176" lon="32.9147728">
<ele>380.85</ele>
<time>2015-04-30T12:40:40Z</time>
</trkpt>
<trkpt lat="34.7716287" lon="32.9147822">
<ele>381.31</ele>
<time>2015-04-30T12:40:41Z</time>
</trkpt>
<trkpt lat="34.7715320" lon="32.9148360">
<ele>380.53</ele>
<time>2015-04-30T12:40:42Z</time>
</trkpt>
<trkpt lat="34.7714422" lon="32.9148965">
<ele>380.65</ele>
<time>2015-04-30T12:40:43Z</time>
</trkpt>
<trkpt lat="34.7713522" lon="32.9149689">
<ele>380.20</ele>
<time>2015-04-30T12:40:44Z</time>
</trkpt>
<trkpt lat="34.7712587" lon="32.9150682">
<ele>379.98</ele>
<time>2015-04-30T12:40:45Z</time>
</trkpt>
<trkpt lat="34.7711773" lon="32.9151685">
<ele>379.37</ele>
<time>2015-04-30T12:40:46Z</time>
</trkpt>
<trkpt lat="34.7711020" lon="32.9152629">
<ele>379.07</ele>
<time>2015-04-30T12:40:47Z</time>
</trkpt>
<trkpt lat="34.7710134" lon="32.9153779">
<ele>378.41</ele>
<time>2015-04-30T12:40:48Z</time>
</trkpt>
<trkpt lat="34.7709334" lon="32.9154940">
<ele>377.59</ele>
<time>2015-04-30T12:40:49Z</time>
</trkpt>
<trkpt lat="34.7708458" lon="32.9156000">
<ele>376.67</ele>
<time>2015-04-30T12:40:50Z</time>
</trkpt>
<trkpt lat="34.7707676" lon="32.9157070">
<ele>375.72</ele>
<time>2015-04-30T12:40:51Z</time>
</trkpt>
<trkpt lat="34.7706779" lon="32.9158101">
<ele>374.74</ele>
<time>2015-04-30T12:40:52Z</time>
</trkpt>
<trkpt lat="34.7705736" lon="32.9158961">
<ele>373.75</ele>
<time>2015-04-30T12:40:53Z</time>
</trkpt>
<trkpt lat="34.7704607" lon="32.9159733">
<ele>373.25</ele>
<time>2015-04-30T12:40:54Z</time>
</trkpt>
<trkpt lat="34.7703546" lon="32.9160431">
<ele>372.01</ele>
<time>2015-04-30T12:40:55Z</time>
</trkpt>
<trkpt lat="34.7702441" lon="32.9161144">
<ele>371.38</ele>
<time>2015-04-30T12:40:56Z</time>
</trkpt>
<trkpt lat="34.7701394" lon="32.9161843">
<ele>371.07</ele>
<time>2015-04-30T12:40:57Z</time>
</trkpt>
<trkpt lat="34.7700434" lon="32.9162502">
<ele>370.42</ele>
<time>2015-04-30T12:40:58Z</time>
</trkpt>
<trkpt lat="34.7699485" lon="32.9163105">
<ele>370.09</ele>
<time>2015-04-30T12:40:59Z</time>
</trkpt>
<trkpt lat="34.7698482" lon="32.9163783">
<ele>369.42</ele>
<time>2015-04-30T12:41:00Z</time>
</trkpt>
<trkpt lat="34.7697585" lon="32.9164352">
<ele>368.59</ele>
<time>2015-04-30T12:41:01Z</time>
</trkpt>
<trkpt lat="34.7696662" lon="32.9164947">
<ele>367.68</ele>
<time>2015-04-30T12:41:02Z</time>
</trkpt>
<trkpt lat="34.7695714" lon="32.9165602">
<ele>366.72</ele>
<time>2015-04-30T12:41:03Z</time>
</trkpt>
<trkpt lat="34.7694747" lon="32.9166308">
<ele>365.74</ele>
<time>2015-04-30T12:41:04Z</time>
</trkpt>
<trkpt lat="34.7693826" lon="32.9167036">
<ele>364.75</ele>
<time>2015-04-30T12:41:05Z</time>
</trkpt>
<trkpt lat="34.7692894" lon="32.9167861">
<ele>363.25</ele>
<time>2015-04-30T12:41:06Z</time>
</trkpt>
<trkpt lat="34.7692067" lon="32.9168826">
<ele>362.01</ele>
<time>2015-04-30T12:41:07Z</time>
</trkpt>
<trkpt lat="34.7691280" lon="32.9169921">
<ele>360.88</ele>
<time>2015-04-30T12:41:08Z</time>
</trkpt>
<trkpt lat="34.7690603" lon="32.9171042">
<ele>359.82</ele>
<time>2015-04-30T12:41:09Z</time>
</trkpt>
<trkpt lat="34.7689972" lon="32.9172362">
<ele>358.79</ele>
<time>2015-04-30T12:41:10Z</time>
</trkpt>
<trkpt lat="34.7689310" lon="32.9173649">
<ele>357.78</ele>
<time>2015-04-30T12:41:11Z</time>
</trkpt>
<trkpt lat="34.7688701" lon="32.9174974">
<ele>357.27</ele>
<time>2015-04-30T12:41:12Z</time>
</trkpt>
<trkpt lat="34.7688015" lon="32.9176223">
<ele>357.01</ele>
<time>2015-04-30T12:41:13Z</time>
</trkpt>
<trkpt lat="34.7687225" lon="32.9177425">
<ele>355.89</ele>
<time>2015-04-30T12:41:14Z</time>
</trkpt>
<trkpt lat="34.7686477" lon="32.9178582">
<ele>354.82</ele>
<time>2015-04-30T12:41:15Z</time>
</trkpt>
<trkpt lat="34.7685434" lon="32.9179731">
<ele>353.79</ele>
<time>2015-04-30T12:41:16Z</time>
</trkpt>
<trkpt lat="34.7684502" lon="32.9180741">
<ele>352.78</ele>
<time>2015-04-30T12:41:17Z</time>
</trkpt>
<trkpt lat="34.7683550" lon="32.9181659">
<ele>351.77</ele>
<time>2015-04-30T12:41:18Z</time>
</trkpt>
<trkpt lat="34.7682586" lon="32.9182604">
<ele>351.26</ele>
<time>2015-04-30T12:41:19Z</time>
</trkpt>
<trkpt lat="34.7681589" lon="32.9183621">
<ele>350.51</ele>
<time>2015-04-30T12:41:20Z</time>
</trkpt>
<trkpt lat="34.7680585" lon="32.9184554">
<ele>350.14</ele>
<time>2015-04-30T12:41:21Z</time>
</trkpt>
<trkpt lat="34.7679556" lon="32.9185567">
<ele>349.45</ele>
<time>2015-04-30T12:41:22Z</time>
</trkpt>
<trkpt lat="34.7678599" lon="32.9186512">
<ele>348.60</ele>
<time>2015-04-30T12:41:23Z</time>
</trkpt>
<trkpt lat="34.7677591" lon="32.9187450">
<ele>347.68</ele>
<time>2015-04-30T12:41:24Z</time>
</trkpt>
<trkpt lat="34.7676614" lon="32.9188338">
<ele>347.22</ele>
<time>2015-04-30T12:41:25Z</time>
</trkpt>
<trkpt lat="34.7675591" lon="32.9189316">
<ele>346.49</ele>
<time>2015-04-30T12:41:26Z</time>
</trkpt>
<trkpt lat="34.7674651" lon="32.9190266">
<ele>346.13</ele>
<time>2015-04-30T12:41:27Z</time>
</trkpt>
<trkpt lat="34.7673581" lon="32.9191202">
<ele>345.94</ele>
<time>2015-04-30T12:41:28Z</time>
</trkpt>
<trkpt lat="34.7672559" lon="32.9192200">
<ele>344.85</ele>
<time>2015-04-30T12:41:29Z</time>
</trkpt>
<trkpt lat="34.7671539" lon="32.9193131">
<ele>343.81</ele>
<time>2015-04-30T12:41:30Z</time>
</trkpt>
<trkpt lat="34.7670645" lon="32.9193970">
<ele>342.78</ele>
<time>2015-04-30T12:41:31Z</time>
</trkpt>
<trkpt lat="34.7669594" lon="32.9194974">
<ele>342.27</ele>
<time>2015-04-30T12:41:32Z</time>
</trkpt>
<trkpt lat="34.7668629" lon="32.9195849">
<ele>341.52</ele>
<time>2015-04-30T12:41:33Z</time>
</trkpt>
<trkpt lat="34.7667739" lon="32.9196745">
<ele>341.14</ele>
<time>2015-04-30T12:41:34Z</time>
</trkpt>
<trkpt lat="34.7666823" lon="32.9197684">
<ele>340.45</ele>
<time>2015-04-30T12:41:35Z</time>
</trkpt>
<trkpt lat="34.7665824" lon="32.9198587">
<ele>339.60</ele>
<time>2015-04-30T12:41:36Z</time>
</trkpt>
<trkpt lat="34.7664817" lon="32.9199530">
<ele>339.18</ele>
<time>2015-04-30T12:41:37Z</time>
</trkpt>
<trkpt lat="34.7663795" lon="32.9200466">
<ele>338.47</ele>
<time>2015-04-30T12:41:38Z</time>
</trkpt>
<trkpt lat="34.7662860" lon="32.9201401">
<ele>337.12</ele>
<time>2015-04-30T12:41:39Z</time>
</trkpt>
<trkpt lat="34.7661746" lon="32.9202329">
<ele>336.44</ele>
<time>2015-04-30T12:41:40Z</time>
</trkpt>
<trkpt lat="34.7660656" lon="32.9203299">
<ele>336.10</ele>
<time>2015-04-30T12:41:41Z</time>
</trkpt>
<trkpt lat="34.7659559" lon="32.9204269">
<ele>335.43</ele>
<time>2015-04-30T12:41:42Z</time>
</trkpt>
<trkpt lat="34.7658593" lon="32.9205220">
<ele>334.09</ele>
<time>2015-04-30T12:41:43Z</time>
</trkpt>
<trkpt lat="34.7657470" lon="32.9206207">
<ele>333.43</ele>
<time>2015-04-30T12:41:44Z</time>
</trkpt>
<trkpt lat="34.7656537" lon="32.9207197">
<ele>332.09</ele>
<time>2015-04-30T12:41:45Z</time>
</trkpt>
<trkpt lat="34.7655506" lon="32.9208178">
<ele>331.43</ele>
<time>2015-04-30T12:41:46Z</time>
</trkpt>
<trkpt lat="34.7654435" lon="32.9209125">
<ele>330.59</ele>
<time>2015-04-30T12:41:47Z</time>
</trkpt>
<trkpt lat="34.7653385" lon="32.9210157">
<ele>329.68</ele>
<time>2015-04-30T12:41:48Z</time>
</trkpt>
<trkpt lat="34.7652357" lon="32.9211153">
<ele>328.22</ele>
<time>2015-04-30T12:41:49Z</time>
</trkpt>
<trkpt lat="34.7651404" lon="32.9212067">
<ele>326.99</ele>
<time>2015-04-30T12:41:50Z</time>
</trkpt>
<trkpt lat="34.7650338" lon="32.9213076">
<ele>326.37</ele>
<time>2015-04-30T12:41:51Z</time>
</trkpt>
<trkpt lat="34.7649220" lon="32.9214060">
<ele>325.57</ele>
<time>2015-04-30T12:41:52Z</time>
</trkpt>
<trkpt lat="34.7648165" lon="32.9215098">
<ele>324.66</ele>
<time>2015-04-30T12:41:53Z</time>
</trkpt>
<trkpt lat="34.7647168" lon="32.9216066">
<ele>323.71</ele>
<time>2015-04-30T12:41:54Z</time>
</trkpt>
<trkpt lat="34.7646210" lon="32.9216956">
<ele>323.24</ele>
<time>2015-04-30T12:41:55Z</time>
</trkpt>
<trkpt lat="34.7645209" lon="32.9217880">
<ele>322.50</ele>
<time>2015-04-30T12:41:56Z</time>
</trkpt>
<trkpt lat="34.7644315" lon="32.9218770">
<ele>321.63</ele>
<time>2015-04-30T12:41:57Z</time>
</trkpt>
<trkpt lat="34.7643635" lon="32.9219603">
<ele>320.69</ele>
<time>2015-04-30T12:41:58Z</time>
</trkpt>
<trkpt lat="34.7642840" lon="32.9220323">
<ele>320.23</ele>
<time>2015-04-30T12:41:59Z</time>
</trkpt>
<trkpt lat="34.7642042" lon="32.9221063">
<ele>318.99</ele>
<time>2015-04-30T12:42:00Z</time>
</trkpt>
<trkpt lat="34.7641267" lon="32.9221758">
<ele>317.88</ele>
<time>2015-04-30T12:42:01Z</time>
</trkpt>
<trkpt lat="34.7640548" lon="32.9222496">
<ele>316.82</ele>
<time>2015-04-30T12:42:02Z</time>
</trkpt>
<trkpt lat="34.7639828" lon="32.9223231">
<ele>315.79</ele>
<time>2015-04-30T12:42:03Z</time>
</trkpt>
<trkpt lat="34.7638992" lon="32.9224078">
<ele>314.77</ele>
<time>2015-04-30T12:42:04Z</time>
</trkpt>
<trkpt lat="34.7638208" lon="32.9224768">
<ele>314.27</ele>
<time>2015-04-30T12:42:05Z</time>
</trkpt>
<trkpt lat="34.7637592" lon="32.9225352">
<ele>313.51</ele>
<time>2015-04-30T12:42:06Z</time>
</trkpt>
<trkpt lat="34.7636949" lon="32.9226025">
<ele>313.14</ele>
<time>2015-04-30T12:42:07Z</time>
</trkpt>
<trkpt lat="34.7636215" lon="32.9226699">
<ele>312.95</ele>
<time>2015-04-30T12:42:08Z</time>
</trkpt>
<trkpt lat="34.7635521" lon="32.9227315">
<ele>312.35</ele>
<time>2015-04-30T12:42:09Z</time>
</trkpt>
<trkpt lat="34.7634841" lon="32.9227993">
<ele>311.56</ele>
<time>2015-04-30T12:42:10Z</time>
</trkpt>
<trkpt lat="34.7634209" lon="32.9228680">
<ele>310.66</ele>
<time>2015-04-30T12:42:11Z</time>
</trkpt>
<trkpt lat="34.7633611" lon="32.9229292">
<ele>309.71</ele>
<time>2015-04-30T12:42:12Z</time>
</trkpt>
<trkpt lat="34.7632938" lon="32.9229859">
<ele>308.73</ele>
<time>2015-04-30T12:42:13Z</time>
</trkpt>
<trkpt lat="34.7632326" lon="32.9230468">
<ele>307.75</ele>
<time>2015-04-30T12:42:14Z</time>
</trkpt>
<trkpt lat="34.7631655" lon="32.9231012">
<ele>306.75</ele>
<time>2015-04-30T12:42:15Z</time>
</trkpt>
<trkpt lat="34.7630841" lon="32.9231774">
<ele>305.76</ele>
<time>2015-04-30T12:42:16Z</time>
</trkpt>
<trkpt lat="34.7630141" lon="32.9232651">
<ele>304.76</ele>
<time>2015-04-30T12:42:17Z</time>
</trkpt>
<trkpt lat="34.7629486" lon="32.9233372">
<ele>303.26</ele>
<time>2015-04-30T12:42:18Z</time>
</trkpt>
<trkpt lat="34.7628787" lon="32.9234110">
<ele>302.01</ele>
<time>2015-04-30T12:42:19Z</time>
</trkpt>
<trkpt lat="34.7628026" lon="32.9234993">
<ele>300.88</ele>
<time>2015-04-30T12:42:20Z</time>
</trkpt>
<trkpt lat="34.7627339" lon="32.9235783">
<ele>299.82</ele>
<time>2015-04-30T12:42:21Z</time>
</trkpt>
<trkpt lat="34.7626793" lon="32.9236425">
<ele>298.79</ele>
<time>2015-04-30T12:42:22Z</time>
</trkpt>
<trkpt lat="34.7626257" lon="32.9237087">
<ele>297.78</ele>
<time>2015-04-30T12:42:23Z</time>
</trkpt>
<trkpt lat="34.7625719" lon="32.9237941">
<ele>296.27</ele>
<time>2015-04-30T12:42:24Z</time>
</trkpt>
<trkpt lat="34.7625172" lon="32.9238667">
<ele>294.51</ele>
<time>2015-04-30T12:42:25Z</time>
</trkpt>
<trkpt lat="34.7624683" lon="32.9239491">
<ele>293.14</ele>
<time>2015-04-30T12:42:26Z</time>
</trkpt>
<trkpt lat="34.7624130" lon="32.9240360">
<ele>291.95</ele>
<time>2015-04-30T12:42:27Z</time>
</trkpt>
<trkpt lat="34.7623559" lon="32.9241322">
<ele>290.85</ele>
<time>2015-04-30T12:42:28Z</time>
</trkpt>
<trkpt lat="34.7623011" lon="32.9242242">
<ele>289.81</ele>
<time>2015-04-30T12:42:29Z</time>
</trkpt>
<trkpt lat="34.7622524" lon="32.9243236">
<ele>288.78</ele>
<time>2015-04-30T12:42:30Z</time>
</trkpt>
<trkpt lat="34.7621888" lon="32.9244289">
<ele>287.77</ele>
<time>2015-04-30T12:42:31Z</time>
</trkpt>
<trkpt lat="34.7621224" lon="32.9245374">
<ele>286.77</ele>
<time>2015-04-30T12:42:32Z</time>
</trkpt>
<trkpt lat="34.7620623" lon="32.9246493">
<ele>285.76</ele>
<time>2015-04-30T12:42:33Z</time>
</trkpt>
<trkpt lat="34.7620034" lon="32.9247639">
<ele>284.76</ele>
<time>2015-04-30T12:42:34Z</time>
</trkpt>
<trkpt lat="34.7619534" lon="32.9248784">
<ele>283.76</ele>
<time>2015-04-30T12:42:35Z</time>
</trkpt>
<trkpt lat="34.7619098" lon="32.9249879">
<ele>282.76</ele>
<time>2015-04-30T12:42:36Z</time>
</trkpt>
<trkpt lat="34.7618742" lon="32.9250826">
<ele>282.26</ele>
<time>2015-04-30T12:42:37Z</time>
</trkpt>
<trkpt lat="34.7618506" lon="32.9251664">
<ele>282.01</ele>
<time>2015-04-30T12:42:38Z</time>
</trkpt>
<trkpt lat="34.7618444" lon="32.9252356">
<ele>282.39</ele>
<time>2015-04-30T12:42:39Z</time>
</trkpt>
<trkpt lat="34.7618251" lon="32.9253220">
<ele>282.57</ele>
<time>2015-04-30T12:42:40Z</time>
</trkpt>
<trkpt lat="34.7618188" lon="32.9254076">
<ele>281.46</ele>
<time>2015-04-30T12:42:42Z</time>
</trkpt>
<trkpt lat="34.7618087" lon="32.9254755">
<ele>280.94</ele>
<time>2015-04-30T12:42:44Z</time>
</trkpt>
<trkpt lat="34.7618022" lon="32.9255365">
<ele>279.91</ele>
<time>2015-04-30T12:42:47Z</time>
</trkpt>
<trkpt lat="34.7617813" lon="32.9256030">
<ele>279.05</ele>
<time>2015-04-30T12:42:49Z</time>
</trkpt>
<trkpt lat="34.7617565" lon="32.9256736">
<ele>278.08</ele>
<time>2015-04-30T12:42:51Z</time>
</trkpt>
<trkpt lat="34.7617413" lon="32.9257646">
<ele>277.09</ele>
<time>2015-04-30T12:42:53Z</time>
</trkpt>
<trkpt lat="34.7617260" lon="32.9258622">
<ele>276.09</ele>
<time>2015-04-30T12:42:55Z</time>
</trkpt>
<trkpt lat="34.7617102" lon="32.9259356">
<ele>275.43</ele>
<time>2015-04-30T12:42:56Z</time>
</trkpt>
<trkpt lat="34.7616885" lon="32.9260556">
<ele>273.68</ele>
<time>2015-04-30T12:42:58Z</time>
</trkpt>
<trkpt lat="34.7616846" lon="32.9261290">
<ele>273.22</ele>
<time>2015-04-30T12:42:59Z</time>
</trkpt>
<trkpt lat="34.7616807" lon="32.9262059">
<ele>272.99</ele>
<time>2015-04-30T12:43:00Z</time>
</trkpt>
<trkpt lat="34.7616783" lon="32.9262890">
<ele>273.37</ele>
<time>2015-04-30T12:43:01Z</time>
</trkpt>
<trkpt lat="34.7616836" lon="32.9263678">
<ele>273.07</ele>
<time>2015-04-30T12:43:02Z</time>
</trkpt>
<trkpt lat="34.7616799" lon="32.9264496">
<ele>273.41</ele>
<time>2015-04-30T12:43:03Z</time>
</trkpt>
<trkpt lat="34.7616788" lon="32.9265418">
<ele>274.09</ele>
<time>2015-04-30T12:43:04Z</time>
</trkpt>
<trkpt lat="34.7616800" lon="32.9266296">
<ele>273.92</ele>
<time>2015-04-30T12:43:05Z</time>
</trkpt>
<trkpt lat="34.7616879" lon="32.9267268">
<ele>273.84</ele>
<time>2015-04-30T12:43:06Z</time>
</trkpt>
<trkpt lat="34.7616952" lon="32.9268171">
<ele>274.30</ele>
<time>2015-04-30T12:43:07Z</time>
</trkpt>
<trkpt lat="34.7617053" lon="32.9269176">
<ele>274.53</ele>
<time>2015-04-30T12:43:08Z</time>
</trkpt>
<trkpt lat="34.7617090" lon="32.9270138">
<ele>274.65</ele>
<time>2015-04-30T12:43:09Z</time>
</trkpt>
<trkpt lat="34.7617192" lon="32.9271035">
<ele>274.70</ele>
<time>2015-04-30T12:43:10Z</time>
</trkpt>
<trkpt lat="34.7617288" lon="32.9271940">
<ele>274.73</ele>
<time>2015-04-30T12:43:11Z</time>
</trkpt>
<trkpt lat="34.7617451" lon="32.9272880">
<ele>274.75</ele>
<time>2015-04-30T12:43:12Z</time>
</trkpt>
<trkpt lat="34.7617594" lon="32.9273759">
<ele>274.25</ele>
<time>2015-04-30T12:43:13Z</time>
</trkpt>
<trkpt lat="34.7617735" lon="32.9274641">
<ele>274.01</ele>
<time>2015-04-30T12:43:14Z</time>
</trkpt>
<trkpt lat="34.7617917" lon="32.9275528">
<ele>273.88</ele>
<time>2015-04-30T12:43:15Z</time>
</trkpt>
<trkpt lat="34.7618027" lon="32.9276457">
<ele>273.32</ele>
<time>2015-04-30T12:43:16Z</time>
</trkpt>
<trkpt lat="34.7618161" lon="32.9277360">
<ele>272.54</ele>
<time>2015-04-30T12:43:17Z</time>
</trkpt>
<trkpt lat="34.7618364" lon="32.9278224">
<ele>271.65</ele>
<time>2015-04-30T12:43:18Z</time>
</trkpt>
<trkpt lat="34.7618667" lon="32.9279038">
<ele>271.21</ele>
<time>2015-04-30T12:43:19Z</time>
</trkpt>
<trkpt lat="34.7619042" lon="32.9279973">
<ele>270.48</ele>
<time>2015-04-30T12:43:20Z</time>
</trkpt>
<trkpt lat="34.7619281" lon="32.9280715">
<ele>270.12</ele>
<time>2015-04-30T12:43:21Z</time>
</trkpt>
<trkpt lat="34.7619558" lon="32.9281394">
<ele>269.44</ele>
<time>2015-04-30T12:43:22Z</time>
</trkpt>
<trkpt lat="34.7619962" lon="32.9282049">
<ele>269.60</ele>
<time>2015-04-30T12:43:23Z</time>
</trkpt>
<trkpt lat="34.7620285" lon="32.9282751">
<ele>270.68</ele>
<time>2015-04-30T12:43:24Z</time>
</trkpt>
<trkpt lat="34.7620653" lon="32.9283291">
<ele>270.22</ele>
<time>2015-04-30T12:43:25Z</time>
</trkpt>
<trkpt lat="34.7621111" lon="32.9283943">
<ele>270.49</ele>
<time>2015-04-30T12:43:26Z</time>
</trkpt>
<trkpt lat="34.7621529" lon="32.9284698">
<ele>270.63</ele>
<time>2015-04-30T12:43:27Z</time>
</trkpt>
<trkpt lat="34.7621912" lon="32.9285444">
<ele>270.19</ele>
<time>2015-04-30T12:43:28Z</time>
</trkpt>
<trkpt lat="34.7622226" lon="32.9286218">
<ele>269.48</ele>
<time>2015-04-30T12:43:29Z</time>
</trkpt>
<trkpt lat="34.7622562" lon="32.9286903">
<ele>269.12</ele>
<time>2015-04-30T12:43:30Z</time>
</trkpt>
<trkpt lat="34.7622932" lon="32.9287615">
<ele>268.94</ele>
<time>2015-04-30T12:43:31Z</time>
</trkpt>
<trkpt lat="34.7623361" lon="32.9288327">
<ele>268.85</ele>
<time>2015-04-30T12:43:32Z</time>
</trkpt>
<trkpt lat="34.7623759" lon="32.9288981">
<ele>268.30</ele>
<time>2015-04-30T12:43:33Z</time>
</trkpt>
<trkpt lat="34.7624179" lon="32.9289526">
<ele>268.03</ele>
<time>2015-04-30T12:43:34Z</time>
</trkpt>
<trkpt lat="34.7624587" lon="32.9290091">
<ele>268.40</ele>
<time>2015-04-30T12:43:35Z</time>
</trkpt>
<trkpt lat="34.7624988" lon="32.9290786">
<ele>268.58</ele>
<time>2015-04-30T12:43:36Z</time>
</trkpt>
<trkpt lat="34.7625293" lon="32.9291430">
<ele>268.67</ele>
<time>2015-04-30T12:43:37Z</time>
</trkpt>
<trkpt lat="34.7625667" lon="32.9291809">
<ele>268.71</ele>
<time>2015-04-30T12:43:38Z</time>
</trkpt>
<trkpt lat="34.7625982" lon="32.9292334">
<ele>268.74</ele>
<time>2015-04-30T12:43:39Z</time>
</trkpt>
<trkpt lat="34.7626296" lon="32.9292830">
<ele>268.75</ele>
<time>2015-04-30T12:43:40Z</time>
</trkpt>
<trkpt lat="34.7626648" lon="32.9293357">
<ele>268.75</ele>
<time>2015-04-30T12:43:41Z</time>
</trkpt>
<trkpt lat="34.7626936" lon="32.9293877">
<ele>269.26</ele>
<time>2015-04-30T12:43:42Z</time>
</trkpt>
<trkpt lat="34.7627271" lon="32.9294268">
<ele>270.01</ele>
<time>2015-04-30T12:43:43Z</time>
</trkpt>
<trkpt lat="34.7627633" lon="32.9294699">
<ele>270.88</ele>
<time>2015-04-30T12:43:44Z</time>
</trkpt>
<trkpt lat="34.7627944" lon="32.9295138">
<ele>271.32</ele>
<time>2015-04-30T12:43:45Z</time>
</trkpt>
<trkpt lat="34.7628256" lon="32.9295594">
<ele>271.54</ele>
<time>2015-04-30T12:43:46Z</time>
</trkpt>
<trkpt lat="34.7628856" lon="32.9296274">
<ele>270.96</ele>
<time>2015-04-30T12:43:48Z</time>
</trkpt>
<trkpt lat="34.7629511" lon="32.9296883">
<ele>270.06</ele>
<time>2015-04-30T12:43:50Z</time>
</trkpt>
<trkpt lat="34.7630094" lon="32.9297562">
<ele>269.83</ele>
<time>2015-04-30T12:43:52Z</time>
</trkpt>
<trkpt lat="34.7630365" lon="32.9298053">
<ele>270.30</ele>
<time>2015-04-30T12:43:53Z</time>
</trkpt>
<trkpt lat="34.7630883" lon="32.9298635">
<ele>270.64</ele>
<time>2015-04-30T12:43:55Z</time>
</trkpt>
<trkpt lat="34.7631163" lon="32.9299067">
<ele>270.70</ele>
<time>2015-04-30T12:43:56Z</time>
</trkpt>
<trkpt lat="34.7631688" lon="32.9299905">
<ele>271.25</ele>
<time>2015-04-30T12:43:58Z</time>
</trkpt>
<trkpt lat="34.7632164" lon="32.9300467">
<ele>270.88</ele>
<time>2015-04-30T12:44:00Z</time>
</trkpt>
<trkpt lat="34.7632634" lon="32.9301057">
<ele>271.54</ele>
<time>2015-04-30T12:44:02Z</time>
</trkpt>
<trkpt lat="34.7633097" lon="32.9301630">
<ele>271.71</ele>
<time>2015-04-30T12:44:04Z</time>
</trkpt>
<trkpt lat="34.7633554" lon="32.9302137">
<ele>271.75</ele>
<time>2015-04-30T12:44:06Z</time>
</trkpt>
<trkpt lat="34.7633978" lon="32.9302604">
<ele>271.01</ele>
<time>2015-04-30T12:44:08Z</time>
</trkpt>
<trkpt lat="34.7634374" lon="32.9303062">
<ele>270.57</ele>
<time>2015-04-30T12:44:10Z</time>
</trkpt>
<trkpt lat="34.7634758" lon="32.9303573">
<ele>270.21</ele>
<time>2015-04-30T12:44:12Z</time>
</trkpt>
<trkpt lat="34.7635214" lon="32.9304094">
<ele>270.62</ele>
<time>2015-04-30T12:44:14Z</time>
</trkpt>
<trkpt lat="34.7635717" lon="32.9304719">
<ele>271.48</ele>
<time>2015-04-30T12:44:16Z</time>
</trkpt>
<trkpt lat="34.7636295" lon="32.9305434">
<ele>271.44</ele>
<time>2015-04-30T12:44:18Z</time>
</trkpt>
<trkpt lat="34.7636838" lon="32.9306182">
<ele>271.68</ele>
<time>2015-04-30T12:44:20Z</time>
</trkpt>
<trkpt lat="34.7637394" lon="32.9306947">
<ele>272.49</ele>
<time>2015-04-30T12:44:22Z</time>
</trkpt>
<trkpt lat="34.7637944" lon="32.9307708">
<ele>272.94</ele>
<time>2015-04-30T12:44:24Z</time>
</trkpt>
<trkpt lat="34.7638487" lon="32.9308385">
<ele>273.56</ele>
<time>2015-04-30T12:44:26Z</time>
</trkpt>
<trkpt lat="34.7639024" lon="32.9309070">
<ele>272.46</ele>
<time>2015-04-30T12:44:28Z</time>
</trkpt>
<trkpt lat="34.7639515" lon="32.9309746">
<ele>272.68</ele>
<time>2015-04-30T12:44:30Z</time>
</trkpt>
<trkpt lat="34.7640009" lon="32.9310434">
<ele>271.99</ele>
<time>2015-04-30T12:44:32Z</time>
</trkpt>
<trkpt lat="34.7640467" lon="32.9310986">
<ele>271.07</ele>
<time>2015-04-30T12:44:34Z</time>
</trkpt>
<trkpt lat="34.7640883" lon="32.9311550">
<ele>272.09</ele>
<time>2015-04-30T12:44:36Z</time>
</trkpt>
<trkpt lat="34.7641256" lon="32.9312076">
<ele>272.34</ele>
<time>2015-04-30T12:44:38Z</time>
</trkpt>
<trkpt lat="34.7641651" lon="32.9312536">
<ele>271.91</ele>
<time>2015-04-30T12:44:40Z</time>
</trkpt>
<trkpt lat="34.7642071" lon="32.9313064">
<ele>271.80</ele>
<time>2015-04-30T12:44:42Z</time>
</trkpt>
<trkpt lat="34.7642478" lon="32.9313740">
<ele>271.01</ele>
<time>2015-04-30T12:44:45Z</time>
</trkpt>
<trkpt lat="34.7642869" lon="32.9314181">
<ele>270.82</ele>
<time>2015-04-30T12:44:47Z</time>
</trkpt>
<trkpt lat="34.7643283" lon="32.9314722">
<ele>270.78</ele>
<time>2015-04-30T12:44:49Z</time>
</trkpt>
<trkpt lat="34.7643704" lon="32.9315230">
<ele>270.26</ele>
<time>2015-04-30T12:44:51Z</time>
</trkpt>
<trkpt lat="34.7644117" lon="32.9315753">
<ele>269.89</ele>
<time>2015-04-30T12:44:53Z</time>
</trkpt>
<trkpt lat="34.7644482" lon="32.9316243">
<ele>270.04</ele>
<time>2015-04-30T12:44:55Z</time>
</trkpt>
<trkpt lat="34.7644844" lon="32.9316715">
<ele>270.33</ele>
<time>2015-04-30T12:44:57Z</time>
</trkpt>
<trkpt lat="34.7645282" lon="32.9317277">
<ele>270.33</ele>
<time>2015-04-30T12:45:00Z</time>
</trkpt>
<trkpt lat="34.7645604" lon="32.9317684">
<ele>270.15</ele>
<time>2015-04-30T12:45:02Z</time>
</trkpt>
<trkpt lat="34.7645990" lon="32.9318109">
<ele>270.61</ele>
<time>2015-04-30T12:45:04Z</time>
</trkpt>
<trkpt lat="34.7646354" lon="32.9318565">
<ele>271.22</ele>
<time>2015-04-30T12:45:06Z</time>
</trkpt>
<trkpt lat="34.7646707" lon="32.9319072">
<ele>272.13</ele>
<time>2015-04-30T12:45:08Z</time>
</trkpt>
<trkpt lat="34.7647091" lon="32.9319615">
<ele>272.60</ele>
<time>2015-04-30T12:45:10Z</time>
</trkpt>
<trkpt lat="34.7647512" lon="32.9320173">
<ele>272.72</ele>
<time>2015-04-30T12:45:12Z</time>
</trkpt>
<trkpt lat="34.7647966" lon="32.9320753">
<ele>272.75</ele>
<time>2015-04-30T12:45:14Z</time>
</trkpt>
<trkpt lat="34.7648438" lon="32.9321351">
<ele>272.01</ele>
<time>2015-04-30T12:45:16Z</time>
</trkpt>
<trkpt lat="34.7648946" lon="32.9321940">
<ele>271.82</ele>
<time>2015-04-30T12:45:18Z</time>
</trkpt>
<trkpt lat="34.7649451" lon="32.9322559">
<ele>271.28</ele>
<time>2015-04-30T12:45:20Z</time>
</trkpt>
<trkpt lat="34.7649954" lon="32.9323201">
<ele>270.89</ele>
<time>2015-04-30T12:45:22Z</time>
</trkpt>
<trkpt lat="34.7650497" lon="32.9323869">
<ele>270.79</ele>
<time>2015-04-30T12:45:24Z</time>
</trkpt>
<trkpt lat="34.7651051" lon="32.9324539">
<ele>270.27</ele>
<time>2015-04-30T12:45:26Z</time>
</trkpt>
<trkpt lat="34.7651635" lon="32.9325232">
<ele>269.39</ele>
<time>2015-04-30T12:45:28Z</time>
</trkpt>
<trkpt lat="34.7652244" lon="32.9325967">
<ele>268.92</ele>
<time>2015-04-30T12:45:30Z</time>
</trkpt>
<trkpt lat="34.7652808" lon="32.9326706">
<ele>268.34</ele>
<time>2015-04-30T12:45:31Z</time>
</trkpt>
<trkpt lat="34.7653168" lon="32.9327084">
<ele>268.05</ele>
<time>2015-04-30T12:45:32Z</time>
</trkpt>
<trkpt lat="34.7653475" lon="32.9327524">
<ele>267.90</ele>
<time>2015-04-30T12:45:33Z</time>
</trkpt>
<trkpt lat="34.7653838" lon="32.9327969">
<ele>267.83</ele>
<time>2015-04-30T12:45:34Z</time>
</trkpt>
<trkpt lat="34.7654183" lon="32.9328426">
<ele>267.80</ele>
<time>2015-04-30T12:45:35Z</time>
</trkpt>
<trkpt lat="34.7654552" lon="32.9328949">
<ele>268.28</ele>
<time>2015-04-30T12:45:36Z</time>
</trkpt>
<trkpt lat="34.7654911" lon="32.9329413">
<ele>268.52</ele>
<time>2015-04-30T12:45:37Z</time>
</trkpt>
<trkpt lat="34.7655296" lon="32.9329915">
<ele>268.64</ele>
<time>2015-04-30T12:45:38Z</time>
</trkpt>
<trkpt lat="34.7655689" lon="32.9330478">
<ele>268.70</ele>
<time>2015-04-30T12:45:39Z</time>
</trkpt>
<trkpt lat="34.7656118" lon="32.9331078">
<ele>269.23</ele>
<time>2015-04-30T12:45:40Z</time>
</trkpt>
<trkpt lat="34.7656528" lon="32.9331512">
<ele>269.49</ele>
<time>2015-04-30T12:45:41Z</time>
</trkpt>
<trkpt lat="34.7656913" lon="32.9331987">
<ele>270.13</ele>
<time>2015-04-30T12:45:42Z</time>
</trkpt>
<trkpt lat="34.7657320" lon="32.9332516">
<ele>269.94</ele>
<time>2015-04-30T12:45:43Z</time>
</trkpt>
<trkpt lat="34.7657796" lon="32.9333144">
<ele>270.35</ele>
<time>2015-04-30T12:45:44Z</time>
</trkpt>
<trkpt lat="34.7658183" lon="32.9333688">
<ele>270.06</ele>
<time>2015-04-30T12:45:45Z</time>
</trkpt>
<trkpt lat="34.7658524" lon="32.9334174">
<ele>269.91</ele>
<time>2015-04-30T12:45:46Z</time>
</trkpt>
<trkpt lat="34.7658977" lon="32.9334700">
<ele>269.83</ele>
<time>2015-04-30T12:45:47Z</time>
</trkpt>
<trkpt lat="34.7659388" lon="32.9335247">
<ele>269.80</ele>
<time>2015-04-30T12:45:48Z</time>
</trkpt>
<trkpt lat="34.7659846" lon="32.9335815">
<ele>269.28</ele>
<time>2015-04-30T12:45:49Z</time>
</trkpt>
<trkpt lat="34.7660268" lon="32.9336397">
<ele>269.02</ele>
<time>2015-04-30T12:45:50Z</time>
</trkpt>
<trkpt lat="34.7660680" lon="32.9336948">
<ele>268.39</ele>
<time>2015-04-30T12:45:51Z</time>
</trkpt>
<trkpt lat="34.7661146" lon="32.9337637">
<ele>267.57</ele>
<time>2015-04-30T12:45:52Z</time>
</trkpt>
<trkpt lat="34.7661589" lon="32.9338223">
<ele>267.17</ele>
<time>2015-04-30T12:45:53Z</time>
</trkpt>
<trkpt lat="34.7662045" lon="32.9338856">
<ele>266.46</ele>
<time>2015-04-30T12:45:54Z</time>
</trkpt>
<trkpt lat="34.7662434" lon="32.9339489">
<ele>265.11</ele>
<time>2015-04-30T12:45:55Z</time>
</trkpt>
<trkpt lat="34.7662911" lon="32.9340152">
<ele>264.94</ele>
<time>2015-04-30T12:45:56Z</time>
</trkpt>
<trkpt lat="34.7663385" lon="32.9340791">
<ele>264.85</ele>
<time>2015-04-30T12:45:57Z</time>
</trkpt>
<trkpt lat="34.7663819" lon="32.9341303">
<ele>264.30</ele>
<time>2015-04-30T12:45:58Z</time>
</trkpt>
<trkpt lat="34.7664367" lon="32.9342066">
<ele>264.03</ele>
<time>2015-04-30T12:45:59Z</time>
</trkpt>
<trkpt lat="34.7664883" lon="32.9342609">
<ele>264.40</ele>
<time>2015-04-30T12:46:00Z</time>
</trkpt>
<trkpt lat="34.7665476" lon="32.9343290">
<ele>264.58</ele>
<time>2015-04-30T12:46:01Z</time>
</trkpt>
<trkpt lat="34.7665997" lon="32.9343934">
<ele>265.17</ele>
<time>2015-04-30T12:46:02Z</time>
</trkpt>
<trkpt lat="34.7666510" lon="32.9344751">
<ele>264.96</ele>
<time>2015-04-30T12:46:03Z</time>
</trkpt>
<trkpt lat="34.7667094" lon="32.9345392">
<ele>264.86</ele>
<time>2015-04-30T12:46:04Z</time>
</trkpt>
<trkpt lat="34.7667590" lon="32.9346107">
<ele>264.81</ele>
<time>2015-04-30T12:46:05Z</time>
</trkpt>
<trkpt lat="34.7668094" lon="32.9346745">
<ele>265.29</ele>
<time>2015-04-30T12:46:06Z</time>
</trkpt>
<trkpt lat="34.7668644" lon="32.9347409">
<ele>265.52</ele>
<time>2015-04-30T12:46:07Z</time>
</trkpt>
<trkpt lat="34.7669213" lon="32.9348095">
<ele>265.64</ele>
<time>2015-04-30T12:46:08Z</time>
</trkpt>
<trkpt lat="34.7669720" lon="32.9348779">
<ele>264.70</ele>
<time>2015-04-30T12:46:09Z</time>
</trkpt>
<trkpt lat="34.7670235" lon="32.9349387">
<ele>264.23</ele>
<time>2015-04-30T12:46:10Z</time>
</trkpt>
<trkpt lat="34.7670761" lon="32.9350098">
<ele>264.50</ele>
<time>2015-04-30T12:46:11Z</time>
</trkpt>
<trkpt lat="34.7671343" lon="32.9350839">
<ele>264.63</ele>
<time>2015-04-30T12:46:12Z</time>
</trkpt>
<trkpt lat="34.7671912" lon="32.9351514">
<ele>264.19</ele>
<time>2015-04-30T12:46:13Z</time>
</trkpt>
<trkpt lat="34.7672447" lon="32.9352256">
<ele>263.48</ele>
<time>2015-04-30T12:46:14Z</time>
</trkpt>
<trkpt lat="34.7673008" lon="32.9352968">
<ele>262.62</ele>
<time>2015-04-30T12:46:15Z</time>
</trkpt>
<trkpt lat="34.7673495" lon="32.9353780">
<ele>261.69</ele>
<time>2015-04-30T12:46:16Z</time>
</trkpt>
<trkpt lat="34.7674036" lon="32.9354609">
<ele>261.22</ele>
<time>2015-04-30T12:46:17Z</time>
</trkpt>
<trkpt lat="34.7674547" lon="32.9355339">
<ele>260.99</ele>
<time>2015-04-30T12:46:18Z</time>
</trkpt>
<trkpt lat="34.7675086" lon="32.9356056">
<ele>260.88</ele>
<time>2015-04-30T12:46:19Z</time>
</trkpt>
<trkpt lat="34.7675690" lon="32.9356840">
<ele>260.82</ele>
<time>2015-04-30T12:46:20Z</time>
</trkpt>
<trkpt lat="34.7676183" lon="32.9357629">
<ele>260.79</ele>
<time>2015-04-30T12:46:21Z</time>
</trkpt>
<trkpt lat="34.7676603" lon="32.9358296">
<ele>260.27</ele>
<time>2015-04-30T12:46:22Z</time>
</trkpt>
<trkpt lat="34.7677214" lon="32.9358990">
<ele>260.52</ele>
<time>2015-04-30T12:46:23Z</time>
</trkpt>
<trkpt lat="34.7677720" lon="32.9359752">
<ele>260.64</ele>
<time>2015-04-30T12:46:24Z</time>
</trkpt>
<trkpt lat="34.7678186" lon="32.9360512">
<ele>260.70</ele>
<time>2015-04-30T12:46:25Z</time>
</trkpt>
<trkpt lat="34.7678606" lon="32.9361233">
<ele>260.73</ele>
<time>2015-04-30T12:46:26Z</time>
</trkpt>
<trkpt lat="34.7678979" lon="32.9361972">
<ele>260.24</ele>
<time>2015-04-30T12:46:27Z</time>
</trkpt>
<trkpt lat="34.7679350" lon="32.9362710">
<ele>260.00</ele>
<time>2015-04-30T12:46:28Z</time>
</trkpt>
<trkpt lat="34.7679691" lon="32.9363405">
<ele>260.38</ele>
<time>2015-04-30T12:46:29Z</time>
</trkpt>
<trkpt lat="34.7680264" lon="32.9364020">
<ele>261.07</ele>
<time>2015-04-30T12:46:30Z</time>
</trkpt>
<trkpt lat="34.7680630" lon="32.9364678">
<ele>261.42</ele>
<time>2015-04-30T12:46:31Z</time>
</trkpt>
<trkpt lat="34.7681042" lon="32.9365265">
<ele>261.09</ele>
<time>2015-04-30T12:46:32Z</time>
</trkpt>
<trkpt lat="34.7681302" lon="32.9365938">
<ele>261.92</ele>
<time>2015-04-30T12:46:33Z</time>
</trkpt>
<trkpt lat="34.7681540" lon="32.9366691">
<ele>262.34</ele>
<time>2015-04-30T12:46:34Z</time>
</trkpt>
<trkpt lat="34.7681844" lon="32.9367485">
<ele>263.05</ele>
<time>2015-04-30T12:46:35Z</time>
</trkpt>
<trkpt lat="34.7682128" lon="32.9368131">
<ele>263.91</ele>
<time>2015-04-30T12:46:36Z</time>
</trkpt>
<trkpt lat="34.7682393" lon="32.9368801">
<ele>264.33</ele>
<time>2015-04-30T12:46:37Z</time>
</trkpt>
<trkpt lat="34.7682691" lon="32.9369452">
<ele>264.55</ele>
<time>2015-04-30T12:46:38Z</time>
</trkpt>
<trkpt lat="34.7683075" lon="32.9370052">
<ele>264.65</ele>
<time>2015-04-30T12:46:39Z</time>
</trkpt>
<trkpt lat="34.7683291" lon="32.9370625">
<ele>264.21</ele>
<time>2015-04-30T12:46:40Z</time>
</trkpt>
<trkpt lat="34.7683555" lon="32.9371242">
<ele>263.98</ele>
<time>2015-04-30T12:46:41Z</time>
</trkpt>
<trkpt lat="34.7683814" lon="32.9371793">
<ele>264.37</ele>
<time>2015-04-30T12:46:42Z</time>
</trkpt>
<trkpt lat="34.7683988" lon="32.9372326">
<ele>264.07</ele>
<time>2015-04-30T12:46:43Z</time>
</trkpt>
<trkpt lat="34.7684197" lon="32.9372948">
<ele>263.41</ele>
<time>2015-04-30T12:46:44Z</time>
</trkpt>
<trkpt lat="34.7684453" lon="32.9373472">
<ele>263.09</ele>
<time>2015-04-30T12:46:45Z</time>
</trkpt>
<trkpt lat="34.7684777" lon="32.9374237">
<ele>263.34</ele>
<time>2015-04-30T12:46:47Z</time>
</trkpt>
<trkpt lat="34.7684986" lon="32.9375110">
<ele>262.91</ele>
<time>2015-04-30T12:46:49Z</time>
</trkpt>
<trkpt lat="34.7685293" lon="32.9375815">
<ele>263.55</ele>
<time>2015-04-30T12:46:51Z</time>
</trkpt>
<trkpt lat="34.7685669" lon="32.9376630">
<ele>263.96</ele>
<time>2015-04-30T12:46:53Z</time>
</trkpt>
<trkpt lat="34.7685853" lon="32.9377316">
<ele>265.06</ele>
<time>2015-04-30T12:46:55Z</time>
</trkpt>
<trkpt lat="34.7686099" lon="32.9378024">
<ele>264.83</ele>
<time>2015-04-30T12:46:57Z</time>
</trkpt>
<trkpt lat="34.7686318" lon="32.9378719">
<ele>264.78</ele>
<time>2015-04-30T12:46:59Z</time>
</trkpt>
<trkpt lat="34.7686545" lon="32.9379397">
<ele>265.26</ele>
<time>2015-04-30T12:47:01Z</time>
</trkpt>
<trkpt lat="34.7686717" lon="32.9380012">
<ele>265.64</ele>
<time>2015-04-30T12:47:03Z</time>
</trkpt>
<trkpt lat="34.7686860" lon="32.9380637">
<ele>265.23</ele>
<time>2015-04-30T12:47:05Z</time>
</trkpt>
<trkpt lat="34.7687006" lon="32.9381235">
<ele>264.88</ele>
<time>2015-04-30T12:47:07Z</time>
</trkpt>
<trkpt lat="34.7687135" lon="32.9381860">
<ele>265.29</ele>
<time>2015-04-30T12:47:09Z</time>
</trkpt>
<trkpt lat="34.7687248" lon="32.9382447">
<ele>265.89</ele>
<time>2015-04-30T12:47:11Z</time>
</trkpt>
<trkpt lat="34.7687377" lon="32.9383063">
<ele>267.04</ele>
<time>2015-04-30T12:47:13Z</time>
</trkpt>
<trkpt lat="34.7687521" lon="32.9383629">
<ele>267.58</ele>
<time>2015-04-30T12:47:15Z</time>
</trkpt>
<trkpt lat="34.7687644" lon="32.9384185">
<ele>268.47</ele>
<time>2015-04-30T12:47:17Z</time>
</trkpt>
<trkpt lat="34.7687708" lon="32.9384739">
<ele>268.69</ele>
<time>2015-04-30T12:47:19Z</time>
</trkpt>
<trkpt lat="34.7687799" lon="32.9385295">
<ele>268.74</ele>
<time>2015-04-30T12:47:21Z</time>
</trkpt>
<trkpt lat="34.7687916" lon="32.9386084">
<ele>268.76</ele>
<time>2015-04-30T12:47:24Z</time>
</trkpt>
<trkpt lat="34.7687975" lon="32.9386639">
<ele>269.26</ele>
<time>2015-04-30T12:47:26Z</time>
</trkpt>
<trkpt lat="34.7688062" lon="32.9387215">
<ele>270.13</ele>
<time>2015-04-30T12:47:28Z</time>
</trkpt>
<trkpt lat="34.7688171" lon="32.9387752">
<ele>270.60</ele>
<time>2015-04-30T12:47:30Z</time>
</trkpt>
<trkpt lat="34.7688310" lon="32.9388548">
<ele>271.49</ele>
<time>2015-04-30T12:47:33Z</time>
</trkpt>
<trkpt lat="34.7688438" lon="32.9389346">
<ele>272.60</ele>
<time>2015-04-30T12:47:36Z</time>
</trkpt>
<trkpt lat="34.7688496" lon="32.9390020">
<ele>273.24</ele>
<time>2015-04-30T12:47:39Z</time>
</trkpt>
<trkpt lat="34.7688617" lon="32.9390687">
<ele>272.85</ele>
<time>2015-04-30T12:47:43Z</time>
</trkpt>
<trkpt lat="34.7688732" lon="32.9391228">
<ele>276.02</ele>
<time>2015-04-30T12:47:47Z</time>
</trkpt>
<trkpt lat="34.7688756" lon="32.9391816">
<ele>274.90</ele>
<time>2015-04-30T12:47:51Z</time>
</trkpt>
<trkpt lat="34.7688848" lon="32.9392383">
<ele>275.52</ele>
<time>2015-04-30T12:47:55Z</time>
</trkpt>
<trkpt lat="34.7688984" lon="32.9392915">
<ele>274.31</ele>
<time>2015-04-30T12:47:59Z</time>
</trkpt>
<trkpt lat="34.7689080" lon="32.9393459">
<ele>272.23</ele>
<time>2015-04-30T12:48:03Z</time>
</trkpt>
<trkpt lat="34.7689086" lon="32.9394053">
<ele>272.85</ele>
<time>2015-04-30T12:48:07Z</time>
</trkpt>
<trkpt lat="34.7689119" lon="32.9394633">
<ele>272.77</ele>
<time>2015-04-30T12:48:11Z</time>
</trkpt>
<trkpt lat="34.7689257" lon="32.9395159">
<ele>272.95</ele>
<time>2015-04-30T12:48:16Z</time>
</trkpt>
<trkpt lat="34.7689226" lon="32.9395770">
<ele>272.02</ele>
<time>2015-04-30T12:48:21Z</time>
</trkpt>
<trkpt lat="34.7689277" lon="32.9396334">
<ele>271.71</ele>
<time>2015-04-30T12:48:25Z</time>
</trkpt>
<trkpt lat="34.7689318" lon="32.9396938">
<ele>274.13</ele>
<time>2015-04-30T12:48:29Z</time>
</trkpt>
<trkpt lat="34.7689361" lon="32.9397570">
<ele>276.28</ele>
<time>2015-04-30T12:48:33Z</time>
</trkpt>
<trkpt lat="34.7689484" lon="32.9398216">
<ele>278.00</ele>
<time>2015-04-30T12:48:38Z</time>
</trkpt>
<trkpt lat="34.7689574" lon="32.9398800">
<ele>278.52</ele>
<time>2015-04-30T12:48:42Z</time>
</trkpt>
<trkpt lat="34.7689649" lon="32.9399378">
<ele>280.50</ele>
<time>2015-04-30T12:48:46Z</time>
</trkpt>
<trkpt lat="34.7689740" lon="32.9400015">
<ele>277.68</ele>
<time>2015-04-30T12:48:50Z</time>
</trkpt>
<trkpt lat="34.7689782" lon="32.9400562">
<ele>277.63</ele>
<time>2015-04-30T12:48:53Z</time>
</trkpt>
<trkpt lat="34.7689760" lon="32.9401267">
<ele>278.38</ele>
<time>2015-04-30T12:48:57Z</time>
</trkpt>
<trkpt lat="34.7689779" lon="32.9401948">
<ele>276.99</ele>
<time>2015-04-30T12:49:01Z</time>
</trkpt>
<trkpt lat="34.7689804" lon="32.9402622">
<ele>277.71</ele>
<time>2015-04-30T12:49:05Z</time>
</trkpt>
<trkpt lat="34.7689815" lon="32.9403221">
<ele>280.38</ele>
<time>2015-04-30T12:49:09Z</time>
</trkpt>
<trkpt lat="34.7689800" lon="32.9403824">
<ele>280.99</ele>
<time>2015-04-30T12:49:13Z</time>
</trkpt>
<trkpt lat="34.7689816" lon="32.9404461">
<ele>280.40</ele>
<time>2015-04-30T12:49:17Z</time>
</trkpt>
<trkpt lat="34.7689836" lon="32.9405075">
<ele>280.42</ele>
<time>2015-04-30T12:49:21Z</time>
</trkpt>
<trkpt lat="34.7689831" lon="32.9405689">
<ele>279.86</ele>
<time>2015-04-30T12:49:25Z</time>
</trkpt>
<trkpt lat="34.7689831" lon="32.9406246">
<ele>280.89</ele>
<time>2015-04-30T12:49:29Z</time>
</trkpt>
<trkpt lat="34.7689837" lon="32.9406828">
<ele>281.76</ele>
<time>2015-04-30T12:49:34Z</time>
</trkpt>
<trkpt lat="34.7689802" lon="32.9407486">
<ele>281.76</ele>
<time>2015-04-30T12:49:39Z</time>
</trkpt>
<trkpt lat="34.7689766" lon="32.9408108">
<ele>278.39</ele>
<time>2015-04-30T12:49:44Z</time>
</trkpt>
<trkpt lat="34.7689781" lon="32.9408667">
<ele>279.42</ele>
<time>2015-04-30T12:49:48Z</time>
</trkpt>
<trkpt lat="34.7689711" lon="32.9409324">
<ele>279.22</ele>
<time>2015-04-30T12:49:53Z</time>
</trkpt>
<trkpt lat="34.7689824" lon="32.9409937">
<ele>278.41</ele>
<time>2015-04-30T12:49:57Z</time>
</trkpt>
<trkpt lat="34.7689836" lon="32.9410568">
<ele>280.18</ele>
<time>2015-04-30T12:50:01Z</time>
</trkpt>
<trkpt lat="34.7689757" lon="32.9411176">
<ele>282.04</ele>
<time>2015-04-30T12:50:05Z</time>
</trkpt>
<trkpt lat="34.7689702" lon="32.9411777">
<ele>282.08</ele>
<time>2015-04-30T12:50:10Z</time>
</trkpt>
<trkpt lat="34.7689611" lon="32.9412321">
<ele>282.72</ele>
<time>2015-04-30T12:50:14Z</time>
</trkpt>
<trkpt lat="34.7689552" lon="32.9412957">
<ele>283.32</ele>
<time>2015-04-30T12:50:18Z</time>
</trkpt>
<trkpt lat="34.7689451" lon="32.9413645">
<ele>283.11</ele>
<time>2015-04-30T12:50:22Z</time>
</trkpt>
<trkpt lat="34.7689263" lon="32.9414180">
<ele>284.43</ele>
<time>2015-04-30T12:50:25Z</time>
</trkpt>
<trkpt lat="34.7689124" lon="32.9414804">
<ele>286.43</ele>
<time>2015-04-30T12:50:29Z</time>
</trkpt>
<trkpt lat="34.7688955" lon="32.9415400">
<ele>288.43</ele>
<time>2015-04-30T12:50:33Z</time>
</trkpt>
<trkpt lat="34.7688843" lon="32.9416014">
<ele>288.36</ele>
<time>2015-04-30T12:50:37Z</time>
</trkpt>
<trkpt lat="34.7688750" lon="32.9416640">
<ele>287.05</ele>
<time>2015-04-30T12:50:41Z</time>
</trkpt>
<trkpt lat="34.7688719" lon="32.9417299">
<ele>284.33</ele>
<time>2015-04-30T12:50:46Z</time>
</trkpt>
<trkpt lat="34.7688727" lon="32.9417989">
<ele>283.87</ele>
<time>2015-04-30T12:50:51Z</time>
</trkpt>
<trkpt lat="34.7688593" lon="32.9418520">
<ele>285.45</ele>
<time>2015-04-30T12:50:55Z</time>
</trkpt>
<trkpt lat="34.7688416" lon="32.9419060">
<ele>286.43</ele>
<time>2015-04-30T12:50:59Z</time>
</trkpt>
<trkpt lat="34.7688278" lon="32.9419621">
<ele>285.05</ele>
<time>2015-04-30T12:51:03Z</time>
</trkpt>
<trkpt lat="34.7688178" lon="32.9420247">
<ele>286.90</ele>
<time>2015-04-30T12:51:07Z</time>
</trkpt>
<trkpt lat="34.7688156" lon="32.9420880">
<ele>289.27</ele>
<time>2015-04-30T12:51:11Z</time>
</trkpt>
<trkpt lat="34.7688066" lon="32.9421431">
<ele>291.17</ele>
<time>2015-04-30T12:51:15Z</time>
</trkpt>
<trkpt lat="34.7687967" lon="32.9422044">
<ele>291.72</ele>
<time>2015-04-30T12:51:19Z</time>
</trkpt>
<trkpt lat="34.7687792" lon="32.9422685">
<ele>291.76</ele>
<time>2015-04-30T12:51:23Z</time>
</trkpt>
<trkpt lat="34.7687558" lon="32.9423249">
<ele>292.70</ele>
<time>2015-04-30T12:51:27Z</time>
</trkpt>
<trkpt lat="34.7687437" lon="32.9423883">
<ele>292.69</ele>
<time>2015-04-30T12:51:31Z</time>
</trkpt>
<trkpt lat="34.7687229" lon="32.9424516">
<ele>294.26</ele>
<time>2015-04-30T12:51:35Z</time>
</trkpt>
<trkpt lat="34.7687038" lon="32.9425081">
<ele>295.42</ele>
<time>2015-04-30T12:51:39Z</time>
</trkpt>
<trkpt lat="34.7686819" lon="32.9425654">
<ele>295.30</ele>
<time>2015-04-30T12:51:43Z</time>
</trkpt>
<trkpt lat="34.7686653" lon="32.9426240">
<ele>296.04</ele>
<time>2015-04-30T12:51:47Z</time>
</trkpt>
<trkpt lat="34.7686456" lon="32.9426785">
<ele>298.15</ele>
<time>2015-04-30T12:51:51Z</time>
</trkpt>
<trkpt lat="34.7686184" lon="32.9427288">
<ele>298.10</ele>
<time>2015-04-30T12:51:55Z</time>
</trkpt>
<trkpt lat="34.7686028" lon="32.9427912">
<ele>297.96</ele>
<time>2015-04-30T12:52:00Z</time>
</trkpt>
<trkpt lat="34.7685913" lon="32.9428508">
<ele>298.46</ele>
<time>2015-04-30T12:52:04Z</time>
</trkpt>
<trkpt lat="34.7685783" lon="32.9429079">
<ele>298.37</ele>
<time>2015-04-30T12:52:08Z</time>
</trkpt>
<trkpt lat="34.7685619" lon="32.9429644">
<ele>297.80</ele>
<time>2015-04-30T12:52:12Z</time>
</trkpt>
<trkpt lat="34.7685444" lon="32.9430230">
<ele>297.76</ele>
<time>2015-04-30T12:52:16Z</time>
</trkpt>
<trkpt lat="34.7685298" lon="32.9430800">
<ele>297.64</ele>
<time>2015-04-30T12:52:20Z</time>
</trkpt>
<trkpt lat="34.7685096" lon="32.9431330">
<ele>298.50</ele>
<time>2015-04-30T12:52:24Z</time>
</trkpt>
<trkpt lat="34.7684927" lon="32.9431896">
<ele>298.37</ele>
<time>2015-04-30T12:52:28Z</time>
</trkpt>
<trkpt lat="34.7684752" lon="32.9432447">
<ele>299.05</ele>
<time>2015-04-30T12:52:32Z</time>
</trkpt>
<trkpt lat="34.7684540" lon="32.9433010">
<ele>299.53</ele>
<time>2015-04-30T12:52:36Z</time>
</trkpt>
<trkpt lat="34.7684284" lon="32.9433610">
<ele>300.25</ele>
<time>2015-04-30T12:52:40Z</time>
</trkpt>
<trkpt lat="34.7683991" lon="32.9434162">
<ele>301.67</ele>
<time>2015-04-30T12:52:44Z</time>
</trkpt>
<trkpt lat="34.7683755" lon="32.9434738">
<ele>300.88</ele>
<time>2015-04-30T12:52:48Z</time>
</trkpt>
<trkpt lat="34.7683483" lon="32.9435356">
<ele>301.02</ele>
<time>2015-04-30T12:52:52Z</time>
</trkpt>
<trkpt lat="34.7683209" lon="32.9435940">
<ele>301.71</ele>
<time>2015-04-30T12:52:56Z</time>
</trkpt>
<trkpt lat="34.7682946" lon="32.9436510">
<ele>303.01</ele>
<time>2015-04-30T12:53:00Z</time>
</trkpt>
<trkpt lat="34.7682694" lon="32.9437095">
<ele>304.03</ele>
<time>2015-04-30T12:53:04Z</time>
</trkpt>
<trkpt lat="34.7682425" lon="32.9437676">
<ele>304.59</ele>
<time>2015-04-30T12:53:08Z</time>
</trkpt>
<trkpt lat="34.7682132" lon="32.9438273">
<ele>304.00</ele>
<time>2015-04-30T12:53:12Z</time>
</trkpt>
<trkpt lat="34.7681934" lon="32.9438856">
<ele>302.65</ele>
<time>2015-04-30T12:53:16Z</time>
</trkpt>
<trkpt lat="34.7681726" lon="32.9439435">
<ele>301.94</ele>
<time>2015-04-30T12:53:20Z</time>
</trkpt>
<trkpt lat="34.7681452" lon="32.9439894">
<ele>301.02</ele>
<time>2015-04-30T12:53:24Z</time>
</trkpt>
<trkpt lat="34.7681189" lon="32.9440423">
<ele>301.90</ele>
<time>2015-04-30T12:53:28Z</time>
</trkpt>
<trkpt lat="34.7680959" lon="32.9441040">
<ele>302.02</ele>
<time>2015-04-30T12:53:32Z</time>
</trkpt>
<trkpt lat="34.7680708" lon="32.9441578">
<ele>300.40</ele>
<time>2015-04-30T12:53:36Z</time>
</trkpt>
<trkpt lat="34.7680357" lon="32.9442124">
<ele>299.99</ele>
<time>2015-04-30T12:53:40Z</time>
</trkpt>
<trkpt lat="34.7679981" lon="32.9442658">
<ele>300.65</ele>
<time>2015-04-30T12:53:44Z</time>
</trkpt>
<trkpt lat="34.7679664" lon="32.9443263">
<ele>301.50</ele>
<time>2015-04-30T12:53:48Z</time>
</trkpt>
<trkpt lat="34.7679300" lon="32.9443794">
<ele>302.49</ele>
<time>2015-04-30T12:53:52Z</time>
</trkpt>
<trkpt lat="34.7679008" lon="32.9444310">
<ele>302.74</ele>
<time>2015-04-30T12:53:56Z</time>
</trkpt>
<trkpt lat="34.7678799" lon="32.9444861">
<ele>302.76</ele>
<time>2015-04-30T12:54:00Z</time>
</trkpt>
<trkpt lat="34.7678409" lon="32.9445277">
<ele>303.63</ele>
<time>2015-04-30T12:54:04Z</time>
</trkpt>
<trkpt lat="34.7678171" lon="32.9445780">
<ele>304.38</ele>
<time>2015-04-30T12:54:08Z</time>
</trkpt>
<trkpt lat="34.7677875" lon="32.9446227">
<ele>304.74</ele>
<time>2015-04-30T12:54:12Z</time>
</trkpt>
<trkpt lat="34.7677623" lon="32.9446765">
<ele>305.51</ele>
<time>2015-04-30T12:54:16Z</time>
</trkpt>
<trkpt lat="34.7677306" lon="32.9447314">
<ele>306.49</ele>
<time>2015-04-30T12:54:20Z</time>
</trkpt>
<trkpt lat="34.7677010" lon="32.9447756">
<ele>307.62</ele>
<time>2015-04-30T12:54:24Z</time>
</trkpt>
<trkpt lat="34.7676666" lon="32.9448293">
<ele>308.63</ele>
<time>2015-04-30T12:54:28Z</time>
</trkpt>
<trkpt lat="34.7676352" lon="32.9448792">
<ele>309.25</ele>
<time>2015-04-30T12:54:32Z</time>
</trkpt>
<trkpt lat="34.7676014" lon="32.9449294">
<ele>309.67</ele>
<time>2015-04-30T12:54:36Z</time>
</trkpt>
<trkpt lat="34.7675727" lon="32.9449863">
<ele>309.63</ele>
<time>2015-04-30T12:54:41Z</time>
</trkpt>
<trkpt lat="34.7675410" lon="32.9450278">
<ele>308.81</ele>
<time>2015-04-30T12:54:45Z</time>
</trkpt>
<trkpt lat="34.7675114" lon="32.9450730">
<ele>308.64</ele>
<time>2015-04-30T12:54:49Z</time>
</trkpt>
<trkpt lat="34.7674756" lon="32.9451181">
<ele>308.75</ele>
<time>2015-04-30T12:54:53Z</time>
</trkpt>
<trkpt lat="34.7674475" lon="32.9451698">
<ele>309.70</ele>
<time>2015-04-30T12:54:57Z</time>
</trkpt>
<trkpt lat="34.7674149" lon="32.9452127">
<ele>310.94</ele>
<time>2015-04-30T12:55:01Z</time>
</trkpt>
<trkpt lat="34.7673800" lon="32.9452650">
<ele>311.73</ele>
<time>2015-04-30T12:55:06Z</time>
</trkpt>
<trkpt lat="34.7673470" lon="32.9453177">
<ele>313.45</ele>
<time>2015-04-30T12:55:11Z</time>
</trkpt>
<trkpt lat="34.7673098" lon="32.9453708">
<ele>315.13</ele>
<time>2015-04-30T12:55:16Z</time>
</trkpt>
<trkpt lat="34.7672794" lon="32.9454206">
<ele>315.78</ele>
<time>2015-04-30T12:55:20Z</time>
</trkpt>
<trkpt lat="34.7672449" lon="32.9454668">
<ele>316.70</ele>
<time>2015-04-30T12:55:24Z</time>
</trkpt>
<trkpt lat="34.7672143" lon="32.9455223">
<ele>318.51</ele>
<time>2015-04-30T12:55:28Z</time>
</trkpt>
<trkpt lat="34.7671797" lon="32.9455754">
<ele>318.74</ele>
<time>2015-04-30T12:55:32Z</time>
</trkpt>
<trkpt lat="34.7671493" lon="32.9456313">
<ele>318.82</ele>
<time>2015-04-30T12:55:36Z</time>
</trkpt>
<trkpt lat="34.7671187" lon="32.9456861">
<ele>320.45</ele>
<time>2015-04-30T12:55:40Z</time>
</trkpt>
<trkpt lat="34.7670839" lon="32.9457364">
<ele>321.05</ele>
<time>2015-04-30T12:55:44Z</time>
</trkpt>
<trkpt lat="34.7670544" lon="32.9457892">
<ele>322.09</ele>
<time>2015-04-30T12:55:48Z</time>
</trkpt>
<trkpt lat="34.7670216" lon="32.9458433">
<ele>321.66</ele>
<time>2015-04-30T12:55:52Z</time>
</trkpt>
<trkpt lat="34.7669892" lon="32.9458914">
<ele>322.25</ele>
<time>2015-04-30T12:55:56Z</time>
</trkpt>
<trkpt lat="34.7669578" lon="32.9459401">
<ele>320.79</ele>
<time>2015-04-30T12:56:00Z</time>
</trkpt>
<trkpt lat="34.7669358" lon="32.9459995">
<ele>318.70</ele>
<time>2015-04-30T12:56:04Z</time>
</trkpt>
<trkpt lat="34.7668959" lon="32.9460549">
<ele>319.19</ele>
<time>2015-04-30T12:56:08Z</time>
</trkpt>
<trkpt lat="34.7668618" lon="32.9461072">
<ele>320.44</ele>
<time>2015-04-30T12:56:11Z</time>
</trkpt>
<trkpt lat="34.7668276" lon="32.9461613">
<ele>320.59</ele>
<time>2015-04-30T12:56:14Z</time>
</trkpt>
<trkpt lat="34.7667944" lon="32.9462162">
<ele>321.61</ele>
<time>2015-04-30T12:56:17Z</time>
</trkpt>
<trkpt lat="34.7667555" lon="32.9462672">
<ele>322.12</ele>
<time>2015-04-30T12:56:20Z</time>
</trkpt>
<trkpt lat="34.7667172" lon="32.9463023">
<ele>323.30</ele>
<time>2015-04-30T12:56:23Z</time>
</trkpt>
<trkpt lat="34.7666778" lon="32.9463580">
<ele>325.67</ele>
<time>2015-04-30T12:56:27Z</time>
</trkpt>
<trkpt lat="34.7666505" lon="32.9464156">
<ele>328.00</ele>
<time>2015-04-30T12:56:30Z</time>
</trkpt>
<trkpt lat="34.7666133" lon="32.9464726">
<ele>330.79</ele>
<time>2015-04-30T12:56:33Z</time>
</trkpt>
<trkpt lat="34.7665699" lon="32.9465250">
<ele>331.51</ele>
<time>2015-04-30T12:56:36Z</time>
</trkpt>
<trkpt lat="34.7665279" lon="32.9465722">
<ele>330.85</ele>
<time>2015-04-30T12:56:39Z</time>
</trkpt>
<trkpt lat="34.7664860" lon="32.9466185">
<ele>331.27</ele>
<time>2015-04-30T12:56:42Z</time>
</trkpt>
<trkpt lat="34.7664456" lon="32.9466635">
<ele>329.32</ele>
<time>2015-04-30T12:56:45Z</time>
</trkpt>
<trkpt lat="34.7664104" lon="32.9467146">
<ele>330.21</ele>
<time>2015-04-30T12:56:48Z</time>
</trkpt>
<trkpt lat="34.7663787" lon="32.9467613">
<ele>329.82</ele>
<time>2015-04-30T12:56:51Z</time>
</trkpt>
<trkpt lat="34.7663209" lon="32.9467777">
<ele>330.27</ele>
<time>2015-04-30T12:56:54Z</time>
</trkpt>
<trkpt lat="34.7662582" lon="32.9467708">
<ele>329.45</ele>
<time>2015-04-30T12:56:57Z</time>
</trkpt>
<trkpt lat="34.7662301" lon="32.9468234">
<ele>332.26</ele>
<time>2015-04-30T13:02:14Z</time>
</trkpt>
<trkpt lat="34.7661903" lon="32.9468634">
<ele>337.68</ele>
<time>2015-04-30T13:02:19Z</time>
</trkpt>
<trkpt lat="34.7661466" lon="32.9468924">
<ele>340.20</ele>
<time>2015-04-30T13:02:25Z</time>
</trkpt>
<trkpt lat="34.7661498" lon="32.9469668">
<ele>339.39</ele>
<time>2015-04-30T13:02:38Z</time>
</trkpt>
<trkpt lat="34.7661650" lon="32.9470191">
<ele>337.67</ele>
<time>2015-04-30T13:02:40Z</time>
</trkpt>
<trkpt lat="34.7661468" lon="32.9470865">
<ele>338.50</ele>
<time>2015-04-30T13:02:43Z</time>
</trkpt>
<trkpt lat="34.7661085" lon="32.9471402">
<ele>338.73</ele>
<time>2015-04-30T13:02:46Z</time>
</trkpt>
<trkpt lat="34.7660651" lon="32.9471885">
<ele>339.51</ele>
<time>2015-04-30T13:02:49Z</time>
</trkpt>
<trkpt lat="34.7660221" lon="32.9472469">
<ele>341.85</ele>
<time>2015-04-30T13:02:52Z</time>
</trkpt>
<trkpt lat="34.7659856" lon="32.9472824">
<ele>343.28</ele>
<time>2015-04-30T13:02:54Z</time>
</trkpt>
<trkpt lat="34.7659512" lon="32.9473202">
<ele>345.64</ele>
<time>2015-04-30T13:02:56Z</time>
</trkpt>
<trkpt lat="34.7659020" lon="32.9473739">
<ele>345.75</ele>
<time>2015-04-30T13:02:59Z</time>
</trkpt>
<trkpt lat="34.7658647" lon="32.9474148">
<ele>347.26</ele>
<time>2015-04-30T13:03:01Z</time>
</trkpt>
<trkpt lat="34.7658251" lon="32.9474564">
<ele>348.38</ele>
<time>2015-04-30T13:03:03Z</time>
</trkpt>
<trkpt lat="34.7657836" lon="32.9474955">
<ele>348.67</ele>
<time>2015-04-30T13:03:05Z</time>
</trkpt>
<trkpt lat="34.7657408" lon="32.9475338">
<ele>347.99</ele>
<time>2015-04-30T13:03:07Z</time>
</trkpt>
<trkpt lat="34.7657000" lon="32.9475771">
<ele>348.07</ele>
<time>2015-04-30T13:03:09Z</time>
</trkpt>
<trkpt lat="34.7656613" lon="32.9476151">
<ele>348.59</ele>
<time>2015-04-30T13:03:11Z</time>
</trkpt>
<trkpt lat="34.7656161" lon="32.9476522">
<ele>349.47</ele>
<time>2015-04-30T13:03:13Z</time>
</trkpt>
<trkpt lat="34.7655702" lon="32.9476925">
<ele>349.19</ele>
<time>2015-04-30T13:03:15Z</time>
</trkpt>
<trkpt lat="34.7655184" lon="32.9477323">
<ele>349.62</ele>
<time>2015-04-30T13:03:17Z</time>
</trkpt>
<trkpt lat="34.7654687" lon="32.9477731">
<ele>348.97</ele>
<time>2015-04-30T13:03:19Z</time>
</trkpt>
<trkpt lat="34.7654181" lon="32.9478119">
<ele>349.06</ele>
<time>2015-04-30T13:03:21Z</time>
</trkpt>
<trkpt lat="34.7653676" lon="32.9478530">
<ele>349.34</ele>
<time>2015-04-30T13:03:23Z</time>
</trkpt>
<trkpt lat="34.7653168" lon="32.9478980">
<ele>350.15</ele>
<time>2015-04-30T13:03:25Z</time>
</trkpt>
<trkpt lat="34.7652657" lon="32.9479393">
<ele>352.36</ele>
<time>2015-04-30T13:03:27Z</time>
</trkpt>
<trkpt lat="34.7652110" lon="32.9479757">
<ele>355.91</ele>
<time>2015-04-30T13:03:29Z</time>
</trkpt>
<trkpt lat="34.7651600" lon="32.9480112">
<ele>357.30</ele>
<time>2015-04-30T13:03:31Z</time>
</trkpt>
<trkpt lat="34.7651092" lon="32.9480505">
<ele>357.89</ele>
<time>2015-04-30T13:03:33Z</time>
</trkpt>
<trkpt lat="34.7650584" lon="32.9480934">
<ele>358.54</ele>
<time>2015-04-30T13:03:35Z</time>
</trkpt>
<trkpt lat="34.7650093" lon="32.9481382">
<ele>358.71</ele>
<time>2015-04-30T13:03:37Z</time>
</trkpt>
<trkpt lat="34.7649612" lon="32.9481832">
<ele>359.25</ele>
<time>2015-04-30T13:03:39Z</time>
</trkpt>
<trkpt lat="34.7649067" lon="32.9482328">
<ele>360.38</ele>
<time>2015-04-30T13:03:41Z</time>
</trkpt>
<trkpt lat="34.7648452" lon="32.9482875">
<ele>360.17</ele>
<time>2015-04-30T13:03:43Z</time>
</trkpt>
<trkpt lat="34.7647826" lon="32.9483411">
<ele>360.36</ele>
<time>2015-04-30T13:03:45Z</time>
</trkpt>
<trkpt lat="34.7647246" lon="32.9483912">
<ele>360.66</ele>
<time>2015-04-30T13:03:47Z</time>
</trkpt>
<trkpt lat="34.7646704" lon="32.9484427">
<ele>360.99</ele>
<time>2015-04-30T13:03:49Z</time>
</trkpt>
<trkpt lat="34.7646165" lon="32.9484954">
<ele>360.82</ele>
<time>2015-04-30T13:03:51Z</time>
</trkpt>
<trkpt lat="34.7645588" lon="32.9485441">
<ele>361.52</ele>
<time>2015-04-30T13:03:53Z</time>
</trkpt>
<trkpt lat="34.7645029" lon="32.9485931">
<ele>361.20</ele>
<time>2015-04-30T13:03:55Z</time>
</trkpt>
<trkpt lat="34.7644484" lon="32.9486451">
<ele>360.37</ele>
<time>2015-04-30T13:03:57Z</time>
</trkpt>
<trkpt lat="34.7643918" lon="32.9486973">
<ele>359.91</ele>
<time>2015-04-30T13:03:59Z</time>
</trkpt>
<trkpt lat="34.7643325" lon="32.9487506">
<ele>360.05</ele>
<time>2015-04-30T13:04:01Z</time>
</trkpt>
<trkpt lat="34.7642732" lon="32.9488029">
<ele>360.58</ele>
<time>2015-04-30T13:04:03Z</time>
</trkpt>
<trkpt lat="34.7642121" lon="32.9488546">
<ele>361.22</ele>
<time>2015-04-30T13:04:05Z</time>
</trkpt>
<trkpt lat="34.7641472" lon="32.9489102">
<ele>362.37</ele>
<time>2015-04-30T13:04:07Z</time>
</trkpt>
<trkpt lat="34.7640904" lon="32.9489565">
<ele>362.07</ele>
<time>2015-04-30T13:04:08Z</time>
</trkpt>
<trkpt lat="34.7640546" lon="32.9489902">
<ele>361.91</ele>
<time>2015-04-30T13:04:09Z</time>
</trkpt>
<trkpt lat="34.7639850" lon="32.9490610">
<ele>361.80</ele>
<time>2015-04-30T13:04:11Z</time>
</trkpt>
<trkpt lat="34.7639467" lon="32.9490929">
<ele>361.28</ele>
<time>2015-04-30T13:04:12Z</time>
</trkpt>
<trkpt lat="34.7639103" lon="32.9491270">
<ele>361.02</ele>
<time>2015-04-30T13:04:13Z</time>
</trkpt>
<trkpt lat="34.7638712" lon="32.9491589">
<ele>360.89</ele>
<time>2015-04-30T13:04:14Z</time>
</trkpt>
<trkpt lat="34.7637943" lon="32.9492197">
<ele>361.29</ele>
<time>2015-04-30T13:04:16Z</time>
</trkpt>
<trkpt lat="34.7637250" lon="32.9492746">
<ele>361.64</ele>
<time>2015-04-30T13:04:18Z</time>
</trkpt>
<trkpt lat="34.7636569" lon="32.9493397">
<ele>361.73</ele>
<time>2015-04-30T13:04:20Z</time>
</trkpt>
<trkpt lat="34.7635898" lon="32.9493993">
<ele>361.75</ele>
<time>2015-04-30T13:04:22Z</time>
</trkpt>
<trkpt lat="34.7635230" lon="32.9494606">
<ele>361.01</ele>
<time>2015-04-30T13:04:24Z</time>
</trkpt>
<trkpt lat="34.7634562" lon="32.9495178">
<ele>361.32</ele>
<time>2015-04-30T13:04:26Z</time>
</trkpt>
<trkpt lat="34.7633879" lon="32.9495736">
<ele>360.90</ele>
<time>2015-04-30T13:04:28Z</time>
</trkpt>
<trkpt lat="34.7633174" lon="32.9496293">
<ele>361.55</ele>
<time>2015-04-30T13:04:30Z</time>
</trkpt>
<trkpt lat="34.7632456" lon="32.9496882">
<ele>361.71</ele>
<time>2015-04-30T13:04:32Z</time>
</trkpt>
<trkpt lat="34.7631758" lon="32.9497498">
<ele>360.25</ele>
<time>2015-04-30T13:04:34Z</time>
</trkpt>
<trkpt lat="34.7631326" lon="32.9497909">
<ele>360.00</ele>
<time>2015-04-30T13:04:35Z</time>
</trkpt>
<trkpt lat="34.7630886" lon="32.9498240">
<ele>359.88</ele>
<time>2015-04-30T13:04:36Z</time>
</trkpt>
<trkpt lat="34.7630476" lon="32.9498607">
<ele>359.32</ele>
<time>2015-04-30T13:04:37Z</time>
</trkpt>
<trkpt lat="34.7630109" lon="32.9498982">
<ele>358.54</ele>
<time>2015-04-30T13:04:38Z</time>
</trkpt>
<trkpt lat="34.7629686" lon="32.9499332">
<ele>358.15</ele>
<time>2015-04-30T13:04:39Z</time>
</trkpt>
<trkpt lat="34.7629206" lon="32.9499732">
<ele>357.46</ele>
<time>2015-04-30T13:04:40Z</time>
</trkpt>
<trkpt lat="34.7628748" lon="32.9500113">
<ele>357.11</ele>
<time>2015-04-30T13:04:41Z</time>
</trkpt>
<trkpt lat="34.7628259" lon="32.9500498">
<ele>357.43</ele>
<time>2015-04-30T13:04:42Z</time>
</trkpt>
<trkpt lat="34.7627776" lon="32.9500862">
<ele>357.10</ele>
<time>2015-04-30T13:04:43Z</time>
</trkpt>
<trkpt lat="34.7627219" lon="32.9501283">
<ele>356.93</ele>
<time>2015-04-30T13:04:44Z</time>
</trkpt>
<trkpt lat="34.7626684" lon="32.9501787">
<ele>356.84</ele>
<time>2015-04-30T13:04:45Z</time>
</trkpt>
<trkpt lat="34.7626060" lon="32.9502234">
<ele>357.30</ele>
<time>2015-04-30T13:04:46Z</time>
</trkpt>
<trkpt lat="34.7625418" lon="32.9502754">
<ele>358.03</ele>
<time>2015-04-30T13:04:47Z</time>
</trkpt>
<trkpt lat="34.7624779" lon="32.9503330">
<ele>358.40</ele>
<time>2015-04-30T13:04:48Z</time>
</trkpt>
<trkpt lat="34.7624146" lon="32.9503904">
<ele>358.58</ele>
<time>2015-04-30T13:04:49Z</time>
</trkpt>
<trkpt lat="34.7623504" lon="32.9504494">
<ele>358.17</ele>
<time>2015-04-30T13:04:50Z</time>
</trkpt>
<trkpt lat="34.7622913" lon="32.9505150">
<ele>357.46</ele>
<time>2015-04-30T13:04:51Z</time>
</trkpt>
<trkpt lat="34.7622199" lon="32.9505750">
<ele>356.61</ele>
<time>2015-04-30T13:04:52Z</time>
</trkpt>
<trkpt lat="34.7621465" lon="32.9506368">
<ele>356.69</ele>
<time>2015-04-30T13:04:53Z</time>
</trkpt>
<trkpt lat="34.7620745" lon="32.9506993">
<ele>356.22</ele>
<time>2015-04-30T13:04:54Z</time>
</trkpt>
<trkpt lat="34.7619952" lon="32.9507637">
<ele>355.99</ele>
<time>2015-04-30T13:04:55Z</time>
</trkpt>
<trkpt lat="34.7619115" lon="32.9508289">
<ele>355.88</ele>
<time>2015-04-30T13:04:56Z</time>
</trkpt>
<trkpt lat="34.7618434" lon="32.9508964">
<ele>354.82</ele>
<time>2015-04-30T13:04:57Z</time>
</trkpt>
<trkpt lat="34.7617658" lon="32.9509701">
<ele>353.79</ele>
<time>2015-04-30T13:04:58Z</time>
</trkpt>
<trkpt lat="34.7616789" lon="32.9510454">
<ele>352.77</ele>
<time>2015-04-30T13:04:59Z</time>
</trkpt>
<trkpt lat="34.7615875" lon="32.9511240">
<ele>351.77</ele>
<time>2015-04-30T13:05:00Z</time>
</trkpt>
<trkpt lat="34.7614932" lon="32.9512050">
<ele>351.26</ele>
<time>2015-04-30T13:05:01Z</time>
</trkpt>
<trkpt lat="34.7613965" lon="32.9512791">
<ele>350.51</ele>
<time>2015-04-30T13:05:02Z</time>
</trkpt>
<trkpt lat="34.7613069" lon="32.9513454">
<ele>349.14</ele>
<time>2015-04-30T13:05:03Z</time>
</trkpt>
<trkpt lat="34.7612034" lon="32.9514292">
<ele>348.45</ele>
<time>2015-04-30T13:05:04Z</time>
</trkpt>
<trkpt lat="34.7611167" lon="32.9515168">
<ele>346.60</ele>
<time>2015-04-30T13:05:05Z</time>
</trkpt>
<trkpt lat="34.7610205" lon="32.9516066">
<ele>345.18</ele>
<time>2015-04-30T13:05:06Z</time>
</trkpt>
<trkpt lat="34.7609172" lon="32.9516914">
<ele>343.97</ele>
<time>2015-04-30T13:05:07Z</time>
</trkpt>
<trkpt lat="34.7608223" lon="32.9517774">
<ele>342.37</ele>
<time>2015-04-30T13:05:08Z</time>
</trkpt>
<trkpt lat="34.7607255" lon="32.9518592">
<ele>341.06</ele>
<time>2015-04-30T13:05:09Z</time>
</trkpt>
<trkpt lat="34.7606206" lon="32.9519479">
<ele>339.41</ele>
<time>2015-04-30T13:05:10Z</time>
</trkpt>
<trkpt lat="34.7605226" lon="32.9520348">
<ele>338.09</ele>
<time>2015-04-30T13:05:11Z</time>
</trkpt>
<trkpt lat="34.7604192" lon="32.9521201">
<ele>337.42</ele>
<time>2015-04-30T13:05:12Z</time>
</trkpt>
<trkpt lat="34.7603193" lon="32.9522068">
<ele>337.09</ele>
<time>2015-04-30T13:05:13Z</time>
</trkpt>
<trkpt lat="34.7602179" lon="32.9522967">
<ele>336.43</ele>
<time>2015-04-30T13:05:14Z</time>
</trkpt>
<trkpt lat="34.7601242" lon="32.9523824">
<ele>335.59</ele>
<time>2015-04-30T13:05:15Z</time>
</trkpt>
<trkpt lat="34.7600189" lon="32.9524757">
<ele>335.18</ele>
<time>2015-04-30T13:05:16Z</time>
</trkpt>
<trkpt lat="34.7599111" lon="32.9525740">
<ele>334.97</ele>
<time>2015-04-30T13:05:17Z</time>
</trkpt>
<trkpt lat="34.7598086" lon="32.9526708">
<ele>333.86</ele>
<time>2015-04-30T13:05:18Z</time>
</trkpt>
<trkpt lat="34.7597084" lon="32.9527700">
<ele>332.31</ele>
<time>2015-04-30T13:05:19Z</time>
</trkpt>
<trkpt lat="34.7596014" lon="32.9528771">
<ele>331.04</ele>
<time>2015-04-30T13:05:20Z</time>
</trkpt>
<trkpt lat="34.7594972" lon="32.9529890">
<ele>329.90</ele>
<time>2015-04-30T13:05:21Z</time>
</trkpt>
<trkpt lat="34.7593950" lon="32.9531038">
<ele>329.33</ele>
<time>2015-04-30T13:05:22Z</time>
</trkpt>
<trkpt lat="34.7592970" lon="32.9532175">
<ele>328.54</ele>
<time>2015-04-30T13:05:23Z</time>
</trkpt>
<trkpt lat="34.7591912" lon="32.9533461">
<ele>327.65</ele>
<time>2015-04-30T13:05:24Z</time>
</trkpt>
<trkpt lat="34.7590932" lon="32.9534592">
<ele>327.21</ele>
<time>2015-04-30T13:05:25Z</time>
</trkpt>
<trkpt lat="34.7590007" lon="32.9535818">
<ele>326.48</ele>
<time>2015-04-30T13:05:26Z</time>
</trkpt>
<trkpt lat="34.7589085" lon="32.9537132">
<ele>325.12</ele>
<time>2015-04-30T13:05:27Z</time>
</trkpt>
<trkpt lat="34.7588171" lon="32.9538634">
<ele>323.94</ele>
<time>2015-04-30T13:05:28Z</time>
</trkpt>
<trkpt lat="34.7587332" lon="32.9540041">
<ele>322.85</ele>
<time>2015-04-30T13:05:29Z</time>
</trkpt>
<trkpt lat="34.7586460" lon="32.9541448">
<ele>322.31</ele>
<time>2015-04-30T13:05:30Z</time>
</trkpt>
<trkpt lat="34.7585627" lon="32.9542912">
<ele>322.03</ele>
<time>2015-04-30T13:05:31Z</time>
</trkpt>
<trkpt lat="34.7584718" lon="32.9544441">
<ele>321.40</ele>
<time>2015-04-30T13:05:32Z</time>
</trkpt>
<trkpt lat="34.7583859" lon="32.9545851">
<ele>320.58</ele>
<time>2015-04-30T13:05:33Z</time>
</trkpt>
<trkpt lat="34.7582999" lon="32.9547349">
<ele>320.17</ele>
<time>2015-04-30T13:05:34Z</time>
</trkpt>
<trkpt lat="34.7582096" lon="32.9548817">
<ele>319.46</ele>
<time>2015-04-30T13:05:35Z</time>
</trkpt>
<trkpt lat="34.7581172" lon="32.9550366">
<ele>318.61</ele>
<time>2015-04-30T13:05:36Z</time>
</trkpt>
<trkpt lat="34.7580258" lon="32.9551848">
<ele>317.69</ele>
<time>2015-04-30T13:05:37Z</time>
</trkpt>
<trkpt lat="34.7579354" lon="32.9553327">
<ele>316.72</ele>
<time>2015-04-30T13:05:38Z</time>
</trkpt>
<trkpt lat="34.7578486" lon="32.9554737">
<ele>316.24</ele>
<time>2015-04-30T13:05:39Z</time>
</trkpt>
<trkpt lat="34.7577601" lon="32.9556230">
<ele>315.50</ele>
<time>2015-04-30T13:05:40Z</time>
</trkpt>
<trkpt lat="34.7576742" lon="32.9557650">
<ele>315.13</ele>
<time>2015-04-30T13:05:41Z</time>
</trkpt>
<trkpt lat="34.7575916" lon="32.9559018">
<ele>314.45</ele>
<time>2015-04-30T13:05:42Z</time>
</trkpt>
<trkpt lat="34.7575093" lon="32.9560410">
<ele>314.10</ele>
<time>2015-04-30T13:05:43Z</time>
</trkpt>
<trkpt lat="34.7574262" lon="32.9561815">
<ele>313.43</ele>
<time>2015-04-30T13:05:44Z</time>
</trkpt>
<trkpt lat="34.7573426" lon="32.9563338">
<ele>313.10</ele>
<time>2015-04-30T13:05:45Z</time>
</trkpt>
<trkpt lat="34.7572664" lon="32.9564701">
<ele>312.43</ele>
<time>2015-04-30T13:05:46Z</time>
</trkpt>
<trkpt lat="34.7571962" lon="32.9566010">
<ele>311.09</ele>
<time>2015-04-30T13:05:47Z</time>
</trkpt>
<trkpt lat="34.7571157" lon="32.9567394">
<ele>310.43</ele>
<time>2015-04-30T13:05:48Z</time>
</trkpt>
<trkpt lat="34.7570394" lon="32.9568601">
<ele>309.09</ele>
<time>2015-04-30T13:05:49Z</time>
</trkpt>
<trkpt lat="34.7569612" lon="32.9569906">
<ele>307.93</ele>
<time>2015-04-30T13:05:50Z</time>
</trkpt>
<trkpt lat="34.7568858" lon="32.9571291">
<ele>306.84</ele>
<time>2015-04-30T13:05:51Z</time>
</trkpt>
<trkpt lat="34.7568105" lon="32.9572694">
<ele>305.30</ele>
<time>2015-04-30T13:05:52Z</time>
</trkpt>
<trkpt lat="34.7567348" lon="32.9573973">
<ele>304.53</ele>
<time>2015-04-30T13:05:53Z</time>
</trkpt>
<trkpt lat="34.7566565" lon="32.9575283">
<ele>303.65</ele>
<time>2015-04-30T13:05:54Z</time>
</trkpt>
<trkpt lat="34.7565793" lon="32.9576576">
<ele>303.20</ele>
<time>2015-04-30T13:05:55Z</time>
</trkpt>
<trkpt lat="34.7564983" lon="32.9577829">
<ele>301.98</ele>
<time>2015-04-30T13:05:56Z</time>
</trkpt>
<trkpt lat="34.7564206" lon="32.9579070">
<ele>301.37</ele>
<time>2015-04-30T13:05:57Z</time>
</trkpt>
<trkpt lat="34.7563435" lon="32.9580298">
<ele>300.07</ele>
<time>2015-04-30T13:05:58Z</time>
</trkpt>
<trkpt lat="34.7562794" lon="32.9581493">
<ele>299.41</ele>
<time>2015-04-30T13:05:59Z</time>
</trkpt>
<trkpt lat="34.7562080" lon="32.9582778">
<ele>299.09</ele>
<time>2015-04-30T13:06:00Z</time>
</trkpt>
<trkpt lat="34.7561338" lon="32.9584052">
<ele>298.92</ele>
<time>2015-04-30T13:06:01Z</time>
</trkpt>
<trkpt lat="34.7560546" lon="32.9585265">
<ele>298.34</ele>
<time>2015-04-30T13:06:02Z</time>
</trkpt>
<trkpt lat="34.7559755" lon="32.9586546">
<ele>298.05</ele>
<time>2015-04-30T13:06:03Z</time>
</trkpt>
<trkpt lat="34.7559120" lon="32.9587834">
<ele>296.41</ele>
<time>2015-04-30T13:06:04Z</time>
</trkpt>
<trkpt lat="34.7558357" lon="32.9589042">
<ele>294.08</ele>
<time>2015-04-30T13:06:05Z</time>
</trkpt>
<trkpt lat="34.7557620" lon="32.9590295">
<ele>291.92</ele>
<time>2015-04-30T13:06:06Z</time>
</trkpt>
<trkpt lat="34.7556881" lon="32.9591606">
<ele>290.34</ele>
<time>2015-04-30T13:06:07Z</time>
</trkpt>
<trkpt lat="34.7556184" lon="32.9592927">
<ele>288.55</ele>
<time>2015-04-30T13:06:08Z</time>
</trkpt>
<trkpt lat="34.7555611" lon="32.9594331">
<ele>286.16</ele>
<time>2015-04-30T13:06:09Z</time>
</trkpt>
<trkpt lat="34.7554987" lon="32.9595646">
<ele>283.96</ele>
<time>2015-04-30T13:06:10Z</time>
</trkpt>
<trkpt lat="34.7554362" lon="32.9596995">
<ele>282.86</ele>
<time>2015-04-30T13:06:11Z</time>
</trkpt>
<trkpt lat="34.7553708" lon="32.9598371">
<ele>281.31</ele>
<time>2015-04-30T13:06:12Z</time>
</trkpt>
<trkpt lat="34.7553200" lon="32.9599755">
<ele>280.03</ele>
<time>2015-04-30T13:06:13Z</time>
</trkpt>
<trkpt lat="34.7552701" lon="32.9600987">
<ele>279.90</ele>
<time>2015-04-30T13:06:14Z</time>
</trkpt>
<trkpt lat="34.7552345" lon="32.9602295">
<ele>279.33</ele>
<time>2015-04-30T13:06:15Z</time>
</trkpt>
<trkpt lat="34.7551831" lon="32.9603685">
<ele>278.04</ele>
<time>2015-04-30T13:06:16Z</time>
</trkpt>
<trkpt lat="34.7551306" lon="32.9604988">
<ele>276.90</ele>
<time>2015-04-30T13:06:17Z</time>
</trkpt>
<trkpt lat="34.7550758" lon="32.9606268">
<ele>275.83</ele>
<time>2015-04-30T13:06:18Z</time>
</trkpt>
<trkpt lat="34.7550346" lon="32.9607380">
<ele>275.30</ele>
<time>2015-04-30T13:06:19Z</time>
</trkpt>
<trkpt lat="34.7549832" lon="32.9608622">
<ele>275.53</ele>
<time>2015-04-30T13:06:20Z</time>
</trkpt>
<trkpt lat="34.7549429" lon="32.9609699">
<ele>275.64</ele>
<time>2015-04-30T13:06:21Z</time>
</trkpt>
<trkpt lat="34.7548962" lon="32.9610829">
<ele>275.70</ele>
<time>2015-04-30T13:06:22Z</time>
</trkpt>
<trkpt lat="34.7548497" lon="32.9612026">
<ele>275.73</ele>
<time>2015-04-30T13:06:23Z</time>
</trkpt>
<trkpt lat="34.7548030" lon="32.9613143">
<ele>275.75</ele>
<time>2015-04-30T13:06:24Z</time>
</trkpt>
<trkpt lat="34.7547528" lon="32.9614229">
<ele>275.75</ele>
<time>2015-04-30T13:06:25Z</time>
</trkpt>
<trkpt lat="34.7547125" lon="32.9615267">
<ele>275.26</ele>
<time>2015-04-30T13:06:26Z</time>
</trkpt>
<trkpt lat="34.7546671" lon="32.9616368">
<ele>275.01</ele>
<time>2015-04-30T13:06:27Z</time>
</trkpt>
<trkpt lat="34.7546159" lon="32.9617555">
<ele>274.38</ele>
<time>2015-04-30T13:06:28Z</time>
</trkpt>
<trkpt lat="34.7545670" lon="32.9618688">
<ele>274.07</ele>
<time>2015-04-30T13:06:29Z</time>
</trkpt>
<trkpt lat="34.7545202" lon="32.9619739">
<ele>273.92</ele>
<time>2015-04-30T13:06:30Z</time>
</trkpt>
<trkpt lat="34.7544758" lon="32.9620797">
<ele>274.34</ele>
<time>2015-04-30T13:06:31Z</time>
</trkpt>
<trkpt lat="34.7544387" lon="32.9621920">
<ele>275.05</ele>
<time>2015-04-30T13:06:32Z</time>
</trkpt>
<trkpt lat="34.7543886" lon="32.9623144">
<ele>275.40</ele>
<time>2015-04-30T13:06:33Z</time>
</trkpt>
<trkpt lat="34.7543490" lon="32.9624249">
<ele>276.08</ele>
<time>2015-04-30T13:06:34Z</time>
</trkpt>
<trkpt lat="34.7543023" lon="32.9625366">
<ele>275.92</ele>
<time>2015-04-30T13:06:35Z</time>
</trkpt>
<trkpt lat="34.7542553" lon="32.9626566">
<ele>275.84</ele>
<time>2015-04-30T13:06:36Z</time>
</trkpt>
<trkpt lat="34.7542103" lon="32.9627802">
<ele>275.80</ele>
<time>2015-04-30T13:06:37Z</time>
</trkpt>
<trkpt lat="34.7541608" lon="32.9628940">
<ele>275.28</ele>
<time>2015-04-30T13:06:38Z</time>
</trkpt>
<trkpt lat="34.7541054" lon="32.9630106">
<ele>275.02</ele>
<time>2015-04-30T13:06:39Z</time>
</trkpt>
<trkpt lat="34.7540511" lon="32.9631347">
<ele>274.39</ele>
<time>2015-04-30T13:06:40Z</time>
</trkpt>
<trkpt lat="34.7540026" lon="32.9632535">
<ele>274.08</ele>
<time>2015-04-30T13:06:41Z</time>
</trkpt>
<trkpt lat="34.7539561" lon="32.9633712">
<ele>273.42</ele>
<time>2015-04-30T13:06:42Z</time>
</trkpt>
<trkpt lat="34.7538977" lon="32.9634889">
<ele>273.09</ele>
<time>2015-04-30T13:06:43Z</time>
</trkpt>
<trkpt lat="34.7538429" lon="32.9636243">
<ele>272.42</ele>
<time>2015-04-30T13:06:44Z</time>
</trkpt>
<trkpt lat="34.7537933" lon="32.9637506">
<ele>272.09</ele>
<time>2015-04-30T13:06:45Z</time>
</trkpt>
<trkpt lat="34.7537384" lon="32.9638900">
<ele>270.43</ele>
<time>2015-04-30T13:06:46Z</time>
</trkpt>
<trkpt lat="34.7536827" lon="32.9640288">
<ele>270.59</ele>
<time>2015-04-30T13:06:47Z</time>
</trkpt>
<trkpt lat="34.7536269" lon="32.9641717">
<ele>270.18</ele>
<time>2015-04-30T13:06:48Z</time>
</trkpt>
<trkpt lat="34.7535684" lon="32.9643162">
<ele>269.47</ele>
<time>2015-04-30T13:06:49Z</time>
</trkpt>
<trkpt lat="34.7535110" lon="32.9644481">
<ele>269.11</ele>
<time>2015-04-30T13:06:50Z</time>
</trkpt>
<trkpt lat="34.7534553" lon="32.9645864">
<ele>268.44</ele>
<time>2015-04-30T13:06:51Z</time>
</trkpt>
<trkpt lat="34.7533986" lon="32.9647368">
<ele>267.60</ele>
<time>2015-04-30T13:06:52Z</time>
</trkpt>
<trkpt lat="34.7533414" lon="32.9648890">
<ele>265.68</ele>
<time>2015-04-30T13:06:53Z</time>
</trkpt>
<trkpt lat="34.7532821" lon="32.9650246">
<ele>264.72</ele>
<time>2015-04-30T13:06:54Z</time>
</trkpt>
<trkpt lat="34.7532275" lon="32.9651572">
<ele>263.24</ele>
<time>2015-04-30T13:06:55Z</time>
</trkpt>
<trkpt lat="34.7531667" lon="32.9653074">
<ele>262.50</ele>
<time>2015-04-30T13:06:56Z</time>
</trkpt>
<trkpt lat="34.7531112" lon="32.9654497">
<ele>261.63</ele>
<time>2015-04-30T13:06:57Z</time>
</trkpt>
<trkpt lat="34.7530574" lon="32.9655890">
<ele>260.19</ele>
<time>2015-04-30T13:06:58Z</time>
</trkpt>
<trkpt lat="34.7529943" lon="32.9657294">
<ele>259.48</ele>
<time>2015-04-30T13:06:59Z</time>
</trkpt>
<trkpt lat="34.7529339" lon="32.9658822">
<ele>258.12</ele>
<time>2015-04-30T13:07:00Z</time>
</trkpt>
<trkpt lat="34.7528834" lon="32.9660407">
<ele>256.94</ele>
<time>2015-04-30T13:07:01Z</time>
</trkpt>
<trkpt lat="34.7528257" lon="32.9661893">
<ele>255.85</ele>
<time>2015-04-30T13:07:02Z</time>
</trkpt>
<trkpt lat="34.7527668" lon="32.9663317">
<ele>255.30</ele>
<time>2015-04-30T13:07:03Z</time>
</trkpt>
<trkpt lat="34.7527052" lon="32.9664776">
<ele>255.03</ele>
<time>2015-04-30T13:07:04Z</time>
</trkpt>
<trkpt lat="34.7526543" lon="32.9666213">
<ele>253.90</ele>
<time>2015-04-30T13:07:05Z</time>
</trkpt>
<trkpt lat="34.7525997" lon="32.9667660">
<ele>252.33</ele>
<time>2015-04-30T13:07:06Z</time>
</trkpt>
<trkpt lat="34.7525434" lon="32.9669066">
<ele>251.04</ele>
<time>2015-04-30T13:07:07Z</time>
</trkpt>
<trkpt lat="34.7524817" lon="32.9670499">
<ele>249.90</ele>
<time>2015-04-30T13:07:08Z</time>
</trkpt>
<trkpt lat="34.7524239" lon="32.9671898">
<ele>248.83</ele>
<time>2015-04-30T13:07:09Z</time>
</trkpt>
<trkpt lat="34.7523677" lon="32.9673259">
<ele>248.30</ele>
<time>2015-04-30T13:07:10Z</time>
</trkpt>
<trkpt lat="34.7523169" lon="32.9674681">
<ele>247.03</ele>
<time>2015-04-30T13:07:11Z</time>
</trkpt>
<trkpt lat="34.7522556" lon="32.9676069">
<ele>246.39</ele>
<time>2015-04-30T13:07:12Z</time>
</trkpt>
<trkpt lat="34.7522001" lon="32.9677466">
<ele>245.58</ele>
<time>2015-04-30T13:07:13Z</time>
</trkpt>
<trkpt lat="34.7521505" lon="32.9678888">
<ele>244.67</ele>
<time>2015-04-30T13:07:14Z</time>
</trkpt>
<trkpt lat="34.7520879" lon="32.9680287">
<ele>243.71</ele>
<time>2015-04-30T13:07:15Z</time>
</trkpt>
<trkpt lat="34.7520276" lon="32.9681708">
<ele>243.24</ele>
<time>2015-04-30T13:07:16Z</time>
</trkpt>
<trkpt lat="34.7519718" lon="32.9682960">
<ele>243.50</ele>
<time>2015-04-30T13:07:17Z</time>
</trkpt>
<trkpt lat="34.7519196" lon="32.9684222">
<ele>244.13</ele>
<time>2015-04-30T13:07:18Z</time>
</trkpt>
<trkpt lat="34.7518559" lon="32.9685452">
<ele>244.44</ele>
<time>2015-04-30T13:07:19Z</time>
</trkpt>
<trkpt lat="34.7517920" lon="32.9686736">
<ele>245.10</ele>
<time>2015-04-30T13:07:20Z</time>
</trkpt>
<trkpt lat="34.7517229" lon="32.9687879">
<ele>245.43</ele>
<time>2015-04-30T13:07:21Z</time>
</trkpt>
<trkpt lat="34.7516521" lon="32.9688893">
<ele>245.60</ele>
<time>2015-04-30T13:07:22Z</time>
</trkpt>
<trkpt lat="34.7515719" lon="32.9690017">
<ele>245.68</ele>
<time>2015-04-30T13:07:23Z</time>
</trkpt>
<trkpt lat="34.7514878" lon="32.9690924">
<ele>245.22</ele>
<time>2015-04-30T13:07:24Z</time>
</trkpt>
<trkpt lat="34.7514114" lon="32.9691906">
<ele>244.99</ele>
<time>2015-04-30T13:07:25Z</time>
</trkpt>
<trkpt lat="34.7513315" lon="32.9692749">
<ele>245.37</ele>
<time>2015-04-30T13:07:26Z</time>
</trkpt>
<trkpt lat="34.7512473" lon="32.9693706">
<ele>246.07</ele>
<time>2015-04-30T13:07:27Z</time>
</trkpt>
<trkpt lat="34.7511616" lon="32.9694662">
<ele>246.41</ele>
<time>2015-04-30T13:07:28Z</time>
</trkpt>
<trkpt lat="34.7510750" lon="32.9695621">
<ele>247.09</ele>
<time>2015-04-30T13:07:29Z</time>
</trkpt>
<trkpt lat="34.7510026" lon="32.9696477">
<ele>247.42</ele>
<time>2015-04-30T13:07:30Z</time>
</trkpt>
<trkpt lat="34.7509284" lon="32.9697305">
<ele>247.09</ele>
<time>2015-04-30T13:07:31Z</time>
</trkpt>
<trkpt lat="34.7508561" lon="32.9698150">
<ele>247.43</ele>
<time>2015-04-30T13:07:32Z</time>
</trkpt>
<trkpt lat="34.7507794" lon="32.9699051">
<ele>247.59</ele>
<time>2015-04-30T13:07:33Z</time>
</trkpt>
<trkpt lat="34.7507084" lon="32.9699871">
<ele>247.18</ele>
<time>2015-04-30T13:07:34Z</time>
</trkpt>
<trkpt lat="34.7506354" lon="32.9700703">
<ele>246.97</ele>
<time>2015-04-30T13:07:35Z</time>
</trkpt>
<trkpt lat="34.7505648" lon="32.9701499">
<ele>246.36</ele>
<time>2015-04-30T13:07:36Z</time>
</trkpt>
<trkpt lat="34.7504943" lon="32.9702234">
<ele>245.56</ele>
<time>2015-04-30T13:07:37Z</time>
</trkpt>
<trkpt lat="34.7504328" lon="32.9702857">
<ele>244.66</ele>
<time>2015-04-30T13:07:38Z</time>
</trkpt>
<trkpt lat="34.7503602" lon="32.9703599">
<ele>244.21</ele>
<time>2015-04-30T13:07:39Z</time>
</trkpt>
<trkpt lat="34.7502852" lon="32.9704391">
<ele>244.49</ele>
<time>2015-04-30T13:07:40Z</time>
</trkpt>
<trkpt lat="34.7502111" lon="32.9705128">
<ele>245.12</ele>
<time>2015-04-30T13:07:41Z</time>
</trkpt>
<trkpt lat="34.7501465" lon="32.9705859">
<ele>244.94</ele>
<time>2015-04-30T13:07:42Z</time>
</trkpt>
<trkpt lat="34.7500822" lon="32.9706611">
<ele>244.35</ele>
<time>2015-04-30T13:07:43Z</time>
</trkpt>
<trkpt lat="34.7500081" lon="32.9707396">
<ele>243.56</ele>
<time>2015-04-30T13:07:44Z</time>
</trkpt>
<trkpt lat="34.7499397" lon="32.9708182">
<ele>243.66</ele>
<time>2015-04-30T13:07:45Z</time>
</trkpt>
<trkpt lat="34.7498745" lon="32.9708972">
<ele>243.71</ele>
<time>2015-04-30T13:07:46Z</time>
</trkpt>
<trkpt lat="34.7498031" lon="32.9709733">
<ele>243.23</ele>
<time>2015-04-30T13:07:47Z</time>
</trkpt>
<trkpt lat="34.7497285" lon="32.9710614">
<ele>243.00</ele>
<time>2015-04-30T13:07:48Z</time>
</trkpt>
<trkpt lat="34.7496584" lon="32.9711445">
<ele>242.38</ele>
<time>2015-04-30T13:07:49Z</time>
</trkpt>
<trkpt lat="34.7495902" lon="32.9712209">
<ele>242.07</ele>
<time>2015-04-30T13:07:50Z</time>
</trkpt>
<trkpt lat="34.7495090" lon="32.9713020">
<ele>241.41</ele>
<time>2015-04-30T13:07:51Z</time>
</trkpt>
<trkpt lat="34.7494294" lon="32.9713818">
<ele>241.09</ele>
<time>2015-04-30T13:07:52Z</time>
</trkpt>
<trkpt lat="34.7493550" lon="32.9714622">
<ele>240.92</ele>
<time>2015-04-30T13:07:53Z</time>
</trkpt>
<trkpt lat="34.7492766" lon="32.9715403">
<ele>241.34</ele>
<time>2015-04-30T13:07:54Z</time>
</trkpt>
<trkpt lat="34.7492045" lon="32.9716146">
<ele>241.55</ele>
<time>2015-04-30T13:07:55Z</time>
</trkpt>
<trkpt lat="34.7491227" lon="32.9717028">
<ele>241.66</ele>
<time>2015-04-30T13:07:56Z</time>
</trkpt>
<trkpt lat="34.7490399" lon="32.9717848">
<ele>241.71</ele>
<time>2015-04-30T13:07:57Z</time>
</trkpt>
<trkpt lat="34.7489677" lon="32.9718709">
<ele>241.73</ele>
<time>2015-04-30T13:07:58Z</time>
</trkpt>
<trkpt lat="34.7488818" lon="32.9719598">
<ele>240.75</ele>
<time>2015-04-30T13:07:59Z</time>
</trkpt>
<trkpt lat="34.7487876" lon="32.9720552">
<ele>240.25</ele>
<time>2015-04-30T13:08:00Z</time>
</trkpt>
<trkpt lat="34.7487018" lon="32.9721447">
<ele>240.01</ele>
<time>2015-04-30T13:08:01Z</time>
</trkpt>
<trkpt lat="34.7486168" lon="32.9722513">
<ele>239.38</ele>
<time>2015-04-30T13:08:02Z</time>
</trkpt>
<trkpt lat="34.7485351" lon="32.9723444">
<ele>238.57</ele>
<time>2015-04-30T13:08:03Z</time>
</trkpt>
<trkpt lat="34.7484593" lon="32.9724512">
<ele>235.67</ele>
<time>2015-04-30T13:08:04Z</time>
</trkpt>
<trkpt lat="34.7483601" lon="32.9725420">
<ele>235.21</ele>
<time>2015-04-30T13:08:05Z</time>
</trkpt>
<trkpt lat="34.7482774" lon="32.9726314">
<ele>234.99</ele>
<time>2015-04-30T13:08:06Z</time>
</trkpt>
<trkpt lat="34.7481915" lon="32.9727204">
<ele>234.37</ele>
<time>2015-04-30T13:08:07Z</time>
</trkpt>
<trkpt lat="34.7480983" lon="32.9728092">
<ele>234.07</ele>
<time>2015-04-30T13:08:08Z</time>
</trkpt>
<trkpt lat="34.7480054" lon="32.9729041">
<ele>233.91</ele>
<time>2015-04-30T13:08:09Z</time>
</trkpt>
<trkpt lat="34.7479158" lon="32.9729968">
<ele>233.84</ele>
<time>2015-04-30T13:08:10Z</time>
</trkpt>
<trkpt lat="34.7478288" lon="32.9730959">
<ele>233.30</ele>
<time>2015-04-30T13:08:11Z</time>
</trkpt>
<trkpt lat="34.7477328" lon="32.9732003">
<ele>233.03</ele>
<time>2015-04-30T13:08:12Z</time>
</trkpt>
<trkpt lat="34.7476374" lon="32.9733057">
<ele>232.39</ele>
<time>2015-04-30T13:08:13Z</time>
</trkpt>
<trkpt lat="34.7475358" lon="32.9734112">
<ele>232.08</ele>
<time>2015-04-30T13:08:14Z</time>
</trkpt>
<trkpt lat="34.7474426" lon="32.9735165">
<ele>230.92</ele>
<time>2015-04-30T13:08:15Z</time>
</trkpt>
<trkpt lat="34.7473407" lon="32.9736229">
<ele>230.34</ele>
<time>2015-04-30T13:08:16Z</time>
</trkpt>
<trkpt lat="34.7472496" lon="32.9737148">
<ele>229.55</ele>
<time>2015-04-30T13:08:17Z</time>
</trkpt>
<trkpt lat="34.7471718" lon="32.9738375">
<ele>227.15</ele>
<time>2015-04-30T13:08:18Z</time>
</trkpt>
<trkpt lat="34.7470725" lon="32.9739418">
<ele>225.46</ele>
<time>2015-04-30T13:08:19Z</time>
</trkpt>
<trkpt lat="34.7469659" lon="32.9740564">
<ele>224.11</ele>
<time>2015-04-30T13:08:20Z</time>
</trkpt>
<trkpt lat="34.7468600" lon="32.9741680">
<ele>223.43</ele>
<time>2015-04-30T13:08:21Z</time>
</trkpt>
<trkpt lat="34.7467709" lon="32.9742837">
<ele>222.10</ele>
<time>2015-04-30T13:08:22Z</time>
</trkpt>
<trkpt lat="34.7466776" lon="32.9744053">
<ele>220.93</ele>
<time>2015-04-30T13:08:23Z</time>
</trkpt>
<trkpt lat="34.7465767" lon="32.9745297">
<ele>220.34</ele>
<time>2015-04-30T13:08:24Z</time>
</trkpt>
<trkpt lat="34.7464963" lon="32.9746542">
<ele>219.05</ele>
<time>2015-04-30T13:08:25Z</time>
</trkpt>
<trkpt lat="34.7464047" lon="32.9747651">
<ele>218.91</ele>
<time>2015-04-30T13:08:26Z</time>
</trkpt>
<trkpt lat="34.7463225" lon="32.9748758">
<ele>218.83</ele>
<time>2015-04-30T13:08:27Z</time>
</trkpt>
<trkpt lat="34.7462402" lon="32.9749933">
<ele>218.80</ele>
<time>2015-04-30T13:08:28Z</time>
</trkpt>
<trkpt lat="34.7461740" lon="32.9751066">
<ele>218.28</ele>
<time>2015-04-30T13:08:29Z</time>
</trkpt>
<trkpt lat="34.7461013" lon="32.9752181">
<ele>218.02</ele>
<time>2015-04-30T13:08:30Z</time>
</trkpt>
<trkpt lat="34.7460295" lon="32.9753258">
<ele>217.89</ele>
<time>2015-04-30T13:08:31Z</time>
</trkpt>
<trkpt lat="34.7459721" lon="32.9754321">
<ele>217.32</ele>
<time>2015-04-30T13:08:32Z</time>
</trkpt>
<trkpt lat="34.7459364" lon="32.9755461">
<ele>215.54</ele>
<time>2015-04-30T13:08:33Z</time>
</trkpt>
<trkpt lat="34.7458904" lon="32.9756584">
<ele>214.15</ele>
<time>2015-04-30T13:08:34Z</time>
</trkpt>
<trkpt lat="34.7458434" lon="32.9757623">
<ele>213.46</ele>
<time>2015-04-30T13:08:35Z</time>
</trkpt>
<trkpt lat="34.7458052" lon="32.9758718">
<ele>212.61</ele>
<time>2015-04-30T13:08:36Z</time>
</trkpt>
<trkpt lat="34.7457646" lon="32.9759645">
<ele>212.18</ele>
<time>2015-04-30T13:08:37Z</time>
</trkpt>
<trkpt lat="34.7457254" lon="32.9760476">
<ele>211.97</ele>
<time>2015-04-30T13:08:38Z</time>
</trkpt>
<trkpt lat="34.7456946" lon="32.9761380">
<ele>212.37</ele>
<time>2015-04-30T13:08:39Z</time>
</trkpt>
<trkpt lat="34.7456608" lon="32.9762190">
<ele>212.06</ele>
<time>2015-04-30T13:08:40Z</time>
</trkpt>
<trkpt lat="34.7456300" lon="32.9762997">
<ele>211.91</ele>
<time>2015-04-30T13:08:41Z</time>
</trkpt>
<trkpt lat="34.7456088" lon="32.9763757">
<ele>211.84</ele>
<time>2015-04-30T13:08:42Z</time>
</trkpt>
<trkpt lat="34.7455840" lon="32.9764388">
<ele>213.30</ele>
<time>2015-04-30T13:08:43Z</time>
</trkpt>
<trkpt lat="34.7455638" lon="32.9764940">
<ele>213.53</ele>
<time>2015-04-30T13:08:44Z</time>
</trkpt>
<trkpt lat="34.7455397" lon="32.9765540">
<ele>214.14</ele>
<time>2015-04-30T13:08:45Z</time>
</trkpt>
<trkpt lat="34.7455186" lon="32.9766105">
<ele>214.45</ele>
<time>2015-04-30T13:08:46Z</time>
</trkpt>
<trkpt lat="34.7454996" lon="32.9766662">
<ele>214.61</ele>
<time>2015-04-30T13:08:47Z</time>
</trkpt>
<trkpt lat="34.7454756" lon="32.9767516">
<ele>215.22</ele>
<time>2015-04-30T13:08:49Z</time>
</trkpt>
<trkpt lat="34.7454605" lon="32.9768505">
<ele>214.38</ele>
<time>2015-04-30T13:08:51Z</time>
</trkpt>
<trkpt lat="34.7454517" lon="32.9769192">
<ele>213.91</ele>
<time>2015-04-30T13:08:53Z</time>
</trkpt>
<trkpt lat="34.7454373" lon="32.9769812">
<ele>213.30</ele>
<time>2015-04-30T13:08:55Z</time>
</trkpt>
<trkpt lat="34.7454204" lon="32.9770607">
<ele>211.83</ele>
<time>2015-04-30T13:08:58Z</time>
</trkpt>
<trkpt lat="34.7454099" lon="32.9771191">
<ele>210.28</ele>
<time>2015-04-30T13:09:00Z</time>
</trkpt>
<trkpt lat="34.7453958" lon="32.9771951">
<ele>208.70</ele>
<time>2015-04-30T13:09:03Z</time>
</trkpt>
<trkpt lat="34.7453813" lon="32.9772504">
<ele>209.99</ele>
<time>2015-04-30T13:09:05Z</time>
</trkpt>
<trkpt lat="34.7453670" lon="32.9773072">
<ele>212.32</ele>
<time>2015-04-30T13:09:07Z</time>
</trkpt>
<trkpt lat="34.7453556" lon="32.9773656">
<ele>213.15</ele>
<time>2015-04-30T13:09:09Z</time>
</trkpt>
<trkpt lat="34.7453475" lon="32.9774252">
<ele>212.61</ele>
<time>2015-04-30T13:09:11Z</time>
</trkpt>
<trkpt lat="34.7453437" lon="32.9774852">
<ele>211.72</ele>
<time>2015-04-30T13:09:13Z</time>
</trkpt>
<trkpt lat="34.7453360" lon="32.9775410">
<ele>211.75</ele>
<time>2015-04-30T13:09:15Z</time>
</trkpt>
<trkpt lat="34.7453255" lon="32.9775952">
<ele>211.01</ele>
<time>2015-04-30T13:09:17Z</time>
</trkpt>
<trkpt lat="34.7453073" lon="32.9776633">
<ele>209.17</ele>
<time>2015-04-30T13:09:20Z</time>
</trkpt>
<trkpt lat="34.7452970" lon="32.9777280">
<ele>208.31</ele>
<time>2015-04-30T13:09:23Z</time>
</trkpt>
<trkpt lat="34.7452842" lon="32.9777881">
<ele>207.83</ele>
<time>2015-04-30T13:09:26Z</time>
</trkpt>
<trkpt lat="34.7452765" lon="32.9778493">
<ele>208.14</ele>
<time>2015-04-30T13:09:29Z</time>
</trkpt>
<trkpt lat="34.7452707" lon="32.9779181">
<ele>207.03</ele>
<time>2015-04-30T13:09:33Z</time>
</trkpt>
<trkpt lat="34.7452600" lon="32.9779730">
<ele>208.17</ele>
<time>2015-04-30T13:09:36Z</time>
</trkpt>
<trkpt lat="34.7452509" lon="32.9780478">
<ele>209.35</ele>
<time>2015-04-30T13:09:40Z</time>
</trkpt>
<trkpt lat="34.7452453" lon="32.9781079">
<ele>208.46</ele>
<time>2015-04-30T13:09:43Z</time>
</trkpt>
<trkpt lat="34.7452285" lon="32.9781722">
<ele>210.10</ele>
<time>2015-04-30T13:09:46Z</time>
</trkpt>
<trkpt lat="34.7452177" lon="32.9782382">
<ele>210.68</ele>
<time>2015-04-30T13:09:49Z</time>
</trkpt>
<trkpt lat="34.7452084" lon="32.9783054">
<ele>210.75</ele>
<time>2015-04-30T13:09:52Z</time>
</trkpt>
<trkpt lat="34.7451932" lon="32.9783733">
<ele>210.26</ele>
<time>2015-04-30T13:09:55Z</time>
</trkpt>
<trkpt lat="34.7451701" lon="32.9784361">
<ele>210.57</ele>
<time>2015-04-30T13:09:58Z</time>
</trkpt>
<trkpt lat="34.7451548" lon="32.9784994">
<ele>209.99</ele>
<time>2015-04-30T13:10:01Z</time>
</trkpt>
<trkpt lat="34.7451535" lon="32.9785653">
<ele>208.41</ele>
<time>2015-04-30T13:10:04Z</time>
</trkpt>
<trkpt lat="34.7451562" lon="32.9786348">
<ele>207.09</ele>
<time>2015-04-30T13:10:07Z</time>
</trkpt>
<trkpt lat="34.7451495" lon="32.9787010">
<ele>206.43</ele>
<time>2015-04-30T13:10:10Z</time>
</trkpt>
<trkpt lat="34.7451344" lon="32.9787661">
<ele>207.59</ele>
<time>2015-04-30T13:10:13Z</time>
</trkpt>
<trkpt lat="34.7451251" lon="32.9788334">
<ele>207.24</ele>
<time>2015-04-30T13:10:16Z</time>
</trkpt>
<trkpt lat="34.7451163" lon="32.9788947">
<ele>206.69</ele>
<time>2015-04-30T13:10:19Z</time>
</trkpt>
<trkpt lat="34.7451082" lon="32.9789576">
<ele>207.63</ele>
<time>2015-04-30T13:10:22Z</time>
</trkpt>
<trkpt lat="34.7450989" lon="32.9790226">
<ele>208.49</ele>
<time>2015-04-30T13:10:25Z</time>
</trkpt>
<trkpt lat="34.7450854" lon="32.9790887">
<ele>210.35</ele>
<time>2015-04-30T13:10:28Z</time>
</trkpt>
<trkpt lat="34.7450681" lon="32.9791506">
<ele>210.71</ele>
<time>2015-04-30T13:10:31Z</time>
</trkpt>
<trkpt lat="34.7450518" lon="32.9792140">
<ele>212.00</ele>
<time>2015-04-30T13:10:34Z</time>
</trkpt>
<trkpt lat="34.7450450" lon="32.9792799">
<ele>211.42</ele>
<time>2015-04-30T13:10:37Z</time>
</trkpt>
<trkpt lat="34.7450335" lon="32.9793455">
<ele>212.72</ele>
<time>2015-04-30T13:10:40Z</time>
</trkpt>
<trkpt lat="34.7450201" lon="32.9794090">
<ele>216.00</ele>
<time>2015-04-30T13:10:43Z</time>
</trkpt>
<trkpt lat="34.7450071" lon="32.9794781">
<ele>216.79</ele>
<time>2015-04-30T13:10:46Z</time>
</trkpt>
<trkpt lat="34.7449977" lon="32.9795537">
<ele>216.51</ele>
<time>2015-04-30T13:10:49Z</time>
</trkpt>
<trkpt lat="34.7449900" lon="32.9796310">
<ele>215.10</ele>
<time>2015-04-30T13:10:52Z</time>
</trkpt>
<trkpt lat="34.7449805" lon="32.9797097">
<ele>215.55</ele>
<time>2015-04-30T13:10:55Z</time>
</trkpt>
<trkpt lat="34.7449752" lon="32.9797860">
<ele>211.86</ele>
<time>2015-04-30T13:10:58Z</time>
</trkpt>
<trkpt lat="34.7449634" lon="32.9798619">
<ele>210.77</ele>
<time>2015-04-30T13:11:01Z</time>
</trkpt>
<trkpt lat="34.7449533" lon="32.9799257">
<ele>212.51</ele>
<time>2015-04-30T13:11:03Z</time>
</trkpt>
<trkpt lat="34.7449444" lon="32.9799894">
<ele>212.95</ele>
<time>2015-04-30T13:11:05Z</time>
</trkpt>
<trkpt lat="34.7449334" lon="32.9800455">
<ele>212.31</ele>
<time>2015-04-30T13:11:07Z</time>
</trkpt>
<trkpt lat="34.7449204" lon="32.9801229">
<ele>212.58</ele>
<time>2015-04-30T13:11:10Z</time>
</trkpt>
<trkpt lat="34.7449133" lon="32.9802066">
<ele>211.24</ele>
<time>2015-04-30T13:11:13Z</time>
</trkpt>
<trkpt lat="34.7449072" lon="32.9802619">
<ele>211.88</ele>
<time>2015-04-30T13:11:15Z</time>
</trkpt>
<trkpt lat="34.7448984" lon="32.9803205">
<ele>213.29</ele>
<time>2015-04-30T13:11:17Z</time>
</trkpt>
<trkpt lat="34.7448870" lon="32.9803794">
<ele>214.39</ele>
<time>2015-04-30T13:11:19Z</time>
</trkpt>
<trkpt lat="34.7448752" lon="32.9804435">
<ele>215.42</ele>
<time>2015-04-30T13:11:21Z</time>
</trkpt>
<trkpt lat="34.7448636" lon="32.9805025">
<ele>216.42</ele>
<time>2015-04-30T13:11:23Z</time>
</trkpt>
<trkpt lat="34.7448516" lon="32.9805595">
<ele>217.18</ele>
<time>2015-04-30T13:11:25Z</time>
</trkpt>
<trkpt lat="34.7448407" lon="32.9806152">
<ele>217.61</ele>
<time>2015-04-30T13:11:27Z</time>
</trkpt>
<trkpt lat="34.7448315" lon="32.9806715">
<ele>217.97</ele>
<time>2015-04-30T13:11:29Z</time>
</trkpt>
<trkpt lat="34.7448207" lon="32.9807307">
<ele>218.06</ele>
<time>2015-04-30T13:11:31Z</time>
</trkpt>
<trkpt lat="34.7448128" lon="32.9807878">
<ele>218.59</ele>
<time>2015-04-30T13:11:33Z</time>
</trkpt>
<trkpt lat="34.7448000" lon="32.9808605">
<ele>218.74</ele>
<time>2015-04-30T13:11:36Z</time>
</trkpt>
<trkpt lat="34.7447912" lon="32.9809318">
<ele>221.26</ele>
<time>2015-04-30T13:11:39Z</time>
</trkpt>
<trkpt lat="34.7447881" lon="32.9809969">
<ele>222.20</ele>
<time>2015-04-30T13:11:42Z</time>
</trkpt>
<trkpt lat="34.7447844" lon="32.9810747">
<ele>224.06</ele>
<time>2015-04-30T13:11:45Z</time>
</trkpt>
<trkpt lat="34.7447757" lon="32.9811313">
<ele>224.59</ele>
<time>2015-04-30T13:11:47Z</time>
</trkpt>
<trkpt lat="34.7447653" lon="32.9811939">
<ele>225.47</ele>
<time>2015-04-30T13:11:49Z</time>
</trkpt>
<trkpt lat="34.7447537" lon="32.9812715">
<ele>226.19</ele>
<time>2015-04-30T13:11:51Z</time>
</trkpt>
<trkpt lat="34.7447420" lon="32.9813568">
<ele>226.87</ele>
<time>2015-04-30T13:11:53Z</time>
</trkpt>
<trkpt lat="34.7447276" lon="32.9814423">
<ele>227.54</ele>
<time>2015-04-30T13:11:55Z</time>
</trkpt>
<trkpt lat="34.7447097" lon="32.9815288">
<ele>228.20</ele>
<time>2015-04-30T13:11:57Z</time>
</trkpt>
<trkpt lat="34.7446954" lon="32.9816056">
<ele>228.62</ele>
<time>2015-04-30T13:11:59Z</time>
</trkpt>
<trkpt lat="34.7446869" lon="32.9816793">
<ele>229.98</ele>
<time>2015-04-30T13:12:01Z</time>
</trkpt>
<trkpt lat="34.7446758" lon="32.9817430">
<ele>231.31</ele>
<time>2015-04-30T13:12:03Z</time>
</trkpt>
<trkpt lat="34.7446636" lon="32.9818001">
<ele>231.65</ele>
<time>2015-04-30T13:12:05Z</time>
</trkpt>
<trkpt lat="34.7446562" lon="32.9818571">
<ele>230.98</ele>
<time>2015-04-30T13:12:07Z</time>
</trkpt>
<trkpt lat="34.7446502" lon="32.9819233">
<ele>232.07</ele>
<time>2015-04-30T13:12:09Z</time>
</trkpt>
<trkpt lat="34.7446425" lon="32.9819959">
<ele>233.09</ele>
<time>2015-04-30T13:12:11Z</time>
</trkpt>
<trkpt lat="34.7446301" lon="32.9820703">
<ele>233.84</ele>
<time>2015-04-30T13:12:13Z</time>
</trkpt>
<trkpt lat="34.7446164" lon="32.9821377">
<ele>235.78</ele>
<time>2015-04-30T13:12:15Z</time>
</trkpt>
<trkpt lat="34.7446001" lon="32.9822133">
<ele>235.02</ele>
<time>2015-04-30T13:12:17Z</time>
</trkpt>
<trkpt lat="34.7445814" lon="32.9822896">
<ele>234.57</ele>
<time>2015-04-30T13:12:19Z</time>
</trkpt>
<trkpt lat="34.7445605" lon="32.9823673">
<ele>235.21</ele>
<time>2015-04-30T13:12:21Z</time>
</trkpt>
<trkpt lat="34.7445398" lon="32.9824438">
<ele>235.37</ele>
<time>2015-04-30T13:12:23Z</time>
</trkpt>
<trkpt lat="34.7445195" lon="32.9825308">
<ele>235.41</ele>
<time>2015-04-30T13:12:25Z</time>
</trkpt>
<trkpt lat="34.7445010" lon="32.9826193">
<ele>235.67</ele>
<time>2015-04-30T13:12:27Z</time>
</trkpt>
<trkpt lat="34.7444806" lon="32.9827074">
<ele>235.49</ele>
<time>2015-04-30T13:12:29Z</time>
</trkpt>
<trkpt lat="34.7444607" lon="32.9827923">
<ele>235.69</ele>
<time>2015-04-30T13:12:31Z</time>
</trkpt>
<trkpt lat="34.7444421" lon="32.9828762">
<ele>235.24</ele>
<time>2015-04-30T13:12:33Z</time>
</trkpt>
<trkpt lat="34.7444220" lon="32.9829590">
<ele>235.63</ele>
<time>2015-04-30T13:12:35Z</time>
</trkpt>
<trkpt lat="34.7443965" lon="32.9830414">
<ele>235.48</ele>
<time>2015-04-30T13:12:37Z</time>
</trkpt>
<trkpt lat="34.7443689" lon="32.9831219">
<ele>234.94</ele>
<time>2015-04-30T13:12:39Z</time>
</trkpt>
<trkpt lat="34.7443392" lon="32.9832196">
<ele>234.30</ele>
<time>2015-04-30T13:12:41Z</time>
</trkpt>
<trkpt lat="34.7443078" lon="32.9833191">
<ele>233.90</ele>
<time>2015-04-30T13:12:43Z</time>
</trkpt>
<trkpt lat="34.7442905" lon="32.9833704">
<ele>233.83</ele>
<time>2015-04-30T13:12:44Z</time>
</trkpt>
<trkpt lat="34.7442727" lon="32.9834213">
<ele>233.79</ele>
<time>2015-04-30T13:12:45Z</time>
</trkpt>
<trkpt lat="34.7442363" lon="32.9835219">
<ele>233.77</ele>
<time>2015-04-30T13:12:47Z</time>
</trkpt>
<trkpt lat="34.7441899" lon="32.9836451">
<ele>232.76</ele>
<time>2015-04-30T13:12:49Z</time>
</trkpt>
<trkpt lat="34.7441502" lon="32.9837448">
<ele>232.01</ele>
<time>2015-04-30T13:12:51Z</time>
</trkpt>
<trkpt lat="34.7441280" lon="32.9837969">
<ele>232.39</ele>
<time>2015-04-30T13:12:52Z</time>
</trkpt>
<trkpt lat="34.7440992" lon="32.9838506">
<ele>232.07</ele>
<time>2015-04-30T13:12:53Z</time>
</trkpt>
<trkpt lat="34.7440722" lon="32.9839006">
<ele>231.42</ele>
<time>2015-04-30T13:12:54Z</time>
</trkpt>
<trkpt lat="34.7440485" lon="32.9839536">
<ele>230.59</ele>
<time>2015-04-30T13:12:55Z</time>
</trkpt>
<trkpt lat="34.7440217" lon="32.9840141">
<ele>230.17</ele>
<time>2015-04-30T13:12:56Z</time>
</trkpt>
<trkpt lat="34.7439938" lon="32.9840668">
<ele>229.97</ele>
<time>2015-04-30T13:12:57Z</time>
</trkpt>
<trkpt lat="34.7439692" lon="32.9841185">
<ele>230.36</ele>
<time>2015-04-30T13:12:58Z</time>
</trkpt>
<trkpt lat="34.7439356" lon="32.9841815">
<ele>231.06</ele>
<time>2015-04-30T13:12:59Z</time>
</trkpt>
<trkpt lat="34.7439016" lon="32.9842381">
<ele>231.41</ele>
<time>2015-04-30T13:13:00Z</time>
</trkpt>
<trkpt lat="34.7438751" lon="32.9842917">
<ele>232.09</ele>
<time>2015-04-30T13:13:01Z</time>
</trkpt>
<trkpt lat="34.7438387" lon="32.9843453">
<ele>232.42</ele>
<time>2015-04-30T13:13:02Z</time>
</trkpt>
<trkpt lat="34.7437980" lon="32.9843965">
<ele>232.59</ele>
<time>2015-04-30T13:13:03Z</time>
</trkpt>
<trkpt lat="34.7437558" lon="32.9844522">
<ele>232.18</ele>
<time>2015-04-30T13:13:04Z</time>
</trkpt>
<trkpt lat="34.7437153" lon="32.9845097">
<ele>231.97</ele>
<time>2015-04-30T13:13:05Z</time>
</trkpt>
<trkpt lat="34.7436723" lon="32.9845636">
<ele>231.86</ele>
<time>2015-04-30T13:13:06Z</time>
</trkpt>
<trkpt lat="34.7436274" lon="32.9846175">
<ele>232.31</ele>
<time>2015-04-30T13:13:07Z</time>
</trkpt>
<trkpt lat="34.7435822" lon="32.9846645">
<ele>232.54</ele>
<time>2015-04-30T13:13:08Z</time>
</trkpt>
<trkpt lat="34.7435376" lon="32.9847173">
<ele>232.65</ele>
<time>2015-04-30T13:13:09Z</time>
</trkpt>
<trkpt lat="34.7435008" lon="32.9847550">
<ele>232.20</ele>
<time>2015-04-30T13:13:10Z</time>
</trkpt>
<trkpt lat="34.7434611" lon="32.9848028">
<ele>231.98</ele>
<time>2015-04-30T13:13:11Z</time>
</trkpt>
<trkpt lat="34.7434126" lon="32.9848544">
<ele>232.37</ele>
<time>2015-04-30T13:13:12Z</time>
</trkpt>
<trkpt lat="34.7433707" lon="32.9848926">
<ele>232.07</ele>
<time>2015-04-30T13:13:13Z</time>
</trkpt>
<trkpt lat="34.7433201" lon="32.9849381">
<ele>232.41</ele>
<time>2015-04-30T13:13:14Z</time>
</trkpt>
<trkpt lat="34.7432775" lon="32.9849792">
<ele>232.59</ele>
<time>2015-04-30T13:13:15Z</time>
</trkpt>
<trkpt lat="34.7432222" lon="32.9850232">
<ele>232.67</ele>
<time>2015-04-30T13:13:16Z</time>
</trkpt>
<trkpt lat="34.7431773" lon="32.9850608">
<ele>232.72</ele>
<time>2015-04-30T13:13:17Z</time>
</trkpt>
<trkpt lat="34.7431255" lon="32.9851016">
<ele>232.24</ele>
<time>2015-04-30T13:13:18Z</time>
</trkpt>
<trkpt lat="34.7430724" lon="32.9851404">
<ele>232.00</ele>
<time>2015-04-30T13:13:19Z</time>
</trkpt>
<trkpt lat="34.7430192" lon="32.9851778">
<ele>231.38</ele>
<time>2015-04-30T13:13:20Z</time>
</trkpt>
<trkpt lat="34.7429707" lon="32.9852095">
<ele>230.57</ele>
<time>2015-04-30T13:13:21Z</time>
</trkpt>
<trkpt lat="34.7429243" lon="32.9852390">
<ele>230.16</ele>
<time>2015-04-30T13:13:22Z</time>
</trkpt>
<trkpt lat="34.7428821" lon="32.9852644">
<ele>229.96</ele>
<time>2015-04-30T13:13:23Z</time>
</trkpt>
<trkpt lat="34.7428398" lon="32.9853026">
<ele>229.06</ele>
<time>2015-04-30T13:13:25Z</time>
</trkpt>
<trkpt lat="34.7428807" lon="32.9853322">
<ele>224.77</ele>
<time>2015-04-30T13:13:32Z</time>
</trkpt>
<trkpt lat="34.7429305" lon="32.9853482">
<ele>223.39</ele>
<time>2015-04-30T13:13:35Z</time>
</trkpt>
<trkpt lat="34.7429893" lon="32.9853427">
<ele>222.96</ele>
<time>2015-04-30T13:13:38Z</time>
</trkpt>
<trkpt lat="34.7430368" lon="32.9853326">
<ele>221.31</ele>
<time>2015-04-30T13:13:40Z</time>
</trkpt>
<trkpt lat="34.7430815" lon="32.9853141">
<ele>220.15</ele>
<time>2015-04-30T13:13:42Z</time>
</trkpt>
<trkpt lat="34.7431277" lon="32.9852910">
<ele>220.86</ele>
<time>2015-04-30T13:13:44Z</time>
</trkpt>
<trkpt lat="34.7431778" lon="32.9852748">
<ele>222.03</ele>
<time>2015-04-30T13:13:46Z</time>
</trkpt>
<trkpt lat="34.7432244" lon="32.9852614">
<ele>222.08</ele>
<time>2015-04-30T13:13:48Z</time>
</trkpt>
<trkpt lat="34.7431709" lon="32.9852617">
<ele>225.51</ele>
<time>2015-04-30T13:17:04Z</time>
</trkpt>
<trkpt lat="34.7431090" lon="32.9852834">
<ele>225.70</ele>
<time>2015-04-30T13:17:06Z</time>
</trkpt>
<trkpt lat="34.7430357" lon="32.9853106">
<ele>225.99</ele>
<time>2015-04-30T13:17:08Z</time>
</trkpt>
<trkpt lat="34.7429665" lon="32.9853280">
<ele>224.82</ele>
<time>2015-04-30T13:17:10Z</time>
</trkpt>
<trkpt lat="34.7428882" lon="32.9853392">
<ele>223.02</ele>
<time>2015-04-30T13:17:12Z</time>
</trkpt>
<trkpt lat="34.7428200" lon="32.9853414">
<ele>222.83</ele>
<time>2015-04-30T13:17:14Z</time>
</trkpt>
<trkpt lat="34.7427598" lon="32.9853306">
<ele>222.28</ele>
<time>2015-04-30T13:17:16Z</time>
</trkpt>
<trkpt lat="34.7427011" lon="32.9853316">
<ele>222.39</ele>
<time>2015-04-30T13:17:18Z</time>
</trkpt>
<trkpt lat="34.7426398" lon="32.9853602">
<ele>222.42</ele>
<time>2015-04-30T13:17:20Z</time>
</trkpt>
<trkpt lat="34.7425764" lon="32.9853973">
<ele>222.67</ele>
<time>2015-04-30T13:17:22Z</time>
</trkpt>
<trkpt lat="34.7425044" lon="32.9854341">
<ele>222.24</ele>
<time>2015-04-30T13:17:24Z</time>
</trkpt>
<trkpt lat="34.7424370" lon="32.9854634">
<ele>222.00</ele>
<time>2015-04-30T13:17:25Z</time>
</trkpt>
<trkpt lat="34.7423936" lon="32.9854865">
<ele>221.88</ele>
<time>2015-04-30T13:17:26Z</time>
</trkpt>
<trkpt lat="34.7423508" lon="32.9855056">
<ele>221.82</ele>
<time>2015-04-30T13:17:27Z</time>
</trkpt>
<trkpt lat="34.7422644" lon="32.9855332">
<ele>222.52</ele>
<time>2015-04-30T13:17:29Z</time>
</trkpt>
<trkpt lat="34.7422162" lon="32.9855455">
<ele>222.64</ele>
<time>2015-04-30T13:17:30Z</time>
</trkpt>
<trkpt lat="34.7421643" lon="32.9855572">
<ele>223.20</ele>
<time>2015-04-30T13:17:31Z</time>
</trkpt>
<trkpt lat="34.7421104" lon="32.9855751">
<ele>223.48</ele>
<time>2015-04-30T13:17:32Z</time>
</trkpt>
<trkpt lat="34.7420562" lon="32.9855910">
<ele>224.12</ele>
<time>2015-04-30T13:17:33Z</time>
</trkpt>
<trkpt lat="34.7420022" lon="32.9856054">
<ele>224.44</ele>
<time>2015-04-30T13:17:34Z</time>
</trkpt>
<trkpt lat="34.7419478" lon="32.9856198">
<ele>224.60</ele>
<time>2015-04-30T13:17:35Z</time>
</trkpt>
<trkpt lat="34.7418889" lon="32.9856328">
<ele>224.18</ele>
<time>2015-04-30T13:17:36Z</time>
</trkpt>
<trkpt lat="34.7418345" lon="32.9856386">
<ele>223.97</ele>
<time>2015-04-30T13:17:37Z</time>
</trkpt>
<trkpt lat="34.7417779" lon="32.9856491">
<ele>224.37</ele>
<time>2015-04-30T13:17:38Z</time>
</trkpt>
<trkpt lat="34.7417177" lon="32.9856617">
<ele>224.06</ele>
<time>2015-04-30T13:17:39Z</time>
</trkpt>
<trkpt lat="34.7416589" lon="32.9856707">
<ele>224.41</ele>
<time>2015-04-30T13:17:40Z</time>
</trkpt>
<trkpt lat="34.7416039" lon="32.9856778">
<ele>224.09</ele>
<time>2015-04-30T13:17:41Z</time>
</trkpt>
<trkpt lat="34.7415478" lon="32.9856885">
<ele>223.42</ele>
<time>2015-04-30T13:17:42Z</time>
</trkpt>
<trkpt lat="34.7414884" lon="32.9856958">
<ele>223.09</ele>
<time>2015-04-30T13:17:43Z</time>
</trkpt>
<trkpt lat="34.7414181" lon="32.9857043">
<ele>222.93</ele>
<time>2015-04-30T13:17:44Z</time>
</trkpt>
<trkpt lat="34.7413552" lon="32.9857161">
<ele>221.84</ele>
<time>2015-04-30T13:17:45Z</time>
</trkpt>
<trkpt lat="34.7412907" lon="32.9857176">
<ele>221.30</ele>
<time>2015-04-30T13:17:46Z</time>
</trkpt>
<trkpt lat="34.7412256" lon="32.9857324">
<ele>220.53</ele>
<time>2015-04-30T13:17:47Z</time>
</trkpt>
<trkpt lat="34.7411585" lon="32.9857397">
<ele>220.15</ele>
<time>2015-04-30T13:17:48Z</time>
</trkpt>
<trkpt lat="34.7410902" lon="32.9857523">
<ele>219.95</ele>
<time>2015-04-30T13:17:49Z</time>
</trkpt>
<trkpt lat="34.7410246" lon="32.9857590">
<ele>219.36</ele>
<time>2015-04-30T13:17:50Z</time>
</trkpt>
<trkpt lat="34.7409616" lon="32.9857674">
<ele>219.06</ele>
<time>2015-04-30T13:17:51Z</time>
</trkpt>
<trkpt lat="34.7408987" lon="32.9857830">
<ele>217.91</ele>
<time>2015-04-30T13:17:52Z</time>
</trkpt>
<trkpt lat="34.7408345" lon="32.9857986">
<ele>216.83</ele>
<time>2015-04-30T13:17:53Z</time>
</trkpt>
<trkpt lat="34.7407681" lon="32.9858108">
<ele>216.30</ele>
<time>2015-04-30T13:17:54Z</time>
</trkpt>
<trkpt lat="34.7407010" lon="32.9858125">
<ele>215.53</ele>
<time>2015-04-30T13:17:55Z</time>
</trkpt>
<trkpt lat="34.7406303" lon="32.9858207">
<ele>214.64</ele>
<time>2015-04-30T13:17:56Z</time>
</trkpt>
<trkpt lat="34.7405600" lon="32.9858286">
<ele>214.20</ele>
<time>2015-04-30T13:17:57Z</time>
</trkpt>
<trkpt lat="34.7404926" lon="32.9858352">
<ele>213.48</ele>
<time>2015-04-30T13:17:58Z</time>
</trkpt>
<trkpt lat="34.7404193" lon="32.9858520">
<ele>213.62</ele>
<time>2015-04-30T13:17:59Z</time>
</trkpt>
<trkpt lat="34.7403514" lon="32.9858652">
<ele>213.69</ele>
<time>2015-04-30T13:18:00Z</time>
</trkpt>
<trkpt lat="34.7402888" lon="32.9858801">
<ele>213.23</ele>
<time>2015-04-30T13:18:01Z</time>
</trkpt>
<trkpt lat="34.7402210" lon="32.9858865">
<ele>212.99</ele>
<time>2015-04-30T13:18:02Z</time>
</trkpt>
<trkpt lat="34.7401660" lon="32.9858999">
<ele>211.88</ele>
<time>2015-04-30T13:18:03Z</time>
</trkpt>
<trkpt lat="34.7401091" lon="32.9859037">
<ele>210.82</ele>
<time>2015-04-30T13:18:04Z</time>
</trkpt>
<trkpt lat="34.7400517" lon="32.9859054">
<ele>210.29</ele>
<time>2015-04-30T13:18:05Z</time>
</trkpt>
<trkpt lat="34.7399895" lon="32.9859138">
<ele>210.02</ele>
<time>2015-04-30T13:18:06Z</time>
</trkpt>
<trkpt lat="34.7399307" lon="32.9859180">
<ele>209.89</ele>
<time>2015-04-30T13:18:07Z</time>
</trkpt>
<trkpt lat="34.7398678" lon="32.9859283">
<ele>209.83</ele>
<time>2015-04-30T13:18:08Z</time>
</trkpt>
<trkpt lat="34.7398102" lon="32.9859395">
<ele>210.29</ele>
<time>2015-04-30T13:18:09Z</time>
</trkpt>
<trkpt lat="34.7397559" lon="32.9859331">
<ele>210.03</ele>
<time>2015-04-30T13:18:10Z</time>
</trkpt>
<trkpt lat="34.7397034" lon="32.9859405">
<ele>209.89</ele>
<time>2015-04-30T13:18:11Z</time>
</trkpt>
<trkpt lat="34.7396405" lon="32.9859509">
<ele>210.33</ele>
<time>2015-04-30T13:18:12Z</time>
</trkpt>
<trkpt lat="34.7395802" lon="32.9859574">
<ele>211.04</ele>
<time>2015-04-30T13:18:13Z</time>
</trkpt>
<trkpt lat="34.7395160" lon="32.9859638">
<ele>211.40</ele>
<time>2015-04-30T13:18:14Z</time>
</trkpt>
<trkpt lat="34.7394644" lon="32.9859806">
<ele>211.08</ele>
<time>2015-04-30T13:18:15Z</time>
</trkpt>
<trkpt lat="34.7394079" lon="32.9859865">
<ele>210.92</ele>
<time>2015-04-30T13:18:16Z</time>
</trkpt>
<trkpt lat="34.7393496" lon="32.9859928">
<ele>210.84</ele>
<time>2015-04-30T13:18:17Z</time>
</trkpt>
<trkpt lat="34.7392955" lon="32.9859917">
<ele>210.30</ele>
<time>2015-04-30T13:18:18Z</time>
</trkpt>
<trkpt lat="34.7392440" lon="32.9860019">
<ele>209.53</ele>
<time>2015-04-30T13:18:19Z</time>
</trkpt>
<trkpt lat="34.7391849" lon="32.9860111">
<ele>209.65</ele>
<time>2015-04-30T13:18:20Z</time>
</trkpt>
<trkpt lat="34.7391245" lon="32.9860138">
<ele>209.70</ele>
<time>2015-04-30T13:18:21Z</time>
</trkpt>
<trkpt lat="34.7390697" lon="32.9860180">
<ele>209.73</ele>
<time>2015-04-30T13:18:22Z</time>
</trkpt>
<trkpt lat="34.7390145" lon="32.9860193">
<ele>209.75</ele>
<time>2015-04-30T13:18:23Z</time>
</trkpt>
<trkpt lat="34.7389478" lon="32.9860292">
<ele>210.25</ele>
<time>2015-04-30T13:18:24Z</time>
</trkpt>
<trkpt lat="34.7388935" lon="32.9860326">
<ele>210.51</ele>
<time>2015-04-30T13:18:25Z</time>
</trkpt>
<trkpt lat="34.7388343" lon="32.9860377">
<ele>210.13</ele>
<time>2015-04-30T13:18:26Z</time>
</trkpt>
<trkpt lat="34.7387788" lon="32.9860419">
<ele>208.95</ele>
<time>2015-04-30T13:18:27Z</time>
</trkpt>
<trkpt lat="34.7387219" lon="32.9860546">
<ele>208.35</ele>
<time>2015-04-30T13:18:28Z</time>
</trkpt>
<trkpt lat="34.7386672" lon="32.9860618">
<ele>207.56</ele>
<time>2015-04-30T13:18:29Z</time>
</trkpt>
<trkpt lat="34.7386110" lon="32.9860644">
<ele>207.16</ele>
<time>2015-04-30T13:18:30Z</time>
</trkpt>
<trkpt lat="34.7385536" lon="32.9860670">
<ele>206.46</ele>
<time>2015-04-30T13:18:31Z</time>
</trkpt>
<trkpt lat="34.7384788" lon="32.9860855">
<ele>207.11</ele>
<time>2015-04-30T13:18:32Z</time>
</trkpt>
<trkpt lat="34.7384172" lon="32.9860957">
<ele>207.43</ele>
<time>2015-04-30T13:18:33Z</time>
</trkpt>
<trkpt lat="34.7383534" lon="32.9861043">
<ele>207.60</ele>
<time>2015-04-30T13:18:34Z</time>
</trkpt>
<trkpt lat="34.7382847" lon="32.9861122">
<ele>207.18</ele>
<time>2015-04-30T13:18:35Z</time>
</trkpt>
<trkpt lat="34.7382209" lon="32.9861188">
<ele>206.97</ele>
<time>2015-04-30T13:18:36Z</time>
</trkpt>
<trkpt lat="34.7381547" lon="32.9861271">
<ele>206.86</ele>
<time>2015-04-30T13:18:37Z</time>
</trkpt>
<trkpt lat="34.7380903" lon="32.9861314">
<ele>206.31</ele>
<time>2015-04-30T13:18:38Z</time>
</trkpt>
<trkpt lat="34.7380236" lon="32.9861353">
<ele>205.54</ele>
<time>2015-04-30T13:18:39Z</time>
</trkpt>
<trkpt lat="34.7379532" lon="32.9861388">
<ele>205.15</ele>
<time>2015-04-30T13:18:40Z</time>
</trkpt>
<trkpt lat="34.7378785" lon="32.9861530">
<ele>204.95</ele>
<time>2015-04-30T13:18:41Z</time>
</trkpt>
<trkpt lat="34.7378059" lon="32.9861650">
<ele>204.36</ele>
<time>2015-04-30T13:18:42Z</time>
</trkpt>
<trkpt lat="34.7377313" lon="32.9861799">
<ele>204.06</ele>
<time>2015-04-30T13:18:43Z</time>
</trkpt>
<trkpt lat="34.7376569" lon="32.9861900">
<ele>203.41</ele>
<time>2015-04-30T13:18:44Z</time>
</trkpt>
<trkpt lat="34.7375784" lon="32.9862052">
<ele>203.08</ele>
<time>2015-04-30T13:18:45Z</time>
</trkpt>
<trkpt lat="34.7374982" lon="32.9862246">
<ele>202.42</ele>
<time>2015-04-30T13:18:46Z</time>
</trkpt>
<trkpt lat="34.7374201" lon="32.9862325">
<ele>201.59</ele>
<time>2015-04-30T13:18:47Z</time>
</trkpt>
<trkpt lat="34.7373316" lon="32.9862474">
<ele>201.18</ele>
<time>2015-04-30T13:18:48Z</time>
</trkpt>
<trkpt lat="34.7372526" lon="32.9862601">
<ele>200.97</ele>
<time>2015-04-30T13:18:49Z</time>
</trkpt>
<trkpt lat="34.7371633" lon="32.9862741">
<ele>200.86</ele>
<time>2015-04-30T13:18:50Z</time>
</trkpt>
<trkpt lat="34.7370806" lon="32.9862991">
<ele>200.81</ele>
<time>2015-04-30T13:18:51Z</time>
</trkpt>
<trkpt lat="34.7369890" lon="32.9863214">
<ele>200.29</ele>
<time>2015-04-30T13:18:52Z</time>
</trkpt>
<trkpt lat="34.7369046" lon="32.9863464">
<ele>199.52</ele>
<time>2015-04-30T13:18:53Z</time>
</trkpt>
<trkpt lat="34.7368159" lon="32.9863723">
<ele>199.14</ele>
<time>2015-04-30T13:18:54Z</time>
</trkpt>
<trkpt lat="34.7367305" lon="32.9864011">
<ele>198.45</ele>
<time>2015-04-30T13:18:55Z</time>
</trkpt>
<trkpt lat="34.7366336" lon="32.9864352">
<ele>198.11</ele>
<time>2015-04-30T13:18:56Z</time>
</trkpt>
<trkpt lat="34.7365492" lon="32.9864714">
<ele>197.43</ele>
<time>2015-04-30T13:18:57Z</time>
</trkpt>
<trkpt lat="34.7364616" lon="32.9865071">
<ele>196.60</ele>
<time>2015-04-30T13:18:58Z</time>
</trkpt>
<trkpt lat="34.7363770" lon="32.9865444">
<ele>196.18</ele>
<time>2015-04-30T13:18:59Z</time>
</trkpt>
<trkpt lat="34.7362896" lon="32.9866018">
<ele>195.97</ele>
<time>2015-04-30T13:19:00Z</time>
</trkpt>
<trkpt lat="34.7362097" lon="32.9866527">
<ele>194.86</ele>
<time>2015-04-30T13:19:01Z</time>
</trkpt>
<trkpt lat="34.7361191" lon="32.9867009">
<ele>194.31</ele>
<time>2015-04-30T13:19:02Z</time>
</trkpt>
<trkpt lat="34.7360331" lon="32.9867495">
<ele>193.54</ele>
<time>2015-04-30T13:19:03Z</time>
</trkpt>
<trkpt lat="34.7359435" lon="32.9867986">
<ele>193.15</ele>
<time>2015-04-30T13:19:04Z</time>
</trkpt>
<trkpt lat="34.7358560" lon="32.9868411">
<ele>192.95</ele>
<time>2015-04-30T13:19:05Z</time>
</trkpt>
<trkpt lat="34.7357801" lon="32.9868992">
<ele>190.86</ele>
<time>2015-04-30T13:19:06Z</time>
</trkpt>
<trkpt lat="34.7356966" lon="32.9869498">
<ele>188.81</ele>
<time>2015-04-30T13:19:07Z</time>
</trkpt>
<trkpt lat="34.7356063" lon="32.9870041">
<ele>187.78</ele>
<time>2015-04-30T13:19:08Z</time>
</trkpt>
<trkpt lat="34.7355201" lon="32.9870552">
<ele>187.27</ele>
<time>2015-04-30T13:19:09Z</time>
</trkpt>
<trkpt lat="34.7354377" lon="32.9871057">
<ele>186.52</ele>
<time>2015-04-30T13:19:10Z</time>
</trkpt>
<trkpt lat="34.7353506" lon="32.9871520">
<ele>186.14</ele>
<time>2015-04-30T13:19:11Z</time>
</trkpt>
<trkpt lat="34.7352592" lon="32.9871972">
<ele>185.45</ele>
<time>2015-04-30T13:19:12Z</time>
</trkpt>
<trkpt lat="34.7351685" lon="32.9872473">
<ele>185.60</ele>
<time>2015-04-30T13:19:13Z</time>
</trkpt>
<trkpt lat="34.7350907" lon="32.9872990">
<ele>184.68</ele>
<time>2015-04-30T13:19:14Z</time>
</trkpt>
<trkpt lat="34.7350049" lon="32.9873504">
<ele>184.22</ele>
<time>2015-04-30T13:19:15Z</time>
</trkpt>
<trkpt lat="34.7349160" lon="32.9874033">
<ele>183.49</ele>
<time>2015-04-30T13:19:16Z</time>
</trkpt>
<trkpt lat="34.7348324" lon="32.9874522">
<ele>183.13</ele>
<time>2015-04-30T13:19:17Z</time>
</trkpt>
<trkpt lat="34.7347470" lon="32.9875052">
<ele>182.94</ele>
<time>2015-04-30T13:19:18Z</time>
</trkpt>
<trkpt lat="34.7346551" lon="32.9875584">
<ele>182.35</ele>
<time>2015-04-30T13:19:19Z</time>
</trkpt>
<trkpt lat="34.7345532" lon="32.9876168">
<ele>181.56</ele>
<time>2015-04-30T13:19:20Z</time>
</trkpt>
<trkpt lat="34.7344652" lon="32.9876726">
<ele>181.66</ele>
<time>2015-04-30T13:19:21Z</time>
</trkpt>
<trkpt lat="34.7343728" lon="32.9877283">
<ele>181.71</ele>
<time>2015-04-30T13:19:22Z</time>
</trkpt>
<trkpt lat="34.7342813" lon="32.9877828">
<ele>181.23</ele>
<time>2015-04-30T13:19:23Z</time>
</trkpt>
<trkpt lat="34.7341849" lon="32.9878274">
<ele>181.00</ele>
<time>2015-04-30T13:19:24Z</time>
</trkpt>
<trkpt lat="34.7340931" lon="32.9878726">
<ele>180.88</ele>
<time>2015-04-30T13:19:25Z</time>
</trkpt>
<trkpt lat="34.7339995" lon="32.9879270">
<ele>180.82</ele>
<time>2015-04-30T13:19:26Z</time>
</trkpt>
<trkpt lat="34.7339106" lon="32.9879797">
<ele>180.79</ele>
<time>2015-04-30T13:19:27Z</time>
</trkpt>
<trkpt lat="34.7338185" lon="32.9880360">
<ele>179.77</ele>
<time>2015-04-30T13:19:28Z</time>
</trkpt>
<trkpt lat="34.7337362" lon="32.9880827">
<ele>179.27</ele>
<time>2015-04-30T13:19:29Z</time>
</trkpt>
<trkpt lat="34.7336610" lon="32.9881248">
<ele>178.51</ele>
<time>2015-04-30T13:19:30Z</time>
</trkpt>
<trkpt lat="34.7335875" lon="32.9881634">
<ele>178.14</ele>
<time>2015-04-30T13:19:31Z</time>
</trkpt>
<trkpt lat="34.7335055" lon="32.9881984">
<ele>177.95</ele>
<time>2015-04-30T13:19:32Z</time>
</trkpt>
<trkpt lat="34.7334332" lon="32.9882322">
<ele>177.35</ele>
<time>2015-04-30T13:19:33Z</time>
</trkpt>
<trkpt lat="34.7333576" lon="32.9882655">
<ele>176.56</ele>
<time>2015-04-30T13:19:34Z</time>
</trkpt>
<trkpt lat="34.7332886" lon="32.9882990">
<ele>176.16</ele>
<time>2015-04-30T13:19:35Z</time>
</trkpt>
<trkpt lat="34.7332223" lon="32.9883294">
<ele>175.96</ele>
<time>2015-04-30T13:19:36Z</time>
</trkpt>
<trkpt lat="34.7331584" lon="32.9883510">
<ele>175.36</ele>
<time>2015-04-30T13:19:37Z</time>
</trkpt>
<trkpt lat="34.7330957" lon="32.9883804">
<ele>174.56</ele>
<time>2015-04-30T13:19:38Z</time>
</trkpt>
<trkpt lat="34.7330381" lon="32.9884054">
<ele>174.16</ele>
<time>2015-04-30T13:19:39Z</time>
</trkpt>
<trkpt lat="34.7329758" lon="32.9884226">
<ele>173.96</ele>
<time>2015-04-30T13:19:40Z</time>
</trkpt>
<trkpt lat="34.7329194" lon="32.9884438">
<ele>173.86</ele>
<time>2015-04-30T13:19:41Z</time>
</trkpt>
<trkpt lat="34.7328550" lon="32.9884643">
<ele>174.81</ele>
<time>2015-04-30T13:19:42Z</time>
</trkpt>
<trkpt lat="34.7327968" lon="32.9884850">
<ele>175.28</ele>
<time>2015-04-30T13:19:43Z</time>
</trkpt>
<trkpt lat="34.7327320" lon="32.9884860">
<ele>175.52</ele>
<time>2015-04-30T13:19:44Z</time>
</trkpt>
<trkpt lat="34.7326643" lon="32.9884973">
<ele>175.14</ele>
<time>2015-04-30T13:19:45Z</time>
</trkpt>
<trkpt lat="34.7326146" lon="32.9885057">
<ele>174.95</ele>
<time>2015-04-30T13:19:46Z</time>
</trkpt>
<trkpt lat="34.7325529" lon="32.9885204">
<ele>174.36</ele>
<time>2015-04-30T13:19:47Z</time>
</trkpt>
<trkpt lat="34.7324958" lon="32.9885304">
<ele>173.56</ele>
<time>2015-04-30T13:19:48Z</time>
</trkpt>
<trkpt lat="34.7324362" lon="32.9885331">
<ele>172.66</ele>
<time>2015-04-30T13:19:49Z</time>
</trkpt>
<trkpt lat="34.7323780" lon="32.9885400">
<ele>172.21</ele>
<time>2015-04-30T13:19:50Z</time>
</trkpt>
<trkpt lat="34.7323195" lon="32.9885483">
<ele>171.98</ele>
<time>2015-04-30T13:19:51Z</time>
</trkpt>
<trkpt lat="34.7322629" lon="32.9885570">
<ele>170.87</ele>
<time>2015-04-30T13:19:52Z</time>
</trkpt>
<trkpt lat="34.7322080" lon="32.9885604">
<ele>169.82</ele>
<time>2015-04-30T13:19:53Z</time>
</trkpt>
<trkpt lat="34.7321508" lon="32.9885652">
<ele>169.29</ele>
<time>2015-04-30T13:19:54Z</time>
</trkpt>
<trkpt lat="34.7320879" lon="32.9885697">
<ele>168.52</ele>
<time>2015-04-30T13:19:55Z</time>
</trkpt>
<trkpt lat="34.7320255" lon="32.9885616">
<ele>168.14</ele>
<time>2015-04-30T13:19:56Z</time>
</trkpt>
<trkpt lat="34.7319628" lon="32.9885497">
<ele>167.95</ele>
<time>2015-04-30T13:19:57Z</time>
</trkpt>
<trkpt lat="34.7319006" lon="32.9885517">
<ele>167.36</ele>
<time>2015-04-30T13:19:58Z</time>
</trkpt>
<trkpt lat="34.7318216" lon="32.9885500">
<ele>167.56</ele>
<time>2015-04-30T13:19:59Z</time>
</trkpt>
<trkpt lat="34.7317460" lon="32.9885500">
<ele>167.16</ele>
<time>2015-04-30T13:20:00Z</time>
</trkpt>
<trkpt lat="34.7316670" lon="32.9885509">
<ele>167.96</ele>
<time>2015-04-30T13:20:01Z</time>
</trkpt>
<trkpt lat="34.7315840" lon="32.9885577">
<ele>168.86</ele>
<time>2015-04-30T13:20:02Z</time>
</trkpt>
<trkpt lat="34.7315026" lon="32.9885497">
<ele>169.31</ele>
<time>2015-04-30T13:20:03Z</time>
</trkpt>
<trkpt lat="34.7314095" lon="32.9885415">
<ele>169.03</ele>
<time>2015-04-30T13:20:04Z</time>
</trkpt>
<trkpt lat="34.7313268" lon="32.9885366">
<ele>168.90</ele>
<time>2015-04-30T13:20:05Z</time>
</trkpt>
<trkpt lat="34.7312418" lon="32.9885380">
<ele>168.83</ele>
<time>2015-04-30T13:20:06Z</time>
</trkpt>
<trkpt lat="34.7311559" lon="32.9885315">
<ele>168.79</ele>
<time>2015-04-30T13:20:07Z</time>
</trkpt>
<trkpt lat="34.7310673" lon="32.9885139">
<ele>168.78</ele>
<time>2015-04-30T13:20:08Z</time>
</trkpt>
<trkpt lat="34.7309854" lon="32.9884960">
<ele>168.27</ele>
<time>2015-04-30T13:20:09Z</time>
</trkpt>
<trkpt lat="34.7309008" lon="32.9884729">
<ele>167.51</ele>
<time>2015-04-30T13:20:10Z</time>
</trkpt>
<trkpt lat="34.7308174" lon="32.9884448">
<ele>167.14</ele>
<time>2015-04-30T13:20:11Z</time>
</trkpt>
<trkpt lat="34.7307399" lon="32.9884091">
<ele>165.95</ele>
<time>2015-04-30T13:20:12Z</time>
</trkpt>
<trkpt lat="34.7306682" lon="32.9883845">
<ele>165.35</ele>
<time>2015-04-30T13:20:13Z</time>
</trkpt>
<trkpt lat="34.7306174" lon="32.9883742">
<ele>164.56</ele>
<time>2015-04-30T13:20:14Z</time>
</trkpt>
<trkpt lat="34.7305332" lon="32.9883529">
<ele>165.16</ele>
<time>2015-04-30T13:20:15Z</time>
</trkpt>
<trkpt lat="34.7304480" lon="32.9883258">
<ele>164.96</ele>
<time>2015-04-30T13:20:16Z</time>
</trkpt>
<trkpt lat="34.7303679" lon="32.9883036">
<ele>165.36</ele>
<time>2015-04-30T13:20:17Z</time>
</trkpt>
<trkpt lat="34.7302931" lon="32.9882831">
<ele>165.06</ele>
<time>2015-04-30T13:20:18Z</time>
</trkpt>
<trkpt lat="34.7302226" lon="32.9882550">
<ele>164.41</ele>
<time>2015-04-30T13:20:19Z</time>
</trkpt>
<trkpt lat="34.7301416" lon="32.9882337">
<ele>164.08</ele>
<time>2015-04-30T13:20:20Z</time>
</trkpt>
<trkpt lat="34.7300674" lon="32.9882059">
<ele>163.92</ele>
<time>2015-04-30T13:20:21Z</time>
</trkpt>
<trkpt lat="34.7299962" lon="32.9881806">
<ele>163.34</ele>
<time>2015-04-30T13:20:22Z</time>
</trkpt>
<trkpt lat="34.7299281" lon="32.9881576">
<ele>163.05</ele>
<time>2015-04-30T13:20:23Z</time>
</trkpt>
<trkpt lat="34.7298496" lon="32.9881448">
<ele>162.91</ele>
<time>2015-04-30T13:20:24Z</time>
</trkpt>
<trkpt lat="34.7297758" lon="32.9881126">
<ele>162.83</ele>
<time>2015-04-30T13:20:25Z</time>
</trkpt>
<trkpt lat="34.7297052" lon="32.9880866">
<ele>162.30</ele>
<time>2015-04-30T13:20:26Z</time>
</trkpt>
<trkpt lat="34.7296292" lon="32.9880647">
<ele>162.03</ele>
<time>2015-04-30T13:20:27Z</time>
</trkpt>
<trkpt lat="34.7295540" lon="32.9880471">
<ele>162.39</ele>
<time>2015-04-30T13:20:28Z</time>
</trkpt>
<trkpt lat="34.7294820" lon="32.9880276">
<ele>162.58</ele>
<time>2015-04-30T13:20:29Z</time>
</trkpt>
<trkpt lat="34.7294111" lon="32.9880183">
<ele>162.67</ele>
<time>2015-04-30T13:20:30Z</time>
</trkpt>
<trkpt lat="34.7293409" lon="32.9879978">
<ele>162.21</ele>
<time>2015-04-30T13:20:31Z</time>
</trkpt>
<trkpt lat="34.7292743" lon="32.9879817">
<ele>161.99</ele>
<time>2015-04-30T13:20:32Z</time>
</trkpt>
<trkpt lat="34.7292136" lon="32.9879645">
<ele>162.37</ele>
<time>2015-04-30T13:20:33Z</time>
</trkpt>
<trkpt lat="34.7291557" lon="32.9879446">
<ele>162.07</ele>
<time>2015-04-30T13:20:34Z</time>
</trkpt>
<trkpt lat="34.7291029" lon="32.9879236">
<ele>161.91</ele>
<time>2015-04-30T13:20:35Z</time>
</trkpt>
<trkpt lat="34.7290335" lon="32.9879144">
<ele>162.34</ele>
<time>2015-04-30T13:20:36Z</time>
</trkpt>
<trkpt lat="34.7289692" lon="32.9879049">
<ele>163.05</ele>
<time>2015-04-30T13:20:37Z</time>
</trkpt>
<trkpt lat="34.7289106" lon="32.9878850">
<ele>163.40</ele>
<time>2015-04-30T13:20:38Z</time>
</trkpt>
<trkpt lat="34.7288648" lon="32.9878722">
<ele>162.58</ele>
<time>2015-04-30T13:20:39Z</time>
</trkpt>
<trkpt lat="34.7288041" lon="32.9878595">
<ele>162.22</ele>
<time>2015-04-30T13:20:41Z</time>
</trkpt>
<trkpt lat="34.7287619" lon="32.9878065">
<ele>160.56</ele>
<time>2015-04-30T13:20:52Z</time>
</trkpt>
<trkpt lat="34.7286941" lon="32.9877844">
<ele>161.46</ele>
<time>2015-04-30T13:20:54Z</time>
</trkpt>
<trkpt lat="34.7286143" lon="32.9877526">
<ele>160.19</ele>
<time>2015-04-30T13:20:56Z</time>
</trkpt>
<trkpt lat="34.7285579" lon="32.9877465">
<ele>159.97</ele>
<time>2015-04-30T13:20:57Z</time>
</trkpt>
<trkpt lat="34.7285000" lon="32.9877287">
<ele>160.87</ele>
<time>2015-04-30T13:20:58Z</time>
</trkpt>
<trkpt lat="34.7284391" lon="32.9877098">
<ele>161.81</ele>
<time>2015-04-30T13:20:59Z</time>
</trkpt>
<trkpt lat="34.7283731" lon="32.9876899">
<ele>162.79</ele>
<time>2015-04-30T13:21:00Z</time>
</trkpt>
<trkpt lat="34.7283085" lon="32.9876745">
<ele>163.27</ele>
<time>2015-04-30T13:21:01Z</time>
</trkpt>
<trkpt lat="34.7282401" lon="32.9876616">
<ele>164.02</ele>
<time>2015-04-30T13:21:02Z</time>
</trkpt>
<trkpt lat="34.7281761" lon="32.9876503">
<ele>163.89</ele>
<time>2015-04-30T13:21:03Z</time>
</trkpt>
<trkpt lat="34.7281158" lon="32.9876407">
<ele>163.82</ele>
<time>2015-04-30T13:21:04Z</time>
</trkpt>
<trkpt lat="34.7280630" lon="32.9876368">
<ele>163.79</ele>
<time>2015-04-30T13:21:05Z</time>
</trkpt>
<trkpt lat="34.7280043" lon="32.9876273">
<ele>163.78</ele>
<time>2015-04-30T13:21:06Z</time>
</trkpt>
<trkpt lat="34.7279440" lon="32.9875991">
<ele>164.27</ele>
<time>2015-04-30T13:21:07Z</time>
</trkpt>
<trkpt lat="34.7278720" lon="32.9875972">
<ele>165.01</ele>
<time>2015-04-30T13:21:08Z</time>
</trkpt>
<trkpt lat="34.7278065" lon="32.9875926">
<ele>164.89</ele>
<time>2015-04-30T13:21:09Z</time>
</trkpt>
<trkpt lat="34.7277462" lon="32.9875922">
<ele>165.32</ele>
<time>2015-04-30T13:21:10Z</time>
</trkpt>
<trkpt lat="34.7276704" lon="32.9875911">
<ele>166.54</ele>
<time>2015-04-30T13:21:11Z</time>
</trkpt>
<trkpt lat="34.7276097" lon="32.9875857">
<ele>166.15</ele>
<time>2015-04-30T13:21:12Z</time>
</trkpt>
<trkpt lat="34.7275408" lon="32.9875767">
<ele>164.96</ele>
<time>2015-04-30T13:21:13Z</time>
</trkpt>
<trkpt lat="34.7274726" lon="32.9875866">
<ele>164.86</ele>
<time>2015-04-30T13:21:14Z</time>
</trkpt>
<trkpt lat="34.7274040" lon="32.9875918">
<ele>164.81</ele>
<time>2015-04-30T13:21:15Z</time>
</trkpt>
<trkpt lat="34.7273335" lon="32.9875992">
<ele>164.78</ele>
<time>2015-04-30T13:21:16Z</time>
</trkpt>
<trkpt lat="34.7272740" lon="32.9875963">
<ele>164.27</ele>
<time>2015-04-30T13:21:17Z</time>
</trkpt>
<trkpt lat="34.7272127" lon="32.9875962">
<ele>165.02</ele>
<time>2015-04-30T13:21:18Z</time>
</trkpt>
<trkpt lat="34.7271461" lon="32.9875965">
<ele>164.89</ele>
<time>2015-04-30T13:21:19Z</time>
</trkpt>
<trkpt lat="34.7270791" lon="32.9875949">
<ele>164.82</ele>
<time>2015-04-30T13:21:20Z</time>
</trkpt>
<trkpt lat="34.7270141" lon="32.9875910">
<ele>164.29</ele>
<time>2015-04-30T13:21:21Z</time>
</trkpt>
<trkpt lat="34.7269525" lon="32.9875872">
<ele>164.03</ele>
<time>2015-04-30T13:21:22Z</time>
</trkpt>
<trkpt lat="34.7268854" lon="32.9875792">
<ele>163.39</ele>
<time>2015-04-30T13:21:23Z</time>
</trkpt>
<trkpt lat="34.7268076" lon="32.9875755">
<ele>163.08</ele>
<time>2015-04-30T13:21:24Z</time>
</trkpt>
<trkpt lat="34.7267392" lon="32.9875722">
<ele>162.42</ele>
<time>2015-04-30T13:21:25Z</time>
</trkpt>
<trkpt lat="34.7266752" lon="32.9875772">
<ele>161.59</ele>
<time>2015-04-30T13:21:26Z</time>
</trkpt>
<trkpt lat="34.7266080" lon="32.9875811">
<ele>160.67</ele>
<time>2015-04-30T13:21:27Z</time>
</trkpt>
<trkpt lat="34.7265331" lon="32.9875860">
<ele>159.72</ele>
<time>2015-04-30T13:21:28Z</time>
</trkpt>
<trkpt lat="34.7264732" lon="32.9875762">
<ele>158.74</ele>
<time>2015-04-30T13:21:29Z</time>
</trkpt>
<trkpt lat="34.7264090" lon="32.9875720">
<ele>157.75</ele>
<time>2015-04-30T13:21:30Z</time>
</trkpt>
<trkpt lat="34.7263525" lon="32.9875626">
<ele>157.75</ele>
<time>2015-04-30T13:21:31Z</time>
</trkpt>
<trkpt lat="34.7262898" lon="32.9875610">
<ele>157.26</ele>
<time>2015-04-30T13:21:32Z</time>
</trkpt>
<trkpt lat="34.7262339" lon="32.9875638">
<ele>157.51</ele>
<time>2015-04-30T13:21:33Z</time>
</trkpt>
<trkpt lat="34.7261769" lon="32.9875643">
<ele>157.63</ele>
<time>2015-04-30T13:21:34Z</time>
</trkpt>
<trkpt lat="34.7261228" lon="32.9875619">
<ele>157.70</ele>
<time>2015-04-30T13:21:35Z</time>
</trkpt>
<trkpt lat="34.7260575" lon="32.9875630">
<ele>157.73</ele>
<time>2015-04-30T13:21:36Z</time>
</trkpt>
<trkpt lat="34.7259916" lon="32.9875562">
<ele>158.74</ele>
<time>2015-04-30T13:21:37Z</time>
</trkpt>
<trkpt lat="34.7259268" lon="32.9875565">
<ele>159.25</ele>
<time>2015-04-30T13:21:38Z</time>
</trkpt>
<trkpt lat="34.7258636" lon="32.9875575">
<ele>159.51</ele>
<time>2015-04-30T13:21:39Z</time>
</trkpt>
<trkpt lat="34.7257984" lon="32.9875653">
<ele>159.63</ele>
<time>2015-04-30T13:21:40Z</time>
</trkpt>
<trkpt lat="34.7257361" lon="32.9875670">
<ele>159.70</ele>
<time>2015-04-30T13:21:41Z</time>
</trkpt>
<trkpt lat="34.7256695" lon="32.9875684">
<ele>160.23</ele>
<time>2015-04-30T13:21:42Z</time>
</trkpt>
<trkpt lat="34.7256077" lon="32.9875602">
<ele>160.49</ele>
<time>2015-04-30T13:21:43Z</time>
</trkpt>
<trkpt lat="34.7255450" lon="32.9875681">
<ele>160.13</ele>
<time>2015-04-30T13:21:44Z</time>
</trkpt>
<trkpt lat="34.7254900" lon="32.9875678">
<ele>160.44</ele>
<time>2015-04-30T13:21:45Z</time>
</trkpt>
<trkpt lat="34.7254298" lon="32.9875648">
<ele>160.60</ele>
<time>2015-04-30T13:21:46Z</time>
</trkpt>
<trkpt lat="34.7253691" lon="32.9875678">
<ele>160.68</ele>
<time>2015-04-30T13:21:47Z</time>
</trkpt>
<trkpt lat="34.7253066" lon="32.9875667">
<ele>160.72</ele>
<time>2015-04-30T13:21:48Z</time>
</trkpt>
<trkpt lat="34.7252423" lon="32.9875655">
<ele>160.74</ele>
<time>2015-04-30T13:21:49Z</time>
</trkpt>
<trkpt lat="34.7251931" lon="32.9875550">
<ele>161.75</ele>
<time>2015-04-30T13:21:50Z</time>
</trkpt>
<trkpt lat="34.7251332" lon="32.9875404">
<ele>161.26</ele>
<time>2015-04-30T13:21:51Z</time>
</trkpt>
<trkpt lat="34.7250768" lon="32.9875283">
<ele>160.01</ele>
<time>2015-04-30T13:21:52Z</time>
</trkpt>
<trkpt lat="34.7250159" lon="32.9875362">
<ele>158.88</ele>
<time>2015-04-30T13:21:53Z</time>
</trkpt>
<trkpt lat="34.7249567" lon="32.9875427">
<ele>158.32</ele>
<time>2015-04-30T13:21:54Z</time>
</trkpt>
<trkpt lat="34.7248926" lon="32.9875449">
<ele>158.04</ele>
<time>2015-04-30T13:21:55Z</time>
</trkpt>
<trkpt lat="34.7248337" lon="32.9875360">
<ele>157.90</ele>
<time>2015-04-30T13:21:56Z</time>
</trkpt>
<trkpt lat="34.7247756" lon="32.9875318">
<ele>157.83</ele>
<time>2015-04-30T13:21:57Z</time>
</trkpt>
<trkpt lat="34.7247177" lon="32.9875328">
<ele>157.30</ele>
<time>2015-04-30T13:21:58Z</time>
</trkpt>
<trkpt lat="34.7246538" lon="32.9875443">
<ele>157.03</ele>
<time>2015-04-30T13:21:59Z</time>
</trkpt>
<trkpt lat="34.7245856" lon="32.9875592">
<ele>157.89</ele>
<time>2015-04-30T13:22:00Z</time>
</trkpt>
<trkpt lat="34.7245207" lon="32.9875637">
<ele>158.33</ele>
<time>2015-04-30T13:22:01Z</time>
</trkpt>
<trkpt lat="34.7244565" lon="32.9875710">
<ele>156.54</ele>
<time>2015-04-30T13:22:02Z</time>
</trkpt>
<trkpt lat="34.7243923" lon="32.9875801">
<ele>155.65</ele>
<time>2015-04-30T13:22:03Z</time>
</trkpt>
<trkpt lat="34.7243255" lon="32.9875869">
<ele>156.21</ele>
<time>2015-04-30T13:22:04Z</time>
</trkpt>
<trkpt lat="34.7242689" lon="32.9875921">
<ele>155.98</ele>
<time>2015-04-30T13:22:05Z</time>
</trkpt>
<trkpt lat="34.7242075" lon="32.9876034">
<ele>155.87</ele>
<time>2015-04-30T13:22:06Z</time>
</trkpt>
<trkpt lat="34.7241449" lon="32.9876075">
<ele>155.82</ele>
<time>2015-04-30T13:22:07Z</time>
</trkpt>
<trkpt lat="34.7240845" lon="32.9876143">
<ele>155.79</ele>
<time>2015-04-30T13:22:08Z</time>
</trkpt>
<trkpt lat="34.7240222" lon="32.9876258">
<ele>155.27</ele>
<time>2015-04-30T13:22:09Z</time>
</trkpt>
<trkpt lat="34.7239577" lon="32.9876378">
<ele>155.52</ele>
<time>2015-04-30T13:22:10Z</time>
</trkpt>
<trkpt lat="34.7238996" lon="32.9876491">
<ele>155.64</ele>
<time>2015-04-30T13:22:11Z</time>
</trkpt>
<trkpt lat="34.7238367" lon="32.9876665">
<ele>156.20</ele>
<time>2015-04-30T13:22:12Z</time>
</trkpt>
<trkpt lat="34.7237807" lon="32.9876830">
<ele>155.98</ele>
<time>2015-04-30T13:22:13Z</time>
</trkpt>
<trkpt lat="34.7237208" lon="32.9876972">
<ele>156.37</ele>
<time>2015-04-30T13:22:14Z</time>
</trkpt>
<trkpt lat="34.7236644" lon="32.9877124">
<ele>156.06</ele>
<time>2015-04-30T13:22:15Z</time>
</trkpt>
<trkpt lat="34.7236079" lon="32.9877266">
<ele>155.41</ele>
<time>2015-04-30T13:22:16Z</time>
</trkpt>
<trkpt lat="34.7235526" lon="32.9877423">
<ele>155.09</ele>
<time>2015-04-30T13:22:17Z</time>
</trkpt>
<trkpt lat="34.7234948" lon="32.9877588">
<ele>154.92</ele>
<time>2015-04-30T13:22:18Z</time>
</trkpt>
<trkpt lat="34.7234334" lon="32.9877725">
<ele>154.84</ele>
<time>2015-04-30T13:22:19Z</time>
</trkpt>
<trkpt lat="34.7233793" lon="32.9877918">
<ele>154.80</ele>
<time>2015-04-30T13:22:20Z</time>
</trkpt>
<trkpt lat="34.7233227" lon="32.9878105">
<ele>154.78</ele>
<time>2015-04-30T13:22:21Z</time>
</trkpt>
<trkpt lat="34.7232648" lon="32.9878266">
<ele>154.77</ele>
<time>2015-04-30T13:22:22Z</time>
</trkpt>
<trkpt lat="34.7232047" lon="32.9878403">
<ele>154.27</ele>
<time>2015-04-30T13:22:23Z</time>
</trkpt>
<trkpt lat="34.7231510" lon="32.9878603">
<ele>154.01</ele>
<time>2015-04-30T13:22:24Z</time>
</trkpt>
<trkpt lat="34.7230943" lon="32.9878812">
<ele>153.89</ele>
<time>2015-04-30T13:22:25Z</time>
</trkpt>
<trkpt lat="34.7230354" lon="32.9879002">
<ele>153.82</ele>
<time>2015-04-30T13:22:26Z</time>
</trkpt>
<trkpt lat="34.7229796" lon="32.9879217">
<ele>153.79</ele>
<time>2015-04-30T13:22:27Z</time>
</trkpt>
<trkpt lat="34.7229252" lon="32.9879414">
<ele>153.78</ele>
<time>2015-04-30T13:22:28Z</time>
</trkpt>
<trkpt lat="34.7228690" lon="32.9879595">
<ele>153.77</ele>
<time>2015-04-30T13:22:29Z</time>
</trkpt>
<trkpt lat="34.7228113" lon="32.9879788">
<ele>153.76</ele>
<time>2015-04-30T13:22:30Z</time>
</trkpt>
<trkpt lat="34.7227532" lon="32.9880033">
<ele>153.76</ele>
<time>2015-04-30T13:22:31Z</time>
</trkpt>
<trkpt lat="34.7226998" lon="32.9880215">
<ele>153.76</ele>
<time>2015-04-30T13:22:32Z</time>
</trkpt>
<trkpt lat="34.7226456" lon="32.9880424">
<ele>153.76</ele>
<time>2015-04-30T13:22:33Z</time>
</trkpt>
<trkpt lat="34.7225940" lon="32.9880705">
<ele>153.76</ele>
<time>2015-04-30T13:22:34Z</time>
</trkpt>
<trkpt lat="34.7225396" lon="32.9880940">
<ele>154.26</ele>
<time>2015-04-30T13:22:35Z</time>
</trkpt>
<trkpt lat="34.7224800" lon="32.9881265">
<ele>154.51</ele>
<time>2015-04-30T13:22:36Z</time>
</trkpt>
<trkpt lat="34.7224245" lon="32.9881477">
<ele>155.14</ele>
<time>2015-04-30T13:22:37Z</time>
</trkpt>
<trkpt lat="34.7223654" lon="32.9881707">
<ele>155.95</ele>
<time>2015-04-30T13:22:38Z</time>
</trkpt>
<trkpt lat="34.7223108" lon="32.9881952">
<ele>156.35</ele>
<time>2015-04-30T13:22:39Z</time>
</trkpt>
<trkpt lat="34.7222449" lon="32.9882167">
<ele>157.56</ele>
<time>2015-04-30T13:22:40Z</time>
</trkpt>
<trkpt lat="34.7221894" lon="32.9882366">
<ele>158.16</ele>
<time>2015-04-30T13:22:41Z</time>
</trkpt>
<trkpt lat="34.7221371" lon="32.9882612">
<ele>158.46</ele>
<time>2015-04-30T13:22:42Z</time>
</trkpt>
<trkpt lat="34.7220861" lon="32.9882971">
<ele>158.61</ele>
<time>2015-04-30T13:22:43Z</time>
</trkpt>
<trkpt lat="34.7220338" lon="32.9883250">
<ele>158.68</ele>
<time>2015-04-30T13:22:44Z</time>
</trkpt>
<trkpt lat="34.7219852" lon="32.9883634">
<ele>158.72</ele>
<time>2015-04-30T13:22:45Z</time>
</trkpt>
<trkpt lat="34.7219342" lon="32.9883824">
<ele>158.74</ele>
<time>2015-04-30T13:22:46Z</time>
</trkpt>
<trkpt lat="34.7218773" lon="32.9884069">
<ele>159.25</ele>
<time>2015-04-30T13:22:47Z</time>
</trkpt>
<trkpt lat="34.7218163" lon="32.9884307">
<ele>159.51</ele>
<time>2015-04-30T13:22:48Z</time>
</trkpt>
<trkpt lat="34.7217560" lon="32.9884530">
<ele>159.63</ele>
<time>2015-04-30T13:22:49Z</time>
</trkpt>
<trkpt lat="34.7216989" lon="32.9884797">
<ele>159.20</ele>
<time>2015-04-30T13:22:50Z</time>
</trkpt>
<trkpt lat="34.7216405" lon="32.9885133">
<ele>158.98</ele>
<time>2015-04-30T13:22:51Z</time>
</trkpt>
<trkpt lat="34.7215850" lon="32.9885375">
<ele>158.87</ele>
<time>2015-04-30T13:22:52Z</time>
</trkpt>
<trkpt lat="34.7215334" lon="32.9885608">
<ele>158.81</ele>
<time>2015-04-30T13:22:53Z</time>
</trkpt>
<trkpt lat="34.7214767" lon="32.9885840">
<ele>158.79</ele>
<time>2015-04-30T13:22:54Z</time>
</trkpt>
<trkpt lat="34.7214207" lon="32.9886098">
<ele>159.77</ele>
<time>2015-04-30T13:22:55Z</time>
</trkpt>
<trkpt lat="34.7213691" lon="32.9886453">
<ele>160.27</ele>
<time>2015-04-30T13:22:56Z</time>
</trkpt>
<trkpt lat="34.7213139" lon="32.9886781">
<ele>160.51</ele>
<time>2015-04-30T13:22:57Z</time>
</trkpt>
<trkpt lat="34.7212483" lon="32.9887112">
<ele>161.14</ele>
<time>2015-04-30T13:22:58Z</time>
</trkpt>
<trkpt lat="34.7211910" lon="32.9887487">
<ele>160.95</ele>
<time>2015-04-30T13:22:59Z</time>
</trkpt>
<trkpt lat="34.7211307" lon="32.9887835">
<ele>161.35</ele>
<time>2015-04-30T13:23:00Z</time>
</trkpt>
<trkpt lat="34.7210727" lon="32.9888184">
<ele>161.56</ele>
<time>2015-04-30T13:23:01Z</time>
</trkpt>
<trkpt lat="34.7210161" lon="32.9888485">
<ele>162.66</ele>
<time>2015-04-30T13:23:02Z</time>
</trkpt>
<trkpt lat="34.7209537" lon="32.9888876">
<ele>164.21</ele>
<time>2015-04-30T13:23:03Z</time>
</trkpt>
<trkpt lat="34.7209050" lon="32.9889254">
<ele>164.48</ele>
<time>2015-04-30T13:23:04Z</time>
</trkpt>
<trkpt lat="34.7208497" lon="32.9889575">
<ele>165.12</ele>
<time>2015-04-30T13:23:05Z</time>
</trkpt>
<trkpt lat="34.7208009" lon="32.9890012">
<ele>165.44</ele>
<time>2015-04-30T13:23:06Z</time>
</trkpt>
<trkpt lat="34.7207503" lon="32.9890461">
<ele>165.60</ele>
<time>2015-04-30T13:23:07Z</time>
</trkpt>
<trkpt lat="34.7207000" lon="32.9890828">
<ele>165.68</ele>
<time>2015-04-30T13:23:08Z</time>
</trkpt>
<trkpt lat="34.7206464" lon="32.9891265">
<ele>165.72</ele>
<time>2015-04-30T13:23:09Z</time>
</trkpt>
<trkpt lat="34.7205942" lon="32.9891669">
<ele>166.74</ele>
<time>2015-04-30T13:23:10Z</time>
</trkpt>
<trkpt lat="34.7205445" lon="32.9892163">
<ele>167.75</ele>
<time>2015-04-30T13:23:11Z</time>
</trkpt>
<trkpt lat="34.7204959" lon="32.9892598">
<ele>167.76</ele>
<time>2015-04-30T13:23:12Z</time>
</trkpt>
<trkpt lat="34.7204485" lon="32.9893058">
<ele>168.26</ele>
<time>2015-04-30T13:23:13Z</time>
</trkpt>
<trkpt lat="34.7204053" lon="32.9893588">
<ele>168.01</ele>
<time>2015-04-30T13:23:14Z</time>
</trkpt>
<trkpt lat="34.7203616" lon="32.9894127">
<ele>167.88</ele>
<time>2015-04-30T13:23:15Z</time>
</trkpt>
<trkpt lat="34.7203184" lon="32.9894589">
<ele>167.82</ele>
<time>2015-04-30T13:23:16Z</time>
</trkpt>
<trkpt lat="34.7202697" lon="32.9895046">
<ele>168.29</ele>
<time>2015-04-30T13:23:17Z</time>
</trkpt>
<trkpt lat="34.7202238" lon="32.9895577">
<ele>168.03</ele>
<time>2015-04-30T13:23:18Z</time>
</trkpt>
<trkpt lat="34.7201806" lon="32.9896113">
<ele>167.89</ele>
<time>2015-04-30T13:23:19Z</time>
</trkpt>
<trkpt lat="34.7201260" lon="32.9896619">
<ele>168.33</ele>
<time>2015-04-30T13:23:20Z</time>
</trkpt>
<trkpt lat="34.7200806" lon="32.9897116">
<ele>168.54</ele>
<time>2015-04-30T13:23:21Z</time>
</trkpt>
<trkpt lat="34.7200368" lon="32.9897663">
<ele>168.65</ele>
<time>2015-04-30T13:23:22Z</time>
</trkpt>
<trkpt lat="34.7200001" lon="32.9898171">
<ele>169.21</ele>
<time>2015-04-30T13:23:23Z</time>
</trkpt>
<trkpt lat="34.7199606" lon="32.9898717">
<ele>169.48</ele>
<time>2015-04-30T13:23:24Z</time>
</trkpt>
<trkpt lat="34.7199166" lon="32.9899222">
<ele>169.62</ele>
<time>2015-04-30T13:23:25Z</time>
</trkpt>
<trkpt lat="34.7198762" lon="32.9899682">
<ele>169.69</ele>
<time>2015-04-30T13:23:26Z</time>
</trkpt>
<trkpt lat="34.7198309" lon="32.9900153">
<ele>169.73</ele>
<time>2015-04-30T13:23:27Z</time>
</trkpt>
<trkpt lat="34.7197777" lon="32.9900659">
<ele>169.24</ele>
<time>2015-04-30T13:23:28Z</time>
</trkpt>
<trkpt lat="34.7197364" lon="32.9901036">
<ele>169.00</ele>
<time>2015-04-30T13:23:29Z</time>
</trkpt>
<trkpt lat="34.7196961" lon="32.9901409">
<ele>167.88</ele>
<time>2015-04-30T13:23:30Z</time>
</trkpt>
<trkpt lat="34.7196440" lon="32.9901818">
<ele>167.82</ele>
<time>2015-04-30T13:23:31Z</time>
</trkpt>
<trkpt lat="34.7195892" lon="32.9902246">
<ele>167.79</ele>
<time>2015-04-30T13:23:32Z</time>
</trkpt>
<trkpt lat="34.7195379" lon="32.9902730">
<ele>167.28</ele>
<time>2015-04-30T13:23:33Z</time>
</trkpt>
<trkpt lat="34.7194890" lon="32.9903213">
<ele>167.52</ele>
<time>2015-04-30T13:23:34Z</time>
</trkpt>
<trkpt lat="34.7194277" lon="32.9903593">
<ele>168.64</ele>
<time>2015-04-30T13:23:35Z</time>
</trkpt>
<trkpt lat="34.7193652" lon="32.9903972">
<ele>169.70</ele>
<time>2015-04-30T13:23:36Z</time>
</trkpt>
<trkpt lat="34.7193148" lon="32.9904295">
<ele>170.23</ele>
<time>2015-04-30T13:23:37Z</time>
</trkpt>
<trkpt lat="34.7192673" lon="32.9904673">
<ele>170.99</ele>
<time>2015-04-30T13:23:38Z</time>
</trkpt>
<trkpt lat="34.7192232" lon="32.9904949">
<ele>170.88</ele>
<time>2015-04-30T13:23:39Z</time>
</trkpt>
<trkpt lat="34.7191680" lon="32.9905294">
<ele>170.82</ele>
<time>2015-04-30T13:23:40Z</time>
</trkpt>
<trkpt lat="34.7191165" lon="32.9905561">
<ele>170.79</ele>
<time>2015-04-30T13:23:41Z</time>
</trkpt>
<trkpt lat="34.7190620" lon="32.9905795">
<ele>170.27</ele>
<time>2015-04-30T13:23:42Z</time>
</trkpt>
<trkpt lat="34.7189982" lon="32.9906004">
<ele>170.52</ele>
<time>2015-04-30T13:23:43Z</time>
</trkpt>
<trkpt lat="34.7189385" lon="32.9906170">
<ele>170.14</ele>
<time>2015-04-30T13:23:44Z</time>
</trkpt>
<trkpt lat="34.7188864" lon="32.9906444">
<ele>169.45</ele>
<time>2015-04-30T13:23:45Z</time>
</trkpt>
<trkpt lat="34.7188267" lon="32.9906720">
<ele>169.10</ele>
<time>2015-04-30T13:23:46Z</time>
</trkpt>
<trkpt lat="34.7187744" lon="32.9906963">
<ele>168.43</ele>
<time>2015-04-30T13:23:47Z</time>
</trkpt>
<trkpt lat="34.7187169" lon="32.9907188">
<ele>168.10</ele>
<time>2015-04-30T13:23:48Z</time>
</trkpt>
<trkpt lat="34.7186572" lon="32.9907406">
<ele>168.93</ele>
<time>2015-04-30T13:23:49Z</time>
</trkpt>
<trkpt lat="34.7186023" lon="32.9907601">
<ele>168.84</ele>
<time>2015-04-30T13:23:50Z</time>
</trkpt>
<trkpt lat="34.7185387" lon="32.9907759">
<ele>168.80</ele>
<time>2015-04-30T13:23:51Z</time>
</trkpt>
<trkpt lat="34.7184776" lon="32.9907988">
<ele>168.78</ele>
<time>2015-04-30T13:23:52Z</time>
</trkpt>
<trkpt lat="34.7184285" lon="32.9908259">
<ele>168.27</ele>
<time>2015-04-30T13:23:53Z</time>
</trkpt>
<trkpt lat="34.7183757" lon="32.9908527">
<ele>168.52</ele>
<time>2015-04-30T13:23:54Z</time>
</trkpt>
<trkpt lat="34.7183234" lon="32.9908860">
<ele>168.14</ele>
<time>2015-04-30T13:23:55Z</time>
</trkpt>
<trkpt lat="34.7182660" lon="32.9909213">
<ele>167.45</ele>
<time>2015-04-30T13:23:56Z</time>
</trkpt>
<trkpt lat="34.7182141" lon="32.9909554">
<ele>167.10</ele>
<time>2015-04-30T13:23:57Z</time>
</trkpt>
<trkpt lat="34.7181625" lon="32.9909967">
<ele>166.43</ele>
<time>2015-04-30T13:23:58Z</time>
</trkpt>
<trkpt lat="34.7181052" lon="32.9910290">
<ele>166.10</ele>
<time>2015-04-30T13:23:59Z</time>
</trkpt>
<trkpt lat="34.7180564" lon="32.9910656">
<ele>165.43</ele>
<time>2015-04-30T13:24:00Z</time>
</trkpt>
<trkpt lat="34.7180038" lon="32.9910974">
<ele>165.09</ele>
<time>2015-04-30T13:24:01Z</time>
</trkpt>
<trkpt lat="34.7179525" lon="32.9911320">
<ele>164.93</ele>
<time>2015-04-30T13:24:02Z</time>
</trkpt>
<trkpt lat="34.7179008" lon="32.9911717">
<ele>164.34</ele>
<time>2015-04-30T13:24:03Z</time>
</trkpt>
<trkpt lat="34.7178383" lon="32.9912177">
<ele>164.05</ele>
<time>2015-04-30T13:24:04Z</time>
</trkpt>
<trkpt lat="34.7177838" lon="32.9912571">
<ele>164.91</ele>
<time>2015-04-30T13:24:05Z</time>
</trkpt>
<trkpt lat="34.7177323" lon="32.9912952">
<ele>165.33</ele>
<time>2015-04-30T13:24:06Z</time>
</trkpt>
<trkpt lat="34.7176846" lon="32.9913420">
<ele>165.05</ele>
<time>2015-04-30T13:24:07Z</time>
</trkpt>
<trkpt lat="34.7176352" lon="32.9913877">
<ele>164.40</ele>
<time>2015-04-30T13:24:08Z</time>
</trkpt>
<trkpt lat="34.7175812" lon="32.9914369">
<ele>163.58</ele>
<time>2015-04-30T13:24:09Z</time>
</trkpt>
<trkpt lat="34.7175407" lon="32.9914888">
<ele>163.17</ele>
<time>2015-04-30T13:24:10Z</time>
</trkpt>
<trkpt lat="34.7174963" lon="32.9915451">
<ele>161.97</ele>
<time>2015-04-30T13:24:11Z</time>
</trkpt>
<trkpt lat="34.7174500" lon="32.9915993">
<ele>161.36</ele>
<time>2015-04-30T13:24:12Z</time>
</trkpt>
<trkpt lat="34.7174070" lon="32.9916432">
<ele>161.06</ele>
<time>2015-04-30T13:24:13Z</time>
</trkpt>
<trkpt lat="34.7173660" lon="32.9916896">
<ele>160.91</ele>
<time>2015-04-30T13:24:14Z</time>
</trkpt>
<trkpt lat="34.7173188" lon="32.9917424">
<ele>160.34</ele>
<time>2015-04-30T13:24:15Z</time>
</trkpt>
<trkpt lat="34.7172780" lon="32.9917955">
<ele>159.55</ele>
<time>2015-04-30T13:24:16Z</time>
</trkpt>
<trkpt lat="34.7172383" lon="32.9918514">
<ele>158.65</ele>
<time>2015-04-30T13:24:17Z</time>
</trkpt>
<trkpt lat="34.7172065" lon="32.9919089">
<ele>158.21</ele>
<time>2015-04-30T13:24:18Z</time>
</trkpt>
<trkpt lat="34.7171676" lon="32.9919700">
<ele>157.48</ele>
<time>2015-04-30T13:24:19Z</time>
</trkpt>
<trkpt lat="34.7171270" lon="32.9920353">
<ele>156.62</ele>
<time>2015-04-30T13:24:20Z</time>
</trkpt>
<trkpt lat="34.7170901" lon="32.9920952">
<ele>155.69</ele>
<time>2015-04-30T13:24:21Z</time>
</trkpt>
<trkpt lat="34.7170608" lon="32.9921502">
<ele>154.73</ele>
<time>2015-04-30T13:24:22Z</time>
</trkpt>
<trkpt lat="34.7170275" lon="32.9922005">
<ele>154.24</ele>
<time>2015-04-30T13:24:23Z</time>
</trkpt>
<trkpt lat="34.7169977" lon="32.9922609">
<ele>153.50</ele>
<time>2015-04-30T13:24:24Z</time>
</trkpt>
<trkpt lat="34.7169723" lon="32.9923308">
<ele>153.13</ele>
<time>2015-04-30T13:24:25Z</time>
</trkpt>
<trkpt lat="34.7169364" lon="32.9923967">
<ele>152.95</ele>
<time>2015-04-30T13:24:26Z</time>
</trkpt>
<trkpt lat="34.7169051" lon="32.9924601">
<ele>152.85</ele>
<time>2015-04-30T13:24:27Z</time>
</trkpt>
<trkpt lat="34.7168766" lon="32.9925230">
<ele>152.31</ele>
<time>2015-04-30T13:24:28Z</time>
</trkpt>
<trkpt lat="34.7168461" lon="32.9925842">
<ele>152.03</ele>
<time>2015-04-30T13:24:29Z</time>
</trkpt>
<trkpt lat="34.7168107" lon="32.9926494">
<ele>151.90</ele>
<time>2015-04-30T13:24:30Z</time>
</trkpt>
<trkpt lat="34.7167813" lon="32.9927213">
<ele>151.83</ele>
<time>2015-04-30T13:24:31Z</time>
</trkpt>
<trkpt lat="34.7167454" lon="32.9927970">
<ele>151.29</ele>
<time>2015-04-30T13:24:32Z</time>
</trkpt>
<trkpt lat="34.7167127" lon="32.9929006">
<ele>151.03</ele>
<time>2015-04-30T13:24:33Z</time>
</trkpt>
<trkpt lat="34.7166759" lon="32.9930033">
<ele>150.39</ele>
<time>2015-04-30T13:24:34Z</time>
</trkpt>
<trkpt lat="34.7166459" lon="32.9931045">
<ele>150.08</ele>
<time>2015-04-30T13:24:35Z</time>
</trkpt>
<trkpt lat="34.7166222" lon="32.9932193">
<ele>149.42</ele>
<time>2015-04-30T13:24:36Z</time>
</trkpt>
<trkpt lat="34.7165881" lon="32.9933259">
<ele>149.59</ele>
<time>2015-04-30T13:24:37Z</time>
</trkpt>
<trkpt lat="34.7165420" lon="32.9934331">
<ele>149.67</ele>
<time>2015-04-30T13:24:38Z</time>
</trkpt>
<trkpt lat="34.7165057" lon="32.9935355">
<ele>150.22</ele>
<time>2015-04-30T13:24:39Z</time>
</trkpt>
<trkpt lat="34.7164660" lon="32.9936465">
<ele>150.49</ele>
<time>2015-04-30T13:24:40Z</time>
</trkpt>
<trkpt lat="34.7164159" lon="32.9937638">
<ele>150.62</ele>
<time>2015-04-30T13:24:41Z</time>
</trkpt>
<trkpt lat="34.7163680" lon="32.9938794">
<ele>150.69</ele>
<time>2015-04-30T13:24:42Z</time>
</trkpt>
<trkpt lat="34.7163247" lon="32.9940016">
<ele>150.73</ele>
<time>2015-04-30T13:24:43Z</time>
</trkpt>
<trkpt lat="34.7162764" lon="32.9941174">
<ele>150.74</ele>
<time>2015-04-30T13:24:44Z</time>
</trkpt>
<trkpt lat="34.7162367" lon="32.9942316">
<ele>151.25</ele>
<time>2015-04-30T13:24:45Z</time>
</trkpt>
<trkpt lat="34.7162047" lon="32.9943359">
<ele>151.01</ele>
<time>2015-04-30T13:24:46Z</time>
</trkpt>
<trkpt lat="34.7161682" lon="32.9944314">
<ele>150.88</ele>
<time>2015-04-30T13:24:47Z</time>
</trkpt>
<trkpt lat="34.7161248" lon="32.9945419">
<ele>150.82</ele>
<time>2015-04-30T13:24:48Z</time>
</trkpt>
<trkpt lat="34.7160820" lon="32.9946566">
<ele>150.29</ele>
<time>2015-04-30T13:24:49Z</time>
</trkpt>
<trkpt lat="34.7160337" lon="32.9947592">
<ele>150.03</ele>
<time>2015-04-30T13:24:50Z</time>
</trkpt>
<trkpt lat="34.7159808" lon="32.9948713">
<ele>149.89</ele>
<time>2015-04-30T13:24:51Z</time>
</trkpt>
<trkpt lat="34.7159294" lon="32.9949791">
<ele>149.33</ele>
<time>2015-04-30T13:24:52Z</time>
</trkpt>
<trkpt lat="34.7158745" lon="32.9950741">
<ele>149.54</ele>
<time>2015-04-30T13:24:53Z</time>
</trkpt>
<trkpt lat="34.7158237" lon="32.9951787">
<ele>149.65</ele>
<time>2015-04-30T13:24:54Z</time>
</trkpt>
<trkpt lat="34.7157689" lon="32.9952777">
<ele>149.21</ele>
<time>2015-04-30T13:24:55Z</time>
</trkpt>
<trkpt lat="34.7157054" lon="32.9953815">
<ele>148.98</ele>
<time>2015-04-30T13:24:56Z</time>
</trkpt>
<trkpt lat="34.7156398" lon="32.9954881">
<ele>147.87</ele>
<time>2015-04-30T13:24:57Z</time>
</trkpt>
<trkpt lat="34.7155767" lon="32.9955908">
<ele>147.32</ele>
<time>2015-04-30T13:24:58Z</time>
</trkpt>
<trkpt lat="34.7155022" lon="32.9956894">
<ele>146.54</ele>
<time>2015-04-30T13:24:59Z</time>
</trkpt>
<trkpt lat="34.7154281" lon="32.9957776">
<ele>145.15</ele>
<time>2015-04-30T13:25:00Z</time>
</trkpt>
<trkpt lat="34.7153531" lon="32.9958586">
<ele>143.45</ele>
<time>2015-04-30T13:25:01Z</time>
</trkpt>
<trkpt lat="34.7152843" lon="32.9959430">
<ele>142.61</ele>
<time>2015-04-30T13:25:02Z</time>
</trkpt>
<trkpt lat="34.7152088" lon="32.9960287">
<ele>141.68</ele>
<time>2015-04-30T13:25:03Z</time>
</trkpt>
<trkpt lat="34.7151178" lon="32.9961083">
<ele>141.72</ele>
<time>2015-04-30T13:25:04Z</time>
</trkpt>
<trkpt lat="34.7150328" lon="32.9961944">
<ele>141.24</ele>
<time>2015-04-30T13:25:05Z</time>
</trkpt>
<trkpt lat="34.7149502" lon="32.9962763">
<ele>141.00</ele>
<time>2015-04-30T13:25:06Z</time>
</trkpt>
<trkpt lat="34.7148654" lon="32.9963540">
<ele>140.88</ele>
<time>2015-04-30T13:25:07Z</time>
</trkpt>
<trkpt lat="34.7147726" lon="32.9964348">
<ele>140.32</ele>
<time>2015-04-30T13:25:08Z</time>
</trkpt>
<trkpt lat="34.7146928" lon="32.9965026">
<ele>140.04</ele>
<time>2015-04-30T13:25:09Z</time>
</trkpt>
<trkpt lat="34.7146232" lon="32.9965653">
<ele>138.90</ele>
<time>2015-04-30T13:25:10Z</time>
</trkpt>
<trkpt lat="34.7145584" lon="32.9966166">
<ele>138.83</ele>
<time>2015-04-30T13:25:11Z</time>
</trkpt>
<trkpt lat="34.7145154" lon="32.9966425">
<ele>138.80</ele>
<time>2015-04-30T13:25:12Z</time>
</trkpt>
<trkpt lat="34.7144591" lon="32.9966809">
<ele>139.01</ele>
<time>2015-04-30T13:25:15Z</time>
</trkpt>
<trkpt lat="34.7144043" lon="32.9967136">
<ele>139.29</ele>
<time>2015-04-30T13:25:18Z</time>
</trkpt>
<trkpt lat="34.7143526" lon="32.9967441">
<ele>139.39</ele>
<time>2015-04-30T13:25:20Z</time>
</trkpt>
<trkpt lat="34.7143043" lon="32.9967770">
<ele>138.92</ele>
<time>2015-04-30T13:25:22Z</time>
</trkpt>
<trkpt lat="34.7142346" lon="32.9968142">
<ele>138.05</ele>
<time>2015-04-30T13:25:24Z</time>
</trkpt>
<trkpt lat="34.7141848" lon="32.9968409">
<ele>136.90</ele>
<time>2015-04-30T13:25:25Z</time>
</trkpt>
<trkpt lat="34.7141352" lon="32.9968637">
<ele>136.83</ele>
<time>2015-04-30T13:25:26Z</time>
</trkpt>
<trkpt lat="34.7140817" lon="32.9968963">
<ele>136.30</ele>
<time>2015-04-30T13:25:27Z</time>
</trkpt>
<trkpt lat="34.7140221" lon="32.9969408">
<ele>135.53</ele>
<time>2015-04-30T13:25:28Z</time>
</trkpt>
<trkpt lat="34.7139563" lon="32.9969801">
<ele>134.64</ele>
<time>2015-04-30T13:25:29Z</time>
</trkpt>
<trkpt lat="34.7138887" lon="32.9970223">
<ele>133.70</ele>
<time>2015-04-30T13:25:30Z</time>
</trkpt>
<trkpt lat="34.7138195" lon="32.9970706">
<ele>133.73</ele>
<time>2015-04-30T13:25:31Z</time>
</trkpt>
<trkpt lat="34.7137468" lon="32.9971144">
<ele>133.25</ele>
<time>2015-04-30T13:25:32Z</time>
</trkpt>
<trkpt lat="34.7136758" lon="32.9971587">
<ele>132.50</ele>
<time>2015-04-30T13:25:33Z</time>
</trkpt>
<trkpt lat="34.7135970" lon="32.9972002">
<ele>131.63</ele>
<time>2015-04-30T13:25:34Z</time>
</trkpt>
<trkpt lat="34.7135241" lon="32.9972509">
<ele>131.20</ele>
<time>2015-04-30T13:25:35Z</time>
</trkpt>
<trkpt lat="34.7134482" lon="32.9972998">
<ele>130.48</ele>
<time>2015-04-30T13:25:36Z</time>
</trkpt>
<trkpt lat="34.7133744" lon="32.9973473">
<ele>129.62</ele>
<time>2015-04-30T13:25:37Z</time>
</trkpt>
<trkpt lat="34.7132972" lon="32.9973930">
<ele>128.69</ele>
<time>2015-04-30T13:25:38Z</time>
</trkpt>
<trkpt lat="34.7132209" lon="32.9974416">
<ele>128.22</ele>
<time>2015-04-30T13:25:39Z</time>
</trkpt>
<trkpt lat="34.7131422" lon="32.9974939">
<ele>127.49</ele>
<time>2015-04-30T13:25:40Z</time>
</trkpt>
<trkpt lat="34.7130681" lon="32.9975372">
<ele>126.13</ele>
<time>2015-04-30T13:25:41Z</time>
</trkpt>
<trkpt lat="34.7129940" lon="32.9975829">
<ele>124.44</ele>
<time>2015-04-30T13:25:42Z</time>
</trkpt>
<trkpt lat="34.7129184" lon="32.9976310">
<ele>123.10</ele>
<time>2015-04-30T13:25:43Z</time>
</trkpt>
<trkpt lat="34.7128374" lon="32.9976851">
<ele>122.43</ele>
<time>2015-04-30T13:25:44Z</time>
</trkpt>
<trkpt lat="34.7127577" lon="32.9977396">
<ele>122.10</ele>
<time>2015-04-30T13:25:45Z</time>
</trkpt>
<trkpt lat="34.7126844" lon="32.9977838">
<ele>121.43</ele>
<time>2015-04-30T13:25:46Z</time>
</trkpt>
<trkpt lat="34.7126094" lon="32.9978318">
<ele>121.09</ele>
<time>2015-04-30T13:25:47Z</time>
</trkpt>
<trkpt lat="34.7125357" lon="32.9978793">
<ele>120.93</ele>
<time>2015-04-30T13:25:48Z</time>
</trkpt>
<trkpt lat="34.7124640" lon="32.9979251">
<ele>120.34</ele>
<time>2015-04-30T13:25:49Z</time>
</trkpt>
<trkpt lat="34.7123833" lon="32.9979704">
<ele>121.05</ele>
<time>2015-04-30T13:25:50Z</time>
</trkpt>
<trkpt lat="34.7123090" lon="32.9980177">
<ele>120.41</ele>
<time>2015-04-30T13:25:51Z</time>
</trkpt>
<trkpt lat="34.7122408" lon="32.9980653">
<ele>119.58</ele>
<time>2015-04-30T13:25:52Z</time>
</trkpt>
<trkpt lat="34.7121754" lon="32.9981075">
<ele>119.17</ele>
<time>2015-04-30T13:25:53Z</time>
</trkpt>
<trkpt lat="34.7121043" lon="32.9981574">
<ele>118.97</ele>
<time>2015-04-30T13:25:54Z</time>
</trkpt>
<trkpt lat="34.7120422" lon="32.9982214">
<ele>118.36</ele>
<time>2015-04-30T13:25:55Z</time>
</trkpt>
<trkpt lat="34.7119707" lon="32.9982709">
<ele>118.56</ele>
<time>2015-04-30T13:25:56Z</time>
</trkpt>
<trkpt lat="34.7118998" lon="32.9983252">
<ele>118.16</ele>
<time>2015-04-30T13:25:57Z</time>
</trkpt>
<trkpt lat="34.7118346" lon="32.9983721">
<ele>117.46</ele>
<time>2015-04-30T13:25:58Z</time>
</trkpt>
<trkpt lat="34.7117678" lon="32.9984153">
<ele>117.11</ele>
<time>2015-04-30T13:25:59Z</time>
</trkpt>
<trkpt lat="34.7116925" lon="32.9984599">
<ele>116.44</ele>
<time>2015-04-30T13:26:00Z</time>
</trkpt>
<trkpt lat="34.7116185" lon="32.9984957">
<ele>116.10</ele>
<time>2015-04-30T13:26:01Z</time>
</trkpt>
<trkpt lat="34.7115465" lon="32.9985409">
<ele>115.43</ele>
<time>2015-04-30T13:26:02Z</time>
</trkpt>
<trkpt lat="34.7114734" lon="32.9985851">
<ele>114.59</ele>
<time>2015-04-30T13:26:03Z</time>
</trkpt>
<trkpt lat="34.7113993" lon="32.9986277">
<ele>113.68</ele>
<time>2015-04-30T13:26:04Z</time>
</trkpt>
<trkpt lat="34.7113295" lon="32.9986713">
<ele>113.22</ele>
<time>2015-04-30T13:26:05Z</time>
</trkpt>
<trkpt lat="34.7112552" lon="32.9987159">
<ele>112.99</ele>
<time>2015-04-30T13:26:06Z</time>
</trkpt>
<trkpt lat="34.7111830" lon="32.9987664">
<ele>113.37</ele>
<time>2015-04-30T13:26:07Z</time>
</trkpt>
<trkpt lat="34.7111137" lon="32.9988134">
<ele>113.57</ele>
<time>2015-04-30T13:26:08Z</time>
</trkpt>
<trkpt lat="34.7110464" lon="32.9988630">
<ele>113.16</ele>
<time>2015-04-30T13:26:09Z</time>
</trkpt>
<trkpt lat="34.7109651" lon="32.9989169">
<ele>112.96</ele>
<time>2015-04-30T13:26:10Z</time>
</trkpt>
<trkpt lat="34.7108929" lon="32.9989735">
<ele>112.86</ele>
<time>2015-04-30T13:26:11Z</time>
</trkpt>
<trkpt lat="34.7108157" lon="32.9990305">
<ele>112.31</ele>
<time>2015-04-30T13:26:12Z</time>
</trkpt>
<trkpt lat="34.7107424" lon="32.9990814">
<ele>112.04</ele>
<time>2015-04-30T13:26:13Z</time>
</trkpt>
<trkpt lat="34.7106736" lon="32.9991403">
<ele>111.40</ele>
<time>2015-04-30T13:26:14Z</time>
</trkpt>
<trkpt lat="34.7106022" lon="32.9991913">
<ele>111.08</ele>
<time>2015-04-30T13:26:15Z</time>
</trkpt>
<trkpt lat="34.7105277" lon="32.9992439">
<ele>111.42</ele>
<time>2015-04-30T13:26:16Z</time>
</trkpt>
<trkpt lat="34.7104591" lon="32.9992879">
<ele>111.09</ele>
<time>2015-04-30T13:26:17Z</time>
</trkpt>
<trkpt lat="34.7103934" lon="32.9993375">
<ele>111.42</ele>
<time>2015-04-30T13:26:18Z</time>
</trkpt>
<trkpt lat="34.7103305" lon="32.9993827">
<ele>111.59</ele>
<time>2015-04-30T13:26:19Z</time>
</trkpt>
<trkpt lat="34.7102621" lon="32.9994299">
<ele>112.18</ele>
<time>2015-04-30T13:26:20Z</time>
</trkpt>
<trkpt lat="34.7101918" lon="32.9994655">
<ele>112.97</ele>
<time>2015-04-30T13:26:21Z</time>
</trkpt>
<trkpt lat="34.7101271" lon="32.9995019">
<ele>112.86</ele>
<time>2015-04-30T13:26:22Z</time>
</trkpt>
<trkpt lat="34.7100596" lon="32.9995453">
<ele>113.31</ele>
<time>2015-04-30T13:26:23Z</time>
</trkpt>
<trkpt lat="34.7099985" lon="32.9995864">
<ele>113.04</ele>
<time>2015-04-30T13:26:24Z</time>
</trkpt>
<trkpt lat="34.7099446" lon="32.9996336">
<ele>112.40</ele>
<time>2015-04-30T13:26:25Z</time>
</trkpt>
<trkpt lat="34.7098900" lon="32.9996749">
<ele>111.58</ele>
<time>2015-04-30T13:26:26Z</time>
</trkpt>
<trkpt lat="34.7098308" lon="32.9997135">
<ele>110.67</ele>
<time>2015-04-30T13:26:27Z</time>
</trkpt>
<trkpt lat="34.7097667" lon="32.9997483">
<ele>110.21</ele>
<time>2015-04-30T13:26:28Z</time>
</trkpt>
<trkpt lat="34.7097115" lon="32.9997891">
<ele>109.49</ele>
<time>2015-04-30T13:26:29Z</time>
</trkpt>
<trkpt lat="34.7096502" lon="32.9998247">
<ele>108.12</ele>
<time>2015-04-30T13:26:30Z</time>
</trkpt>
<trkpt lat="34.7095833" lon="32.9998664">
<ele>107.44</ele>
<time>2015-04-30T13:26:31Z</time>
</trkpt>
<trkpt lat="34.7095076" lon="32.9999251">
<ele>106.60</ele>
<time>2015-04-30T13:26:32Z</time>
</trkpt>
<trkpt lat="34.7094253" lon="32.9999776">
<ele>106.68</ele>
<time>2015-04-30T13:26:33Z</time>
</trkpt>
<trkpt lat="34.7093466" lon="33.0000325">
<ele>106.72</ele>
<time>2015-04-30T13:26:34Z</time>
</trkpt>
<trkpt lat="34.7092699" lon="33.0000882">
<ele>106.74</ele>
<time>2015-04-30T13:26:35Z</time>
</trkpt>
<trkpt lat="34.7091956" lon="33.0001447">
<ele>106.75</ele>
<time>2015-04-30T13:26:36Z</time>
</trkpt>
<trkpt lat="34.7091244" lon="33.0002067">
<ele>106.26</ele>
<time>2015-04-30T13:26:37Z</time>
</trkpt>
<trkpt lat="34.7090612" lon="33.0002655">
<ele>105.51</ele>
<time>2015-04-30T13:26:38Z</time>
</trkpt>
<trkpt lat="34.7089977" lon="33.0003185">
<ele>104.13</ele>
<time>2015-04-30T13:26:39Z</time>
</trkpt>
<trkpt lat="34.7089251" lon="33.0003790">
<ele>103.45</ele>
<time>2015-04-30T13:26:40Z</time>
</trkpt>
<trkpt lat="34.7088518" lon="33.0004361">
<ele>103.10</ele>
<time>2015-04-30T13:26:41Z</time>
</trkpt>
<trkpt lat="34.7087817" lon="33.0004884">
<ele>102.43</ele>
<time>2015-04-30T13:26:42Z</time>
</trkpt>
<trkpt lat="34.7087201" lon="33.0005374">
<ele>102.10</ele>
<time>2015-04-30T13:26:43Z</time>
</trkpt>
<trkpt lat="34.7086483" lon="33.0005908">
<ele>101.93</ele>
<time>2015-04-30T13:26:44Z</time>
</trkpt>
<trkpt lat="34.7085797" lon="33.0006370">
<ele>101.84</ele>
<time>2015-04-30T13:26:45Z</time>
</trkpt>
<trkpt lat="34.7085106" lon="33.0006951">
<ele>102.30</ele>
<time>2015-04-30T13:26:46Z</time>
</trkpt>
<trkpt lat="34.7084413" lon="33.0007486">
<ele>102.53</ele>
<time>2015-04-30T13:26:47Z</time>
</trkpt>
<trkpt lat="34.7083688" lon="33.0008029">
<ele>102.15</ele>
<time>2015-04-30T13:26:48Z</time>
</trkpt>
<trkpt lat="34.7083010" lon="33.0008562">
<ele>101.95</ele>
<time>2015-04-30T13:26:49Z</time>
</trkpt>
<trkpt lat="34.7082286" lon="33.0009183">
<ele>102.36</ele>
<time>2015-04-30T13:26:50Z</time>
</trkpt>
<trkpt lat="34.7081594" lon="33.0009636">
<ele>102.06</ele>
<time>2015-04-30T13:26:51Z</time>
</trkpt>
<trkpt lat="34.7080906" lon="33.0010178">
<ele>101.41</ele>
<time>2015-04-30T13:26:52Z</time>
</trkpt>
<trkpt lat="34.7080249" lon="33.0010712">
<ele>101.58</ele>
<time>2015-04-30T13:26:53Z</time>
</trkpt>
<trkpt lat="34.7079544" lon="33.0011286">
<ele>101.67</ele>
<time>2015-04-30T13:26:54Z</time>
</trkpt>
<trkpt lat="34.7078921" lon="33.0011839">
<ele>101.22</ele>
<time>2015-04-30T13:26:55Z</time>
</trkpt>
<trkpt lat="34.7078242" lon="33.0012388">
<ele>100.99</ele>
<time>2015-04-30T13:26:56Z</time>
</trkpt>
<trkpt lat="34.7077591" lon="33.0012920">
<ele>100.87</ele>
<time>2015-04-30T13:26:57Z</time>
</trkpt>
<trkpt lat="34.7076882" lon="33.0013479">
<ele>101.32</ele>
<time>2015-04-30T13:26:58Z</time>
</trkpt>
<trkpt lat="34.7076270" lon="33.0013988">
<ele>101.54</ele>
<time>2015-04-30T13:26:59Z</time>
</trkpt>
<trkpt lat="34.7075550" lon="33.0014587">
<ele>101.65</ele>
<time>2015-04-30T13:27:00Z</time>
</trkpt>
<trkpt lat="34.7074843" lon="33.0015175">
<ele>102.20</ele>
<time>2015-04-30T13:27:01Z</time>
</trkpt>
<trkpt lat="34.7074241" lon="33.0015718">
<ele>101.98</ele>
<time>2015-04-30T13:27:02Z</time>
</trkpt>
<trkpt lat="34.7073602" lon="33.0016298">
<ele>101.37</ele>
<time>2015-04-30T13:27:03Z</time>
</trkpt>
<trkpt lat="34.7072972" lon="33.0016809">
<ele>101.07</ele>
<time>2015-04-30T13:27:04Z</time>
</trkpt>
<trkpt lat="34.7072348" lon="33.0017371">
<ele>101.41</ele>
<time>2015-04-30T13:27:05Z</time>
</trkpt>
<trkpt lat="34.7071767" lon="33.0017891">
<ele>101.59</ele>
<time>2015-04-30T13:27:06Z</time>
</trkpt>
<trkpt lat="34.7071107" lon="33.0018459">
<ele>102.17</ele>
<time>2015-04-30T13:27:07Z</time>
</trkpt>
<trkpt lat="34.7070375" lon="33.0019012">
<ele>102.97</ele>
<time>2015-04-30T13:27:08Z</time>
</trkpt>
<trkpt lat="34.7069786" lon="33.0019554">
<ele>102.36</ele>
<time>2015-04-30T13:27:09Z</time>
</trkpt>
<trkpt lat="34.7069099" lon="33.0020082">
<ele>102.06</ele>
<time>2015-04-30T13:27:10Z</time>
</trkpt>
<trkpt lat="34.7068421" lon="33.0020588">
<ele>101.91</ele>
<time>2015-04-30T13:27:11Z</time>
</trkpt>
<trkpt lat="34.7067695" lon="33.0021166">
<ele>101.84</ele>
<time>2015-04-30T13:27:12Z</time>
</trkpt>
<trkpt lat="34.7067026" lon="33.0021744">
<ele>101.80</ele>
<time>2015-04-30T13:27:13Z</time>
</trkpt>
<trkpt lat="34.7066416" lon="33.0022333">
<ele>101.78</ele>
<time>2015-04-30T13:27:14Z</time>
</trkpt>
<trkpt lat="34.7065805" lon="33.0022856">
<ele>101.27</ele>
<time>2015-04-30T13:27:15Z</time>
</trkpt>
<trkpt lat="34.7065165" lon="33.0023496">
<ele>101.01</ele>
<time>2015-04-30T13:27:16Z</time>
</trkpt>
<trkpt lat="34.7064506" lon="33.0024038">
<ele>100.89</ele>
<time>2015-04-30T13:27:17Z</time>
</trkpt>
<trkpt lat="34.7063953" lon="33.0024539">
<ele>100.82</ele>
<time>2015-04-30T13:27:18Z</time>
</trkpt>
<trkpt lat="34.7063390" lon="33.0025086">
<ele>100.29</ele>
<time>2015-04-30T13:27:19Z</time>
</trkpt>
<trkpt lat="34.7062857" lon="33.0025678">
<ele>98.03</ele>
<time>2015-04-30T13:27:20Z</time>
</trkpt>
<trkpt lat="34.7062181" lon="33.0026237">
<ele>96.89</ele>
<time>2015-04-30T13:27:21Z</time>
</trkpt>
<trkpt lat="34.7061587" lon="33.0026782">
<ele>96.33</ele>
<time>2015-04-30T13:27:22Z</time>
</trkpt>
<trkpt lat="34.7060937" lon="33.0027289">
<ele>95.54</ele>
<time>2015-04-30T13:27:23Z</time>
</trkpt>
<trkpt lat="34.7060323" lon="33.0027799">
<ele>94.65</ele>
<time>2015-04-30T13:27:24Z</time>
</trkpt>
<trkpt lat="34.7059728" lon="33.0028319">
<ele>95.21</ele>
<time>2015-04-30T13:27:25Z</time>
</trkpt>
<trkpt lat="34.7059121" lon="33.0028761">
<ele>94.48</ele>
<time>2015-04-30T13:27:26Z</time>
</trkpt>
<trkpt lat="34.7058507" lon="33.0029264">
<ele>94.12</ele>
<time>2015-04-30T13:27:27Z</time>
</trkpt>
<trkpt lat="34.7057752" lon="33.0029760">
<ele>94.44</ele>
<time>2015-04-30T13:27:28Z</time>
</trkpt>
<trkpt lat="34.7057175" lon="33.0030222">
<ele>94.60</ele>
<time>2015-04-30T13:27:29Z</time>
</trkpt>
<trkpt lat="34.7056501" lon="33.0030692">
<ele>95.18</ele>
<time>2015-04-30T13:27:30Z</time>
</trkpt>
<trkpt lat="34.7055920" lon="33.0031139">
<ele>95.47</ele>
<time>2015-04-30T13:27:31Z</time>
</trkpt>
<trkpt lat="34.7055258" lon="33.0031658">
<ele>96.12</ele>
<time>2015-04-30T13:27:32Z</time>
</trkpt>
<trkpt lat="34.7054704" lon="33.0032043">
<ele>95.94</ele>
<time>2015-04-30T13:27:33Z</time>
</trkpt>
<trkpt lat="34.7054161" lon="33.0032495">
<ele>96.35</ele>
<time>2015-04-30T13:27:34Z</time>
</trkpt>
<trkpt lat="34.7053562" lon="33.0032728">
<ele>97.05</ele>
<time>2015-04-30T13:27:35Z</time>
</trkpt>
<trkpt lat="34.7052954" lon="33.0033046">
<ele>97.41</ele>
<time>2015-04-30T13:27:36Z</time>
</trkpt>
<trkpt lat="34.7052376" lon="33.0033385">
<ele>97.58</ele>
<time>2015-04-30T13:27:37Z</time>
</trkpt>
<trkpt lat="34.7051796" lon="33.0033749">
<ele>98.67</ele>
<time>2015-04-30T13:27:38Z</time>
</trkpt>
<trkpt lat="34.7051245" lon="33.0034020">
<ele>99.22</ele>
<time>2015-04-30T13:27:39Z</time>
</trkpt>
<trkpt lat="34.7050695" lon="33.0034362">
<ele>99.99</ele>
<time>2015-04-30T13:27:40Z</time>
</trkpt>
<trkpt lat="34.7050222" lon="33.0034599">
<ele>100.37</ele>
<time>2015-04-30T13:27:41Z</time>
</trkpt>
<trkpt lat="34.7049691" lon="33.0034926">
<ele>101.07</ele>
<time>2015-04-30T13:27:42Z</time>
</trkpt>
<trkpt lat="34.7049186" lon="33.0035146">
<ele>101.41</ele>
<time>2015-04-30T13:27:43Z</time>
</trkpt>
<trkpt lat="34.7048673" lon="33.0035351">
<ele>101.59</ele>
<time>2015-04-30T13:27:44Z</time>
</trkpt>
<trkpt lat="34.7048161" lon="33.0035613">
<ele>101.67</ele>
<time>2015-04-30T13:27:45Z</time>
</trkpt>
<trkpt lat="34.7047537" lon="33.0035982">
<ele>102.72</ele>
<time>2015-04-30T13:27:46Z</time>
</trkpt>
<trkpt lat="34.7046946" lon="33.0036306">
<ele>103.24</ele>
<time>2015-04-30T13:27:47Z</time>
</trkpt>
<trkpt lat="34.7046312" lon="33.0036593">
<ele>103.50</ele>
<time>2015-04-30T13:27:48Z</time>
</trkpt>
<trkpt lat="34.7045767" lon="33.0036924">
<ele>102.63</ele>
<time>2015-04-30T13:27:49Z</time>
</trkpt>
<trkpt lat="34.7045266" lon="33.0037218">
<ele>102.69</ele>
<time>2015-04-30T13:27:50Z</time>
</trkpt>
<trkpt lat="34.7044674" lon="33.0037547">
<ele>102.73</ele>
<time>2015-04-30T13:27:51Z</time>
</trkpt>
<trkpt lat="34.7044088" lon="33.0037948">
<ele>102.24</ele>
<time>2015-04-30T13:27:52Z</time>
</trkpt>
<trkpt lat="34.7043551" lon="33.0038279">
<ele>101.00</ele>
<time>2015-04-30T13:27:53Z</time>
</trkpt>
<trkpt lat="34.7042900" lon="33.0038654">
<ele>100.38</ele>
<time>2015-04-30T13:27:54Z</time>
</trkpt>
<trkpt lat="34.7042271" lon="33.0038956">
<ele>99.07</ele>
<time>2015-04-30T13:27:55Z</time>
</trkpt>
<trkpt lat="34.7041620" lon="33.0039239">
<ele>97.92</ele>
<time>2015-04-30T13:27:56Z</time>
</trkpt>
<trkpt lat="34.7040999" lon="33.0039461">
<ele>96.84</ele>
<time>2015-04-30T13:27:57Z</time>
</trkpt>
<trkpt lat="34.7040429" lon="33.0039862">
<ele>96.80</ele>
<time>2015-04-30T13:27:58Z</time>
</trkpt>
<trkpt lat="34.7039806" lon="33.0040109">
<ele>96.28</ele>
<time>2015-04-30T13:27:59Z</time>
</trkpt>
<trkpt lat="34.7039161" lon="33.0040356">
<ele>95.52</ele>
<time>2015-04-30T13:28:00Z</time>
</trkpt>
<trkpt lat="34.7038582" lon="33.0040628">
<ele>94.64</ele>
<time>2015-04-30T13:28:01Z</time>
</trkpt>
<trkpt lat="34.7037997" lon="33.0040972">
<ele>94.70</ele>
<time>2015-04-30T13:28:02Z</time>
</trkpt>
<trkpt lat="34.7037441" lon="33.0041247">
<ele>94.73</ele>
<time>2015-04-30T13:28:03Z</time>
</trkpt>
<trkpt lat="34.7036859" lon="33.0041616">
<ele>94.74</ele>
<time>2015-04-30T13:28:04Z</time>
</trkpt>
<trkpt lat="34.7036328" lon="33.0041853">
<ele>94.75</ele>
<time>2015-04-30T13:28:05Z</time>
</trkpt>
<trkpt lat="34.7035769" lon="33.0042249">
<ele>95.26</ele>
<time>2015-04-30T13:28:06Z</time>
</trkpt>
<trkpt lat="34.7035185" lon="33.0042586">
<ele>95.51</ele>
<time>2015-04-30T13:28:07Z</time>
</trkpt>
<trkpt lat="34.7034570" lon="33.0042872">
<ele>95.63</ele>
<time>2015-04-30T13:28:08Z</time>
</trkpt>
<trkpt lat="34.7033977" lon="33.0043183">
<ele>94.70</ele>
<time>2015-04-30T13:28:09Z</time>
</trkpt>
<trkpt lat="34.7033357" lon="33.0043460">
<ele>94.73</ele>
<time>2015-04-30T13:28:10Z</time>
</trkpt>
<trkpt lat="34.7032713" lon="33.0043718">
<ele>94.24</ele>
<time>2015-04-30T13:28:11Z</time>
</trkpt>
<trkpt lat="34.7032057" lon="33.0044100">
<ele>94.00</ele>
<time>2015-04-30T13:28:12Z</time>
</trkpt>
<trkpt lat="34.7031439" lon="33.0044354">
<ele>93.88</ele>
<time>2015-04-30T13:28:13Z</time>
</trkpt>
<trkpt lat="34.7030809" lon="33.0044724">
<ele>93.82</ele>
<time>2015-04-30T13:28:14Z</time>
</trkpt>
<trkpt lat="34.7030204" lon="33.0045056">
<ele>93.29</ele>
<time>2015-04-30T13:28:15Z</time>
</trkpt>
<trkpt lat="34.7029534" lon="33.0045318">
<ele>93.03</ele>
<time>2015-04-30T13:28:16Z</time>
</trkpt>
<trkpt lat="34.7028905" lon="33.0045597">
<ele>92.39</ele>
<time>2015-04-30T13:28:17Z</time>
</trkpt>
<trkpt lat="34.7028321" lon="33.0045999">
<ele>92.08</ele>
<time>2015-04-30T13:28:18Z</time>
</trkpt>
<trkpt lat="34.7027747" lon="33.0046465">
<ele>91.92</ele>
<time>2015-04-30T13:28:19Z</time>
</trkpt>
<trkpt lat="34.7027048" lon="33.0046822">
<ele>91.84</ele>
<time>2015-04-30T13:28:20Z</time>
</trkpt>
<trkpt lat="34.7026432" lon="33.0047214">
<ele>91.80</ele>
<time>2015-04-30T13:28:21Z</time>
</trkpt>
<trkpt lat="34.7025927" lon="33.0047550">
<ele>91.78</ele>
<time>2015-04-30T13:28:22Z</time>
</trkpt>
<trkpt lat="34.7025424" lon="33.0048054">
<ele>91.77</ele>
<time>2015-04-30T13:28:23Z</time>
</trkpt>
<trkpt lat="34.7024938" lon="33.0048458">
<ele>91.76</ele>
<time>2015-04-30T13:28:24Z</time>
</trkpt>
<trkpt lat="34.7024424" lon="33.0048861">
<ele>91.26</ele>
<time>2015-04-30T13:28:25Z</time>
</trkpt>
<trkpt lat="34.7023897" lon="33.0049303">
<ele>91.01</ele>
<time>2015-04-30T13:28:26Z</time>
</trkpt>
<trkpt lat="34.7023422" lon="33.0049729">
<ele>91.39</ele>
<time>2015-04-30T13:28:27Z</time>
</trkpt>
<trkpt lat="34.7022897" lon="33.0050166">
<ele>91.57</ele>
<time>2015-04-30T13:28:28Z</time>
</trkpt>
<trkpt lat="34.7022467" lon="33.0050591">
<ele>91.17</ele>
<time>2015-04-30T13:28:29Z</time>
</trkpt>
<trkpt lat="34.7021930" lon="33.0051058">
<ele>91.46</ele>
<time>2015-04-30T13:28:30Z</time>
</trkpt>
<trkpt lat="34.7021438" lon="33.0051507">
<ele>91.61</ele>
<time>2015-04-30T13:28:31Z</time>
</trkpt>
<trkpt lat="34.7021002" lon="33.0051994">
<ele>91.19</ele>
<time>2015-04-30T13:28:32Z</time>
</trkpt>
<trkpt lat="34.7020533" lon="33.0052513">
<ele>90.47</ele>
<time>2015-04-30T13:28:33Z</time>
</trkpt>
<trkpt lat="34.7020117" lon="33.0053020">
<ele>89.62</ele>
<time>2015-04-30T13:28:34Z</time>
</trkpt>
<trkpt lat="34.7019709" lon="33.0053582">
<ele>89.19</ele>
<time>2015-04-30T13:28:35Z</time>
</trkpt>
<trkpt lat="34.7019363" lon="33.0054202">
<ele>88.47</ele>
<time>2015-04-30T13:28:36Z</time>
</trkpt>
<trkpt lat="34.7018903" lon="33.0054701">
<ele>87.62</ele>
<time>2015-04-30T13:28:37Z</time>
</trkpt>
<trkpt lat="34.7018522" lon="33.0055277">
<ele>87.69</ele>
<time>2015-04-30T13:28:38Z</time>
</trkpt>
<trkpt lat="34.7018161" lon="33.0055853">
<ele>87.22</ele>
<time>2015-04-30T13:28:39Z</time>
</trkpt>
<trkpt lat="34.7017728" lon="33.0056441">
<ele>87.49</ele>
<time>2015-04-30T13:28:40Z</time>
</trkpt>
<trkpt lat="34.7017332" lon="33.0057005">
<ele>87.13</ele>
<time>2015-04-30T13:28:41Z</time>
</trkpt>
<trkpt lat="34.7016811" lon="33.0057594">
<ele>86.94</ele>
<time>2015-04-30T13:28:42Z</time>
</trkpt>
<trkpt lat="34.7016447" lon="33.0058181">
<ele>86.85</ele>
<time>2015-04-30T13:28:43Z</time>
</trkpt>
<trkpt lat="34.7016055" lon="33.0058779">
<ele>86.81</ele>
<time>2015-04-30T13:28:44Z</time>
</trkpt>
<trkpt lat="34.7015548" lon="33.0059287">
<ele>88.28</ele>
<time>2015-04-30T13:28:45Z</time>
</trkpt>
<trkpt lat="34.7015261" lon="33.0059964">
<ele>88.52</ele>
<time>2015-04-30T13:28:46Z</time>
</trkpt>
<trkpt lat="34.7014943" lon="33.0060555">
<ele>88.14</ele>
<time>2015-04-30T13:28:47Z</time>
</trkpt>
<trkpt lat="34.7014562" lon="33.0061122">
<ele>87.45</ele>
<time>2015-04-30T13:28:48Z</time>
</trkpt>
<trkpt lat="34.7014227" lon="33.0061546">
<ele>87.61</ele>
<time>2015-04-30T13:28:49Z</time>
</trkpt>
<trkpt lat="34.7013842" lon="33.0062155">
<ele>87.72</ele>
<time>2015-04-30T13:28:51Z</time>
</trkpt>
<trkpt lat="34.7013583" lon="33.0062606">
<ele>86.62</ele>
<time>2015-04-30T13:29:00Z</time>
</trkpt>
<trkpt lat="34.7013223" lon="33.0063025">
<ele>84.76</ele>
<time>2015-04-30T13:29:31Z</time>
</trkpt>
<trkpt lat="34.7012764" lon="33.0063804">
<ele>83.51</ele>
<time>2015-04-30T13:29:34Z</time>
</trkpt>
<trkpt lat="34.7012180" lon="33.0064576">
<ele>82.20</ele>
<time>2015-04-30T13:29:36Z</time>
</trkpt>
<trkpt lat="34.7011672" lon="33.0065196">
<ele>81.98</ele>
<time>2015-04-30T13:29:37Z</time>
</trkpt>
<trkpt lat="34.7011350" lon="33.0065660">
<ele>81.87</ele>
<time>2015-04-30T13:29:38Z</time>
</trkpt>
<trkpt lat="34.7010968" lon="33.0066166">
<ele>82.31</ele>
<time>2015-04-30T13:29:39Z</time>
</trkpt>
<trkpt lat="34.7010518" lon="33.0066709">
<ele>82.54</ele>
<time>2015-04-30T13:29:40Z</time>
</trkpt>
<trkpt lat="34.7010149" lon="33.0067183">
<ele>82.65</ele>
<time>2015-04-30T13:29:41Z</time>
</trkpt>
<trkpt lat="34.7009760" lon="33.0067711">
<ele>82.70</ele>
<time>2015-04-30T13:29:42Z</time>
</trkpt>
<trkpt lat="34.7009411" lon="33.0068226">
<ele>82.73</ele>
<time>2015-04-30T13:29:43Z</time>
</trkpt>
<trkpt lat="34.7009155" lon="33.0068839">
<ele>80.75</ele>
<time>2015-04-30T13:29:44Z</time>
</trkpt>
<trkpt lat="34.7008779" lon="33.0069420">
<ele>79.25</ele>
<time>2015-04-30T13:29:45Z</time>
</trkpt>
<trkpt lat="34.7008393" lon="33.0069984">
<ele>78.51</ele>
<time>2015-04-30T13:29:46Z</time>
</trkpt>
<trkpt lat="34.7007969" lon="33.0070544">
<ele>78.13</ele>
<time>2015-04-30T13:29:47Z</time>
</trkpt>
<trkpt lat="34.7007567" lon="33.0071124">
<ele>77.95</ele>
<time>2015-04-30T13:29:48Z</time>
</trkpt>
<trkpt lat="34.7007083" lon="33.0071762">
<ele>78.35</ele>
<time>2015-04-30T13:29:49Z</time>
</trkpt>
<trkpt lat="34.7006693" lon="33.0072477">
<ele>77.56</ele>
<time>2015-04-30T13:29:50Z</time>
</trkpt>
<trkpt lat="34.7006210" lon="33.0073082">
<ele>77.16</ele>
<time>2015-04-30T13:29:51Z</time>
</trkpt>
<trkpt lat="34.7005689" lon="33.0073741">
<ele>77.46</ele>
<time>2015-04-30T13:29:52Z</time>
</trkpt>
<trkpt lat="34.7005158" lon="33.0074397">
<ele>77.61</ele>
<time>2015-04-30T13:29:53Z</time>
</trkpt>
<trkpt lat="34.7004635" lon="33.0075015">
<ele>77.68</ele>
<time>2015-04-30T13:29:54Z</time>
</trkpt>
<trkpt lat="34.7004092" lon="33.0075654">
<ele>77.22</ele>
<time>2015-04-30T13:29:55Z</time>
</trkpt>
<trkpt lat="34.7003556" lon="33.0076302">
<ele>76.49</ele>
<time>2015-04-30T13:29:56Z</time>
</trkpt>
<trkpt lat="34.7003036" lon="33.0077002">
<ele>76.63</ele>
<time>2015-04-30T13:29:57Z</time>
</trkpt>
<trkpt lat="34.7002590" lon="33.0077596">
<ele>76.19</ele>
<time>2015-04-30T13:29:58Z</time>
</trkpt>
<trkpt lat="34.7002066" lon="33.0078254">
<ele>75.98</ele>
<time>2015-04-30T13:29:59Z</time>
</trkpt>
<trkpt lat="34.7001516" lon="33.0079003">
<ele>76.87</ele>
<time>2015-04-30T13:30:00Z</time>
</trkpt>
<trkpt lat="34.7000874" lon="33.0079642">
<ele>76.81</ele>
<time>2015-04-30T13:30:01Z</time>
</trkpt>
<trkpt lat="34.7000196" lon="33.0080286">
<ele>76.79</ele>
<time>2015-04-30T13:30:02Z</time>
</trkpt>
<trkpt lat="34.6999521" lon="33.0080834">
<ele>76.27</ele>
<time>2015-04-30T13:30:03Z</time>
</trkpt>
<trkpt lat="34.6998795" lon="33.0081457">
<ele>75.52</ele>
<time>2015-04-30T13:30:04Z</time>
</trkpt>
<trkpt lat="34.6998167" lon="33.0082021">
<ele>74.64</ele>
<time>2015-04-30T13:30:05Z</time>
</trkpt>
<trkpt lat="34.6997496" lon="33.0082633">
<ele>74.20</ele>
<time>2015-04-30T13:30:06Z</time>
</trkpt>
<trkpt lat="34.6996865" lon="33.0083186">
<ele>73.48</ele>
<time>2015-04-30T13:30:07Z</time>
</trkpt>
<trkpt lat="34.6996286" lon="33.0083825">
<ele>73.12</ele>
<time>2015-04-30T13:30:08Z</time>
</trkpt>
<trkpt lat="34.6995730" lon="33.0084426">
<ele>72.94</ele>
<time>2015-04-30T13:30:09Z</time>
</trkpt>
<trkpt lat="34.6995097" lon="33.0085014">
<ele>73.35</ele>
<time>2015-04-30T13:30:10Z</time>
</trkpt>
<trkpt lat="34.6994478" lon="33.0085598">
<ele>73.05</ele>
<time>2015-04-30T13:30:11Z</time>
</trkpt>
<trkpt lat="34.6993953" lon="33.0086093">
<ele>73.91</ele>
<time>2015-04-30T13:30:12Z</time>
</trkpt>
<trkpt lat="34.6993418" lon="33.0086504">
<ele>75.33</ele>
<time>2015-04-30T13:30:13Z</time>
</trkpt>
<trkpt lat="34.6992747" lon="33.0087084">
<ele>75.65</ele>
<time>2015-04-30T13:30:15Z</time>
</trkpt>
<trkpt lat="34.6992282" lon="33.0087599">
<ele>74.98</ele>
<time>2015-04-30T13:30:17Z</time>
</trkpt>
<trkpt lat="34.6992041" lon="33.0088167">
<ele>75.07</ele>
<time>2015-04-30T13:30:19Z</time>
</trkpt>
<trkpt lat="34.6991605" lon="33.0088518">
<ele>72.92</ele>
<time>2015-04-30T13:30:22Z</time>
</trkpt>
<trkpt lat="34.6991258" lon="33.0088909">
<ele>70.80</ele>
<time>2015-04-30T13:30:24Z</time>
</trkpt>
<trkpt lat="34.6990844" lon="33.0089236">
<ele>69.27</ele>
<time>2015-04-30T13:30:26Z</time>
</trkpt>
<trkpt lat="34.6990430" lon="33.0089628">
<ele>68.89</ele>
<time>2015-04-30T13:30:28Z</time>
</trkpt>
<trkpt lat="34.6989952" lon="33.0090093">
<ele>68.29</ele>
<time>2015-04-30T13:30:30Z</time>
</trkpt>
<trkpt lat="34.6989288" lon="33.0090688">
<ele>67.14</ele>
<time>2015-04-30T13:30:32Z</time>
</trkpt>
<trkpt lat="34.6988749" lon="33.0091206">
<ele>67.95</ele>
<time>2015-04-30T13:30:33Z</time>
</trkpt>
<trkpt lat="34.6988246" lon="33.0091646">
<ele>68.36</ele>
<time>2015-04-30T13:30:34Z</time>
</trkpt>
<trkpt lat="34.6987830" lon="33.0092035">
<ele>69.06</ele>
<time>2015-04-30T13:30:35Z</time>
</trkpt>
<trkpt lat="34.6987397" lon="33.0092457">
<ele>69.91</ele>
<time>2015-04-30T13:30:36Z</time>
</trkpt>
<trkpt lat="34.6986941" lon="33.0092881">
<ele>70.83</ele>
<time>2015-04-30T13:30:37Z</time>
</trkpt>
<trkpt lat="34.6986514" lon="33.0093375">
<ele>70.80</ele>
<time>2015-04-30T13:30:38Z</time>
</trkpt>
<trkpt lat="34.6986063" lon="33.0093796">
<ele>70.78</ele>
<time>2015-04-30T13:30:39Z</time>
</trkpt>
<trkpt lat="34.6985575" lon="33.0094238">
<ele>70.27</ele>
<time>2015-04-30T13:30:40Z</time>
</trkpt>
<trkpt lat="34.6985112" lon="33.0094679">
<ele>70.51</ele>
<time>2015-04-30T13:30:41Z</time>
</trkpt>
<trkpt lat="34.6984591" lon="33.0095122">
<ele>71.14</ele>
<time>2015-04-30T13:30:42Z</time>
</trkpt>
<trkpt lat="34.6984162" lon="33.0095580">
<ele>70.95</ele>
<time>2015-04-30T13:30:43Z</time>
</trkpt>
<trkpt lat="34.6983682" lon="33.0096105">
<ele>70.85</ele>
<time>2015-04-30T13:30:44Z</time>
</trkpt>
<trkpt lat="34.6983225" lon="33.0096650">
<ele>70.81</ele>
<time>2015-04-30T13:30:45Z</time>
</trkpt>
<trkpt lat="34.6982738" lon="33.0097152">
<ele>70.78</ele>
<time>2015-04-30T13:30:46Z</time>
</trkpt>
<trkpt lat="34.6982271" lon="33.0097706">
<ele>71.27</ele>
<time>2015-04-30T13:30:47Z</time>
</trkpt>
<trkpt lat="34.6981761" lon="33.0098318">
<ele>71.52</ele>
<time>2015-04-30T13:30:48Z</time>
</trkpt>
<trkpt lat="34.6981270" lon="33.0098850">
<ele>72.14</ele>
<time>2015-04-30T13:30:49Z</time>
</trkpt>
<trkpt lat="34.6980862" lon="33.0099432">
<ele>72.45</ele>
<time>2015-04-30T13:30:50Z</time>
</trkpt>
<trkpt lat="34.6980462" lon="33.0100084">
<ele>72.60</ele>
<time>2015-04-30T13:30:51Z</time>
</trkpt>
<trkpt lat="34.6980059" lon="33.0100681">
<ele>72.18</ele>
<time>2015-04-30T13:30:52Z</time>
</trkpt>
<trkpt lat="34.6979675" lon="33.0101343">
<ele>71.47</ele>
<time>2015-04-30T13:30:53Z</time>
</trkpt>
<trkpt lat="34.6979290" lon="33.0102001">
<ele>70.12</ele>
<time>2015-04-30T13:30:54Z</time>
</trkpt>
<trkpt lat="34.6978957" lon="33.0102720">
<ele>69.94</ele>
<time>2015-04-30T13:30:55Z</time>
</trkpt>
<trkpt lat="34.6978652" lon="33.0103426">
<ele>70.35</ele>
<time>2015-04-30T13:30:56Z</time>
</trkpt>
<trkpt lat="34.6978278" lon="33.0104204">
<ele>71.05</ele>
<time>2015-04-30T13:30:57Z</time>
</trkpt>
<trkpt lat="34.6977887" lon="33.0104974">
<ele>70.91</ele>
<time>2015-04-30T13:30:58Z</time>
</trkpt>
<trkpt lat="34.6977573" lon="33.0105691">
<ele>71.33</ele>
<time>2015-04-30T13:30:59Z</time>
</trkpt>
<trkpt lat="34.6977190" lon="33.0106423">
<ele>71.05</ele>
<time>2015-04-30T13:31:00Z</time>
</trkpt>
<trkpt lat="34.6976784" lon="33.0107234">
<ele>71.40</ele>
<time>2015-04-30T13:31:01Z</time>
</trkpt>
<trkpt lat="34.6976432" lon="33.0108020">
<ele>70.58</ele>
<time>2015-04-30T13:31:02Z</time>
</trkpt>
<trkpt lat="34.6976033" lon="33.0108866">
<ele>69.17</ele>
<time>2015-04-30T13:31:03Z</time>
</trkpt>
<trkpt lat="34.6975670" lon="33.0109632">
<ele>68.47</ele>
<time>2015-04-30T13:31:04Z</time>
</trkpt>
<trkpt lat="34.6975325" lon="33.0110433">
<ele>66.61</ele>
<time>2015-04-30T13:31:05Z</time>
</trkpt>
<trkpt lat="34.6974927" lon="33.0111176">
<ele>65.69</ele>
<time>2015-04-30T13:31:06Z</time>
</trkpt>
<trkpt lat="34.6974510" lon="33.0111898">
<ele>64.72</ele>
<time>2015-04-30T13:31:07Z</time>
</trkpt>
<trkpt lat="34.6974082" lon="33.0112649">
<ele>63.74</ele>
<time>2015-04-30T13:31:08Z</time>
</trkpt>
<trkpt lat="34.6973653" lon="33.0113287">
<ele>62.75</ele>
<time>2015-04-30T13:31:09Z</time>
</trkpt>
<trkpt lat="34.6973200" lon="33.0113867">
<ele>62.26</ele>
<time>2015-04-30T13:31:10Z</time>
</trkpt>
<trkpt lat="34.6972784" lon="33.0114399">
<ele>62.01</ele>
<time>2015-04-30T13:31:11Z</time>
</trkpt>
<trkpt lat="34.6972352" lon="33.0115020">
<ele>61.88</ele>
<time>2015-04-30T13:31:12Z</time>
</trkpt>
<trkpt lat="34.6971952" lon="33.0115602">
<ele>61.32</ele>
<time>2015-04-30T13:31:13Z</time>
</trkpt>
<trkpt lat="34.6971493" lon="33.0116086">
<ele>61.54</ele>
<time>2015-04-30T13:31:14Z</time>
</trkpt>
<trkpt lat="34.6971086" lon="33.0116536">
<ele>61.65</ele>
<time>2015-04-30T13:31:15Z</time>
</trkpt>
<trkpt lat="34.6970505" lon="33.0117438">
<ele>62.73</ele>
<time>2015-04-30T13:31:17Z</time>
</trkpt>
<trkpt lat="34.6970095" lon="33.0117922">
<ele>63.25</ele>
<time>2015-04-30T13:31:18Z</time>
</trkpt>
<trkpt lat="34.6969717" lon="33.0118343">
<ele>63.50</ele>
<time>2015-04-30T13:31:19Z</time>
</trkpt>
<trkpt lat="34.6969246" lon="33.0118764">
<ele>63.63</ele>
<time>2015-04-30T13:31:20Z</time>
</trkpt>
<trkpt lat="34.6968827" lon="33.0119227">
<ele>63.70</ele>
<time>2015-04-30T13:31:21Z</time>
</trkpt>
<trkpt lat="34.6968466" lon="33.0119593">
<ele>64.23</ele>
<time>2015-04-30T13:31:22Z</time>
</trkpt>
<trkpt lat="34.6968027" lon="33.0119978">
<ele>63.99</ele>
<time>2015-04-30T13:31:23Z</time>
</trkpt>
<trkpt lat="34.6967468" lon="33.0120471">
<ele>63.38</ele>
<time>2015-04-30T13:31:24Z</time>
</trkpt>
<trkpt lat="34.6967001" lon="33.0120915">
<ele>63.07</ele>
<time>2015-04-30T13:31:25Z</time>
</trkpt>
<trkpt lat="34.6966498" lon="33.0121336">
<ele>62.41</ele>
<time>2015-04-30T13:31:26Z</time>
</trkpt>
<trkpt lat="34.6965966" lon="33.0121678">
<ele>62.09</ele>
<time>2015-04-30T13:31:27Z</time>
</trkpt>
<trkpt lat="34.6965435" lon="33.0122036">
<ele>61.42</ele>
<time>2015-04-30T13:31:28Z</time>
</trkpt>
<trkpt lat="34.6964947" lon="33.0122381">
<ele>61.09</ele>
<time>2015-04-30T13:31:29Z</time>
</trkpt>
<trkpt lat="34.6964487" lon="33.0122753">
<ele>60.93</ele>
<time>2015-04-30T13:31:30Z</time>
</trkpt>
<trkpt lat="34.6963987" lon="33.0123106">
<ele>61.34</ele>
<time>2015-04-30T13:31:31Z</time>
</trkpt>
<trkpt lat="34.6963462" lon="33.0123430">
<ele>62.05</ele>
<time>2015-04-30T13:31:32Z</time>
</trkpt>
<trkpt lat="34.6962966" lon="33.0123756">
<ele>62.91</ele>
<time>2015-04-30T13:31:33Z</time>
</trkpt>
<trkpt lat="34.6962460" lon="33.0124083">
<ele>63.83</ele>
<time>2015-04-30T13:31:34Z</time>
</trkpt>
<trkpt lat="34.6961896" lon="33.0124415">
<ele>64.30</ele>
<time>2015-04-30T13:31:35Z</time>
</trkpt>
<trkpt lat="34.6961337" lon="33.0124801">
<ele>64.53</ele>
<time>2015-04-30T13:31:36Z</time>
</trkpt>
<trkpt lat="34.6960783" lon="33.0125209">
<ele>65.14</ele>
<time>2015-04-30T13:31:37Z</time>
</trkpt>
<trkpt lat="34.6960248" lon="33.0125568">
<ele>65.45</ele>
<time>2015-04-30T13:31:38Z</time>
</trkpt>
<trkpt lat="34.6959746" lon="33.0125891">
<ele>65.61</ele>
<time>2015-04-30T13:31:39Z</time>
</trkpt>
<trkpt lat="34.6959197" lon="33.0126254">
<ele>66.18</ele>
<time>2015-04-30T13:31:40Z</time>
</trkpt>
<trkpt lat="34.6958687" lon="33.0126589">
<ele>66.47</ele>
<time>2015-04-30T13:31:41Z</time>
</trkpt>
<trkpt lat="34.6958198" lon="33.0126913">
<ele>66.62</ele>
<time>2015-04-30T13:31:42Z</time>
</trkpt>
<trkpt lat="34.6957678" lon="33.0127292">
<ele>66.69</ele>
<time>2015-04-30T13:31:43Z</time>
</trkpt>
<trkpt lat="34.6957162" lon="33.0127667">
<ele>67.22</ele>
<time>2015-04-30T13:31:44Z</time>
</trkpt>
<trkpt lat="34.6956631" lon="33.0128055">
<ele>67.49</ele>
<time>2015-04-30T13:31:45Z</time>
</trkpt>
<trkpt lat="34.6956235" lon="33.0128372">
<ele>68.13</ele>
<time>2015-04-30T13:31:46Z</time>
</trkpt>
<trkpt lat="34.6955840" lon="33.0128843">
<ele>68.44</ele>
<time>2015-04-30T13:31:47Z</time>
</trkpt>
<trkpt lat="34.6955381" lon="33.0129335">
<ele>68.60</ele>
<time>2015-04-30T13:31:48Z</time>
</trkpt>
<trkpt lat="34.6955013" lon="33.0129840">
<ele>68.68</ele>
<time>2015-04-30T13:31:49Z</time>
</trkpt>
<trkpt lat="34.6954644" lon="33.0130357">
<ele>68.72</ele>
<time>2015-04-30T13:31:50Z</time>
</trkpt>
<trkpt lat="34.6954271" lon="33.0130817">
<ele>68.74</ele>
<time>2015-04-30T13:31:51Z</time>
</trkpt>
<trkpt lat="34.6953909" lon="33.0131274">
<ele>68.25</ele>
<time>2015-04-30T13:31:52Z</time>
</trkpt>
<trkpt lat="34.6953486" lon="33.0131710">
<ele>68.01</ele>
<time>2015-04-30T13:31:53Z</time>
</trkpt>
<trkpt lat="34.6953078" lon="33.0132148">
<ele>67.38</ele>
<time>2015-04-30T13:31:54Z</time>
</trkpt>
<trkpt lat="34.6952706" lon="33.0132526">
<ele>68.07</ele>
<time>2015-04-30T13:31:55Z</time>
</trkpt>
<trkpt lat="34.6952266" lon="33.0132920">
<ele>67.92</ele>
<time>2015-04-30T13:31:56Z</time>
</trkpt>
<trkpt lat="34.6951857" lon="33.0133253">
<ele>67.84</ele>
<time>2015-04-30T13:31:57Z</time>
</trkpt>
<trkpt lat="34.6951030" lon="33.0133596">
<ele>67.53</ele>
<time>2015-04-30T13:31:59Z</time>
</trkpt>
<trkpt lat="34.6950550" lon="33.0133865">
<ele>69.95</ele>
<time>2015-04-30T13:32:01Z</time>
</trkpt>
<trkpt lat="34.6950037" lon="33.0134058">
<ele>60.19</ele>
<time>2015-04-30T13:32:10Z</time>
</trkpt>
<trkpt lat="34.6949476" lon="33.0134218">
<ele>59.37</ele>
<time>2015-04-30T13:32:12Z</time>
</trkpt>
<trkpt lat="34.6948976" lon="33.0134380">
<ele>58.66</ele>
<time>2015-04-30T13:32:14Z</time>
</trkpt>
<trkpt lat="34.6948552" lon="33.0134603">
<ele>60.24</ele>
<time>2015-04-30T13:32:16Z</time>
</trkpt>
<trkpt lat="34.6948287" lon="33.0135126">
<ele>63.35</ele>
<time>2015-04-30T13:32:20Z</time>
</trkpt>
<trkpt lat="34.6948093" lon="33.0135707">
<ele>68.65</ele>
<time>2015-04-30T13:32:25Z</time>
</trkpt>
<trkpt lat="34.6947739" lon="33.0136309">
<ele>71.00</ele>
<time>2015-04-30T13:32:28Z</time>
</trkpt>
<trkpt lat="34.6947441" lon="33.0137355">
<ele>71.88</ele>
<time>2015-04-30T13:32:29Z</time>
</trkpt>
<trkpt lat="34.6947170" lon="33.0137869">
<ele>72.32</ele>
<time>2015-04-30T13:32:30Z</time>
</trkpt>
<trkpt lat="34.6946756" lon="33.0138733">
<ele>72.65</ele>
<time>2015-04-30T13:32:32Z</time>
</trkpt>
<trkpt lat="34.6946508" lon="33.0139260">
<ele>72.20</ele>
<time>2015-04-30T13:32:33Z</time>
</trkpt>
<trkpt lat="34.6945938" lon="33.0140000">
<ele>70.62</ele>
<time>2015-04-30T13:32:35Z</time>
</trkpt>
<trkpt lat="34.6945283" lon="33.0140812">
<ele>70.73</ele>
<time>2015-04-30T13:32:37Z</time>
</trkpt>
<trkpt lat="34.6944723" lon="33.0141372">
<ele>67.00</ele>
<time>2015-04-30T13:32:39Z</time>
</trkpt>
<trkpt lat="34.6944277" lon="33.0141750">
<ele>64.88</ele>
<time>2015-04-30T13:32:40Z</time>
</trkpt>
<trkpt lat="34.6943780" lon="33.0142100">
<ele>62.32</ele>
<time>2015-04-30T13:32:41Z</time>
</trkpt>
<trkpt lat="34.6943248" lon="33.0142389">
<ele>61.04</ele>
<time>2015-04-30T13:32:42Z</time>
</trkpt>
<trkpt lat="34.6942740" lon="33.0142658">
<ele>60.40</ele>
<time>2015-04-30T13:32:43Z</time>
</trkpt>
<trkpt lat="34.6942198" lon="33.0142912">
<ele>60.58</ele>
<time>2015-04-30T13:32:44Z</time>
</trkpt>
<trkpt lat="34.6941637" lon="33.0143178">
<ele>60.67</ele>
<time>2015-04-30T13:32:45Z</time>
</trkpt>
<trkpt lat="34.6941049" lon="33.0143413">
<ele>60.72</ele>
<time>2015-04-30T13:32:46Z</time>
</trkpt>
<trkpt lat="34.6940528" lon="33.0143590">
<ele>59.74</ele>
<time>2015-04-30T13:32:47Z</time>
</trkpt>
<trkpt lat="34.6940043" lon="33.0143699">
<ele>59.25</ele>
<time>2015-04-30T13:32:48Z</time>
</trkpt>
<trkpt lat="34.6939186" lon="33.0143851">
<ele>59.38</ele>
<time>2015-04-30T13:32:50Z</time>
</trkpt>
<trkpt lat="34.6938746" lon="33.0143977">
<ele>60.57</ele>
<time>2015-04-30T13:32:51Z</time>
</trkpt>
<trkpt lat="34.6938290" lon="33.0144187">
<ele>60.67</ele>
<time>2015-04-30T13:32:52Z</time>
</trkpt>
<trkpt lat="34.6937882" lon="33.0144443">
<ele>60.71</ele>
<time>2015-04-30T13:32:53Z</time>
</trkpt>
<trkpt lat="34.6937502" lon="33.0144764">
<ele>61.24</ele>
<time>2015-04-30T13:32:54Z</time>
</trkpt>
<trkpt lat="34.6936738" lon="33.0145231">
<ele>62.88</ele>
<time>2015-04-30T13:32:56Z</time>
</trkpt>
<trkpt lat="34.6936048" lon="33.0145706">
<ele>63.54</ele>
<time>2015-04-30T13:32:58Z</time>
</trkpt>
<trkpt lat="34.6935346" lon="33.0146172">
<ele>64.95</ele>
<time>2015-04-30T13:33:00Z</time>
</trkpt>
<trkpt lat="34.6934630" lon="33.0146680">
<ele>66.56</ele>
<time>2015-04-30T13:33:02Z</time>
</trkpt>
<trkpt lat="34.6933872" lon="33.0147236">
<ele>67.96</ele>
<time>2015-04-30T13:33:04Z</time>
</trkpt>
<trkpt lat="34.6933416" lon="33.0147484">
<ele>67.86</ele>
<time>2015-04-30T13:33:05Z</time>
</trkpt>
<trkpt lat="34.6933009" lon="33.0147831">
<ele>67.81</ele>
<time>2015-04-30T13:33:06Z</time>
</trkpt>
<trkpt lat="34.6932650" lon="33.0148184">
<ele>68.28</ele>
<time>2015-04-30T13:33:07Z</time>
</trkpt>
<trkpt lat="34.6932178" lon="33.0148800">
<ele>68.89</ele>
<time>2015-04-30T13:33:09Z</time>
</trkpt>
<trkpt lat="34.6931952" lon="33.0149289">
<ele>74.11</ele>
<time>2015-04-30T13:33:14Z</time>
</trkpt>
<trkpt lat="34.6931462" lon="33.0149644">
<ele>76.51</ele>
<time>2015-04-30T13:33:51Z</time>
</trkpt>
<trkpt lat="34.6931006" lon="33.0149766">
<ele>76.70</ele>
<time>2015-04-30T13:33:53Z</time>
</trkpt>
<trkpt lat="34.6930427" lon="33.0150213">
<ele>77.74</ele>
<time>2015-04-30T13:33:55Z</time>
</trkpt>
<trkpt lat="34.6930108" lon="33.0150601">
<ele>78.25</ele>
<time>2015-04-30T13:33:56Z</time>
</trkpt>
<trkpt lat="34.6929498" lon="33.0151354">
<ele>78.63</ele>
<time>2015-04-30T13:33:58Z</time>
</trkpt>
<trkpt lat="34.6929348" lon="33.0151898">
<ele>79.24</ele>
<time>2015-04-30T13:34:01Z</time>
</trkpt>
<trkpt lat="34.6928902" lon="33.0151727">
<ele>81.06</ele>
<time>2015-04-30T13:34:13Z</time>
</trkpt>
<trkpt lat="34.6928839" lon="33.0150940">
<ele>80.42</ele>
<time>2015-04-30T13:34:16Z</time>
</trkpt>
<trkpt lat="34.6929022" lon="33.0150406">
<ele>80.43</ele>
<time>2015-04-30T13:34:18Z</time>
</trkpt>
<trkpt lat="34.6929364" lon="33.0149781">
<ele>79.09</ele>
<time>2015-04-30T13:34:21Z</time>
</trkpt>
<trkpt lat="34.6929688" lon="33.0149099">
<ele>76.80</ele>
<time>2015-04-30T13:34:24Z</time>
</trkpt>
<trkpt lat="34.6929915" lon="33.0148464">
<ele>73.02</ele>
<time>2015-04-30T13:34:27Z</time>
</trkpt>
<trkpt lat="34.6930156" lon="33.0147794">
<ele>70.04</ele>
<time>2015-04-30T13:34:30Z</time>
</trkpt>
<trkpt lat="34.6930294" lon="33.0147051">
<ele>65.05</ele>
<time>2015-04-30T13:34:33Z</time>
</trkpt>
<trkpt lat="34.6930556" lon="33.0146447">
<ele>63.30</ele>
<time>2015-04-30T13:34:36Z</time>
</trkpt>
<trkpt lat="34.6930921" lon="33.0145894">
<ele>61.33</ele>
<time>2015-04-30T13:34:39Z</time>
</trkpt>
<trkpt lat="34.6930935" lon="33.0145111">
<ele>60.15</ele>
<time>2015-04-30T13:34:41Z</time>
</trkpt>
<trkpt lat="34.6930527" lon="33.0144492">
<ele>60.61</ele>
<time>2015-04-30T13:34:43Z</time>
</trkpt>
<trkpt lat="34.6929984" lon="33.0143997">
<ele>61.22</ele>
<time>2015-04-30T13:34:45Z</time>
</trkpt>
<trkpt lat="34.6929384" lon="33.0143457">
<ele>61.88</ele>
<time>2015-04-30T13:34:47Z</time>
</trkpt>
<trkpt lat="34.6928833" lon="33.0142847">
<ele>61.79</ele>
<time>2015-04-30T13:34:49Z</time>
</trkpt>
<trkpt lat="34.6928248" lon="33.0142247">
<ele>63.02</ele>
<time>2015-04-30T13:34:51Z</time>
</trkpt>
<trkpt lat="34.6927633" lon="33.0141628">
<ele>63.57</ele>
<time>2015-04-30T13:34:53Z</time>
</trkpt>
<trkpt lat="34.6927019" lon="33.0140981">
<ele>63.71</ele>
<time>2015-04-30T13:34:55Z</time>
</trkpt>
<trkpt lat="34.6926489" lon="33.0140331">
<ele>62.25</ele>
<time>2015-04-30T13:34:57Z</time>
</trkpt>
<trkpt lat="34.6925998" lon="33.0140078">
<ele>60.63</ele>
<time>2015-04-30T13:34:59Z</time>
</trkpt>
<trkpt lat="34.6925428" lon="33.0139961">
<ele>58.98</ele>
<time>2015-04-30T13:35:01Z</time>
</trkpt>
<trkpt lat="34.6924746" lon="33.0139913">
<ele>58.06</ele>
<time>2015-04-30T13:35:03Z</time>
</trkpt>
<trkpt lat="34.6923967" lon="33.0139998">
<ele>57.84</ele>
<time>2015-04-30T13:35:05Z</time>
</trkpt>
<trkpt lat="34.6923159" lon="33.0140197">
<ele>57.78</ele>
<time>2015-04-30T13:35:07Z</time>
</trkpt>
<trkpt lat="34.6922693" lon="33.0140573">
<ele>57.77</ele>
<time>2015-04-30T13:35:08Z</time>
</trkpt>
<trkpt lat="34.6922288" lon="33.0140921">
<ele>57.26</ele>
<time>2015-04-30T13:35:09Z</time>
</trkpt>
<trkpt lat="34.6921565" lon="33.0141415">
<ele>56.39</ele>
<time>2015-04-30T13:35:11Z</time>
</trkpt>
<trkpt lat="34.6921130" lon="33.0141733">
<ele>55.07</ele>
<time>2015-04-30T13:35:12Z</time>
</trkpt>
<trkpt lat="34.6920658" lon="33.0142057">
<ele>54.42</ele>
<time>2015-04-30T13:35:13Z</time>
</trkpt>
<trkpt lat="34.6920261" lon="33.0142391">
<ele>54.09</ele>
<time>2015-04-30T13:35:14Z</time>
</trkpt>
<trkpt lat="34.6919867" lon="33.0142774">
<ele>53.92</ele>
<time>2015-04-30T13:35:15Z</time>
</trkpt>
<trkpt lat="34.6919506" lon="33.0143123">
<ele>53.84</ele>
<time>2015-04-30T13:35:16Z</time>
</trkpt>
<trkpt lat="34.6918809" lon="33.0143745">
<ele>55.03</ele>
<time>2015-04-30T13:35:18Z</time>
</trkpt>
<trkpt lat="34.6918374" lon="33.0144410">
<ele>56.33</ele>
<time>2015-04-30T13:35:20Z</time>
</trkpt>
<trkpt lat="34.6885271" lon="33.0117796">
<ele>49.71</ele>
<time>2015-04-30T13:38:21Z</time>
</trkpt>
<trkpt lat="34.6884525" lon="33.0118421">
<ele>49.75</ele>
<time>2015-04-30T13:38:23Z</time>
</trkpt>
<trkpt lat="34.6884143" lon="33.0118747">
<ele>49.75</ele>
<time>2015-04-30T13:38:24Z</time>
</trkpt>
<trkpt lat="34.6883413" lon="33.0119184">
<ele>49.01</ele>
<time>2015-04-30T13:38:26Z</time>
</trkpt>
<trkpt lat="34.6882952" lon="33.0119420">
<ele>48.32</ele>
<time>2015-04-30T13:38:28Z</time>
</trkpt>
<trkpt lat="34.6882388" lon="33.0119712">
<ele>47.40</ele>
<time>2015-04-30T13:38:30Z</time>
</trkpt>
<trkpt lat="34.6881723" lon="33.0119898">
<ele>46.42</ele>
<time>2015-04-30T13:38:32Z</time>
</trkpt>
<trkpt lat="34.6881118" lon="33.0119391">
<ele>46.93</ele>
<time>2015-04-30T13:38:34Z</time>
</trkpt>
<trkpt lat="34.6880552" lon="33.0118902">
<ele>48.55</ele>
<time>2015-04-30T13:38:36Z</time>
</trkpt>
<trkpt lat="34.6880005" lon="33.0118489">
<ele>49.46</ele>
<time>2015-04-30T13:38:38Z</time>
</trkpt>
<trkpt lat="34.6879477" lon="33.0118164">
<ele>49.68</ele>
<time>2015-04-30T13:38:40Z</time>
</trkpt>
<trkpt lat="34.6878934" lon="33.0117854">
<ele>50.99</ele>
<time>2015-04-30T13:38:42Z</time>
</trkpt>
<trkpt lat="34.6878490" lon="33.0117456">
<ele>50.32</ele>
<time>2015-04-30T13:38:44Z</time>
</trkpt>
<trkpt lat="34.6878101" lon="33.0116968">
<ele>49.90</ele>
<time>2015-04-30T13:38:46Z</time>
</trkpt>
<trkpt lat="34.6877599" lon="33.0116796">
<ele>51.04</ele>
<time>2015-04-30T13:38:48Z</time>
</trkpt>
<trkpt lat="34.6877114" lon="33.0117011">
<ele>51.58</ele>
<time>2015-04-30T13:38:50Z</time>
</trkpt>
<trkpt lat="34.6876687" lon="33.0117576">
<ele>52.72</ele>
<time>2015-04-30T13:38:52Z</time>
</trkpt>
<trkpt lat="34.6876314" lon="33.0118204">
<ele>53.50</ele>
<time>2015-04-30T13:38:54Z</time>
</trkpt>
<trkpt lat="34.6875954" lon="33.0118862">
<ele>53.19</ele>
<time>2015-04-30T13:38:56Z</time>
</trkpt>
<trkpt lat="34.6875608" lon="33.0119508">
<ele>53.12</ele>
<time>2015-04-30T13:38:58Z</time>
</trkpt>
<trkpt lat="34.6875221" lon="33.0120167">
<ele>53.10</ele>
<time>2015-04-30T13:39:00Z</time>
</trkpt>
<trkpt lat="34.6874800" lon="33.0120864">
<ele>52.09</ele>
<time>2015-04-30T13:39:02Z</time>
</trkpt>
<trkpt lat="34.6874368" lon="33.0121523">
<ele>52.43</ele>
<time>2015-04-30T13:39:03Z</time>
</trkpt>
<trkpt lat="34.6874086" lon="33.0121958">
<ele>52.59</ele>
<time>2015-04-30T13:39:04Z</time>
</trkpt>
<trkpt lat="34.6873799" lon="33.0122423">
<ele>52.18</ele>
<time>2015-04-30T13:39:05Z</time>
</trkpt>
<trkpt lat="34.6873429" lon="33.0123402">
<ele>52.61</ele>
<time>2015-04-30T13:39:07Z</time>
</trkpt>
<trkpt lat="34.6873270" lon="33.0123991">
<ele>53.19</ele>
<time>2015-04-30T13:39:08Z</time>
</trkpt>
<trkpt lat="34.6872986" lon="33.0124718">
<ele>53.87</ele>
<time>2015-04-30T13:39:10Z</time>
</trkpt>
<trkpt lat="34.6872518" lon="33.0125655">
<ele>55.04</ele>
<time>2015-04-30T13:39:12Z</time>
</trkpt>
<trkpt lat="34.6872255" lon="33.0126160">
<ele>55.90</ele>
<time>2015-04-30T13:39:13Z</time>
</trkpt>
<trkpt lat="34.6871675" lon="33.0126971">
<ele>56.79</ele>
<time>2015-04-30T13:39:15Z</time>
</trkpt>
<trkpt lat="34.6871116" lon="33.0127753">
<ele>55.77</ele>
<time>2015-04-30T13:39:17Z</time>
</trkpt>
<trkpt lat="34.6870550" lon="33.0128478">
<ele>55.01</ele>
<time>2015-04-30T13:39:19Z</time>
</trkpt>
<trkpt lat="34.6870108" lon="33.0129422">
<ele>53.32</ele>
<time>2015-04-30T13:39:21Z</time>
</trkpt>
<trkpt lat="34.6869654" lon="33.0130210">
<ele>54.15</ele>
<time>2015-04-30T13:39:23Z</time>
</trkpt>
<trkpt lat="34.6869321" lon="33.0130689">
<ele>54.46</ele>
<time>2015-04-30T13:39:24Z</time>
</trkpt>
<trkpt lat="34.6868872" lon="33.0131519">
<ele>54.68</ele>
<time>2015-04-30T13:39:26Z</time>
</trkpt>
<trkpt lat="34.6868544" lon="33.0132288">
<ele>55.49</ele>
<time>2015-04-30T13:39:28Z</time>
</trkpt>
<trkpt lat="34.6868188" lon="33.0132936">
<ele>55.69</ele>
<time>2015-04-30T13:39:30Z</time>
</trkpt>
<trkpt lat="34.6867763" lon="33.0133576">
<ele>54.99</ele>
<time>2015-04-30T13:39:32Z</time>
</trkpt>
<trkpt lat="34.6867418" lon="33.0134271">
<ele>54.82</ele>
<time>2015-04-30T13:39:34Z</time>
</trkpt>
<trkpt lat="34.6867071" lon="33.0134937">
<ele>55.02</ele>
<time>2015-04-30T13:39:36Z</time>
</trkpt>
<trkpt lat="34.6866745" lon="33.0135568">
<ele>54.33</ele>
<time>2015-04-30T13:39:38Z</time>
</trkpt>
<trkpt lat="34.6866351" lon="33.0136162">
<ele>53.90</ele>
<time>2015-04-30T13:39:40Z</time>
</trkpt>
<trkpt lat="34.6865932" lon="33.0136800">
<ele>53.80</ele>
<time>2015-04-30T13:39:42Z</time>
</trkpt>
<trkpt lat="34.6865535" lon="33.0137534">
<ele>53.77</ele>
<time>2015-04-30T13:39:44Z</time>
</trkpt>
<trkpt lat="34.6865056" lon="33.0138314">
<ele>53.76</ele>
<time>2015-04-30T13:39:46Z</time>
</trkpt>
<trkpt lat="34.6864542" lon="33.0138887">
<ele>54.26</ele>
<time>2015-04-30T13:39:47Z</time>
</trkpt>
<trkpt lat="34.6864268" lon="33.0139323">
<ele>55.01</ele>
<time>2015-04-30T13:39:48Z</time>
</trkpt>
<trkpt lat="34.6864022" lon="33.0139806">
<ele>54.89</ele>
<time>2015-04-30T13:39:49Z</time>
</trkpt>
<trkpt lat="34.6863792" lon="33.0140356">
<ele>54.82</ele>
<time>2015-04-30T13:39:50Z</time>
</trkpt>
<trkpt lat="34.6863540" lon="33.0140821">
<ele>55.29</ele>
<time>2015-04-30T13:39:51Z</time>
</trkpt>
<trkpt lat="34.6863294" lon="33.0141282">
<ele>55.53</ele>
<time>2015-04-30T13:39:52Z</time>
</trkpt>
<trkpt lat="34.6862951" lon="33.0141675">
<ele>55.14</ele>
<time>2015-04-30T13:39:53Z</time>
</trkpt>
<trkpt lat="34.6862362" lon="33.0142541">
<ele>54.86</ele>
<time>2015-04-30T13:39:55Z</time>
</trkpt>
<trkpt lat="34.6862060" lon="33.0143061">
<ele>54.81</ele>
<time>2015-04-30T13:39:56Z</time>
</trkpt>
<trkpt lat="34.6861822" lon="33.0143599">
<ele>54.28</ele>
<time>2015-04-30T13:39:57Z</time>
</trkpt>
<trkpt lat="34.6861397" lon="33.0144412">
<ele>54.64</ele>
<time>2015-04-30T13:39:59Z</time>
</trkpt>
<trkpt lat="34.6860987" lon="33.0145153">
<ele>54.73</ele>
<time>2015-04-30T13:40:01Z</time>
</trkpt>
<trkpt lat="34.6860689" lon="33.0145834">
<ele>55.38</ele>
<time>2015-04-30T13:40:04Z</time>
</trkpt>
<trkpt lat="34.6860629" lon="33.0146475">
<ele>49.27</ele>
<time>2015-04-30T13:40:55Z</time>
</trkpt>
<trkpt lat="34.6860428" lon="33.0147128">
<ele>48.39</ele>
<time>2015-04-30T13:40:57Z</time>
</trkpt>
<trkpt lat="34.6860157" lon="33.0147903">
<ele>48.17</ele>
<time>2015-04-30T13:40:59Z</time>
</trkpt>
<trkpt lat="34.6859646" lon="33.0149163">
<ele>49.36</ele>
<time>2015-04-30T13:41:01Z</time>
</trkpt>
<trkpt lat="34.6859311" lon="33.0149761">
<ele>50.06</ele>
<time>2015-04-30T13:41:02Z</time>
</trkpt>
<trkpt lat="34.6859048" lon="33.0150334">
<ele>50.41</ele>
<time>2015-04-30T13:41:03Z</time>
</trkpt>
<trkpt lat="34.6858748" lon="33.0150835">
<ele>51.09</ele>
<time>2015-04-30T13:41:04Z</time>
</trkpt>
<trkpt lat="34.6858560" lon="33.0151360">
<ele>50.42</ele>
<time>2015-04-30T13:41:05Z</time>
</trkpt>
<trkpt lat="34.6858399" lon="33.0151918">
<ele>50.09</ele>
<time>2015-04-30T13:41:06Z</time>
</trkpt>
<trkpt lat="34.6858104" lon="33.0153017">
<ele>48.09</ele>
<time>2015-04-30T13:41:08Z</time>
</trkpt>
<trkpt lat="34.6857910" lon="33.0153512">
<ele>47.93</ele>
<time>2015-04-30T13:41:09Z</time>
</trkpt>
<trkpt lat="34.6857630" lon="33.0154068">
<ele>47.34</ele>
<time>2015-04-30T13:41:10Z</time>
</trkpt>
<trkpt lat="34.6857124" lon="33.0154998">
<ele>46.41</ele>
<time>2015-04-30T13:41:12Z</time>
</trkpt>
<trkpt lat="34.6856836" lon="33.0155548">
<ele>46.08</ele>
<time>2015-04-30T13:41:13Z</time>
</trkpt>
<trkpt lat="34.6856520" lon="33.0156005">
<ele>45.42</ele>
<time>2015-04-30T13:41:14Z</time>
</trkpt>
<trkpt lat="34.6856177" lon="33.0156527">
<ele>45.59</ele>
<time>2015-04-30T13:41:15Z</time>
</trkpt>
<trkpt lat="34.6855824" lon="33.0157022">
<ele>45.68</ele>
<time>2015-04-30T13:41:16Z</time>
</trkpt>
<trkpt lat="34.6855534" lon="33.0157489">
<ele>46.22</ele>
<time>2015-04-30T13:41:17Z</time>
</trkpt>
<trkpt lat="34.6855257" lon="33.0158100">
<ele>46.49</ele>
<time>2015-04-30T13:41:18Z</time>
</trkpt>
<trkpt lat="34.6855061" lon="33.0158683">
<ele>46.12</ele>
<time>2015-04-30T13:41:19Z</time>
</trkpt>
<trkpt lat="34.6854685" lon="33.0159272">
<ele>45.94</ele>
<time>2015-04-30T13:41:20Z</time>
</trkpt>
<trkpt lat="34.6854403" lon="33.0159780">
<ele>46.35</ele>
<time>2015-04-30T13:41:21Z</time>
</trkpt>
<trkpt lat="34.6854148" lon="33.0160348">
<ele>46.56</ele>
<time>2015-04-30T13:41:22Z</time>
</trkpt>
<trkpt lat="34.6853912" lon="33.0160921">
<ele>46.16</ele>
<time>2015-04-30T13:41:23Z</time>
</trkpt>
<trkpt lat="34.6853597" lon="33.0161513">
<ele>45.96</ele>
<time>2015-04-30T13:41:24Z</time>
</trkpt>
<trkpt lat="34.6853299" lon="33.0162094">
<ele>46.36</ele>
<time>2015-04-30T13:41:25Z</time>
</trkpt>
<trkpt lat="34.6853026" lon="33.0162668">
<ele>46.06</ele>
<time>2015-04-30T13:41:26Z</time>
</trkpt>
<trkpt lat="34.6852815" lon="33.0163185">
<ele>45.41</ele>
<time>2015-04-30T13:41:27Z</time>
</trkpt>
<trkpt lat="34.6852536" lon="33.0163861">
<ele>45.58</ele>
<time>2015-04-30T13:41:28Z</time>
</trkpt>
<trkpt lat="34.6852344" lon="33.0164564">
<ele>45.17</ele>
<time>2015-04-30T13:41:29Z</time>
</trkpt>
<trkpt lat="34.6852020" lon="33.0165213">
<ele>44.97</ele>
<time>2015-04-30T13:41:30Z</time>
</trkpt>
<trkpt lat="34.6851684" lon="33.0165794">
<ele>44.86</ele>
<time>2015-04-30T13:41:31Z</time>
</trkpt>
<trkpt lat="34.6851239" lon="33.0166316">
<ele>44.31</ele>
<time>2015-04-30T13:41:32Z</time>
</trkpt>
<trkpt lat="34.6850851" lon="33.0166822">
<ele>43.54</ele>
<time>2015-04-30T13:41:33Z</time>
</trkpt>
<trkpt lat="34.6850519" lon="33.0167348">
<ele>42.65</ele>
<time>2015-04-30T13:41:34Z</time>
</trkpt>
<trkpt lat="34.6850122" lon="33.0167940">
<ele>42.20</ele>
<time>2015-04-30T13:41:35Z</time>
</trkpt>
<trkpt lat="34.6849814" lon="33.0168423">
<ele>42.48</ele>
<time>2015-04-30T13:41:36Z</time>
</trkpt>
<trkpt lat="34.6849318" lon="33.0168935">
<ele>42.69</ele>
<time>2015-04-30T13:41:38Z</time>
</trkpt>
<trkpt lat="34.6848719" lon="33.0169443">
<ele>43.51</ele>
<time>2015-04-30T13:42:10Z</time>
</trkpt>
<trkpt lat="34.6848136" lon="33.0170199">
<ele>44.20</ele>
<time>2015-04-30T13:42:12Z</time>
</trkpt>
<trkpt lat="34.6847763" lon="33.0170694">
<ele>43.98</ele>
<time>2015-04-30T13:42:13Z</time>
</trkpt>
<trkpt lat="34.6847050" lon="33.0171232">
<ele>42.81</ele>
<time>2015-04-30T13:42:15Z</time>
</trkpt>
<trkpt lat="34.6846655" lon="33.0171592">
<ele>42.29</ele>
<time>2015-04-30T13:42:16Z</time>
</trkpt>
<trkpt lat="34.6846247" lon="33.0171981">
<ele>42.02</ele>
<time>2015-04-30T13:42:17Z</time>
</trkpt>
<trkpt lat="34.6845911" lon="33.0172389">
<ele>41.89</ele>
<time>2015-04-30T13:42:18Z</time>
</trkpt>
<trkpt lat="34.6845529" lon="33.0172788">
<ele>42.33</ele>
<time>2015-04-30T13:42:19Z</time>
</trkpt>
<trkpt lat="34.6845065" lon="33.0173100">
<ele>43.04</ele>
<time>2015-04-30T13:42:20Z</time>
</trkpt>
<trkpt lat="34.6844472" lon="33.0173764">
<ele>41.08</ele>
<time>2015-04-30T13:42:22Z</time>
</trkpt>
<trkpt lat="34.6843920" lon="33.0174657">
<ele>40.09</ele>
<time>2015-04-30T13:42:24Z</time>
</trkpt>
<trkpt lat="34.6843554" lon="33.0175036">
<ele>40.93</ele>
<time>2015-04-30T13:42:25Z</time>
</trkpt>
<trkpt lat="34.6843182" lon="33.0175448">
<ele>41.34</ele>
<time>2015-04-30T13:42:26Z</time>
</trkpt>
<trkpt lat="34.6842540" lon="33.0176267">
<ele>41.66</ele>
<time>2015-04-30T13:42:28Z</time>
</trkpt>
<trkpt lat="34.6842002" lon="33.0177101">
<ele>42.23</ele>
<time>2015-04-30T13:42:30Z</time>
</trkpt>
<trkpt lat="34.6841710" lon="33.0177567">
<ele>42.00</ele>
<time>2015-04-30T13:42:31Z</time>
</trkpt>
<trkpt lat="34.6841097" lon="33.0178348">
<ele>42.82</ele>
<time>2015-04-30T13:42:33Z</time>
</trkpt>
<trkpt lat="34.6840612" lon="33.0179129">
<ele>43.52</ele>
<time>2015-04-30T13:42:35Z</time>
</trkpt>
<trkpt lat="34.6840352" lon="33.0179603">
<ele>44.14</ele>
<time>2015-04-30T13:42:36Z</time>
</trkpt>
<trkpt lat="34.6840082" lon="33.0180054">
<ele>44.45</ele>
<time>2015-04-30T13:42:37Z</time>
</trkpt>
<trkpt lat="34.6839640" lon="33.0180949">
<ele>45.18</ele>
<time>2015-04-30T13:42:39Z</time>
</trkpt>
<trkpt lat="34.6839472" lon="33.0181522">
<ele>45.47</ele>
<time>2015-04-30T13:42:40Z</time>
</trkpt>
<trkpt lat="34.6839172" lon="33.0181956">
<ele>45.12</ele>
<time>2015-04-30T13:42:41Z</time>
</trkpt>
<trkpt lat="34.6838565" lon="33.0182761">
<ele>45.35</ele>
<time>2015-04-30T13:42:43Z</time>
</trkpt>
<trkpt lat="34.6838206" lon="33.0183190">
<ele>45.55</ele>
<time>2015-04-30T13:42:44Z</time>
</trkpt>
<trkpt lat="34.6837875" lon="33.0183635">
<ele>46.16</ele>
<time>2015-04-30T13:42:45Z</time>
</trkpt>
<trkpt lat="34.6837524" lon="33.0184004">
<ele>46.46</ele>
<time>2015-04-30T13:42:46Z</time>
</trkpt>
<trkpt lat="34.6837140" lon="33.0184389">
<ele>47.11</ele>
<time>2015-04-30T13:42:47Z</time>
</trkpt>
<trkpt lat="34.6836733" lon="33.0184776">
<ele>46.93</ele>
<time>2015-04-30T13:42:48Z</time>
</trkpt>
<trkpt lat="34.6836386" lon="33.0185140">
<ele>47.35</ele>
<time>2015-04-30T13:42:49Z</time>
</trkpt>
<trkpt lat="34.6836100" lon="33.0185574">
<ele>47.05</ele>
<time>2015-04-30T13:42:50Z</time>
</trkpt>
<trkpt lat="34.6835706" lon="33.0185943">
<ele>46.91</ele>
<time>2015-04-30T13:42:51Z</time>
</trkpt>
<trkpt lat="34.6835303" lon="33.0186365">
<ele>46.33</ele>
<time>2015-04-30T13:42:52Z</time>
</trkpt>
<trkpt lat="34.6834950" lon="33.0186811">
<ele>46.05</ele>
<time>2015-04-30T13:42:53Z</time>
</trkpt>
<trkpt lat="34.6834558" lon="33.0187247">
<ele>45.90</ele>
<time>2015-04-30T13:42:54Z</time>
</trkpt>
<trkpt lat="34.6834121" lon="33.0187504">
<ele>45.33</ele>
<time>2015-04-30T13:42:55Z</time>
</trkpt>
<trkpt lat="34.6833666" lon="33.0187916">
<ele>45.05</ele>
<time>2015-04-30T13:42:56Z</time>
</trkpt>
<trkpt lat="34.6833236" lon="33.0188250">
<ele>44.90</ele>
<time>2015-04-30T13:42:57Z</time>
</trkpt>
<trkpt lat="34.6832446" lon="33.0188900">
<ele>42.80</ele>
<time>2015-04-30T13:42:59Z</time>
</trkpt>
<trkpt lat="34.6832013" lon="33.0189265">
<ele>42.28</ele>
<time>2015-04-30T13:43:00Z</time>
</trkpt>
<trkpt lat="34.6831572" lon="33.0189618">
<ele>41.52</ele>
<time>2015-04-30T13:43:01Z</time>
</trkpt>
<trkpt lat="34.6831199" lon="33.0190000">
<ele>41.14</ele>
<time>2015-04-30T13:43:02Z</time>
</trkpt>
<trkpt lat="34.6830788" lon="33.0190425">
<ele>41.45</ele>
<time>2015-04-30T13:43:03Z</time>
</trkpt>
<trkpt lat="34.6830443" lon="33.0190860">
<ele>41.60</ele>
<time>2015-04-30T13:43:04Z</time>
</trkpt>
<trkpt lat="34.6830050" lon="33.0191270">
<ele>42.18</ele>
<time>2015-04-30T13:43:05Z</time>
</trkpt>
<trkpt lat="34.6830175" lon="33.0192116">
<ele>41.47</ele>
<time>2015-04-30T13:43:06Z</time>
</trkpt>
<trkpt lat="34.6830033" lon="33.0192721">
<ele>41.12</ele>
<time>2015-04-30T13:43:07Z</time>
</trkpt>
<trkpt lat="34.6829797" lon="33.0193286">
<ele>40.94</ele>
<time>2015-04-30T13:43:08Z</time>
</trkpt>
<trkpt lat="34.6829481" lon="33.0193701">
<ele>40.35</ele>
<time>2015-04-30T13:43:09Z</time>
</trkpt>
<trkpt lat="34.6829254" lon="33.0194209">
<ele>39.55</ele>
<time>2015-04-30T13:43:10Z</time>
</trkpt>
<trkpt lat="34.6829053" lon="33.0194827">
<ele>39.16</ele>
<time>2015-04-30T13:43:11Z</time>
</trkpt>
<trkpt lat="34.6828803" lon="33.0195378">
<ele>38.46</ele>
<time>2015-04-30T13:43:12Z</time>
</trkpt>
<trkpt lat="34.6828509" lon="33.0195917">
<ele>38.61</ele>
<time>2015-04-30T13:43:13Z</time>
</trkpt>
<trkpt lat="34.6828265" lon="33.0196430">
<ele>38.68</ele>
<time>2015-04-30T13:43:14Z</time>
</trkpt>
<trkpt lat="34.6828023" lon="33.0196986">
<ele>39.22</ele>
<time>2015-04-30T13:43:15Z</time>
</trkpt>
<trkpt lat="34.6827845" lon="33.0197598">
<ele>38.99</ele>
<time>2015-04-30T13:43:16Z</time>
</trkpt>
<trkpt lat="34.6827584" lon="33.0198235">
<ele>38.88</ele>
<time>2015-04-30T13:43:17Z</time>
</trkpt>
<trkpt lat="34.6827235" lon="33.0198669">
<ele>38.82</ele>
<time>2015-04-30T13:43:18Z</time>
</trkpt>
<trkpt lat="34.6826946" lon="33.0199300">
<ele>38.79</ele>
<time>2015-04-30T13:43:19Z</time>
</trkpt>
<trkpt lat="34.6826688" lon="33.0199979">
<ele>39.27</ele>
<time>2015-04-30T13:43:20Z</time>
</trkpt>
<trkpt lat="34.6826452" lon="33.0200654">
<ele>39.52</ele>
<time>2015-04-30T13:43:21Z</time>
</trkpt>
<trkpt lat="34.6826219" lon="33.0201315">
<ele>40.14</ele>
<time>2015-04-30T13:43:22Z</time>
</trkpt>
<trkpt lat="34.6825940" lon="33.0202003">
<ele>40.45</ele>
<time>2015-04-30T13:43:23Z</time>
</trkpt>
<trkpt lat="34.6825772" lon="33.0202712">
<ele>40.60</ele>
<time>2015-04-30T13:43:24Z</time>
</trkpt>
<trkpt lat="34.6825658" lon="33.0203402">
<ele>40.68</ele>
<time>2015-04-30T13:43:25Z</time>
</trkpt>
<trkpt lat="34.6825612" lon="33.0204073">
<ele>40.22</ele>
<time>2015-04-30T13:43:26Z</time>
</trkpt>
<trkpt lat="34.6825445" lon="33.0204743">
<ele>39.99</ele>
<time>2015-04-30T13:43:27Z</time>
</trkpt>
<trkpt lat="34.6825325" lon="33.0205386">
<ele>39.88</ele>
<time>2015-04-30T13:43:28Z</time>
</trkpt>
<trkpt lat="34.6825174" lon="33.0206034">
<ele>39.82</ele>
<time>2015-04-30T13:43:29Z</time>
</trkpt>
<trkpt lat="34.6825084" lon="33.0206737">
<ele>39.29</ele>
<time>2015-04-30T13:43:30Z</time>
</trkpt>
<trkpt lat="34.6825178" lon="33.0207400">
<ele>38.52</ele>
<time>2015-04-30T13:43:31Z</time>
</trkpt>
<trkpt lat="34.6824864" lon="33.0208106">
<ele>38.64</ele>
<time>2015-04-30T13:43:32Z</time>
</trkpt>
<trkpt lat="34.6824586" lon="33.0208790">
<ele>39.70</ele>
<time>2015-04-30T13:43:33Z</time>
</trkpt>
<trkpt lat="34.6824393" lon="33.0209348">
<ele>39.23</ele>
<time>2015-04-30T13:43:34Z</time>
</trkpt>
<trkpt lat="34.6824208" lon="33.0210008">
<ele>39.50</ele>
<time>2015-04-30T13:43:35Z</time>
</trkpt>
<trkpt lat="34.6824117" lon="33.0210666">
<ele>38.63</ele>
<time>2015-04-30T13:43:36Z</time>
</trkpt>
<trkpt lat="34.6823883" lon="33.0211302">
<ele>39.19</ele>
<time>2015-04-30T13:43:37Z</time>
</trkpt>
<trkpt lat="34.6823775" lon="33.0212002">
<ele>39.48</ele>
<time>2015-04-30T13:43:38Z</time>
</trkpt>
<trkpt lat="34.6823655" lon="33.0212602">
<ele>39.62</ele>
<time>2015-04-30T13:43:39Z</time>
</trkpt>
<trkpt lat="34.6823536" lon="33.0213165">
<ele>39.19</ele>
<time>2015-04-30T13:43:40Z</time>
</trkpt>
<trkpt lat="34.6823330" lon="33.0213756">
<ele>38.97</ele>
<time>2015-04-30T13:43:41Z</time>
</trkpt>
<trkpt lat="34.6823145" lon="33.0214298">
<ele>39.37</ele>
<time>2015-04-30T13:43:42Z</time>
</trkpt>
<trkpt lat="34.6823098" lon="33.0214850">
<ele>39.56</ele>
<time>2015-04-30T13:43:43Z</time>
</trkpt>
<trkpt lat="34.6822885" lon="33.0215439">
<ele>39.16</ele>
<time>2015-04-30T13:43:44Z</time>
</trkpt>
<trkpt lat="34.6822827" lon="33.0216069">
<ele>38.96</ele>
<time>2015-04-30T13:43:45Z</time>
</trkpt>
<trkpt lat="34.6822812" lon="33.0216739">
<ele>38.36</ele>
<time>2015-04-30T13:43:46Z</time>
</trkpt>
<trkpt lat="34.6822657" lon="33.0217403">
<ele>38.56</ele>
<time>2015-04-30T13:43:47Z</time>
</trkpt>
<trkpt lat="34.6822613" lon="33.0217979">
<ele>39.16</ele>
<time>2015-04-30T13:43:48Z</time>
</trkpt>
<trkpt lat="34.6822519" lon="33.0218625">
<ele>39.46</ele>
<time>2015-04-30T13:43:49Z</time>
</trkpt>
<trkpt lat="34.6822385" lon="33.0219154">
<ele>39.11</ele>
<time>2015-04-30T13:43:50Z</time>
</trkpt>
<trkpt lat="34.6822347" lon="33.0219755">
<ele>38.94</ele>
<time>2015-04-30T13:43:51Z</time>
</trkpt>
<trkpt lat="34.6822314" lon="33.0220388">
<ele>38.85</ele>
<time>2015-04-30T13:43:52Z</time>
</trkpt>
<trkpt lat="34.6822147" lon="33.0220973">
<ele>38.80</ele>
<time>2015-04-30T13:43:53Z</time>
</trkpt>
<trkpt lat="34.6821913" lon="33.0221511">
<ele>37.78</ele>
<time>2015-04-30T13:43:54Z</time>
</trkpt>
<trkpt lat="34.6821682" lon="33.0222010">
<ele>37.27</ele>
<time>2015-04-30T13:43:55Z</time>
</trkpt>
<trkpt lat="34.6821332" lon="33.0222552">
<ele>37.52</ele>
<time>2015-04-30T13:43:56Z</time>
</trkpt>
<trkpt lat="34.6821126" lon="33.0223114">
<ele>37.14</ele>
<time>2015-04-30T13:43:57Z</time>
</trkpt>
<trkpt lat="34.6820926" lon="33.0223655">
<ele>36.95</ele>
<time>2015-04-30T13:43:58Z</time>
</trkpt>
<trkpt lat="34.6820743" lon="33.0224198">
<ele>37.35</ele>
<time>2015-04-30T13:43:59Z</time>
</trkpt>
<trkpt lat="34.6820404" lon="33.0224770">
<ele>37.56</ele>
<time>2015-04-30T13:44:00Z</time>
</trkpt>
<trkpt lat="34.6820162" lon="33.0225309">
<ele>37.66</ele>
<time>2015-04-30T13:44:01Z</time>
</trkpt>
<trkpt lat="34.6819892" lon="33.0225843">
<ele>37.71</ele>
<time>2015-04-30T13:44:02Z</time>
</trkpt>
<trkpt lat="34.6819662" lon="33.0226425">
<ele>38.23</ele>
<time>2015-04-30T13:44:03Z</time>
</trkpt>
<trkpt lat="34.6819376" lon="33.0226952">
<ele>38.50</ele>
<time>2015-04-30T13:44:04Z</time>
</trkpt>
<trkpt lat="34.6819136" lon="33.0227534">
<ele>39.13</ele>
<time>2015-04-30T13:44:05Z</time>
</trkpt>
<trkpt lat="34.6819017" lon="33.0228112">
<ele>39.44</ele>
<time>2015-04-30T13:44:06Z</time>
</trkpt>
<trkpt lat="34.6818563" lon="33.0229084">
<ele>40.18</ele>
<time>2015-04-30T13:44:08Z</time>
</trkpt>
<trkpt lat="34.6818358" lon="33.0229957">
<ele>38.87</ele>
<time>2015-04-30T13:44:10Z</time>
</trkpt>
<trkpt lat="34.6818209" lon="33.0230550">
<ele>38.31</ele>
<time>2015-04-30T13:44:11Z</time>
</trkpt>
<trkpt lat="34.6817839" lon="33.0231483">
<ele>38.65</ele>
<time>2015-04-30T13:44:13Z</time>
</trkpt>
<trkpt lat="34.6817697" lon="33.0232136">
<ele>38.20</ele>
<time>2015-04-30T13:44:14Z</time>
</trkpt>
<trkpt lat="34.6817413" lon="33.0232606">
<ele>37.98</ele>
<time>2015-04-30T13:44:15Z</time>
</trkpt>
<trkpt lat="34.6817184" lon="33.0233111">
<ele>37.87</ele>
<time>2015-04-30T13:44:16Z</time>
</trkpt>
<trkpt lat="34.6816540" lon="33.0234064">
<ele>37.29</ele>
<time>2015-04-30T13:44:18Z</time>
</trkpt>
<trkpt lat="34.6815991" lon="33.0235011">
<ele>36.89</ele>
<time>2015-04-30T13:44:20Z</time>
</trkpt>
<trkpt lat="34.6815687" lon="33.0235464">
<ele>36.83</ele>
<time>2015-04-30T13:44:21Z</time>
</trkpt>
<trkpt lat="34.6815132" lon="33.0236289">
<ele>36.78</ele>
<time>2015-04-30T13:44:23Z</time>
</trkpt>
<trkpt lat="34.6814784" lon="33.0236682">
<ele>36.77</ele>
<time>2015-04-30T13:44:24Z</time>
</trkpt>
<trkpt lat="34.6814515" lon="33.0237130">
<ele>37.26</ele>
<time>2015-04-30T13:44:25Z</time>
</trkpt>
<trkpt lat="34.6814057" lon="33.0237948">
<ele>37.64</ele>
<time>2015-04-30T13:44:27Z</time>
</trkpt>
<trkpt lat="34.6813793" lon="33.0238402">
<ele>37.20</ele>
<time>2015-04-30T13:44:28Z</time>
</trkpt>
<trkpt lat="34.6813297" lon="33.0239210">
<ele>38.37</ele>
<time>2015-04-30T13:44:30Z</time>
</trkpt>
<trkpt lat="34.6812783" lon="33.0240003">
<ele>38.66</ele>
<time>2015-04-30T13:44:32Z</time>
</trkpt>
<trkpt lat="34.6812292" lon="33.0240762">
<ele>38.24</ele>
<time>2015-04-30T13:44:34Z</time>
</trkpt>
<trkpt lat="34.6811709" lon="33.0241597">
<ele>37.38</ele>
<time>2015-04-30T13:44:36Z</time>
</trkpt>
<trkpt lat="34.6811384" lon="33.0242047">
<ele>37.57</ele>
<time>2015-04-30T13:44:37Z</time>
</trkpt>
<trkpt lat="34.6811016" lon="33.0242467">
<ele>37.66</ele>
<time>2015-04-30T13:44:38Z</time>
</trkpt>
<trkpt lat="34.6810321" lon="33.0243350">
<ele>37.74</ele>
<time>2015-04-30T13:44:40Z</time>
</trkpt>
<trkpt lat="34.6809650" lon="33.0244133">
<ele>37.75</ele>
<time>2015-04-30T13:44:42Z</time>
</trkpt>
<trkpt lat="34.6809379" lon="33.0244664">
<ele>37.76</ele>
<time>2015-04-30T13:44:43Z</time>
</trkpt>
<trkpt lat="34.6809012" lon="33.0245237">
<ele>37.26</ele>
<time>2015-04-30T13:44:44Z</time>
</trkpt>
<trkpt lat="34.6808639" lon="33.0245739">
<ele>37.01</ele>
<time>2015-04-30T13:44:45Z</time>
</trkpt>
<trkpt lat="34.6808268" lon="33.0246203">
<ele>36.38</ele>
<time>2015-04-30T13:44:46Z</time>
</trkpt>
<trkpt lat="34.6808039" lon="33.0246738">
<ele>37.07</ele>
<time>2015-04-30T13:44:47Z</time>
</trkpt>
<trkpt lat="34.6807623" lon="33.0247210">
<ele>37.42</ele>
<time>2015-04-30T13:44:48Z</time>
</trkpt>
<trkpt lat="34.6807286" lon="33.0247695">
<ele>37.59</ele>
<time>2015-04-30T13:44:49Z</time>
</trkpt>
<trkpt lat="34.6806998" lon="33.0248228">
<ele>37.17</ele>
<time>2015-04-30T13:44:50Z</time>
</trkpt>
<trkpt lat="34.6806668" lon="33.0248769">
<ele>36.97</ele>
<time>2015-04-30T13:44:51Z</time>
</trkpt>
<trkpt lat="34.6806291" lon="33.0249551">
<ele>35.31</ele>
<time>2015-04-30T13:44:53Z</time>
</trkpt>
<trkpt lat="34.6805914" lon="33.0250449">
<ele>35.90</ele>
<time>2015-04-30T13:44:55Z</time>
</trkpt>
<trkpt lat="34.6805565" lon="33.0251041">
<ele>35.79</ele>
<time>2015-04-30T13:44:57Z</time>
</trkpt>
<trkpt lat="34.6805420" lon="33.0251585">
<ele>35.52</ele>
<time>2015-04-30T13:44:59Z</time>
</trkpt>
<trkpt lat="34.6805078" lon="33.0252310">
<ele>36.20</ele>
<time>2015-04-30T13:45:01Z</time>
</trkpt>
<trkpt lat="34.6804721" lon="33.0252918">
<ele>37.87</ele>
<time>2015-04-30T13:45:03Z</time>
</trkpt>
<trkpt lat="34.6804404" lon="33.0253581">
<ele>39.79</ele>
<time>2015-04-30T13:45:05Z</time>
</trkpt>
<trkpt lat="34.6804162" lon="33.0254186">
<ele>37.52</ele>
<time>2015-04-30T13:45:07Z</time>
</trkpt>
<trkpt lat="34.6803836" lon="33.0254752">
<ele>36.70</ele>
<time>2015-04-30T13:45:09Z</time>
</trkpt>
<trkpt lat="34.6803504" lon="33.0255231">
<ele>36.24</ele>
<time>2015-04-30T13:45:11Z</time>
</trkpt>
<trkpt lat="34.6803231" lon="33.0255769">
<ele>34.88</ele>
<time>2015-04-30T13:45:13Z</time>
</trkpt>
<trkpt lat="34.6802983" lon="33.0256433">
<ele>34.04</ele>
<time>2015-04-30T13:45:15Z</time>
</trkpt>
<trkpt lat="34.6802630" lon="33.0257136">
<ele>33.08</ele>
<time>2015-04-30T13:45:17Z</time>
</trkpt>
<trkpt lat="34.6802289" lon="33.0257798">
<ele>32.09</ele>
<time>2015-04-30T13:45:19Z</time>
</trkpt>
<trkpt lat="34.6801842" lon="33.0258597">
<ele>31.34</ele>
<time>2015-04-30T13:45:21Z</time>
</trkpt>
<trkpt lat="34.6801348" lon="33.0259296">
<ele>31.41</ele>
<time>2015-04-30T13:45:23Z</time>
</trkpt>
<trkpt lat="34.6800863" lon="33.0259975">
<ele>32.17</ele>
<time>2015-04-30T13:45:25Z</time>
</trkpt>
<trkpt lat="34.6800488" lon="33.0260318">
<ele>36.01</ele>
<time>2015-04-30T13:46:13Z</time>
</trkpt>
<trkpt lat="34.6800261" lon="33.0260828">
<ele>37.31</ele>
<time>2015-04-30T13:46:33Z</time>
</trkpt>
<trkpt lat="34.6799925" lon="33.0261321">
<ele>37.15</ele>
<time>2015-04-30T13:46:35Z</time>
</trkpt>
<trkpt lat="34.6799406" lon="33.0262088">
<ele>34.61</ele>
<time>2015-04-30T13:46:37Z</time>
</trkpt>
<trkpt lat="34.6798894" lon="33.0262930">
<ele>33.72</ele>
<time>2015-04-30T13:46:39Z</time>
</trkpt>
<trkpt lat="34.6798563" lon="33.0263431">
<ele>32.74</ele>
<time>2015-04-30T13:46:40Z</time>
</trkpt>
<trkpt lat="34.6797960" lon="33.0263953">
<ele>32.25</ele>
<time>2015-04-30T13:46:41Z</time>
</trkpt>
<trkpt lat="34.6797622" lon="33.0264477">
<ele>32.51</ele>
<time>2015-04-30T13:46:42Z</time>
</trkpt>
<trkpt lat="34.6797283" lon="33.0264914">
<ele>32.63</ele>
<time>2015-04-30T13:46:43Z</time>
</trkpt>
<trkpt lat="34.6797079" lon="33.0265532">
<ele>32.70</ele>
<time>2015-04-30T13:46:44Z</time>
</trkpt>
<trkpt lat="34.6796720" lon="33.0266044">
<ele>32.73</ele>
<time>2015-04-30T13:46:45Z</time>
</trkpt>
<trkpt lat="34.6796508" lon="33.0266605">
<ele>32.74</ele>
<time>2015-04-30T13:46:46Z</time>
</trkpt>
<trkpt lat="34.6796254" lon="33.0267165">
<ele>32.25</ele>
<time>2015-04-30T13:46:47Z</time>
</trkpt>
<trkpt lat="34.6795934" lon="33.0267691">
<ele>32.01</ele>
<time>2015-04-30T13:46:48Z</time>
</trkpt>
<trkpt lat="34.6795583" lon="33.0268161">
<ele>31.88</ele>
<time>2015-04-30T13:46:49Z</time>
</trkpt>
<trkpt lat="34.6795289" lon="33.0268662">
<ele>31.82</ele>
<time>2015-04-30T13:46:50Z</time>
</trkpt>
<trkpt lat="34.6794911" lon="33.0269172">
<ele>31.79</ele>
<time>2015-04-30T13:46:51Z</time>
</trkpt>
<trkpt lat="34.6794568" lon="33.0269728">
<ele>31.78</ele>
<time>2015-04-30T13:46:52Z</time>
</trkpt>
<trkpt lat="34.6794235" lon="33.0270317">
<ele>31.27</ele>
<time>2015-04-30T13:46:53Z</time>
</trkpt>
<trkpt lat="34.6793950" lon="33.0270835">
<ele>30.51</ele>
<time>2015-04-30T13:46:54Z</time>
</trkpt>
<trkpt lat="34.6793680" lon="33.0271399">
<ele>29.64</ele>
<time>2015-04-30T13:46:55Z</time>
</trkpt>
<trkpt lat="34.6793419" lon="33.0271930">
<ele>28.70</ele>
<time>2015-04-30T13:46:56Z</time>
</trkpt>
<trkpt lat="34.6793084" lon="33.0272503">
<ele>28.73</ele>
<time>2015-04-30T13:46:57Z</time>
</trkpt>
<trkpt lat="34.6792732" lon="33.0273033">
<ele>28.74</ele>
<time>2015-04-30T13:46:58Z</time>
</trkpt>
<trkpt lat="34.6792361" lon="33.0273530">
<ele>29.25</ele>
<time>2015-04-30T13:46:59Z</time>
</trkpt>
<trkpt lat="34.6792043" lon="33.0274020">
<ele>29.51</ele>
<time>2015-04-30T13:47:00Z</time>
</trkpt>
<trkpt lat="34.6791714" lon="33.0274506">
<ele>29.63</ele>
<time>2015-04-30T13:47:01Z</time>
</trkpt>
<trkpt lat="34.6791369" lon="33.0275019">
<ele>30.20</ele>
<time>2015-04-30T13:47:02Z</time>
</trkpt>
<trkpt lat="34.6791087" lon="33.0275536">
<ele>30.48</ele>
<time>2015-04-30T13:47:03Z</time>
</trkpt>
<trkpt lat="34.6790778" lon="33.0276067">
<ele>30.62</ele>
<time>2015-04-30T13:47:04Z</time>
</trkpt>
<trkpt lat="34.6790433" lon="33.0276622">
<ele>30.69</ele>
<time>2015-04-30T13:47:05Z</time>
</trkpt>
<trkpt lat="34.6790062" lon="33.0277115">
<ele>30.72</ele>
<time>2015-04-30T13:47:06Z</time>
</trkpt>
<trkpt lat="34.6789670" lon="33.0277575">
<ele>30.74</ele>
<time>2015-04-30T13:47:07Z</time>
</trkpt>
<trkpt lat="34.6789288" lon="33.0278080">
<ele>30.25</ele>
<time>2015-04-30T13:47:08Z</time>
</trkpt>
<trkpt lat="34.6788944" lon="33.0278592">
<ele>30.01</ele>
<time>2015-04-30T13:47:09Z</time>
</trkpt>
<trkpt lat="34.6788657" lon="33.0279073">
<ele>29.88</ele>
<time>2015-04-30T13:47:10Z</time>
</trkpt>
<trkpt lat="34.6788294" lon="33.0279538">
<ele>29.82</ele>
<time>2015-04-30T13:47:11Z</time>
</trkpt>
<trkpt lat="34.6787960" lon="33.0280081">
<ele>29.29</ele>
<time>2015-04-30T13:47:12Z</time>
</trkpt>
<trkpt lat="34.6787573" lon="33.0280450">
<ele>28.03</ele>
<time>2015-04-30T13:47:13Z</time>
</trkpt>
<trkpt lat="34.6787211" lon="33.0280899">
<ele>26.89</ele>
<time>2015-04-30T13:47:14Z</time>
</trkpt>
<trkpt lat="34.6786834" lon="33.0281373">
<ele>26.33</ele>
<time>2015-04-30T13:47:15Z</time>
</trkpt>
<trkpt lat="34.6786408" lon="33.0281900">
<ele>26.04</ele>
<time>2015-04-30T13:47:16Z</time>
</trkpt>
<trkpt lat="34.6786073" lon="33.0282454">
<ele>25.40</ele>
<time>2015-04-30T13:47:17Z</time>
</trkpt>
<trkpt lat="34.6785744" lon="33.0282992">
<ele>25.58</ele>
<time>2015-04-30T13:47:18Z</time>
</trkpt>
<trkpt lat="34.6785444" lon="33.0283464">
<ele>25.67</ele>
<time>2015-04-30T13:47:19Z</time>
</trkpt>
<trkpt lat="34.6785056" lon="33.0283953">
<ele>25.72</ele>
<time>2015-04-30T13:47:20Z</time>
</trkpt>
<trkpt lat="34.6784731" lon="33.0284511">
<ele>25.74</ele>
<time>2015-04-30T13:47:21Z</time>
</trkpt>
<trkpt lat="34.6784259" lon="33.0285018">
<ele>25.25</ele>
<time>2015-04-30T13:47:22Z</time>
</trkpt>
<trkpt lat="34.6783975" lon="33.0285462">
<ele>25.00</ele>
<time>2015-04-30T13:47:23Z</time>
</trkpt>
<trkpt lat="34.6783541" lon="33.0285885">
<ele>24.88</ele>
<time>2015-04-30T13:47:24Z</time>
</trkpt>
<trkpt lat="34.6783081" lon="33.0286263">
<ele>24.82</ele>
<time>2015-04-30T13:47:25Z</time>
</trkpt>
<trkpt lat="34.6782711" lon="33.0286660">
<ele>25.29</ele>
<time>2015-04-30T13:47:26Z</time>
</trkpt>
<trkpt lat="34.6782335" lon="33.0287043">
<ele>25.53</ele>
<time>2015-04-30T13:47:27Z</time>
</trkpt>
<trkpt lat="34.6781930" lon="33.0287479">
<ele>25.64</ele>
<time>2015-04-30T13:47:28Z</time>
</trkpt>
<trkpt lat="34.6781324" lon="33.0287638">
<ele>26.20</ele>
<time>2015-04-30T13:47:29Z</time>
</trkpt>
<trkpt lat="34.6780841" lon="33.0287976">
<ele>26.48</ele>
<time>2015-04-30T13:47:30Z</time>
</trkpt>
<trkpt lat="34.6780285" lon="33.0288124">
<ele>26.62</ele>
<time>2015-04-30T13:47:31Z</time>
</trkpt>
<trkpt lat="34.6779714" lon="33.0288218">
<ele>26.69</ele>
<time>2015-04-30T13:47:32Z</time>
</trkpt>
<trkpt lat="34.6779157" lon="33.0288277">
<ele>26.73</ele>
<time>2015-04-30T13:47:33Z</time>
</trkpt>
<trkpt lat="34.6778552" lon="33.0288197">
<ele>26.74</ele>
<time>2015-04-30T13:47:34Z</time>
</trkpt>
<trkpt lat="34.6777999" lon="33.0288157">
<ele>25.75</ele>
<time>2015-04-30T13:47:35Z</time>
</trkpt>
<trkpt lat="34.6777424" lon="33.0288250">
<ele>25.26</ele>
<time>2015-04-30T13:47:36Z</time>
</trkpt>
<trkpt lat="34.6776862" lon="33.0288199">
<ele>24.51</ele>
<time>2015-04-30T13:47:37Z</time>
</trkpt>
<trkpt lat="34.6776217" lon="33.0288205">
<ele>24.63</ele>
<time>2015-04-30T13:47:38Z</time>
</trkpt>
<trkpt lat="34.6775624" lon="33.0288229">
<ele>24.70</ele>
<time>2015-04-30T13:47:39Z</time>
</trkpt>
<trkpt lat="34.6774997" lon="33.0288315">
<ele>25.23</ele>
<time>2015-04-30T13:47:40Z</time>
</trkpt>
<trkpt lat="34.6774389" lon="33.0288293">
<ele>25.49</ele>
<time>2015-04-30T13:47:41Z</time>
</trkpt>
<trkpt lat="34.6773819" lon="33.0288225">
<ele>25.63</ele>
<time>2015-04-30T13:47:42Z</time>
</trkpt>
<trkpt lat="34.6773216" lon="33.0288316">
<ele>25.19</ele>
<time>2015-04-30T13:47:43Z</time>
</trkpt>
<trkpt lat="34.6772624" lon="33.0288351">
<ele>25.48</ele>
<time>2015-04-30T13:47:44Z</time>
</trkpt>
<trkpt lat="34.6772073" lon="33.0288346">
<ele>26.12</ele>
<time>2015-04-30T13:47:45Z</time>
</trkpt>
<trkpt lat="34.6771523" lon="33.0288365">
<ele>26.44</ele>
<time>2015-04-30T13:47:46Z</time>
</trkpt>
<trkpt lat="34.6771040" lon="33.0288369">
<ele>26.60</ele>
<time>2015-04-30T13:47:47Z</time>
</trkpt>
<trkpt lat="34.6770517" lon="33.0288374">
<ele>26.68</ele>
<time>2015-04-30T13:47:48Z</time>
</trkpt>
<trkpt lat="34.6770046" lon="33.0288431">
<ele>26.72</ele>
<time>2015-04-30T13:47:49Z</time>
</trkpt>
<trkpt lat="34.6769492" lon="33.0288373">
<ele>26.74</ele>
<time>2015-04-30T13:47:50Z</time>
</trkpt>
<trkpt lat="34.6769000" lon="33.0288439">
<ele>26.75</ele>
<time>2015-04-30T13:47:51Z</time>
</trkpt>
<trkpt lat="34.6768513" lon="33.0288379">
<ele>27.75</ele>
<time>2015-04-30T13:47:52Z</time>
</trkpt>
<trkpt lat="34.6768035" lon="33.0288345">
<ele>27.76</ele>
<time>2015-04-30T13:47:53Z</time>
</trkpt>
<trkpt lat="34.6767546" lon="33.0288271">
<ele>26.76</ele>
<time>2015-04-30T13:47:54Z</time>
</trkpt>
<trkpt lat="34.6766638" lon="33.0288282">
<ele>26.76</ele>
<time>2015-04-30T13:47:56Z</time>
</trkpt>
<trkpt lat="34.6766168" lon="33.0288365">
<ele>27.26</ele>
<time>2015-04-30T13:47:57Z</time>
</trkpt>
<trkpt lat="34.6765666" lon="33.0288447">
<ele>27.51</ele>
<time>2015-04-30T13:47:58Z</time>
</trkpt>
<trkpt lat="34.6764787" lon="33.0288456">
<ele>27.70</ele>
<time>2015-04-30T13:48:00Z</time>
</trkpt>
<trkpt lat="34.6764310" lon="33.0288508">
<ele>27.73</ele>
<time>2015-04-30T13:48:01Z</time>
</trkpt>
<trkpt lat="34.6763853" lon="33.0288517">
<ele>27.74</ele>
<time>2015-04-30T13:48:02Z</time>
</trkpt>
<trkpt lat="34.6763387" lon="33.0288538">
<ele>27.75</ele>
<time>2015-04-30T13:48:03Z</time>
</trkpt>
<trkpt lat="34.6762910" lon="33.0288554">
<ele>27.76</ele>
<time>2015-04-30T13:48:04Z</time>
</trkpt>
<trkpt lat="34.6762457" lon="33.0288567">
<ele>27.76</ele>
<time>2015-04-30T13:48:05Z</time>
</trkpt>
<trkpt lat="34.6761944" lon="33.0288577">
<ele>27.76</ele>
<time>2015-04-30T13:48:06Z</time>
</trkpt>
<trkpt lat="34.6761035" lon="33.0288572">
<ele>28.51</ele>
<time>2015-04-30T13:48:08Z</time>
</trkpt>
<trkpt lat="34.6760594" lon="33.0288697">
<ele>29.13</ele>
<time>2015-04-30T13:48:09Z</time>
</trkpt>
<trkpt lat="34.6759771" lon="33.0288741">
<ele>28.35</ele>
<time>2015-04-30T13:48:11Z</time>
</trkpt>
<trkpt lat="34.6759332" lon="33.0288604">
<ele>28.06</ele>
<time>2015-04-30T13:48:12Z</time>
</trkpt>
<trkpt lat="34.6758528" lon="33.0288349">
<ele>27.08</ele>
<time>2015-04-30T13:48:14Z</time>
</trkpt>
<trkpt lat="34.6757726" lon="33.0288460">
<ele>28.09</ele>
<time>2015-04-30T13:48:16Z</time>
</trkpt>
<trkpt lat="34.6756943" lon="33.0288378">
<ele>26.59</ele>
<time>2015-04-30T13:48:18Z</time>
</trkpt>
<trkpt lat="34.6756104" lon="33.0288337">
<ele>26.47</ele>
<time>2015-04-30T13:48:20Z</time>
</trkpt>
<trkpt lat="34.6755301" lon="33.0288409">
<ele>25.94</ele>
<time>2015-04-30T13:48:22Z</time>
</trkpt>
<trkpt lat="34.6754484" lon="33.0288454">
<ele>25.80</ele>
<time>2015-04-30T13:48:24Z</time>
</trkpt>
<trkpt lat="34.6753719" lon="33.0288350">
<ele>26.27</ele>
<time>2015-04-30T13:48:26Z</time>
</trkpt>
<trkpt lat="34.6752942" lon="33.0288392">
<ele>26.64</ele>
<time>2015-04-30T13:48:28Z</time>
</trkpt>
<trkpt lat="34.6752150" lon="33.0288427">
<ele>27.23</ele>
<time>2015-04-30T13:48:30Z</time>
</trkpt>
<trkpt lat="34.6751221" lon="33.0288347">
<ele>27.13</ele>
<time>2015-04-30T13:48:32Z</time>
</trkpt>
<trkpt lat="34.6750383" lon="33.0288283">
<ele>25.60</ele>
<time>2015-04-30T13:48:34Z</time>
</trkpt>
<trkpt lat="34.6749417" lon="33.0288333">
<ele>24.97</ele>
<time>2015-04-30T13:48:36Z</time>
</trkpt>
<trkpt lat="34.6748914" lon="33.0288323">
<ele>25.37</ele>
<time>2015-04-30T13:48:37Z</time>
</trkpt>
<trkpt lat="34.6748467" lon="33.0288264">
<ele>25.56</ele>
<time>2015-04-30T13:48:38Z</time>
</trkpt>
<trkpt lat="34.6748004" lon="33.0288302">
<ele>26.16</ele>
<time>2015-04-30T13:48:39Z</time>
</trkpt>
<trkpt lat="34.6747146" lon="33.0288354">
<ele>25.86</ele>
<time>2015-04-30T13:48:41Z</time>
</trkpt>
<trkpt lat="34.6746297" lon="33.0288287">
<ele>26.54</ele>
<time>2015-04-30T13:48:43Z</time>
</trkpt>
<trkpt lat="34.6745829" lon="33.0288260">
<ele>27.15</ele>
<time>2015-04-30T13:48:44Z</time>
</trkpt>
<trkpt lat="34.6745087" lon="33.0288300">
<ele>28.11</ele>
<time>2015-04-30T13:48:46Z</time>
</trkpt>
<trkpt lat="34.6744473" lon="33.0288286">
<ele>28.85</ele>
<time>2015-04-30T13:48:48Z</time>
</trkpt>
<trkpt lat="34.6743919" lon="33.0288482">
<ele>34.51</ele>
<time>2015-04-30T13:49:30Z</time>
</trkpt>
<trkpt lat="34.6743147" lon="33.0288658">
<ele>32.20</ele>
<time>2015-04-30T13:49:32Z</time>
</trkpt>
<trkpt lat="34.6742511" lon="33.0288882">
<ele>30.12</ele>
<time>2015-04-30T13:49:34Z</time>
</trkpt>
<trkpt lat="34.6741876" lon="33.0288938">
<ele>28.10</ele>
<time>2015-04-30T13:49:36Z</time>
</trkpt>
<trkpt lat="34.6741351" lon="33.0288562">
<ele>27.05</ele>
<time>2015-04-30T13:49:39Z</time>
</trkpt>
<trkpt lat="34.6740841" lon="33.0288702">
<ele>27.33</ele>
<time>2015-04-30T13:49:41Z</time>
</trkpt>
<trkpt lat="34.6740165" lon="33.0288911">
<ele>28.40</ele>
<time>2015-04-30T13:49:43Z</time>
</trkpt>
<trkpt lat="34.6739304" lon="33.0289163">
<ele>28.67</ele>
<time>2015-04-30T13:49:45Z</time>
</trkpt>
<trkpt lat="34.6738547" lon="33.0289435">
<ele>28.74</ele>
<time>2015-04-30T13:49:47Z</time>
</trkpt>
<trkpt lat="34.6737845" lon="33.0289702">
<ele>28.50</ele>
<time>2015-04-30T13:49:49Z</time>
</trkpt>
<trkpt lat="34.6737108" lon="33.0289899">
<ele>28.20</ele>
<time>2015-04-30T13:49:51Z</time>
</trkpt>
<trkpt lat="34.6736083" lon="33.0290290">
<ele>27.12</ele>
<time>2015-04-30T13:49:53Z</time>
</trkpt>
<trkpt lat="34.6735123" lon="33.0290451">
<ele>25.85</ele>
<time>2015-04-30T13:49:55Z</time>
</trkpt>
<trkpt lat="34.6734680" lon="33.0290664">
<ele>25.80</ele>
<time>2015-04-30T13:49:56Z</time>
</trkpt>
<trkpt lat="34.6734233" lon="33.0290766">
<ele>25.28</ele>
<time>2015-04-30T13:49:57Z</time>
</trkpt>
<trkpt lat="34.6733692" lon="33.0290893">
<ele>25.02</ele>
<time>2015-04-30T13:49:58Z</time>
</trkpt>
<trkpt lat="34.6733255" lon="33.0291112">
<ele>24.89</ele>
<time>2015-04-30T13:49:59Z</time>
</trkpt>
<trkpt lat="34.6732737" lon="33.0291285">
<ele>24.83</ele>
<time>2015-04-30T13:50:00Z</time>
</trkpt>
<trkpt lat="34.6732321" lon="33.0291535">
<ele>24.79</ele>
<time>2015-04-30T13:50:01Z</time>
</trkpt>
<trkpt lat="34.6731375" lon="33.0291864">
<ele>25.27</ele>
<time>2015-04-30T13:50:03Z</time>
</trkpt>
<trkpt lat="34.6730843" lon="33.0291983">
<ele>25.51</ele>
<time>2015-04-30T13:50:04Z</time>
</trkpt>
<trkpt lat="34.6730374" lon="33.0292134">
<ele>25.14</ele>
<time>2015-04-30T13:50:05Z</time>
</trkpt>
<trkpt lat="34.6729914" lon="33.0292206">
<ele>24.95</ele>
<time>2015-04-30T13:50:06Z</time>
</trkpt>
<trkpt lat="34.6729442" lon="33.0292353">
<ele>23.85</ele>
<time>2015-04-30T13:50:07Z</time>
</trkpt>
<trkpt lat="34.6729011" lon="33.0292525">
<ele>23.81</ele>
<time>2015-04-30T13:50:08Z</time>
</trkpt>
<trkpt lat="34.6728215" lon="33.0292915">
<ele>23.77</ele>
<time>2015-04-30T13:50:10Z</time>
</trkpt>
<trkpt lat="34.6727424" lon="33.0293238">
<ele>24.01</ele>
<time>2015-04-30T13:50:12Z</time>
</trkpt>
<trkpt lat="34.6726676" lon="33.0293316">
<ele>24.07</ele>
<time>2015-04-30T13:50:14Z</time>
</trkpt>
<trkpt lat="34.6725879" lon="33.0293394">
<ele>23.59</ele>
<time>2015-04-30T13:50:16Z</time>
</trkpt>
<trkpt lat="34.6725177" lon="33.0293542">
<ele>26.25</ele>
<time>2015-04-30T13:50:18Z</time>
</trkpt>
<trkpt lat="34.6724735" lon="33.0293796">
<ele>26.53</ele>
<time>2015-04-30T13:50:19Z</time>
</trkpt>
<trkpt lat="34.6723982" lon="33.0294082">
<ele>26.73</ele>
<time>2015-04-30T13:50:21Z</time>
</trkpt>
<trkpt lat="34.6723221" lon="33.0294343">
<ele>26.79</ele>
<time>2015-04-30T13:50:23Z</time>
</trkpt>
<trkpt lat="34.6722408" lon="33.0294560">
<ele>26.80</ele>
<time>2015-04-30T13:50:25Z</time>
</trkpt>
<trkpt lat="34.6721576" lon="33.0294708">
<ele>26.55</ele>
<time>2015-04-30T13:50:27Z</time>
</trkpt>
<trkpt lat="34.6721046" lon="33.0294812">
<ele>26.68</ele>
<time>2015-04-30T13:50:28Z</time>
</trkpt>
<trkpt lat="34.6720619" lon="33.0294991">
<ele>26.74</ele>
<time>2015-04-30T13:50:29Z</time>
</trkpt>
<trkpt lat="34.6719800" lon="33.0295174">
<ele>27.04</ele>
<time>2015-04-30T13:50:31Z</time>
</trkpt>
<trkpt lat="34.6719022" lon="33.0295469">
<ele>27.86</ele>
<time>2015-04-30T13:50:33Z</time>
</trkpt>
<trkpt lat="34.6718198" lon="33.0295789">
<ele>28.32</ele>
<time>2015-04-30T13:50:35Z</time>
</trkpt>
<trkpt lat="34.6717434" lon="33.0295923">
<ele>27.43</ele>
<time>2015-04-30T13:50:37Z</time>
</trkpt>
<trkpt lat="34.6716682" lon="33.0296165">
<ele>26.96</ele>
<time>2015-04-30T13:50:39Z</time>
</trkpt>
<trkpt lat="34.6715883" lon="33.0296357">
<ele>26.84</ele>
<time>2015-04-30T13:50:41Z</time>
</trkpt>
<trkpt lat="34.6715152" lon="33.0296589">
<ele>26.31</ele>
<time>2015-04-30T13:50:43Z</time>
</trkpt>
<trkpt lat="34.6714415" lon="33.0296795">
<ele>26.93</ele>
<time>2015-04-30T13:50:45Z</time>
</trkpt>
<trkpt lat="34.6713705" lon="33.0296916">
<ele>26.84</ele>
<time>2015-04-30T13:50:47Z</time>
</trkpt>
<trkpt lat="34.6713163" lon="33.0297098">
<ele>26.06</ele>
<time>2015-04-30T13:50:49Z</time>
</trkpt>
<trkpt lat="34.6712626" lon="33.0297268">
<ele>25.37</ele>
<time>2015-04-30T13:50:51Z</time>
</trkpt>
<trkpt lat="34.6712087" lon="33.0297416">
<ele>24.95</ele>
<time>2015-04-30T13:50:53Z</time>
</trkpt>
<trkpt lat="34.6711566" lon="33.0297487">
<ele>25.09</ele>
<time>2015-04-30T13:50:55Z</time>
</trkpt>
<trkpt lat="34.6711154" lon="33.0297767">
<ele>25.21</ele>
<time>2015-04-30T13:50:58Z</time>
</trkpt>
<trkpt lat="34.6711182" lon="33.0298406">
<ele>25.23</ele>
<time>2015-04-30T13:51:01Z</time>
</trkpt>
<trkpt lat="34.6711458" lon="33.0298946">
<ele>25.16</ele>
<time>2015-04-30T13:51:03Z</time>
</trkpt>
<trkpt lat="34.6711736" lon="33.0299525">
<ele>24.48</ele>
<time>2015-04-30T13:51:04Z</time>
</trkpt>
<trkpt lat="34.6712043" lon="33.0300070">
<ele>24.64</ele>
<time>2015-04-30T13:51:05Z</time>
</trkpt>
<trkpt lat="34.6712541" lon="33.0300961">
<ele>24.76</ele>
<time>2015-04-30T13:51:07Z</time>
</trkpt>
<trkpt lat="34.6713005" lon="33.0301804">
<ele>24.79</ele>
<time>2015-04-30T13:51:09Z</time>
</trkpt>
<trkpt lat="34.6713341" lon="33.0302387">
<ele>24.30</ele>
<time>2015-04-30T13:51:11Z</time>
</trkpt>
<trkpt lat="34.6713155" lon="33.0303190">
<ele>23.93</ele>
<time>2015-04-30T13:51:13Z</time>
</trkpt>
<trkpt lat="34.6712528" lon="33.0303752">
<ele>23.34</ele>
<time>2015-04-30T13:51:15Z</time>
</trkpt>
<trkpt lat="34.6711813" lon="33.0304143">
<ele>23.94</ele>
<time>2015-04-30T13:51:17Z</time>
</trkpt>
<trkpt lat="34.6711059" lon="33.0304609">
<ele>25.09</ele>
<time>2015-04-30T13:51:19Z</time>
</trkpt>
<trkpt lat="34.6710393" lon="33.0305074">
<ele>25.62</ele>
<time>2015-04-30T13:51:21Z</time>
</trkpt>
<trkpt lat="34.6709757" lon="33.0305446">
<ele>24.51</ele>
<time>2015-04-30T13:51:23Z</time>
</trkpt>
<trkpt lat="34.6709129" lon="33.0305856">
<ele>25.23</ele>
<time>2015-04-30T13:51:25Z</time>
</trkpt>
<trkpt lat="34.6708476" lon="33.0306258">
<ele>24.91</ele>
<time>2015-04-30T13:51:27Z</time>
</trkpt>
<trkpt lat="34.6707661" lon="33.0306692">
<ele>25.33</ele>
<time>2015-04-30T13:51:29Z</time>
</trkpt>
<trkpt lat="34.6707001" lon="33.0307230">
<ele>23.44</ele>
<time>2015-04-30T13:51:31Z</time>
</trkpt>
<trkpt lat="34.6706384" lon="33.0307915">
<ele>22.21</ele>
<time>2015-04-30T13:51:33Z</time>
</trkpt>
<trkpt lat="34.6705755" lon="33.0308415">
<ele>21.16</ele>
<time>2015-04-30T13:51:35Z</time>
</trkpt>
<trkpt lat="34.6705334" lon="33.0308664">
<ele>20.89</ele>
<time>2015-04-30T13:51:37Z</time>
</trkpt>
<trkpt lat="34.6705108" lon="33.0309532">
<ele>20.62</ele>
<time>2015-04-30T13:52:34Z</time>
</trkpt>
<trkpt lat="34.6705311" lon="33.0310512">
<ele>19.76</ele>
<time>2015-04-30T13:52:36Z</time>
</trkpt>
<trkpt lat="34.6705540" lon="33.0310999">
<ele>19.78</ele>
<time>2015-04-30T13:52:37Z</time>
</trkpt>
<trkpt lat="34.6706026" lon="33.0311807">
<ele>20.05</ele>
<time>2015-04-30T13:52:39Z</time>
</trkpt>
<trkpt lat="34.6706451" lon="33.0312668">
<ele>20.12</ele>
<time>2015-04-30T13:52:41Z</time>
</trkpt>
<trkpt lat="34.6706841" lon="33.0313452">
<ele>21.63</ele>
<time>2015-04-30T13:52:43Z</time>
</trkpt>
<trkpt lat="34.6707246" lon="33.0314230">
<ele>23.01</ele>
<time>2015-04-30T13:52:45Z</time>
</trkpt>
<trkpt lat="34.6707727" lon="33.0314918">
<ele>22.86</ele>
<time>2015-04-30T13:52:47Z</time>
</trkpt>
<trkpt lat="34.6708133" lon="33.0315761">
<ele>23.57</ele>
<time>2015-04-30T13:52:49Z</time>
</trkpt>
<trkpt lat="34.6708517" lon="33.0316591">
<ele>23.49</ele>
<time>2015-04-30T13:52:51Z</time>
</trkpt>
<trkpt lat="34.6708949" lon="33.0317442">
<ele>23.73</ele>
<time>2015-04-30T13:52:53Z</time>
</trkpt>
<trkpt lat="34.6709408" lon="33.0318278">
<ele>23.53</ele>
<time>2015-04-30T13:52:55Z</time>
</trkpt>
<trkpt lat="34.6709789" lon="33.0319040">
<ele>23.67</ele>
<time>2015-04-30T13:52:56Z</time>
</trkpt>
<trkpt lat="34.6710046" lon="33.0319540">
<ele>24.24</ele>
<time>2015-04-30T13:52:57Z</time>
</trkpt>
<trkpt lat="34.6710306" lon="33.0319995">
<ele>24.52</ele>
<time>2015-04-30T13:52:58Z</time>
</trkpt>
<trkpt lat="34.6710608" lon="33.0320401">
<ele>24.66</ele>
<time>2015-04-30T13:52:59Z</time>
</trkpt>
<trkpt lat="34.6710914" lon="33.0320850">
<ele>24.73</ele>
<time>2015-04-30T13:53:00Z</time>
</trkpt>
<trkpt lat="34.6711202" lon="33.0321356">
<ele>25.27</ele>
<time>2015-04-30T13:53:01Z</time>
</trkpt>
<trkpt lat="34.6711562" lon="33.0321804">
<ele>25.54</ele>
<time>2015-04-30T13:53:02Z</time>
</trkpt>
<trkpt lat="34.6711864" lon="33.0322401">
<ele>25.67</ele>
<time>2015-04-30T13:53:03Z</time>
</trkpt>
<trkpt lat="34.6712192" lon="33.0323011">
<ele>26.24</ele>
<time>2015-04-30T13:53:04Z</time>
</trkpt>
<trkpt lat="34.6712454" lon="33.0323534">
<ele>26.52</ele>
<time>2015-04-30T13:53:05Z</time>
</trkpt>
<trkpt lat="34.6712729" lon="33.0324063">
<ele>26.66</ele>
<time>2015-04-30T13:53:06Z</time>
</trkpt>
<trkpt lat="34.6712964" lon="33.0324569">
<ele>27.23</ele>
<time>2015-04-30T13:53:07Z</time>
</trkpt>
<trkpt lat="34.6713168" lon="33.0325097">
<ele>27.52</ele>
<time>2015-04-30T13:53:08Z</time>
</trkpt>
<trkpt lat="34.6713416" lon="33.0325804">
<ele>27.16</ele>
<time>2015-04-30T13:53:09Z</time>
</trkpt>
<trkpt lat="34.6713584" lon="33.0326441">
<ele>26.98</ele>
<time>2015-04-30T13:53:10Z</time>
</trkpt>
<trkpt lat="34.6713878" lon="33.0326964">
<ele>26.89</ele>
<time>2015-04-30T13:53:11Z</time>
</trkpt>
<trkpt lat="34.6714247" lon="33.0327400">
<ele>26.85</ele>
<time>2015-04-30T13:53:12Z</time>
</trkpt>
<trkpt lat="34.6714527" lon="33.0327873">
<ele>26.33</ele>
<time>2015-04-30T13:53:13Z</time>
</trkpt>
<trkpt lat="34.6714814" lon="33.0328394">
<ele>26.07</ele>
<time>2015-04-30T13:53:14Z</time>
</trkpt>
<trkpt lat="34.6715039" lon="33.0328923">
<ele>25.93</ele>
<time>2015-04-30T13:53:15Z</time>
</trkpt>
<trkpt lat="34.6715287" lon="33.0329524">
<ele>26.37</ele>
<time>2015-04-30T13:53:16Z</time>
</trkpt>
<trkpt lat="34.6715549" lon="33.0330108">
<ele>26.09</ele>
<time>2015-04-30T13:53:17Z</time>
</trkpt>
<trkpt lat="34.6715819" lon="33.0330622">
<ele>25.95</ele>
<time>2015-04-30T13:53:18Z</time>
</trkpt>
<trkpt lat="34.6716142" lon="33.0331121">
<ele>26.37</ele>
<time>2015-04-30T13:53:19Z</time>
</trkpt>
<trkpt lat="34.6716441" lon="33.0331688">
<ele>26.09</ele>
<time>2015-04-30T13:53:20Z</time>
</trkpt>
<trkpt lat="34.6716706" lon="33.0332162">
<ele>26.45</ele>
<time>2015-04-30T13:53:21Z</time>
</trkpt>
<trkpt lat="34.6716938" lon="33.0332684">
<ele>27.13</ele>
<time>2015-04-30T13:53:22Z</time>
</trkpt>
<trkpt lat="34.6717435" lon="33.0333637">
<ele>28.38</ele>
<time>2015-04-30T13:53:24Z</time>
</trkpt>
<trkpt lat="34.6717657" lon="33.0334167">
<ele>28.09</ele>
<time>2015-04-30T13:53:25Z</time>
</trkpt>
<trkpt lat="34.6717918" lon="33.0334615">
<ele>28.45</ele>
<time>2015-04-30T13:53:26Z</time>
</trkpt>
<trkpt lat="34.6718368" lon="33.0335426">
<ele>29.22</ele>
<time>2015-04-30T13:53:28Z</time>
</trkpt>
<trkpt lat="34.6718658" lon="33.0336100">
<ele>29.66</ele>
<time>2015-04-30T13:53:30Z</time>
</trkpt>
<trkpt lat="34.6718894" lon="33.0336646">
<ele>29.77</ele>
<time>2015-04-30T13:53:32Z</time>
</trkpt>
<trkpt lat="34.6719183" lon="33.0337161">
<ele>30.30</ele>
<time>2015-04-30T13:53:35Z</time>
</trkpt>
<trkpt lat="34.6719347" lon="33.0337674">
<ele>30.62</ele>
<time>2015-04-30T13:53:38Z</time>
</trkpt>
<trkpt lat="34.6719578" lon="33.0338687">
<ele>31.66</ele>
<time>2015-04-30T13:53:41Z</time>
</trkpt>
<trkpt lat="34.6719738" lon="33.0339254">
<ele>31.73</ele>
<time>2015-04-30T13:53:42Z</time>
</trkpt>
<trkpt lat="34.6719944" lon="33.0339892">
<ele>31.77</ele>
<time>2015-04-30T13:53:43Z</time>
</trkpt>
<trkpt lat="34.6720016" lon="33.0340432">
<ele>31.79</ele>
<time>2015-04-30T13:53:44Z</time>
</trkpt>
<trkpt lat="34.6720035" lon="33.0340992">
<ele>31.79</ele>
<time>2015-04-30T13:53:45Z</time>
</trkpt>
<trkpt lat="34.6719957" lon="33.0341970">
<ele>30.55</ele>
<time>2015-04-30T13:53:47Z</time>
</trkpt>
<trkpt lat="34.6719791" lon="33.0342895">
<ele>29.49</ele>
<time>2015-04-30T13:53:49Z</time>
</trkpt>
<trkpt lat="34.6719705" lon="33.0343786">
<ele>28.23</ele>
<time>2015-04-30T13:53:51Z</time>
</trkpt>
<trkpt lat="34.6719640" lon="33.0344862">
<ele>27.16</ele>
<time>2015-04-30T13:53:53Z</time>
</trkpt>
<trkpt lat="34.6719627" lon="33.0345419">
<ele>26.98</ele>
<time>2015-04-30T13:53:54Z</time>
</trkpt>
<trkpt lat="34.6719539" lon="33.0345992">
<ele>27.39</ele>
<time>2015-04-30T13:53:55Z</time>
</trkpt>
<trkpt lat="34.6719475" lon="33.0346540">
<ele>27.10</ele>
<time>2015-04-30T13:53:56Z</time>
</trkpt>
<trkpt lat="34.6719453" lon="33.0347118">
<ele>26.95</ele>
<time>2015-04-30T13:53:57Z</time>
</trkpt>
<trkpt lat="34.6719410" lon="33.0347719">
<ele>26.88</ele>
<time>2015-04-30T13:53:58Z</time>
</trkpt>
<trkpt lat="34.6719378" lon="33.0348375">
<ele>26.34</ele>
<time>2015-04-30T13:53:59Z</time>
</trkpt>
<trkpt lat="34.6719383" lon="33.0349068">
<ele>26.07</ele>
<time>2015-04-30T13:54:00Z</time>
</trkpt>
<trkpt lat="34.6719397" lon="33.0349776">
<ele>25.94</ele>
<time>2015-04-30T13:54:01Z</time>
</trkpt>
<trkpt lat="34.6719411" lon="33.0350446">
<ele>25.87</ele>
<time>2015-04-30T13:54:02Z</time>
</trkpt>
<trkpt lat="34.6719365" lon="33.0351082">
<ele>25.84</ele>
<time>2015-04-30T13:54:03Z</time>
</trkpt>
<trkpt lat="34.6719360" lon="33.0351663">
<ele>25.32</ele>
<time>2015-04-30T13:54:04Z</time>
</trkpt>
<trkpt lat="34.6719364" lon="33.0352305">
<ele>24.56</ele>
<time>2015-04-30T13:54:05Z</time>
</trkpt>
<trkpt lat="34.6719352" lon="33.0352890">
<ele>24.18</ele>
<time>2015-04-30T13:54:06Z</time>
</trkpt>
<trkpt lat="34.6719361" lon="33.0353551">
<ele>23.99</ele>
<time>2015-04-30T13:54:07Z</time>
</trkpt>
<trkpt lat="34.6719389" lon="33.0354118">
<ele>23.90</ele>
<time>2015-04-30T13:54:08Z</time>
</trkpt>
<trkpt lat="34.6719390" lon="33.0354757">
<ele>23.85</ele>
<time>2015-04-30T13:54:09Z</time>
</trkpt>
<trkpt lat="34.6719373" lon="33.0355413">
<ele>23.83</ele>
<time>2015-04-30T13:54:10Z</time>
</trkpt>
<trkpt lat="34.6719335" lon="33.0356039">
<ele>23.82</ele>
<time>2015-04-30T13:54:11Z</time>
</trkpt>
<trkpt lat="34.6719296" lon="33.0356638">
<ele>23.81</ele>
<time>2015-04-30T13:54:12Z</time>
</trkpt>
<trkpt lat="34.6719319" lon="33.0357209">
<ele>23.81</ele>
<time>2015-04-30T13:54:13Z</time>
</trkpt>
<trkpt lat="34.6719302" lon="33.0357839">
<ele>23.81</ele>
<time>2015-04-30T13:54:14Z</time>
</trkpt>
<trkpt lat="34.6719314" lon="33.0358392">
<ele>23.80</ele>
<time>2015-04-30T13:54:15Z</time>
</trkpt>
<trkpt lat="34.6719295" lon="33.0359011">
<ele>23.80</ele>
<time>2015-04-30T13:54:16Z</time>
</trkpt>
<trkpt lat="34.6719252" lon="33.0359649">
<ele>23.80</ele>
<time>2015-04-30T13:54:17Z</time>
</trkpt>
<trkpt lat="34.6719294" lon="33.0360303">
<ele>23.80</ele>
<time>2015-04-30T13:54:18Z</time>
</trkpt>
<trkpt lat="34.6719331" lon="33.0360934">
<ele>23.80</ele>
<time>2015-04-30T13:54:19Z</time>
</trkpt>
<trkpt lat="34.6719288" lon="33.0361518">
<ele>23.80</ele>
<time>2015-04-30T13:54:20Z</time>
</trkpt>
<trkpt lat="34.6719295" lon="33.0362097">
<ele>23.30</ele>
<time>2015-04-30T13:54:21Z</time>
</trkpt>
<trkpt lat="34.6719270" lon="33.0362720">
<ele>22.55</ele>
<time>2015-04-30T13:54:22Z</time>
</trkpt>
<trkpt lat="34.6719260" lon="33.0363285">
<ele>22.18</ele>
<time>2015-04-30T13:54:23Z</time>
</trkpt>
<trkpt lat="34.6719256" lon="33.0363924">
<ele>21.49</ele>
<time>2015-04-30T13:54:24Z</time>
</trkpt>
<trkpt lat="34.6719253" lon="33.0364592">
<ele>21.15</ele>
<time>2015-04-30T13:54:25Z</time>
</trkpt>
<trkpt lat="34.6719190" lon="33.0365188">
<ele>20.98</ele>
<time>2015-04-30T13:54:26Z</time>
</trkpt>
<trkpt lat="34.6719108" lon="33.0365791">
<ele>20.89</ele>
<time>2015-04-30T13:54:27Z</time>
</trkpt>
<trkpt lat="34.6719025" lon="33.0366342">
<ele>20.85</ele>
<time>2015-04-30T13:54:28Z</time>
</trkpt>
<trkpt lat="34.6718933" lon="33.0367415">
<ele>20.06</ele>
<time>2015-04-30T13:54:30Z</time>
</trkpt>
<trkpt lat="34.6718872" lon="33.0367989">
<ele>19.93</ele>
<time>2015-04-30T13:54:31Z</time>
</trkpt>
<trkpt lat="34.6718734" lon="33.0369006">
<ele>19.09</ele>
<time>2015-04-30T13:54:33Z</time>
</trkpt>
<trkpt lat="34.6718568" lon="33.0369818">
<ele>18.37</ele>
<time>2015-04-30T13:54:35Z</time>
</trkpt>
<trkpt lat="34.6718500" lon="33.0370756">
<ele>17.95</ele>
<time>2015-04-30T13:54:37Z</time>
</trkpt>
<trkpt lat="34.6718424" lon="33.0371683">
<ele>16.59</ele>
<time>2015-04-30T13:54:39Z</time>
</trkpt>
<trkpt lat="34.6718346" lon="33.0372475">
<ele>16.50</ele>
<time>2015-04-30T13:54:41Z</time>
</trkpt>
<trkpt lat="34.6718383" lon="33.0373268">
<ele>16.23</ele>
<time>2015-04-30T13:54:43Z</time>
</trkpt>
<trkpt lat="34.6718406" lon="33.0373970">
<ele>16.66</ele>
<time>2015-04-30T13:54:45Z</time>
</trkpt>
<trkpt lat="34.6718419" lon="33.0374670">
<ele>16.27</ele>
<time>2015-04-30T13:54:47Z</time>
</trkpt>
<trkpt lat="34.6718405" lon="33.0375418">
<ele>15.17</ele>
<time>2015-04-30T13:54:49Z</time>
</trkpt>
<trkpt lat="34.6718495" lon="33.0376398">
<ele>14.40</ele>
<time>2015-04-30T13:54:51Z</time>
</trkpt>
<trkpt lat="34.6718592" lon="33.0377228">
<ele>14.70</ele>
<time>2015-04-30T13:54:53Z</time>
</trkpt>
<trkpt lat="34.6718694" lon="33.0377838">
<ele>14.03</ele>
<time>2015-04-30T13:54:55Z</time>
</trkpt>
<trkpt lat="34.6718834" lon="33.0378599">
<ele>13.61</ele>
<time>2015-04-30T13:54:57Z</time>
</trkpt>
<trkpt lat="34.6718996" lon="33.0379412">
<ele>13.76</ele>
<time>2015-04-30T13:54:59Z</time>
</trkpt>
<trkpt lat="34.6719251" lon="33.0380242">
<ele>13.79</ele>
<time>2015-04-30T13:55:01Z</time>
</trkpt>
<trkpt lat="34.6719563" lon="33.0381024">
<ele>13.80</ele>
<time>2015-04-30T13:55:03Z</time>
</trkpt>
<trkpt lat="34.6719861" lon="33.0381851">
<ele>14.30</ele>
<time>2015-04-30T13:55:05Z</time>
</trkpt>
<trkpt lat="34.6720087" lon="33.0382691">
<ele>14.18</ele>
<time>2015-04-30T13:55:07Z</time>
</trkpt>
<trkpt lat="34.6720164" lon="33.0383562">
<ele>13.90</ele>
<time>2015-04-30T13:55:09Z</time>
</trkpt>
<trkpt lat="34.6720088" lon="33.0384376">
<ele>13.83</ele>
<time>2015-04-30T13:55:11Z</time>
</trkpt>
<trkpt lat="34.6719951" lon="33.0385207">
<ele>13.81</ele>
<time>2015-04-30T13:55:13Z</time>
</trkpt>
<trkpt lat="34.6719767" lon="33.0386009">
<ele>15.06</ele>
<time>2015-04-30T13:55:15Z</time>
</trkpt>
<trkpt lat="34.6719483" lon="33.0386756">
<ele>17.12</ele>
<time>2015-04-30T13:55:17Z</time>
</trkpt>
<trkpt lat="34.6719257" lon="33.0387455">
<ele>17.63</ele>
<time>2015-04-30T13:55:19Z</time>
</trkpt>
<trkpt lat="34.6719133" lon="33.0388173">
<ele>17.26</ele>
<time>2015-04-30T13:55:21Z</time>
</trkpt>
<trkpt lat="34.6719026" lon="33.0388870">
<ele>15.17</ele>
<time>2015-04-30T13:55:23Z</time>
</trkpt>
<trkpt lat="34.6718836" lon="33.0389616">
<ele>14.15</ele>
<time>2015-04-30T13:55:25Z</time>
</trkpt>
<trkpt lat="34.6718620" lon="33.0390394">
<ele>13.89</ele>
<time>2015-04-30T13:55:27Z</time>
</trkpt>
<trkpt lat="34.6718403" lon="33.0391313">
<ele>13.83</ele>
<time>2015-04-30T13:55:29Z</time>
</trkpt>
<trkpt lat="34.6718144" lon="33.0392326">
<ele>14.56</ele>
<time>2015-04-30T13:55:31Z</time>
</trkpt>
<trkpt lat="34.6718002" lon="33.0392859">
<ele>14.68</ele>
<time>2015-04-30T13:55:32Z</time>
</trkpt>
<trkpt lat="34.6717759" lon="33.0393879">
<ele>14.27</ele>
<time>2015-04-30T13:55:34Z</time>
</trkpt>
<trkpt lat="34.6717513" lon="33.0394925">
<ele>13.92</ele>
<time>2015-04-30T13:55:36Z</time>
</trkpt>
<trkpt lat="34.6717401" lon="33.0395457">
<ele>13.36</ele>
<time>2015-04-30T13:55:37Z</time>
</trkpt>
<trkpt lat="34.6717140" lon="33.0396478">
<ele>13.69</ele>
<time>2015-04-30T13:55:39Z</time>
</trkpt>
<trkpt lat="34.6716826" lon="33.0397467">
<ele>13.28</ele>
<time>2015-04-30T13:55:41Z</time>
</trkpt>
<trkpt lat="34.6716654" lon="33.0398431">
<ele>12.42</ele>
<time>2015-04-30T13:55:43Z</time>
</trkpt>
<trkpt lat="34.6716484" lon="33.0399388">
<ele>11.46</ele>
<time>2015-04-30T13:55:45Z</time>
</trkpt>
<trkpt lat="34.6716234" lon="33.0400274">
<ele>10.72</ele>
<time>2015-04-30T13:55:47Z</time>
</trkpt>
<trkpt lat="34.6715992" lon="33.0401227">
<ele>10.28</ele>
<time>2015-04-30T13:55:49Z</time>
</trkpt>
<trkpt lat="34.6715788" lon="33.0402146">
<ele>10.42</ele>
<time>2015-04-30T13:55:51Z</time>
</trkpt>
<trkpt lat="34.6715599" lon="33.0403012">
<ele>10.71</ele>
<time>2015-04-30T13:55:53Z</time>
</trkpt>
<trkpt lat="34.6715475" lon="33.0403726">
<ele>10.78</ele>
<time>2015-04-30T13:55:55Z</time>
</trkpt>
<trkpt lat="34.6715364" lon="33.0404382">
<ele>11.55</ele>
<time>2015-04-30T13:55:58Z</time>
</trkpt>
<trkpt lat="34.6715215" lon="33.0404903">
<ele>12.52</ele>
<time>2015-04-30T13:56:01Z</time>
</trkpt>
<trkpt lat="34.6715204" lon="33.0405567">
<ele>14.47</ele>
<time>2015-04-30T13:56:05Z</time>
</trkpt>
<trkpt lat="34.6715378" lon="33.0406273">
<ele>15.64</ele>
<time>2015-04-30T13:56:08Z</time>
</trkpt>
<trkpt lat="34.6715724" lon="33.0406927">
<ele>14.91</ele>
<time>2015-04-30T13:56:11Z</time>
</trkpt>
<trkpt lat="34.6716007" lon="33.0407388">
<ele>14.83</ele>
<time>2015-04-30T13:56:13Z</time>
</trkpt>
<trkpt lat="34.6716297" lon="33.0407892">
<ele>14.06</ele>
<time>2015-04-30T13:56:15Z</time>
</trkpt>
<trkpt lat="34.6716535" lon="33.0408473">
<ele>14.37</ele>
<time>2015-04-30T13:56:17Z</time>
</trkpt>
<trkpt lat="34.6716720" lon="33.0409071">
<ele>14.70</ele>
<time>2015-04-30T13:56:19Z</time>
</trkpt>
<trkpt lat="34.6716915" lon="33.0409683">
<ele>14.78</ele>
<time>2015-04-30T13:56:21Z</time>
</trkpt>
<trkpt lat="34.6717135" lon="33.0410245">
<ele>14.05</ele>
<time>2015-04-30T13:56:23Z</time>
</trkpt>
<trkpt lat="34.6717369" lon="33.0410818">
<ele>13.86</ele>
<time>2015-04-30T13:56:25Z</time>
</trkpt>
<trkpt lat="34.6717474" lon="33.0411408">
<ele>13.32</ele>
<time>2015-04-30T13:56:27Z</time>
</trkpt>
<trkpt lat="34.6717548" lon="33.0412000">
<ele>13.43</ele>
<time>2015-04-30T13:56:29Z</time>
</trkpt>
<trkpt lat="34.6717695" lon="33.0412764">
<ele>15.13</ele>
<time>2015-04-30T13:56:32Z</time>
</trkpt>
<trkpt lat="34.6717762" lon="33.0413381">
<ele>16.47</ele>
<time>2015-04-30T13:56:35Z</time>
</trkpt>
<trkpt lat="34.6717855" lon="33.0413972">
<ele>17.51</ele>
<time>2015-04-30T13:56:38Z</time>
</trkpt>
<trkpt lat="34.6717987" lon="33.0414558">
<ele>15.64</ele>
<time>2015-04-30T13:56:41Z</time>
</trkpt>
<trkpt lat="34.6718220" lon="33.0415093">
<ele>11.53</ele>
<time>2015-04-30T13:56:44Z</time>
</trkpt>
<trkpt lat="34.6718196" lon="33.0415763">
<ele>11.02</ele>
<time>2015-04-30T13:56:47Z</time>
</trkpt>
<trkpt lat="34.6718197" lon="33.0416535">
<ele>9.21</ele>
<time>2015-04-30T13:56:50Z</time>
</trkpt>
<trkpt lat="34.6718151" lon="33.0417105">
<ele>8.65</ele>
<time>2015-04-30T13:56:52Z</time>
</trkpt>
<trkpt lat="34.6718116" lon="33.0417704">
<ele>8.02</ele>
<time>2015-04-30T13:56:54Z</time>
</trkpt>
<trkpt lat="34.6718087" lon="33.0418298">
<ele>8.36</ele>
<time>2015-04-30T13:56:56Z</time>
</trkpt>
<trkpt lat="34.6717987" lon="33.0418884">
<ele>8.44</ele>
<time>2015-04-30T13:56:58Z</time>
</trkpt>
<trkpt lat="34.6717952" lon="33.0419462">
<ele>8.96</ele>
<time>2015-04-30T13:57:00Z</time>
</trkpt>
<trkpt lat="34.6717757" lon="33.0420219">
<ele>10.07</ele>
<time>2015-04-30T13:57:03Z</time>
</trkpt>
<trkpt lat="34.6717469" lon="33.0420830">
<ele>9.84</ele>
<time>2015-04-30T13:57:06Z</time>
</trkpt>
<trkpt lat="34.6717011" lon="33.0420988">
<ele>14.80</ele>
<time>2015-04-30T13:57:41Z</time>
</trkpt>
<trkpt lat="34.6717268" lon="33.0421604">
<ele>15.09</ele>
<time>2015-04-30T13:57:46Z</time>
</trkpt>
<trkpt lat="34.6717532" lon="33.0422138">
<ele>16.69</ele>
<time>2015-04-30T13:57:51Z</time>
</trkpt>
<trkpt lat="34.6717920" lon="33.0422455">
<ele>20.46</ele>
<time>2015-04-30T13:58:06Z</time>
</trkpt>
<trkpt lat="34.6718411" lon="33.0422401">
<ele>23.33</ele>
<time>2015-04-30T13:58:12Z</time>
</trkpt>
<trkpt lat="34.6718868" lon="33.0422445">
<ele>26.35</ele>
<time>2015-04-30T13:58:17Z</time>
</trkpt>
<trkpt lat="34.6719315" lon="33.0422263">
<ele>27.13</ele>
<time>2015-04-30T13:58:22Z</time>
</trkpt>
<trkpt lat="34.6719840" lon="33.0422099">
<ele>27.16</ele>
<time>2015-04-30T13:58:32Z</time>
</trkpt>
<trkpt lat="34.6720465" lon="33.0421969">
<ele>24.35</ele>
<time>2015-04-30T13:58:35Z</time>
</trkpt>
<trkpt lat="34.6721176" lon="33.0422004">
<ele>23.44</ele>
<time>2015-04-30T13:58:37Z</time>
</trkpt>
<trkpt lat="34.6721793" lon="33.0421971">
<ele>23.46</ele>
<time>2015-04-30T13:58:39Z</time>
</trkpt>
<trkpt lat="34.6722422" lon="33.0421839">
<ele>22.97</ele>
<time>2015-04-30T13:58:41Z</time>
</trkpt>
<trkpt lat="34.6723013" lon="33.0421697">
<ele>21.60</ele>
<time>2015-04-30T13:58:43Z</time>
</trkpt>
<trkpt lat="34.6723556" lon="33.0421713">
<ele>20.50</ele>
<time>2015-04-30T13:58:45Z</time>
</trkpt>
<trkpt lat="34.6724074" lon="33.0421989">
<ele>19.48</ele>
<time>2015-04-30T13:58:47Z</time>
</trkpt>
<trkpt lat="34.6724582" lon="33.0422283">
<ele>18.72</ele>
<time>2015-04-30T13:58:49Z</time>
</trkpt>
<trkpt lat="34.6725016" lon="33.0422500">
<ele>17.29</ele>
<time>2015-04-30T13:58:52Z</time>
</trkpt>
<trkpt lat="34.6725483" lon="33.0422472">
<ele>16.87</ele>
<time>2015-04-30T13:58:55Z</time>
</trkpt>
<trkpt lat="34.6725982" lon="33.0422368">
<ele>17.69</ele>
<time>2015-04-30T13:58:58Z</time>
</trkpt>
<trkpt lat="34.6726431" lon="33.0422317">
<ele>18.54</ele>
<time>2015-04-30T13:59:01Z</time>
</trkpt>
<trkpt lat="34.6726961" lon="33.0422069">
<ele>19.35</ele>
<time>2015-04-30T13:59:05Z</time>
</trkpt>
<trkpt lat="34.6727478" lon="33.0421940">
<ele>20.65</ele>
<time>2015-04-30T13:59:09Z</time>
</trkpt>
<trkpt lat="34.6727958" lon="33.0421723">
<ele>21.23</ele>
<time>2015-04-30T13:59:13Z</time>
</trkpt>
<trkpt lat="34.6728407" lon="33.0421657">
<ele>20.61</ele>
<time>2015-04-30T13:59:16Z</time>
</trkpt>
<trkpt lat="34.6728897" lon="33.0421504">
<ele>20.03</ele>
<time>2015-04-30T13:59:19Z</time>
</trkpt>
<trkpt lat="34.6729397" lon="33.0421547">
<ele>18.58</ele>
<time>2015-04-30T13:59:22Z</time>
</trkpt>
<trkpt lat="34.6729967" lon="33.0421374">
<ele>17.85</ele>
<time>2015-04-30T13:59:26Z</time>
</trkpt>
<trkpt lat="34.6730485" lon="33.0421104">
<ele>18.56</ele>
<time>2015-04-30T13:59:30Z</time>
</trkpt>
<trkpt lat="34.6730934" lon="33.0420872">
<ele>18.77</ele>
<time>2015-04-30T13:59:33Z</time>
</trkpt>
<trkpt lat="34.6731349" lon="33.0420575">
<ele>20.71</ele>
<time>2015-04-30T13:59:38Z</time>
</trkpt>
<trkpt lat="34.6731803" lon="33.0420486">
<ele>18.81</ele>
<time>2015-04-30T13:59:50Z</time>
</trkpt>
<trkpt lat="34.6732254" lon="33.0420747">
<ele>16.96</ele>
<time>2015-04-30T13:59:56Z</time>
</trkpt>
<trkpt lat="34.6732629" lon="33.0421236">
<ele>18.45</ele>
<time>2015-04-30T13:59:59Z</time>
</trkpt>
<trkpt lat="34.6732967" lon="33.0421707">
<ele>18.13</ele>
<time>2015-04-30T14:00:02Z</time>
</trkpt>
<trkpt lat="34.6733131" lon="33.0422436">
<ele>15.51</ele>
<time>2015-04-30T14:00:06Z</time>
</trkpt>
<trkpt lat="34.6733374" lon="33.0422982">
<ele>13.23</ele>
<time>2015-04-30T14:00:08Z</time>
</trkpt>
<trkpt lat="34.6733687" lon="33.0423673">
<ele>13.61</ele>
<time>2015-04-30T14:00:11Z</time>
</trkpt>
<trkpt lat="34.6733859" lon="33.0424276">
<ele>15.40</ele>
<time>2015-04-30T14:00:14Z</time>
</trkpt>
<trkpt lat="34.6733904" lon="33.0424988">
<ele>15.88</ele>
<time>2015-04-30T14:00:17Z</time>
</trkpt>
<trkpt lat="34.6734090" lon="33.0425488">
<ele>16.57</ele>
<time>2015-04-30T14:00:19Z</time>
</trkpt>
<trkpt lat="34.6734360" lon="33.0426183">
<ele>19.65</ele>
<time>2015-04-30T14:00:22Z</time>
</trkpt>
<trkpt lat="34.6734572" lon="33.0426861">
<ele>19.41</ele>
<time>2015-04-30T14:00:25Z</time>
</trkpt>
<trkpt lat="34.6734709" lon="33.0427541">
<ele>18.63</ele>
<time>2015-04-30T14:00:28Z</time>
</trkpt>
<trkpt lat="34.6734917" lon="33.0428071">
<ele>15.80</ele>
<time>2015-04-30T14:00:33Z</time>
</trkpt>
<trkpt lat="34.6735074" lon="33.0428609">
<ele>13.93</ele>
<time>2015-04-30T14:00:38Z</time>
</trkpt>
<trkpt lat="34.6735082" lon="33.0429201">
<ele>10.94</ele>
<time>2015-04-30T14:00:41Z</time>
</trkpt>
<trkpt lat="34.6735395" lon="33.0429953">
<ele>10.57</ele>
<time>2015-04-30T14:00:44Z</time>
</trkpt>
<trkpt lat="34.6735651" lon="33.0430486">
<ele>11.50</ele>
<time>2015-04-30T14:00:46Z</time>
</trkpt>
<trkpt lat="34.6735855" lon="33.0431269">
<ele>13.27</ele>
<time>2015-04-30T14:00:49Z</time>
</trkpt>
<trkpt lat="34.6736098" lon="33.0431810">
<ele>14.17</ele>
<time>2015-04-30T14:00:51Z</time>
</trkpt>
<trkpt lat="34.6736402" lon="33.0432381">
<ele>14.90</ele>
<time>2015-04-30T14:00:53Z</time>
</trkpt>
<trkpt lat="34.6736744" lon="33.0432916">
<ele>15.33</ele>
<time>2015-04-30T14:00:55Z</time>
</trkpt>
<trkpt lat="34.6737079" lon="33.0433541">
<ele>17.18</ele>
<time>2015-04-30T14:00:57Z</time>
</trkpt>
<trkpt lat="34.6737482" lon="33.0434172">
<ele>19.60</ele>
<time>2015-04-30T14:01:00Z</time>
</trkpt>
<trkpt lat="34.6737739" lon="33.0434835">
<ele>21.15</ele>
<time>2015-04-30T14:01:03Z</time>
</trkpt>
<trkpt lat="34.6737949" lon="33.0435502">
<ele>20.10</ele>
<time>2015-04-30T14:01:06Z</time>
</trkpt>
<trkpt lat="34.6738103" lon="33.0436049">
<ele>18.84</ele>
<time>2015-04-30T14:01:09Z</time>
</trkpt>
<trkpt lat="34.6738073" lon="33.0436690">
<ele>25.36</ele>
<time>2015-04-30T14:01:20Z</time>
</trkpt>
<trkpt lat="34.6737871" lon="33.0437351">
<ele>25.37</ele>
<time>2015-04-30T14:01:23Z</time>
</trkpt>
<trkpt lat="34.6738052" lon="33.0438057">
<ele>25.59</ele>
<time>2015-04-30T14:01:27Z</time>
</trkpt>
<trkpt lat="34.6738435" lon="33.0438498">
<ele>27.25</ele>
<time>2015-04-30T14:01:29Z</time>
</trkpt>
<trkpt lat="34.6738843" lon="33.0438960">
<ele>27.92</ele>
<time>2015-04-30T14:01:31Z</time>
</trkpt>
<trkpt lat="34.6739100" lon="33.0439551">
<ele>26.94</ele>
<time>2015-04-30T14:01:34Z</time>
</trkpt>
<trkpt lat="34.6739095" lon="33.0440118">
<ele>29.88</ele>
<time>2015-04-30T14:01:38Z</time>
</trkpt>
<trkpt lat="34.6739139" lon="33.0440666">
<ele>29.31</ele>
<time>2015-04-30T14:01:42Z</time>
</trkpt>
<trkpt lat="34.6739570" lon="33.0440943">
<ele>27.21</ele>
<time>2015-04-30T14:01:46Z</time>
</trkpt>
<trkpt lat="34.6740002" lon="33.0441305">
<ele>23.39</ele>
<time>2015-04-30T14:01:50Z</time>
</trkpt>
<trkpt lat="34.6740091" lon="33.0441852">
<ele>25.05</ele>
<time>2015-04-30T14:02:00Z</time>
</trkpt>
<trkpt lat="34.6740276" lon="33.0443054">
<ele>28.37</ele>
<time>2015-04-30T14:03:15Z</time>
</trkpt>
<trkpt lat="34.6740326" lon="33.0443775">
<ele>31.87</ele>
<time>2015-04-30T14:03:18Z</time>
</trkpt>
<trkpt lat="34.6740493" lon="33.0444475">
<ele>34.82</ele>
<time>2015-04-30T14:03:20Z</time>
</trkpt>
<trkpt lat="34.6740816" lon="33.0445169">
<ele>37.81</ele>
<time>2015-04-30T14:03:22Z</time>
</trkpt>
<trkpt lat="34.6741068" lon="33.0445839">
<ele>41.31</ele>
<time>2015-04-30T14:03:24Z</time>
</trkpt>
<trkpt lat="34.6741238" lon="33.0446461">
<ele>45.18</ele>
<time>2015-04-30T14:03:26Z</time>
</trkpt>
<trkpt lat="34.6741301" lon="33.0447120">
<ele>47.98</ele>
<time>2015-04-30T14:03:29Z</time>
</trkpt>
<trkpt lat="34.6741407" lon="33.0447676">
<ele>50.08</ele>
<time>2015-04-30T14:03:32Z</time>
</trkpt>
<trkpt lat="34.6741848" lon="33.0448060">
<ele>46.93</ele>
<time>2015-04-30T14:03:38Z</time>
</trkpt>
<trkpt lat="34.6741870" lon="33.0448620">
<ele>45.84</ele>
<time>2015-04-30T14:03:40Z</time>
</trkpt>
<trkpt lat="34.6742132" lon="33.0449319">
<ele>45.06</ele>
<time>2015-04-30T14:03:42Z</time>
</trkpt>
<trkpt lat="34.6742338" lon="33.0450024">
<ele>44.12</ele>
<time>2015-04-30T14:03:44Z</time>
</trkpt>
<trkpt lat="34.6742530" lon="33.0450612">
<ele>43.88</ele>
<time>2015-04-30T14:03:46Z</time>
</trkpt>
<trkpt lat="34.6742769" lon="33.0451100">
<ele>42.07</ele>
<time>2015-04-30T14:03:48Z</time>
</trkpt>
<trkpt lat="34.6743162" lon="33.0451367">
<ele>32.30</ele>
<time>2015-04-30T14:11:00Z</time>
</trkpt>
<trkpt lat="34.6743027" lon="33.0450734">
<ele>29.02</ele>
<time>2015-04-30T14:25:51Z</time>
</trkpt>
<trkpt lat="34.6742771" lon="33.0450205">
<ele>27.86</ele>
<time>2015-04-30T14:25:53Z</time>
</trkpt>
<trkpt lat="34.6742394" lon="33.0449744">
<ele>31.19</ele>
<time>2015-04-30T14:25:56Z</time>
</trkpt>
<trkpt lat="34.6742138" lon="33.0449056">
<ele>31.20</ele>
<time>2015-04-30T14:26:00Z</time>
</trkpt>
<trkpt lat="34.6741746" lon="33.0448628">
<ele>27.65</ele>
<time>2015-04-30T14:26:02Z</time>
</trkpt>
<trkpt lat="34.6741481" lon="33.0448151">
<ele>26.02</ele>
<time>2015-04-30T14:26:04Z</time>
</trkpt>
<trkpt lat="34.6741381" lon="33.0447533">
<ele>25.46</ele>
<time>2015-04-30T14:26:07Z</time>
</trkpt>
<trkpt lat="34.6741309" lon="33.0446852">
<ele>24.32</ele>
<time>2015-04-30T14:26:12Z</time>
</trkpt>
<trkpt lat="34.6740998" lon="33.0446188">
<ele>21.84</ele>
<time>2015-04-30T14:26:16Z</time>
</trkpt>
<trkpt lat="34.6740718" lon="33.0445580">
<ele>20.56</ele>
<time>2015-04-30T14:26:18Z</time>
</trkpt>
<trkpt lat="34.6740482" lon="33.0444966">
<ele>17.99</ele>
<time>2015-04-30T14:26:20Z</time>
</trkpt>
<trkpt lat="34.6740332" lon="33.0444319">
<ele>16.35</ele>
<time>2015-04-30T14:26:22Z</time>
</trkpt>
<trkpt lat="34.6740353" lon="33.0443697">
<ele>13.94</ele>
<time>2015-04-30T14:26:24Z</time>
</trkpt>
<trkpt lat="34.6740313" lon="33.0443124">
<ele>14.09</ele>
<time>2015-04-30T14:26:26Z</time>
</trkpt>
<trkpt lat="34.6740117" lon="33.0442623">
<ele>15.38</ele>
<time>2015-04-30T14:26:28Z</time>
</trkpt>
<trkpt lat="34.6739761" lon="33.0442147">
<ele>16.95</ele>
<time>2015-04-30T14:26:30Z</time>
</trkpt>
<trkpt lat="34.6739252" lon="33.0441674">
<ele>18.34</ele>
<time>2015-04-30T14:26:32Z</time>
</trkpt>
<trkpt lat="34.6738643" lon="33.0441293">
<ele>18.69</ele>
<time>2015-04-30T14:26:34Z</time>
</trkpt>
<trkpt lat="34.6738146" lon="33.0440940">
<ele>18.77</ele>
<time>2015-04-30T14:26:36Z</time>
</trkpt>
<trkpt lat="34.6737655" lon="33.0440482">
<ele>19.18</ele>
<time>2015-04-30T14:26:39Z</time>
</trkpt>
<trkpt lat="34.6737201" lon="33.0440310">
<ele>20.10</ele>
<time>2015-04-30T14:26:42Z</time>
</trkpt>
<trkpt lat="34.6736710" lon="33.0440041">
<ele>19.26</ele>
<time>2015-04-30T14:26:46Z</time>
</trkpt>
<trkpt lat="34.6736195" lon="33.0439744">
<ele>18.90</ele>
<time>2015-04-30T14:26:50Z</time>
</trkpt>
<trkpt lat="34.6735732" lon="33.0439604">
<ele>17.20</ele>
<time>2015-04-30T14:26:57Z</time>
</trkpt>
<trkpt lat="34.6735122" lon="33.0439738">
<ele>16.89</ele>
<time>2015-04-30T14:27:01Z</time>
</trkpt>
<trkpt lat="34.6734653" lon="33.0439846">
<ele>16.08</ele>
<time>2015-04-30T14:27:03Z</time>
</trkpt>
<trkpt lat="34.6734152" lon="33.0439798">
<ele>15.62</ele>
<time>2015-04-30T14:27:05Z</time>
</trkpt>
<trkpt lat="34.6733630" lon="33.0439898">
<ele>15.26</ele>
<time>2015-04-30T14:27:07Z</time>
</trkpt>
<trkpt lat="34.6733151" lon="33.0440353">
<ele>14.17</ele>
<time>2015-04-30T14:27:09Z</time>
</trkpt>
<trkpt lat="34.6732652" lon="33.0440314">
<ele>12.95</ele>
<time>2015-04-30T14:27:13Z</time>
</trkpt>
<trkpt lat="34.6732230" lon="33.0439998">
<ele>12.19</ele>
<time>2015-04-30T14:27:17Z</time>
</trkpt>
<trkpt lat="34.6731666" lon="33.0440124">
<ele>14.05</ele>
<time>2015-04-30T14:27:28Z</time>
</trkpt>
<trkpt lat="34.6731282" lon="33.0440426">
<ele>13.62</ele>
<time>2015-04-30T14:27:30Z</time>
</trkpt>
<trkpt lat="34.6730706" lon="33.0440652">
<ele>15.76</ele>
<time>2015-04-30T14:27:32Z</time>
</trkpt>
<trkpt lat="34.6729910" lon="33.0440916">
<ele>17.04</ele>
<time>2015-04-30T14:27:34Z</time>
</trkpt>
<trkpt lat="34.6729226" lon="33.0441318">
<ele>17.11</ele>
<time>2015-04-30T14:27:36Z</time>
</trkpt>
<trkpt lat="34.6728625" lon="33.0441772">
<ele>16.38</ele>
<time>2015-04-30T14:27:38Z</time>
</trkpt>
<trkpt lat="34.6728166" lon="33.0442152">
<ele>15.50</ele>
<time>2015-04-30T14:27:41Z</time>
</trkpt>
<trkpt lat="34.6727503" lon="33.0442001">
<ele>17.51</ele>
<time>2015-04-30T14:27:49Z</time>
</trkpt>
<trkpt lat="34.6726966" lon="33.0441636">
<ele>16.14</ele>
<time>2015-04-30T14:27:52Z</time>
</trkpt>
<trkpt lat="34.6726592" lon="33.0441061">
<ele>16.70</ele>
<time>2015-04-30T14:27:56Z</time>
</trkpt>
<trkpt lat="34.6726225" lon="33.0440435">
<ele>16.03</ele>
<time>2015-04-30T14:27:58Z</time>
</trkpt>
<trkpt lat="34.6725839" lon="33.0439838">
<ele>15.86</ele>
<time>2015-04-30T14:28:00Z</time>
</trkpt>
<trkpt lat="34.6725456" lon="33.0439337">
<ele>15.32</ele>
<time>2015-04-30T14:28:02Z</time>
</trkpt>
<trkpt lat="34.6725113" lon="33.0438936">
<ele>14.43</ele>
<time>2015-04-30T14:28:04Z</time>
</trkpt>
<trkpt lat="34.6724822" lon="33.0438468">
<ele>13.46</ele>
<time>2015-04-30T14:28:06Z</time>
</trkpt>
<trkpt lat="34.6724573" lon="33.0437941">
<ele>12.97</ele>
<time>2015-04-30T14:28:08Z</time>
</trkpt>
<trkpt lat="34.6724389" lon="33.0437383">
<ele>13.60</ele>
<time>2015-04-30T14:28:10Z</time>
</trkpt>
<trkpt lat="34.6724232" lon="33.0436682">
<ele>10.78</ele>
<time>2015-04-30T14:28:13Z</time>
</trkpt>
<trkpt lat="34.6723882" lon="33.0435975">
<ele>9.93</ele>
<time>2015-04-30T14:28:16Z</time>
</trkpt>
<trkpt lat="34.6723498" lon="33.0435540">
<ele>9.83</ele>
<time>2015-04-30T14:28:18Z</time>
</trkpt>
<trkpt lat="34.6723128" lon="33.0435032">
<ele>10.31</ele>
<time>2015-04-30T14:28:20Z</time>
</trkpt>
<trkpt lat="34.6722799" lon="33.0434567">
<ele>9.93</ele>
<time>2015-04-30T14:28:22Z</time>
</trkpt>
<trkpt lat="34.6722560" lon="33.0433959">
<ele>10.57</ele>
<time>2015-04-30T14:28:25Z</time>
</trkpt>
<trkpt lat="34.6722250" lon="33.0433347">
<ele>11.15</ele>
<time>2015-04-30T14:28:28Z</time>
</trkpt>
<trkpt lat="34.6722040" lon="33.0432702">
<ele>12.22</ele>
<time>2015-04-30T14:28:31Z</time>
</trkpt>
<trkpt lat="34.6721829" lon="33.0432150">
<ele>13.61</ele>
<time>2015-04-30T14:28:34Z</time>
</trkpt>
<trkpt lat="34.6721511" lon="33.0431744">
<ele>12.53</ele>
<time>2015-04-30T14:28:37Z</time>
</trkpt>
<trkpt lat="34.6721370" lon="33.0431209">
<ele>11.14</ele>
<time>2015-04-30T14:28:40Z</time>
</trkpt>
<trkpt lat="34.6721211" lon="33.0430672">
<ele>9.59</ele>
<time>2015-04-30T14:28:46Z</time>
</trkpt>
<trkpt lat="34.6720944" lon="33.0430110">
<ele>8.03</ele>
<time>2015-04-30T14:28:49Z</time>
</trkpt>
<trkpt lat="34.6720486" lon="33.0429495">
<ele>6.46</ele>
<time>2015-04-30T14:28:52Z</time>
</trkpt>
<trkpt lat="34.6720113" lon="33.0429047">
<ele>7.22</ele>
<time>2015-04-30T14:28:54Z</time>
</trkpt>
<trkpt lat="34.6719920" lon="33.0428495">
<ele>7.91</ele>
<time>2015-04-30T14:28:56Z</time>
</trkpt>
<trkpt lat="34.6719942" lon="33.0427795">
<ele>9.69</ele>
<time>2015-04-30T14:28:59Z</time>
</trkpt>
<trkpt lat="34.6719401" lon="33.0427911">
<ele>12.44</ele>
<time>2015-04-30T14:29:06Z</time>
</trkpt>
<trkpt lat="34.6718915" lon="33.0427380">
<ele>11.71</ele>
<time>2015-04-30T14:29:08Z</time>
</trkpt>
<trkpt lat="34.6718542" lon="33.0426772">
<ele>11.28</ele>
<time>2015-04-30T14:29:10Z</time>
</trkpt>
<trkpt lat="34.6718174" lon="33.0426191">
<ele>10.92</ele>
<time>2015-04-30T14:29:12Z</time>
</trkpt>
<trkpt lat="34.6717852" lon="33.0425681">
<ele>11.33</ele>
<time>2015-04-30T14:29:14Z</time>
</trkpt>
<trkpt lat="34.6717535" lon="33.0424983">
<ele>13.50</ele>
<time>2015-04-30T14:29:17Z</time>
</trkpt>
<trkpt lat="34.6717456" lon="33.0424288">
<ele>13.02</ele>
<time>2015-04-30T14:29:20Z</time>
</trkpt>
<trkpt lat="34.6717916" lon="33.0424099">
<ele>12.75</ele>
<time>2015-04-30T14:29:28Z</time>
</trkpt>
<trkpt lat="34.6718005" lon="33.0423553">
<ele>21.30</ele>
<time>2015-04-30T14:29:38Z</time>
</trkpt>
<trkpt lat="34.6717551" lon="33.0423434">
<ele>23.61</ele>
<time>2015-04-30T14:30:04Z</time>
</trkpt>
<trkpt lat="34.6717098" lon="33.0423150">
<ele>24.77</ele>
<time>2015-04-30T14:30:09Z</time>
</trkpt>
<trkpt lat="34.6716797" lon="33.0422688">
<ele>18.46</ele>
<time>2015-04-30T14:30:27Z</time>
</trkpt>
<trkpt lat="34.6716322" lon="33.0422514">
<ele>18.56</ele>
<time>2015-04-30T14:30:35Z</time>
</trkpt>
<trkpt lat="34.6715793" lon="33.0422437">
<ele>19.73</ele>
<time>2015-04-30T14:30:40Z</time>
</trkpt>
</trkseg>
</trk>
</gpx>
